<?xml version="1.0" encoding="UTF-8" standalone="no" ?>
<gpx xmlns="http://www.topografix.com/GPX/1/1" xmlns:xsi="http://www.w3.org/2001/XMLSchema-instance" xsi:schemaLocation="http://www.topografix.com/GPX/1/1 http://www.topografix.com/GPX/1/1/gpx.xsd" version="1.1" creator="VisuGPX - https://www.visugpx.com">
  <metadata>
    <name>MB. Sortie du 08/09/2019</name>
    <desc><![CDATA[Sortie VTT du dimanche 08 septembre 2019]]></desc>
  </metadata>
  <trk>
    <name><![CDATA[MB. Sortie du 08/09/2019_1]]></name>
    <trkseg>
      <trkpt lat="47.26439" lon="-2.31562">
        <ele>11.4</ele>
        <time>2019-09-08T06:57:12Z</time>
      </trkpt>
      <trkpt lat="47.26439" lon="-2.31562">
        <ele>73</ele>
        <time>2019-09-08T06:57:20Z</time>
      </trkpt>
      <trkpt lat="47.26414" lon="-2.31554">
        <ele>69</ele>
        <time>2019-09-08T06:59:16Z</time>
      </trkpt>
      <trkpt lat="47.26409" lon="-2.31559">
        <ele>69</ele>
        <time>2019-09-08T06:59:19Z</time>
      </trkpt>
      <trkpt lat="47.26407" lon="-2.31568">
        <ele>67</ele>
        <time>2019-09-08T06:59:22Z</time>
      </trkpt>
      <trkpt lat="47.26406" lon="-2.31585">
        <ele>64</ele>
        <time>2019-09-08T06:59:25Z</time>
      </trkpt>
      <trkpt lat="47.26406" lon="-2.31592">
        <ele>63</ele>
        <time>2019-09-08T06:59:26Z</time>
      </trkpt>
      <trkpt lat="47.26406" lon="-2.31598">
        <ele>62</ele>
        <time>2019-09-08T06:59:27Z</time>
      </trkpt>
      <trkpt lat="47.26406" lon="-2.31605">
        <ele>63</ele>
        <time>2019-09-08T06:59:28Z</time>
      </trkpt>
      <trkpt lat="47.26406" lon="-2.31611">
        <ele>62</ele>
        <time>2019-09-08T06:59:29Z</time>
      </trkpt>
      <trkpt lat="47.26406" lon="-2.31619">
        <ele>62</ele>
        <time>2019-09-08T06:59:30Z</time>
      </trkpt>
      <trkpt lat="47.26406" lon="-2.31625">
        <ele>62</ele>
        <time>2019-09-08T06:59:31Z</time>
      </trkpt>
      <trkpt lat="47.26406" lon="-2.31632">
        <ele>61</ele>
        <time>2019-09-08T06:59:32Z</time>
      </trkpt>
      <trkpt lat="47.26407" lon="-2.3164">
        <ele>61</ele>
        <time>2019-09-08T06:59:33Z</time>
      </trkpt>
      <trkpt lat="47.26409" lon="-2.31652">
        <ele>61</ele>
        <time>2019-09-08T06:59:36Z</time>
      </trkpt>
      <trkpt lat="47.26402" lon="-2.31663">
        <ele>60</ele>
        <time>2019-09-08T06:59:41Z</time>
      </trkpt>
      <trkpt lat="47.26397" lon="-2.31665">
        <ele>60</ele>
        <time>2019-09-08T06:59:43Z</time>
      </trkpt>
      <trkpt lat="47.26384" lon="-2.3167">
        <ele>61</ele>
        <time>2019-09-08T06:59:47Z</time>
      </trkpt>
      <trkpt lat="47.2638" lon="-2.31671">
        <ele>61</ele>
        <time>2019-09-08T06:59:48Z</time>
      </trkpt>
      <trkpt lat="47.26373" lon="-2.31678">
        <ele>60</ele>
        <time>2019-09-08T06:59:50Z</time>
      </trkpt>
      <trkpt lat="47.26369" lon="-2.3168">
        <ele>60</ele>
        <time>2019-09-08T06:59:51Z</time>
      </trkpt>
      <trkpt lat="47.26357" lon="-2.31687">
        <ele>61</ele>
        <time>2019-09-08T06:59:56Z</time>
      </trkpt>
      <trkpt lat="47.26357" lon="-2.31687">
        <ele>7.1</ele>
        <time>2019-09-08T07:00:01Z</time>
      </trkpt>
      <trkpt lat="47.26357" lon="-2.31687">
        <ele>7.1</ele>
        <time>2019-09-08T07:00:41Z</time>
      </trkpt>
      <trkpt lat="47.26337" lon="-2.31694">
        <ele>61</ele>
        <time>2019-09-08T07:00:41Z</time>
      </trkpt>
      <trkpt lat="47.26317" lon="-2.31715">
        <ele>53</ele>
        <time>2019-09-08T07:00:47Z</time>
      </trkpt>
      <trkpt lat="47.26306" lon="-2.31714">
        <ele>55</ele>
        <time>2019-09-08T07:00:48Z</time>
      </trkpt>
      <trkpt lat="47.26298" lon="-2.31732">
        <ele>54</ele>
        <time>2019-09-08T07:00:51Z</time>
      </trkpt>
      <trkpt lat="47.263" lon="-2.31738">
        <ele>55</ele>
        <time>2019-09-08T07:00:52Z</time>
      </trkpt>
      <trkpt lat="47.26302" lon="-2.31749">
        <ele>58</ele>
        <time>2019-09-08T07:00:54Z</time>
      </trkpt>
      <trkpt lat="47.26304" lon="-2.31777">
        <ele>59</ele>
        <time>2019-09-08T07:00:58Z</time>
      </trkpt>
      <trkpt lat="47.26304" lon="-2.31793">
        <ele>59</ele>
        <time>2019-09-08T07:01:00Z</time>
      </trkpt>
      <trkpt lat="47.26302" lon="-2.31806">
        <ele>62</ele>
        <time>2019-09-08T07:01:02Z</time>
      </trkpt>
      <trkpt lat="47.26301" lon="-2.31813">
        <ele>62</ele>
        <time>2019-09-08T07:01:03Z</time>
      </trkpt>
      <trkpt lat="47.26299" lon="-2.31828">
        <ele>64</ele>
        <time>2019-09-08T07:01:05Z</time>
      </trkpt>
      <trkpt lat="47.26298" lon="-2.31835">
        <ele>66</ele>
        <time>2019-09-08T07:01:06Z</time>
      </trkpt>
      <trkpt lat="47.26297" lon="-2.31844">
        <ele>67</ele>
        <time>2019-09-08T07:01:07Z</time>
      </trkpt>
      <trkpt lat="47.26297" lon="-2.31853">
        <ele>66</ele>
        <time>2019-09-08T07:01:08Z</time>
      </trkpt>
      <trkpt lat="47.26297" lon="-2.31862">
        <ele>65</ele>
        <time>2019-09-08T07:01:09Z</time>
      </trkpt>
      <trkpt lat="47.26297" lon="-2.3187">
        <ele>64</ele>
        <time>2019-09-08T07:01:10Z</time>
      </trkpt>
      <trkpt lat="47.26297" lon="-2.31877">
        <ele>63</ele>
        <time>2019-09-08T07:01:11Z</time>
      </trkpt>
      <trkpt lat="47.26282" lon="-2.31891">
        <ele>65</ele>
        <time>2019-09-08T07:01:15Z</time>
      </trkpt>
      <trkpt lat="47.26279" lon="-2.31896">
        <ele>65</ele>
        <time>2019-09-08T07:01:16Z</time>
      </trkpt>
      <trkpt lat="47.26275" lon="-2.31901">
        <ele>65</ele>
        <time>2019-09-08T07:01:17Z</time>
      </trkpt>
      <trkpt lat="47.26268" lon="-2.31912">
        <ele>65</ele>
        <time>2019-09-08T07:01:19Z</time>
      </trkpt>
      <trkpt lat="47.26265" lon="-2.31916">
        <ele>64</ele>
        <time>2019-09-08T07:01:20Z</time>
      </trkpt>
      <trkpt lat="47.26259" lon="-2.31926">
        <ele>63</ele>
        <time>2019-09-08T07:01:22Z</time>
      </trkpt>
      <trkpt lat="47.26251" lon="-2.31936">
        <ele>64</ele>
        <time>2019-09-08T07:01:24Z</time>
      </trkpt>
      <trkpt lat="47.26244" lon="-2.31947">
        <ele>64</ele>
        <time>2019-09-08T07:01:26Z</time>
      </trkpt>
      <trkpt lat="47.2624" lon="-2.31952">
        <ele>64</ele>
        <time>2019-09-08T07:01:27Z</time>
      </trkpt>
      <trkpt lat="47.26235" lon="-2.31957">
        <ele>65</ele>
        <time>2019-09-08T07:01:28Z</time>
      </trkpt>
      <trkpt lat="47.2623" lon="-2.31961">
        <ele>65</ele>
        <time>2019-09-08T07:01:29Z</time>
      </trkpt>
      <trkpt lat="47.26226" lon="-2.31964">
        <ele>65</ele>
        <time>2019-09-08T07:01:30Z</time>
      </trkpt>
      <trkpt lat="47.26221" lon="-2.31971">
        <ele>65</ele>
        <time>2019-09-08T07:01:32Z</time>
      </trkpt>
      <trkpt lat="47.26216" lon="-2.31978">
        <ele>65</ele>
        <time>2019-09-08T07:01:34Z</time>
      </trkpt>
      <trkpt lat="47.2621" lon="-2.31984">
        <ele>65</ele>
        <time>2019-09-08T07:01:36Z</time>
      </trkpt>
      <trkpt lat="47.26207" lon="-2.31988">
        <ele>65</ele>
        <time>2019-09-08T07:01:37Z</time>
      </trkpt>
      <trkpt lat="47.26199" lon="-2.31996">
        <ele>65</ele>
        <time>2019-09-08T07:01:40Z</time>
      </trkpt>
      <trkpt lat="47.26195" lon="-2.32003">
        <ele>65</ele>
        <time>2019-09-08T07:01:42Z</time>
      </trkpt>
      <trkpt lat="47.26192" lon="-2.32012">
        <ele>65</ele>
        <time>2019-09-08T07:01:45Z</time>
      </trkpt>
      <trkpt lat="47.26187" lon="-2.32016">
        <ele>65</ele>
        <time>2019-09-08T07:01:47Z</time>
      </trkpt>
      <trkpt lat="47.2618" lon="-2.32017">
        <ele>66</ele>
        <time>2019-09-08T07:01:50Z</time>
      </trkpt>
      <trkpt lat="47.26169" lon="-2.32024">
        <ele>64</ele>
        <time>2019-09-08T07:01:52Z</time>
      </trkpt>
      <trkpt lat="47.26164" lon="-2.32027">
        <ele>63</ele>
        <time>2019-09-08T07:01:54Z</time>
      </trkpt>
      <trkpt lat="47.26158" lon="-2.32037">
        <ele>62</ele>
        <time>2019-09-08T07:01:56Z</time>
      </trkpt>
      <trkpt lat="47.26153" lon="-2.32051">
        <ele>61</ele>
        <time>2019-09-08T07:01:58Z</time>
      </trkpt>
      <trkpt lat="47.26151" lon="-2.32059">
        <ele>60</ele>
        <time>2019-09-08T07:01:59Z</time>
      </trkpt>
      <trkpt lat="47.26141" lon="-2.32087">
        <ele>58</ele>
        <time>2019-09-08T07:02:03Z</time>
      </trkpt>
      <trkpt lat="47.26136" lon="-2.32102">
        <ele>58</ele>
        <time>2019-09-08T07:02:05Z</time>
      </trkpt>
      <trkpt lat="47.26133" lon="-2.32116">
        <ele>58</ele>
        <time>2019-09-08T07:02:07Z</time>
      </trkpt>
      <trkpt lat="47.26131" lon="-2.32123">
        <ele>58</ele>
        <time>2019-09-08T07:02:08Z</time>
      </trkpt>
      <trkpt lat="47.26129" lon="-2.3213">
        <ele>58</ele>
        <time>2019-09-08T07:02:09Z</time>
      </trkpt>
      <trkpt lat="47.26124" lon="-2.32143">
        <ele>58</ele>
        <time>2019-09-08T07:02:11Z</time>
      </trkpt>
      <trkpt lat="47.26115" lon="-2.32163">
        <ele>59</ele>
        <time>2019-09-08T07:02:14Z</time>
      </trkpt>
      <trkpt lat="47.26113" lon="-2.3217">
        <ele>59</ele>
        <time>2019-09-08T07:02:15Z</time>
      </trkpt>
      <trkpt lat="47.26106" lon="-2.32184">
        <ele>58</ele>
        <time>2019-09-08T07:02:16Z</time>
      </trkpt>
      <trkpt lat="47.26103" lon="-2.3219">
        <ele>59</ele>
        <time>2019-09-08T07:02:17Z</time>
      </trkpt>
      <trkpt lat="47.261" lon="-2.32196">
        <ele>59</ele>
        <time>2019-09-08T07:02:18Z</time>
      </trkpt>
      <trkpt lat="47.26096" lon="-2.32203">
        <ele>59</ele>
        <time>2019-09-08T07:02:20Z</time>
      </trkpt>
      <trkpt lat="47.26087" lon="-2.32221">
        <ele>60</ele>
        <time>2019-09-08T07:02:22Z</time>
      </trkpt>
      <trkpt lat="47.26083" lon="-2.32226">
        <ele>59</ele>
        <time>2019-09-08T07:02:24Z</time>
      </trkpt>
      <trkpt lat="47.26076" lon="-2.32238">
        <ele>59</ele>
        <time>2019-09-08T07:02:26Z</time>
      </trkpt>
      <trkpt lat="47.26063" lon="-2.3225">
        <ele>60</ele>
        <time>2019-09-08T07:02:29Z</time>
      </trkpt>
      <trkpt lat="47.26058" lon="-2.32254">
        <ele>60</ele>
        <time>2019-09-08T07:02:30Z</time>
      </trkpt>
      <trkpt lat="47.2605" lon="-2.32264">
        <ele>60</ele>
        <time>2019-09-08T07:02:31Z</time>
      </trkpt>
      <trkpt lat="47.26046" lon="-2.32269">
        <ele>60</ele>
        <time>2019-09-08T07:02:33Z</time>
      </trkpt>
      <trkpt lat="47.26037" lon="-2.32278">
        <ele>60</ele>
        <time>2019-09-08T07:02:35Z</time>
      </trkpt>
      <trkpt lat="47.26025" lon="-2.32292">
        <ele>59</ele>
        <time>2019-09-08T07:02:38Z</time>
      </trkpt>
      <trkpt lat="47.26021" lon="-2.32297">
        <ele>59</ele>
        <time>2019-09-08T07:02:39Z</time>
      </trkpt>
      <trkpt lat="47.26017" lon="-2.32302">
        <ele>59</ele>
        <time>2019-09-08T07:02:40Z</time>
      </trkpt>
      <trkpt lat="47.26012" lon="-2.32308">
        <ele>58</ele>
        <time>2019-09-08T07:02:41Z</time>
      </trkpt>
      <trkpt lat="47.26008" lon="-2.32313">
        <ele>58</ele>
        <time>2019-09-08T07:02:42Z</time>
      </trkpt>
      <trkpt lat="47.25995" lon="-2.32328">
        <ele>58</ele>
        <time>2019-09-08T07:02:45Z</time>
      </trkpt>
      <trkpt lat="47.25992" lon="-2.32334">
        <ele>57</ele>
        <time>2019-09-08T07:02:46Z</time>
      </trkpt>
      <trkpt lat="47.25984" lon="-2.32346">
        <ele>56</ele>
        <time>2019-09-08T07:02:48Z</time>
      </trkpt>
      <trkpt lat="47.2598" lon="-2.3235">
        <ele>56</ele>
        <time>2019-09-08T07:02:49Z</time>
      </trkpt>
      <trkpt lat="47.25976" lon="-2.32356">
        <ele>55</ele>
        <time>2019-09-08T07:02:50Z</time>
      </trkpt>
      <trkpt lat="47.25972" lon="-2.32362">
        <ele>55</ele>
        <time>2019-09-08T07:02:51Z</time>
      </trkpt>
      <trkpt lat="47.25968" lon="-2.32367">
        <ele>55</ele>
        <time>2019-09-08T07:02:52Z</time>
      </trkpt>
      <trkpt lat="47.25964" lon="-2.32372">
        <ele>54</ele>
        <time>2019-09-08T07:02:53Z</time>
      </trkpt>
      <trkpt lat="47.2596" lon="-2.32378">
        <ele>54</ele>
        <time>2019-09-08T07:02:54Z</time>
      </trkpt>
      <trkpt lat="47.25949" lon="-2.32394">
        <ele>54</ele>
        <time>2019-09-08T07:02:57Z</time>
      </trkpt>
      <trkpt lat="47.25945" lon="-2.32399">
        <ele>54</ele>
        <time>2019-09-08T07:02:58Z</time>
      </trkpt>
      <trkpt lat="47.25941" lon="-2.32404">
        <ele>54</ele>
        <time>2019-09-08T07:02:59Z</time>
      </trkpt>
      <trkpt lat="47.25937" lon="-2.32409">
        <ele>54</ele>
        <time>2019-09-08T07:03:00Z</time>
      </trkpt>
      <trkpt lat="47.25933" lon="-2.32414">
        <ele>54</ele>
        <time>2019-09-08T07:03:01Z</time>
      </trkpt>
      <trkpt lat="47.25929" lon="-2.3242">
        <ele>54</ele>
        <time>2019-09-08T07:03:02Z</time>
      </trkpt>
      <trkpt lat="47.25925" lon="-2.32425">
        <ele>54</ele>
        <time>2019-09-08T07:03:03Z</time>
      </trkpt>
      <trkpt lat="47.25913" lon="-2.32441">
        <ele>54</ele>
        <time>2019-09-08T07:03:06Z</time>
      </trkpt>
      <trkpt lat="47.25909" lon="-2.32445">
        <ele>54</ele>
        <time>2019-09-08T07:03:07Z</time>
      </trkpt>
      <trkpt lat="47.25902" lon="-2.32455">
        <ele>54</ele>
        <time>2019-09-08T07:03:09Z</time>
      </trkpt>
      <trkpt lat="47.25899" lon="-2.3246">
        <ele>54</ele>
        <time>2019-09-08T07:03:10Z</time>
      </trkpt>
      <trkpt lat="47.25895" lon="-2.32464">
        <ele>53</ele>
        <time>2019-09-08T07:03:11Z</time>
      </trkpt>
      <trkpt lat="47.25891" lon="-2.32468">
        <ele>54</ele>
        <time>2019-09-08T07:03:12Z</time>
      </trkpt>
      <trkpt lat="47.25887" lon="-2.32471">
        <ele>53</ele>
        <time>2019-09-08T07:03:13Z</time>
      </trkpt>
      <trkpt lat="47.25878" lon="-2.32474">
        <ele>53</ele>
        <time>2019-09-08T07:03:15Z</time>
      </trkpt>
      <trkpt lat="47.25873" lon="-2.32475">
        <ele>54</ele>
        <time>2019-09-08T07:03:16Z</time>
      </trkpt>
      <trkpt lat="47.25867" lon="-2.32475">
        <ele>54</ele>
        <time>2019-09-08T07:03:17Z</time>
      </trkpt>
      <trkpt lat="47.25862" lon="-2.32476">
        <ele>54</ele>
        <time>2019-09-08T07:03:18Z</time>
      </trkpt>
      <trkpt lat="47.25857" lon="-2.32476">
        <ele>54</ele>
        <time>2019-09-08T07:03:19Z</time>
      </trkpt>
      <trkpt lat="47.25846" lon="-2.32474">
        <ele>54</ele>
        <time>2019-09-08T07:03:21Z</time>
      </trkpt>
      <trkpt lat="47.25841" lon="-2.32474">
        <ele>54</ele>
        <time>2019-09-08T07:03:22Z</time>
      </trkpt>
      <trkpt lat="47.25836" lon="-2.32473">
        <ele>54</ele>
        <time>2019-09-08T07:03:23Z</time>
      </trkpt>
      <trkpt lat="47.25831" lon="-2.3247">
        <ele>54</ele>
        <time>2019-09-08T07:03:24Z</time>
      </trkpt>
      <trkpt lat="47.25825" lon="-2.32468">
        <ele>54</ele>
        <time>2019-09-08T07:03:25Z</time>
      </trkpt>
      <trkpt lat="47.2582" lon="-2.32465">
        <ele>54</ele>
        <time>2019-09-08T07:03:26Z</time>
      </trkpt>
      <trkpt lat="47.25815" lon="-2.32462">
        <ele>54</ele>
        <time>2019-09-08T07:03:27Z</time>
      </trkpt>
      <trkpt lat="47.25806" lon="-2.32459">
        <ele>54</ele>
        <time>2019-09-08T07:03:29Z</time>
      </trkpt>
      <trkpt lat="47.25801" lon="-2.32459">
        <ele>54</ele>
        <time>2019-09-08T07:03:30Z</time>
      </trkpt>
      <trkpt lat="47.25793" lon="-2.32462">
        <ele>54</ele>
        <time>2019-09-08T07:03:32Z</time>
      </trkpt>
      <trkpt lat="47.25784" lon="-2.32461">
        <ele>54</ele>
        <time>2019-09-08T07:03:34Z</time>
      </trkpt>
      <trkpt lat="47.25776" lon="-2.32452">
        <ele>54</ele>
        <time>2019-09-08T07:03:36Z</time>
      </trkpt>
      <trkpt lat="47.25773" lon="-2.32446">
        <ele>54</ele>
        <time>2019-09-08T07:03:37Z</time>
      </trkpt>
      <trkpt lat="47.2577" lon="-2.3244">
        <ele>53</ele>
        <time>2019-09-08T07:03:38Z</time>
      </trkpt>
      <trkpt lat="47.25768" lon="-2.32434">
        <ele>54</ele>
        <time>2019-09-08T07:03:39Z</time>
      </trkpt>
      <trkpt lat="47.25765" lon="-2.32429">
        <ele>53</ele>
        <time>2019-09-08T07:03:40Z</time>
      </trkpt>
      <trkpt lat="47.25749" lon="-2.32428">
        <ele>53</ele>
        <time>2019-09-08T07:03:43Z</time>
      </trkpt>
      <trkpt lat="47.25744" lon="-2.32428">
        <ele>54</ele>
        <time>2019-09-08T07:03:44Z</time>
      </trkpt>
      <trkpt lat="47.25733" lon="-2.32428">
        <ele>54</ele>
        <time>2019-09-08T07:03:46Z</time>
      </trkpt>
      <trkpt lat="47.25727" lon="-2.32427">
        <ele>54</ele>
        <time>2019-09-08T07:03:47Z</time>
      </trkpt>
      <trkpt lat="47.25722" lon="-2.32426">
        <ele>54</ele>
        <time>2019-09-08T07:03:48Z</time>
      </trkpt>
      <trkpt lat="47.25705" lon="-2.32425">
        <ele>55</ele>
        <time>2019-09-08T07:03:51Z</time>
      </trkpt>
      <trkpt lat="47.25695" lon="-2.32424">
        <ele>56</ele>
        <time>2019-09-08T07:03:53Z</time>
      </trkpt>
      <trkpt lat="47.25689" lon="-2.32424">
        <ele>56</ele>
        <time>2019-09-08T07:03:54Z</time>
      </trkpt>
      <trkpt lat="47.25684" lon="-2.32423">
        <ele>57</ele>
        <time>2019-09-08T07:03:55Z</time>
      </trkpt>
      <trkpt lat="47.25679" lon="-2.32423">
        <ele>57</ele>
        <time>2019-09-08T07:03:56Z</time>
      </trkpt>
      <trkpt lat="47.25675" lon="-2.32422">
        <ele>57</ele>
        <time>2019-09-08T07:03:57Z</time>
      </trkpt>
      <trkpt lat="47.25665" lon="-2.32435">
        <ele>56</ele>
        <time>2019-09-08T07:04:00Z</time>
      </trkpt>
      <trkpt lat="47.25665" lon="-2.32442">
        <ele>56</ele>
        <time>2019-09-08T07:04:01Z</time>
      </trkpt>
      <trkpt lat="47.25666" lon="-2.32448">
        <ele>56</ele>
        <time>2019-09-08T07:04:02Z</time>
      </trkpt>
      <trkpt lat="47.25668" lon="-2.32455">
        <ele>56</ele>
        <time>2019-09-08T07:04:03Z</time>
      </trkpt>
      <trkpt lat="47.2567" lon="-2.32461">
        <ele>56</ele>
        <time>2019-09-08T07:04:04Z</time>
      </trkpt>
      <trkpt lat="47.25672" lon="-2.32468">
        <ele>56</ele>
        <time>2019-09-08T07:04:05Z</time>
      </trkpt>
      <trkpt lat="47.25677" lon="-2.32486">
        <ele>57</ele>
        <time>2019-09-08T07:04:08Z</time>
      </trkpt>
      <trkpt lat="47.25679" lon="-2.32492">
        <ele>57</ele>
        <time>2019-09-08T07:04:09Z</time>
      </trkpt>
      <trkpt lat="47.25681" lon="-2.32498">
        <ele>57</ele>
        <time>2019-09-08T07:04:10Z</time>
      </trkpt>
      <trkpt lat="47.25683" lon="-2.32504">
        <ele>58</ele>
        <time>2019-09-08T07:04:11Z</time>
      </trkpt>
      <trkpt lat="47.2569" lon="-2.32522">
        <ele>58</ele>
        <time>2019-09-08T07:04:14Z</time>
      </trkpt>
      <trkpt lat="47.25691" lon="-2.32528">
        <ele>58</ele>
        <time>2019-09-08T07:04:15Z</time>
      </trkpt>
      <trkpt lat="47.25693" lon="-2.32533">
        <ele>59</ele>
        <time>2019-09-08T07:04:16Z</time>
      </trkpt>
      <trkpt lat="47.25696" lon="-2.32545">
        <ele>59</ele>
        <time>2019-09-08T07:04:18Z</time>
      </trkpt>
      <trkpt lat="47.257" lon="-2.32556">
        <ele>58</ele>
        <time>2019-09-08T07:04:20Z</time>
      </trkpt>
      <trkpt lat="47.25701" lon="-2.32561">
        <ele>59</ele>
        <time>2019-09-08T07:04:21Z</time>
      </trkpt>
      <trkpt lat="47.25703" lon="-2.32566">
        <ele>58</ele>
        <time>2019-09-08T07:04:22Z</time>
      </trkpt>
      <trkpt lat="47.25705" lon="-2.32571">
        <ele>58</ele>
        <time>2019-09-08T07:04:23Z</time>
      </trkpt>
      <trkpt lat="47.25708" lon="-2.32583">
        <ele>58</ele>
        <time>2019-09-08T07:04:25Z</time>
      </trkpt>
      <trkpt lat="47.25711" lon="-2.32595">
        <ele>58</ele>
        <time>2019-09-08T07:04:27Z</time>
      </trkpt>
      <trkpt lat="47.25712" lon="-2.32607">
        <ele>58</ele>
        <time>2019-09-08T07:04:29Z</time>
      </trkpt>
      <trkpt lat="47.25708" lon="-2.32618">
        <ele>59</ele>
        <time>2019-09-08T07:04:31Z</time>
      </trkpt>
      <trkpt lat="47.257" lon="-2.32624">
        <ele>59</ele>
        <time>2019-09-08T07:04:33Z</time>
      </trkpt>
      <trkpt lat="47.25696" lon="-2.32627">
        <ele>59</ele>
        <time>2019-09-08T07:04:34Z</time>
      </trkpt>
      <trkpt lat="47.25688" lon="-2.3263">
        <ele>60</ele>
        <time>2019-09-08T07:04:36Z</time>
      </trkpt>
      <trkpt lat="47.25684" lon="-2.32633">
        <ele>61</ele>
        <time>2019-09-08T07:04:37Z</time>
      </trkpt>
      <trkpt lat="47.2568" lon="-2.32635">
        <ele>61</ele>
        <time>2019-09-08T07:04:38Z</time>
      </trkpt>
      <trkpt lat="47.25677" lon="-2.32638">
        <ele>61</ele>
        <time>2019-09-08T07:04:39Z</time>
      </trkpt>
      <trkpt lat="47.25672" lon="-2.32641">
        <ele>61</ele>
        <time>2019-09-08T07:04:40Z</time>
      </trkpt>
      <trkpt lat="47.25668" lon="-2.32644">
        <ele>62</ele>
        <time>2019-09-08T07:04:41Z</time>
      </trkpt>
      <trkpt lat="47.25665" lon="-2.32646">
        <ele>63</ele>
        <time>2019-09-08T07:04:42Z</time>
      </trkpt>
      <trkpt lat="47.25656" lon="-2.32649">
        <ele>63</ele>
        <time>2019-09-08T07:04:44Z</time>
      </trkpt>
      <trkpt lat="47.25652" lon="-2.3265">
        <ele>64</ele>
        <time>2019-09-08T07:04:45Z</time>
      </trkpt>
      <trkpt lat="47.25636" lon="-2.32658">
        <ele>64</ele>
        <time>2019-09-08T07:04:49Z</time>
      </trkpt>
      <trkpt lat="47.25627" lon="-2.3266">
        <ele>63</ele>
        <time>2019-09-08T07:04:51Z</time>
      </trkpt>
      <trkpt lat="47.25623" lon="-2.32661">
        <ele>63</ele>
        <time>2019-09-08T07:04:52Z</time>
      </trkpt>
      <trkpt lat="47.25611" lon="-2.32667">
        <ele>63</ele>
        <time>2019-09-08T07:04:55Z</time>
      </trkpt>
      <trkpt lat="47.25599" lon="-2.32672">
        <ele>63</ele>
        <time>2019-09-08T07:04:58Z</time>
      </trkpt>
      <trkpt lat="47.2559" lon="-2.32674">
        <ele>63</ele>
        <time>2019-09-08T07:05:00Z</time>
      </trkpt>
      <trkpt lat="47.25586" lon="-2.32676">
        <ele>63</ele>
        <time>2019-09-08T07:05:01Z</time>
      </trkpt>
      <trkpt lat="47.25581" lon="-2.32678">
        <ele>63</ele>
        <time>2019-09-08T07:05:02Z</time>
      </trkpt>
      <trkpt lat="47.25577" lon="-2.3268">
        <ele>64</ele>
        <time>2019-09-08T07:05:03Z</time>
      </trkpt>
      <trkpt lat="47.25567" lon="-2.32683">
        <ele>63</ele>
        <time>2019-09-08T07:05:05Z</time>
      </trkpt>
      <trkpt lat="47.25562" lon="-2.32685">
        <ele>63</ele>
        <time>2019-09-08T07:05:06Z</time>
      </trkpt>
      <trkpt lat="47.25547" lon="-2.32692">
        <ele>63</ele>
        <time>2019-09-08T07:05:09Z</time>
      </trkpt>
      <trkpt lat="47.25542" lon="-2.32694">
        <ele>63</ele>
        <time>2019-09-08T07:05:10Z</time>
      </trkpt>
      <trkpt lat="47.25538" lon="-2.32696">
        <ele>63</ele>
        <time>2019-09-08T07:05:11Z</time>
      </trkpt>
      <trkpt lat="47.25533" lon="-2.32699">
        <ele>63</ele>
        <time>2019-09-08T07:05:12Z</time>
      </trkpt>
      <trkpt lat="47.25524" lon="-2.32701">
        <ele>63</ele>
        <time>2019-09-08T07:05:14Z</time>
      </trkpt>
      <trkpt lat="47.25519" lon="-2.32702">
        <ele>63</ele>
        <time>2019-09-08T07:05:15Z</time>
      </trkpt>
      <trkpt lat="47.25509" lon="-2.32702">
        <ele>63</ele>
        <time>2019-09-08T07:05:17Z</time>
      </trkpt>
      <trkpt lat="47.25505" lon="-2.32702">
        <ele>63</ele>
        <time>2019-09-08T07:05:18Z</time>
      </trkpt>
      <trkpt lat="47.255" lon="-2.32703">
        <ele>63</ele>
        <time>2019-09-08T07:05:19Z</time>
      </trkpt>
      <trkpt lat="47.25495" lon="-2.32704">
        <ele>63</ele>
        <time>2019-09-08T07:05:20Z</time>
      </trkpt>
      <trkpt lat="47.25491" lon="-2.32706">
        <ele>63</ele>
        <time>2019-09-08T07:05:21Z</time>
      </trkpt>
      <trkpt lat="47.25482" lon="-2.32712">
        <ele>63</ele>
        <time>2019-09-08T07:05:23Z</time>
      </trkpt>
      <trkpt lat="47.25478" lon="-2.32716">
        <ele>63</ele>
        <time>2019-09-08T07:05:24Z</time>
      </trkpt>
      <trkpt lat="47.25474" lon="-2.32721">
        <ele>63</ele>
        <time>2019-09-08T07:05:25Z</time>
      </trkpt>
      <trkpt lat="47.25466" lon="-2.3273">
        <ele>62</ele>
        <time>2019-09-08T07:05:27Z</time>
      </trkpt>
      <trkpt lat="47.25462" lon="-2.32734">
        <ele>62</ele>
        <time>2019-09-08T07:05:28Z</time>
      </trkpt>
      <trkpt lat="47.25458" lon="-2.32739">
        <ele>62</ele>
        <time>2019-09-08T07:05:29Z</time>
      </trkpt>
      <trkpt lat="47.25447" lon="-2.32755">
        <ele>62</ele>
        <time>2019-09-08T07:05:32Z</time>
      </trkpt>
      <trkpt lat="47.25444" lon="-2.32761">
        <ele>62</ele>
        <time>2019-09-08T07:05:33Z</time>
      </trkpt>
      <trkpt lat="47.25441" lon="-2.32768">
        <ele>62</ele>
        <time>2019-09-08T07:05:34Z</time>
      </trkpt>
      <trkpt lat="47.25438" lon="-2.32775">
        <ele>61</ele>
        <time>2019-09-08T07:05:35Z</time>
      </trkpt>
      <trkpt lat="47.25436" lon="-2.32782">
        <ele>61</ele>
        <time>2019-09-08T07:05:36Z</time>
      </trkpt>
      <trkpt lat="47.25432" lon="-2.32788">
        <ele>61</ele>
        <time>2019-09-08T07:05:37Z</time>
      </trkpt>
      <trkpt lat="47.25428" lon="-2.32794">
        <ele>61</ele>
        <time>2019-09-08T07:05:38Z</time>
      </trkpt>
      <trkpt lat="47.25424" lon="-2.328">
        <ele>61</ele>
        <time>2019-09-08T07:05:39Z</time>
      </trkpt>
      <trkpt lat="47.25411" lon="-2.32818">
        <ele>61</ele>
        <time>2019-09-08T07:05:42Z</time>
      </trkpt>
      <trkpt lat="47.25407" lon="-2.32823">
        <ele>60</ele>
        <time>2019-09-08T07:05:43Z</time>
      </trkpt>
      <trkpt lat="47.25402" lon="-2.32829">
        <ele>60</ele>
        <time>2019-09-08T07:05:44Z</time>
      </trkpt>
      <trkpt lat="47.25398" lon="-2.32835">
        <ele>60</ele>
        <time>2019-09-08T07:05:45Z</time>
      </trkpt>
      <trkpt lat="47.25389" lon="-2.32844">
        <ele>60</ele>
        <time>2019-09-08T07:05:47Z</time>
      </trkpt>
      <trkpt lat="47.25381" lon="-2.32854">
        <ele>59</ele>
        <time>2019-09-08T07:05:49Z</time>
      </trkpt>
      <trkpt lat="47.25376" lon="-2.32858">
        <ele>60</ele>
        <time>2019-09-08T07:05:50Z</time>
      </trkpt>
      <trkpt lat="47.25363" lon="-2.32872">
        <ele>60</ele>
        <time>2019-09-08T07:05:53Z</time>
      </trkpt>
      <trkpt lat="47.25359" lon="-2.32876">
        <ele>60</ele>
        <time>2019-09-08T07:05:54Z</time>
      </trkpt>
      <trkpt lat="47.25355" lon="-2.3288">
        <ele>60</ele>
        <time>2019-09-08T07:05:55Z</time>
      </trkpt>
      <trkpt lat="47.25338" lon="-2.32897">
        <ele>59</ele>
        <time>2019-09-08T07:05:59Z</time>
      </trkpt>
      <trkpt lat="47.25334" lon="-2.32901">
        <ele>59</ele>
        <time>2019-09-08T07:06:00Z</time>
      </trkpt>
      <trkpt lat="47.25329" lon="-2.32907">
        <ele>59</ele>
        <time>2019-09-08T07:06:01Z</time>
      </trkpt>
      <trkpt lat="47.25313" lon="-2.32925">
        <ele>59</ele>
        <time>2019-09-08T07:06:05Z</time>
      </trkpt>
      <trkpt lat="47.25312" lon="-2.32931">
        <ele>59</ele>
        <time>2019-09-08T07:06:06Z</time>
      </trkpt>
      <trkpt lat="47.25313" lon="-2.32951">
        <ele>58</ele>
        <time>2019-09-08T07:06:09Z</time>
      </trkpt>
      <trkpt lat="47.25315" lon="-2.32958">
        <ele>58</ele>
        <time>2019-09-08T07:06:10Z</time>
      </trkpt>
      <trkpt lat="47.25317" lon="-2.32965">
        <ele>58</ele>
        <time>2019-09-08T07:06:11Z</time>
      </trkpt>
      <trkpt lat="47.25319" lon="-2.32972">
        <ele>58</ele>
        <time>2019-09-08T07:06:12Z</time>
      </trkpt>
      <trkpt lat="47.25322" lon="-2.32977">
        <ele>58</ele>
        <time>2019-09-08T07:06:13Z</time>
      </trkpt>
      <trkpt lat="47.25327" lon="-2.3299">
        <ele>58</ele>
        <time>2019-09-08T07:06:15Z</time>
      </trkpt>
      <trkpt lat="47.25333" lon="-2.33003">
        <ele>58</ele>
        <time>2019-09-08T07:06:17Z</time>
      </trkpt>
      <trkpt lat="47.25335" lon="-2.3301">
        <ele>58</ele>
        <time>2019-09-08T07:06:18Z</time>
      </trkpt>
      <trkpt lat="47.25338" lon="-2.33017">
        <ele>58</ele>
        <time>2019-09-08T07:06:19Z</time>
      </trkpt>
      <trkpt lat="47.25343" lon="-2.3303">
        <ele>58</ele>
        <time>2019-09-08T07:06:21Z</time>
      </trkpt>
      <trkpt lat="47.25345" lon="-2.33037">
        <ele>58</ele>
        <time>2019-09-08T07:06:22Z</time>
      </trkpt>
      <trkpt lat="47.25348" lon="-2.33043">
        <ele>58</ele>
        <time>2019-09-08T07:06:23Z</time>
      </trkpt>
      <trkpt lat="47.25358" lon="-2.33065">
        <ele>58</ele>
        <time>2019-09-08T07:06:27Z</time>
      </trkpt>
      <trkpt lat="47.25361" lon="-2.33072">
        <ele>58</ele>
        <time>2019-09-08T07:06:28Z</time>
      </trkpt>
      <trkpt lat="47.25363" lon="-2.33079">
        <ele>58</ele>
        <time>2019-09-08T07:06:29Z</time>
      </trkpt>
      <trkpt lat="47.25365" lon="-2.33085">
        <ele>58</ele>
        <time>2019-09-08T07:06:30Z</time>
      </trkpt>
      <trkpt lat="47.25367" lon="-2.3309">
        <ele>58</ele>
        <time>2019-09-08T07:06:31Z</time>
      </trkpt>
      <trkpt lat="47.2537" lon="-2.331">
        <ele>58</ele>
        <time>2019-09-08T07:06:33Z</time>
      </trkpt>
      <trkpt lat="47.25375" lon="-2.33117">
        <ele>58</ele>
        <time>2019-09-08T07:06:37Z</time>
      </trkpt>
      <trkpt lat="47.25375" lon="-2.33117">
        <ele>8</ele>
        <time>2019-09-08T07:06:42Z</time>
      </trkpt>
      <trkpt lat="47.25375" lon="-2.33117">
        <ele>8</ele>
        <time>2019-09-08T07:10:17Z</time>
      </trkpt>
      <trkpt lat="47.25365" lon="-2.33089">
        <ele>62</ele>
        <time>2019-09-08T07:10:17Z</time>
      </trkpt>
      <trkpt lat="47.2536" lon="-2.33071">
        <ele>74</ele>
        <time>2019-09-08T07:10:23Z</time>
      </trkpt>
      <trkpt lat="47.25358" lon="-2.33064">
        <ele>69</ele>
        <time>2019-09-08T07:10:25Z</time>
      </trkpt>
      <trkpt lat="47.25356" lon="-2.33061">
        <ele>69</ele>
        <time>2019-09-08T07:10:26Z</time>
      </trkpt>
      <trkpt lat="47.25354" lon="-2.33052">
        <ele>69</ele>
        <time>2019-09-08T07:10:28Z</time>
      </trkpt>
      <trkpt lat="47.25351" lon="-2.33044">
        <ele>67</ele>
        <time>2019-09-08T07:10:30Z</time>
      </trkpt>
      <trkpt lat="47.25348" lon="-2.33035">
        <ele>67</ele>
        <time>2019-09-08T07:10:32Z</time>
      </trkpt>
      <trkpt lat="47.25346" lon="-2.33031">
        <ele>67</ele>
        <time>2019-09-08T07:10:33Z</time>
      </trkpt>
      <trkpt lat="47.25343" lon="-2.33022">
        <ele>66</ele>
        <time>2019-09-08T07:10:35Z</time>
      </trkpt>
      <trkpt lat="47.25339" lon="-2.33015">
        <ele>67</ele>
        <time>2019-09-08T07:10:37Z</time>
      </trkpt>
      <trkpt lat="47.25337" lon="-2.3301">
        <ele>67</ele>
        <time>2019-09-08T07:10:38Z</time>
      </trkpt>
      <trkpt lat="47.25331" lon="-2.32997">
        <ele>66</ele>
        <time>2019-09-08T07:10:41Z</time>
      </trkpt>
      <trkpt lat="47.25329" lon="-2.32992">
        <ele>65</ele>
        <time>2019-09-08T07:10:42Z</time>
      </trkpt>
      <trkpt lat="47.25327" lon="-2.32988">
        <ele>65</ele>
        <time>2019-09-08T07:10:43Z</time>
      </trkpt>
      <trkpt lat="47.25324" lon="-2.32979">
        <ele>65</ele>
        <time>2019-09-08T07:10:45Z</time>
      </trkpt>
      <trkpt lat="47.25323" lon="-2.32974">
        <ele>64</ele>
        <time>2019-09-08T07:10:46Z</time>
      </trkpt>
      <trkpt lat="47.25319" lon="-2.32966">
        <ele>63</ele>
        <time>2019-09-08T07:10:48Z</time>
      </trkpt>
      <trkpt lat="47.25317" lon="-2.32961">
        <ele>62</ele>
        <time>2019-09-08T07:10:49Z</time>
      </trkpt>
      <trkpt lat="47.25315" lon="-2.32956">
        <ele>61</ele>
        <time>2019-09-08T07:10:50Z</time>
      </trkpt>
      <trkpt lat="47.25312" lon="-2.32948">
        <ele>61</ele>
        <time>2019-09-08T07:10:52Z</time>
      </trkpt>
      <trkpt lat="47.25311" lon="-2.32943">
        <ele>61</ele>
        <time>2019-09-08T07:10:53Z</time>
      </trkpt>
      <trkpt lat="47.2531" lon="-2.32933">
        <ele>61</ele>
        <time>2019-09-08T07:10:55Z</time>
      </trkpt>
      <trkpt lat="47.25312" lon="-2.32923">
        <ele>60</ele>
        <time>2019-09-08T07:10:57Z</time>
      </trkpt>
      <trkpt lat="47.25319" lon="-2.32912">
        <ele>58</ele>
        <time>2019-09-08T07:11:00Z</time>
      </trkpt>
      <trkpt lat="47.25328" lon="-2.32901">
        <ele>58</ele>
        <time>2019-09-08T07:11:03Z</time>
      </trkpt>
      <trkpt lat="47.25331" lon="-2.32898">
        <ele>58</ele>
        <time>2019-09-08T07:11:04Z</time>
      </trkpt>
      <trkpt lat="47.25333" lon="-2.32895">
        <ele>59</ele>
        <time>2019-09-08T07:11:05Z</time>
      </trkpt>
      <trkpt lat="47.25334" lon="-2.32884">
        <ele>59</ele>
        <time>2019-09-08T07:11:07Z</time>
      </trkpt>
      <trkpt lat="47.25329" lon="-2.32868">
        <ele>59</ele>
        <time>2019-09-08T07:11:10Z</time>
      </trkpt>
      <trkpt lat="47.25327" lon="-2.32862">
        <ele>59</ele>
        <time>2019-09-08T07:11:11Z</time>
      </trkpt>
      <trkpt lat="47.25322" lon="-2.32851">
        <ele>59</ele>
        <time>2019-09-08T07:11:13Z</time>
      </trkpt>
      <trkpt lat="47.2532" lon="-2.32845">
        <ele>59</ele>
        <time>2019-09-08T07:11:14Z</time>
      </trkpt>
      <trkpt lat="47.25317" lon="-2.3284">
        <ele>59</ele>
        <time>2019-09-08T07:11:15Z</time>
      </trkpt>
      <trkpt lat="47.25315" lon="-2.32835">
        <ele>59</ele>
        <time>2019-09-08T07:11:16Z</time>
      </trkpt>
      <trkpt lat="47.25314" lon="-2.32831">
        <ele>59</ele>
        <time>2019-09-08T07:11:17Z</time>
      </trkpt>
      <trkpt lat="47.2531" lon="-2.32821">
        <ele>59</ele>
        <time>2019-09-08T07:11:19Z</time>
      </trkpt>
      <trkpt lat="47.25305" lon="-2.32811">
        <ele>59</ele>
        <time>2019-09-08T07:11:21Z</time>
      </trkpt>
      <trkpt lat="47.25303" lon="-2.32807">
        <ele>59</ele>
        <time>2019-09-08T07:11:22Z</time>
      </trkpt>
      <trkpt lat="47.25299" lon="-2.32797">
        <ele>58</ele>
        <time>2019-09-08T07:11:24Z</time>
      </trkpt>
      <trkpt lat="47.25298" lon="-2.32793">
        <ele>58</ele>
        <time>2019-09-08T07:11:25Z</time>
      </trkpt>
      <trkpt lat="47.25292" lon="-2.32781">
        <ele>58</ele>
        <time>2019-09-08T07:11:28Z</time>
      </trkpt>
      <trkpt lat="47.2529" lon="-2.32778">
        <ele>59</ele>
        <time>2019-09-08T07:11:29Z</time>
      </trkpt>
      <trkpt lat="47.25286" lon="-2.3277">
        <ele>59</ele>
        <time>2019-09-08T07:11:31Z</time>
      </trkpt>
      <trkpt lat="47.25282" lon="-2.32764">
        <ele>59</ele>
        <time>2019-09-08T07:11:33Z</time>
      </trkpt>
      <trkpt lat="47.2528" lon="-2.3276">
        <ele>59</ele>
        <time>2019-09-08T07:11:34Z</time>
      </trkpt>
      <trkpt lat="47.25278" lon="-2.32756">
        <ele>59</ele>
        <time>2019-09-08T07:11:35Z</time>
      </trkpt>
      <trkpt lat="47.25276" lon="-2.32753">
        <ele>59</ele>
        <time>2019-09-08T07:11:36Z</time>
      </trkpt>
      <trkpt lat="47.25269" lon="-2.32743">
        <ele>59</ele>
        <time>2019-09-08T07:11:39Z</time>
      </trkpt>
      <trkpt lat="47.25262" lon="-2.32733">
        <ele>59</ele>
        <time>2019-09-08T07:11:42Z</time>
      </trkpt>
      <trkpt lat="47.25252" lon="-2.3272">
        <ele>59</ele>
        <time>2019-09-08T07:11:46Z</time>
      </trkpt>
      <trkpt lat="47.25246" lon="-2.32714">
        <ele>59</ele>
        <time>2019-09-08T07:11:48Z</time>
      </trkpt>
      <trkpt lat="47.25241" lon="-2.32708">
        <ele>59</ele>
        <time>2019-09-08T07:11:50Z</time>
      </trkpt>
      <trkpt lat="47.25234" lon="-2.32699">
        <ele>60</ele>
        <time>2019-09-08T07:11:53Z</time>
      </trkpt>
      <trkpt lat="47.2523" lon="-2.32695">
        <ele>59</ele>
        <time>2019-09-08T07:11:55Z</time>
      </trkpt>
      <trkpt lat="47.25224" lon="-2.32697">
        <ele>59</ele>
        <time>2019-09-08T07:11:58Z</time>
      </trkpt>
      <trkpt lat="47.25221" lon="-2.32699">
        <ele>60</ele>
        <time>2019-09-08T07:12:00Z</time>
      </trkpt>
      <trkpt lat="47.25216" lon="-2.32705">
        <ele>60</ele>
        <time>2019-09-08T07:12:04Z</time>
      </trkpt>
      <trkpt lat="47.25215" lon="-2.32716">
        <ele>60</ele>
        <time>2019-09-08T07:12:06Z</time>
      </trkpt>
      <trkpt lat="47.25213" lon="-2.32723">
        <ele>60</ele>
        <time>2019-09-08T07:12:07Z</time>
      </trkpt>
      <trkpt lat="47.25212" lon="-2.3273">
        <ele>60</ele>
        <time>2019-09-08T07:12:08Z</time>
      </trkpt>
      <trkpt lat="47.25211" lon="-2.32738">
        <ele>60</ele>
        <time>2019-09-08T07:12:09Z</time>
      </trkpt>
      <trkpt lat="47.25209" lon="-2.32745">
        <ele>59</ele>
        <time>2019-09-08T07:12:10Z</time>
      </trkpt>
      <trkpt lat="47.25208" lon="-2.32752">
        <ele>59</ele>
        <time>2019-09-08T07:12:11Z</time>
      </trkpt>
      <trkpt lat="47.25206" lon="-2.3276">
        <ele>58</ele>
        <time>2019-09-08T07:12:12Z</time>
      </trkpt>
      <trkpt lat="47.25201" lon="-2.32783">
        <ele>57</ele>
        <time>2019-09-08T07:12:15Z</time>
      </trkpt>
      <trkpt lat="47.25196" lon="-2.32813">
        <ele>57</ele>
        <time>2019-09-08T07:12:19Z</time>
      </trkpt>
      <trkpt lat="47.25195" lon="-2.3282">
        <ele>57</ele>
        <time>2019-09-08T07:12:20Z</time>
      </trkpt>
      <trkpt lat="47.25194" lon="-2.32826">
        <ele>57</ele>
        <time>2019-09-08T07:12:21Z</time>
      </trkpt>
      <trkpt lat="47.25193" lon="-2.32833">
        <ele>57</ele>
        <time>2019-09-08T07:12:22Z</time>
      </trkpt>
      <trkpt lat="47.25189" lon="-2.32851">
        <ele>56</ele>
        <time>2019-09-08T07:12:26Z</time>
      </trkpt>
      <trkpt lat="47.25183" lon="-2.32854">
        <ele>56</ele>
        <time>2019-09-08T07:12:29Z</time>
      </trkpt>
      <trkpt lat="47.25178" lon="-2.32852">
        <ele>56</ele>
        <time>2019-09-08T07:12:32Z</time>
      </trkpt>
      <trkpt lat="47.25172" lon="-2.32848">
        <ele>56</ele>
        <time>2019-09-08T07:12:33Z</time>
      </trkpt>
      <trkpt lat="47.25168" lon="-2.32846">
        <ele>56</ele>
        <time>2019-09-08T07:12:35Z</time>
      </trkpt>
      <trkpt lat="47.25164" lon="-2.32844">
        <ele>56</ele>
        <time>2019-09-08T07:12:36Z</time>
      </trkpt>
      <trkpt lat="47.2516" lon="-2.32842">
        <ele>56</ele>
        <time>2019-09-08T07:12:37Z</time>
      </trkpt>
      <trkpt lat="47.25155" lon="-2.3284">
        <ele>55</ele>
        <time>2019-09-08T07:12:38Z</time>
      </trkpt>
      <trkpt lat="47.2515" lon="-2.32839">
        <ele>55</ele>
        <time>2019-09-08T07:12:39Z</time>
      </trkpt>
      <trkpt lat="47.25147" lon="-2.32838">
        <ele>55</ele>
        <time>2019-09-08T07:12:40Z</time>
      </trkpt>
      <trkpt lat="47.25143" lon="-2.32837">
        <ele>55</ele>
        <time>2019-09-08T07:12:41Z</time>
      </trkpt>
      <trkpt lat="47.25139" lon="-2.32835">
        <ele>55</ele>
        <time>2019-09-08T07:12:42Z</time>
      </trkpt>
      <trkpt lat="47.25127" lon="-2.32833">
        <ele>55</ele>
        <time>2019-09-08T07:12:45Z</time>
      </trkpt>
      <trkpt lat="47.2512" lon="-2.32831">
        <ele>55</ele>
        <time>2019-09-08T07:12:47Z</time>
      </trkpt>
      <trkpt lat="47.25113" lon="-2.32827">
        <ele>55</ele>
        <time>2019-09-08T07:12:49Z</time>
      </trkpt>
      <trkpt lat="47.25102" lon="-2.32817">
        <ele>55</ele>
        <time>2019-09-08T07:12:52Z</time>
      </trkpt>
      <trkpt lat="47.25098" lon="-2.32814">
        <ele>55</ele>
        <time>2019-09-08T07:12:53Z</time>
      </trkpt>
      <trkpt lat="47.25093" lon="-2.32807">
        <ele>55</ele>
        <time>2019-09-08T07:12:55Z</time>
      </trkpt>
      <trkpt lat="47.25089" lon="-2.32799">
        <ele>55</ele>
        <time>2019-09-08T07:12:57Z</time>
      </trkpt>
      <trkpt lat="47.25086" lon="-2.32789">
        <ele>55</ele>
        <time>2019-09-08T07:12:59Z</time>
      </trkpt>
      <trkpt lat="47.25084" lon="-2.32784">
        <ele>55</ele>
        <time>2019-09-08T07:13:00Z</time>
      </trkpt>
      <trkpt lat="47.25082" lon="-2.32779">
        <ele>55</ele>
        <time>2019-09-08T07:13:01Z</time>
      </trkpt>
      <trkpt lat="47.25081" lon="-2.32774">
        <ele>55</ele>
        <time>2019-09-08T07:13:02Z</time>
      </trkpt>
      <trkpt lat="47.25078" lon="-2.32769">
        <ele>55</ele>
        <time>2019-09-08T07:13:03Z</time>
      </trkpt>
      <trkpt lat="47.25076" lon="-2.32764">
        <ele>55</ele>
        <time>2019-09-08T07:13:04Z</time>
      </trkpt>
      <trkpt lat="47.25072" lon="-2.32755">
        <ele>55</ele>
        <time>2019-09-08T07:13:06Z</time>
      </trkpt>
      <trkpt lat="47.2507" lon="-2.32751">
        <ele>55</ele>
        <time>2019-09-08T07:13:07Z</time>
      </trkpt>
      <trkpt lat="47.25066" lon="-2.32743">
        <ele>55</ele>
        <time>2019-09-08T07:13:09Z</time>
      </trkpt>
      <trkpt lat="47.25064" lon="-2.32738">
        <ele>54</ele>
        <time>2019-09-08T07:13:12Z</time>
      </trkpt>
      <trkpt lat="47.25062" lon="-2.32732">
        <ele>54</ele>
        <time>2019-09-08T07:13:16Z</time>
      </trkpt>
      <trkpt lat="47.2506" lon="-2.32728">
        <ele>54</ele>
        <time>2019-09-08T07:13:21Z</time>
      </trkpt>
      <trkpt lat="47.25056" lon="-2.32723">
        <ele>55</ele>
        <time>2019-09-08T07:13:32Z</time>
      </trkpt>
      <trkpt lat="47.25054" lon="-2.32719">
        <ele>55</ele>
        <time>2019-09-08T07:13:34Z</time>
      </trkpt>
      <trkpt lat="47.25051" lon="-2.32711">
        <ele>55</ele>
        <time>2019-09-08T07:13:36Z</time>
      </trkpt>
      <trkpt lat="47.25049" lon="-2.327">
        <ele>55</ele>
        <time>2019-09-08T07:13:39Z</time>
      </trkpt>
      <trkpt lat="47.25048" lon="-2.32696">
        <ele>55</ele>
        <time>2019-09-08T07:13:40Z</time>
      </trkpt>
      <trkpt lat="47.25044" lon="-2.32688">
        <ele>55</ele>
        <time>2019-09-08T07:13:42Z</time>
      </trkpt>
      <trkpt lat="47.25042" lon="-2.32684">
        <ele>55</ele>
        <time>2019-09-08T07:13:43Z</time>
      </trkpt>
      <trkpt lat="47.2504" lon="-2.32681">
        <ele>55</ele>
        <time>2019-09-08T07:13:44Z</time>
      </trkpt>
      <trkpt lat="47.25039" lon="-2.32678">
        <ele>55</ele>
        <time>2019-09-08T07:13:45Z</time>
      </trkpt>
      <trkpt lat="47.25036" lon="-2.32672">
        <ele>56</ele>
        <time>2019-09-08T07:13:47Z</time>
      </trkpt>
      <trkpt lat="47.25034" lon="-2.32669">
        <ele>55</ele>
        <time>2019-09-08T07:13:48Z</time>
      </trkpt>
      <trkpt lat="47.2503" lon="-2.32662">
        <ele>55</ele>
        <time>2019-09-08T07:13:50Z</time>
      </trkpt>
      <trkpt lat="47.25026" lon="-2.32658">
        <ele>55</ele>
        <time>2019-09-08T07:13:52Z</time>
      </trkpt>
      <trkpt lat="47.25023" lon="-2.32656">
        <ele>56</ele>
        <time>2019-09-08T07:13:53Z</time>
      </trkpt>
      <trkpt lat="47.25018" lon="-2.32648">
        <ele>56</ele>
        <time>2019-09-08T07:13:56Z</time>
      </trkpt>
      <trkpt lat="47.25015" lon="-2.32643">
        <ele>56</ele>
        <time>2019-09-08T07:13:58Z</time>
      </trkpt>
      <trkpt lat="47.25015" lon="-2.32636">
        <ele>56</ele>
        <time>2019-09-08T07:14:01Z</time>
      </trkpt>
      <trkpt lat="47.25024" lon="-2.32651">
        <ele>57</ele>
        <time>2019-09-08T07:14:07Z</time>
      </trkpt>
      <trkpt lat="47.25028" lon="-2.3266">
        <ele>58</ele>
        <time>2019-09-08T07:14:09Z</time>
      </trkpt>
      <trkpt lat="47.2503" lon="-2.32665">
        <ele>58</ele>
        <time>2019-09-08T07:14:10Z</time>
      </trkpt>
      <trkpt lat="47.25032" lon="-2.3267">
        <ele>58</ele>
        <time>2019-09-08T07:14:11Z</time>
      </trkpt>
      <trkpt lat="47.25034" lon="-2.32675">
        <ele>58</ele>
        <time>2019-09-08T07:14:12Z</time>
      </trkpt>
      <trkpt lat="47.25037" lon="-2.32679">
        <ele>58</ele>
        <time>2019-09-08T07:14:13Z</time>
      </trkpt>
      <trkpt lat="47.25039" lon="-2.32683">
        <ele>58</ele>
        <time>2019-09-08T07:14:14Z</time>
      </trkpt>
      <trkpt lat="47.25041" lon="-2.32688">
        <ele>58</ele>
        <time>2019-09-08T07:14:15Z</time>
      </trkpt>
      <trkpt lat="47.25047" lon="-2.32701">
        <ele>58</ele>
        <time>2019-09-08T07:14:18Z</time>
      </trkpt>
      <trkpt lat="47.25049" lon="-2.32705">
        <ele>58</ele>
        <time>2019-09-08T07:14:19Z</time>
      </trkpt>
      <trkpt lat="47.25053" lon="-2.32713">
        <ele>59</ele>
        <time>2019-09-08T07:14:21Z</time>
      </trkpt>
      <trkpt lat="47.25061" lon="-2.32717">
        <ele>58</ele>
        <time>2019-09-08T07:14:24Z</time>
      </trkpt>
      <trkpt lat="47.25071" lon="-2.3271">
        <ele>58</ele>
        <time>2019-09-08T07:14:27Z</time>
      </trkpt>
      <trkpt lat="47.25078" lon="-2.32703">
        <ele>58</ele>
        <time>2019-09-08T07:14:29Z</time>
      </trkpt>
      <trkpt lat="47.25084" lon="-2.32688">
        <ele>58</ele>
        <time>2019-09-08T07:14:32Z</time>
      </trkpt>
      <trkpt lat="47.25079" lon="-2.32672">
        <ele>57</ele>
        <time>2019-09-08T07:14:35Z</time>
      </trkpt>
      <trkpt lat="47.25072" lon="-2.32657">
        <ele>58</ele>
        <time>2019-09-08T07:14:38Z</time>
      </trkpt>
      <trkpt lat="47.25068" lon="-2.32646">
        <ele>58</ele>
        <time>2019-09-08T07:14:40Z</time>
      </trkpt>
      <trkpt lat="47.25066" lon="-2.32641">
        <ele>59</ele>
        <time>2019-09-08T07:14:41Z</time>
      </trkpt>
      <trkpt lat="47.25064" lon="-2.32636">
        <ele>59</ele>
        <time>2019-09-08T07:14:42Z</time>
      </trkpt>
      <trkpt lat="47.25059" lon="-2.32626">
        <ele>59</ele>
        <time>2019-09-08T07:14:44Z</time>
      </trkpt>
      <trkpt lat="47.25057" lon="-2.32621">
        <ele>59</ele>
        <time>2019-09-08T07:14:45Z</time>
      </trkpt>
      <trkpt lat="47.25054" lon="-2.32616">
        <ele>59</ele>
        <time>2019-09-08T07:14:46Z</time>
      </trkpt>
      <trkpt lat="47.25048" lon="-2.32602">
        <ele>60</ele>
        <time>2019-09-08T07:14:49Z</time>
      </trkpt>
      <trkpt lat="47.25044" lon="-2.32592">
        <ele>60</ele>
        <time>2019-09-08T07:14:51Z</time>
      </trkpt>
      <trkpt lat="47.25037" lon="-2.32577">
        <ele>60</ele>
        <time>2019-09-08T07:14:54Z</time>
      </trkpt>
      <trkpt lat="47.25033" lon="-2.32568">
        <ele>60</ele>
        <time>2019-09-08T07:14:56Z</time>
      </trkpt>
      <trkpt lat="47.2503" lon="-2.32551">
        <ele>60</ele>
        <time>2019-09-08T07:14:59Z</time>
      </trkpt>
      <trkpt lat="47.25032" lon="-2.32529">
        <ele>59</ele>
        <time>2019-09-08T07:15:03Z</time>
      </trkpt>
      <trkpt lat="47.25038" lon="-2.32521">
        <ele>59</ele>
        <time>2019-09-08T07:15:05Z</time>
      </trkpt>
      <trkpt lat="47.25047" lon="-2.32513">
        <ele>60</ele>
        <time>2019-09-08T07:15:08Z</time>
      </trkpt>
      <trkpt lat="47.25053" lon="-2.32507">
        <ele>60</ele>
        <time>2019-09-08T07:15:10Z</time>
      </trkpt>
      <trkpt lat="47.25064" lon="-2.32502">
        <ele>62</ele>
        <time>2019-09-08T07:15:13Z</time>
      </trkpt>
      <trkpt lat="47.25067" lon="-2.325">
        <ele>61</ele>
        <time>2019-09-08T07:15:14Z</time>
      </trkpt>
      <trkpt lat="47.25074" lon="-2.32495">
        <ele>62</ele>
        <time>2019-09-08T07:15:16Z</time>
      </trkpt>
      <trkpt lat="47.25078" lon="-2.32493">
        <ele>62</ele>
        <time>2019-09-08T07:15:17Z</time>
      </trkpt>
      <trkpt lat="47.2509" lon="-2.32485">
        <ele>63</ele>
        <time>2019-09-08T07:15:20Z</time>
      </trkpt>
      <trkpt lat="47.25097" lon="-2.32478">
        <ele>63</ele>
        <time>2019-09-08T07:15:22Z</time>
      </trkpt>
      <trkpt lat="47.25102" lon="-2.32468">
        <ele>64</ele>
        <time>2019-09-08T07:15:24Z</time>
      </trkpt>
      <trkpt lat="47.25104" lon="-2.32461">
        <ele>64</ele>
        <time>2019-09-08T07:15:25Z</time>
      </trkpt>
      <trkpt lat="47.25106" lon="-2.32453">
        <ele>64</ele>
        <time>2019-09-08T07:15:26Z</time>
      </trkpt>
      <trkpt lat="47.25107" lon="-2.32438">
        <ele>64</ele>
        <time>2019-09-08T07:15:29Z</time>
      </trkpt>
      <trkpt lat="47.25106" lon="-2.32428">
        <ele>64</ele>
        <time>2019-09-08T07:15:31Z</time>
      </trkpt>
      <trkpt lat="47.25106" lon="-2.32422">
        <ele>64</ele>
        <time>2019-09-08T07:15:32Z</time>
      </trkpt>
      <trkpt lat="47.25105" lon="-2.32406">
        <ele>64</ele>
        <time>2019-09-08T07:15:35Z</time>
      </trkpt>
      <trkpt lat="47.25105" lon="-2.32395">
        <ele>64</ele>
        <time>2019-09-08T07:15:37Z</time>
      </trkpt>
      <trkpt lat="47.25105" lon="-2.3239">
        <ele>64</ele>
        <time>2019-09-08T07:15:38Z</time>
      </trkpt>
      <trkpt lat="47.25105" lon="-2.32385">
        <ele>64</ele>
        <time>2019-09-08T07:15:39Z</time>
      </trkpt>
      <trkpt lat="47.25106" lon="-2.32379">
        <ele>64</ele>
        <time>2019-09-08T07:15:40Z</time>
      </trkpt>
      <trkpt lat="47.25106" lon="-2.32374">
        <ele>65</ele>
        <time>2019-09-08T07:15:41Z</time>
      </trkpt>
      <trkpt lat="47.25107" lon="-2.32363">
        <ele>65</ele>
        <time>2019-09-08T07:15:43Z</time>
      </trkpt>
      <trkpt lat="47.25108" lon="-2.32357">
        <ele>66</ele>
        <time>2019-09-08T07:15:44Z</time>
      </trkpt>
      <trkpt lat="47.25112" lon="-2.32347">
        <ele>66</ele>
        <time>2019-09-08T07:15:46Z</time>
      </trkpt>
      <trkpt lat="47.25113" lon="-2.32341">
        <ele>66</ele>
        <time>2019-09-08T07:15:47Z</time>
      </trkpt>
      <trkpt lat="47.25115" lon="-2.32336">
        <ele>66</ele>
        <time>2019-09-08T07:15:48Z</time>
      </trkpt>
      <trkpt lat="47.25116" lon="-2.3233">
        <ele>65</ele>
        <time>2019-09-08T07:15:49Z</time>
      </trkpt>
      <trkpt lat="47.2512" lon="-2.32321">
        <ele>65</ele>
        <time>2019-09-08T07:15:51Z</time>
      </trkpt>
      <trkpt lat="47.25122" lon="-2.32316">
        <ele>65</ele>
        <time>2019-09-08T07:15:52Z</time>
      </trkpt>
      <trkpt lat="47.25127" lon="-2.32302">
        <ele>63</ele>
        <time>2019-09-08T07:15:55Z</time>
      </trkpt>
      <trkpt lat="47.25131" lon="-2.32294">
        <ele>63</ele>
        <time>2019-09-08T07:15:57Z</time>
      </trkpt>
      <trkpt lat="47.25133" lon="-2.32279">
        <ele>64</ele>
        <time>2019-09-08T07:16:00Z</time>
      </trkpt>
      <trkpt lat="47.25132" lon="-2.32268">
        <ele>64</ele>
        <time>2019-09-08T07:16:02Z</time>
      </trkpt>
      <trkpt lat="47.2513" lon="-2.32252">
        <ele>65</ele>
        <time>2019-09-08T07:16:05Z</time>
      </trkpt>
      <trkpt lat="47.25131" lon="-2.32229">
        <ele>66</ele>
        <time>2019-09-08T07:16:09Z</time>
      </trkpt>
      <trkpt lat="47.25129" lon="-2.32213">
        <ele>67</ele>
        <time>2019-09-08T07:16:12Z</time>
      </trkpt>
      <trkpt lat="47.25129" lon="-2.32183">
        <ele>68</ele>
        <time>2019-09-08T07:16:17Z</time>
      </trkpt>
      <trkpt lat="47.25128" lon="-2.32166">
        <ele>70</ele>
        <time>2019-09-08T07:16:20Z</time>
      </trkpt>
      <trkpt lat="47.25127" lon="-2.3216">
        <ele>70</ele>
        <time>2019-09-08T07:16:21Z</time>
      </trkpt>
      <trkpt lat="47.25125" lon="-2.3214">
        <ele>70</ele>
        <time>2019-09-08T07:16:24Z</time>
      </trkpt>
      <trkpt lat="47.25125" lon="-2.32132">
        <ele>70</ele>
        <time>2019-09-08T07:16:25Z</time>
      </trkpt>
      <trkpt lat="47.25124" lon="-2.32118">
        <ele>70</ele>
        <time>2019-09-08T07:16:27Z</time>
      </trkpt>
      <trkpt lat="47.25124" lon="-2.32111">
        <ele>71</ele>
        <time>2019-09-08T07:16:28Z</time>
      </trkpt>
      <trkpt lat="47.25124" lon="-2.32103">
        <ele>71</ele>
        <time>2019-09-08T07:16:29Z</time>
      </trkpt>
      <trkpt lat="47.25122" lon="-2.32087">
        <ele>70</ele>
        <time>2019-09-08T07:16:31Z</time>
      </trkpt>
      <trkpt lat="47.25121" lon="-2.3208">
        <ele>71</ele>
        <time>2019-09-08T07:16:32Z</time>
      </trkpt>
      <trkpt lat="47.25121" lon="-2.32073">
        <ele>71</ele>
        <time>2019-09-08T07:16:33Z</time>
      </trkpt>
      <trkpt lat="47.2512" lon="-2.32065">
        <ele>71</ele>
        <time>2019-09-08T07:16:34Z</time>
      </trkpt>
      <trkpt lat="47.2512" lon="-2.32057">
        <ele>72</ele>
        <time>2019-09-08T07:16:35Z</time>
      </trkpt>
      <trkpt lat="47.2512" lon="-2.32048">
        <ele>72</ele>
        <time>2019-09-08T07:16:36Z</time>
      </trkpt>
      <trkpt lat="47.25119" lon="-2.3204">
        <ele>72</ele>
        <time>2019-09-08T07:16:37Z</time>
      </trkpt>
      <trkpt lat="47.25119" lon="-2.32032">
        <ele>72</ele>
        <time>2019-09-08T07:16:38Z</time>
      </trkpt>
      <trkpt lat="47.25117" lon="-2.32009">
        <ele>72</ele>
        <time>2019-09-08T07:16:41Z</time>
      </trkpt>
      <trkpt lat="47.25117" lon="-2.32001">
        <ele>72</ele>
        <time>2019-09-08T07:16:42Z</time>
      </trkpt>
      <trkpt lat="47.25116" lon="-2.31993">
        <ele>73</ele>
        <time>2019-09-08T07:16:43Z</time>
      </trkpt>
      <trkpt lat="47.25113" lon="-2.31986">
        <ele>73</ele>
        <time>2019-09-08T07:16:44Z</time>
      </trkpt>
      <trkpt lat="47.2511" lon="-2.31979">
        <ele>73</ele>
        <time>2019-09-08T07:16:45Z</time>
      </trkpt>
      <trkpt lat="47.25108" lon="-2.31972">
        <ele>73</ele>
        <time>2019-09-08T07:16:46Z</time>
      </trkpt>
      <trkpt lat="47.25108" lon="-2.31964">
        <ele>73</ele>
        <time>2019-09-08T07:16:47Z</time>
      </trkpt>
      <trkpt lat="47.25108" lon="-2.31956">
        <ele>73</ele>
        <time>2019-09-08T07:16:48Z</time>
      </trkpt>
      <trkpt lat="47.25107" lon="-2.31948">
        <ele>73</ele>
        <time>2019-09-08T07:16:49Z</time>
      </trkpt>
      <trkpt lat="47.25107" lon="-2.3194">
        <ele>73</ele>
        <time>2019-09-08T07:16:50Z</time>
      </trkpt>
      <trkpt lat="47.25106" lon="-2.31933">
        <ele>73</ele>
        <time>2019-09-08T07:16:51Z</time>
      </trkpt>
      <trkpt lat="47.25105" lon="-2.31925">
        <ele>73</ele>
        <time>2019-09-08T07:16:52Z</time>
      </trkpt>
      <trkpt lat="47.25102" lon="-2.31911">
        <ele>72</ele>
        <time>2019-09-08T07:16:54Z</time>
      </trkpt>
      <trkpt lat="47.25101" lon="-2.31904">
        <ele>71</ele>
        <time>2019-09-08T07:16:55Z</time>
      </trkpt>
      <trkpt lat="47.25099" lon="-2.3189">
        <ele>71</ele>
        <time>2019-09-08T07:16:57Z</time>
      </trkpt>
      <trkpt lat="47.25098" lon="-2.31883">
        <ele>71</ele>
        <time>2019-09-08T07:16:58Z</time>
      </trkpt>
      <trkpt lat="47.25097" lon="-2.31876">
        <ele>71</ele>
        <time>2019-09-08T07:16:59Z</time>
      </trkpt>
      <trkpt lat="47.25096" lon="-2.31869">
        <ele>71</ele>
        <time>2019-09-08T07:17:00Z</time>
      </trkpt>
      <trkpt lat="47.25095" lon="-2.31862">
        <ele>71</ele>
        <time>2019-09-08T07:17:01Z</time>
      </trkpt>
      <trkpt lat="47.25094" lon="-2.31855">
        <ele>71</ele>
        <time>2019-09-08T07:17:02Z</time>
      </trkpt>
      <trkpt lat="47.25093" lon="-2.31848">
        <ele>71</ele>
        <time>2019-09-08T07:17:03Z</time>
      </trkpt>
      <trkpt lat="47.25091" lon="-2.31842">
        <ele>71</ele>
        <time>2019-09-08T07:17:04Z</time>
      </trkpt>
      <trkpt lat="47.2509" lon="-2.31835">
        <ele>71</ele>
        <time>2019-09-08T07:17:05Z</time>
      </trkpt>
      <trkpt lat="47.25089" lon="-2.31828">
        <ele>71</ele>
        <time>2019-09-08T07:17:06Z</time>
      </trkpt>
      <trkpt lat="47.25087" lon="-2.31822">
        <ele>70</ele>
        <time>2019-09-08T07:17:07Z</time>
      </trkpt>
      <trkpt lat="47.25086" lon="-2.31815">
        <ele>70</ele>
        <time>2019-09-08T07:17:08Z</time>
      </trkpt>
      <trkpt lat="47.25085" lon="-2.31808">
        <ele>70</ele>
        <time>2019-09-08T07:17:09Z</time>
      </trkpt>
      <trkpt lat="47.25084" lon="-2.31802">
        <ele>70</ele>
        <time>2019-09-08T07:17:10Z</time>
      </trkpt>
      <trkpt lat="47.25082" lon="-2.3179">
        <ele>71</ele>
        <time>2019-09-08T07:17:12Z</time>
      </trkpt>
      <trkpt lat="47.25081" lon="-2.31784">
        <ele>71</ele>
        <time>2019-09-08T07:17:13Z</time>
      </trkpt>
      <trkpt lat="47.25077" lon="-2.31767">
        <ele>72</ele>
        <time>2019-09-08T07:17:16Z</time>
      </trkpt>
      <trkpt lat="47.25075" lon="-2.31761">
        <ele>71</ele>
        <time>2019-09-08T07:17:17Z</time>
      </trkpt>
      <trkpt lat="47.25073" lon="-2.31755">
        <ele>71</ele>
        <time>2019-09-08T07:17:18Z</time>
      </trkpt>
      <trkpt lat="47.25071" lon="-2.31749">
        <ele>71</ele>
        <time>2019-09-08T07:17:19Z</time>
      </trkpt>
      <trkpt lat="47.25069" lon="-2.31737">
        <ele>71</ele>
        <time>2019-09-08T07:17:21Z</time>
      </trkpt>
      <trkpt lat="47.25067" lon="-2.31731">
        <ele>72</ele>
        <time>2019-09-08T07:17:22Z</time>
      </trkpt>
      <trkpt lat="47.25064" lon="-2.31718">
        <ele>72</ele>
        <time>2019-09-08T07:17:24Z</time>
      </trkpt>
      <trkpt lat="47.25062" lon="-2.31712">
        <ele>72</ele>
        <time>2019-09-08T07:17:25Z</time>
      </trkpt>
      <trkpt lat="47.25061" lon="-2.31706">
        <ele>72</ele>
        <time>2019-09-08T07:17:26Z</time>
      </trkpt>
      <trkpt lat="47.25058" lon="-2.31694">
        <ele>72</ele>
        <time>2019-09-08T07:17:28Z</time>
      </trkpt>
      <trkpt lat="47.25057" lon="-2.31688">
        <ele>72</ele>
        <time>2019-09-08T07:17:29Z</time>
      </trkpt>
      <trkpt lat="47.25055" lon="-2.31675">
        <ele>73</ele>
        <time>2019-09-08T07:17:31Z</time>
      </trkpt>
      <trkpt lat="47.25054" lon="-2.31669">
        <ele>72</ele>
        <time>2019-09-08T07:17:32Z</time>
      </trkpt>
      <trkpt lat="47.25051" lon="-2.31659">
        <ele>73</ele>
        <time>2019-09-08T07:17:34Z</time>
      </trkpt>
      <trkpt lat="47.25048" lon="-2.31652">
        <ele>73</ele>
        <time>2019-09-08T07:17:37Z</time>
      </trkpt>
      <trkpt lat="47.2504" lon="-2.3164">
        <ele>74</ele>
        <time>2019-09-08T07:17:41Z</time>
      </trkpt>
      <trkpt lat="47.25034" lon="-2.31632">
        <ele>74</ele>
        <time>2019-09-08T07:17:43Z</time>
      </trkpt>
      <trkpt lat="47.25027" lon="-2.31625">
        <ele>74</ele>
        <time>2019-09-08T07:17:45Z</time>
      </trkpt>
      <trkpt lat="47.25023" lon="-2.31621">
        <ele>75</ele>
        <time>2019-09-08T07:17:46Z</time>
      </trkpt>
      <trkpt lat="47.2502" lon="-2.31618">
        <ele>75</ele>
        <time>2019-09-08T07:17:47Z</time>
      </trkpt>
      <trkpt lat="47.25017" lon="-2.31614">
        <ele>75</ele>
        <time>2019-09-08T07:17:48Z</time>
      </trkpt>
      <trkpt lat="47.25011" lon="-2.31607">
        <ele>75</ele>
        <time>2019-09-08T07:17:50Z</time>
      </trkpt>
      <trkpt lat="47.25005" lon="-2.31601">
        <ele>75</ele>
        <time>2019-09-08T07:17:52Z</time>
      </trkpt>
      <trkpt lat="47.25002" lon="-2.31597">
        <ele>75</ele>
        <time>2019-09-08T07:17:53Z</time>
      </trkpt>
      <trkpt lat="47.24999" lon="-2.31594">
        <ele>75</ele>
        <time>2019-09-08T07:17:54Z</time>
      </trkpt>
      <trkpt lat="47.24995" lon="-2.31591">
        <ele>75</ele>
        <time>2019-09-08T07:17:55Z</time>
      </trkpt>
      <trkpt lat="47.24992" lon="-2.31587">
        <ele>75</ele>
        <time>2019-09-08T07:17:56Z</time>
      </trkpt>
      <trkpt lat="47.24988" lon="-2.31583">
        <ele>74</ele>
        <time>2019-09-08T07:17:57Z</time>
      </trkpt>
      <trkpt lat="47.24985" lon="-2.31578">
        <ele>75</ele>
        <time>2019-09-08T07:17:58Z</time>
      </trkpt>
      <trkpt lat="47.24981" lon="-2.31574">
        <ele>75</ele>
        <time>2019-09-08T07:17:59Z</time>
      </trkpt>
      <trkpt lat="47.24976" lon="-2.31565">
        <ele>75</ele>
        <time>2019-09-08T07:18:01Z</time>
      </trkpt>
      <trkpt lat="47.24971" lon="-2.31553">
        <ele>75</ele>
        <time>2019-09-08T07:18:03Z</time>
      </trkpt>
      <trkpt lat="47.2497" lon="-2.31547">
        <ele>74</ele>
        <time>2019-09-08T07:18:04Z</time>
      </trkpt>
      <trkpt lat="47.24969" lon="-2.31539">
        <ele>74</ele>
        <time>2019-09-08T07:18:05Z</time>
      </trkpt>
      <trkpt lat="47.24967" lon="-2.31532">
        <ele>74</ele>
        <time>2019-09-08T07:18:06Z</time>
      </trkpt>
      <trkpt lat="47.24966" lon="-2.31525">
        <ele>74</ele>
        <time>2019-09-08T07:18:07Z</time>
      </trkpt>
      <trkpt lat="47.24965" lon="-2.31518">
        <ele>74</ele>
        <time>2019-09-08T07:18:08Z</time>
      </trkpt>
      <trkpt lat="47.24964" lon="-2.31511">
        <ele>75</ele>
        <time>2019-09-08T07:18:09Z</time>
      </trkpt>
      <trkpt lat="47.24964" lon="-2.31505">
        <ele>74</ele>
        <time>2019-09-08T07:18:10Z</time>
      </trkpt>
      <trkpt lat="47.24963" lon="-2.31499">
        <ele>74</ele>
        <time>2019-09-08T07:18:11Z</time>
      </trkpt>
      <trkpt lat="47.24963" lon="-2.31493">
        <ele>74</ele>
        <time>2019-09-08T07:18:12Z</time>
      </trkpt>
      <trkpt lat="47.24963" lon="-2.31487">
        <ele>74</ele>
        <time>2019-09-08T07:18:13Z</time>
      </trkpt>
      <trkpt lat="47.24963" lon="-2.31481">
        <ele>74</ele>
        <time>2019-09-08T07:18:14Z</time>
      </trkpt>
      <trkpt lat="47.24962" lon="-2.31468">
        <ele>75</ele>
        <time>2019-09-08T07:18:16Z</time>
      </trkpt>
      <trkpt lat="47.24961" lon="-2.31462">
        <ele>75</ele>
        <time>2019-09-08T07:18:17Z</time>
      </trkpt>
      <trkpt lat="47.24961" lon="-2.31455">
        <ele>74</ele>
        <time>2019-09-08T07:18:18Z</time>
      </trkpt>
      <trkpt lat="47.2496" lon="-2.31449">
        <ele>74</ele>
        <time>2019-09-08T07:18:19Z</time>
      </trkpt>
      <trkpt lat="47.24958" lon="-2.31436">
        <ele>73</ele>
        <time>2019-09-08T07:18:21Z</time>
      </trkpt>
      <trkpt lat="47.24957" lon="-2.3143">
        <ele>74</ele>
        <time>2019-09-08T07:18:22Z</time>
      </trkpt>
      <trkpt lat="47.24954" lon="-2.31417">
        <ele>74</ele>
        <time>2019-09-08T07:18:24Z</time>
      </trkpt>
      <trkpt lat="47.24952" lon="-2.31411">
        <ele>74</ele>
        <time>2019-09-08T07:18:25Z</time>
      </trkpt>
      <trkpt lat="47.24949" lon="-2.31398">
        <ele>74</ele>
        <time>2019-09-08T07:18:27Z</time>
      </trkpt>
      <trkpt lat="47.24948" lon="-2.31391">
        <ele>74</ele>
        <time>2019-09-08T07:18:28Z</time>
      </trkpt>
      <trkpt lat="47.24944" lon="-2.31378">
        <ele>74</ele>
        <time>2019-09-08T07:18:30Z</time>
      </trkpt>
      <trkpt lat="47.2494" lon="-2.31366">
        <ele>74</ele>
        <time>2019-09-08T07:18:32Z</time>
      </trkpt>
      <trkpt lat="47.24938" lon="-2.3136">
        <ele>74</ele>
        <time>2019-09-08T07:18:33Z</time>
      </trkpt>
      <trkpt lat="47.24936" lon="-2.31353">
        <ele>75</ele>
        <time>2019-09-08T07:18:34Z</time>
      </trkpt>
      <trkpt lat="47.24934" lon="-2.31347">
        <ele>75</ele>
        <time>2019-09-08T07:18:35Z</time>
      </trkpt>
      <trkpt lat="47.24931" lon="-2.31335">
        <ele>74</ele>
        <time>2019-09-08T07:18:37Z</time>
      </trkpt>
      <trkpt lat="47.24929" lon="-2.31328">
        <ele>74</ele>
        <time>2019-09-08T07:18:38Z</time>
      </trkpt>
      <trkpt lat="47.24927" lon="-2.31322">
        <ele>75</ele>
        <time>2019-09-08T07:18:39Z</time>
      </trkpt>
      <trkpt lat="47.24924" lon="-2.31311">
        <ele>75</ele>
        <time>2019-09-08T07:18:41Z</time>
      </trkpt>
      <trkpt lat="47.24917" lon="-2.31303">
        <ele>75</ele>
        <time>2019-09-08T07:18:44Z</time>
      </trkpt>
      <trkpt lat="47.2491" lon="-2.31304">
        <ele>75</ele>
        <time>2019-09-08T07:18:46Z</time>
      </trkpt>
      <trkpt lat="47.24903" lon="-2.31307">
        <ele>75</ele>
        <time>2019-09-08T07:18:48Z</time>
      </trkpt>
      <trkpt lat="47.24899" lon="-2.31309">
        <ele>76</ele>
        <time>2019-09-08T07:18:49Z</time>
      </trkpt>
      <trkpt lat="47.24895" lon="-2.31311">
        <ele>76</ele>
        <time>2019-09-08T07:18:50Z</time>
      </trkpt>
      <trkpt lat="47.24891" lon="-2.31312">
        <ele>76</ele>
        <time>2019-09-08T07:18:51Z</time>
      </trkpt>
      <trkpt lat="47.24886" lon="-2.31313">
        <ele>76</ele>
        <time>2019-09-08T07:18:52Z</time>
      </trkpt>
      <trkpt lat="47.24882" lon="-2.31315">
        <ele>75</ele>
        <time>2019-09-08T07:18:53Z</time>
      </trkpt>
      <trkpt lat="47.24877" lon="-2.31316">
        <ele>75</ele>
        <time>2019-09-08T07:18:54Z</time>
      </trkpt>
      <trkpt lat="47.24867" lon="-2.31319">
        <ele>75</ele>
        <time>2019-09-08T07:18:56Z</time>
      </trkpt>
      <trkpt lat="47.24862" lon="-2.3132">
        <ele>75</ele>
        <time>2019-09-08T07:18:57Z</time>
      </trkpt>
      <trkpt lat="47.24858" lon="-2.31322">
        <ele>75</ele>
        <time>2019-09-08T07:18:58Z</time>
      </trkpt>
      <trkpt lat="47.24853" lon="-2.31324">
        <ele>75</ele>
        <time>2019-09-08T07:18:59Z</time>
      </trkpt>
      <trkpt lat="47.24848" lon="-2.31325">
        <ele>75</ele>
        <time>2019-09-08T07:19:00Z</time>
      </trkpt>
      <trkpt lat="47.24843" lon="-2.31327">
        <ele>76</ele>
        <time>2019-09-08T07:19:01Z</time>
      </trkpt>
      <trkpt lat="47.24838" lon="-2.31328">
        <ele>76</ele>
        <time>2019-09-08T07:19:02Z</time>
      </trkpt>
      <trkpt lat="47.24829" lon="-2.31332">
        <ele>76</ele>
        <time>2019-09-08T07:19:04Z</time>
      </trkpt>
      <trkpt lat="47.24824" lon="-2.31334">
        <ele>76</ele>
        <time>2019-09-08T07:19:05Z</time>
      </trkpt>
      <trkpt lat="47.2482" lon="-2.31336">
        <ele>76</ele>
        <time>2019-09-08T07:19:06Z</time>
      </trkpt>
      <trkpt lat="47.24816" lon="-2.31339">
        <ele>75</ele>
        <time>2019-09-08T07:19:07Z</time>
      </trkpt>
      <trkpt lat="47.24808" lon="-2.31345">
        <ele>75</ele>
        <time>2019-09-08T07:19:09Z</time>
      </trkpt>
      <trkpt lat="47.24804" lon="-2.31349">
        <ele>75</ele>
        <time>2019-09-08T07:19:10Z</time>
      </trkpt>
      <trkpt lat="47.248" lon="-2.31353">
        <ele>75</ele>
        <time>2019-09-08T07:19:11Z</time>
      </trkpt>
      <trkpt lat="47.24791" lon="-2.31361">
        <ele>75</ele>
        <time>2019-09-08T07:19:13Z</time>
      </trkpt>
      <trkpt lat="47.24788" lon="-2.31365">
        <ele>75</ele>
        <time>2019-09-08T07:19:14Z</time>
      </trkpt>
      <trkpt lat="47.2478" lon="-2.31373">
        <ele>74</ele>
        <time>2019-09-08T07:19:16Z</time>
      </trkpt>
      <trkpt lat="47.24776" lon="-2.31378">
        <ele>75</ele>
        <time>2019-09-08T07:19:17Z</time>
      </trkpt>
      <trkpt lat="47.24772" lon="-2.31382">
        <ele>75</ele>
        <time>2019-09-08T07:19:18Z</time>
      </trkpt>
      <trkpt lat="47.24769" lon="-2.31386">
        <ele>75</ele>
        <time>2019-09-08T07:19:19Z</time>
      </trkpt>
      <trkpt lat="47.24765" lon="-2.3139">
        <ele>75</ele>
        <time>2019-09-08T07:19:20Z</time>
      </trkpt>
      <trkpt lat="47.24757" lon="-2.31398">
        <ele>75</ele>
        <time>2019-09-08T07:19:22Z</time>
      </trkpt>
      <trkpt lat="47.24749" lon="-2.31407">
        <ele>75</ele>
        <time>2019-09-08T07:19:24Z</time>
      </trkpt>
      <trkpt lat="47.24744" lon="-2.31411">
        <ele>75</ele>
        <time>2019-09-08T07:19:25Z</time>
      </trkpt>
      <trkpt lat="47.2474" lon="-2.31416">
        <ele>75</ele>
        <time>2019-09-08T07:19:26Z</time>
      </trkpt>
      <trkpt lat="47.24736" lon="-2.3142">
        <ele>74</ele>
        <time>2019-09-08T07:19:27Z</time>
      </trkpt>
      <trkpt lat="47.24732" lon="-2.31425">
        <ele>74</ele>
        <time>2019-09-08T07:19:28Z</time>
      </trkpt>
      <trkpt lat="47.24727" lon="-2.31429">
        <ele>74</ele>
        <time>2019-09-08T07:19:29Z</time>
      </trkpt>
      <trkpt lat="47.24718" lon="-2.31436">
        <ele>74</ele>
        <time>2019-09-08T07:19:31Z</time>
      </trkpt>
      <trkpt lat="47.24714" lon="-2.3144">
        <ele>74</ele>
        <time>2019-09-08T07:19:32Z</time>
      </trkpt>
      <trkpt lat="47.24709" lon="-2.31445">
        <ele>74</ele>
        <time>2019-09-08T07:19:33Z</time>
      </trkpt>
      <trkpt lat="47.24701" lon="-2.31455">
        <ele>74</ele>
        <time>2019-09-08T07:19:35Z</time>
      </trkpt>
      <trkpt lat="47.24693" lon="-2.31464">
        <ele>74</ele>
        <time>2019-09-08T07:19:37Z</time>
      </trkpt>
      <trkpt lat="47.24685" lon="-2.31472">
        <ele>74</ele>
        <time>2019-09-08T07:19:39Z</time>
      </trkpt>
      <trkpt lat="47.24682" lon="-2.31475">
        <ele>74</ele>
        <time>2019-09-08T07:19:40Z</time>
      </trkpt>
      <trkpt lat="47.24673" lon="-2.31482">
        <ele>74</ele>
        <time>2019-09-08T07:19:42Z</time>
      </trkpt>
      <trkpt lat="47.2467" lon="-2.31486">
        <ele>74</ele>
        <time>2019-09-08T07:19:43Z</time>
      </trkpt>
      <trkpt lat="47.24665" lon="-2.31491">
        <ele>74</ele>
        <time>2019-09-08T07:19:44Z</time>
      </trkpt>
      <trkpt lat="47.2466" lon="-2.31493">
        <ele>74</ele>
        <time>2019-09-08T07:19:45Z</time>
      </trkpt>
      <trkpt lat="47.24656" lon="-2.31497">
        <ele>75</ele>
        <time>2019-09-08T07:19:46Z</time>
      </trkpt>
      <trkpt lat="47.24651" lon="-2.315">
        <ele>75</ele>
        <time>2019-09-08T07:19:47Z</time>
      </trkpt>
      <trkpt lat="47.24647" lon="-2.31505">
        <ele>75</ele>
        <time>2019-09-08T07:19:48Z</time>
      </trkpt>
      <trkpt lat="47.24643" lon="-2.31509">
        <ele>74</ele>
        <time>2019-09-08T07:19:49Z</time>
      </trkpt>
      <trkpt lat="47.24639" lon="-2.31515">
        <ele>74</ele>
        <time>2019-09-08T07:19:50Z</time>
      </trkpt>
      <trkpt lat="47.24635" lon="-2.3152">
        <ele>75</ele>
        <time>2019-09-08T07:19:51Z</time>
      </trkpt>
      <trkpt lat="47.2463" lon="-2.31526">
        <ele>75</ele>
        <time>2019-09-08T07:19:52Z</time>
      </trkpt>
      <trkpt lat="47.24626" lon="-2.31531">
        <ele>75</ele>
        <time>2019-09-08T07:19:53Z</time>
      </trkpt>
      <trkpt lat="47.24622" lon="-2.31537">
        <ele>75</ele>
        <time>2019-09-08T07:19:54Z</time>
      </trkpt>
      <trkpt lat="47.24617" lon="-2.31542">
        <ele>76</ele>
        <time>2019-09-08T07:19:55Z</time>
      </trkpt>
      <trkpt lat="47.24613" lon="-2.31546">
        <ele>76</ele>
        <time>2019-09-08T07:19:56Z</time>
      </trkpt>
      <trkpt lat="47.24608" lon="-2.31551">
        <ele>75</ele>
        <time>2019-09-08T07:19:58Z</time>
      </trkpt>
      <trkpt lat="47.24603" lon="-2.31554">
        <ele>75</ele>
        <time>2019-09-08T07:20:01Z</time>
      </trkpt>
      <trkpt lat="47.24597" lon="-2.31549">
        <ele>76</ele>
        <time>2019-09-08T07:20:04Z</time>
      </trkpt>
      <trkpt lat="47.24595" lon="-2.3154">
        <ele>75</ele>
        <time>2019-09-08T07:20:06Z</time>
      </trkpt>
      <trkpt lat="47.24595" lon="-2.31528">
        <ele>74</ele>
        <time>2019-09-08T07:20:08Z</time>
      </trkpt>
      <trkpt lat="47.24594" lon="-2.31522">
        <ele>74</ele>
        <time>2019-09-08T07:20:09Z</time>
      </trkpt>
      <trkpt lat="47.24592" lon="-2.31504">
        <ele>73</ele>
        <time>2019-09-08T07:20:12Z</time>
      </trkpt>
      <trkpt lat="47.24591" lon="-2.31499">
        <ele>73</ele>
        <time>2019-09-08T07:20:13Z</time>
      </trkpt>
      <trkpt lat="47.2459" lon="-2.31486">
        <ele>73</ele>
        <time>2019-09-08T07:20:15Z</time>
      </trkpt>
      <trkpt lat="47.24589" lon="-2.31481">
        <ele>72</ele>
        <time>2019-09-08T07:20:16Z</time>
      </trkpt>
      <trkpt lat="47.24588" lon="-2.31475">
        <ele>73</ele>
        <time>2019-09-08T07:20:17Z</time>
      </trkpt>
      <trkpt lat="47.24587" lon="-2.31468">
        <ele>73</ele>
        <time>2019-09-08T07:20:18Z</time>
      </trkpt>
      <trkpt lat="47.24586" lon="-2.31456">
        <ele>73</ele>
        <time>2019-09-08T07:20:20Z</time>
      </trkpt>
      <trkpt lat="47.24585" lon="-2.31438">
        <ele>73</ele>
        <time>2019-09-08T07:20:23Z</time>
      </trkpt>
      <trkpt lat="47.24584" lon="-2.31433">
        <ele>73</ele>
        <time>2019-09-08T07:20:24Z</time>
      </trkpt>
      <trkpt lat="47.24584" lon="-2.31427">
        <ele>73</ele>
        <time>2019-09-08T07:20:25Z</time>
      </trkpt>
      <trkpt lat="47.24583" lon="-2.31416">
        <ele>73</ele>
        <time>2019-09-08T07:20:27Z</time>
      </trkpt>
      <trkpt lat="47.24582" lon="-2.31411">
        <ele>73</ele>
        <time>2019-09-08T07:20:28Z</time>
      </trkpt>
      <trkpt lat="47.24581" lon="-2.31401">
        <ele>73</ele>
        <time>2019-09-08T07:20:30Z</time>
      </trkpt>
      <trkpt lat="47.24579" lon="-2.31396">
        <ele>74</ele>
        <time>2019-09-08T07:20:32Z</time>
      </trkpt>
      <trkpt lat="47.24571" lon="-2.31393">
        <ele>74</ele>
        <time>2019-09-08T07:20:35Z</time>
      </trkpt>
      <trkpt lat="47.24562" lon="-2.31393">
        <ele>74</ele>
        <time>2019-09-08T07:20:37Z</time>
      </trkpt>
      <trkpt lat="47.24556" lon="-2.31393">
        <ele>74</ele>
        <time>2019-09-08T07:20:38Z</time>
      </trkpt>
      <trkpt lat="47.24551" lon="-2.31391">
        <ele>74</ele>
        <time>2019-09-08T07:20:39Z</time>
      </trkpt>
      <trkpt lat="47.2454" lon="-2.31389">
        <ele>75</ele>
        <time>2019-09-08T07:20:41Z</time>
      </trkpt>
      <trkpt lat="47.24535" lon="-2.31387">
        <ele>75</ele>
        <time>2019-09-08T07:20:42Z</time>
      </trkpt>
      <trkpt lat="47.24528" lon="-2.31381">
        <ele>76</ele>
        <time>2019-09-08T07:20:44Z</time>
      </trkpt>
      <trkpt lat="47.24523" lon="-2.31377">
        <ele>76</ele>
        <time>2019-09-08T07:20:45Z</time>
      </trkpt>
      <trkpt lat="47.24514" lon="-2.31368">
        <ele>77</ele>
        <time>2019-09-08T07:20:47Z</time>
      </trkpt>
      <trkpt lat="47.2451" lon="-2.31362">
        <ele>77</ele>
        <time>2019-09-08T07:20:48Z</time>
      </trkpt>
      <trkpt lat="47.24504" lon="-2.31357">
        <ele>77</ele>
        <time>2019-09-08T07:20:49Z</time>
      </trkpt>
      <trkpt lat="47.245" lon="-2.31351">
        <ele>77</ele>
        <time>2019-09-08T07:20:50Z</time>
      </trkpt>
      <trkpt lat="47.24497" lon="-2.31345">
        <ele>77</ele>
        <time>2019-09-08T07:20:51Z</time>
      </trkpt>
      <trkpt lat="47.24491" lon="-2.31333">
        <ele>77</ele>
        <time>2019-09-08T07:20:54Z</time>
      </trkpt>
      <trkpt lat="47.24489" lon="-2.31327">
        <ele>77</ele>
        <time>2019-09-08T07:20:55Z</time>
      </trkpt>
      <trkpt lat="47.24487" lon="-2.3132">
        <ele>77</ele>
        <time>2019-09-08T07:20:56Z</time>
      </trkpt>
      <trkpt lat="47.24484" lon="-2.31314">
        <ele>77</ele>
        <time>2019-09-08T07:20:57Z</time>
      </trkpt>
      <trkpt lat="47.24477" lon="-2.313">
        <ele>77</ele>
        <time>2019-09-08T07:20:59Z</time>
      </trkpt>
      <trkpt lat="47.24475" lon="-2.31292">
        <ele>77</ele>
        <time>2019-09-08T07:21:00Z</time>
      </trkpt>
      <trkpt lat="47.24472" lon="-2.31284">
        <ele>76</ele>
        <time>2019-09-08T07:21:01Z</time>
      </trkpt>
      <trkpt lat="47.24458" lon="-2.31248">
        <ele>74</ele>
        <time>2019-09-08T07:21:06Z</time>
      </trkpt>
      <trkpt lat="47.24457" lon="-2.31242">
        <ele>74</ele>
        <time>2019-09-08T07:21:07Z</time>
      </trkpt>
      <trkpt lat="47.24455" lon="-2.31235">
        <ele>73</ele>
        <time>2019-09-08T07:21:08Z</time>
      </trkpt>
      <trkpt lat="47.24452" lon="-2.3123">
        <ele>73</ele>
        <time>2019-09-08T07:21:09Z</time>
      </trkpt>
      <trkpt lat="47.24441" lon="-2.31226">
        <ele>72</ele>
        <time>2019-09-08T07:21:12Z</time>
      </trkpt>
      <trkpt lat="47.2443" lon="-2.31226">
        <ele>72</ele>
        <time>2019-09-08T07:21:15Z</time>
      </trkpt>
      <trkpt lat="47.24426" lon="-2.31223">
        <ele>73</ele>
        <time>2019-09-08T07:21:17Z</time>
      </trkpt>
      <trkpt lat="47.24424" lon="-2.31217">
        <ele>73</ele>
        <time>2019-09-08T07:21:19Z</time>
      </trkpt>
      <trkpt lat="47.24421" lon="-2.31211">
        <ele>73</ele>
        <time>2019-09-08T07:21:21Z</time>
      </trkpt>
      <trkpt lat="47.24419" lon="-2.31205">
        <ele>74</ele>
        <time>2019-09-08T07:21:23Z</time>
      </trkpt>
      <trkpt lat="47.24417" lon="-2.31196">
        <ele>73</ele>
        <time>2019-09-08T07:21:26Z</time>
      </trkpt>
      <trkpt lat="47.24416" lon="-2.31189">
        <ele>72</ele>
        <time>2019-09-08T07:21:28Z</time>
      </trkpt>
      <trkpt lat="47.24412" lon="-2.31184">
        <ele>73</ele>
        <time>2019-09-08T07:21:30Z</time>
      </trkpt>
      <trkpt lat="47.24407" lon="-2.31179">
        <ele>73</ele>
        <time>2019-09-08T07:21:32Z</time>
      </trkpt>
      <trkpt lat="47.24404" lon="-2.31176">
        <ele>73</ele>
        <time>2019-09-08T07:21:33Z</time>
      </trkpt>
      <trkpt lat="47.24398" lon="-2.3117">
        <ele>73</ele>
        <time>2019-09-08T07:21:35Z</time>
      </trkpt>
      <trkpt lat="47.24395" lon="-2.31168">
        <ele>73</ele>
        <time>2019-09-08T07:21:36Z</time>
      </trkpt>
      <trkpt lat="47.24392" lon="-2.31165">
        <ele>73</ele>
        <time>2019-09-08T07:21:37Z</time>
      </trkpt>
      <trkpt lat="47.24385" lon="-2.31159">
        <ele>73</ele>
        <time>2019-09-08T07:21:39Z</time>
      </trkpt>
      <trkpt lat="47.24381" lon="-2.31151">
        <ele>73</ele>
        <time>2019-09-08T07:21:41Z</time>
      </trkpt>
      <trkpt lat="47.24376" lon="-2.31145">
        <ele>73</ele>
        <time>2019-09-08T07:21:43Z</time>
      </trkpt>
      <trkpt lat="47.24368" lon="-2.31133">
        <ele>72</ele>
        <time>2019-09-08T07:21:46Z</time>
      </trkpt>
      <trkpt lat="47.24364" lon="-2.31123">
        <ele>72</ele>
        <time>2019-09-08T07:21:48Z</time>
      </trkpt>
      <trkpt lat="47.24362" lon="-2.31119">
        <ele>72</ele>
        <time>2019-09-08T07:21:49Z</time>
      </trkpt>
      <trkpt lat="47.24359" lon="-2.31106">
        <ele>72</ele>
        <time>2019-09-08T07:21:53Z</time>
      </trkpt>
      <trkpt lat="47.24358" lon="-2.31101">
        <ele>71</ele>
        <time>2019-09-08T07:21:54Z</time>
      </trkpt>
      <trkpt lat="47.24354" lon="-2.31091">
        <ele>71</ele>
        <time>2019-09-08T07:21:56Z</time>
      </trkpt>
      <trkpt lat="47.24351" lon="-2.31081">
        <ele>71</ele>
        <time>2019-09-08T07:21:58Z</time>
      </trkpt>
      <trkpt lat="47.24349" lon="-2.31075">
        <ele>71</ele>
        <time>2019-09-08T07:21:59Z</time>
      </trkpt>
      <trkpt lat="47.24347" lon="-2.31068">
        <ele>71</ele>
        <time>2019-09-08T07:22:00Z</time>
      </trkpt>
      <trkpt lat="47.24344" lon="-2.31062">
        <ele>71</ele>
        <time>2019-09-08T07:22:01Z</time>
      </trkpt>
      <trkpt lat="47.24332" lon="-2.31044">
        <ele>71</ele>
        <time>2019-09-08T07:22:05Z</time>
      </trkpt>
      <trkpt lat="47.24317" lon="-2.31036">
        <ele>71</ele>
        <time>2019-09-08T07:22:08Z</time>
      </trkpt>
      <trkpt lat="47.243" lon="-2.31033">
        <ele>71</ele>
        <time>2019-09-08T07:22:11Z</time>
      </trkpt>
      <trkpt lat="47.24295" lon="-2.31034">
        <ele>70</ele>
        <time>2019-09-08T07:22:12Z</time>
      </trkpt>
      <trkpt lat="47.24286" lon="-2.31034">
        <ele>70</ele>
        <time>2019-09-08T07:22:14Z</time>
      </trkpt>
      <trkpt lat="47.24281" lon="-2.31024">
        <ele>69</ele>
        <time>2019-09-08T07:22:17Z</time>
      </trkpt>
      <trkpt lat="47.24281" lon="-2.31015">
        <ele>68</ele>
        <time>2019-09-08T07:22:19Z</time>
      </trkpt>
      <trkpt lat="47.24283" lon="-2.31003">
        <ele>68</ele>
        <time>2019-09-08T07:22:21Z</time>
      </trkpt>
      <trkpt lat="47.24285" lon="-2.3099">
        <ele>67</ele>
        <time>2019-09-08T07:22:23Z</time>
      </trkpt>
      <trkpt lat="47.24286" lon="-2.30984">
        <ele>67</ele>
        <time>2019-09-08T07:22:24Z</time>
      </trkpt>
      <trkpt lat="47.24287" lon="-2.30977">
        <ele>67</ele>
        <time>2019-09-08T07:22:25Z</time>
      </trkpt>
      <trkpt lat="47.24289" lon="-2.3096">
        <ele>67</ele>
        <time>2019-09-08T07:22:28Z</time>
      </trkpt>
      <trkpt lat="47.24291" lon="-2.30943">
        <ele>67</ele>
        <time>2019-09-08T07:22:30Z</time>
      </trkpt>
      <trkpt lat="47.24292" lon="-2.30932">
        <ele>67</ele>
        <time>2019-09-08T07:22:32Z</time>
      </trkpt>
      <trkpt lat="47.24293" lon="-2.3092">
        <ele>67</ele>
        <time>2019-09-08T07:22:34Z</time>
      </trkpt>
      <trkpt lat="47.24292" lon="-2.30904">
        <ele>68</ele>
        <time>2019-09-08T07:22:38Z</time>
      </trkpt>
      <trkpt lat="47.24289" lon="-2.30888">
        <ele>68</ele>
        <time>2019-09-08T07:22:41Z</time>
      </trkpt>
      <trkpt lat="47.24288" lon="-2.30882">
        <ele>68</ele>
        <time>2019-09-08T07:22:42Z</time>
      </trkpt>
      <trkpt lat="47.24287" lon="-2.30875">
        <ele>69</ele>
        <time>2019-09-08T07:22:43Z</time>
      </trkpt>
      <trkpt lat="47.24287" lon="-2.30863">
        <ele>69</ele>
        <time>2019-09-08T07:22:45Z</time>
      </trkpt>
      <trkpt lat="47.24292" lon="-2.30845">
        <ele>70</ele>
        <time>2019-09-08T07:22:48Z</time>
      </trkpt>
      <trkpt lat="47.24297" lon="-2.3083">
        <ele>70</ele>
        <time>2019-09-08T07:22:51Z</time>
      </trkpt>
      <trkpt lat="47.24298" lon="-2.30826">
        <ele>70</ele>
        <time>2019-09-08T07:22:52Z</time>
      </trkpt>
      <trkpt lat="47.24302" lon="-2.3082">
        <ele>70</ele>
        <time>2019-09-08T07:22:54Z</time>
      </trkpt>
      <trkpt lat="47.24309" lon="-2.30811">
        <ele>71</ele>
        <time>2019-09-08T07:22:57Z</time>
      </trkpt>
      <trkpt lat="47.24313" lon="-2.30807">
        <ele>71</ele>
        <time>2019-09-08T07:22:59Z</time>
      </trkpt>
      <trkpt lat="47.24319" lon="-2.30805">
        <ele>71</ele>
        <time>2019-09-08T07:23:01Z</time>
      </trkpt>
      <trkpt lat="47.24325" lon="-2.30802">
        <ele>71</ele>
        <time>2019-09-08T07:23:03Z</time>
      </trkpt>
      <trkpt lat="47.24335" lon="-2.30799">
        <ele>71</ele>
        <time>2019-09-08T07:23:06Z</time>
      </trkpt>
      <trkpt lat="47.24337" lon="-2.30798">
        <ele>71</ele>
        <time>2019-09-08T07:23:07Z</time>
      </trkpt>
      <trkpt lat="47.24344" lon="-2.30795">
        <ele>72</ele>
        <time>2019-09-08T07:23:09Z</time>
      </trkpt>
      <trkpt lat="47.2435" lon="-2.30794">
        <ele>72</ele>
        <time>2019-09-08T07:23:11Z</time>
      </trkpt>
      <trkpt lat="47.24359" lon="-2.30791">
        <ele>72</ele>
        <time>2019-09-08T07:23:14Z</time>
      </trkpt>
      <trkpt lat="47.24364" lon="-2.30788">
        <ele>73</ele>
        <time>2019-09-08T07:23:16Z</time>
      </trkpt>
      <trkpt lat="47.24368" lon="-2.30784">
        <ele>73</ele>
        <time>2019-09-08T07:23:18Z</time>
      </trkpt>
      <trkpt lat="47.24371" lon="-2.3078">
        <ele>73</ele>
        <time>2019-09-08T07:23:19Z</time>
      </trkpt>
      <trkpt lat="47.24374" lon="-2.30777">
        <ele>73</ele>
        <time>2019-09-08T07:23:20Z</time>
      </trkpt>
      <trkpt lat="47.24376" lon="-2.30774">
        <ele>73</ele>
        <time>2019-09-08T07:23:21Z</time>
      </trkpt>
      <trkpt lat="47.24383" lon="-2.30761">
        <ele>73</ele>
        <time>2019-09-08T07:23:25Z</time>
      </trkpt>
      <trkpt lat="47.24386" lon="-2.30755">
        <ele>74</ele>
        <time>2019-09-08T07:23:27Z</time>
      </trkpt>
      <trkpt lat="47.2439" lon="-2.30751">
        <ele>74</ele>
        <time>2019-09-08T07:23:29Z</time>
      </trkpt>
      <trkpt lat="47.24396" lon="-2.30746">
        <ele>75</ele>
        <time>2019-09-08T07:23:32Z</time>
      </trkpt>
      <trkpt lat="47.24402" lon="-2.30728">
        <ele>75</ele>
        <time>2019-09-08T07:23:36Z</time>
      </trkpt>
      <trkpt lat="47.24404" lon="-2.30718">
        <ele>75</ele>
        <time>2019-09-08T07:23:38Z</time>
      </trkpt>
      <trkpt lat="47.24405" lon="-2.30708">
        <ele>76</ele>
        <time>2019-09-08T07:23:40Z</time>
      </trkpt>
      <trkpt lat="47.24408" lon="-2.30694">
        <ele>76</ele>
        <time>2019-09-08T07:23:43Z</time>
      </trkpt>
      <trkpt lat="47.24409" lon="-2.30688">
        <ele>76</ele>
        <time>2019-09-08T07:23:44Z</time>
      </trkpt>
      <trkpt lat="47.2441" lon="-2.30683">
        <ele>76</ele>
        <time>2019-09-08T07:23:45Z</time>
      </trkpt>
      <trkpt lat="47.24412" lon="-2.30672">
        <ele>77</ele>
        <time>2019-09-08T07:23:47Z</time>
      </trkpt>
      <trkpt lat="47.24414" lon="-2.30664">
        <ele>77</ele>
        <time>2019-09-08T07:23:49Z</time>
      </trkpt>
      <trkpt lat="47.24416" lon="-2.30652">
        <ele>77</ele>
        <time>2019-09-08T07:23:51Z</time>
      </trkpt>
      <trkpt lat="47.24418" lon="-2.30646">
        <ele>77</ele>
        <time>2019-09-08T07:23:52Z</time>
      </trkpt>
      <trkpt lat="47.2442" lon="-2.30642">
        <ele>77</ele>
        <time>2019-09-08T07:23:53Z</time>
      </trkpt>
      <trkpt lat="47.24421" lon="-2.30636">
        <ele>78</ele>
        <time>2019-09-08T07:23:54Z</time>
      </trkpt>
      <trkpt lat="47.24429" lon="-2.30625">
        <ele>77</ele>
        <time>2019-09-08T07:23:57Z</time>
      </trkpt>
      <trkpt lat="47.24436" lon="-2.30617">
        <ele>78</ele>
        <time>2019-09-08T07:24:00Z</time>
      </trkpt>
      <trkpt lat="47.24439" lon="-2.30615">
        <ele>78</ele>
        <time>2019-09-08T07:24:01Z</time>
      </trkpt>
      <trkpt lat="47.24447" lon="-2.30605">
        <ele>79</ele>
        <time>2019-09-08T07:24:05Z</time>
      </trkpt>
      <trkpt lat="47.2445" lon="-2.30602">
        <ele>79</ele>
        <time>2019-09-08T07:24:06Z</time>
      </trkpt>
      <trkpt lat="47.24456" lon="-2.30592">
        <ele>79</ele>
        <time>2019-09-08T07:24:08Z</time>
      </trkpt>
      <trkpt lat="47.24459" lon="-2.30586">
        <ele>78</ele>
        <time>2019-09-08T07:24:09Z</time>
      </trkpt>
      <trkpt lat="47.24462" lon="-2.3058">
        <ele>79</ele>
        <time>2019-09-08T07:24:10Z</time>
      </trkpt>
      <trkpt lat="47.24466" lon="-2.30573">
        <ele>79</ele>
        <time>2019-09-08T07:24:13Z</time>
      </trkpt>
      <trkpt lat="47.24457" lon="-2.3056">
        <ele>78</ele>
        <time>2019-09-08T07:24:22Z</time>
      </trkpt>
      <trkpt lat="47.24448" lon="-2.30568">
        <ele>77</ele>
        <time>2019-09-08T07:24:24Z</time>
      </trkpt>
      <trkpt lat="47.24443" lon="-2.3057">
        <ele>77</ele>
        <time>2019-09-08T07:24:25Z</time>
      </trkpt>
      <trkpt lat="47.24437" lon="-2.30572">
        <ele>77</ele>
        <time>2019-09-08T07:24:26Z</time>
      </trkpt>
      <trkpt lat="47.2442" lon="-2.30578">
        <ele>76</ele>
        <time>2019-09-08T07:24:29Z</time>
      </trkpt>
      <trkpt lat="47.24411" lon="-2.30579">
        <ele>76</ele>
        <time>2019-09-08T07:24:31Z</time>
      </trkpt>
      <trkpt lat="47.24399" lon="-2.30574">
        <ele>77</ele>
        <time>2019-09-08T07:24:34Z</time>
      </trkpt>
      <trkpt lat="47.24394" lon="-2.30571">
        <ele>76</ele>
        <time>2019-09-08T07:24:35Z</time>
      </trkpt>
      <trkpt lat="47.2439" lon="-2.30567">
        <ele>77</ele>
        <time>2019-09-08T07:24:36Z</time>
      </trkpt>
      <trkpt lat="47.24386" lon="-2.30562">
        <ele>77</ele>
        <time>2019-09-08T07:24:37Z</time>
      </trkpt>
      <trkpt lat="47.24379" lon="-2.30544">
        <ele>78</ele>
        <time>2019-09-08T07:24:40Z</time>
      </trkpt>
      <trkpt lat="47.24377" lon="-2.30532">
        <ele>78</ele>
        <time>2019-09-08T07:24:42Z</time>
      </trkpt>
      <trkpt lat="47.24376" lon="-2.30527">
        <ele>78</ele>
        <time>2019-09-08T07:24:43Z</time>
      </trkpt>
      <trkpt lat="47.24373" lon="-2.30515">
        <ele>78</ele>
        <time>2019-09-08T07:24:46Z</time>
      </trkpt>
      <trkpt lat="47.24374" lon="-2.30507">
        <ele>78</ele>
        <time>2019-09-08T07:24:48Z</time>
      </trkpt>
      <trkpt lat="47.24375" lon="-2.30499">
        <ele>79</ele>
        <time>2019-09-08T07:24:50Z</time>
      </trkpt>
      <trkpt lat="47.24375" lon="-2.30495">
        <ele>79</ele>
        <time>2019-09-08T07:24:51Z</time>
      </trkpt>
      <trkpt lat="47.24375" lon="-2.30486">
        <ele>78</ele>
        <time>2019-09-08T07:24:53Z</time>
      </trkpt>
      <trkpt lat="47.24376" lon="-2.30479">
        <ele>77</ele>
        <time>2019-09-08T07:24:54Z</time>
      </trkpt>
      <trkpt lat="47.24378" lon="-2.30473">
        <ele>78</ele>
        <time>2019-09-08T07:24:55Z</time>
      </trkpt>
      <trkpt lat="47.24378" lon="-2.30462">
        <ele>77</ele>
        <time>2019-09-08T07:24:57Z</time>
      </trkpt>
      <trkpt lat="47.24378" lon="-2.30457">
        <ele>77</ele>
        <time>2019-09-08T07:24:58Z</time>
      </trkpt>
      <trkpt lat="47.24367" lon="-2.30448">
        <ele>78</ele>
        <time>2019-09-08T07:25:03Z</time>
      </trkpt>
      <trkpt lat="47.24354" lon="-2.30448">
        <ele>78</ele>
        <time>2019-09-08T07:25:07Z</time>
      </trkpt>
      <trkpt lat="47.24346" lon="-2.30444">
        <ele>79</ele>
        <time>2019-09-08T07:25:09Z</time>
      </trkpt>
      <trkpt lat="47.2434" lon="-2.3044">
        <ele>80</ele>
        <time>2019-09-08T07:25:11Z</time>
      </trkpt>
      <trkpt lat="47.24322" lon="-2.30432">
        <ele>81</ele>
        <time>2019-09-08T07:25:15Z</time>
      </trkpt>
      <trkpt lat="47.24316" lon="-2.30426">
        <ele>81</ele>
        <time>2019-09-08T07:25:17Z</time>
      </trkpt>
      <trkpt lat="47.24308" lon="-2.30422">
        <ele>81</ele>
        <time>2019-09-08T07:25:19Z</time>
      </trkpt>
      <trkpt lat="47.24303" lon="-2.3042">
        <ele>81</ele>
        <time>2019-09-08T07:25:20Z</time>
      </trkpt>
      <trkpt lat="47.24294" lon="-2.30414">
        <ele>82</ele>
        <time>2019-09-08T07:25:22Z</time>
      </trkpt>
      <trkpt lat="47.24289" lon="-2.30411">
        <ele>82</ele>
        <time>2019-09-08T07:25:23Z</time>
      </trkpt>
      <trkpt lat="47.24281" lon="-2.30404">
        <ele>82</ele>
        <time>2019-09-08T07:25:24Z</time>
      </trkpt>
      <trkpt lat="47.24276" lon="-2.304">
        <ele>82</ele>
        <time>2019-09-08T07:25:26Z</time>
      </trkpt>
      <trkpt lat="47.24268" lon="-2.30389">
        <ele>82</ele>
        <time>2019-09-08T07:25:28Z</time>
      </trkpt>
      <trkpt lat="47.24262" lon="-2.30376">
        <ele>82</ele>
        <time>2019-09-08T07:25:29Z</time>
      </trkpt>
      <trkpt lat="47.24258" lon="-2.30371">
        <ele>82</ele>
        <time>2019-09-08T07:25:30Z</time>
      </trkpt>
      <trkpt lat="47.24255" lon="-2.30366">
        <ele>82</ele>
        <time>2019-09-08T07:25:32Z</time>
      </trkpt>
      <trkpt lat="47.24248" lon="-2.30353">
        <ele>83</ele>
        <time>2019-09-08T07:25:35Z</time>
      </trkpt>
      <trkpt lat="47.24246" lon="-2.30349">
        <ele>83</ele>
        <time>2019-09-08T07:25:36Z</time>
      </trkpt>
      <trkpt lat="47.24244" lon="-2.30345">
        <ele>83</ele>
        <time>2019-09-08T07:25:37Z</time>
      </trkpt>
      <trkpt lat="47.2424" lon="-2.30337">
        <ele>83</ele>
        <time>2019-09-08T07:25:39Z</time>
      </trkpt>
      <trkpt lat="47.24234" lon="-2.3033">
        <ele>83</ele>
        <time>2019-09-08T07:25:41Z</time>
      </trkpt>
      <trkpt lat="47.24229" lon="-2.30327">
        <ele>82</ele>
        <time>2019-09-08T07:25:43Z</time>
      </trkpt>
      <trkpt lat="47.24218" lon="-2.3033">
        <ele>81</ele>
        <time>2019-09-08T07:25:46Z</time>
      </trkpt>
      <trkpt lat="47.24213" lon="-2.3033">
        <ele>79</ele>
        <time>2019-09-08T07:25:47Z</time>
      </trkpt>
      <trkpt lat="47.24209" lon="-2.3033">
        <ele>79</ele>
        <time>2019-09-08T07:25:48Z</time>
      </trkpt>
      <trkpt lat="47.24204" lon="-2.30324">
        <ele>79</ele>
        <time>2019-09-08T07:25:51Z</time>
      </trkpt>
      <trkpt lat="47.24201" lon="-2.30311">
        <ele>78</ele>
        <time>2019-09-08T07:25:53Z</time>
      </trkpt>
      <trkpt lat="47.242" lon="-2.30304">
        <ele>78</ele>
        <time>2019-09-08T07:25:54Z</time>
      </trkpt>
      <trkpt lat="47.242" lon="-2.30295">
        <ele>77</ele>
        <time>2019-09-08T07:25:55Z</time>
      </trkpt>
      <trkpt lat="47.24198" lon="-2.30272">
        <ele>77</ele>
        <time>2019-09-08T07:25:58Z</time>
      </trkpt>
      <trkpt lat="47.24197" lon="-2.30264">
        <ele>77</ele>
        <time>2019-09-08T07:25:59Z</time>
      </trkpt>
      <trkpt lat="47.24195" lon="-2.30257">
        <ele>77</ele>
        <time>2019-09-08T07:26:00Z</time>
      </trkpt>
      <trkpt lat="47.24192" lon="-2.30245">
        <ele>77</ele>
        <time>2019-09-08T07:26:02Z</time>
      </trkpt>
      <trkpt lat="47.24185" lon="-2.30244">
        <ele>77</ele>
        <time>2019-09-08T07:26:05Z</time>
      </trkpt>
      <trkpt lat="47.24175" lon="-2.30246">
        <ele>77</ele>
        <time>2019-09-08T07:26:08Z</time>
      </trkpt>
      <trkpt lat="47.24169" lon="-2.30241">
        <ele>78</ele>
        <time>2019-09-08T07:26:10Z</time>
      </trkpt>
      <trkpt lat="47.24161" lon="-2.3023">
        <ele>77</ele>
        <time>2019-09-08T07:26:13Z</time>
      </trkpt>
      <trkpt lat="47.24158" lon="-2.30226">
        <ele>78</ele>
        <time>2019-09-08T07:26:14Z</time>
      </trkpt>
      <trkpt lat="47.24151" lon="-2.30213">
        <ele>78</ele>
        <time>2019-09-08T07:26:17Z</time>
      </trkpt>
      <trkpt lat="47.24149" lon="-2.30203">
        <ele>78</ele>
        <time>2019-09-08T07:26:19Z</time>
      </trkpt>
      <trkpt lat="47.24146" lon="-2.30195">
        <ele>78</ele>
        <time>2019-09-08T07:26:21Z</time>
      </trkpt>
      <trkpt lat="47.24145" lon="-2.30189">
        <ele>79</ele>
        <time>2019-09-08T07:26:23Z</time>
      </trkpt>
      <trkpt lat="47.24141" lon="-2.30181">
        <ele>79</ele>
        <time>2019-09-08T07:26:26Z</time>
      </trkpt>
      <trkpt lat="47.24139" lon="-2.30174">
        <ele>80</ele>
        <time>2019-09-08T07:26:28Z</time>
      </trkpt>
      <trkpt lat="47.24137" lon="-2.30166">
        <ele>80</ele>
        <time>2019-09-08T07:26:30Z</time>
      </trkpt>
      <trkpt lat="47.24136" lon="-2.30159">
        <ele>81</ele>
        <time>2019-09-08T07:26:33Z</time>
      </trkpt>
      <trkpt lat="47.24127" lon="-2.30161">
        <ele>81</ele>
        <time>2019-09-08T07:26:38Z</time>
      </trkpt>
      <trkpt lat="47.24123" lon="-2.30166">
        <ele>82</ele>
        <time>2019-09-08T07:26:41Z</time>
      </trkpt>
      <trkpt lat="47.24118" lon="-2.30169">
        <ele>83</ele>
        <time>2019-09-08T07:26:44Z</time>
      </trkpt>
      <trkpt lat="47.24112" lon="-2.30169">
        <ele>83</ele>
        <time>2019-09-08T07:26:46Z</time>
      </trkpt>
      <trkpt lat="47.24108" lon="-2.30167">
        <ele>82</ele>
        <time>2019-09-08T07:26:48Z</time>
      </trkpt>
      <trkpt lat="47.241" lon="-2.30165">
        <ele>82</ele>
        <time>2019-09-08T07:26:51Z</time>
      </trkpt>
      <trkpt lat="47.24097" lon="-2.30165">
        <ele>83</ele>
        <time>2019-09-08T07:26:52Z</time>
      </trkpt>
      <trkpt lat="47.24094" lon="-2.30164">
        <ele>83</ele>
        <time>2019-09-08T07:26:53Z</time>
      </trkpt>
      <trkpt lat="47.24091" lon="-2.30163">
        <ele>83</ele>
        <time>2019-09-08T07:26:54Z</time>
      </trkpt>
      <trkpt lat="47.24086" lon="-2.30161">
        <ele>85</ele>
        <time>2019-09-08T07:26:59Z</time>
      </trkpt>
      <trkpt lat="47.2408" lon="-2.30161">
        <ele>85</ele>
        <time>2019-09-08T07:27:02Z</time>
      </trkpt>
      <trkpt lat="47.24074" lon="-2.30163">
        <ele>85</ele>
        <time>2019-09-08T07:27:05Z</time>
      </trkpt>
      <trkpt lat="47.24068" lon="-2.30155">
        <ele>85</ele>
        <time>2019-09-08T07:27:10Z</time>
      </trkpt>
      <trkpt lat="47.24063" lon="-2.30145">
        <ele>86</ele>
        <time>2019-09-08T07:27:16Z</time>
      </trkpt>
      <trkpt lat="47.24063" lon="-2.30135">
        <ele>87</ele>
        <time>2019-09-08T07:27:23Z</time>
      </trkpt>
      <trkpt lat="47.2406" lon="-2.30129">
        <ele>89</ele>
        <time>2019-09-08T07:27:28Z</time>
      </trkpt>
      <trkpt lat="47.24055" lon="-2.30125">
        <ele>93</ele>
        <time>2019-09-08T07:27:33Z</time>
      </trkpt>
      <trkpt lat="47.24052" lon="-2.30122">
        <ele>95</ele>
        <time>2019-09-08T07:27:37Z</time>
      </trkpt>
      <trkpt lat="47.24047" lon="-2.30123">
        <ele>96</ele>
        <time>2019-09-08T07:27:40Z</time>
      </trkpt>
      <trkpt lat="47.24044" lon="-2.30118">
        <ele>97</ele>
        <time>2019-09-08T07:27:44Z</time>
      </trkpt>
      <trkpt lat="47.24039" lon="-2.30113">
        <ele>97</ele>
        <time>2019-09-08T07:27:47Z</time>
      </trkpt>
      <trkpt lat="47.24036" lon="-2.30108">
        <ele>98</ele>
        <time>2019-09-08T07:27:50Z</time>
      </trkpt>
      <trkpt lat="47.2403" lon="-2.30109">
        <ele>99</ele>
        <time>2019-09-08T07:27:53Z</time>
      </trkpt>
      <trkpt lat="47.24026" lon="-2.30104">
        <ele>98</ele>
        <time>2019-09-08T07:27:56Z</time>
      </trkpt>
      <trkpt lat="47.24023" lon="-2.30101">
        <ele>99</ele>
        <time>2019-09-08T07:27:58Z</time>
      </trkpt>
      <trkpt lat="47.24022" lon="-2.30091">
        <ele>98</ele>
        <time>2019-09-08T07:28:01Z</time>
      </trkpt>
      <trkpt lat="47.24021" lon="-2.30087">
        <ele>99</ele>
        <time>2019-09-08T07:28:02Z</time>
      </trkpt>
      <trkpt lat="47.2402" lon="-2.3008">
        <ele>99</ele>
        <time>2019-09-08T07:28:04Z</time>
      </trkpt>
      <trkpt lat="47.24018" lon="-2.30068">
        <ele>100</ele>
        <time>2019-09-08T07:28:08Z</time>
      </trkpt>
      <trkpt lat="47.24016" lon="-2.30061">
        <ele>101</ele>
        <time>2019-09-08T07:28:11Z</time>
      </trkpt>
      <trkpt lat="47.24015" lon="-2.30052">
        <ele>101</ele>
        <time>2019-09-08T07:28:14Z</time>
      </trkpt>
      <trkpt lat="47.24014" lon="-2.30045">
        <ele>102</ele>
        <time>2019-09-08T07:28:16Z</time>
      </trkpt>
      <trkpt lat="47.24011" lon="-2.30039">
        <ele>103</ele>
        <time>2019-09-08T07:28:19Z</time>
      </trkpt>
      <trkpt lat="47.24005" lon="-2.30042">
        <ele>103</ele>
        <time>2019-09-08T07:28:22Z</time>
      </trkpt>
      <trkpt lat="47.23996" lon="-2.3005">
        <ele>104</ele>
        <time>2019-09-08T07:28:25Z</time>
      </trkpt>
      <trkpt lat="47.23993" lon="-2.30055">
        <ele>104</ele>
        <time>2019-09-08T07:28:26Z</time>
      </trkpt>
      <trkpt lat="47.23991" lon="-2.30061">
        <ele>104</ele>
        <time>2019-09-08T07:28:27Z</time>
      </trkpt>
      <trkpt lat="47.23986" lon="-2.30077">
        <ele>105</ele>
        <time>2019-09-08T07:28:30Z</time>
      </trkpt>
      <trkpt lat="47.23981" lon="-2.30087">
        <ele>104</ele>
        <time>2019-09-08T07:28:32Z</time>
      </trkpt>
      <trkpt lat="47.23977" lon="-2.30094">
        <ele>105</ele>
        <time>2019-09-08T07:28:34Z</time>
      </trkpt>
      <trkpt lat="47.2397" lon="-2.30098">
        <ele>104</ele>
        <time>2019-09-08T07:28:37Z</time>
      </trkpt>
      <trkpt lat="47.23968" lon="-2.301">
        <ele>104</ele>
        <time>2019-09-08T07:28:38Z</time>
      </trkpt>
      <trkpt lat="47.23964" lon="-2.30102">
        <ele>104</ele>
        <time>2019-09-08T07:28:39Z</time>
      </trkpt>
      <trkpt lat="47.2396" lon="-2.30104">
        <ele>103</ele>
        <time>2019-09-08T07:28:40Z</time>
      </trkpt>
      <trkpt lat="47.23958" lon="-2.30106">
        <ele>103</ele>
        <time>2019-09-08T07:28:41Z</time>
      </trkpt>
      <trkpt lat="47.23955" lon="-2.30108">
        <ele>103</ele>
        <time>2019-09-08T07:28:42Z</time>
      </trkpt>
      <trkpt lat="47.23949" lon="-2.3011">
        <ele>102</ele>
        <time>2019-09-08T07:28:44Z</time>
      </trkpt>
      <trkpt lat="47.23942" lon="-2.30109">
        <ele>103</ele>
        <time>2019-09-08T07:28:46Z</time>
      </trkpt>
      <trkpt lat="47.23936" lon="-2.30113">
        <ele>102</ele>
        <time>2019-09-08T07:28:49Z</time>
      </trkpt>
      <trkpt lat="47.23932" lon="-2.30116">
        <ele>101</ele>
        <time>2019-09-08T07:28:52Z</time>
      </trkpt>
      <trkpt lat="47.23926" lon="-2.30117">
        <ele>101</ele>
        <time>2019-09-08T07:28:54Z</time>
      </trkpt>
      <trkpt lat="47.23919" lon="-2.30113">
        <ele>100</ele>
        <time>2019-09-08T07:28:57Z</time>
      </trkpt>
      <trkpt lat="47.23916" lon="-2.30107">
        <ele>99</ele>
        <time>2019-09-08T07:28:59Z</time>
      </trkpt>
      <trkpt lat="47.23916" lon="-2.30099">
        <ele>98</ele>
        <time>2019-09-08T07:29:02Z</time>
      </trkpt>
      <trkpt lat="47.23916" lon="-2.30095">
        <ele>98</ele>
        <time>2019-09-08T07:29:03Z</time>
      </trkpt>
      <trkpt lat="47.23913" lon="-2.30089">
        <ele>98</ele>
        <time>2019-09-08T07:29:05Z</time>
      </trkpt>
      <trkpt lat="47.23906" lon="-2.30085">
        <ele>98</ele>
        <time>2019-09-08T07:29:07Z</time>
      </trkpt>
      <trkpt lat="47.239" lon="-2.3008">
        <ele>97</ele>
        <time>2019-09-08T07:29:08Z</time>
      </trkpt>
      <trkpt lat="47.23894" lon="-2.30076">
        <ele>97</ele>
        <time>2019-09-08T07:29:09Z</time>
      </trkpt>
      <trkpt lat="47.23887" lon="-2.30073">
        <ele>97</ele>
        <time>2019-09-08T07:29:10Z</time>
      </trkpt>
      <trkpt lat="47.23881" lon="-2.3007">
        <ele>96</ele>
        <time>2019-09-08T07:29:11Z</time>
      </trkpt>
      <trkpt lat="47.23875" lon="-2.30067">
        <ele>95</ele>
        <time>2019-09-08T07:29:12Z</time>
      </trkpt>
      <trkpt lat="47.2387" lon="-2.30065">
        <ele>93</ele>
        <time>2019-09-08T07:29:13Z</time>
      </trkpt>
      <trkpt lat="47.23865" lon="-2.30062">
        <ele>92</ele>
        <time>2019-09-08T07:29:14Z</time>
      </trkpt>
      <trkpt lat="47.23861" lon="-2.30058">
        <ele>91</ele>
        <time>2019-09-08T07:29:15Z</time>
      </trkpt>
      <trkpt lat="47.23858" lon="-2.30053">
        <ele>89</ele>
        <time>2019-09-08T07:29:16Z</time>
      </trkpt>
      <trkpt lat="47.23854" lon="-2.30047">
        <ele>88</ele>
        <time>2019-09-08T07:29:17Z</time>
      </trkpt>
      <trkpt lat="47.23852" lon="-2.30041">
        <ele>86</ele>
        <time>2019-09-08T07:29:18Z</time>
      </trkpt>
      <trkpt lat="47.2385" lon="-2.30034">
        <ele>85</ele>
        <time>2019-09-08T07:29:19Z</time>
      </trkpt>
      <trkpt lat="47.23848" lon="-2.30027">
        <ele>84</ele>
        <time>2019-09-08T07:29:20Z</time>
      </trkpt>
      <trkpt lat="47.23847" lon="-2.30021">
        <ele>84</ele>
        <time>2019-09-08T07:29:21Z</time>
      </trkpt>
      <trkpt lat="47.23844" lon="-2.30015">
        <ele>84</ele>
        <time>2019-09-08T07:29:22Z</time>
      </trkpt>
      <trkpt lat="47.23843" lon="-2.30008">
        <ele>83</ele>
        <time>2019-09-08T07:29:23Z</time>
      </trkpt>
      <trkpt lat="47.23839" lon="-2.29991">
        <ele>82</ele>
        <time>2019-09-08T07:29:26Z</time>
      </trkpt>
      <trkpt lat="47.23836" lon="-2.2998">
        <ele>81</ele>
        <time>2019-09-08T07:29:28Z</time>
      </trkpt>
      <trkpt lat="47.23834" lon="-2.29974">
        <ele>81</ele>
        <time>2019-09-08T07:29:29Z</time>
      </trkpt>
      <trkpt lat="47.23833" lon="-2.29968">
        <ele>80</ele>
        <time>2019-09-08T07:29:30Z</time>
      </trkpt>
      <trkpt lat="47.23832" lon="-2.29962">
        <ele>80</ele>
        <time>2019-09-08T07:29:31Z</time>
      </trkpt>
      <trkpt lat="47.23828" lon="-2.29945">
        <ele>81</ele>
        <time>2019-09-08T07:29:34Z</time>
      </trkpt>
      <trkpt lat="47.23826" lon="-2.29933">
        <ele>81</ele>
        <time>2019-09-08T07:29:36Z</time>
      </trkpt>
      <trkpt lat="47.23822" lon="-2.29915">
        <ele>80</ele>
        <time>2019-09-08T07:29:39Z</time>
      </trkpt>
      <trkpt lat="47.2382" lon="-2.29909">
        <ele>80</ele>
        <time>2019-09-08T07:29:40Z</time>
      </trkpt>
      <trkpt lat="47.23819" lon="-2.29903">
        <ele>80</ele>
        <time>2019-09-08T07:29:41Z</time>
      </trkpt>
      <trkpt lat="47.23817" lon="-2.29891">
        <ele>80</ele>
        <time>2019-09-08T07:29:43Z</time>
      </trkpt>
      <trkpt lat="47.23816" lon="-2.29885">
        <ele>80</ele>
        <time>2019-09-08T07:29:44Z</time>
      </trkpt>
      <trkpt lat="47.23815" lon="-2.29879">
        <ele>80</ele>
        <time>2019-09-08T07:29:45Z</time>
      </trkpt>
      <trkpt lat="47.23814" lon="-2.29873">
        <ele>80</ele>
        <time>2019-09-08T07:29:46Z</time>
      </trkpt>
      <trkpt lat="47.23813" lon="-2.29867">
        <ele>80</ele>
        <time>2019-09-08T07:29:47Z</time>
      </trkpt>
      <trkpt lat="47.23813" lon="-2.2986">
        <ele>80</ele>
        <time>2019-09-08T07:29:48Z</time>
      </trkpt>
      <trkpt lat="47.23812" lon="-2.29854">
        <ele>80</ele>
        <time>2019-09-08T07:29:49Z</time>
      </trkpt>
      <trkpt lat="47.23811" lon="-2.29847">
        <ele>80</ele>
        <time>2019-09-08T07:29:50Z</time>
      </trkpt>
      <trkpt lat="47.2381" lon="-2.29841">
        <ele>80</ele>
        <time>2019-09-08T07:29:51Z</time>
      </trkpt>
      <trkpt lat="47.23809" lon="-2.29834">
        <ele>80</ele>
        <time>2019-09-08T07:29:52Z</time>
      </trkpt>
      <trkpt lat="47.23809" lon="-2.29827">
        <ele>80</ele>
        <time>2019-09-08T07:29:53Z</time>
      </trkpt>
      <trkpt lat="47.23809" lon="-2.29819">
        <ele>80</ele>
        <time>2019-09-08T07:29:54Z</time>
      </trkpt>
      <trkpt lat="47.23809" lon="-2.29812">
        <ele>79</ele>
        <time>2019-09-08T07:29:55Z</time>
      </trkpt>
      <trkpt lat="47.2381" lon="-2.29785">
        <ele>79</ele>
        <time>2019-09-08T07:29:59Z</time>
      </trkpt>
      <trkpt lat="47.2381" lon="-2.2978">
        <ele>79</ele>
        <time>2019-09-08T07:30:00Z</time>
      </trkpt>
      <trkpt lat="47.2381" lon="-2.29775">
        <ele>79</ele>
        <time>2019-09-08T07:30:01Z</time>
      </trkpt>
      <trkpt lat="47.2381" lon="-2.29762">
        <ele>79</ele>
        <time>2019-09-08T07:30:03Z</time>
      </trkpt>
      <trkpt lat="47.23811" lon="-2.29747">
        <ele>79</ele>
        <time>2019-09-08T07:30:05Z</time>
      </trkpt>
      <trkpt lat="47.23811" lon="-2.2974">
        <ele>79</ele>
        <time>2019-09-08T07:30:06Z</time>
      </trkpt>
      <trkpt lat="47.23811" lon="-2.29733">
        <ele>79</ele>
        <time>2019-09-08T07:30:07Z</time>
      </trkpt>
      <trkpt lat="47.2381" lon="-2.29726">
        <ele>79</ele>
        <time>2019-09-08T07:30:08Z</time>
      </trkpt>
      <trkpt lat="47.2381" lon="-2.29718">
        <ele>79</ele>
        <time>2019-09-08T07:30:09Z</time>
      </trkpt>
      <trkpt lat="47.23811" lon="-2.29702">
        <ele>79</ele>
        <time>2019-09-08T07:30:11Z</time>
      </trkpt>
      <trkpt lat="47.23813" lon="-2.29694">
        <ele>79</ele>
        <time>2019-09-08T07:30:12Z</time>
      </trkpt>
      <trkpt lat="47.23814" lon="-2.29686">
        <ele>79</ele>
        <time>2019-09-08T07:30:13Z</time>
      </trkpt>
      <trkpt lat="47.23815" lon="-2.29678">
        <ele>79</ele>
        <time>2019-09-08T07:30:14Z</time>
      </trkpt>
      <trkpt lat="47.23815" lon="-2.2967">
        <ele>79</ele>
        <time>2019-09-08T07:30:15Z</time>
      </trkpt>
      <trkpt lat="47.23815" lon="-2.29662">
        <ele>79</ele>
        <time>2019-09-08T07:30:16Z</time>
      </trkpt>
      <trkpt lat="47.23815" lon="-2.29654">
        <ele>79</ele>
        <time>2019-09-08T07:30:17Z</time>
      </trkpt>
      <trkpt lat="47.23816" lon="-2.29646">
        <ele>79</ele>
        <time>2019-09-08T07:30:18Z</time>
      </trkpt>
      <trkpt lat="47.23816" lon="-2.29632">
        <ele>79</ele>
        <time>2019-09-08T07:30:20Z</time>
      </trkpt>
      <trkpt lat="47.23817" lon="-2.29619">
        <ele>79</ele>
        <time>2019-09-08T07:30:22Z</time>
      </trkpt>
      <trkpt lat="47.23817" lon="-2.29612">
        <ele>79</ele>
        <time>2019-09-08T07:30:23Z</time>
      </trkpt>
      <trkpt lat="47.23818" lon="-2.29597">
        <ele>80</ele>
        <time>2019-09-08T07:30:25Z</time>
      </trkpt>
      <trkpt lat="47.23819" lon="-2.29589">
        <ele>80</ele>
        <time>2019-09-08T07:30:26Z</time>
      </trkpt>
      <trkpt lat="47.23819" lon="-2.29581">
        <ele>81</ele>
        <time>2019-09-08T07:30:27Z</time>
      </trkpt>
      <trkpt lat="47.23819" lon="-2.29571">
        <ele>81</ele>
        <time>2019-09-08T07:30:28Z</time>
      </trkpt>
      <trkpt lat="47.2382" lon="-2.29562">
        <ele>81</ele>
        <time>2019-09-08T07:30:29Z</time>
      </trkpt>
      <trkpt lat="47.2382" lon="-2.29554">
        <ele>81</ele>
        <time>2019-09-08T07:30:30Z</time>
      </trkpt>
      <trkpt lat="47.23821" lon="-2.29539">
        <ele>81</ele>
        <time>2019-09-08T07:30:32Z</time>
      </trkpt>
      <trkpt lat="47.23821" lon="-2.29523">
        <ele>81</ele>
        <time>2019-09-08T07:30:34Z</time>
      </trkpt>
      <trkpt lat="47.23822" lon="-2.29515">
        <ele>81</ele>
        <time>2019-09-08T07:30:35Z</time>
      </trkpt>
      <trkpt lat="47.23822" lon="-2.29506">
        <ele>81</ele>
        <time>2019-09-08T07:30:36Z</time>
      </trkpt>
      <trkpt lat="47.23821" lon="-2.29498">
        <ele>81</ele>
        <time>2019-09-08T07:30:37Z</time>
      </trkpt>
      <trkpt lat="47.2382" lon="-2.29489">
        <ele>81</ele>
        <time>2019-09-08T07:30:38Z</time>
      </trkpt>
      <trkpt lat="47.2382" lon="-2.2948">
        <ele>81</ele>
        <time>2019-09-08T07:30:39Z</time>
      </trkpt>
      <trkpt lat="47.2382" lon="-2.29471">
        <ele>81</ele>
        <time>2019-09-08T07:30:40Z</time>
      </trkpt>
      <trkpt lat="47.2382" lon="-2.29462">
        <ele>81</ele>
        <time>2019-09-08T07:30:41Z</time>
      </trkpt>
      <trkpt lat="47.2382" lon="-2.29454">
        <ele>82</ele>
        <time>2019-09-08T07:30:42Z</time>
      </trkpt>
      <trkpt lat="47.2382" lon="-2.29445">
        <ele>81</ele>
        <time>2019-09-08T07:30:43Z</time>
      </trkpt>
      <trkpt lat="47.23822" lon="-2.29438">
        <ele>82</ele>
        <time>2019-09-08T07:30:44Z</time>
      </trkpt>
      <trkpt lat="47.23828" lon="-2.2942">
        <ele>82</ele>
        <time>2019-09-08T07:30:47Z</time>
      </trkpt>
      <trkpt lat="47.23832" lon="-2.29414">
        <ele>82</ele>
        <time>2019-09-08T07:30:48Z</time>
      </trkpt>
      <trkpt lat="47.23835" lon="-2.29407">
        <ele>82</ele>
        <time>2019-09-08T07:30:49Z</time>
      </trkpt>
      <trkpt lat="47.23838" lon="-2.294">
        <ele>82</ele>
        <time>2019-09-08T07:30:50Z</time>
      </trkpt>
      <trkpt lat="47.23842" lon="-2.29392">
        <ele>83</ele>
        <time>2019-09-08T07:30:51Z</time>
      </trkpt>
      <trkpt lat="47.23845" lon="-2.29384">
        <ele>83</ele>
        <time>2019-09-08T07:30:52Z</time>
      </trkpt>
      <trkpt lat="47.23849" lon="-2.29377">
        <ele>83</ele>
        <time>2019-09-08T07:30:53Z</time>
      </trkpt>
      <trkpt lat="47.23853" lon="-2.2937">
        <ele>83</ele>
        <time>2019-09-08T07:30:54Z</time>
      </trkpt>
      <trkpt lat="47.23855" lon="-2.29364">
        <ele>83</ele>
        <time>2019-09-08T07:30:55Z</time>
      </trkpt>
      <trkpt lat="47.23858" lon="-2.29357">
        <ele>83</ele>
        <time>2019-09-08T07:30:56Z</time>
      </trkpt>
      <trkpt lat="47.23865" lon="-2.29347">
        <ele>83</ele>
        <time>2019-09-08T07:30:58Z</time>
      </trkpt>
      <trkpt lat="47.23868" lon="-2.29342">
        <ele>83</ele>
        <time>2019-09-08T07:30:59Z</time>
      </trkpt>
      <trkpt lat="47.23876" lon="-2.29336">
        <ele>82</ele>
        <time>2019-09-08T07:31:01Z</time>
      </trkpt>
      <trkpt lat="47.23888" lon="-2.29335">
        <ele>83</ele>
        <time>2019-09-08T07:31:03Z</time>
      </trkpt>
      <trkpt lat="47.23894" lon="-2.29335">
        <ele>83</ele>
        <time>2019-09-08T07:31:04Z</time>
      </trkpt>
      <trkpt lat="47.23899" lon="-2.29336">
        <ele>84</ele>
        <time>2019-09-08T07:31:05Z</time>
      </trkpt>
      <trkpt lat="47.23905" lon="-2.29336">
        <ele>84</ele>
        <time>2019-09-08T07:31:06Z</time>
      </trkpt>
      <trkpt lat="47.2391" lon="-2.29339">
        <ele>84</ele>
        <time>2019-09-08T07:31:07Z</time>
      </trkpt>
      <trkpt lat="47.23914" lon="-2.29344">
        <ele>84</ele>
        <time>2019-09-08T07:31:08Z</time>
      </trkpt>
      <trkpt lat="47.23916" lon="-2.2935">
        <ele>85</ele>
        <time>2019-09-08T07:31:09Z</time>
      </trkpt>
      <trkpt lat="47.23922" lon="-2.29361">
        <ele>84</ele>
        <time>2019-09-08T07:31:11Z</time>
      </trkpt>
      <trkpt lat="47.23925" lon="-2.29366">
        <ele>84</ele>
        <time>2019-09-08T07:31:12Z</time>
      </trkpt>
      <trkpt lat="47.23928" lon="-2.29373">
        <ele>84</ele>
        <time>2019-09-08T07:31:13Z</time>
      </trkpt>
      <trkpt lat="47.23932" lon="-2.29379">
        <ele>84</ele>
        <time>2019-09-08T07:31:14Z</time>
      </trkpt>
      <trkpt lat="47.23935" lon="-2.29384">
        <ele>84</ele>
        <time>2019-09-08T07:31:15Z</time>
      </trkpt>
      <trkpt lat="47.23938" lon="-2.29391">
        <ele>84</ele>
        <time>2019-09-08T07:31:16Z</time>
      </trkpt>
      <trkpt lat="47.23941" lon="-2.29396">
        <ele>84</ele>
        <time>2019-09-08T07:31:17Z</time>
      </trkpt>
      <trkpt lat="47.23944" lon="-2.29402">
        <ele>84</ele>
        <time>2019-09-08T07:31:18Z</time>
      </trkpt>
      <trkpt lat="47.23948" lon="-2.29408">
        <ele>85</ele>
        <time>2019-09-08T07:31:19Z</time>
      </trkpt>
      <trkpt lat="47.2395" lon="-2.29414">
        <ele>85</ele>
        <time>2019-09-08T07:31:20Z</time>
      </trkpt>
      <trkpt lat="47.23953" lon="-2.2942">
        <ele>85</ele>
        <time>2019-09-08T07:31:21Z</time>
      </trkpt>
      <trkpt lat="47.23956" lon="-2.29426">
        <ele>85</ele>
        <time>2019-09-08T07:31:22Z</time>
      </trkpt>
      <trkpt lat="47.23959" lon="-2.29432">
        <ele>85</ele>
        <time>2019-09-08T07:31:23Z</time>
      </trkpt>
      <trkpt lat="47.23962" lon="-2.29437">
        <ele>85</ele>
        <time>2019-09-08T07:31:24Z</time>
      </trkpt>
      <trkpt lat="47.23965" lon="-2.29443">
        <ele>85</ele>
        <time>2019-09-08T07:31:25Z</time>
      </trkpt>
      <trkpt lat="47.23968" lon="-2.29449">
        <ele>85</ele>
        <time>2019-09-08T07:31:26Z</time>
      </trkpt>
      <trkpt lat="47.23971" lon="-2.29455">
        <ele>86</ele>
        <time>2019-09-08T07:31:27Z</time>
      </trkpt>
      <trkpt lat="47.23975" lon="-2.29461">
        <ele>86</ele>
        <time>2019-09-08T07:31:28Z</time>
      </trkpt>
      <trkpt lat="47.23978" lon="-2.29468">
        <ele>86</ele>
        <time>2019-09-08T07:31:29Z</time>
      </trkpt>
      <trkpt lat="47.23984" lon="-2.29481">
        <ele>86</ele>
        <time>2019-09-08T07:31:31Z</time>
      </trkpt>
      <trkpt lat="47.23987" lon="-2.29487">
        <ele>86</ele>
        <time>2019-09-08T07:31:32Z</time>
      </trkpt>
      <trkpt lat="47.2399" lon="-2.29494">
        <ele>86</ele>
        <time>2019-09-08T07:31:33Z</time>
      </trkpt>
      <trkpt lat="47.23993" lon="-2.29501">
        <ele>86</ele>
        <time>2019-09-08T07:31:34Z</time>
      </trkpt>
      <trkpt lat="47.23994" lon="-2.29509">
        <ele>86</ele>
        <time>2019-09-08T07:31:35Z</time>
      </trkpt>
      <trkpt lat="47.23995" lon="-2.29518">
        <ele>86</ele>
        <time>2019-09-08T07:31:36Z</time>
      </trkpt>
      <trkpt lat="47.23995" lon="-2.29526">
        <ele>86</ele>
        <time>2019-09-08T07:31:37Z</time>
      </trkpt>
      <trkpt lat="47.23995" lon="-2.29534">
        <ele>87</ele>
        <time>2019-09-08T07:31:38Z</time>
      </trkpt>
      <trkpt lat="47.23996" lon="-2.29542">
        <ele>87</ele>
        <time>2019-09-08T07:31:39Z</time>
      </trkpt>
      <trkpt lat="47.23997" lon="-2.2955">
        <ele>87</ele>
        <time>2019-09-08T07:31:40Z</time>
      </trkpt>
      <trkpt lat="47.23997" lon="-2.29559">
        <ele>86</ele>
        <time>2019-09-08T07:31:41Z</time>
      </trkpt>
      <trkpt lat="47.23998" lon="-2.29566">
        <ele>86</ele>
        <time>2019-09-08T07:31:42Z</time>
      </trkpt>
      <trkpt lat="47.23998" lon="-2.29574">
        <ele>86</ele>
        <time>2019-09-08T07:31:43Z</time>
      </trkpt>
      <trkpt lat="47.23999" lon="-2.29582">
        <ele>87</ele>
        <time>2019-09-08T07:31:44Z</time>
      </trkpt>
      <trkpt lat="47.23999" lon="-2.29591">
        <ele>87</ele>
        <time>2019-09-08T07:31:45Z</time>
      </trkpt>
      <trkpt lat="47.23999" lon="-2.29599">
        <ele>87</ele>
        <time>2019-09-08T07:31:46Z</time>
      </trkpt>
      <trkpt lat="47.24" lon="-2.29606">
        <ele>87</ele>
        <time>2019-09-08T07:31:47Z</time>
      </trkpt>
      <trkpt lat="47.24001" lon="-2.29613">
        <ele>88</ele>
        <time>2019-09-08T07:31:48Z</time>
      </trkpt>
      <trkpt lat="47.24001" lon="-2.29628">
        <ele>88</ele>
        <time>2019-09-08T07:31:50Z</time>
      </trkpt>
      <trkpt lat="47.24002" lon="-2.29635">
        <ele>88</ele>
        <time>2019-09-08T07:31:51Z</time>
      </trkpt>
      <trkpt lat="47.24003" lon="-2.29643">
        <ele>88</ele>
        <time>2019-09-08T07:31:52Z</time>
      </trkpt>
      <trkpt lat="47.24005" lon="-2.2966">
        <ele>88</ele>
        <time>2019-09-08T07:31:54Z</time>
      </trkpt>
      <trkpt lat="47.24006" lon="-2.29668">
        <ele>89</ele>
        <time>2019-09-08T07:31:55Z</time>
      </trkpt>
      <trkpt lat="47.24006" lon="-2.29686">
        <ele>88</ele>
        <time>2019-09-08T07:31:57Z</time>
      </trkpt>
      <trkpt lat="47.24006" lon="-2.29694">
        <ele>88</ele>
        <time>2019-09-08T07:31:58Z</time>
      </trkpt>
      <trkpt lat="47.24006" lon="-2.29718">
        <ele>89</ele>
        <time>2019-09-08T07:32:01Z</time>
      </trkpt>
      <trkpt lat="47.24007" lon="-2.29726">
        <ele>89</ele>
        <time>2019-09-08T07:32:02Z</time>
      </trkpt>
      <trkpt lat="47.24007" lon="-2.29735">
        <ele>89</ele>
        <time>2019-09-08T07:32:03Z</time>
      </trkpt>
      <trkpt lat="47.24008" lon="-2.29742">
        <ele>89</ele>
        <time>2019-09-08T07:32:04Z</time>
      </trkpt>
      <trkpt lat="47.24008" lon="-2.29751">
        <ele>89</ele>
        <time>2019-09-08T07:32:05Z</time>
      </trkpt>
      <trkpt lat="47.24009" lon="-2.29758">
        <ele>89</ele>
        <time>2019-09-08T07:32:06Z</time>
      </trkpt>
      <trkpt lat="47.2401" lon="-2.29777">
        <ele>90</ele>
        <time>2019-09-08T07:32:09Z</time>
      </trkpt>
      <trkpt lat="47.24012" lon="-2.29789">
        <ele>90</ele>
        <time>2019-09-08T07:32:11Z</time>
      </trkpt>
      <trkpt lat="47.24014" lon="-2.29797">
        <ele>90</ele>
        <time>2019-09-08T07:32:13Z</time>
      </trkpt>
      <trkpt lat="47.24021" lon="-2.29803">
        <ele>90</ele>
        <time>2019-09-08T07:32:17Z</time>
      </trkpt>
      <trkpt lat="47.24025" lon="-2.29808">
        <ele>91</ele>
        <time>2019-09-08T07:32:20Z</time>
      </trkpt>
      <trkpt lat="47.24029" lon="-2.29811">
        <ele>91</ele>
        <time>2019-09-08T07:32:23Z</time>
      </trkpt>
      <trkpt lat="47.24034" lon="-2.29817">
        <ele>91</ele>
        <time>2019-09-08T07:32:26Z</time>
      </trkpt>
      <trkpt lat="47.2404" lon="-2.2982">
        <ele>92</ele>
        <time>2019-09-08T07:32:29Z</time>
      </trkpt>
      <trkpt lat="47.24048" lon="-2.29825">
        <ele>92</ele>
        <time>2019-09-08T07:32:33Z</time>
      </trkpt>
      <trkpt lat="47.24051" lon="-2.29827">
        <ele>93</ele>
        <time>2019-09-08T07:32:34Z</time>
      </trkpt>
      <trkpt lat="47.24056" lon="-2.29831">
        <ele>93</ele>
        <time>2019-09-08T07:32:36Z</time>
      </trkpt>
      <trkpt lat="47.24058" lon="-2.29833">
        <ele>93</ele>
        <time>2019-09-08T07:32:37Z</time>
      </trkpt>
      <trkpt lat="47.24061" lon="-2.29836">
        <ele>93</ele>
        <time>2019-09-08T07:32:38Z</time>
      </trkpt>
      <trkpt lat="47.24072" lon="-2.29845">
        <ele>94</ele>
        <time>2019-09-08T07:32:41Z</time>
      </trkpt>
      <trkpt lat="47.24093" lon="-2.29852">
        <ele>94</ele>
        <time>2019-09-08T07:32:45Z</time>
      </trkpt>
      <trkpt lat="47.24098" lon="-2.29852">
        <ele>95</ele>
        <time>2019-09-08T07:32:46Z</time>
      </trkpt>
      <trkpt lat="47.24108" lon="-2.29852">
        <ele>95</ele>
        <time>2019-09-08T07:32:48Z</time>
      </trkpt>
      <trkpt lat="47.24119" lon="-2.2985">
        <ele>96</ele>
        <time>2019-09-08T07:32:50Z</time>
      </trkpt>
      <trkpt lat="47.24125" lon="-2.29849">
        <ele>96</ele>
        <time>2019-09-08T07:32:51Z</time>
      </trkpt>
      <trkpt lat="47.2414" lon="-2.29851">
        <ele>96</ele>
        <time>2019-09-08T07:32:54Z</time>
      </trkpt>
      <trkpt lat="47.24144" lon="-2.29851">
        <ele>96</ele>
        <time>2019-09-08T07:32:55Z</time>
      </trkpt>
      <trkpt lat="47.24149" lon="-2.29854">
        <ele>97</ele>
        <time>2019-09-08T07:32:57Z</time>
      </trkpt>
      <trkpt lat="47.24154" lon="-2.29854">
        <ele>97</ele>
        <time>2019-09-08T07:32:59Z</time>
      </trkpt>
      <trkpt lat="47.24158" lon="-2.2986">
        <ele>98</ele>
        <time>2019-09-08T07:33:04Z</time>
      </trkpt>
      <trkpt lat="47.2416" lon="-2.29863">
        <ele>99</ele>
        <time>2019-09-08T07:33:05Z</time>
      </trkpt>
      <trkpt lat="47.24162" lon="-2.29866">
        <ele>99</ele>
        <time>2019-09-08T07:33:06Z</time>
      </trkpt>
      <trkpt lat="47.24163" lon="-2.29869">
        <ele>99</ele>
        <time>2019-09-08T07:33:07Z</time>
      </trkpt>
      <trkpt lat="47.24166" lon="-2.29873">
        <ele>100</ele>
        <time>2019-09-08T07:33:08Z</time>
      </trkpt>
      <trkpt lat="47.2417" lon="-2.29878">
        <ele>100</ele>
        <time>2019-09-08T07:33:11Z</time>
      </trkpt>
      <trkpt lat="47.24166" lon="-2.29887">
        <ele>100</ele>
        <time>2019-09-08T07:33:15Z</time>
      </trkpt>
      <trkpt lat="47.24164" lon="-2.29893">
        <ele>100</ele>
        <time>2019-09-08T07:33:17Z</time>
      </trkpt>
      <trkpt lat="47.24158" lon="-2.29906">
        <ele>101</ele>
        <time>2019-09-08T07:33:20Z</time>
      </trkpt>
      <trkpt lat="47.24155" lon="-2.29919">
        <ele>101</ele>
        <time>2019-09-08T07:33:22Z</time>
      </trkpt>
      <trkpt lat="47.24154" lon="-2.29927">
        <ele>100</ele>
        <time>2019-09-08T07:33:23Z</time>
      </trkpt>
      <trkpt lat="47.24153" lon="-2.29934">
        <ele>101</ele>
        <time>2019-09-08T07:33:24Z</time>
      </trkpt>
      <trkpt lat="47.24152" lon="-2.29941">
        <ele>101</ele>
        <time>2019-09-08T07:33:25Z</time>
      </trkpt>
      <trkpt lat="47.24151" lon="-2.29948">
        <ele>101</ele>
        <time>2019-09-08T07:33:26Z</time>
      </trkpt>
      <trkpt lat="47.24153" lon="-2.29959">
        <ele>102</ele>
        <time>2019-09-08T07:33:28Z</time>
      </trkpt>
      <trkpt lat="47.24162" lon="-2.29974">
        <ele>103</ele>
        <time>2019-09-08T07:33:32Z</time>
      </trkpt>
      <trkpt lat="47.24167" lon="-2.29985">
        <ele>104</ele>
        <time>2019-09-08T07:33:34Z</time>
      </trkpt>
      <trkpt lat="47.24172" lon="-2.29995">
        <ele>104</ele>
        <time>2019-09-08T07:33:36Z</time>
      </trkpt>
      <trkpt lat="47.24175" lon="-2.3">
        <ele>104</ele>
        <time>2019-09-08T07:33:37Z</time>
      </trkpt>
      <trkpt lat="47.24177" lon="-2.30006">
        <ele>104</ele>
        <time>2019-09-08T07:33:38Z</time>
      </trkpt>
      <trkpt lat="47.24177" lon="-2.30021">
        <ele>104</ele>
        <time>2019-09-08T07:33:41Z</time>
      </trkpt>
      <trkpt lat="47.24174" lon="-2.30026">
        <ele>104</ele>
        <time>2019-09-08T07:33:44Z</time>
      </trkpt>
      <trkpt lat="47.24169" lon="-2.30027">
        <ele>104</ele>
        <time>2019-09-08T07:33:47Z</time>
      </trkpt>
      <trkpt lat="47.24163" lon="-2.30025">
        <ele>104</ele>
        <time>2019-09-08T07:33:49Z</time>
      </trkpt>
      <trkpt lat="47.24161" lon="-2.30024">
        <ele>104</ele>
        <time>2019-09-08T07:33:50Z</time>
      </trkpt>
      <trkpt lat="47.24156" lon="-2.30025">
        <ele>104</ele>
        <time>2019-09-08T07:33:52Z</time>
      </trkpt>
      <trkpt lat="47.24152" lon="-2.30027">
        <ele>104</ele>
        <time>2019-09-08T07:33:54Z</time>
      </trkpt>
      <trkpt lat="47.24149" lon="-2.30029">
        <ele>105</ele>
        <time>2019-09-08T07:33:56Z</time>
      </trkpt>
      <trkpt lat="47.24149" lon="-2.30037">
        <ele>104</ele>
        <time>2019-09-08T07:33:59Z</time>
      </trkpt>
      <trkpt lat="47.24152" lon="-2.30045">
        <ele>104</ele>
        <time>2019-09-08T07:34:01Z</time>
      </trkpt>
      <trkpt lat="47.24154" lon="-2.3005">
        <ele>103</ele>
        <time>2019-09-08T07:34:03Z</time>
      </trkpt>
      <trkpt lat="47.24153" lon="-2.30057">
        <ele>103</ele>
        <time>2019-09-08T07:34:05Z</time>
      </trkpt>
      <trkpt lat="47.24149" lon="-2.30064">
        <ele>103</ele>
        <time>2019-09-08T07:34:07Z</time>
      </trkpt>
      <trkpt lat="47.24144" lon="-2.3007">
        <ele>103</ele>
        <time>2019-09-08T07:34:10Z</time>
      </trkpt>
      <trkpt lat="47.24138" lon="-2.30074">
        <ele>104</ele>
        <time>2019-09-08T07:34:14Z</time>
      </trkpt>
      <trkpt lat="47.24131" lon="-2.30076">
        <ele>104</ele>
        <time>2019-09-08T07:34:17Z</time>
      </trkpt>
      <trkpt lat="47.24126" lon="-2.30078">
        <ele>103</ele>
        <time>2019-09-08T07:34:20Z</time>
      </trkpt>
      <trkpt lat="47.24124" lon="-2.30079">
        <ele>101</ele>
        <time>2019-09-08T07:34:22Z</time>
      </trkpt>
      <trkpt lat="47.24119" lon="-2.30078">
        <ele>98</ele>
        <time>2019-09-08T07:34:26Z</time>
      </trkpt>
      <trkpt lat="47.24119" lon="-2.30078">
        <ele>98</ele>
        <time>2019-09-08T07:34:34Z</time>
      </trkpt>
      <trkpt lat="47.24119" lon="-2.30078">
        <ele>31.5</ele>
        <time>2019-09-08T07:34:34Z</time>
      </trkpt>
      <trkpt lat="47.24119" lon="-2.30078">
        <ele>31.5</ele>
        <time>2019-09-08T07:34:52Z</time>
      </trkpt>
      <trkpt lat="47.2411" lon="-2.30098">
        <ele>93</ele>
        <time>2019-09-08T07:34:52Z</time>
      </trkpt>
      <trkpt lat="47.24099" lon="-2.30121">
        <ele>86</ele>
        <time>2019-09-08T07:34:59Z</time>
      </trkpt>
      <trkpt lat="47.24103" lon="-2.30129">
        <ele>91</ele>
        <time>2019-09-08T07:35:04Z</time>
      </trkpt>
      <trkpt lat="47.24103" lon="-2.30129">
        <ele>91</ele>
        <time>2019-09-08T07:35:12Z</time>
      </trkpt>
      <trkpt lat="47.24103" lon="-2.30129">
        <ele>31.3</ele>
        <time>2019-09-08T07:35:12Z</time>
      </trkpt>
      <trkpt lat="47.24103" lon="-2.30129">
        <ele>31.3</ele>
        <time>2019-09-08T07:35:25Z</time>
      </trkpt>
      <trkpt lat="47.24128" lon="-2.30127">
        <ele>88</ele>
        <time>2019-09-08T07:35:25Z</time>
      </trkpt>
      <trkpt lat="47.24132" lon="-2.30141">
        <ele>80</ele>
        <time>2019-09-08T07:35:31Z</time>
      </trkpt>
      <trkpt lat="47.24136" lon="-2.30146">
        <ele>79</ele>
        <time>2019-09-08T07:35:33Z</time>
      </trkpt>
      <trkpt lat="47.24137" lon="-2.30154">
        <ele>75</ele>
        <time>2019-09-08T07:35:37Z</time>
      </trkpt>
      <trkpt lat="47.24135" lon="-2.30162">
        <ele>75</ele>
        <time>2019-09-08T07:35:39Z</time>
      </trkpt>
      <trkpt lat="47.24135" lon="-2.30162">
        <ele>75</ele>
        <time>2019-09-08T07:35:44Z</time>
      </trkpt>
      <trkpt lat="47.24135" lon="-2.30162">
        <ele>26.7</ele>
        <time>2019-09-08T07:35:44Z</time>
      </trkpt>
      <trkpt lat="47.24135" lon="-2.30162">
        <ele>26.7</ele>
        <time>2019-09-08T07:35:56Z</time>
      </trkpt>
      <trkpt lat="47.2412" lon="-2.30162">
        <ele>100</ele>
        <time>2019-09-08T07:35:56Z</time>
      </trkpt>
      <trkpt lat="47.24109" lon="-2.30165">
        <ele>90</ele>
        <time>2019-09-08T07:36:01Z</time>
      </trkpt>
      <trkpt lat="47.24129" lon="-2.30156">
        <ele>76</ele>
        <time>2019-09-08T07:36:05Z</time>
      </trkpt>
      <trkpt lat="47.24132" lon="-2.30164">
        <ele>80</ele>
        <time>2019-09-08T07:36:08Z</time>
      </trkpt>
      <trkpt lat="47.24132" lon="-2.30164">
        <ele>27.1</ele>
        <time>2019-09-08T07:36:15Z</time>
      </trkpt>
      <trkpt lat="47.24132" lon="-2.30164">
        <ele>27.1</ele>
        <time>2019-09-08T07:36:20Z</time>
      </trkpt>
      <trkpt lat="47.24138" lon="-2.30124">
        <ele>98</ele>
        <time>2019-09-08T07:36:20Z</time>
      </trkpt>
      <trkpt lat="47.24138" lon="-2.30071">
        <ele>95</ele>
        <time>2019-09-08T07:36:26Z</time>
      </trkpt>
      <trkpt lat="47.24142" lon="-2.30066">
        <ele>91</ele>
        <time>2019-09-08T07:36:28Z</time>
      </trkpt>
      <trkpt lat="47.2414" lon="-2.30055">
        <ele>91</ele>
        <time>2019-09-08T07:36:35Z</time>
      </trkpt>
      <trkpt lat="47.24137" lon="-2.30049">
        <ele>96</ele>
        <time>2019-09-08T07:36:37Z</time>
      </trkpt>
      <trkpt lat="47.24135" lon="-2.30041">
        <ele>100</ele>
        <time>2019-09-08T07:36:39Z</time>
      </trkpt>
      <trkpt lat="47.24139" lon="-2.30033">
        <ele>103</ele>
        <time>2019-09-08T07:36:43Z</time>
      </trkpt>
      <trkpt lat="47.24143" lon="-2.30028">
        <ele>105</ele>
        <time>2019-09-08T07:36:47Z</time>
      </trkpt>
      <trkpt lat="47.2415" lon="-2.30028">
        <ele>109</ele>
        <time>2019-09-08T07:36:51Z</time>
      </trkpt>
      <trkpt lat="47.24155" lon="-2.30026">
        <ele>109</ele>
        <time>2019-09-08T07:36:54Z</time>
      </trkpt>
      <trkpt lat="47.24158" lon="-2.30018">
        <ele>106</ele>
        <time>2019-09-08T07:36:57Z</time>
      </trkpt>
      <trkpt lat="47.2416" lon="-2.30009">
        <ele>104</ele>
        <time>2019-09-08T07:36:59Z</time>
      </trkpt>
      <trkpt lat="47.2416" lon="-2.29997">
        <ele>104</ele>
        <time>2019-09-08T07:37:02Z</time>
      </trkpt>
      <trkpt lat="47.24161" lon="-2.29989">
        <ele>102</ele>
        <time>2019-09-08T07:37:05Z</time>
      </trkpt>
      <trkpt lat="47.24152" lon="-2.29977">
        <ele>102</ele>
        <time>2019-09-08T07:37:10Z</time>
      </trkpt>
      <trkpt lat="47.24152" lon="-2.29967">
        <ele>102</ele>
        <time>2019-09-08T07:37:12Z</time>
      </trkpt>
      <trkpt lat="47.24153" lon="-2.29958">
        <ele>101</ele>
        <time>2019-09-08T07:37:14Z</time>
      </trkpt>
      <trkpt lat="47.24155" lon="-2.29945">
        <ele>102</ele>
        <time>2019-09-08T07:37:17Z</time>
      </trkpt>
      <trkpt lat="47.2416" lon="-2.29935">
        <ele>102</ele>
        <time>2019-09-08T07:37:19Z</time>
      </trkpt>
      <trkpt lat="47.24163" lon="-2.29926">
        <ele>101</ele>
        <time>2019-09-08T07:37:21Z</time>
      </trkpt>
      <trkpt lat="47.24167" lon="-2.29917">
        <ele>101</ele>
        <time>2019-09-08T07:37:24Z</time>
      </trkpt>
      <trkpt lat="47.24169" lon="-2.2991">
        <ele>100</ele>
        <time>2019-09-08T07:37:27Z</time>
      </trkpt>
      <trkpt lat="47.2417" lon="-2.29906">
        <ele>101</ele>
        <time>2019-09-08T07:37:28Z</time>
      </trkpt>
      <trkpt lat="47.24171" lon="-2.29899">
        <ele>101</ele>
        <time>2019-09-08T07:37:30Z</time>
      </trkpt>
      <trkpt lat="47.24169" lon="-2.2989">
        <ele>102</ele>
        <time>2019-09-08T07:37:33Z</time>
      </trkpt>
      <trkpt lat="47.24168" lon="-2.29883">
        <ele>101</ele>
        <time>2019-09-08T07:37:35Z</time>
      </trkpt>
      <trkpt lat="47.2416" lon="-2.29875">
        <ele>100</ele>
        <time>2019-09-08T07:37:38Z</time>
      </trkpt>
      <trkpt lat="47.24158" lon="-2.29864">
        <ele>101</ele>
        <time>2019-09-08T07:37:42Z</time>
      </trkpt>
      <trkpt lat="47.24155" lon="-2.29849">
        <ele>102</ele>
        <time>2019-09-08T07:37:45Z</time>
      </trkpt>
      <trkpt lat="47.24149" lon="-2.29844">
        <ele>103</ele>
        <time>2019-09-08T07:37:47Z</time>
      </trkpt>
      <trkpt lat="47.24141" lon="-2.29841">
        <ele>102</ele>
        <time>2019-09-08T07:37:49Z</time>
      </trkpt>
      <trkpt lat="47.24135" lon="-2.29841">
        <ele>102</ele>
        <time>2019-09-08T07:37:50Z</time>
      </trkpt>
      <trkpt lat="47.24125" lon="-2.29844">
        <ele>102</ele>
        <time>2019-09-08T07:37:52Z</time>
      </trkpt>
      <trkpt lat="47.24121" lon="-2.29846">
        <ele>102</ele>
        <time>2019-09-08T07:37:53Z</time>
      </trkpt>
      <trkpt lat="47.24112" lon="-2.29847">
        <ele>103</ele>
        <time>2019-09-08T07:37:55Z</time>
      </trkpt>
      <trkpt lat="47.24109" lon="-2.29847">
        <ele>103</ele>
        <time>2019-09-08T07:37:56Z</time>
      </trkpt>
      <trkpt lat="47.241" lon="-2.29846">
        <ele>103</ele>
        <time>2019-09-08T07:37:58Z</time>
      </trkpt>
      <trkpt lat="47.24094" lon="-2.29843">
        <ele>103</ele>
        <time>2019-09-08T07:38:00Z</time>
      </trkpt>
      <trkpt lat="47.24089" lon="-2.29835">
        <ele>103</ele>
        <time>2019-09-08T07:38:03Z</time>
      </trkpt>
      <trkpt lat="47.24085" lon="-2.29822">
        <ele>104</ele>
        <time>2019-09-08T07:38:06Z</time>
      </trkpt>
      <trkpt lat="47.24082" lon="-2.29806">
        <ele>102</ele>
        <time>2019-09-08T07:38:09Z</time>
      </trkpt>
      <trkpt lat="47.24081" lon="-2.298">
        <ele>102</ele>
        <time>2019-09-08T07:38:10Z</time>
      </trkpt>
      <trkpt lat="47.24079" lon="-2.29796">
        <ele>102</ele>
        <time>2019-09-08T07:38:11Z</time>
      </trkpt>
      <trkpt lat="47.24077" lon="-2.29776">
        <ele>101</ele>
        <time>2019-09-08T07:38:14Z</time>
      </trkpt>
      <trkpt lat="47.24076" lon="-2.29763">
        <ele>102</ele>
        <time>2019-09-08T07:38:16Z</time>
      </trkpt>
      <trkpt lat="47.24076" lon="-2.29756">
        <ele>102</ele>
        <time>2019-09-08T07:38:17Z</time>
      </trkpt>
      <trkpt lat="47.24076" lon="-2.29749">
        <ele>103</ele>
        <time>2019-09-08T07:38:18Z</time>
      </trkpt>
      <trkpt lat="47.24074" lon="-2.29735">
        <ele>102</ele>
        <time>2019-09-08T07:38:20Z</time>
      </trkpt>
      <trkpt lat="47.24071" lon="-2.29727">
        <ele>101</ele>
        <time>2019-09-08T07:38:21Z</time>
      </trkpt>
      <trkpt lat="47.2407" lon="-2.2972">
        <ele>101</ele>
        <time>2019-09-08T07:38:22Z</time>
      </trkpt>
      <trkpt lat="47.24067" lon="-2.29713">
        <ele>100</ele>
        <time>2019-09-08T07:38:23Z</time>
      </trkpt>
      <trkpt lat="47.24065" lon="-2.29705">
        <ele>100</ele>
        <time>2019-09-08T07:38:24Z</time>
      </trkpt>
      <trkpt lat="47.24062" lon="-2.29697">
        <ele>100</ele>
        <time>2019-09-08T07:38:25Z</time>
      </trkpt>
      <trkpt lat="47.2406" lon="-2.2969">
        <ele>100</ele>
        <time>2019-09-08T07:38:26Z</time>
      </trkpt>
      <trkpt lat="47.24058" lon="-2.29684">
        <ele>100</ele>
        <time>2019-09-08T07:38:27Z</time>
      </trkpt>
      <trkpt lat="47.24057" lon="-2.29677">
        <ele>100</ele>
        <time>2019-09-08T07:38:28Z</time>
      </trkpt>
      <trkpt lat="47.24056" lon="-2.29669">
        <ele>100</ele>
        <time>2019-09-08T07:38:29Z</time>
      </trkpt>
      <trkpt lat="47.24054" lon="-2.29662">
        <ele>100</ele>
        <time>2019-09-08T07:38:30Z</time>
      </trkpt>
      <trkpt lat="47.24052" lon="-2.29648">
        <ele>100</ele>
        <time>2019-09-08T07:38:32Z</time>
      </trkpt>
      <trkpt lat="47.24053" lon="-2.29637">
        <ele>100</ele>
        <time>2019-09-08T07:38:34Z</time>
      </trkpt>
      <trkpt lat="47.24072" lon="-2.29616">
        <ele>99</ele>
        <time>2019-09-08T07:38:39Z</time>
      </trkpt>
      <trkpt lat="47.24076" lon="-2.29612">
        <ele>99</ele>
        <time>2019-09-08T07:38:40Z</time>
      </trkpt>
      <trkpt lat="47.2408" lon="-2.29609">
        <ele>98</ele>
        <time>2019-09-08T07:38:41Z</time>
      </trkpt>
      <trkpt lat="47.24085" lon="-2.29606">
        <ele>98</ele>
        <time>2019-09-08T07:38:42Z</time>
      </trkpt>
      <trkpt lat="47.2409" lon="-2.29603">
        <ele>98</ele>
        <time>2019-09-08T07:38:43Z</time>
      </trkpt>
      <trkpt lat="47.24099" lon="-2.29596">
        <ele>98</ele>
        <time>2019-09-08T07:38:45Z</time>
      </trkpt>
      <trkpt lat="47.24103" lon="-2.29592">
        <ele>98</ele>
        <time>2019-09-08T07:38:46Z</time>
      </trkpt>
      <trkpt lat="47.24107" lon="-2.29587">
        <ele>97</ele>
        <time>2019-09-08T07:38:47Z</time>
      </trkpt>
      <trkpt lat="47.24109" lon="-2.29581">
        <ele>97</ele>
        <time>2019-09-08T07:38:48Z</time>
      </trkpt>
      <trkpt lat="47.2411" lon="-2.29565">
        <ele>94</ele>
        <time>2019-09-08T07:38:50Z</time>
      </trkpt>
      <trkpt lat="47.24109" lon="-2.29556">
        <ele>94</ele>
        <time>2019-09-08T07:38:51Z</time>
      </trkpt>
      <trkpt lat="47.24108" lon="-2.29548">
        <ele>93</ele>
        <time>2019-09-08T07:38:52Z</time>
      </trkpt>
      <trkpt lat="47.24107" lon="-2.29539">
        <ele>93</ele>
        <time>2019-09-08T07:38:53Z</time>
      </trkpt>
      <trkpt lat="47.24106" lon="-2.29532">
        <ele>92</ele>
        <time>2019-09-08T07:38:54Z</time>
      </trkpt>
      <trkpt lat="47.24104" lon="-2.29524">
        <ele>91</ele>
        <time>2019-09-08T07:38:55Z</time>
      </trkpt>
      <trkpt lat="47.24103" lon="-2.29516">
        <ele>90</ele>
        <time>2019-09-08T07:38:56Z</time>
      </trkpt>
      <trkpt lat="47.24101" lon="-2.29508">
        <ele>90</ele>
        <time>2019-09-08T07:38:57Z</time>
      </trkpt>
      <trkpt lat="47.24099" lon="-2.29492">
        <ele>89</ele>
        <time>2019-09-08T07:38:58Z</time>
      </trkpt>
      <trkpt lat="47.24104" lon="-2.2948">
        <ele>88</ele>
        <time>2019-09-08T07:39:01Z</time>
      </trkpt>
      <trkpt lat="47.24109" lon="-2.29475">
        <ele>88</ele>
        <time>2019-09-08T07:39:02Z</time>
      </trkpt>
      <trkpt lat="47.24122" lon="-2.29465">
        <ele>87</ele>
        <time>2019-09-08T07:39:05Z</time>
      </trkpt>
      <trkpt lat="47.24128" lon="-2.29462">
        <ele>87</ele>
        <time>2019-09-08T07:39:06Z</time>
      </trkpt>
      <trkpt lat="47.24137" lon="-2.29458">
        <ele>87</ele>
        <time>2019-09-08T07:39:07Z</time>
      </trkpt>
      <trkpt lat="47.24147" lon="-2.29452">
        <ele>86</ele>
        <time>2019-09-08T07:39:09Z</time>
      </trkpt>
      <trkpt lat="47.24153" lon="-2.2945">
        <ele>86</ele>
        <time>2019-09-08T07:39:10Z</time>
      </trkpt>
      <trkpt lat="47.24159" lon="-2.29448">
        <ele>86</ele>
        <time>2019-09-08T07:39:11Z</time>
      </trkpt>
      <trkpt lat="47.24166" lon="-2.29445">
        <ele>86</ele>
        <time>2019-09-08T07:39:12Z</time>
      </trkpt>
      <trkpt lat="47.24173" lon="-2.29443">
        <ele>86</ele>
        <time>2019-09-08T07:39:13Z</time>
      </trkpt>
      <trkpt lat="47.24179" lon="-2.29443">
        <ele>86</ele>
        <time>2019-09-08T07:39:14Z</time>
      </trkpt>
      <trkpt lat="47.24185" lon="-2.29442">
        <ele>86</ele>
        <time>2019-09-08T07:39:15Z</time>
      </trkpt>
      <trkpt lat="47.24193" lon="-2.29443">
        <ele>86</ele>
        <time>2019-09-08T07:39:16Z</time>
      </trkpt>
      <trkpt lat="47.24199" lon="-2.29446">
        <ele>86</ele>
        <time>2019-09-08T07:39:17Z</time>
      </trkpt>
      <trkpt lat="47.24204" lon="-2.29448">
        <ele>85</ele>
        <time>2019-09-08T07:39:18Z</time>
      </trkpt>
      <trkpt lat="47.24209" lon="-2.29452">
        <ele>85</ele>
        <time>2019-09-08T07:39:19Z</time>
      </trkpt>
      <trkpt lat="47.24215" lon="-2.29455">
        <ele>85</ele>
        <time>2019-09-08T07:39:20Z</time>
      </trkpt>
      <trkpt lat="47.24219" lon="-2.29458">
        <ele>85</ele>
        <time>2019-09-08T07:39:22Z</time>
      </trkpt>
      <trkpt lat="47.24224" lon="-2.2946">
        <ele>85</ele>
        <time>2019-09-08T07:39:23Z</time>
      </trkpt>
      <trkpt lat="47.24233" lon="-2.29465">
        <ele>86</ele>
        <time>2019-09-08T07:39:25Z</time>
      </trkpt>
      <trkpt lat="47.24241" lon="-2.29466">
        <ele>85</ele>
        <time>2019-09-08T07:39:27Z</time>
      </trkpt>
      <trkpt lat="47.24249" lon="-2.29465">
        <ele>84</ele>
        <time>2019-09-08T07:39:29Z</time>
      </trkpt>
      <trkpt lat="47.24257" lon="-2.29461">
        <ele>84</ele>
        <time>2019-09-08T07:39:32Z</time>
      </trkpt>
      <trkpt lat="47.24262" lon="-2.29458">
        <ele>85</ele>
        <time>2019-09-08T07:39:34Z</time>
      </trkpt>
      <trkpt lat="47.24268" lon="-2.29455">
        <ele>85</ele>
        <time>2019-09-08T07:39:36Z</time>
      </trkpt>
      <trkpt lat="47.24271" lon="-2.29453">
        <ele>85</ele>
        <time>2019-09-08T07:39:37Z</time>
      </trkpt>
      <trkpt lat="47.24274" lon="-2.29451">
        <ele>85</ele>
        <time>2019-09-08T07:39:38Z</time>
      </trkpt>
      <trkpt lat="47.24277" lon="-2.29449">
        <ele>85</ele>
        <time>2019-09-08T07:39:39Z</time>
      </trkpt>
      <trkpt lat="47.24279" lon="-2.29447">
        <ele>85</ele>
        <time>2019-09-08T07:39:40Z</time>
      </trkpt>
      <trkpt lat="47.24285" lon="-2.29443">
        <ele>85</ele>
        <time>2019-09-08T07:39:42Z</time>
      </trkpt>
      <trkpt lat="47.24293" lon="-2.29439">
        <ele>85</ele>
        <time>2019-09-08T07:39:45Z</time>
      </trkpt>
      <trkpt lat="47.2431" lon="-2.29435">
        <ele>85</ele>
        <time>2019-09-08T07:39:49Z</time>
      </trkpt>
      <trkpt lat="47.24321" lon="-2.29444">
        <ele>85</ele>
        <time>2019-09-08T07:39:52Z</time>
      </trkpt>
      <trkpt lat="47.24326" lon="-2.29448">
        <ele>86</ele>
        <time>2019-09-08T07:39:53Z</time>
      </trkpt>
      <trkpt lat="47.2433" lon="-2.29451">
        <ele>86</ele>
        <time>2019-09-08T07:39:54Z</time>
      </trkpt>
      <trkpt lat="47.24335" lon="-2.29455">
        <ele>86</ele>
        <time>2019-09-08T07:39:55Z</time>
      </trkpt>
      <trkpt lat="47.24339" lon="-2.29459">
        <ele>86</ele>
        <time>2019-09-08T07:39:56Z</time>
      </trkpt>
      <trkpt lat="47.24345" lon="-2.29463">
        <ele>86</ele>
        <time>2019-09-08T07:39:57Z</time>
      </trkpt>
      <trkpt lat="47.2436" lon="-2.29466">
        <ele>86</ele>
        <time>2019-09-08T07:40:00Z</time>
      </trkpt>
      <trkpt lat="47.24368" lon="-2.29461">
        <ele>86</ele>
        <time>2019-09-08T07:40:02Z</time>
      </trkpt>
      <trkpt lat="47.24373" lon="-2.29457">
        <ele>85</ele>
        <time>2019-09-08T07:40:03Z</time>
      </trkpt>
      <trkpt lat="47.24378" lon="-2.29453">
        <ele>85</ele>
        <time>2019-09-08T07:40:04Z</time>
      </trkpt>
      <trkpt lat="47.24383" lon="-2.29449">
        <ele>85</ele>
        <time>2019-09-08T07:40:05Z</time>
      </trkpt>
      <trkpt lat="47.24388" lon="-2.29445">
        <ele>84</ele>
        <time>2019-09-08T07:40:06Z</time>
      </trkpt>
      <trkpt lat="47.24392" lon="-2.29442">
        <ele>83</ele>
        <time>2019-09-08T07:40:07Z</time>
      </trkpt>
      <trkpt lat="47.24403" lon="-2.29437">
        <ele>83</ele>
        <time>2019-09-08T07:40:09Z</time>
      </trkpt>
      <trkpt lat="47.24409" lon="-2.29435">
        <ele>83</ele>
        <time>2019-09-08T07:40:10Z</time>
      </trkpt>
      <trkpt lat="47.24416" lon="-2.29434">
        <ele>83</ele>
        <time>2019-09-08T07:40:11Z</time>
      </trkpt>
      <trkpt lat="47.24432" lon="-2.29432">
        <ele>84</ele>
        <time>2019-09-08T07:40:14Z</time>
      </trkpt>
      <trkpt lat="47.24437" lon="-2.29432">
        <ele>84</ele>
        <time>2019-09-08T07:40:15Z</time>
      </trkpt>
      <trkpt lat="47.24447" lon="-2.29431">
        <ele>84</ele>
        <time>2019-09-08T07:40:17Z</time>
      </trkpt>
      <trkpt lat="47.24452" lon="-2.29431">
        <ele>84</ele>
        <time>2019-09-08T07:40:18Z</time>
      </trkpt>
      <trkpt lat="47.24457" lon="-2.2943">
        <ele>83</ele>
        <time>2019-09-08T07:40:19Z</time>
      </trkpt>
      <trkpt lat="47.24462" lon="-2.2943">
        <ele>83</ele>
        <time>2019-09-08T07:40:20Z</time>
      </trkpt>
      <trkpt lat="47.24471" lon="-2.29429">
        <ele>83</ele>
        <time>2019-09-08T07:40:22Z</time>
      </trkpt>
      <trkpt lat="47.24476" lon="-2.29429">
        <ele>83</ele>
        <time>2019-09-08T07:40:23Z</time>
      </trkpt>
      <trkpt lat="47.2448" lon="-2.29428">
        <ele>84</ele>
        <time>2019-09-08T07:40:24Z</time>
      </trkpt>
      <trkpt lat="47.24485" lon="-2.29426">
        <ele>84</ele>
        <time>2019-09-08T07:40:25Z</time>
      </trkpt>
      <trkpt lat="47.24499" lon="-2.29422">
        <ele>84</ele>
        <time>2019-09-08T07:40:28Z</time>
      </trkpt>
      <trkpt lat="47.24511" lon="-2.29419">
        <ele>85</ele>
        <time>2019-09-08T07:40:31Z</time>
      </trkpt>
      <trkpt lat="47.24517" lon="-2.29411">
        <ele>86</ele>
        <time>2019-09-08T07:40:33Z</time>
      </trkpt>
      <trkpt lat="47.24519" lon="-2.29399">
        <ele>85</ele>
        <time>2019-09-08T07:40:35Z</time>
      </trkpt>
      <trkpt lat="47.24518" lon="-2.29386">
        <ele>84</ele>
        <time>2019-09-08T07:40:37Z</time>
      </trkpt>
      <trkpt lat="47.24517" lon="-2.29379">
        <ele>84</ele>
        <time>2019-09-08T07:40:38Z</time>
      </trkpt>
      <trkpt lat="47.24515" lon="-2.29367">
        <ele>84</ele>
        <time>2019-09-08T07:40:40Z</time>
      </trkpt>
      <trkpt lat="47.24513" lon="-2.29361">
        <ele>83</ele>
        <time>2019-09-08T07:40:41Z</time>
      </trkpt>
      <trkpt lat="47.24512" lon="-2.29354">
        <ele>83</ele>
        <time>2019-09-08T07:40:42Z</time>
      </trkpt>
      <trkpt lat="47.24512" lon="-2.29341">
        <ele>83</ele>
        <time>2019-09-08T07:40:43Z</time>
      </trkpt>
      <trkpt lat="47.24514" lon="-2.29328">
        <ele>83</ele>
        <time>2019-09-08T07:40:46Z</time>
      </trkpt>
      <trkpt lat="47.24514" lon="-2.29321">
        <ele>83</ele>
        <time>2019-09-08T07:40:47Z</time>
      </trkpt>
      <trkpt lat="47.24514" lon="-2.29313">
        <ele>83</ele>
        <time>2019-09-08T07:40:48Z</time>
      </trkpt>
      <trkpt lat="47.24513" lon="-2.29306">
        <ele>83</ele>
        <time>2019-09-08T07:40:49Z</time>
      </trkpt>
      <trkpt lat="47.24513" lon="-2.29299">
        <ele>83</ele>
        <time>2019-09-08T07:40:50Z</time>
      </trkpt>
      <trkpt lat="47.24512" lon="-2.29291">
        <ele>82</ele>
        <time>2019-09-08T07:40:51Z</time>
      </trkpt>
      <trkpt lat="47.24512" lon="-2.29284">
        <ele>82</ele>
        <time>2019-09-08T07:40:52Z</time>
      </trkpt>
      <trkpt lat="47.24511" lon="-2.29276">
        <ele>82</ele>
        <time>2019-09-08T07:40:53Z</time>
      </trkpt>
      <trkpt lat="47.24511" lon="-2.29269">
        <ele>82</ele>
        <time>2019-09-08T07:40:54Z</time>
      </trkpt>
      <trkpt lat="47.24511" lon="-2.29262">
        <ele>83</ele>
        <time>2019-09-08T07:40:55Z</time>
      </trkpt>
      <trkpt lat="47.24511" lon="-2.29254">
        <ele>83</ele>
        <time>2019-09-08T07:40:56Z</time>
      </trkpt>
      <trkpt lat="47.24512" lon="-2.29247">
        <ele>83</ele>
        <time>2019-09-08T07:40:57Z</time>
      </trkpt>
      <trkpt lat="47.24512" lon="-2.29239">
        <ele>82</ele>
        <time>2019-09-08T07:40:58Z</time>
      </trkpt>
      <trkpt lat="47.24513" lon="-2.2923">
        <ele>82</ele>
        <time>2019-09-08T07:40:59Z</time>
      </trkpt>
      <trkpt lat="47.24513" lon="-2.29223">
        <ele>82</ele>
        <time>2019-09-08T07:41:00Z</time>
      </trkpt>
      <trkpt lat="47.24514" lon="-2.29216">
        <ele>82</ele>
        <time>2019-09-08T07:41:01Z</time>
      </trkpt>
      <trkpt lat="47.24516" lon="-2.29208">
        <ele>82</ele>
        <time>2019-09-08T07:41:02Z</time>
      </trkpt>
      <trkpt lat="47.24517" lon="-2.29201">
        <ele>82</ele>
        <time>2019-09-08T07:41:03Z</time>
      </trkpt>
      <trkpt lat="47.24523" lon="-2.29179">
        <ele>82</ele>
        <time>2019-09-08T07:41:06Z</time>
      </trkpt>
      <trkpt lat="47.24524" lon="-2.29171">
        <ele>82</ele>
        <time>2019-09-08T07:41:07Z</time>
      </trkpt>
      <trkpt lat="47.24528" lon="-2.29156">
        <ele>82</ele>
        <time>2019-09-08T07:41:09Z</time>
      </trkpt>
      <trkpt lat="47.24538" lon="-2.29119">
        <ele>82</ele>
        <time>2019-09-08T07:41:14Z</time>
      </trkpt>
      <trkpt lat="47.2454" lon="-2.29112">
        <ele>82</ele>
        <time>2019-09-08T07:41:15Z</time>
      </trkpt>
      <trkpt lat="47.24542" lon="-2.29104">
        <ele>82</ele>
        <time>2019-09-08T07:41:16Z</time>
      </trkpt>
      <trkpt lat="47.24543" lon="-2.29096">
        <ele>82</ele>
        <time>2019-09-08T07:41:17Z</time>
      </trkpt>
      <trkpt lat="47.24545" lon="-2.29088">
        <ele>82</ele>
        <time>2019-09-08T07:41:18Z</time>
      </trkpt>
      <trkpt lat="47.24546" lon="-2.29081">
        <ele>82</ele>
        <time>2019-09-08T07:41:19Z</time>
      </trkpt>
      <trkpt lat="47.24547" lon="-2.29074">
        <ele>82</ele>
        <time>2019-09-08T07:41:20Z</time>
      </trkpt>
      <trkpt lat="47.24551" lon="-2.29052">
        <ele>82</ele>
        <time>2019-09-08T07:41:23Z</time>
      </trkpt>
      <trkpt lat="47.24551" lon="-2.29045">
        <ele>81</ele>
        <time>2019-09-08T07:41:24Z</time>
      </trkpt>
      <trkpt lat="47.24552" lon="-2.29037">
        <ele>82</ele>
        <time>2019-09-08T07:41:25Z</time>
      </trkpt>
      <trkpt lat="47.24552" lon="-2.29027">
        <ele>82</ele>
        <time>2019-09-08T07:41:26Z</time>
      </trkpt>
      <trkpt lat="47.24553" lon="-2.29019">
        <ele>81</ele>
        <time>2019-09-08T07:41:27Z</time>
      </trkpt>
      <trkpt lat="47.24552" lon="-2.2901">
        <ele>81</ele>
        <time>2019-09-08T07:41:28Z</time>
      </trkpt>
      <trkpt lat="47.24547" lon="-2.28986">
        <ele>80</ele>
        <time>2019-09-08T07:41:31Z</time>
      </trkpt>
      <trkpt lat="47.24545" lon="-2.28978">
        <ele>80</ele>
        <time>2019-09-08T07:41:32Z</time>
      </trkpt>
      <trkpt lat="47.24544" lon="-2.28969">
        <ele>80</ele>
        <time>2019-09-08T07:41:33Z</time>
      </trkpt>
      <trkpt lat="47.24541" lon="-2.28961">
        <ele>80</ele>
        <time>2019-09-08T07:41:34Z</time>
      </trkpt>
      <trkpt lat="47.24539" lon="-2.28952">
        <ele>80</ele>
        <time>2019-09-08T07:41:35Z</time>
      </trkpt>
      <trkpt lat="47.24537" lon="-2.28943">
        <ele>80</ele>
        <time>2019-09-08T07:41:36Z</time>
      </trkpt>
      <trkpt lat="47.24535" lon="-2.28935">
        <ele>80</ele>
        <time>2019-09-08T07:41:37Z</time>
      </trkpt>
      <trkpt lat="47.24532" lon="-2.28927">
        <ele>80</ele>
        <time>2019-09-08T07:41:38Z</time>
      </trkpt>
      <trkpt lat="47.24524" lon="-2.28902">
        <ele>79</ele>
        <time>2019-09-08T07:41:40Z</time>
      </trkpt>
      <trkpt lat="47.24521" lon="-2.28893">
        <ele>79</ele>
        <time>2019-09-08T07:41:42Z</time>
      </trkpt>
      <trkpt lat="47.24522" lon="-2.28875">
        <ele>79</ele>
        <time>2019-09-08T07:41:44Z</time>
      </trkpt>
      <trkpt lat="47.24524" lon="-2.28868">
        <ele>79</ele>
        <time>2019-09-08T07:41:45Z</time>
      </trkpt>
      <trkpt lat="47.24529" lon="-2.28861">
        <ele>79</ele>
        <time>2019-09-08T07:41:46Z</time>
      </trkpt>
      <trkpt lat="47.24533" lon="-2.28856">
        <ele>79</ele>
        <time>2019-09-08T07:41:47Z</time>
      </trkpt>
      <trkpt lat="47.24538" lon="-2.28851">
        <ele>80</ele>
        <time>2019-09-08T07:41:48Z</time>
      </trkpt>
      <trkpt lat="47.24543" lon="-2.28846">
        <ele>80</ele>
        <time>2019-09-08T07:41:49Z</time>
      </trkpt>
      <trkpt lat="47.24555" lon="-2.28834">
        <ele>80</ele>
        <time>2019-09-08T07:41:52Z</time>
      </trkpt>
      <trkpt lat="47.24558" lon="-2.28829">
        <ele>80</ele>
        <time>2019-09-08T07:41:53Z</time>
      </trkpt>
      <trkpt lat="47.24563" lon="-2.28821">
        <ele>79</ele>
        <time>2019-09-08T07:41:55Z</time>
      </trkpt>
      <trkpt lat="47.24579" lon="-2.28808">
        <ele>80</ele>
        <time>2019-09-08T07:41:59Z</time>
      </trkpt>
      <trkpt lat="47.24584" lon="-2.28805">
        <ele>80</ele>
        <time>2019-09-08T07:42:00Z</time>
      </trkpt>
      <trkpt lat="47.24592" lon="-2.288">
        <ele>80</ele>
        <time>2019-09-08T07:42:02Z</time>
      </trkpt>
      <trkpt lat="47.24596" lon="-2.28796">
        <ele>79</ele>
        <time>2019-09-08T07:42:03Z</time>
      </trkpt>
      <trkpt lat="47.24605" lon="-2.28788">
        <ele>80</ele>
        <time>2019-09-08T07:42:05Z</time>
      </trkpt>
      <trkpt lat="47.24609" lon="-2.28784">
        <ele>80</ele>
        <time>2019-09-08T07:42:06Z</time>
      </trkpt>
      <trkpt lat="47.24621" lon="-2.2877">
        <ele>79</ele>
        <time>2019-09-08T07:42:09Z</time>
      </trkpt>
      <trkpt lat="47.24625" lon="-2.28765">
        <ele>80</ele>
        <time>2019-09-08T07:42:10Z</time>
      </trkpt>
      <trkpt lat="47.24629" lon="-2.28759">
        <ele>80</ele>
        <time>2019-09-08T07:42:11Z</time>
      </trkpt>
      <trkpt lat="47.24635" lon="-2.28748">
        <ele>80</ele>
        <time>2019-09-08T07:42:13Z</time>
      </trkpt>
      <trkpt lat="47.24638" lon="-2.28743">
        <ele>80</ele>
        <time>2019-09-08T07:42:14Z</time>
      </trkpt>
      <trkpt lat="47.24642" lon="-2.28737">
        <ele>80</ele>
        <time>2019-09-08T07:42:15Z</time>
      </trkpt>
      <trkpt lat="47.24645" lon="-2.28732">
        <ele>80</ele>
        <time>2019-09-08T07:42:16Z</time>
      </trkpt>
      <trkpt lat="47.24649" lon="-2.28726">
        <ele>80</ele>
        <time>2019-09-08T07:42:17Z</time>
      </trkpt>
      <trkpt lat="47.24662" lon="-2.28712">
        <ele>80</ele>
        <time>2019-09-08T07:42:20Z</time>
      </trkpt>
      <trkpt lat="47.24666" lon="-2.28707">
        <ele>80</ele>
        <time>2019-09-08T07:42:21Z</time>
      </trkpt>
      <trkpt lat="47.2467" lon="-2.28702">
        <ele>80</ele>
        <time>2019-09-08T07:42:22Z</time>
      </trkpt>
      <trkpt lat="47.24679" lon="-2.28691">
        <ele>81</ele>
        <time>2019-09-08T07:42:24Z</time>
      </trkpt>
      <trkpt lat="47.24682" lon="-2.28686">
        <ele>80</ele>
        <time>2019-09-08T07:42:25Z</time>
      </trkpt>
      <trkpt lat="47.24687" lon="-2.2868">
        <ele>80</ele>
        <time>2019-09-08T07:42:26Z</time>
      </trkpt>
      <trkpt lat="47.24691" lon="-2.28675">
        <ele>81</ele>
        <time>2019-09-08T07:42:27Z</time>
      </trkpt>
      <trkpt lat="47.24694" lon="-2.28669">
        <ele>81</ele>
        <time>2019-09-08T07:42:28Z</time>
      </trkpt>
      <trkpt lat="47.24708" lon="-2.28653">
        <ele>81</ele>
        <time>2019-09-08T07:42:31Z</time>
      </trkpt>
      <trkpt lat="47.24713" lon="-2.28649">
        <ele>81</ele>
        <time>2019-09-08T07:42:32Z</time>
      </trkpt>
      <trkpt lat="47.24718" lon="-2.28644">
        <ele>81</ele>
        <time>2019-09-08T07:42:33Z</time>
      </trkpt>
      <trkpt lat="47.24732" lon="-2.28627">
        <ele>81</ele>
        <time>2019-09-08T07:42:36Z</time>
      </trkpt>
      <trkpt lat="47.24739" lon="-2.28617">
        <ele>81</ele>
        <time>2019-09-08T07:42:38Z</time>
      </trkpt>
      <trkpt lat="47.24741" lon="-2.2861">
        <ele>82</ele>
        <time>2019-09-08T07:42:39Z</time>
      </trkpt>
      <trkpt lat="47.24742" lon="-2.28603">
        <ele>82</ele>
        <time>2019-09-08T07:42:40Z</time>
      </trkpt>
      <trkpt lat="47.24744" lon="-2.28595">
        <ele>82</ele>
        <time>2019-09-08T07:42:41Z</time>
      </trkpt>
      <trkpt lat="47.24746" lon="-2.28588">
        <ele>82</ele>
        <time>2019-09-08T07:42:42Z</time>
      </trkpt>
      <trkpt lat="47.24748" lon="-2.2858">
        <ele>82</ele>
        <time>2019-09-08T07:42:43Z</time>
      </trkpt>
      <trkpt lat="47.2475" lon="-2.28573">
        <ele>82</ele>
        <time>2019-09-08T07:42:44Z</time>
      </trkpt>
      <trkpt lat="47.24754" lon="-2.28566">
        <ele>82</ele>
        <time>2019-09-08T07:42:45Z</time>
      </trkpt>
      <trkpt lat="47.24767" lon="-2.28551">
        <ele>83</ele>
        <time>2019-09-08T07:42:48Z</time>
      </trkpt>
      <trkpt lat="47.24772" lon="-2.28546">
        <ele>83</ele>
        <time>2019-09-08T07:42:49Z</time>
      </trkpt>
      <trkpt lat="47.24791" lon="-2.28528">
        <ele>83</ele>
        <time>2019-09-08T07:42:53Z</time>
      </trkpt>
      <trkpt lat="47.24796" lon="-2.28523">
        <ele>82</ele>
        <time>2019-09-08T07:42:54Z</time>
      </trkpt>
      <trkpt lat="47.24801" lon="-2.28518">
        <ele>82</ele>
        <time>2019-09-08T07:42:55Z</time>
      </trkpt>
      <trkpt lat="47.24817" lon="-2.28505">
        <ele>81</ele>
        <time>2019-09-08T07:42:58Z</time>
      </trkpt>
      <trkpt lat="47.24823" lon="-2.28501">
        <ele>82</ele>
        <time>2019-09-08T07:42:59Z</time>
      </trkpt>
      <trkpt lat="47.24828" lon="-2.28497">
        <ele>82</ele>
        <time>2019-09-08T07:43:00Z</time>
      </trkpt>
      <trkpt lat="47.24839" lon="-2.28489">
        <ele>82</ele>
        <time>2019-09-08T07:43:02Z</time>
      </trkpt>
      <trkpt lat="47.24849" lon="-2.28482">
        <ele>82</ele>
        <time>2019-09-08T07:43:04Z</time>
      </trkpt>
      <trkpt lat="47.2486" lon="-2.28472">
        <ele>82</ele>
        <time>2019-09-08T07:43:07Z</time>
      </trkpt>
      <trkpt lat="47.2487" lon="-2.2846">
        <ele>82</ele>
        <time>2019-09-08T07:43:08Z</time>
      </trkpt>
      <trkpt lat="47.24884" lon="-2.28442">
        <ele>82</ele>
        <time>2019-09-08T07:43:11Z</time>
      </trkpt>
      <trkpt lat="47.2489" lon="-2.28437">
        <ele>82</ele>
        <time>2019-09-08T07:43:12Z</time>
      </trkpt>
      <trkpt lat="47.24916" lon="-2.28422">
        <ele>83</ele>
        <time>2019-09-08T07:43:16Z</time>
      </trkpt>
      <trkpt lat="47.24922" lon="-2.2842">
        <ele>82</ele>
        <time>2019-09-08T07:43:17Z</time>
      </trkpt>
      <trkpt lat="47.24935" lon="-2.28415">
        <ele>82</ele>
        <time>2019-09-08T07:43:19Z</time>
      </trkpt>
      <trkpt lat="47.24961" lon="-2.28409">
        <ele>82</ele>
        <time>2019-09-08T07:43:23Z</time>
      </trkpt>
      <trkpt lat="47.24973" lon="-2.28401">
        <ele>83</ele>
        <time>2019-09-08T07:43:25Z</time>
      </trkpt>
      <trkpt lat="47.24978" lon="-2.28395">
        <ele>83</ele>
        <time>2019-09-08T07:43:26Z</time>
      </trkpt>
      <trkpt lat="47.24984" lon="-2.28389">
        <ele>83</ele>
        <time>2019-09-08T07:43:27Z</time>
      </trkpt>
      <trkpt lat="47.24989" lon="-2.28374">
        <ele>82</ele>
        <time>2019-09-08T07:43:29Z</time>
      </trkpt>
      <trkpt lat="47.24995" lon="-2.28358">
        <ele>82</ele>
        <time>2019-09-08T07:43:31Z</time>
      </trkpt>
      <trkpt lat="47.24999" lon="-2.28352">
        <ele>82</ele>
        <time>2019-09-08T07:43:32Z</time>
      </trkpt>
      <trkpt lat="47.25004" lon="-2.28346">
        <ele>82</ele>
        <time>2019-09-08T07:43:33Z</time>
      </trkpt>
      <trkpt lat="47.25009" lon="-2.28341">
        <ele>82</ele>
        <time>2019-09-08T07:43:34Z</time>
      </trkpt>
      <trkpt lat="47.25014" lon="-2.28335">
        <ele>82</ele>
        <time>2019-09-08T07:43:35Z</time>
      </trkpt>
      <trkpt lat="47.25018" lon="-2.28328">
        <ele>82</ele>
        <time>2019-09-08T07:43:36Z</time>
      </trkpt>
      <trkpt lat="47.25025" lon="-2.28313">
        <ele>82</ele>
        <time>2019-09-08T07:43:39Z</time>
      </trkpt>
      <trkpt lat="47.25027" lon="-2.28299">
        <ele>81</ele>
        <time>2019-09-08T07:43:41Z</time>
      </trkpt>
      <trkpt lat="47.25027" lon="-2.28292">
        <ele>81</ele>
        <time>2019-09-08T07:43:42Z</time>
      </trkpt>
      <trkpt lat="47.25028" lon="-2.28284">
        <ele>82</ele>
        <time>2019-09-08T07:43:43Z</time>
      </trkpt>
      <trkpt lat="47.2503" lon="-2.28276">
        <ele>81</ele>
        <time>2019-09-08T07:43:44Z</time>
      </trkpt>
      <trkpt lat="47.25032" lon="-2.28267">
        <ele>81</ele>
        <time>2019-09-08T07:43:45Z</time>
      </trkpt>
      <trkpt lat="47.25034" lon="-2.28259">
        <ele>81</ele>
        <time>2019-09-08T07:43:46Z</time>
      </trkpt>
      <trkpt lat="47.25037" lon="-2.28243">
        <ele>80</ele>
        <time>2019-09-08T07:43:48Z</time>
      </trkpt>
      <trkpt lat="47.25038" lon="-2.28235">
        <ele>81</ele>
        <time>2019-09-08T07:43:49Z</time>
      </trkpt>
      <trkpt lat="47.2504" lon="-2.28228">
        <ele>80</ele>
        <time>2019-09-08T07:43:50Z</time>
      </trkpt>
      <trkpt lat="47.25041" lon="-2.2822">
        <ele>79</ele>
        <time>2019-09-08T07:43:51Z</time>
      </trkpt>
      <trkpt lat="47.25044" lon="-2.28212">
        <ele>79</ele>
        <time>2019-09-08T07:43:52Z</time>
      </trkpt>
      <trkpt lat="47.25046" lon="-2.28204">
        <ele>79</ele>
        <time>2019-09-08T07:43:53Z</time>
      </trkpt>
      <trkpt lat="47.25048" lon="-2.28195">
        <ele>79</ele>
        <time>2019-09-08T07:43:54Z</time>
      </trkpt>
      <trkpt lat="47.25055" lon="-2.28172">
        <ele>79</ele>
        <time>2019-09-08T07:43:57Z</time>
      </trkpt>
      <trkpt lat="47.25061" lon="-2.28153">
        <ele>79</ele>
        <time>2019-09-08T07:44:00Z</time>
      </trkpt>
      <trkpt lat="47.25063" lon="-2.28146">
        <ele>79</ele>
        <time>2019-09-08T07:44:01Z</time>
      </trkpt>
      <trkpt lat="47.25067" lon="-2.28133">
        <ele>80</ele>
        <time>2019-09-08T07:44:03Z</time>
      </trkpt>
      <trkpt lat="47.25071" lon="-2.28117">
        <ele>80</ele>
        <time>2019-09-08T07:44:06Z</time>
      </trkpt>
      <trkpt lat="47.25072" lon="-2.28104">
        <ele>80</ele>
        <time>2019-09-08T07:44:08Z</time>
      </trkpt>
      <trkpt lat="47.25073" lon="-2.28097">
        <ele>80</ele>
        <time>2019-09-08T07:44:10Z</time>
      </trkpt>
      <trkpt lat="47.25076" lon="-2.28092">
        <ele>80</ele>
        <time>2019-09-08T07:44:11Z</time>
      </trkpt>
      <trkpt lat="47.25079" lon="-2.28084">
        <ele>80</ele>
        <time>2019-09-08T07:44:12Z</time>
      </trkpt>
      <trkpt lat="47.25085" lon="-2.28071">
        <ele>80</ele>
        <time>2019-09-08T07:44:14Z</time>
      </trkpt>
      <trkpt lat="47.25096" lon="-2.28046">
        <ele>80</ele>
        <time>2019-09-08T07:44:17Z</time>
      </trkpt>
      <trkpt lat="47.25099" lon="-2.28038">
        <ele>80</ele>
        <time>2019-09-08T07:44:18Z</time>
      </trkpt>
      <trkpt lat="47.25103" lon="-2.28025">
        <ele>80</ele>
        <time>2019-09-08T07:44:20Z</time>
      </trkpt>
      <trkpt lat="47.25109" lon="-2.28012">
        <ele>80</ele>
        <time>2019-09-08T07:44:23Z</time>
      </trkpt>
      <trkpt lat="47.25116" lon="-2.27998">
        <ele>81</ele>
        <time>2019-09-08T07:44:24Z</time>
      </trkpt>
      <trkpt lat="47.25127" lon="-2.27978">
        <ele>81</ele>
        <time>2019-09-08T07:44:27Z</time>
      </trkpt>
      <trkpt lat="47.2513" lon="-2.27972">
        <ele>81</ele>
        <time>2019-09-08T07:44:28Z</time>
      </trkpt>
      <trkpt lat="47.25134" lon="-2.27967">
        <ele>81</ele>
        <time>2019-09-08T07:44:29Z</time>
      </trkpt>
      <trkpt lat="47.25139" lon="-2.27961">
        <ele>81</ele>
        <time>2019-09-08T07:44:30Z</time>
      </trkpt>
      <trkpt lat="47.25144" lon="-2.27956">
        <ele>81</ele>
        <time>2019-09-08T07:44:31Z</time>
      </trkpt>
      <trkpt lat="47.25155" lon="-2.27948">
        <ele>81</ele>
        <time>2019-09-08T07:44:33Z</time>
      </trkpt>
      <trkpt lat="47.25161" lon="-2.27944">
        <ele>82</ele>
        <time>2019-09-08T07:44:34Z</time>
      </trkpt>
      <trkpt lat="47.25167" lon="-2.27941">
        <ele>82</ele>
        <time>2019-09-08T07:44:35Z</time>
      </trkpt>
      <trkpt lat="47.25172" lon="-2.27937">
        <ele>82</ele>
        <time>2019-09-08T07:44:36Z</time>
      </trkpt>
      <trkpt lat="47.25178" lon="-2.27934">
        <ele>82</ele>
        <time>2019-09-08T07:44:38Z</time>
      </trkpt>
      <trkpt lat="47.25183" lon="-2.2793">
        <ele>83</ele>
        <time>2019-09-08T07:44:39Z</time>
      </trkpt>
      <trkpt lat="47.25194" lon="-2.27923">
        <ele>82</ele>
        <time>2019-09-08T07:44:41Z</time>
      </trkpt>
      <trkpt lat="47.252" lon="-2.27919">
        <ele>82</ele>
        <time>2019-09-08T07:44:42Z</time>
      </trkpt>
      <trkpt lat="47.2522" lon="-2.2791">
        <ele>82</ele>
        <time>2019-09-08T07:44:45Z</time>
      </trkpt>
      <trkpt lat="47.25225" lon="-2.27908">
        <ele>82</ele>
        <time>2019-09-08T07:44:46Z</time>
      </trkpt>
      <trkpt lat="47.2523" lon="-2.27905">
        <ele>82</ele>
        <time>2019-09-08T07:44:47Z</time>
      </trkpt>
      <trkpt lat="47.25235" lon="-2.27902">
        <ele>83</ele>
        <time>2019-09-08T07:44:48Z</time>
      </trkpt>
      <trkpt lat="47.2524" lon="-2.27899">
        <ele>83</ele>
        <time>2019-09-08T07:44:49Z</time>
      </trkpt>
      <trkpt lat="47.25246" lon="-2.27896">
        <ele>83</ele>
        <time>2019-09-08T07:44:50Z</time>
      </trkpt>
      <trkpt lat="47.25251" lon="-2.27893">
        <ele>83</ele>
        <time>2019-09-08T07:44:51Z</time>
      </trkpt>
      <trkpt lat="47.25256" lon="-2.27891">
        <ele>83</ele>
        <time>2019-09-08T07:44:52Z</time>
      </trkpt>
      <trkpt lat="47.25261" lon="-2.27889">
        <ele>83</ele>
        <time>2019-09-08T07:44:53Z</time>
      </trkpt>
      <trkpt lat="47.25283" lon="-2.27881">
        <ele>83</ele>
        <time>2019-09-08T07:44:57Z</time>
      </trkpt>
      <trkpt lat="47.25289" lon="-2.27879">
        <ele>83</ele>
        <time>2019-09-08T07:44:58Z</time>
      </trkpt>
      <trkpt lat="47.25295" lon="-2.27878">
        <ele>83</ele>
        <time>2019-09-08T07:44:59Z</time>
      </trkpt>
      <trkpt lat="47.253" lon="-2.27876">
        <ele>83</ele>
        <time>2019-09-08T07:45:00Z</time>
      </trkpt>
      <trkpt lat="47.25306" lon="-2.27874">
        <ele>83</ele>
        <time>2019-09-08T07:45:01Z</time>
      </trkpt>
      <trkpt lat="47.25312" lon="-2.27872">
        <ele>84</ele>
        <time>2019-09-08T07:45:02Z</time>
      </trkpt>
      <trkpt lat="47.25318" lon="-2.27872">
        <ele>84</ele>
        <time>2019-09-08T07:45:03Z</time>
      </trkpt>
      <trkpt lat="47.25323" lon="-2.27871">
        <ele>84</ele>
        <time>2019-09-08T07:45:04Z</time>
      </trkpt>
      <trkpt lat="47.25328" lon="-2.27871">
        <ele>83</ele>
        <time>2019-09-08T07:45:05Z</time>
      </trkpt>
      <trkpt lat="47.25334" lon="-2.2787">
        <ele>83</ele>
        <time>2019-09-08T07:45:06Z</time>
      </trkpt>
      <trkpt lat="47.25349" lon="-2.27867">
        <ele>84</ele>
        <time>2019-09-08T07:45:09Z</time>
      </trkpt>
      <trkpt lat="47.25355" lon="-2.27865">
        <ele>83</ele>
        <time>2019-09-08T07:45:10Z</time>
      </trkpt>
      <trkpt lat="47.2536" lon="-2.27864">
        <ele>84</ele>
        <time>2019-09-08T07:45:11Z</time>
      </trkpt>
      <trkpt lat="47.25371" lon="-2.2786">
        <ele>84</ele>
        <time>2019-09-08T07:45:13Z</time>
      </trkpt>
      <trkpt lat="47.25376" lon="-2.27859">
        <ele>84</ele>
        <time>2019-09-08T07:45:14Z</time>
      </trkpt>
      <trkpt lat="47.25381" lon="-2.27857">
        <ele>84</ele>
        <time>2019-09-08T07:45:15Z</time>
      </trkpt>
      <trkpt lat="47.25397" lon="-2.27851">
        <ele>84</ele>
        <time>2019-09-08T07:45:18Z</time>
      </trkpt>
      <trkpt lat="47.25412" lon="-2.27843">
        <ele>85</ele>
        <time>2019-09-08T07:45:22Z</time>
      </trkpt>
      <trkpt lat="47.25417" lon="-2.2784">
        <ele>84</ele>
        <time>2019-09-08T07:45:23Z</time>
      </trkpt>
      <trkpt lat="47.25426" lon="-2.27834">
        <ele>85</ele>
        <time>2019-09-08T07:45:25Z</time>
      </trkpt>
      <trkpt lat="47.25431" lon="-2.27831">
        <ele>85</ele>
        <time>2019-09-08T07:45:26Z</time>
      </trkpt>
      <trkpt lat="47.25449" lon="-2.27812">
        <ele>85</ele>
        <time>2019-09-08T07:45:29Z</time>
      </trkpt>
      <trkpt lat="47.25453" lon="-2.27807">
        <ele>85</ele>
        <time>2019-09-08T07:45:30Z</time>
      </trkpt>
      <trkpt lat="47.25457" lon="-2.27803">
        <ele>85</ele>
        <time>2019-09-08T07:45:31Z</time>
      </trkpt>
      <trkpt lat="47.25465" lon="-2.27795">
        <ele>86</ele>
        <time>2019-09-08T07:45:33Z</time>
      </trkpt>
      <trkpt lat="47.25476" lon="-2.27782">
        <ele>86</ele>
        <time>2019-09-08T07:45:36Z</time>
      </trkpt>
      <trkpt lat="47.25485" lon="-2.27771">
        <ele>88</ele>
        <time>2019-09-08T07:45:39Z</time>
      </trkpt>
      <trkpt lat="47.25489" lon="-2.27767">
        <ele>88</ele>
        <time>2019-09-08T07:45:40Z</time>
      </trkpt>
      <trkpt lat="47.25492" lon="-2.27764">
        <ele>88</ele>
        <time>2019-09-08T07:45:41Z</time>
      </trkpt>
      <trkpt lat="47.25496" lon="-2.27761">
        <ele>89</ele>
        <time>2019-09-08T07:45:42Z</time>
      </trkpt>
      <trkpt lat="47.25501" lon="-2.27753">
        <ele>88</ele>
        <time>2019-09-08T07:45:44Z</time>
      </trkpt>
      <trkpt lat="47.25502" lon="-2.27739">
        <ele>89</ele>
        <time>2019-09-08T07:45:46Z</time>
      </trkpt>
      <trkpt lat="47.255" lon="-2.27704">
        <ele>88</ele>
        <time>2019-09-08T07:45:50Z</time>
      </trkpt>
      <trkpt lat="47.25499" lon="-2.27697">
        <ele>88</ele>
        <time>2019-09-08T07:45:51Z</time>
      </trkpt>
      <trkpt lat="47.25497" lon="-2.27691">
        <ele>88</ele>
        <time>2019-09-08T07:45:52Z</time>
      </trkpt>
      <trkpt lat="47.25495" lon="-2.27684">
        <ele>88</ele>
        <time>2019-09-08T07:45:53Z</time>
      </trkpt>
      <trkpt lat="47.25493" lon="-2.27678">
        <ele>88</ele>
        <time>2019-09-08T07:45:54Z</time>
      </trkpt>
      <trkpt lat="47.2549" lon="-2.27665">
        <ele>88</ele>
        <time>2019-09-08T07:45:56Z</time>
      </trkpt>
      <trkpt lat="47.25488" lon="-2.27653">
        <ele>88</ele>
        <time>2019-09-08T07:45:58Z</time>
      </trkpt>
      <trkpt lat="47.25488" lon="-2.27648">
        <ele>88</ele>
        <time>2019-09-08T07:45:59Z</time>
      </trkpt>
      <trkpt lat="47.25486" lon="-2.27634">
        <ele>88</ele>
        <time>2019-09-08T07:46:01Z</time>
      </trkpt>
      <trkpt lat="47.25484" lon="-2.27628">
        <ele>89</ele>
        <time>2019-09-08T07:46:02Z</time>
      </trkpt>
      <trkpt lat="47.2548" lon="-2.27623">
        <ele>89</ele>
        <time>2019-09-08T07:46:03Z</time>
      </trkpt>
      <trkpt lat="47.25477" lon="-2.27618">
        <ele>90</ele>
        <time>2019-09-08T07:46:04Z</time>
      </trkpt>
      <trkpt lat="47.25473" lon="-2.27613">
        <ele>89</ele>
        <time>2019-09-08T07:46:05Z</time>
      </trkpt>
      <trkpt lat="47.2547" lon="-2.27609">
        <ele>89</ele>
        <time>2019-09-08T07:46:06Z</time>
      </trkpt>
      <trkpt lat="47.25467" lon="-2.27604">
        <ele>89</ele>
        <time>2019-09-08T07:46:07Z</time>
      </trkpt>
      <trkpt lat="47.25465" lon="-2.27599">
        <ele>88</ele>
        <time>2019-09-08T07:46:08Z</time>
      </trkpt>
      <trkpt lat="47.25462" lon="-2.27586">
        <ele>88</ele>
        <time>2019-09-08T07:46:10Z</time>
      </trkpt>
      <trkpt lat="47.25461" lon="-2.2758">
        <ele>88</ele>
        <time>2019-09-08T07:46:11Z</time>
      </trkpt>
      <trkpt lat="47.25459" lon="-2.27572">
        <ele>88</ele>
        <time>2019-09-08T07:46:12Z</time>
      </trkpt>
      <trkpt lat="47.25455" lon="-2.27556">
        <ele>88</ele>
        <time>2019-09-08T07:46:14Z</time>
      </trkpt>
      <trkpt lat="47.25452" lon="-2.2754">
        <ele>88</ele>
        <time>2019-09-08T07:46:16Z</time>
      </trkpt>
      <trkpt lat="47.25449" lon="-2.27533">
        <ele>88</ele>
        <time>2019-09-08T07:46:17Z</time>
      </trkpt>
      <trkpt lat="47.25447" lon="-2.27527">
        <ele>89</ele>
        <time>2019-09-08T07:46:18Z</time>
      </trkpt>
      <trkpt lat="47.25444" lon="-2.27516">
        <ele>88</ele>
        <time>2019-09-08T07:46:20Z</time>
      </trkpt>
      <trkpt lat="47.25441" lon="-2.27508">
        <ele>89</ele>
        <time>2019-09-08T07:46:21Z</time>
      </trkpt>
      <trkpt lat="47.25437" lon="-2.27502">
        <ele>88</ele>
        <time>2019-09-08T07:46:22Z</time>
      </trkpt>
      <trkpt lat="47.25433" lon="-2.27496">
        <ele>88</ele>
        <time>2019-09-08T07:46:23Z</time>
      </trkpt>
      <trkpt lat="47.25428" lon="-2.2749">
        <ele>88</ele>
        <time>2019-09-08T07:46:24Z</time>
      </trkpt>
      <trkpt lat="47.25423" lon="-2.27484">
        <ele>87</ele>
        <time>2019-09-08T07:46:25Z</time>
      </trkpt>
      <trkpt lat="47.2542" lon="-2.27477">
        <ele>87</ele>
        <time>2019-09-08T07:46:26Z</time>
      </trkpt>
      <trkpt lat="47.25418" lon="-2.2747">
        <ele>87</ele>
        <time>2019-09-08T07:46:27Z</time>
      </trkpt>
      <trkpt lat="47.25414" lon="-2.27454">
        <ele>87</ele>
        <time>2019-09-08T07:46:29Z</time>
      </trkpt>
      <trkpt lat="47.25411" lon="-2.27447">
        <ele>87</ele>
        <time>2019-09-08T07:46:30Z</time>
      </trkpt>
      <trkpt lat="47.25408" lon="-2.27439">
        <ele>87</ele>
        <time>2019-09-08T07:46:31Z</time>
      </trkpt>
      <trkpt lat="47.25405" lon="-2.27432">
        <ele>87</ele>
        <time>2019-09-08T07:46:32Z</time>
      </trkpt>
      <trkpt lat="47.25403" lon="-2.27425">
        <ele>87</ele>
        <time>2019-09-08T07:46:33Z</time>
      </trkpt>
      <trkpt lat="47.254" lon="-2.27418">
        <ele>87</ele>
        <time>2019-09-08T07:46:34Z</time>
      </trkpt>
      <trkpt lat="47.25399" lon="-2.27411">
        <ele>87</ele>
        <time>2019-09-08T07:46:35Z</time>
      </trkpt>
      <trkpt lat="47.25397" lon="-2.27406">
        <ele>87</ele>
        <time>2019-09-08T07:46:36Z</time>
      </trkpt>
      <trkpt lat="47.25395" lon="-2.27395">
        <ele>87</ele>
        <time>2019-09-08T07:46:38Z</time>
      </trkpt>
      <trkpt lat="47.25393" lon="-2.27384">
        <ele>87</ele>
        <time>2019-09-08T07:46:40Z</time>
      </trkpt>
      <trkpt lat="47.25392" lon="-2.2738">
        <ele>87</ele>
        <time>2019-09-08T07:46:41Z</time>
      </trkpt>
      <trkpt lat="47.25387" lon="-2.27372">
        <ele>88</ele>
        <time>2019-09-08T07:46:43Z</time>
      </trkpt>
      <trkpt lat="47.2538" lon="-2.27365">
        <ele>87</ele>
        <time>2019-09-08T07:46:46Z</time>
      </trkpt>
      <trkpt lat="47.25375" lon="-2.27362">
        <ele>88</ele>
        <time>2019-09-08T07:46:47Z</time>
      </trkpt>
      <trkpt lat="47.25371" lon="-2.27357">
        <ele>88</ele>
        <time>2019-09-08T07:46:48Z</time>
      </trkpt>
      <trkpt lat="47.25362" lon="-2.27349">
        <ele>87</ele>
        <time>2019-09-08T07:46:50Z</time>
      </trkpt>
      <trkpt lat="47.25357" lon="-2.27346">
        <ele>87</ele>
        <time>2019-09-08T07:46:51Z</time>
      </trkpt>
      <trkpt lat="47.25353" lon="-2.27343">
        <ele>87</ele>
        <time>2019-09-08T07:46:52Z</time>
      </trkpt>
      <trkpt lat="47.25343" lon="-2.27321">
        <ele>88</ele>
        <time>2019-09-08T07:46:56Z</time>
      </trkpt>
      <trkpt lat="47.25344" lon="-2.2731">
        <ele>88</ele>
        <time>2019-09-08T07:46:58Z</time>
      </trkpt>
      <trkpt lat="47.25341" lon="-2.27288">
        <ele>89</ele>
        <time>2019-09-08T07:47:02Z</time>
      </trkpt>
      <trkpt lat="47.25336" lon="-2.2728">
        <ele>89</ele>
        <time>2019-09-08T07:47:04Z</time>
      </trkpt>
      <trkpt lat="47.25326" lon="-2.27267">
        <ele>89</ele>
        <time>2019-09-08T07:47:07Z</time>
      </trkpt>
      <trkpt lat="47.25323" lon="-2.27264">
        <ele>89</ele>
        <time>2019-09-08T07:47:08Z</time>
      </trkpt>
      <trkpt lat="47.25316" lon="-2.27256">
        <ele>89</ele>
        <time>2019-09-08T07:47:10Z</time>
      </trkpt>
      <trkpt lat="47.25313" lon="-2.27251">
        <ele>90</ele>
        <time>2019-09-08T07:47:11Z</time>
      </trkpt>
      <trkpt lat="47.2531" lon="-2.27246">
        <ele>89</ele>
        <time>2019-09-08T07:47:13Z</time>
      </trkpt>
      <trkpt lat="47.25307" lon="-2.27241">
        <ele>89</ele>
        <time>2019-09-08T07:47:14Z</time>
      </trkpt>
      <trkpt lat="47.25302" lon="-2.27231">
        <ele>88</ele>
        <time>2019-09-08T07:47:15Z</time>
      </trkpt>
      <trkpt lat="47.25299" lon="-2.27226">
        <ele>88</ele>
        <time>2019-09-08T07:47:16Z</time>
      </trkpt>
      <trkpt lat="47.25293" lon="-2.27208">
        <ele>88</ele>
        <time>2019-09-08T07:47:19Z</time>
      </trkpt>
      <trkpt lat="47.25291" lon="-2.27203">
        <ele>88</ele>
        <time>2019-09-08T07:47:20Z</time>
      </trkpt>
      <trkpt lat="47.25281" lon="-2.27186">
        <ele>87</ele>
        <time>2019-09-08T07:47:23Z</time>
      </trkpt>
      <trkpt lat="47.25267" lon="-2.27163">
        <ele>88</ele>
        <time>2019-09-08T07:47:27Z</time>
      </trkpt>
      <trkpt lat="47.25261" lon="-2.27154">
        <ele>88</ele>
        <time>2019-09-08T07:47:29Z</time>
      </trkpt>
      <trkpt lat="47.25254" lon="-2.27146">
        <ele>88</ele>
        <time>2019-09-08T07:47:31Z</time>
      </trkpt>
      <trkpt lat="47.25249" lon="-2.27142">
        <ele>87</ele>
        <time>2019-09-08T07:47:32Z</time>
      </trkpt>
      <trkpt lat="47.25247" lon="-2.27137">
        <ele>87</ele>
        <time>2019-09-08T07:47:33Z</time>
      </trkpt>
      <trkpt lat="47.25244" lon="-2.27131">
        <ele>87</ele>
        <time>2019-09-08T07:47:34Z</time>
      </trkpt>
      <trkpt lat="47.25241" lon="-2.27125">
        <ele>87</ele>
        <time>2019-09-08T07:47:35Z</time>
      </trkpt>
      <trkpt lat="47.25238" lon="-2.2712">
        <ele>87</ele>
        <time>2019-09-08T07:47:36Z</time>
      </trkpt>
      <trkpt lat="47.25235" lon="-2.27114">
        <ele>87</ele>
        <time>2019-09-08T07:47:37Z</time>
      </trkpt>
      <trkpt lat="47.25232" lon="-2.27109">
        <ele>87</ele>
        <time>2019-09-08T07:47:38Z</time>
      </trkpt>
      <trkpt lat="47.25228" lon="-2.27104">
        <ele>87</ele>
        <time>2019-09-08T07:47:39Z</time>
      </trkpt>
      <trkpt lat="47.25225" lon="-2.27097">
        <ele>87</ele>
        <time>2019-09-08T07:47:40Z</time>
      </trkpt>
      <trkpt lat="47.25222" lon="-2.27091">
        <ele>87</ele>
        <time>2019-09-08T07:47:41Z</time>
      </trkpt>
      <trkpt lat="47.25216" lon="-2.27079">
        <ele>87</ele>
        <time>2019-09-08T07:47:43Z</time>
      </trkpt>
      <trkpt lat="47.25213" lon="-2.27074">
        <ele>87</ele>
        <time>2019-09-08T07:47:44Z</time>
      </trkpt>
      <trkpt lat="47.2521" lon="-2.27067">
        <ele>87</ele>
        <time>2019-09-08T07:47:45Z</time>
      </trkpt>
      <trkpt lat="47.25207" lon="-2.27061">
        <ele>86</ele>
        <time>2019-09-08T07:47:46Z</time>
      </trkpt>
      <trkpt lat="47.25204" lon="-2.27055">
        <ele>86</ele>
        <time>2019-09-08T07:47:47Z</time>
      </trkpt>
      <trkpt lat="47.25201" lon="-2.27048">
        <ele>86</ele>
        <time>2019-09-08T07:47:48Z</time>
      </trkpt>
      <trkpt lat="47.25196" lon="-2.27036">
        <ele>86</ele>
        <time>2019-09-08T07:47:50Z</time>
      </trkpt>
      <trkpt lat="47.25192" lon="-2.2703">
        <ele>86</ele>
        <time>2019-09-08T07:47:51Z</time>
      </trkpt>
      <trkpt lat="47.25187" lon="-2.2702">
        <ele>86</ele>
        <time>2019-09-08T07:47:53Z</time>
      </trkpt>
      <trkpt lat="47.25183" lon="-2.27012">
        <ele>87</ele>
        <time>2019-09-08T07:47:55Z</time>
      </trkpt>
      <trkpt lat="47.25182" lon="-2.27004">
        <ele>87</ele>
        <time>2019-09-08T07:47:57Z</time>
      </trkpt>
      <trkpt lat="47.25182" lon="-2.26996">
        <ele>87</ele>
        <time>2019-09-08T07:48:00Z</time>
      </trkpt>
      <trkpt lat="47.25182" lon="-2.26996">
        <ele>87</ele>
        <time>2019-09-08T07:48:06Z</time>
      </trkpt>
      <trkpt lat="47.25182" lon="-2.26996">
        <ele>39</ele>
        <time>2019-09-08T07:48:06Z</time>
      </trkpt>
      <trkpt lat="47.25182" lon="-2.26996">
        <ele>39</ele>
        <time>2019-09-08T07:48:15Z</time>
      </trkpt>
      <trkpt lat="47.2518" lon="-2.26977">
        <ele>89</ele>
        <time>2019-09-08T07:48:15Z</time>
      </trkpt>
      <trkpt lat="47.25156" lon="-2.26961">
        <ele>85</ele>
        <time>2019-09-08T07:48:23Z</time>
      </trkpt>
      <trkpt lat="47.25151" lon="-2.26954">
        <ele>87</ele>
        <time>2019-09-08T07:48:25Z</time>
      </trkpt>
      <trkpt lat="47.25141" lon="-2.26943">
        <ele>87</ele>
        <time>2019-09-08T07:48:28Z</time>
      </trkpt>
      <trkpt lat="47.25131" lon="-2.26924">
        <ele>86</ele>
        <time>2019-09-08T07:48:31Z</time>
      </trkpt>
      <trkpt lat="47.25129" lon="-2.26917">
        <ele>86</ele>
        <time>2019-09-08T07:48:32Z</time>
      </trkpt>
      <trkpt lat="47.25125" lon="-2.2691">
        <ele>86</ele>
        <time>2019-09-08T07:48:33Z</time>
      </trkpt>
      <trkpt lat="47.25121" lon="-2.26905">
        <ele>86</ele>
        <time>2019-09-08T07:48:34Z</time>
      </trkpt>
      <trkpt lat="47.25116" lon="-2.26902">
        <ele>87</ele>
        <time>2019-09-08T07:48:35Z</time>
      </trkpt>
      <trkpt lat="47.2511" lon="-2.26901">
        <ele>87</ele>
        <time>2019-09-08T07:48:36Z</time>
      </trkpt>
      <trkpt lat="47.25104" lon="-2.26898">
        <ele>86</ele>
        <time>2019-09-08T07:48:37Z</time>
      </trkpt>
      <trkpt lat="47.25099" lon="-2.26894">
        <ele>86</ele>
        <time>2019-09-08T07:48:38Z</time>
      </trkpt>
      <trkpt lat="47.25095" lon="-2.26888">
        <ele>87</ele>
        <time>2019-09-08T07:48:39Z</time>
      </trkpt>
      <trkpt lat="47.25091" lon="-2.26882">
        <ele>86</ele>
        <time>2019-09-08T07:48:40Z</time>
      </trkpt>
      <trkpt lat="47.25087" lon="-2.26877">
        <ele>86</ele>
        <time>2019-09-08T07:48:41Z</time>
      </trkpt>
      <trkpt lat="47.25082" lon="-2.26873">
        <ele>87</ele>
        <time>2019-09-08T07:48:42Z</time>
      </trkpt>
      <trkpt lat="47.25077" lon="-2.26869">
        <ele>86</ele>
        <time>2019-09-08T07:48:43Z</time>
      </trkpt>
      <trkpt lat="47.25072" lon="-2.26867">
        <ele>87</ele>
        <time>2019-09-08T07:48:44Z</time>
      </trkpt>
      <trkpt lat="47.25067" lon="-2.26866">
        <ele>87</ele>
        <time>2019-09-08T07:48:45Z</time>
      </trkpt>
      <trkpt lat="47.25062" lon="-2.26865">
        <ele>86</ele>
        <time>2019-09-08T07:48:46Z</time>
      </trkpt>
      <trkpt lat="47.25057" lon="-2.26864">
        <ele>86</ele>
        <time>2019-09-08T07:48:47Z</time>
      </trkpt>
      <trkpt lat="47.25053" lon="-2.26863">
        <ele>87</ele>
        <time>2019-09-08T07:48:48Z</time>
      </trkpt>
      <trkpt lat="47.25049" lon="-2.26862">
        <ele>87</ele>
        <time>2019-09-08T07:48:49Z</time>
      </trkpt>
      <trkpt lat="47.2503" lon="-2.26867">
        <ele>88</ele>
        <time>2019-09-08T07:48:53Z</time>
      </trkpt>
      <trkpt lat="47.25025" lon="-2.26868">
        <ele>88</ele>
        <time>2019-09-08T07:48:54Z</time>
      </trkpt>
      <trkpt lat="47.25014" lon="-2.2687">
        <ele>88</ele>
        <time>2019-09-08T07:48:56Z</time>
      </trkpt>
      <trkpt lat="47.25009" lon="-2.26871">
        <ele>89</ele>
        <time>2019-09-08T07:48:57Z</time>
      </trkpt>
      <trkpt lat="47.25004" lon="-2.26873">
        <ele>89</ele>
        <time>2019-09-08T07:48:58Z</time>
      </trkpt>
      <trkpt lat="47.24999" lon="-2.26873">
        <ele>89</ele>
        <time>2019-09-08T07:48:59Z</time>
      </trkpt>
      <trkpt lat="47.24994" lon="-2.26874">
        <ele>89</ele>
        <time>2019-09-08T07:49:00Z</time>
      </trkpt>
      <trkpt lat="47.2499" lon="-2.26875">
        <ele>89</ele>
        <time>2019-09-08T07:49:01Z</time>
      </trkpt>
      <trkpt lat="47.24984" lon="-2.26875">
        <ele>89</ele>
        <time>2019-09-08T07:49:02Z</time>
      </trkpt>
      <trkpt lat="47.24969" lon="-2.2687">
        <ele>89</ele>
        <time>2019-09-08T07:49:05Z</time>
      </trkpt>
      <trkpt lat="47.24965" lon="-2.26865">
        <ele>89</ele>
        <time>2019-09-08T07:49:06Z</time>
      </trkpt>
      <trkpt lat="47.2496" lon="-2.2686">
        <ele>89</ele>
        <time>2019-09-08T07:49:07Z</time>
      </trkpt>
      <trkpt lat="47.24946" lon="-2.26851">
        <ele>89</ele>
        <time>2019-09-08T07:49:10Z</time>
      </trkpt>
      <trkpt lat="47.2494" lon="-2.26849">
        <ele>89</ele>
        <time>2019-09-08T07:49:11Z</time>
      </trkpt>
      <trkpt lat="47.24935" lon="-2.26847">
        <ele>89</ele>
        <time>2019-09-08T07:49:12Z</time>
      </trkpt>
      <trkpt lat="47.24931" lon="-2.26842">
        <ele>88</ele>
        <time>2019-09-08T07:49:13Z</time>
      </trkpt>
      <trkpt lat="47.24927" lon="-2.26838">
        <ele>89</ele>
        <time>2019-09-08T07:49:14Z</time>
      </trkpt>
      <trkpt lat="47.24919" lon="-2.26834">
        <ele>89</ele>
        <time>2019-09-08T07:49:16Z</time>
      </trkpt>
      <trkpt lat="47.24914" lon="-2.26832">
        <ele>88</ele>
        <time>2019-09-08T07:49:17Z</time>
      </trkpt>
      <trkpt lat="47.249" lon="-2.26826">
        <ele>88</ele>
        <time>2019-09-08T07:49:21Z</time>
      </trkpt>
      <trkpt lat="47.24895" lon="-2.26825">
        <ele>89</ele>
        <time>2019-09-08T07:49:22Z</time>
      </trkpt>
      <trkpt lat="47.2489" lon="-2.26822">
        <ele>89</ele>
        <time>2019-09-08T07:49:23Z</time>
      </trkpt>
      <trkpt lat="47.24885" lon="-2.26819">
        <ele>89</ele>
        <time>2019-09-08T07:49:24Z</time>
      </trkpt>
      <trkpt lat="47.24881" lon="-2.26816">
        <ele>89</ele>
        <time>2019-09-08T07:49:25Z</time>
      </trkpt>
      <trkpt lat="47.2487" lon="-2.26815">
        <ele>89</ele>
        <time>2019-09-08T07:49:27Z</time>
      </trkpt>
      <trkpt lat="47.24865" lon="-2.26813">
        <ele>89</ele>
        <time>2019-09-08T07:49:28Z</time>
      </trkpt>
      <trkpt lat="47.24849" lon="-2.26804">
        <ele>89</ele>
        <time>2019-09-08T07:49:31Z</time>
      </trkpt>
      <trkpt lat="47.24844" lon="-2.26804">
        <ele>89</ele>
        <time>2019-09-08T07:49:32Z</time>
      </trkpt>
      <trkpt lat="47.24838" lon="-2.26805">
        <ele>89</ele>
        <time>2019-09-08T07:49:33Z</time>
      </trkpt>
      <trkpt lat="47.24832" lon="-2.26805">
        <ele>89</ele>
        <time>2019-09-08T07:49:34Z</time>
      </trkpt>
      <trkpt lat="47.24815" lon="-2.26802">
        <ele>89</ele>
        <time>2019-09-08T07:49:37Z</time>
      </trkpt>
      <trkpt lat="47.24808" lon="-2.26799">
        <ele>88</ele>
        <time>2019-09-08T07:49:38Z</time>
      </trkpt>
      <trkpt lat="47.24802" lon="-2.26797">
        <ele>88</ele>
        <time>2019-09-08T07:49:39Z</time>
      </trkpt>
      <trkpt lat="47.24796" lon="-2.26794">
        <ele>88</ele>
        <time>2019-09-08T07:49:40Z</time>
      </trkpt>
      <trkpt lat="47.2479" lon="-2.26792">
        <ele>88</ele>
        <time>2019-09-08T07:49:41Z</time>
      </trkpt>
      <trkpt lat="47.24782" lon="-2.26789">
        <ele>88</ele>
        <time>2019-09-08T07:49:43Z</time>
      </trkpt>
      <trkpt lat="47.24777" lon="-2.26788">
        <ele>88</ele>
        <time>2019-09-08T07:49:45Z</time>
      </trkpt>
      <trkpt lat="47.24773" lon="-2.26787">
        <ele>87</ele>
        <time>2019-09-08T07:49:46Z</time>
      </trkpt>
      <trkpt lat="47.24764" lon="-2.26786">
        <ele>86</ele>
        <time>2019-09-08T07:49:48Z</time>
      </trkpt>
      <trkpt lat="47.24748" lon="-2.26785">
        <ele>86</ele>
        <time>2019-09-08T07:49:51Z</time>
      </trkpt>
      <trkpt lat="47.24742" lon="-2.26785">
        <ele>85</ele>
        <time>2019-09-08T07:49:52Z</time>
      </trkpt>
      <trkpt lat="47.24736" lon="-2.26784">
        <ele>85</ele>
        <time>2019-09-08T07:49:53Z</time>
      </trkpt>
      <trkpt lat="47.24712" lon="-2.26783">
        <ele>86</ele>
        <time>2019-09-08T07:49:57Z</time>
      </trkpt>
      <trkpt lat="47.24706" lon="-2.26784">
        <ele>86</ele>
        <time>2019-09-08T07:49:58Z</time>
      </trkpt>
      <trkpt lat="47.247" lon="-2.26784">
        <ele>86</ele>
        <time>2019-09-08T07:49:59Z</time>
      </trkpt>
      <trkpt lat="47.24695" lon="-2.26785">
        <ele>85</ele>
        <time>2019-09-08T07:50:00Z</time>
      </trkpt>
      <trkpt lat="47.24688" lon="-2.26785">
        <ele>85</ele>
        <time>2019-09-08T07:50:02Z</time>
      </trkpt>
      <trkpt lat="47.2468" lon="-2.26787">
        <ele>85</ele>
        <time>2019-09-08T07:50:05Z</time>
      </trkpt>
      <trkpt lat="47.2468" lon="-2.26787">
        <ele>85</ele>
        <time>2019-09-08T07:50:11Z</time>
      </trkpt>
      <trkpt lat="47.2468" lon="-2.26787">
        <ele>33.2</ele>
        <time>2019-09-08T07:50:11Z</time>
      </trkpt>
      <trkpt lat="47.2468" lon="-2.26787">
        <ele>33.2</ele>
        <time>2019-09-08T07:58:10Z</time>
      </trkpt>
      <trkpt lat="47.24665" lon="-2.268">
        <ele>93</ele>
        <time>2019-09-08T07:58:10Z</time>
      </trkpt>
      <trkpt lat="47.24634" lon="-2.26821">
        <ele>80</ele>
        <time>2019-09-08T07:58:16Z</time>
      </trkpt>
      <trkpt lat="47.24626" lon="-2.2682">
        <ele>81</ele>
        <time>2019-09-08T07:58:18Z</time>
      </trkpt>
      <trkpt lat="47.24623" lon="-2.26823">
        <ele>83</ele>
        <time>2019-09-08T07:58:19Z</time>
      </trkpt>
      <trkpt lat="47.24614" lon="-2.26831">
        <ele>80</ele>
        <time>2019-09-08T07:58:21Z</time>
      </trkpt>
      <trkpt lat="47.24603" lon="-2.26845">
        <ele>83</ele>
        <time>2019-09-08T07:58:24Z</time>
      </trkpt>
      <trkpt lat="47.24597" lon="-2.26846">
        <ele>83</ele>
        <time>2019-09-08T07:58:25Z</time>
      </trkpt>
      <trkpt lat="47.24584" lon="-2.26845">
        <ele>83</ele>
        <time>2019-09-08T07:58:28Z</time>
      </trkpt>
      <trkpt lat="47.24577" lon="-2.2685">
        <ele>87</ele>
        <time>2019-09-08T07:58:30Z</time>
      </trkpt>
      <trkpt lat="47.24573" lon="-2.26853">
        <ele>88</ele>
        <time>2019-09-08T07:58:31Z</time>
      </trkpt>
      <trkpt lat="47.24568" lon="-2.26857">
        <ele>88</ele>
        <time>2019-09-08T07:58:32Z</time>
      </trkpt>
      <trkpt lat="47.24563" lon="-2.26861">
        <ele>89</ele>
        <time>2019-09-08T07:58:33Z</time>
      </trkpt>
      <trkpt lat="47.24558" lon="-2.26865">
        <ele>88</ele>
        <time>2019-09-08T07:58:34Z</time>
      </trkpt>
      <trkpt lat="47.24553" lon="-2.2687">
        <ele>85</ele>
        <time>2019-09-08T07:58:35Z</time>
      </trkpt>
      <trkpt lat="47.24549" lon="-2.26873">
        <ele>82</ele>
        <time>2019-09-08T07:58:36Z</time>
      </trkpt>
      <trkpt lat="47.24546" lon="-2.26876">
        <ele>81</ele>
        <time>2019-09-08T07:58:37Z</time>
      </trkpt>
      <trkpt lat="47.24543" lon="-2.26878">
        <ele>81</ele>
        <time>2019-09-08T07:58:38Z</time>
      </trkpt>
      <trkpt lat="47.24534" lon="-2.26887">
        <ele>84</ele>
        <time>2019-09-08T07:58:41Z</time>
      </trkpt>
      <trkpt lat="47.24526" lon="-2.26901">
        <ele>83</ele>
        <time>2019-09-08T07:58:44Z</time>
      </trkpt>
      <trkpt lat="47.24523" lon="-2.26907">
        <ele>82</ele>
        <time>2019-09-08T07:58:45Z</time>
      </trkpt>
      <trkpt lat="47.24521" lon="-2.26914">
        <ele>83</ele>
        <time>2019-09-08T07:58:46Z</time>
      </trkpt>
      <trkpt lat="47.24517" lon="-2.26921">
        <ele>83</ele>
        <time>2019-09-08T07:58:47Z</time>
      </trkpt>
      <trkpt lat="47.24513" lon="-2.26926">
        <ele>83</ele>
        <time>2019-09-08T07:58:48Z</time>
      </trkpt>
      <trkpt lat="47.24499" lon="-2.26938">
        <ele>83</ele>
        <time>2019-09-08T07:58:51Z</time>
      </trkpt>
      <trkpt lat="47.24493" lon="-2.26939">
        <ele>83</ele>
        <time>2019-09-08T07:58:52Z</time>
      </trkpt>
      <trkpt lat="47.24489" lon="-2.2694">
        <ele>84</ele>
        <time>2019-09-08T07:58:53Z</time>
      </trkpt>
      <trkpt lat="47.24484" lon="-2.26941">
        <ele>84</ele>
        <time>2019-09-08T07:58:54Z</time>
      </trkpt>
      <trkpt lat="47.24479" lon="-2.26939">
        <ele>84</ele>
        <time>2019-09-08T07:58:55Z</time>
      </trkpt>
      <trkpt lat="47.24475" lon="-2.26936">
        <ele>84</ele>
        <time>2019-09-08T07:58:56Z</time>
      </trkpt>
      <trkpt lat="47.24466" lon="-2.26933">
        <ele>84</ele>
        <time>2019-09-08T07:58:58Z</time>
      </trkpt>
      <trkpt lat="47.2446" lon="-2.26932">
        <ele>84</ele>
        <time>2019-09-08T07:58:59Z</time>
      </trkpt>
      <trkpt lat="47.24454" lon="-2.26931">
        <ele>84</ele>
        <time>2019-09-08T07:59:00Z</time>
      </trkpt>
      <trkpt lat="47.24449" lon="-2.2693">
        <ele>84</ele>
        <time>2019-09-08T07:59:01Z</time>
      </trkpt>
      <trkpt lat="47.24438" lon="-2.26934">
        <ele>85</ele>
        <time>2019-09-08T07:59:04Z</time>
      </trkpt>
      <trkpt lat="47.24429" lon="-2.26942">
        <ele>85</ele>
        <time>2019-09-08T07:59:07Z</time>
      </trkpt>
      <trkpt lat="47.24422" lon="-2.26947">
        <ele>85</ele>
        <time>2019-09-08T07:59:09Z</time>
      </trkpt>
      <trkpt lat="47.24414" lon="-2.26954">
        <ele>84</ele>
        <time>2019-09-08T07:59:11Z</time>
      </trkpt>
      <trkpt lat="47.2441" lon="-2.26959">
        <ele>84</ele>
        <time>2019-09-08T07:59:12Z</time>
      </trkpt>
      <trkpt lat="47.24407" lon="-2.26965">
        <ele>84</ele>
        <time>2019-09-08T07:59:13Z</time>
      </trkpt>
      <trkpt lat="47.24403" lon="-2.26971">
        <ele>83</ele>
        <time>2019-09-08T07:59:14Z</time>
      </trkpt>
      <trkpt lat="47.244" lon="-2.26977">
        <ele>83</ele>
        <time>2019-09-08T07:59:15Z</time>
      </trkpt>
      <trkpt lat="47.24395" lon="-2.26983">
        <ele>83</ele>
        <time>2019-09-08T07:59:16Z</time>
      </trkpt>
      <trkpt lat="47.24374" lon="-2.27014">
        <ele>84</ele>
        <time>2019-09-08T07:59:22Z</time>
      </trkpt>
      <trkpt lat="47.24369" lon="-2.2702">
        <ele>84</ele>
        <time>2019-09-08T07:59:23Z</time>
      </trkpt>
      <trkpt lat="47.24365" lon="-2.27028">
        <ele>85</ele>
        <time>2019-09-08T07:59:24Z</time>
      </trkpt>
      <trkpt lat="47.2436" lon="-2.27034">
        <ele>85</ele>
        <time>2019-09-08T07:59:25Z</time>
      </trkpt>
      <trkpt lat="47.2435" lon="-2.27049">
        <ele>85</ele>
        <time>2019-09-08T07:59:27Z</time>
      </trkpt>
      <trkpt lat="47.24346" lon="-2.27056">
        <ele>85</ele>
        <time>2019-09-08T07:59:28Z</time>
      </trkpt>
      <trkpt lat="47.24341" lon="-2.27062">
        <ele>85</ele>
        <time>2019-09-08T07:59:29Z</time>
      </trkpt>
      <trkpt lat="47.24335" lon="-2.27067">
        <ele>84</ele>
        <time>2019-09-08T07:59:30Z</time>
      </trkpt>
      <trkpt lat="47.24317" lon="-2.27083">
        <ele>84</ele>
        <time>2019-09-08T07:59:33Z</time>
      </trkpt>
      <trkpt lat="47.24311" lon="-2.27089">
        <ele>84</ele>
        <time>2019-09-08T07:59:34Z</time>
      </trkpt>
      <trkpt lat="47.24307" lon="-2.27095">
        <ele>84</ele>
        <time>2019-09-08T07:59:35Z</time>
      </trkpt>
      <trkpt lat="47.24302" lon="-2.27101">
        <ele>84</ele>
        <time>2019-09-08T07:59:36Z</time>
      </trkpt>
      <trkpt lat="47.24294" lon="-2.2711">
        <ele>84</ele>
        <time>2019-09-08T07:59:38Z</time>
      </trkpt>
      <trkpt lat="47.24285" lon="-2.27111">
        <ele>84</ele>
        <time>2019-09-08T07:59:40Z</time>
      </trkpt>
      <trkpt lat="47.24277" lon="-2.27109">
        <ele>84</ele>
        <time>2019-09-08T07:59:42Z</time>
      </trkpt>
      <trkpt lat="47.24269" lon="-2.27111">
        <ele>84</ele>
        <time>2019-09-08T07:59:44Z</time>
      </trkpt>
      <trkpt lat="47.24264" lon="-2.27111">
        <ele>83</ele>
        <time>2019-09-08T07:59:46Z</time>
      </trkpt>
      <trkpt lat="47.24259" lon="-2.27112">
        <ele>81</ele>
        <time>2019-09-08T07:59:48Z</time>
      </trkpt>
      <trkpt lat="47.24256" lon="-2.27113">
        <ele>81</ele>
        <time>2019-09-08T07:59:49Z</time>
      </trkpt>
      <trkpt lat="47.24253" lon="-2.27114">
        <ele>80</ele>
        <time>2019-09-08T07:59:50Z</time>
      </trkpt>
      <trkpt lat="47.24248" lon="-2.27117">
        <ele>79</ele>
        <time>2019-09-08T07:59:53Z</time>
      </trkpt>
      <trkpt lat="47.24244" lon="-2.27119">
        <ele>77</ele>
        <time>2019-09-08T07:59:57Z</time>
      </trkpt>
      <trkpt lat="47.24244" lon="-2.27119">
        <ele>23</ele>
        <time>2019-09-08T08:00:02Z</time>
      </trkpt>
      <trkpt lat="47.24244" lon="-2.27119">
        <ele>23</ele>
        <time>2019-09-08T08:00:27Z</time>
      </trkpt>
      <trkpt lat="47.24225" lon="-2.27137">
        <ele>77</ele>
        <time>2019-09-08T08:00:27Z</time>
      </trkpt>
      <trkpt lat="47.24204" lon="-2.27154">
        <ele>66</ele>
        <time>2019-09-08T08:00:32Z</time>
      </trkpt>
      <trkpt lat="47.242" lon="-2.27157">
        <ele>62</ele>
        <time>2019-09-08T08:00:33Z</time>
      </trkpt>
      <trkpt lat="47.24187" lon="-2.27163">
        <ele>66</ele>
        <time>2019-09-08T08:00:36Z</time>
      </trkpt>
      <trkpt lat="47.24182" lon="-2.27164">
        <ele>65</ele>
        <time>2019-09-08T08:00:38Z</time>
      </trkpt>
      <trkpt lat="47.24177" lon="-2.27167">
        <ele>66</ele>
        <time>2019-09-08T08:00:39Z</time>
      </trkpt>
      <trkpt lat="47.24173" lon="-2.27168">
        <ele>66</ele>
        <time>2019-09-08T08:00:40Z</time>
      </trkpt>
      <trkpt lat="47.24158" lon="-2.27175">
        <ele>67</ele>
        <time>2019-09-08T08:00:42Z</time>
      </trkpt>
      <trkpt lat="47.24153" lon="-2.27177">
        <ele>68</ele>
        <time>2019-09-08T08:00:43Z</time>
      </trkpt>
      <trkpt lat="47.24149" lon="-2.27179">
        <ele>68</ele>
        <time>2019-09-08T08:00:44Z</time>
      </trkpt>
      <trkpt lat="47.24144" lon="-2.27181">
        <ele>69</ele>
        <time>2019-09-08T08:00:45Z</time>
      </trkpt>
      <trkpt lat="47.24135" lon="-2.27184">
        <ele>71</ele>
        <time>2019-09-08T08:00:47Z</time>
      </trkpt>
      <trkpt lat="47.24127" lon="-2.27187">
        <ele>71</ele>
        <time>2019-09-08T08:00:49Z</time>
      </trkpt>
      <trkpt lat="47.24119" lon="-2.2719">
        <ele>71</ele>
        <time>2019-09-08T08:00:51Z</time>
      </trkpt>
      <trkpt lat="47.2411" lon="-2.27192">
        <ele>71</ele>
        <time>2019-09-08T08:00:54Z</time>
      </trkpt>
      <trkpt lat="47.24105" lon="-2.27188">
        <ele>70</ele>
        <time>2019-09-08T08:00:58Z</time>
      </trkpt>
      <trkpt lat="47.24105" lon="-2.27188">
        <ele>21</ele>
        <time>2019-09-08T08:01:04Z</time>
      </trkpt>
      <trkpt lat="47.24105" lon="-2.27188">
        <ele>21</ele>
        <time>2019-09-08T08:01:08Z</time>
      </trkpt>
      <trkpt lat="47.24103" lon="-2.27185">
        <ele>70</ele>
        <time>2019-09-08T08:01:08Z</time>
      </trkpt>
      <trkpt lat="47.24094" lon="-2.2716">
        <ele>65</ele>
        <time>2019-09-08T08:01:14Z</time>
      </trkpt>
      <trkpt lat="47.24095" lon="-2.27151">
        <ele>65</ele>
        <time>2019-09-08T08:01:15Z</time>
      </trkpt>
      <trkpt lat="47.24095" lon="-2.27144">
        <ele>67</ele>
        <time>2019-09-08T08:01:16Z</time>
      </trkpt>
      <trkpt lat="47.24094" lon="-2.27136">
        <ele>67</ele>
        <time>2019-09-08T08:01:17Z</time>
      </trkpt>
      <trkpt lat="47.24094" lon="-2.27129">
        <ele>68</ele>
        <time>2019-09-08T08:01:18Z</time>
      </trkpt>
      <trkpt lat="47.24094" lon="-2.27122">
        <ele>68</ele>
        <time>2019-09-08T08:01:19Z</time>
      </trkpt>
      <trkpt lat="47.24094" lon="-2.27116">
        <ele>68</ele>
        <time>2019-09-08T08:01:20Z</time>
      </trkpt>
      <trkpt lat="47.24094" lon="-2.27111">
        <ele>68</ele>
        <time>2019-09-08T08:01:21Z</time>
      </trkpt>
      <trkpt lat="47.24093" lon="-2.27102">
        <ele>67</ele>
        <time>2019-09-08T08:01:23Z</time>
      </trkpt>
      <trkpt lat="47.24087" lon="-2.27094">
        <ele>68</ele>
        <time>2019-09-08T08:01:25Z</time>
      </trkpt>
      <trkpt lat="47.24085" lon="-2.27088">
        <ele>68</ele>
        <time>2019-09-08T08:01:26Z</time>
      </trkpt>
      <trkpt lat="47.24079" lon="-2.27077">
        <ele>68</ele>
        <time>2019-09-08T08:01:28Z</time>
      </trkpt>
      <trkpt lat="47.24076" lon="-2.2707">
        <ele>67</ele>
        <time>2019-09-08T08:01:29Z</time>
      </trkpt>
      <trkpt lat="47.24072" lon="-2.27064">
        <ele>67</ele>
        <time>2019-09-08T08:01:30Z</time>
      </trkpt>
      <trkpt lat="47.24069" lon="-2.27056">
        <ele>67</ele>
        <time>2019-09-08T08:01:31Z</time>
      </trkpt>
      <trkpt lat="47.24066" lon="-2.27048">
        <ele>66</ele>
        <time>2019-09-08T08:01:32Z</time>
      </trkpt>
      <trkpt lat="47.24063" lon="-2.2704">
        <ele>66</ele>
        <time>2019-09-08T08:01:33Z</time>
      </trkpt>
      <trkpt lat="47.2406" lon="-2.27031">
        <ele>65</ele>
        <time>2019-09-08T08:01:34Z</time>
      </trkpt>
      <trkpt lat="47.24057" lon="-2.27022">
        <ele>64</ele>
        <time>2019-09-08T08:01:35Z</time>
      </trkpt>
      <trkpt lat="47.24054" lon="-2.27014">
        <ele>63</ele>
        <time>2019-09-08T08:01:37Z</time>
      </trkpt>
      <trkpt lat="47.24051" lon="-2.27006">
        <ele>63</ele>
        <time>2019-09-08T08:01:38Z</time>
      </trkpt>
      <trkpt lat="47.2403" lon="-2.26996">
        <ele>63</ele>
        <time>2019-09-08T08:01:41Z</time>
      </trkpt>
      <trkpt lat="47.24026" lon="-2.26993">
        <ele>64</ele>
        <time>2019-09-08T08:01:43Z</time>
      </trkpt>
      <trkpt lat="47.24013" lon="-2.26978">
        <ele>63</ele>
        <time>2019-09-08T08:01:46Z</time>
      </trkpt>
      <trkpt lat="47.2401" lon="-2.26975">
        <ele>63</ele>
        <time>2019-09-08T08:01:47Z</time>
      </trkpt>
      <trkpt lat="47.24005" lon="-2.26967">
        <ele>63</ele>
        <time>2019-09-08T08:01:50Z</time>
      </trkpt>
      <trkpt lat="47.23993" lon="-2.26959">
        <ele>63</ele>
        <time>2019-09-08T08:01:53Z</time>
      </trkpt>
      <trkpt lat="47.23989" lon="-2.26955">
        <ele>64</ele>
        <time>2019-09-08T08:01:54Z</time>
      </trkpt>
      <trkpt lat="47.23983" lon="-2.26952">
        <ele>64</ele>
        <time>2019-09-08T08:01:55Z</time>
      </trkpt>
      <trkpt lat="47.23978" lon="-2.2695">
        <ele>64</ele>
        <time>2019-09-08T08:01:56Z</time>
      </trkpt>
      <trkpt lat="47.23973" lon="-2.26947">
        <ele>64</ele>
        <time>2019-09-08T08:01:57Z</time>
      </trkpt>
      <trkpt lat="47.23965" lon="-2.26942">
        <ele>63</ele>
        <time>2019-09-08T08:01:59Z</time>
      </trkpt>
      <trkpt lat="47.23961" lon="-2.26938">
        <ele>64</ele>
        <time>2019-09-08T08:02:00Z</time>
      </trkpt>
      <trkpt lat="47.23957" lon="-2.26934">
        <ele>64</ele>
        <time>2019-09-08T08:02:01Z</time>
      </trkpt>
      <trkpt lat="47.23953" lon="-2.2693">
        <ele>64</ele>
        <time>2019-09-08T08:02:02Z</time>
      </trkpt>
      <trkpt lat="47.2395" lon="-2.26926">
        <ele>65</ele>
        <time>2019-09-08T08:02:03Z</time>
      </trkpt>
      <trkpt lat="47.23945" lon="-2.26918">
        <ele>65</ele>
        <time>2019-09-08T08:02:05Z</time>
      </trkpt>
      <trkpt lat="47.23943" lon="-2.26907">
        <ele>65</ele>
        <time>2019-09-08T08:02:07Z</time>
      </trkpt>
      <trkpt lat="47.23939" lon="-2.26899">
        <ele>65</ele>
        <time>2019-09-08T08:02:09Z</time>
      </trkpt>
      <trkpt lat="47.23933" lon="-2.26896">
        <ele>65</ele>
        <time>2019-09-08T08:02:11Z</time>
      </trkpt>
      <trkpt lat="47.2393" lon="-2.26894">
        <ele>65</ele>
        <time>2019-09-08T08:02:12Z</time>
      </trkpt>
      <trkpt lat="47.23923" lon="-2.2689">
        <ele>65</ele>
        <time>2019-09-08T08:02:14Z</time>
      </trkpt>
      <trkpt lat="47.23919" lon="-2.26888">
        <ele>65</ele>
        <time>2019-09-08T08:02:15Z</time>
      </trkpt>
      <trkpt lat="47.2391" lon="-2.26885">
        <ele>65</ele>
        <time>2019-09-08T08:02:17Z</time>
      </trkpt>
      <trkpt lat="47.23907" lon="-2.26884">
        <ele>65</ele>
        <time>2019-09-08T08:02:18Z</time>
      </trkpt>
      <trkpt lat="47.23903" lon="-2.26882">
        <ele>66</ele>
        <time>2019-09-08T08:02:19Z</time>
      </trkpt>
      <trkpt lat="47.23899" lon="-2.26881">
        <ele>66</ele>
        <time>2019-09-08T08:02:20Z</time>
      </trkpt>
      <trkpt lat="47.23894" lon="-2.2688">
        <ele>66</ele>
        <time>2019-09-08T08:02:21Z</time>
      </trkpt>
      <trkpt lat="47.23886" lon="-2.26877">
        <ele>66</ele>
        <time>2019-09-08T08:02:23Z</time>
      </trkpt>
      <trkpt lat="47.23882" lon="-2.26876">
        <ele>66</ele>
        <time>2019-09-08T08:02:24Z</time>
      </trkpt>
      <trkpt lat="47.23878" lon="-2.26876">
        <ele>66</ele>
        <time>2019-09-08T08:02:25Z</time>
      </trkpt>
      <trkpt lat="47.23866" lon="-2.26857">
        <ele>66</ele>
        <time>2019-09-08T08:02:31Z</time>
      </trkpt>
      <trkpt lat="47.23869" lon="-2.26847">
        <ele>65</ele>
        <time>2019-09-08T08:02:33Z</time>
      </trkpt>
      <trkpt lat="47.23874" lon="-2.26841">
        <ele>66</ele>
        <time>2019-09-08T08:02:35Z</time>
      </trkpt>
      <trkpt lat="47.23881" lon="-2.26839">
        <ele>65</ele>
        <time>2019-09-08T08:02:37Z</time>
      </trkpt>
      <trkpt lat="47.23888" lon="-2.26838">
        <ele>66</ele>
        <time>2019-09-08T08:02:39Z</time>
      </trkpt>
      <trkpt lat="47.23897" lon="-2.26826">
        <ele>66</ele>
        <time>2019-09-08T08:02:43Z</time>
      </trkpt>
      <trkpt lat="47.23898" lon="-2.26816">
        <ele>66</ele>
        <time>2019-09-08T08:02:45Z</time>
      </trkpt>
      <trkpt lat="47.23894" lon="-2.268">
        <ele>66</ele>
        <time>2019-09-08T08:02:48Z</time>
      </trkpt>
      <trkpt lat="47.23892" lon="-2.26794">
        <ele>66</ele>
        <time>2019-09-08T08:02:50Z</time>
      </trkpt>
      <trkpt lat="47.23892" lon="-2.26783">
        <ele>65</ele>
        <time>2019-09-08T08:02:52Z</time>
      </trkpt>
      <trkpt lat="47.23895" lon="-2.26773">
        <ele>65</ele>
        <time>2019-09-08T08:02:54Z</time>
      </trkpt>
      <trkpt lat="47.23902" lon="-2.26766">
        <ele>66</ele>
        <time>2019-09-08T08:02:56Z</time>
      </trkpt>
      <trkpt lat="47.23905" lon="-2.26763">
        <ele>66</ele>
        <time>2019-09-08T08:02:57Z</time>
      </trkpt>
      <trkpt lat="47.23908" lon="-2.26759">
        <ele>66</ele>
        <time>2019-09-08T08:02:58Z</time>
      </trkpt>
      <trkpt lat="47.23912" lon="-2.26756">
        <ele>66</ele>
        <time>2019-09-08T08:02:59Z</time>
      </trkpt>
      <trkpt lat="47.23921" lon="-2.26755">
        <ele>66</ele>
        <time>2019-09-08T08:03:01Z</time>
      </trkpt>
      <trkpt lat="47.23929" lon="-2.26757">
        <ele>67</ele>
        <time>2019-09-08T08:03:03Z</time>
      </trkpt>
      <trkpt lat="47.23934" lon="-2.26763">
        <ele>68</ele>
        <time>2019-09-08T08:03:05Z</time>
      </trkpt>
      <trkpt lat="47.23937" lon="-2.26765">
        <ele>68</ele>
        <time>2019-09-08T08:03:06Z</time>
      </trkpt>
      <trkpt lat="47.2394" lon="-2.26768">
        <ele>68</ele>
        <time>2019-09-08T08:03:07Z</time>
      </trkpt>
      <trkpt lat="47.23947" lon="-2.26773">
        <ele>68</ele>
        <time>2019-09-08T08:03:09Z</time>
      </trkpt>
      <trkpt lat="47.2395" lon="-2.26775">
        <ele>68</ele>
        <time>2019-09-08T08:03:10Z</time>
      </trkpt>
      <trkpt lat="47.23953" lon="-2.26776">
        <ele>68</ele>
        <time>2019-09-08T08:03:11Z</time>
      </trkpt>
      <trkpt lat="47.23956" lon="-2.26778">
        <ele>68</ele>
        <time>2019-09-08T08:03:12Z</time>
      </trkpt>
      <trkpt lat="47.23959" lon="-2.26779">
        <ele>69</ele>
        <time>2019-09-08T08:03:13Z</time>
      </trkpt>
      <trkpt lat="47.23964" lon="-2.26781">
        <ele>69</ele>
        <time>2019-09-08T08:03:15Z</time>
      </trkpt>
      <trkpt lat="47.23969" lon="-2.26775">
        <ele>69</ele>
        <time>2019-09-08T08:03:18Z</time>
      </trkpt>
      <trkpt lat="47.23969" lon="-2.26767">
        <ele>69</ele>
        <time>2019-09-08T08:03:20Z</time>
      </trkpt>
      <trkpt lat="47.23964" lon="-2.26759">
        <ele>68</ele>
        <time>2019-09-08T08:03:22Z</time>
      </trkpt>
      <trkpt lat="47.23959" lon="-2.26751">
        <ele>68</ele>
        <time>2019-09-08T08:03:24Z</time>
      </trkpt>
      <trkpt lat="47.23956" lon="-2.26745">
        <ele>68</ele>
        <time>2019-09-08T08:03:26Z</time>
      </trkpt>
      <trkpt lat="47.23957" lon="-2.26737">
        <ele>68</ele>
        <time>2019-09-08T08:03:29Z</time>
      </trkpt>
      <trkpt lat="47.23966" lon="-2.26737">
        <ele>68</ele>
        <time>2019-09-08T08:03:32Z</time>
      </trkpt>
      <trkpt lat="47.23974" lon="-2.26738">
        <ele>69</ele>
        <time>2019-09-08T08:03:34Z</time>
      </trkpt>
      <trkpt lat="47.23981" lon="-2.26738">
        <ele>69</ele>
        <time>2019-09-08T08:03:36Z</time>
      </trkpt>
      <trkpt lat="47.23985" lon="-2.26739">
        <ele>69</ele>
        <time>2019-09-08T08:03:37Z</time>
      </trkpt>
      <trkpt lat="47.23989" lon="-2.26738">
        <ele>69</ele>
        <time>2019-09-08T08:03:38Z</time>
      </trkpt>
      <trkpt lat="47.23997" lon="-2.2674">
        <ele>70</ele>
        <time>2019-09-08T08:03:40Z</time>
      </trkpt>
      <trkpt lat="47.24001" lon="-2.2674">
        <ele>71</ele>
        <time>2019-09-08T08:03:41Z</time>
      </trkpt>
      <trkpt lat="47.24004" lon="-2.26741">
        <ele>71</ele>
        <time>2019-09-08T08:03:42Z</time>
      </trkpt>
      <trkpt lat="47.24011" lon="-2.2674">
        <ele>72</ele>
        <time>2019-09-08T08:03:44Z</time>
      </trkpt>
      <trkpt lat="47.24015" lon="-2.26739">
        <ele>72</ele>
        <time>2019-09-08T08:03:45Z</time>
      </trkpt>
      <trkpt lat="47.24018" lon="-2.26738">
        <ele>72</ele>
        <time>2019-09-08T08:03:46Z</time>
      </trkpt>
      <trkpt lat="47.24022" lon="-2.26738">
        <ele>72</ele>
        <time>2019-09-08T08:03:47Z</time>
      </trkpt>
      <trkpt lat="47.24033" lon="-2.26732">
        <ele>72</ele>
        <time>2019-09-08T08:03:49Z</time>
      </trkpt>
      <trkpt lat="47.24047" lon="-2.26723">
        <ele>72</ele>
        <time>2019-09-08T08:03:53Z</time>
      </trkpt>
      <trkpt lat="47.24053" lon="-2.26718">
        <ele>73</ele>
        <time>2019-09-08T08:03:55Z</time>
      </trkpt>
      <trkpt lat="47.24058" lon="-2.26712">
        <ele>73</ele>
        <time>2019-09-08T08:03:57Z</time>
      </trkpt>
      <trkpt lat="47.24063" lon="-2.26706">
        <ele>73</ele>
        <time>2019-09-08T08:04:00Z</time>
      </trkpt>
      <trkpt lat="47.2407" lon="-2.26697">
        <ele>74</ele>
        <time>2019-09-08T08:04:03Z</time>
      </trkpt>
      <trkpt lat="47.24074" lon="-2.2669">
        <ele>74</ele>
        <time>2019-09-08T08:04:05Z</time>
      </trkpt>
      <trkpt lat="47.24078" lon="-2.26682">
        <ele>74</ele>
        <time>2019-09-08T08:04:07Z</time>
      </trkpt>
      <trkpt lat="47.24081" lon="-2.26674">
        <ele>75</ele>
        <time>2019-09-08T08:04:08Z</time>
      </trkpt>
      <trkpt lat="47.24084" lon="-2.26667">
        <ele>75</ele>
        <time>2019-09-08T08:04:10Z</time>
      </trkpt>
      <trkpt lat="47.24086" lon="-2.26663">
        <ele>75</ele>
        <time>2019-09-08T08:04:11Z</time>
      </trkpt>
      <trkpt lat="47.2409" lon="-2.26656">
        <ele>75</ele>
        <time>2019-09-08T08:04:14Z</time>
      </trkpt>
      <trkpt lat="47.24095" lon="-2.26655">
        <ele>75</ele>
        <time>2019-09-08T08:04:15Z</time>
      </trkpt>
      <trkpt lat="47.241" lon="-2.26656">
        <ele>75</ele>
        <time>2019-09-08T08:04:17Z</time>
      </trkpt>
      <trkpt lat="47.24104" lon="-2.26655">
        <ele>75</ele>
        <time>2019-09-08T08:04:20Z</time>
      </trkpt>
      <trkpt lat="47.24108" lon="-2.26647">
        <ele>76</ele>
        <time>2019-09-08T08:04:22Z</time>
      </trkpt>
      <trkpt lat="47.24112" lon="-2.26641">
        <ele>75</ele>
        <time>2019-09-08T08:04:25Z</time>
      </trkpt>
      <trkpt lat="47.24117" lon="-2.26643">
        <ele>75</ele>
        <time>2019-09-08T08:04:28Z</time>
      </trkpt>
      <trkpt lat="47.24124" lon="-2.26626">
        <ele>75</ele>
        <time>2019-09-08T08:04:32Z</time>
      </trkpt>
      <trkpt lat="47.24126" lon="-2.26621">
        <ele>74</ele>
        <time>2019-09-08T08:04:33Z</time>
      </trkpt>
      <trkpt lat="47.24131" lon="-2.26604">
        <ele>74</ele>
        <time>2019-09-08T08:04:36Z</time>
      </trkpt>
      <trkpt lat="47.24134" lon="-2.26599">
        <ele>74</ele>
        <time>2019-09-08T08:04:38Z</time>
      </trkpt>
      <trkpt lat="47.24135" lon="-2.26592">
        <ele>73</ele>
        <time>2019-09-08T08:04:41Z</time>
      </trkpt>
      <trkpt lat="47.24136" lon="-2.26586">
        <ele>73</ele>
        <time>2019-09-08T08:04:43Z</time>
      </trkpt>
      <trkpt lat="47.2414" lon="-2.26581">
        <ele>73</ele>
        <time>2019-09-08T08:04:46Z</time>
      </trkpt>
      <trkpt lat="47.24149" lon="-2.26582">
        <ele>73</ele>
        <time>2019-09-08T08:04:50Z</time>
      </trkpt>
      <trkpt lat="47.24151" lon="-2.26583">
        <ele>73</ele>
        <time>2019-09-08T08:04:51Z</time>
      </trkpt>
      <trkpt lat="47.24158" lon="-2.26586">
        <ele>74</ele>
        <time>2019-09-08T08:04:54Z</time>
      </trkpt>
      <trkpt lat="47.24158" lon="-2.26595">
        <ele>74</ele>
        <time>2019-09-08T08:04:57Z</time>
      </trkpt>
      <trkpt lat="47.24158" lon="-2.26601">
        <ele>75</ele>
        <time>2019-09-08T08:04:59Z</time>
      </trkpt>
      <trkpt lat="47.24156" lon="-2.26609">
        <ele>75</ele>
        <time>2019-09-08T08:05:02Z</time>
      </trkpt>
      <trkpt lat="47.24158" lon="-2.26617">
        <ele>75</ele>
        <time>2019-09-08T08:05:05Z</time>
      </trkpt>
      <trkpt lat="47.24167" lon="-2.26618">
        <ele>76</ele>
        <time>2019-09-08T08:05:08Z</time>
      </trkpt>
      <trkpt lat="47.24174" lon="-2.26618">
        <ele>77</ele>
        <time>2019-09-08T08:05:10Z</time>
      </trkpt>
      <trkpt lat="47.24186" lon="-2.26622">
        <ele>78</ele>
        <time>2019-09-08T08:05:13Z</time>
      </trkpt>
      <trkpt lat="47.24194" lon="-2.26625">
        <ele>79</ele>
        <time>2019-09-08T08:05:15Z</time>
      </trkpt>
      <trkpt lat="47.24197" lon="-2.26627">
        <ele>79</ele>
        <time>2019-09-08T08:05:16Z</time>
      </trkpt>
      <trkpt lat="47.24201" lon="-2.26628">
        <ele>79</ele>
        <time>2019-09-08T08:05:17Z</time>
      </trkpt>
      <trkpt lat="47.24206" lon="-2.2663">
        <ele>79</ele>
        <time>2019-09-08T08:05:19Z</time>
      </trkpt>
      <trkpt lat="47.24209" lon="-2.2663">
        <ele>79</ele>
        <time>2019-09-08T08:05:20Z</time>
      </trkpt>
      <trkpt lat="47.24218" lon="-2.26632">
        <ele>80</ele>
        <time>2019-09-08T08:05:23Z</time>
      </trkpt>
      <trkpt lat="47.24223" lon="-2.26629">
        <ele>80</ele>
        <time>2019-09-08T08:05:25Z</time>
      </trkpt>
      <trkpt lat="47.2423" lon="-2.26623">
        <ele>80</ele>
        <time>2019-09-08T08:05:27Z</time>
      </trkpt>
      <trkpt lat="47.24234" lon="-2.26618">
        <ele>80</ele>
        <time>2019-09-08T08:05:28Z</time>
      </trkpt>
      <trkpt lat="47.24239" lon="-2.26614">
        <ele>80</ele>
        <time>2019-09-08T08:05:29Z</time>
      </trkpt>
      <trkpt lat="47.24243" lon="-2.2661">
        <ele>79</ele>
        <time>2019-09-08T08:05:30Z</time>
      </trkpt>
      <trkpt lat="47.24248" lon="-2.26605">
        <ele>79</ele>
        <time>2019-09-08T08:05:31Z</time>
      </trkpt>
      <trkpt lat="47.24252" lon="-2.26601">
        <ele>79</ele>
        <time>2019-09-08T08:05:32Z</time>
      </trkpt>
      <trkpt lat="47.24256" lon="-2.26596">
        <ele>79</ele>
        <time>2019-09-08T08:05:33Z</time>
      </trkpt>
      <trkpt lat="47.24261" lon="-2.26592">
        <ele>79</ele>
        <time>2019-09-08T08:05:34Z</time>
      </trkpt>
      <trkpt lat="47.24266" lon="-2.26587">
        <ele>79</ele>
        <time>2019-09-08T08:05:35Z</time>
      </trkpt>
      <trkpt lat="47.24275" lon="-2.26579">
        <ele>79</ele>
        <time>2019-09-08T08:05:37Z</time>
      </trkpt>
      <trkpt lat="47.24279" lon="-2.26574">
        <ele>79</ele>
        <time>2019-09-08T08:05:38Z</time>
      </trkpt>
      <trkpt lat="47.24284" lon="-2.2657">
        <ele>79</ele>
        <time>2019-09-08T08:05:39Z</time>
      </trkpt>
      <trkpt lat="47.24289" lon="-2.26565">
        <ele>79</ele>
        <time>2019-09-08T08:05:40Z</time>
      </trkpt>
      <trkpt lat="47.24294" lon="-2.2656">
        <ele>78</ele>
        <time>2019-09-08T08:05:41Z</time>
      </trkpt>
      <trkpt lat="47.24315" lon="-2.26542">
        <ele>79</ele>
        <time>2019-09-08T08:05:45Z</time>
      </trkpt>
      <trkpt lat="47.24321" lon="-2.26538">
        <ele>79</ele>
        <time>2019-09-08T08:05:46Z</time>
      </trkpt>
      <trkpt lat="47.24326" lon="-2.26533">
        <ele>79</ele>
        <time>2019-09-08T08:05:47Z</time>
      </trkpt>
      <trkpt lat="47.24341" lon="-2.26518">
        <ele>78</ele>
        <time>2019-09-08T08:05:50Z</time>
      </trkpt>
      <trkpt lat="47.24351" lon="-2.2651">
        <ele>78</ele>
        <time>2019-09-08T08:05:52Z</time>
      </trkpt>
      <trkpt lat="47.24356" lon="-2.26505">
        <ele>78</ele>
        <time>2019-09-08T08:05:53Z</time>
      </trkpt>
      <trkpt lat="47.24362" lon="-2.265">
        <ele>78</ele>
        <time>2019-09-08T08:05:54Z</time>
      </trkpt>
      <trkpt lat="47.24367" lon="-2.26496">
        <ele>78</ele>
        <time>2019-09-08T08:05:55Z</time>
      </trkpt>
      <trkpt lat="47.24372" lon="-2.26492">
        <ele>78</ele>
        <time>2019-09-08T08:05:56Z</time>
      </trkpt>
      <trkpt lat="47.24395" lon="-2.26478">
        <ele>79</ele>
        <time>2019-09-08T08:06:00Z</time>
      </trkpt>
      <trkpt lat="47.24416" lon="-2.26463">
        <ele>79</ele>
        <time>2019-09-08T08:06:04Z</time>
      </trkpt>
      <trkpt lat="47.24422" lon="-2.26461">
        <ele>80</ele>
        <time>2019-09-08T08:06:05Z</time>
      </trkpt>
      <trkpt lat="47.24427" lon="-2.26457">
        <ele>80</ele>
        <time>2019-09-08T08:06:06Z</time>
      </trkpt>
      <trkpt lat="47.24433" lon="-2.26453">
        <ele>80</ele>
        <time>2019-09-08T08:06:07Z</time>
      </trkpt>
      <trkpt lat="47.24438" lon="-2.26449">
        <ele>80</ele>
        <time>2019-09-08T08:06:08Z</time>
      </trkpt>
      <trkpt lat="47.24444" lon="-2.26445">
        <ele>79</ele>
        <time>2019-09-08T08:06:09Z</time>
      </trkpt>
      <trkpt lat="47.2445" lon="-2.26442">
        <ele>79</ele>
        <time>2019-09-08T08:06:10Z</time>
      </trkpt>
      <trkpt lat="47.24456" lon="-2.26438">
        <ele>80</ele>
        <time>2019-09-08T08:06:11Z</time>
      </trkpt>
      <trkpt lat="47.24467" lon="-2.26432">
        <ele>80</ele>
        <time>2019-09-08T08:06:13Z</time>
      </trkpt>
      <trkpt lat="47.24478" lon="-2.26426">
        <ele>80</ele>
        <time>2019-09-08T08:06:15Z</time>
      </trkpt>
      <trkpt lat="47.24484" lon="-2.26424">
        <ele>80</ele>
        <time>2019-09-08T08:06:16Z</time>
      </trkpt>
      <trkpt lat="47.2449" lon="-2.2642">
        <ele>80</ele>
        <time>2019-09-08T08:06:17Z</time>
      </trkpt>
      <trkpt lat="47.24496" lon="-2.26417">
        <ele>80</ele>
        <time>2019-09-08T08:06:18Z</time>
      </trkpt>
      <trkpt lat="47.24501" lon="-2.26414">
        <ele>79</ele>
        <time>2019-09-08T08:06:19Z</time>
      </trkpt>
      <trkpt lat="47.24507" lon="-2.26412">
        <ele>79</ele>
        <time>2019-09-08T08:06:20Z</time>
      </trkpt>
      <trkpt lat="47.24513" lon="-2.2641">
        <ele>79</ele>
        <time>2019-09-08T08:06:21Z</time>
      </trkpt>
      <trkpt lat="47.24531" lon="-2.26403">
        <ele>79</ele>
        <time>2019-09-08T08:06:24Z</time>
      </trkpt>
      <trkpt lat="47.24537" lon="-2.264">
        <ele>79</ele>
        <time>2019-09-08T08:06:25Z</time>
      </trkpt>
      <trkpt lat="47.24543" lon="-2.26397">
        <ele>79</ele>
        <time>2019-09-08T08:06:26Z</time>
      </trkpt>
      <trkpt lat="47.24549" lon="-2.26393">
        <ele>79</ele>
        <time>2019-09-08T08:06:27Z</time>
      </trkpt>
      <trkpt lat="47.24556" lon="-2.26389">
        <ele>79</ele>
        <time>2019-09-08T08:06:28Z</time>
      </trkpt>
      <trkpt lat="47.24562" lon="-2.26386">
        <ele>79</ele>
        <time>2019-09-08T08:06:29Z</time>
      </trkpt>
      <trkpt lat="47.24569" lon="-2.26384">
        <ele>78</ele>
        <time>2019-09-08T08:06:30Z</time>
      </trkpt>
      <trkpt lat="47.24575" lon="-2.26382">
        <ele>78</ele>
        <time>2019-09-08T08:06:31Z</time>
      </trkpt>
      <trkpt lat="47.24582" lon="-2.2638">
        <ele>78</ele>
        <time>2019-09-08T08:06:32Z</time>
      </trkpt>
      <trkpt lat="47.246" lon="-2.26377">
        <ele>78</ele>
        <time>2019-09-08T08:06:35Z</time>
      </trkpt>
      <trkpt lat="47.24606" lon="-2.26377">
        <ele>78</ele>
        <time>2019-09-08T08:06:36Z</time>
      </trkpt>
      <trkpt lat="47.24613" lon="-2.26376">
        <ele>78</ele>
        <time>2019-09-08T08:06:37Z</time>
      </trkpt>
      <trkpt lat="47.2462" lon="-2.26377">
        <ele>78</ele>
        <time>2019-09-08T08:06:38Z</time>
      </trkpt>
      <trkpt lat="47.24626" lon="-2.26378">
        <ele>78</ele>
        <time>2019-09-08T08:06:39Z</time>
      </trkpt>
      <trkpt lat="47.24638" lon="-2.2638">
        <ele>78</ele>
        <time>2019-09-08T08:06:41Z</time>
      </trkpt>
      <trkpt lat="47.24644" lon="-2.26382">
        <ele>79</ele>
        <time>2019-09-08T08:06:42Z</time>
      </trkpt>
      <trkpt lat="47.2465" lon="-2.26384">
        <ele>79</ele>
        <time>2019-09-08T08:06:43Z</time>
      </trkpt>
      <trkpt lat="47.24656" lon="-2.26387">
        <ele>79</ele>
        <time>2019-09-08T08:06:44Z</time>
      </trkpt>
      <trkpt lat="47.24663" lon="-2.2639">
        <ele>79</ele>
        <time>2019-09-08T08:06:45Z</time>
      </trkpt>
      <trkpt lat="47.24669" lon="-2.26393">
        <ele>79</ele>
        <time>2019-09-08T08:06:46Z</time>
      </trkpt>
      <trkpt lat="47.24675" lon="-2.26396">
        <ele>79</ele>
        <time>2019-09-08T08:06:47Z</time>
      </trkpt>
      <trkpt lat="47.24687" lon="-2.26402">
        <ele>79</ele>
        <time>2019-09-08T08:06:49Z</time>
      </trkpt>
      <trkpt lat="47.24692" lon="-2.26404">
        <ele>79</ele>
        <time>2019-09-08T08:06:50Z</time>
      </trkpt>
      <trkpt lat="47.24699" lon="-2.26404">
        <ele>79</ele>
        <time>2019-09-08T08:06:51Z</time>
      </trkpt>
      <trkpt lat="47.24705" lon="-2.26403">
        <ele>79</ele>
        <time>2019-09-08T08:06:52Z</time>
      </trkpt>
      <trkpt lat="47.24711" lon="-2.26404">
        <ele>79</ele>
        <time>2019-09-08T08:06:53Z</time>
      </trkpt>
      <trkpt lat="47.24716" lon="-2.26406">
        <ele>79</ele>
        <time>2019-09-08T08:06:54Z</time>
      </trkpt>
      <trkpt lat="47.24722" lon="-2.26409">
        <ele>79</ele>
        <time>2019-09-08T08:06:55Z</time>
      </trkpt>
      <trkpt lat="47.24739" lon="-2.26417">
        <ele>79</ele>
        <time>2019-09-08T08:06:58Z</time>
      </trkpt>
      <trkpt lat="47.24744" lon="-2.26419">
        <ele>79</ele>
        <time>2019-09-08T08:06:59Z</time>
      </trkpt>
      <trkpt lat="47.24749" lon="-2.26423">
        <ele>80</ele>
        <time>2019-09-08T08:07:00Z</time>
      </trkpt>
      <trkpt lat="47.24754" lon="-2.26427">
        <ele>80</ele>
        <time>2019-09-08T08:07:01Z</time>
      </trkpt>
      <trkpt lat="47.24759" lon="-2.26431">
        <ele>80</ele>
        <time>2019-09-08T08:07:02Z</time>
      </trkpt>
      <trkpt lat="47.24764" lon="-2.26436">
        <ele>81</ele>
        <time>2019-09-08T08:07:03Z</time>
      </trkpt>
      <trkpt lat="47.24769" lon="-2.2644">
        <ele>81</ele>
        <time>2019-09-08T08:07:04Z</time>
      </trkpt>
      <trkpt lat="47.24775" lon="-2.26443">
        <ele>81</ele>
        <time>2019-09-08T08:07:05Z</time>
      </trkpt>
      <trkpt lat="47.2478" lon="-2.26446">
        <ele>81</ele>
        <time>2019-09-08T08:07:06Z</time>
      </trkpt>
      <trkpt lat="47.24786" lon="-2.26447">
        <ele>81</ele>
        <time>2019-09-08T08:07:07Z</time>
      </trkpt>
      <trkpt lat="47.24792" lon="-2.2645">
        <ele>81</ele>
        <time>2019-09-08T08:07:08Z</time>
      </trkpt>
      <trkpt lat="47.24798" lon="-2.26452">
        <ele>81</ele>
        <time>2019-09-08T08:07:09Z</time>
      </trkpt>
      <trkpt lat="47.24804" lon="-2.26454">
        <ele>82</ele>
        <time>2019-09-08T08:07:10Z</time>
      </trkpt>
      <trkpt lat="47.2481" lon="-2.26455">
        <ele>82</ele>
        <time>2019-09-08T08:07:11Z</time>
      </trkpt>
      <trkpt lat="47.24816" lon="-2.26455">
        <ele>81</ele>
        <time>2019-09-08T08:07:12Z</time>
      </trkpt>
      <trkpt lat="47.24822" lon="-2.26455">
        <ele>81</ele>
        <time>2019-09-08T08:07:13Z</time>
      </trkpt>
      <trkpt lat="47.24833" lon="-2.26454">
        <ele>82</ele>
        <time>2019-09-08T08:07:15Z</time>
      </trkpt>
      <trkpt lat="47.24839" lon="-2.26454">
        <ele>81</ele>
        <time>2019-09-08T08:07:16Z</time>
      </trkpt>
      <trkpt lat="47.24845" lon="-2.26454">
        <ele>81</ele>
        <time>2019-09-08T08:07:17Z</time>
      </trkpt>
      <trkpt lat="47.2485" lon="-2.26453">
        <ele>81</ele>
        <time>2019-09-08T08:07:18Z</time>
      </trkpt>
      <trkpt lat="47.24856" lon="-2.26451">
        <ele>81</ele>
        <time>2019-09-08T08:07:19Z</time>
      </trkpt>
      <trkpt lat="47.24861" lon="-2.26449">
        <ele>81</ele>
        <time>2019-09-08T08:07:20Z</time>
      </trkpt>
      <trkpt lat="47.24867" lon="-2.26448">
        <ele>81</ele>
        <time>2019-09-08T08:07:21Z</time>
      </trkpt>
      <trkpt lat="47.24872" lon="-2.26447">
        <ele>80</ele>
        <time>2019-09-08T08:07:22Z</time>
      </trkpt>
      <trkpt lat="47.24882" lon="-2.26443">
        <ele>81</ele>
        <time>2019-09-08T08:07:24Z</time>
      </trkpt>
      <trkpt lat="47.24897" lon="-2.26439">
        <ele>82</ele>
        <time>2019-09-08T08:07:27Z</time>
      </trkpt>
      <trkpt lat="47.24902" lon="-2.26438">
        <ele>82</ele>
        <time>2019-09-08T08:07:28Z</time>
      </trkpt>
      <trkpt lat="47.24908" lon="-2.26436">
        <ele>81</ele>
        <time>2019-09-08T08:07:29Z</time>
      </trkpt>
      <trkpt lat="47.24912" lon="-2.26435">
        <ele>81</ele>
        <time>2019-09-08T08:07:30Z</time>
      </trkpt>
      <trkpt lat="47.24917" lon="-2.26434">
        <ele>81</ele>
        <time>2019-09-08T08:07:31Z</time>
      </trkpt>
      <trkpt lat="47.24926" lon="-2.2643">
        <ele>81</ele>
        <time>2019-09-08T08:07:33Z</time>
      </trkpt>
      <trkpt lat="47.2493" lon="-2.26428">
        <ele>81</ele>
        <time>2019-09-08T08:07:34Z</time>
      </trkpt>
      <trkpt lat="47.24935" lon="-2.26427">
        <ele>81</ele>
        <time>2019-09-08T08:07:35Z</time>
      </trkpt>
      <trkpt lat="47.24945" lon="-2.26427">
        <ele>81</ele>
        <time>2019-09-08T08:07:37Z</time>
      </trkpt>
      <trkpt lat="47.24952" lon="-2.26426">
        <ele>82</ele>
        <time>2019-09-08T08:07:39Z</time>
      </trkpt>
      <trkpt lat="47.24959" lon="-2.26419">
        <ele>83</ele>
        <time>2019-09-08T08:07:41Z</time>
      </trkpt>
      <trkpt lat="47.24963" lon="-2.26415">
        <ele>84</ele>
        <time>2019-09-08T08:07:42Z</time>
      </trkpt>
      <trkpt lat="47.24967" lon="-2.26404">
        <ele>84</ele>
        <time>2019-09-08T08:07:44Z</time>
      </trkpt>
      <trkpt lat="47.24975" lon="-2.26397">
        <ele>84</ele>
        <time>2019-09-08T08:07:46Z</time>
      </trkpt>
      <trkpt lat="47.2498" lon="-2.26391">
        <ele>85</ele>
        <time>2019-09-08T08:07:47Z</time>
      </trkpt>
      <trkpt lat="47.24985" lon="-2.26387">
        <ele>84</ele>
        <time>2019-09-08T08:07:48Z</time>
      </trkpt>
      <trkpt lat="47.24996" lon="-2.26377">
        <ele>84</ele>
        <time>2019-09-08T08:07:50Z</time>
      </trkpt>
      <trkpt lat="47.25001" lon="-2.26373">
        <ele>84</ele>
        <time>2019-09-08T08:07:51Z</time>
      </trkpt>
      <trkpt lat="47.25007" lon="-2.2637">
        <ele>84</ele>
        <time>2019-09-08T08:07:52Z</time>
      </trkpt>
      <trkpt lat="47.25013" lon="-2.26366">
        <ele>84</ele>
        <time>2019-09-08T08:07:53Z</time>
      </trkpt>
      <trkpt lat="47.25107" lon="-2.26365">
        <ele>372</ele>
        <time>2019-09-08T08:08:19Z</time>
      </trkpt>
      <trkpt lat="47.2511" lon="-2.26342">
        <ele>357</ele>
        <time>2019-09-08T08:08:20Z</time>
      </trkpt>
      <trkpt lat="47.25099" lon="-2.26254">
        <ele>263</ele>
        <time>2019-09-08T08:08:25Z</time>
      </trkpt>
      <trkpt lat="47.25096" lon="-2.26245">
        <ele>248</ele>
        <time>2019-09-08T08:08:26Z</time>
      </trkpt>
      <trkpt lat="47.25076" lon="-2.26196">
        <ele>182</ele>
        <time>2019-09-08T08:08:31Z</time>
      </trkpt>
      <trkpt lat="47.25069" lon="-2.26147">
        <ele>160</ele>
        <time>2019-09-08T08:08:35Z</time>
      </trkpt>
      <trkpt lat="47.2507" lon="-2.26137">
        <ele>159</ele>
        <time>2019-09-08T08:08:36Z</time>
      </trkpt>
      <trkpt lat="47.25071" lon="-2.26127">
        <ele>159</ele>
        <time>2019-09-08T08:08:37Z</time>
      </trkpt>
      <trkpt lat="47.25075" lon="-2.26116">
        <ele>158</ele>
        <time>2019-09-08T08:08:38Z</time>
      </trkpt>
      <trkpt lat="47.25078" lon="-2.26106">
        <ele>157</ele>
        <time>2019-09-08T08:08:39Z</time>
      </trkpt>
      <trkpt lat="47.2508" lon="-2.26085">
        <ele>156</ele>
        <time>2019-09-08T08:08:41Z</time>
      </trkpt>
      <trkpt lat="47.25078" lon="-2.26038">
        <ele>153</ele>
        <time>2019-09-08T08:08:44Z</time>
      </trkpt>
      <trkpt lat="47.25077" lon="-2.26024">
        <ele>153</ele>
        <time>2019-09-08T08:08:45Z</time>
      </trkpt>
      <trkpt lat="47.2508" lon="-2.25987">
        <ele>153</ele>
        <time>2019-09-08T08:08:48Z</time>
      </trkpt>
      <trkpt lat="47.25081" lon="-2.25975">
        <ele>154</ele>
        <time>2019-09-08T08:08:49Z</time>
      </trkpt>
      <trkpt lat="47.25082" lon="-2.25965">
        <ele>148</ele>
        <time>2019-09-08T08:08:50Z</time>
      </trkpt>
      <trkpt lat="47.25078" lon="-2.25948">
        <ele>141</ele>
        <time>2019-09-08T08:08:52Z</time>
      </trkpt>
      <trkpt lat="47.25075" lon="-2.2594">
        <ele>139</ele>
        <time>2019-09-08T08:08:53Z</time>
      </trkpt>
      <trkpt lat="47.25069" lon="-2.2592">
        <ele>130</ele>
        <time>2019-09-08T08:08:56Z</time>
      </trkpt>
      <trkpt lat="47.25065" lon="-2.25906">
        <ele>119</ele>
        <time>2019-09-08T08:08:58Z</time>
      </trkpt>
      <trkpt lat="47.25061" lon="-2.25896">
        <ele>114</ele>
        <time>2019-09-08T08:09:00Z</time>
      </trkpt>
      <trkpt lat="47.25056" lon="-2.25891">
        <ele>110</ele>
        <time>2019-09-08T08:09:02Z</time>
      </trkpt>
      <trkpt lat="47.2505" lon="-2.25889">
        <ele>107</ele>
        <time>2019-09-08T08:09:04Z</time>
      </trkpt>
      <trkpt lat="47.25044" lon="-2.25893">
        <ele>102</ele>
        <time>2019-09-08T08:09:06Z</time>
      </trkpt>
      <trkpt lat="47.25038" lon="-2.25903">
        <ele>99</ele>
        <time>2019-09-08T08:09:08Z</time>
      </trkpt>
      <trkpt lat="47.25035" lon="-2.25909">
        <ele>98</ele>
        <time>2019-09-08T08:09:09Z</time>
      </trkpt>
      <trkpt lat="47.25033" lon="-2.25914">
        <ele>97</ele>
        <time>2019-09-08T08:09:10Z</time>
      </trkpt>
      <trkpt lat="47.2503" lon="-2.25925">
        <ele>95</ele>
        <time>2019-09-08T08:09:12Z</time>
      </trkpt>
      <trkpt lat="47.25027" lon="-2.25935">
        <ele>95</ele>
        <time>2019-09-08T08:09:14Z</time>
      </trkpt>
      <trkpt lat="47.25024" lon="-2.25943">
        <ele>96</ele>
        <time>2019-09-08T08:09:16Z</time>
      </trkpt>
      <trkpt lat="47.25024" lon="-2.2595">
        <ele>95</ele>
        <time>2019-09-08T08:09:18Z</time>
      </trkpt>
      <trkpt lat="47.25029" lon="-2.25954">
        <ele>94</ele>
        <time>2019-09-08T08:09:21Z</time>
      </trkpt>
      <trkpt lat="47.25034" lon="-2.25952">
        <ele>93</ele>
        <time>2019-09-08T08:09:24Z</time>
      </trkpt>
      <trkpt lat="47.25037" lon="-2.25952">
        <ele>92</ele>
        <time>2019-09-08T08:09:26Z</time>
      </trkpt>
      <trkpt lat="47.25039" lon="-2.25951">
        <ele>91</ele>
        <time>2019-09-08T08:09:28Z</time>
      </trkpt>
      <trkpt lat="47.25042" lon="-2.25951">
        <ele>90</ele>
        <time>2019-09-08T08:09:31Z</time>
      </trkpt>
      <trkpt lat="47.25042" lon="-2.25951">
        <ele>22.7</ele>
        <time>2019-09-08T08:09:38Z</time>
      </trkpt>
      <trkpt lat="47.25042" lon="-2.25951">
        <ele>22.7</ele>
        <time>2019-09-08T08:10:13Z</time>
      </trkpt>
      <trkpt lat="47.25062" lon="-2.25923">
        <ele>82</ele>
        <time>2019-09-08T08:10:13Z</time>
      </trkpt>
      <trkpt lat="47.25076" lon="-2.25851">
        <ele>77</ele>
        <time>2019-09-08T08:10:19Z</time>
      </trkpt>
      <trkpt lat="47.25079" lon="-2.25843">
        <ele>75</ele>
        <time>2019-09-08T08:10:20Z</time>
      </trkpt>
      <trkpt lat="47.25081" lon="-2.25836">
        <ele>75</ele>
        <time>2019-09-08T08:10:21Z</time>
      </trkpt>
      <trkpt lat="47.25083" lon="-2.25828">
        <ele>75</ele>
        <time>2019-09-08T08:10:23Z</time>
      </trkpt>
      <trkpt lat="47.2508" lon="-2.2582">
        <ele>77</ele>
        <time>2019-09-08T08:10:26Z</time>
      </trkpt>
      <trkpt lat="47.25078" lon="-2.25813">
        <ele>86</ele>
        <time>2019-09-08T08:10:28Z</time>
      </trkpt>
      <trkpt lat="47.25076" lon="-2.25801">
        <ele>90</ele>
        <time>2019-09-08T08:10:30Z</time>
      </trkpt>
      <trkpt lat="47.25076" lon="-2.25794">
        <ele>92</ele>
        <time>2019-09-08T08:10:31Z</time>
      </trkpt>
      <trkpt lat="47.25079" lon="-2.25774">
        <ele>94</ele>
        <time>2019-09-08T08:10:33Z</time>
      </trkpt>
      <trkpt lat="47.25079" lon="-2.25764">
        <ele>91</ele>
        <time>2019-09-08T08:10:34Z</time>
      </trkpt>
      <trkpt lat="47.25079" lon="-2.25754">
        <ele>91</ele>
        <time>2019-09-08T08:10:35Z</time>
      </trkpt>
      <trkpt lat="47.25083" lon="-2.25737">
        <ele>89</ele>
        <time>2019-09-08T08:10:37Z</time>
      </trkpt>
      <trkpt lat="47.25085" lon="-2.25727">
        <ele>89</ele>
        <time>2019-09-08T08:10:38Z</time>
      </trkpt>
      <trkpt lat="47.25084" lon="-2.2572">
        <ele>87</ele>
        <time>2019-09-08T08:10:39Z</time>
      </trkpt>
      <trkpt lat="47.25084" lon="-2.25716">
        <ele>84</ele>
        <time>2019-09-08T08:10:40Z</time>
      </trkpt>
      <trkpt lat="47.25084" lon="-2.25706">
        <ele>83</ele>
        <time>2019-09-08T08:10:42Z</time>
      </trkpt>
      <trkpt lat="47.25083" lon="-2.25701">
        <ele>82</ele>
        <time>2019-09-08T08:10:43Z</time>
      </trkpt>
      <trkpt lat="47.25081" lon="-2.25691">
        <ele>80</ele>
        <time>2019-09-08T08:10:45Z</time>
      </trkpt>
      <trkpt lat="47.25083" lon="-2.25675">
        <ele>75</ele>
        <time>2019-09-08T08:10:48Z</time>
      </trkpt>
      <trkpt lat="47.25085" lon="-2.25662">
        <ele>70</ele>
        <time>2019-09-08T08:10:50Z</time>
      </trkpt>
      <trkpt lat="47.25087" lon="-2.25653">
        <ele>68</ele>
        <time>2019-09-08T08:10:52Z</time>
      </trkpt>
      <trkpt lat="47.25088" lon="-2.25645">
        <ele>67</ele>
        <time>2019-09-08T08:10:56Z</time>
      </trkpt>
      <trkpt lat="47.25089" lon="-2.25637">
        <ele>65</ele>
        <time>2019-09-08T08:10:58Z</time>
      </trkpt>
      <trkpt lat="47.25088" lon="-2.25622">
        <ele>63</ele>
        <time>2019-09-08T08:11:01Z</time>
      </trkpt>
      <trkpt lat="47.25083" lon="-2.25612">
        <ele>62</ele>
        <time>2019-09-08T08:11:05Z</time>
      </trkpt>
      <trkpt lat="47.25083" lon="-2.25612">
        <ele>6</ele>
        <time>2019-09-08T08:11:11Z</time>
      </trkpt>
      <trkpt lat="47.25083" lon="-2.25612">
        <ele>6</ele>
        <time>2019-09-08T08:11:18Z</time>
      </trkpt>
      <trkpt lat="47.25082" lon="-2.25604">
        <ele>60</ele>
        <time>2019-09-08T08:11:18Z</time>
      </trkpt>
      <trkpt lat="47.25082" lon="-2.25604">
        <ele>60</ele>
        <time>2019-09-08T08:13:24Z</time>
      </trkpt>
      <trkpt lat="47.25084" lon="-2.25619">
        <ele>55</ele>
        <time>2019-09-08T08:14:01Z</time>
      </trkpt>
      <trkpt lat="47.2509" lon="-2.25622">
        <ele>56</ele>
        <time>2019-09-08T08:14:05Z</time>
      </trkpt>
      <trkpt lat="47.25091" lon="-2.2563">
        <ele>56</ele>
        <time>2019-09-08T08:14:08Z</time>
      </trkpt>
      <trkpt lat="47.25089" lon="-2.25642">
        <ele>57</ele>
        <time>2019-09-08T08:14:12Z</time>
      </trkpt>
      <trkpt lat="47.25088" lon="-2.25648">
        <ele>57</ele>
        <time>2019-09-08T08:14:15Z</time>
      </trkpt>
      <trkpt lat="47.25087" lon="-2.25659">
        <ele>57</ele>
        <time>2019-09-08T08:14:18Z</time>
      </trkpt>
      <trkpt lat="47.25087" lon="-2.25665">
        <ele>57</ele>
        <time>2019-09-08T08:14:20Z</time>
      </trkpt>
      <trkpt lat="47.25089" lon="-2.25679">
        <ele>58</ele>
        <time>2019-09-08T08:14:24Z</time>
      </trkpt>
      <trkpt lat="47.25089" lon="-2.25686">
        <ele>57</ele>
        <time>2019-09-08T08:14:26Z</time>
      </trkpt>
      <trkpt lat="47.25087" lon="-2.257">
        <ele>58</ele>
        <time>2019-09-08T08:14:29Z</time>
      </trkpt>
      <trkpt lat="47.25086" lon="-2.25717">
        <ele>58</ele>
        <time>2019-09-08T08:14:33Z</time>
      </trkpt>
      <trkpt lat="47.25083" lon="-2.2573">
        <ele>58</ele>
        <time>2019-09-08T08:14:35Z</time>
      </trkpt>
      <trkpt lat="47.25082" lon="-2.25752">
        <ele>59</ele>
        <time>2019-09-08T08:14:39Z</time>
      </trkpt>
      <trkpt lat="47.25082" lon="-2.25764">
        <ele>61</ele>
        <time>2019-09-08T08:14:41Z</time>
      </trkpt>
      <trkpt lat="47.25082" lon="-2.2577">
        <ele>61</ele>
        <time>2019-09-08T08:14:42Z</time>
      </trkpt>
      <trkpt lat="47.25082" lon="-2.25775">
        <ele>61</ele>
        <time>2019-09-08T08:14:43Z</time>
      </trkpt>
      <trkpt lat="47.25082" lon="-2.25781">
        <ele>61</ele>
        <time>2019-09-08T08:14:44Z</time>
      </trkpt>
      <trkpt lat="47.25083" lon="-2.25792">
        <ele>61</ele>
        <time>2019-09-08T08:14:46Z</time>
      </trkpt>
      <trkpt lat="47.25083" lon="-2.25802">
        <ele>61</ele>
        <time>2019-09-08T08:14:48Z</time>
      </trkpt>
      <trkpt lat="47.25081" lon="-2.25813">
        <ele>62</ele>
        <time>2019-09-08T08:14:51Z</time>
      </trkpt>
      <trkpt lat="47.25079" lon="-2.2582">
        <ele>62</ele>
        <time>2019-09-08T08:14:54Z</time>
      </trkpt>
      <trkpt lat="47.25077" lon="-2.25829">
        <ele>63</ele>
        <time>2019-09-08T08:14:56Z</time>
      </trkpt>
      <trkpt lat="47.25075" lon="-2.2584">
        <ele>63</ele>
        <time>2019-09-08T08:14:58Z</time>
      </trkpt>
      <trkpt lat="47.25074" lon="-2.25845">
        <ele>63</ele>
        <time>2019-09-08T08:14:59Z</time>
      </trkpt>
      <trkpt lat="47.25073" lon="-2.2585">
        <ele>63</ele>
        <time>2019-09-08T08:15:00Z</time>
      </trkpt>
      <trkpt lat="47.25072" lon="-2.25867">
        <ele>63</ele>
        <time>2019-09-08T08:15:03Z</time>
      </trkpt>
      <trkpt lat="47.2507" lon="-2.25877">
        <ele>63</ele>
        <time>2019-09-08T08:15:05Z</time>
      </trkpt>
      <trkpt lat="47.2507" lon="-2.25881">
        <ele>64</ele>
        <time>2019-09-08T08:15:06Z</time>
      </trkpt>
      <trkpt lat="47.25068" lon="-2.25896">
        <ele>64</ele>
        <time>2019-09-08T08:15:09Z</time>
      </trkpt>
      <trkpt lat="47.25066" lon="-2.25903">
        <ele>65</ele>
        <time>2019-09-08T08:15:11Z</time>
      </trkpt>
      <trkpt lat="47.25065" lon="-2.25907">
        <ele>65</ele>
        <time>2019-09-08T08:15:12Z</time>
      </trkpt>
      <trkpt lat="47.25064" lon="-2.25915">
        <ele>65</ele>
        <time>2019-09-08T08:15:14Z</time>
      </trkpt>
      <trkpt lat="47.25062" lon="-2.25926">
        <ele>66</ele>
        <time>2019-09-08T08:15:16Z</time>
      </trkpt>
      <trkpt lat="47.25061" lon="-2.25936">
        <ele>66</ele>
        <time>2019-09-08T08:15:18Z</time>
      </trkpt>
      <trkpt lat="47.2506" lon="-2.25942">
        <ele>66</ele>
        <time>2019-09-08T08:15:19Z</time>
      </trkpt>
      <trkpt lat="47.25059" lon="-2.25948">
        <ele>66</ele>
        <time>2019-09-08T08:15:20Z</time>
      </trkpt>
      <trkpt lat="47.25059" lon="-2.25956">
        <ele>67</ele>
        <time>2019-09-08T08:15:22Z</time>
      </trkpt>
      <trkpt lat="47.2506" lon="-2.25965">
        <ele>67</ele>
        <time>2019-09-08T08:15:24Z</time>
      </trkpt>
      <trkpt lat="47.2506" lon="-2.25973">
        <ele>68</ele>
        <time>2019-09-08T08:15:27Z</time>
      </trkpt>
      <trkpt lat="47.2506" lon="-2.25979">
        <ele>68</ele>
        <time>2019-09-08T08:15:28Z</time>
      </trkpt>
      <trkpt lat="47.25058" lon="-2.25988">
        <ele>68</ele>
        <time>2019-09-08T08:15:30Z</time>
      </trkpt>
      <trkpt lat="47.25057" lon="-2.25999">
        <ele>68</ele>
        <time>2019-09-08T08:15:33Z</time>
      </trkpt>
      <trkpt lat="47.25057" lon="-2.26008">
        <ele>69</ele>
        <time>2019-09-08T08:15:35Z</time>
      </trkpt>
      <trkpt lat="47.25058" lon="-2.26021">
        <ele>70</ele>
        <time>2019-09-08T08:15:37Z</time>
      </trkpt>
      <trkpt lat="47.25057" lon="-2.26029">
        <ele>70</ele>
        <time>2019-09-08T08:15:39Z</time>
      </trkpt>
      <trkpt lat="47.25057" lon="-2.26033">
        <ele>71</ele>
        <time>2019-09-08T08:15:40Z</time>
      </trkpt>
      <trkpt lat="47.25056" lon="-2.26042">
        <ele>71</ele>
        <time>2019-09-08T08:15:42Z</time>
      </trkpt>
      <trkpt lat="47.25055" lon="-2.26046">
        <ele>72</ele>
        <time>2019-09-08T08:15:43Z</time>
      </trkpt>
      <trkpt lat="47.25055" lon="-2.26052">
        <ele>71</ele>
        <time>2019-09-08T08:15:44Z</time>
      </trkpt>
      <trkpt lat="47.25052" lon="-2.2606">
        <ele>71</ele>
        <time>2019-09-08T08:15:46Z</time>
      </trkpt>
      <trkpt lat="47.25051" lon="-2.26065">
        <ele>71</ele>
        <time>2019-09-08T08:15:47Z</time>
      </trkpt>
      <trkpt lat="47.25048" lon="-2.26083">
        <ele>74</ele>
        <time>2019-09-08T08:15:52Z</time>
      </trkpt>
      <trkpt lat="47.25048" lon="-2.26094">
        <ele>75</ele>
        <time>2019-09-08T08:15:55Z</time>
      </trkpt>
      <trkpt lat="47.25051" lon="-2.26101">
        <ele>78</ele>
        <time>2019-09-08T08:15:58Z</time>
      </trkpt>
      <trkpt lat="47.25055" lon="-2.26105">
        <ele>80</ele>
        <time>2019-09-08T08:16:00Z</time>
      </trkpt>
      <trkpt lat="47.25063" lon="-2.26112">
        <ele>80</ele>
        <time>2019-09-08T08:16:03Z</time>
      </trkpt>
      <trkpt lat="47.25065" lon="-2.26113">
        <ele>81</ele>
        <time>2019-09-08T08:16:04Z</time>
      </trkpt>
      <trkpt lat="47.25073" lon="-2.26115">
        <ele>82</ele>
        <time>2019-09-08T08:16:08Z</time>
      </trkpt>
      <trkpt lat="47.25077" lon="-2.26104">
        <ele>82</ele>
        <time>2019-09-08T08:16:12Z</time>
      </trkpt>
      <trkpt lat="47.2508" lon="-2.26095">
        <ele>81</ele>
        <time>2019-09-08T08:16:14Z</time>
      </trkpt>
      <trkpt lat="47.25082" lon="-2.26083">
        <ele>81</ele>
        <time>2019-09-08T08:16:16Z</time>
      </trkpt>
      <trkpt lat="47.25084" lon="-2.26076">
        <ele>80</ele>
        <time>2019-09-08T08:16:17Z</time>
      </trkpt>
      <trkpt lat="47.25086" lon="-2.26069">
        <ele>80</ele>
        <time>2019-09-08T08:16:18Z</time>
      </trkpt>
      <trkpt lat="47.25087" lon="-2.26063">
        <ele>80</ele>
        <time>2019-09-08T08:16:19Z</time>
      </trkpt>
      <trkpt lat="47.25089" lon="-2.26055">
        <ele>80</ele>
        <time>2019-09-08T08:16:20Z</time>
      </trkpt>
      <trkpt lat="47.25091" lon="-2.26046">
        <ele>81</ele>
        <time>2019-09-08T08:16:21Z</time>
      </trkpt>
      <trkpt lat="47.25092" lon="-2.26038">
        <ele>80</ele>
        <time>2019-09-08T08:16:22Z</time>
      </trkpt>
      <trkpt lat="47.25094" lon="-2.2603">
        <ele>80</ele>
        <time>2019-09-08T08:16:23Z</time>
      </trkpt>
      <trkpt lat="47.25096" lon="-2.26021">
        <ele>79</ele>
        <time>2019-09-08T08:16:24Z</time>
      </trkpt>
      <trkpt lat="47.25101" lon="-2.26003">
        <ele>78</ele>
        <time>2019-09-08T08:16:26Z</time>
      </trkpt>
      <trkpt lat="47.25103" lon="-2.25994">
        <ele>77</ele>
        <time>2019-09-08T08:16:27Z</time>
      </trkpt>
      <trkpt lat="47.25105" lon="-2.25986">
        <ele>78</ele>
        <time>2019-09-08T08:16:28Z</time>
      </trkpt>
      <trkpt lat="47.25107" lon="-2.25979">
        <ele>78</ele>
        <time>2019-09-08T08:16:29Z</time>
      </trkpt>
      <trkpt lat="47.25117" lon="-2.2596">
        <ele>78</ele>
        <time>2019-09-08T08:16:32Z</time>
      </trkpt>
      <trkpt lat="47.25121" lon="-2.25954">
        <ele>79</ele>
        <time>2019-09-08T08:16:33Z</time>
      </trkpt>
      <trkpt lat="47.25124" lon="-2.25949">
        <ele>79</ele>
        <time>2019-09-08T08:16:34Z</time>
      </trkpt>
      <trkpt lat="47.25128" lon="-2.25944">
        <ele>79</ele>
        <time>2019-09-08T08:16:35Z</time>
      </trkpt>
      <trkpt lat="47.25132" lon="-2.25939">
        <ele>79</ele>
        <time>2019-09-08T08:16:36Z</time>
      </trkpt>
      <trkpt lat="47.25135" lon="-2.25934">
        <ele>79</ele>
        <time>2019-09-08T08:16:37Z</time>
      </trkpt>
      <trkpt lat="47.25138" lon="-2.2593">
        <ele>79</ele>
        <time>2019-09-08T08:16:38Z</time>
      </trkpt>
      <trkpt lat="47.25142" lon="-2.25925">
        <ele>79</ele>
        <time>2019-09-08T08:16:39Z</time>
      </trkpt>
      <trkpt lat="47.25145" lon="-2.2592">
        <ele>79</ele>
        <time>2019-09-08T08:16:40Z</time>
      </trkpt>
      <trkpt lat="47.25147" lon="-2.25915">
        <ele>78</ele>
        <time>2019-09-08T08:16:41Z</time>
      </trkpt>
      <trkpt lat="47.25155" lon="-2.25897">
        <ele>78</ele>
        <time>2019-09-08T08:16:44Z</time>
      </trkpt>
      <trkpt lat="47.25156" lon="-2.2589">
        <ele>78</ele>
        <time>2019-09-08T08:16:45Z</time>
      </trkpt>
      <trkpt lat="47.25161" lon="-2.25874">
        <ele>77</ele>
        <time>2019-09-08T08:16:47Z</time>
      </trkpt>
      <trkpt lat="47.25165" lon="-2.25859">
        <ele>77</ele>
        <time>2019-09-08T08:16:50Z</time>
      </trkpt>
      <trkpt lat="47.25166" lon="-2.25852">
        <ele>77</ele>
        <time>2019-09-08T08:16:51Z</time>
      </trkpt>
      <trkpt lat="47.25167" lon="-2.25844">
        <ele>77</ele>
        <time>2019-09-08T08:16:52Z</time>
      </trkpt>
      <trkpt lat="47.25168" lon="-2.25836">
        <ele>77</ele>
        <time>2019-09-08T08:16:53Z</time>
      </trkpt>
      <trkpt lat="47.2517" lon="-2.25822">
        <ele>77</ele>
        <time>2019-09-08T08:16:55Z</time>
      </trkpt>
      <trkpt lat="47.25172" lon="-2.25815">
        <ele>77</ele>
        <time>2019-09-08T08:16:56Z</time>
      </trkpt>
      <trkpt lat="47.25174" lon="-2.25808">
        <ele>77</ele>
        <time>2019-09-08T08:16:57Z</time>
      </trkpt>
      <trkpt lat="47.2518" lon="-2.25799">
        <ele>77</ele>
        <time>2019-09-08T08:16:59Z</time>
      </trkpt>
      <trkpt lat="47.25185" lon="-2.25797">
        <ele>77</ele>
        <time>2019-09-08T08:17:00Z</time>
      </trkpt>
      <trkpt lat="47.25189" lon="-2.25795">
        <ele>77</ele>
        <time>2019-09-08T08:17:01Z</time>
      </trkpt>
      <trkpt lat="47.25195" lon="-2.25795">
        <ele>77</ele>
        <time>2019-09-08T08:17:02Z</time>
      </trkpt>
      <trkpt lat="47.252" lon="-2.25795">
        <ele>77</ele>
        <time>2019-09-08T08:17:03Z</time>
      </trkpt>
      <trkpt lat="47.25204" lon="-2.25795">
        <ele>77</ele>
        <time>2019-09-08T08:17:04Z</time>
      </trkpt>
      <trkpt lat="47.25209" lon="-2.25795">
        <ele>77</ele>
        <time>2019-09-08T08:17:05Z</time>
      </trkpt>
      <trkpt lat="47.25216" lon="-2.25796">
        <ele>77</ele>
        <time>2019-09-08T08:17:07Z</time>
      </trkpt>
      <trkpt lat="47.25225" lon="-2.25788">
        <ele>77</ele>
        <time>2019-09-08T08:17:10Z</time>
      </trkpt>
      <trkpt lat="47.25227" lon="-2.25772">
        <ele>77</ele>
        <time>2019-09-08T08:17:12Z</time>
      </trkpt>
      <trkpt lat="47.25228" lon="-2.25765">
        <ele>77</ele>
        <time>2019-09-08T08:17:13Z</time>
      </trkpt>
      <trkpt lat="47.2523" lon="-2.25754">
        <ele>77</ele>
        <time>2019-09-08T08:17:15Z</time>
      </trkpt>
      <trkpt lat="47.25233" lon="-2.25741">
        <ele>80</ele>
        <time>2019-09-08T08:17:18Z</time>
      </trkpt>
      <trkpt lat="47.25238" lon="-2.25734">
        <ele>80</ele>
        <time>2019-09-08T08:17:20Z</time>
      </trkpt>
      <trkpt lat="47.25268" lon="-2.25649">
        <ele>193</ele>
        <time>2019-09-08T08:17:38Z</time>
      </trkpt>
      <trkpt lat="47.25258" lon="-2.256">
        <ele>181</ele>
        <time>2019-09-08T08:17:41Z</time>
      </trkpt>
      <trkpt lat="47.25261" lon="-2.25585">
        <ele>175</ele>
        <time>2019-09-08T08:17:42Z</time>
      </trkpt>
      <trkpt lat="47.25258" lon="-2.25568">
        <ele>167</ele>
        <time>2019-09-08T08:17:43Z</time>
      </trkpt>
      <trkpt lat="47.2526" lon="-2.25539">
        <ele>153</ele>
        <time>2019-09-08T08:17:46Z</time>
      </trkpt>
      <trkpt lat="47.25257" lon="-2.2552">
        <ele>146</ele>
        <time>2019-09-08T08:17:48Z</time>
      </trkpt>
      <trkpt lat="47.25249" lon="-2.25508">
        <ele>135</ele>
        <time>2019-09-08T08:17:50Z</time>
      </trkpt>
      <trkpt lat="47.25251" lon="-2.25492">
        <ele>126</ele>
        <time>2019-09-08T08:17:52Z</time>
      </trkpt>
      <trkpt lat="47.2525" lon="-2.25485">
        <ele>122</ele>
        <time>2019-09-08T08:17:53Z</time>
      </trkpt>
      <trkpt lat="47.25245" lon="-2.25476">
        <ele>113</ele>
        <time>2019-09-08T08:17:55Z</time>
      </trkpt>
      <trkpt lat="47.2524" lon="-2.2547">
        <ele>99</ele>
        <time>2019-09-08T08:17:58Z</time>
      </trkpt>
      <trkpt lat="47.25236" lon="-2.25466">
        <ele>94</ele>
        <time>2019-09-08T08:18:03Z</time>
      </trkpt>
      <trkpt lat="47.2524" lon="-2.25453">
        <ele>91</ele>
        <time>2019-09-08T08:18:07Z</time>
      </trkpt>
      <trkpt lat="47.25241" lon="-2.2544">
        <ele>86</ele>
        <time>2019-09-08T08:18:09Z</time>
      </trkpt>
      <trkpt lat="47.25244" lon="-2.25429">
        <ele>85</ele>
        <time>2019-09-08T08:18:11Z</time>
      </trkpt>
      <trkpt lat="47.2525" lon="-2.2542">
        <ele>81</ele>
        <time>2019-09-08T08:18:13Z</time>
      </trkpt>
      <trkpt lat="47.25252" lon="-2.25417">
        <ele>80</ele>
        <time>2019-09-08T08:18:14Z</time>
      </trkpt>
      <trkpt lat="47.25258" lon="-2.25412">
        <ele>80</ele>
        <time>2019-09-08T08:18:16Z</time>
      </trkpt>
      <trkpt lat="47.25265" lon="-2.25414">
        <ele>79</ele>
        <time>2019-09-08T08:18:21Z</time>
      </trkpt>
      <trkpt lat="47.25269" lon="-2.25409">
        <ele>79</ele>
        <time>2019-09-08T08:18:23Z</time>
      </trkpt>
      <trkpt lat="47.2527" lon="-2.25403">
        <ele>79</ele>
        <time>2019-09-08T08:18:25Z</time>
      </trkpt>
      <trkpt lat="47.25271" lon="-2.25393">
        <ele>78</ele>
        <time>2019-09-08T08:18:27Z</time>
      </trkpt>
      <trkpt lat="47.25273" lon="-2.25385">
        <ele>77</ele>
        <time>2019-09-08T08:18:29Z</time>
      </trkpt>
      <trkpt lat="47.25276" lon="-2.25379">
        <ele>76</ele>
        <time>2019-09-08T08:18:31Z</time>
      </trkpt>
      <trkpt lat="47.25282" lon="-2.25391">
        <ele>74</ele>
        <time>2019-09-08T08:18:36Z</time>
      </trkpt>
      <trkpt lat="47.25286" lon="-2.25397">
        <ele>73</ele>
        <time>2019-09-08T08:18:38Z</time>
      </trkpt>
      <trkpt lat="47.25291" lon="-2.25403">
        <ele>73</ele>
        <time>2019-09-08T08:18:40Z</time>
      </trkpt>
      <trkpt lat="47.25297" lon="-2.25406">
        <ele>73</ele>
        <time>2019-09-08T08:18:42Z</time>
      </trkpt>
      <trkpt lat="47.25304" lon="-2.25411">
        <ele>72</ele>
        <time>2019-09-08T08:18:44Z</time>
      </trkpt>
      <trkpt lat="47.25316" lon="-2.2542">
        <ele>71</ele>
        <time>2019-09-08T08:18:48Z</time>
      </trkpt>
      <trkpt lat="47.25321" lon="-2.25427">
        <ele>71</ele>
        <time>2019-09-08T08:18:51Z</time>
      </trkpt>
      <trkpt lat="47.2532" lon="-2.25435">
        <ele>71</ele>
        <time>2019-09-08T08:18:53Z</time>
      </trkpt>
      <trkpt lat="47.2532" lon="-2.25449">
        <ele>71</ele>
        <time>2019-09-08T08:18:56Z</time>
      </trkpt>
      <trkpt lat="47.2532" lon="-2.25461">
        <ele>72</ele>
        <time>2019-09-08T08:18:59Z</time>
      </trkpt>
      <trkpt lat="47.25321" lon="-2.25465">
        <ele>72</ele>
        <time>2019-09-08T08:19:00Z</time>
      </trkpt>
      <trkpt lat="47.25321" lon="-2.25471">
        <ele>72</ele>
        <time>2019-09-08T08:19:02Z</time>
      </trkpt>
      <trkpt lat="47.25321" lon="-2.25479">
        <ele>72</ele>
        <time>2019-09-08T08:19:04Z</time>
      </trkpt>
      <trkpt lat="47.25322" lon="-2.25488">
        <ele>72</ele>
        <time>2019-09-08T08:19:06Z</time>
      </trkpt>
      <trkpt lat="47.25322" lon="-2.25497">
        <ele>73</ele>
        <time>2019-09-08T08:19:08Z</time>
      </trkpt>
      <trkpt lat="47.25322" lon="-2.25504">
        <ele>73</ele>
        <time>2019-09-08T08:19:10Z</time>
      </trkpt>
      <trkpt lat="47.25322" lon="-2.25514">
        <ele>73</ele>
        <time>2019-09-08T08:19:13Z</time>
      </trkpt>
      <trkpt lat="47.25322" lon="-2.25518">
        <ele>73</ele>
        <time>2019-09-08T08:19:14Z</time>
      </trkpt>
      <trkpt lat="47.25322" lon="-2.25521">
        <ele>73</ele>
        <time>2019-09-08T08:19:15Z</time>
      </trkpt>
      <trkpt lat="47.25323" lon="-2.25528">
        <ele>73</ele>
        <time>2019-09-08T08:19:17Z</time>
      </trkpt>
      <trkpt lat="47.25323" lon="-2.25536">
        <ele>74</ele>
        <time>2019-09-08T08:19:19Z</time>
      </trkpt>
      <trkpt lat="47.25323" lon="-2.2554">
        <ele>74</ele>
        <time>2019-09-08T08:19:20Z</time>
      </trkpt>
      <trkpt lat="47.25323" lon="-2.25552">
        <ele>74</ele>
        <time>2019-09-08T08:19:23Z</time>
      </trkpt>
      <trkpt lat="47.25323" lon="-2.25556">
        <ele>74</ele>
        <time>2019-09-08T08:19:24Z</time>
      </trkpt>
      <trkpt lat="47.25324" lon="-2.25562">
        <ele>75</ele>
        <time>2019-09-08T08:19:26Z</time>
      </trkpt>
      <trkpt lat="47.25325" lon="-2.2557">
        <ele>75</ele>
        <time>2019-09-08T08:19:28Z</time>
      </trkpt>
      <trkpt lat="47.25326" lon="-2.25577">
        <ele>75</ele>
        <time>2019-09-08T08:19:30Z</time>
      </trkpt>
      <trkpt lat="47.25327" lon="-2.25583">
        <ele>75</ele>
        <time>2019-09-08T08:19:32Z</time>
      </trkpt>
      <trkpt lat="47.25328" lon="-2.25587">
        <ele>76</ele>
        <time>2019-09-08T08:19:33Z</time>
      </trkpt>
      <trkpt lat="47.25328" lon="-2.25593">
        <ele>76</ele>
        <time>2019-09-08T08:19:35Z</time>
      </trkpt>
      <trkpt lat="47.25333" lon="-2.25595">
        <ele>91</ele>
        <time>2019-09-08T08:19:39Z</time>
      </trkpt>
      <trkpt lat="47.25333" lon="-2.25603">
        <ele>93</ele>
        <time>2019-09-08T08:19:41Z</time>
      </trkpt>
      <trkpt lat="47.25335" lon="-2.25614">
        <ele>93</ele>
        <time>2019-09-08T08:19:43Z</time>
      </trkpt>
      <trkpt lat="47.25335" lon="-2.25623">
        <ele>93</ele>
        <time>2019-09-08T08:19:44Z</time>
      </trkpt>
      <trkpt lat="47.25338" lon="-2.25631">
        <ele>92</ele>
        <time>2019-09-08T08:19:45Z</time>
      </trkpt>
      <trkpt lat="47.25343" lon="-2.25649">
        <ele>91</ele>
        <time>2019-09-08T08:19:47Z</time>
      </trkpt>
      <trkpt lat="47.25344" lon="-2.2566">
        <ele>92</ele>
        <time>2019-09-08T08:19:49Z</time>
      </trkpt>
      <trkpt lat="47.25344" lon="-2.25672">
        <ele>92</ele>
        <time>2019-09-08T08:19:51Z</time>
      </trkpt>
      <trkpt lat="47.25345" lon="-2.25681">
        <ele>91</ele>
        <time>2019-09-08T08:19:52Z</time>
      </trkpt>
      <trkpt lat="47.25344" lon="-2.25688">
        <ele>91</ele>
        <time>2019-09-08T08:19:53Z</time>
      </trkpt>
      <trkpt lat="47.25344" lon="-2.25696">
        <ele>90</ele>
        <time>2019-09-08T08:19:54Z</time>
      </trkpt>
      <trkpt lat="47.25344" lon="-2.25708">
        <ele>91</ele>
        <time>2019-09-08T08:19:56Z</time>
      </trkpt>
      <trkpt lat="47.25343" lon="-2.25714">
        <ele>91</ele>
        <time>2019-09-08T08:19:57Z</time>
      </trkpt>
      <trkpt lat="47.25344" lon="-2.25728">
        <ele>89</ele>
        <time>2019-09-08T08:19:59Z</time>
      </trkpt>
      <trkpt lat="47.25343" lon="-2.25735">
        <ele>89</ele>
        <time>2019-09-08T08:20:00Z</time>
      </trkpt>
      <trkpt lat="47.25342" lon="-2.2575">
        <ele>89</ele>
        <time>2019-09-08T08:20:03Z</time>
      </trkpt>
      <trkpt lat="47.25343" lon="-2.25757">
        <ele>89</ele>
        <time>2019-09-08T08:20:05Z</time>
      </trkpt>
      <trkpt lat="47.25345" lon="-2.25764">
        <ele>89</ele>
        <time>2019-09-08T08:20:07Z</time>
      </trkpt>
      <trkpt lat="47.25345" lon="-2.25771">
        <ele>90</ele>
        <time>2019-09-08T08:20:09Z</time>
      </trkpt>
      <trkpt lat="47.25348" lon="-2.25784">
        <ele>89</ele>
        <time>2019-09-08T08:20:13Z</time>
      </trkpt>
      <trkpt lat="47.25348" lon="-2.25788">
        <ele>89</ele>
        <time>2019-09-08T08:20:15Z</time>
      </trkpt>
      <trkpt lat="47.25346" lon="-2.25797">
        <ele>88</ele>
        <time>2019-09-08T08:20:18Z</time>
      </trkpt>
      <trkpt lat="47.25344" lon="-2.25806">
        <ele>88</ele>
        <time>2019-09-08T08:20:20Z</time>
      </trkpt>
      <trkpt lat="47.2534" lon="-2.25813">
        <ele>88</ele>
        <time>2019-09-08T08:20:23Z</time>
      </trkpt>
      <trkpt lat="47.25338" lon="-2.25824">
        <ele>88</ele>
        <time>2019-09-08T08:20:27Z</time>
      </trkpt>
      <trkpt lat="47.25336" lon="-2.25834">
        <ele>88</ele>
        <time>2019-09-08T08:20:30Z</time>
      </trkpt>
      <trkpt lat="47.25332" lon="-2.25841">
        <ele>88</ele>
        <time>2019-09-08T08:20:32Z</time>
      </trkpt>
      <trkpt lat="47.2533" lon="-2.25847">
        <ele>88</ele>
        <time>2019-09-08T08:20:34Z</time>
      </trkpt>
      <trkpt lat="47.25328" lon="-2.25855">
        <ele>88</ele>
        <time>2019-09-08T08:20:36Z</time>
      </trkpt>
      <trkpt lat="47.25328" lon="-2.25859">
        <ele>88</ele>
        <time>2019-09-08T08:20:37Z</time>
      </trkpt>
      <trkpt lat="47.25328" lon="-2.25866">
        <ele>87</ele>
        <time>2019-09-08T08:20:40Z</time>
      </trkpt>
      <trkpt lat="47.25328" lon="-2.2587">
        <ele>87</ele>
        <time>2019-09-08T08:20:41Z</time>
      </trkpt>
      <trkpt lat="47.25327" lon="-2.25874">
        <ele>87</ele>
        <time>2019-09-08T08:20:42Z</time>
      </trkpt>
      <trkpt lat="47.25329" lon="-2.25884">
        <ele>87</ele>
        <time>2019-09-08T08:20:44Z</time>
      </trkpt>
      <trkpt lat="47.2533" lon="-2.25892">
        <ele>88</ele>
        <time>2019-09-08T08:20:46Z</time>
      </trkpt>
      <trkpt lat="47.25333" lon="-2.25898">
        <ele>87</ele>
        <time>2019-09-08T08:20:48Z</time>
      </trkpt>
      <trkpt lat="47.25335" lon="-2.25906">
        <ele>86</ele>
        <time>2019-09-08T08:20:51Z</time>
      </trkpt>
      <trkpt lat="47.25335" lon="-2.25909">
        <ele>86</ele>
        <time>2019-09-08T08:20:56Z</time>
      </trkpt>
      <trkpt lat="47.25337" lon="-2.25914">
        <ele>86</ele>
        <time>2019-09-08T08:21:18Z</time>
      </trkpt>
      <trkpt lat="47.25338" lon="-2.25924">
        <ele>86</ele>
        <time>2019-09-08T08:21:21Z</time>
      </trkpt>
      <trkpt lat="47.25338" lon="-2.25932">
        <ele>87</ele>
        <time>2019-09-08T08:21:23Z</time>
      </trkpt>
      <trkpt lat="47.25338" lon="-2.25941">
        <ele>87</ele>
        <time>2019-09-08T08:21:25Z</time>
      </trkpt>
      <trkpt lat="47.25336" lon="-2.2595">
        <ele>88</ele>
        <time>2019-09-08T08:21:27Z</time>
      </trkpt>
      <trkpt lat="47.25331" lon="-2.25962">
        <ele>90</ele>
        <time>2019-09-08T08:21:30Z</time>
      </trkpt>
      <trkpt lat="47.25329" lon="-2.25967">
        <ele>91</ele>
        <time>2019-09-08T08:21:31Z</time>
      </trkpt>
      <trkpt lat="47.25327" lon="-2.25971">
        <ele>92</ele>
        <time>2019-09-08T08:21:32Z</time>
      </trkpt>
      <trkpt lat="47.25325" lon="-2.25976">
        <ele>93</ele>
        <time>2019-09-08T08:21:33Z</time>
      </trkpt>
      <trkpt lat="47.25321" lon="-2.2599">
        <ele>94</ele>
        <time>2019-09-08T08:21:37Z</time>
      </trkpt>
      <trkpt lat="47.25325" lon="-2.26">
        <ele>94</ele>
        <time>2019-09-08T08:21:40Z</time>
      </trkpt>
      <trkpt lat="47.25327" lon="-2.26008">
        <ele>94</ele>
        <time>2019-09-08T08:21:42Z</time>
      </trkpt>
      <trkpt lat="47.25325" lon="-2.26016">
        <ele>93</ele>
        <time>2019-09-08T08:21:45Z</time>
      </trkpt>
      <trkpt lat="47.25327" lon="-2.26025">
        <ele>92</ele>
        <time>2019-09-08T08:21:49Z</time>
      </trkpt>
      <trkpt lat="47.25336" lon="-2.26029">
        <ele>91</ele>
        <time>2019-09-08T08:21:52Z</time>
      </trkpt>
      <trkpt lat="47.2534" lon="-2.26027">
        <ele>91</ele>
        <time>2019-09-08T08:21:54Z</time>
      </trkpt>
      <trkpt lat="47.25344" lon="-2.26023">
        <ele>91</ele>
        <time>2019-09-08T08:21:56Z</time>
      </trkpt>
      <trkpt lat="47.25348" lon="-2.26019">
        <ele>91</ele>
        <time>2019-09-08T08:21:58Z</time>
      </trkpt>
      <trkpt lat="47.25353" lon="-2.26009">
        <ele>90</ele>
        <time>2019-09-08T08:22:01Z</time>
      </trkpt>
      <trkpt lat="47.25354" lon="-2.26001">
        <ele>90</ele>
        <time>2019-09-08T08:22:04Z</time>
      </trkpt>
      <trkpt lat="47.25361" lon="-2.25996">
        <ele>90</ele>
        <time>2019-09-08T08:22:07Z</time>
      </trkpt>
      <trkpt lat="47.25368" lon="-2.25994">
        <ele>90</ele>
        <time>2019-09-08T08:22:09Z</time>
      </trkpt>
      <trkpt lat="47.25378" lon="-2.25995">
        <ele>89</ele>
        <time>2019-09-08T08:22:11Z</time>
      </trkpt>
      <trkpt lat="47.25386" lon="-2.25995">
        <ele>89</ele>
        <time>2019-09-08T08:22:13Z</time>
      </trkpt>
      <trkpt lat="47.25393" lon="-2.25993">
        <ele>88</ele>
        <time>2019-09-08T08:22:15Z</time>
      </trkpt>
      <trkpt lat="47.25397" lon="-2.25987">
        <ele>87</ele>
        <time>2019-09-08T08:22:17Z</time>
      </trkpt>
      <trkpt lat="47.25402" lon="-2.25977">
        <ele>87</ele>
        <time>2019-09-08T08:22:19Z</time>
      </trkpt>
      <trkpt lat="47.25407" lon="-2.25973">
        <ele>86</ele>
        <time>2019-09-08T08:22:20Z</time>
      </trkpt>
      <trkpt lat="47.25412" lon="-2.25969">
        <ele>86</ele>
        <time>2019-09-08T08:22:21Z</time>
      </trkpt>
      <trkpt lat="47.25415" lon="-2.25966">
        <ele>86</ele>
        <time>2019-09-08T08:22:22Z</time>
      </trkpt>
      <trkpt lat="47.2542" lon="-2.25961">
        <ele>86</ele>
        <time>2019-09-08T08:22:24Z</time>
      </trkpt>
      <trkpt lat="47.25425" lon="-2.25947">
        <ele>86</ele>
        <time>2019-09-08T08:22:27Z</time>
      </trkpt>
      <trkpt lat="47.25427" lon="-2.25929">
        <ele>87</ele>
        <time>2019-09-08T08:22:30Z</time>
      </trkpt>
      <trkpt lat="47.25427" lon="-2.25921">
        <ele>87</ele>
        <time>2019-09-08T08:22:32Z</time>
      </trkpt>
      <trkpt lat="47.2543" lon="-2.25913">
        <ele>87</ele>
        <time>2019-09-08T08:22:35Z</time>
      </trkpt>
      <trkpt lat="47.25431" lon="-2.25909">
        <ele>87</ele>
        <time>2019-09-08T08:22:36Z</time>
      </trkpt>
      <trkpt lat="47.25435" lon="-2.25898">
        <ele>87</ele>
        <time>2019-09-08T08:22:39Z</time>
      </trkpt>
      <trkpt lat="47.25436" lon="-2.25895">
        <ele>87</ele>
        <time>2019-09-08T08:22:40Z</time>
      </trkpt>
      <trkpt lat="47.25438" lon="-2.25883">
        <ele>88</ele>
        <time>2019-09-08T08:22:43Z</time>
      </trkpt>
      <trkpt lat="47.25438" lon="-2.25872">
        <ele>88</ele>
        <time>2019-09-08T08:22:46Z</time>
      </trkpt>
      <trkpt lat="47.25439" lon="-2.25864">
        <ele>88</ele>
        <time>2019-09-08T08:22:48Z</time>
      </trkpt>
      <trkpt lat="47.2544" lon="-2.25855">
        <ele>87</ele>
        <time>2019-09-08T08:22:50Z</time>
      </trkpt>
      <trkpt lat="47.25442" lon="-2.25846">
        <ele>87</ele>
        <time>2019-09-08T08:22:52Z</time>
      </trkpt>
      <trkpt lat="47.25445" lon="-2.2584">
        <ele>86</ele>
        <time>2019-09-08T08:22:54Z</time>
      </trkpt>
      <trkpt lat="47.25448" lon="-2.25835">
        <ele>87</ele>
        <time>2019-09-08T08:22:56Z</time>
      </trkpt>
      <trkpt lat="47.2545" lon="-2.25828">
        <ele>87</ele>
        <time>2019-09-08T08:22:58Z</time>
      </trkpt>
      <trkpt lat="47.25453" lon="-2.25817">
        <ele>88</ele>
        <time>2019-09-08T08:23:00Z</time>
      </trkpt>
      <trkpt lat="47.25455" lon="-2.25806">
        <ele>88</ele>
        <time>2019-09-08T08:23:02Z</time>
      </trkpt>
      <trkpt lat="47.25456" lon="-2.25795">
        <ele>88</ele>
        <time>2019-09-08T08:23:04Z</time>
      </trkpt>
      <trkpt lat="47.25459" lon="-2.25783">
        <ele>87</ele>
        <time>2019-09-08T08:23:06Z</time>
      </trkpt>
      <trkpt lat="47.25463" lon="-2.25766">
        <ele>87</ele>
        <time>2019-09-08T08:23:08Z</time>
      </trkpt>
      <trkpt lat="47.25464" lon="-2.25757">
        <ele>87</ele>
        <time>2019-09-08T08:23:09Z</time>
      </trkpt>
      <trkpt lat="47.25465" lon="-2.25747">
        <ele>86</ele>
        <time>2019-09-08T08:23:10Z</time>
      </trkpt>
      <trkpt lat="47.25465" lon="-2.25738">
        <ele>86</ele>
        <time>2019-09-08T08:23:11Z</time>
      </trkpt>
      <trkpt lat="47.25466" lon="-2.25729">
        <ele>86</ele>
        <time>2019-09-08T08:23:12Z</time>
      </trkpt>
      <trkpt lat="47.25464" lon="-2.2572">
        <ele>85</ele>
        <time>2019-09-08T08:23:14Z</time>
      </trkpt>
      <trkpt lat="47.2546" lon="-2.25715">
        <ele>84</ele>
        <time>2019-09-08T08:23:16Z</time>
      </trkpt>
      <trkpt lat="47.25454" lon="-2.25716">
        <ele>83</ele>
        <time>2019-09-08T08:23:19Z</time>
      </trkpt>
      <trkpt lat="47.2545" lon="-2.25719">
        <ele>83</ele>
        <time>2019-09-08T08:23:21Z</time>
      </trkpt>
      <trkpt lat="47.25446" lon="-2.25722">
        <ele>82</ele>
        <time>2019-09-08T08:23:23Z</time>
      </trkpt>
      <trkpt lat="47.25444" lon="-2.25729">
        <ele>82</ele>
        <time>2019-09-08T08:23:26Z</time>
      </trkpt>
      <trkpt lat="47.25442" lon="-2.25738">
        <ele>82</ele>
        <time>2019-09-08T08:23:29Z</time>
      </trkpt>
      <trkpt lat="47.25441" lon="-2.25747">
        <ele>82</ele>
        <time>2019-09-08T08:23:31Z</time>
      </trkpt>
      <trkpt lat="47.25438" lon="-2.25753">
        <ele>82</ele>
        <time>2019-09-08T08:23:33Z</time>
      </trkpt>
      <trkpt lat="47.25436" lon="-2.25763">
        <ele>82</ele>
        <time>2019-09-08T08:23:35Z</time>
      </trkpt>
      <trkpt lat="47.25433" lon="-2.25772">
        <ele>82</ele>
        <time>2019-09-08T08:23:37Z</time>
      </trkpt>
      <trkpt lat="47.25432" lon="-2.25781">
        <ele>82</ele>
        <time>2019-09-08T08:23:39Z</time>
      </trkpt>
      <trkpt lat="47.25429" lon="-2.25795">
        <ele>83</ele>
        <time>2019-09-08T08:23:42Z</time>
      </trkpt>
      <trkpt lat="47.25428" lon="-2.25801">
        <ele>83</ele>
        <time>2019-09-08T08:23:43Z</time>
      </trkpt>
      <trkpt lat="47.25423" lon="-2.25817">
        <ele>83</ele>
        <time>2019-09-08T08:23:46Z</time>
      </trkpt>
      <trkpt lat="47.25422" lon="-2.25824">
        <ele>83</ele>
        <time>2019-09-08T08:23:47Z</time>
      </trkpt>
      <trkpt lat="47.2542" lon="-2.25832">
        <ele>83</ele>
        <time>2019-09-08T08:23:48Z</time>
      </trkpt>
      <trkpt lat="47.25418" lon="-2.25848">
        <ele>83</ele>
        <time>2019-09-08T08:23:50Z</time>
      </trkpt>
      <trkpt lat="47.25418" lon="-2.25856">
        <ele>83</ele>
        <time>2019-09-08T08:23:51Z</time>
      </trkpt>
      <trkpt lat="47.25421" lon="-2.25876">
        <ele>83</ele>
        <time>2019-09-08T08:23:54Z</time>
      </trkpt>
      <trkpt lat="47.25422" lon="-2.25887">
        <ele>84</ele>
        <time>2019-09-08T08:23:56Z</time>
      </trkpt>
      <trkpt lat="47.25424" lon="-2.25902">
        <ele>85</ele>
        <time>2019-09-08T08:23:59Z</time>
      </trkpt>
      <trkpt lat="47.25424" lon="-2.25913">
        <ele>85</ele>
        <time>2019-09-08T08:24:01Z</time>
      </trkpt>
      <trkpt lat="47.25419" lon="-2.25929">
        <ele>84</ele>
        <time>2019-09-08T08:24:04Z</time>
      </trkpt>
      <trkpt lat="47.25416" lon="-2.25935">
        <ele>84</ele>
        <time>2019-09-08T08:24:05Z</time>
      </trkpt>
      <trkpt lat="47.25414" lon="-2.25942">
        <ele>84</ele>
        <time>2019-09-08T08:24:06Z</time>
      </trkpt>
      <trkpt lat="47.2541" lon="-2.25949">
        <ele>83</ele>
        <time>2019-09-08T08:24:07Z</time>
      </trkpt>
      <trkpt lat="47.25408" lon="-2.25955">
        <ele>82</ele>
        <time>2019-09-08T08:24:08Z</time>
      </trkpt>
      <trkpt lat="47.25406" lon="-2.2596">
        <ele>82</ele>
        <time>2019-09-08T08:24:09Z</time>
      </trkpt>
      <trkpt lat="47.25401" lon="-2.25968">
        <ele>82</ele>
        <time>2019-09-08T08:24:11Z</time>
      </trkpt>
      <trkpt lat="47.25397" lon="-2.25976">
        <ele>83</ele>
        <time>2019-09-08T08:24:14Z</time>
      </trkpt>
      <trkpt lat="47.25394" lon="-2.25981">
        <ele>83</ele>
        <time>2019-09-08T08:24:17Z</time>
      </trkpt>
      <trkpt lat="47.25392" lon="-2.25985">
        <ele>83</ele>
        <time>2019-09-08T08:24:19Z</time>
      </trkpt>
      <trkpt lat="47.25387" lon="-2.25987">
        <ele>83</ele>
        <time>2019-09-08T08:24:23Z</time>
      </trkpt>
      <trkpt lat="47.25382" lon="-2.25989">
        <ele>82</ele>
        <time>2019-09-08T08:24:27Z</time>
      </trkpt>
      <trkpt lat="47.25378" lon="-2.25984">
        <ele>82</ele>
        <time>2019-09-08T08:24:31Z</time>
      </trkpt>
      <trkpt lat="47.25368" lon="-2.25984">
        <ele>83</ele>
        <time>2019-09-08T08:24:34Z</time>
      </trkpt>
      <trkpt lat="47.25362" lon="-2.25988">
        <ele>82</ele>
        <time>2019-09-08T08:24:38Z</time>
      </trkpt>
      <trkpt lat="47.25361" lon="-2.25996">
        <ele>84</ele>
        <time>2019-09-08T08:24:42Z</time>
      </trkpt>
      <trkpt lat="47.25363" lon="-2.26005">
        <ele>85</ele>
        <time>2019-09-08T08:24:44Z</time>
      </trkpt>
      <trkpt lat="47.25367" lon="-2.26009">
        <ele>85</ele>
        <time>2019-09-08T08:24:46Z</time>
      </trkpt>
      <trkpt lat="47.25378" lon="-2.26018">
        <ele>85</ele>
        <time>2019-09-08T08:24:50Z</time>
      </trkpt>
      <trkpt lat="47.2538" lon="-2.26025">
        <ele>86</ele>
        <time>2019-09-08T08:24:55Z</time>
      </trkpt>
      <trkpt lat="47.25383" lon="-2.26032">
        <ele>87</ele>
        <time>2019-09-08T08:24:58Z</time>
      </trkpt>
      <trkpt lat="47.25384" lon="-2.26042">
        <ele>87</ele>
        <time>2019-09-08T08:25:01Z</time>
      </trkpt>
      <trkpt lat="47.25385" lon="-2.26055">
        <ele>87</ele>
        <time>2019-09-08T08:25:03Z</time>
      </trkpt>
      <trkpt lat="47.25385" lon="-2.26067">
        <ele>86</ele>
        <time>2019-09-08T08:25:05Z</time>
      </trkpt>
      <trkpt lat="47.25384" lon="-2.26075">
        <ele>86</ele>
        <time>2019-09-08T08:25:10Z</time>
      </trkpt>
      <trkpt lat="47.25384" lon="-2.26075">
        <ele>86</ele>
        <time>2019-09-08T08:25:18Z</time>
      </trkpt>
      <trkpt lat="47.25384" lon="-2.26075">
        <ele>22.6</ele>
        <time>2019-09-08T08:25:18Z</time>
      </trkpt>
      <trkpt lat="47.25384" lon="-2.26075">
        <ele>22.6</ele>
        <time>2019-09-08T08:25:52Z</time>
      </trkpt>
      <trkpt lat="47.25385" lon="-2.26104">
        <ele>87</ele>
        <time>2019-09-08T08:25:52Z</time>
      </trkpt>
      <trkpt lat="47.25385" lon="-2.26104">
        <ele>87</ele>
        <time>2019-09-08T08:25:57Z</time>
      </trkpt>
      <trkpt lat="47.25385" lon="-2.26104">
        <ele>23.4</ele>
        <time>2019-09-08T08:25:57Z</time>
      </trkpt>
      <trkpt lat="47.25385" lon="-2.26104">
        <ele>23.4</ele>
        <time>2019-09-08T08:26:01Z</time>
      </trkpt>
      <trkpt lat="47.25376" lon="-2.26126">
        <ele>87</ele>
        <time>2019-09-08T08:26:01Z</time>
      </trkpt>
      <trkpt lat="47.2539" lon="-2.26146">
        <ele>85</ele>
        <time>2019-09-08T08:26:04Z</time>
      </trkpt>
      <trkpt lat="47.25374" lon="-2.26151">
        <ele>92</ele>
        <time>2019-09-08T08:26:08Z</time>
      </trkpt>
      <trkpt lat="47.25367" lon="-2.26149">
        <ele>88</ele>
        <time>2019-09-08T08:26:10Z</time>
      </trkpt>
      <trkpt lat="47.25365" lon="-2.26149">
        <ele>86</ele>
        <time>2019-09-08T08:26:16Z</time>
      </trkpt>
      <trkpt lat="47.25362" lon="-2.26148">
        <ele>89</ele>
        <time>2019-09-08T08:26:18Z</time>
      </trkpt>
      <trkpt lat="47.25354" lon="-2.26148">
        <ele>91</ele>
        <time>2019-09-08T08:26:20Z</time>
      </trkpt>
      <trkpt lat="47.25349" lon="-2.26151">
        <ele>92</ele>
        <time>2019-09-08T08:26:22Z</time>
      </trkpt>
      <trkpt lat="47.25345" lon="-2.26155">
        <ele>94</ele>
        <time>2019-09-08T08:26:25Z</time>
      </trkpt>
      <trkpt lat="47.25343" lon="-2.26159">
        <ele>93</ele>
        <time>2019-09-08T08:26:28Z</time>
      </trkpt>
      <trkpt lat="47.25343" lon="-2.26159">
        <ele>29.6</ele>
        <time>2019-09-08T08:26:35Z</time>
      </trkpt>
      <trkpt lat="47.25343" lon="-2.26159">
        <ele>29.6</ele>
        <time>2019-09-08T08:26:51Z</time>
      </trkpt>
      <trkpt lat="47.25359" lon="-2.26169">
        <ele>94</ele>
        <time>2019-09-08T08:26:51Z</time>
      </trkpt>
      <trkpt lat="47.25369" lon="-2.26196">
        <ele>94</ele>
        <time>2019-09-08T08:26:56Z</time>
      </trkpt>
      <trkpt lat="47.25379" lon="-2.26209">
        <ele>100</ele>
        <time>2019-09-08T08:26:58Z</time>
      </trkpt>
      <trkpt lat="47.25385" lon="-2.2622">
        <ele>104</ele>
        <time>2019-09-08T08:27:00Z</time>
      </trkpt>
      <trkpt lat="47.25387" lon="-2.26227">
        <ele>103</ele>
        <time>2019-09-08T08:27:01Z</time>
      </trkpt>
      <trkpt lat="47.25389" lon="-2.26231">
        <ele>100</ele>
        <time>2019-09-08T08:27:02Z</time>
      </trkpt>
      <trkpt lat="47.25389" lon="-2.26239">
        <ele>109</ele>
        <time>2019-09-08T08:27:05Z</time>
      </trkpt>
      <trkpt lat="47.25387" lon="-2.26248">
        <ele>114</ele>
        <time>2019-09-08T08:27:08Z</time>
      </trkpt>
      <trkpt lat="47.25385" lon="-2.26254">
        <ele>117</ele>
        <time>2019-09-08T08:27:10Z</time>
      </trkpt>
      <trkpt lat="47.25386" lon="-2.26265">
        <ele>120</ele>
        <time>2019-09-08T08:27:14Z</time>
      </trkpt>
      <trkpt lat="47.25387" lon="-2.26269">
        <ele>121</ele>
        <time>2019-09-08T08:27:15Z</time>
      </trkpt>
      <trkpt lat="47.25388" lon="-2.26275">
        <ele>123</ele>
        <time>2019-09-08T08:27:17Z</time>
      </trkpt>
      <trkpt lat="47.25389" lon="-2.26279">
        <ele>124</ele>
        <time>2019-09-08T08:27:18Z</time>
      </trkpt>
      <trkpt lat="47.25389" lon="-2.26286">
        <ele>125</ele>
        <time>2019-09-08T08:27:20Z</time>
      </trkpt>
      <trkpt lat="47.25388" lon="-2.26299">
        <ele>124</ele>
        <time>2019-09-08T08:27:24Z</time>
      </trkpt>
      <trkpt lat="47.25388" lon="-2.26309">
        <ele>121</ele>
        <time>2019-09-08T08:27:26Z</time>
      </trkpt>
      <trkpt lat="47.25388" lon="-2.26314">
        <ele>121</ele>
        <time>2019-09-08T08:27:27Z</time>
      </trkpt>
      <trkpt lat="47.25388" lon="-2.2632">
        <ele>122</ele>
        <time>2019-09-08T08:27:28Z</time>
      </trkpt>
      <trkpt lat="47.25387" lon="-2.26333">
        <ele>121</ele>
        <time>2019-09-08T08:27:30Z</time>
      </trkpt>
      <trkpt lat="47.25388" lon="-2.26343">
        <ele>118</ele>
        <time>2019-09-08T08:27:31Z</time>
      </trkpt>
      <trkpt lat="47.2539" lon="-2.26361">
        <ele>116</ele>
        <time>2019-09-08T08:27:33Z</time>
      </trkpt>
      <trkpt lat="47.25391" lon="-2.26369">
        <ele>115</ele>
        <time>2019-09-08T08:27:34Z</time>
      </trkpt>
      <trkpt lat="47.25392" lon="-2.26376">
        <ele>115</ele>
        <time>2019-09-08T08:27:35Z</time>
      </trkpt>
      <trkpt lat="47.25394" lon="-2.2639">
        <ele>112</ele>
        <time>2019-09-08T08:27:37Z</time>
      </trkpt>
      <trkpt lat="47.25395" lon="-2.26399">
        <ele>111</ele>
        <time>2019-09-08T08:27:38Z</time>
      </trkpt>
      <trkpt lat="47.25396" lon="-2.26406">
        <ele>110</ele>
        <time>2019-09-08T08:27:39Z</time>
      </trkpt>
      <trkpt lat="47.25397" lon="-2.26411">
        <ele>109</ele>
        <time>2019-09-08T08:27:40Z</time>
      </trkpt>
      <trkpt lat="47.25397" lon="-2.26417">
        <ele>109</ele>
        <time>2019-09-08T08:27:41Z</time>
      </trkpt>
      <trkpt lat="47.25398" lon="-2.26428">
        <ele>109</ele>
        <time>2019-09-08T08:27:43Z</time>
      </trkpt>
      <trkpt lat="47.25399" lon="-2.2644">
        <ele>108</ele>
        <time>2019-09-08T08:27:45Z</time>
      </trkpt>
      <trkpt lat="47.25402" lon="-2.26452">
        <ele>107</ele>
        <time>2019-09-08T08:27:47Z</time>
      </trkpt>
      <trkpt lat="47.25404" lon="-2.26458">
        <ele>106</ele>
        <time>2019-09-08T08:27:48Z</time>
      </trkpt>
      <trkpt lat="47.25406" lon="-2.26463">
        <ele>105</ele>
        <time>2019-09-08T08:27:49Z</time>
      </trkpt>
      <trkpt lat="47.25408" lon="-2.26473">
        <ele>105</ele>
        <time>2019-09-08T08:27:51Z</time>
      </trkpt>
      <trkpt lat="47.2541" lon="-2.26483">
        <ele>105</ele>
        <time>2019-09-08T08:27:53Z</time>
      </trkpt>
      <trkpt lat="47.25413" lon="-2.26498">
        <ele>104</ele>
        <time>2019-09-08T08:27:56Z</time>
      </trkpt>
      <trkpt lat="47.25416" lon="-2.26511">
        <ele>104</ele>
        <time>2019-09-08T08:27:58Z</time>
      </trkpt>
      <trkpt lat="47.25418" lon="-2.26526">
        <ele>103</ele>
        <time>2019-09-08T08:28:00Z</time>
      </trkpt>
      <trkpt lat="47.25418" lon="-2.26534">
        <ele>103</ele>
        <time>2019-09-08T08:28:01Z</time>
      </trkpt>
      <trkpt lat="47.25419" lon="-2.26541">
        <ele>103</ele>
        <time>2019-09-08T08:28:02Z</time>
      </trkpt>
      <trkpt lat="47.2542" lon="-2.26549">
        <ele>102</ele>
        <time>2019-09-08T08:28:03Z</time>
      </trkpt>
      <trkpt lat="47.25423" lon="-2.26556">
        <ele>101</ele>
        <time>2019-09-08T08:28:04Z</time>
      </trkpt>
      <trkpt lat="47.25427" lon="-2.26563">
        <ele>101</ele>
        <time>2019-09-08T08:28:05Z</time>
      </trkpt>
      <trkpt lat="47.2543" lon="-2.2657">
        <ele>101</ele>
        <time>2019-09-08T08:28:06Z</time>
      </trkpt>
      <trkpt lat="47.25432" lon="-2.26576">
        <ele>100</ele>
        <time>2019-09-08T08:28:07Z</time>
      </trkpt>
      <trkpt lat="47.25434" lon="-2.26583">
        <ele>100</ele>
        <time>2019-09-08T08:28:08Z</time>
      </trkpt>
      <trkpt lat="47.25435" lon="-2.2659">
        <ele>100</ele>
        <time>2019-09-08T08:28:09Z</time>
      </trkpt>
      <trkpt lat="47.25437" lon="-2.26601">
        <ele>99</ele>
        <time>2019-09-08T08:28:11Z</time>
      </trkpt>
      <trkpt lat="47.25437" lon="-2.26617">
        <ele>98</ele>
        <time>2019-09-08T08:28:14Z</time>
      </trkpt>
      <trkpt lat="47.25437" lon="-2.26626">
        <ele>99</ele>
        <time>2019-09-08T08:28:16Z</time>
      </trkpt>
      <trkpt lat="47.25437" lon="-2.26631">
        <ele>99</ele>
        <time>2019-09-08T08:28:17Z</time>
      </trkpt>
      <trkpt lat="47.25439" lon="-2.26641">
        <ele>99</ele>
        <time>2019-09-08T08:28:19Z</time>
      </trkpt>
      <trkpt lat="47.25444" lon="-2.26654">
        <ele>99</ele>
        <time>2019-09-08T08:28:22Z</time>
      </trkpt>
      <trkpt lat="47.25447" lon="-2.26659">
        <ele>99</ele>
        <time>2019-09-08T08:28:23Z</time>
      </trkpt>
      <trkpt lat="47.25449" lon="-2.26663">
        <ele>99</ele>
        <time>2019-09-08T08:28:24Z</time>
      </trkpt>
      <trkpt lat="47.25453" lon="-2.26667">
        <ele>99</ele>
        <time>2019-09-08T08:28:25Z</time>
      </trkpt>
      <trkpt lat="47.25457" lon="-2.26672">
        <ele>99</ele>
        <time>2019-09-08T08:28:26Z</time>
      </trkpt>
      <trkpt lat="47.25462" lon="-2.26677">
        <ele>98</ele>
        <time>2019-09-08T08:28:27Z</time>
      </trkpt>
      <trkpt lat="47.25466" lon="-2.26682">
        <ele>99</ele>
        <time>2019-09-08T08:28:28Z</time>
      </trkpt>
      <trkpt lat="47.25469" lon="-2.26687">
        <ele>99</ele>
        <time>2019-09-08T08:28:29Z</time>
      </trkpt>
      <trkpt lat="47.25472" lon="-2.26693">
        <ele>99</ele>
        <time>2019-09-08T08:28:30Z</time>
      </trkpt>
      <trkpt lat="47.25476" lon="-2.26702">
        <ele>98</ele>
        <time>2019-09-08T08:28:32Z</time>
      </trkpt>
      <trkpt lat="47.25483" lon="-2.26709">
        <ele>99</ele>
        <time>2019-09-08T08:28:35Z</time>
      </trkpt>
      <trkpt lat="47.25489" lon="-2.26705">
        <ele>98</ele>
        <time>2019-09-08T08:28:37Z</time>
      </trkpt>
      <trkpt lat="47.25493" lon="-2.26698">
        <ele>97</ele>
        <time>2019-09-08T08:28:39Z</time>
      </trkpt>
      <trkpt lat="47.25501" lon="-2.26687">
        <ele>96</ele>
        <time>2019-09-08T08:28:42Z</time>
      </trkpt>
      <trkpt lat="47.25505" lon="-2.26681">
        <ele>97</ele>
        <time>2019-09-08T08:28:44Z</time>
      </trkpt>
      <trkpt lat="47.25507" lon="-2.26678">
        <ele>97</ele>
        <time>2019-09-08T08:28:45Z</time>
      </trkpt>
      <trkpt lat="47.2551" lon="-2.26674">
        <ele>97</ele>
        <time>2019-09-08T08:28:46Z</time>
      </trkpt>
      <trkpt lat="47.25521" lon="-2.26663">
        <ele>97</ele>
        <time>2019-09-08T08:28:50Z</time>
      </trkpt>
      <trkpt lat="47.25526" lon="-2.26658">
        <ele>97</ele>
        <time>2019-09-08T08:28:52Z</time>
      </trkpt>
      <trkpt lat="47.2553" lon="-2.26651">
        <ele>96</ele>
        <time>2019-09-08T08:28:54Z</time>
      </trkpt>
      <trkpt lat="47.25532" lon="-2.26647">
        <ele>96</ele>
        <time>2019-09-08T08:28:55Z</time>
      </trkpt>
      <trkpt lat="47.2554" lon="-2.26639">
        <ele>96</ele>
        <time>2019-09-08T08:28:57Z</time>
      </trkpt>
      <trkpt lat="47.25546" lon="-2.26635">
        <ele>97</ele>
        <time>2019-09-08T08:28:59Z</time>
      </trkpt>
      <trkpt lat="47.2555" lon="-2.26633">
        <ele>97</ele>
        <time>2019-09-08T08:29:00Z</time>
      </trkpt>
      <trkpt lat="47.25553" lon="-2.26631">
        <ele>96</ele>
        <time>2019-09-08T08:29:01Z</time>
      </trkpt>
      <trkpt lat="47.25559" lon="-2.26627">
        <ele>96</ele>
        <time>2019-09-08T08:29:03Z</time>
      </trkpt>
      <trkpt lat="47.25566" lon="-2.26625">
        <ele>96</ele>
        <time>2019-09-08T08:29:05Z</time>
      </trkpt>
      <trkpt lat="47.25572" lon="-2.26622">
        <ele>96</ele>
        <time>2019-09-08T08:29:07Z</time>
      </trkpt>
      <trkpt lat="47.25576" lon="-2.26622">
        <ele>96</ele>
        <time>2019-09-08T08:29:08Z</time>
      </trkpt>
      <trkpt lat="47.25588" lon="-2.26624">
        <ele>96</ele>
        <time>2019-09-08T08:29:12Z</time>
      </trkpt>
      <trkpt lat="47.25594" lon="-2.26621">
        <ele>96</ele>
        <time>2019-09-08T08:29:14Z</time>
      </trkpt>
      <trkpt lat="47.25601" lon="-2.26621">
        <ele>95</ele>
        <time>2019-09-08T08:29:16Z</time>
      </trkpt>
      <trkpt lat="47.25611" lon="-2.26621">
        <ele>95</ele>
        <time>2019-09-08T08:29:19Z</time>
      </trkpt>
      <trkpt lat="47.25614" lon="-2.2662">
        <ele>95</ele>
        <time>2019-09-08T08:29:20Z</time>
      </trkpt>
      <trkpt lat="47.25617" lon="-2.2662">
        <ele>94</ele>
        <time>2019-09-08T08:29:21Z</time>
      </trkpt>
      <trkpt lat="47.25622" lon="-2.2662">
        <ele>95</ele>
        <time>2019-09-08T08:29:23Z</time>
      </trkpt>
      <trkpt lat="47.25627" lon="-2.26619">
        <ele>95</ele>
        <time>2019-09-08T08:29:26Z</time>
      </trkpt>
      <trkpt lat="47.25633" lon="-2.26621">
        <ele>95</ele>
        <time>2019-09-08T08:29:29Z</time>
      </trkpt>
      <trkpt lat="47.25638" lon="-2.26625">
        <ele>95</ele>
        <time>2019-09-08T08:29:32Z</time>
      </trkpt>
      <trkpt lat="47.25639" lon="-2.26633">
        <ele>95</ele>
        <time>2019-09-08T08:29:35Z</time>
      </trkpt>
      <trkpt lat="47.2564" lon="-2.26643">
        <ele>95</ele>
        <time>2019-09-08T08:29:38Z</time>
      </trkpt>
      <trkpt lat="47.25641" lon="-2.26646">
        <ele>95</ele>
        <time>2019-09-08T08:29:39Z</time>
      </trkpt>
      <trkpt lat="47.25642" lon="-2.26651">
        <ele>96</ele>
        <time>2019-09-08T08:29:41Z</time>
      </trkpt>
      <trkpt lat="47.25644" lon="-2.2666">
        <ele>96</ele>
        <time>2019-09-08T08:29:45Z</time>
      </trkpt>
      <trkpt lat="47.25645" lon="-2.26667">
        <ele>96</ele>
        <time>2019-09-08T08:29:47Z</time>
      </trkpt>
      <trkpt lat="47.25647" lon="-2.26675">
        <ele>97</ele>
        <time>2019-09-08T08:29:49Z</time>
      </trkpt>
      <trkpt lat="47.25648" lon="-2.2668">
        <ele>97</ele>
        <time>2019-09-08T08:29:50Z</time>
      </trkpt>
      <trkpt lat="47.25649" lon="-2.26686">
        <ele>97</ele>
        <time>2019-09-08T08:29:51Z</time>
      </trkpt>
      <trkpt lat="47.25652" lon="-2.26697">
        <ele>96</ele>
        <time>2019-09-08T08:29:53Z</time>
      </trkpt>
      <trkpt lat="47.25654" lon="-2.26708">
        <ele>96</ele>
        <time>2019-09-08T08:29:55Z</time>
      </trkpt>
      <trkpt lat="47.25656" lon="-2.26713">
        <ele>96</ele>
        <time>2019-09-08T08:29:56Z</time>
      </trkpt>
      <trkpt lat="47.25657" lon="-2.26717">
        <ele>96</ele>
        <time>2019-09-08T08:29:57Z</time>
      </trkpt>
      <trkpt lat="47.25658" lon="-2.26728">
        <ele>96</ele>
        <time>2019-09-08T08:29:59Z</time>
      </trkpt>
      <trkpt lat="47.25662" lon="-2.26741">
        <ele>97</ele>
        <time>2019-09-08T08:30:02Z</time>
      </trkpt>
      <trkpt lat="47.25665" lon="-2.2675">
        <ele>97</ele>
        <time>2019-09-08T08:30:04Z</time>
      </trkpt>
      <trkpt lat="47.25666" lon="-2.26761">
        <ele>99</ele>
        <time>2019-09-08T08:30:06Z</time>
      </trkpt>
      <trkpt lat="47.25666" lon="-2.26772">
        <ele>99</ele>
        <time>2019-09-08T08:30:08Z</time>
      </trkpt>
      <trkpt lat="47.25666" lon="-2.26783">
        <ele>99</ele>
        <time>2019-09-08T08:30:10Z</time>
      </trkpt>
      <trkpt lat="47.25666" lon="-2.26793">
        <ele>99</ele>
        <time>2019-09-08T08:30:12Z</time>
      </trkpt>
      <trkpt lat="47.25665" lon="-2.26798">
        <ele>99</ele>
        <time>2019-09-08T08:30:13Z</time>
      </trkpt>
      <trkpt lat="47.25664" lon="-2.26806">
        <ele>98</ele>
        <time>2019-09-08T08:30:15Z</time>
      </trkpt>
      <trkpt lat="47.25663" lon="-2.26814">
        <ele>98</ele>
        <time>2019-09-08T08:30:17Z</time>
      </trkpt>
      <trkpt lat="47.25665" lon="-2.26821">
        <ele>98</ele>
        <time>2019-09-08T08:30:19Z</time>
      </trkpt>
      <trkpt lat="47.25671" lon="-2.26822">
        <ele>98</ele>
        <time>2019-09-08T08:30:21Z</time>
      </trkpt>
      <trkpt lat="47.25677" lon="-2.26822">
        <ele>96</ele>
        <time>2019-09-08T08:30:23Z</time>
      </trkpt>
      <trkpt lat="47.2568" lon="-2.26821">
        <ele>95</ele>
        <time>2019-09-08T08:30:24Z</time>
      </trkpt>
      <trkpt lat="47.25684" lon="-2.26821">
        <ele>95</ele>
        <time>2019-09-08T08:30:25Z</time>
      </trkpt>
      <trkpt lat="47.25689" lon="-2.26818">
        <ele>95</ele>
        <time>2019-09-08T08:30:27Z</time>
      </trkpt>
      <trkpt lat="47.25694" lon="-2.2682">
        <ele>95</ele>
        <time>2019-09-08T08:30:29Z</time>
      </trkpt>
      <trkpt lat="47.25699" lon="-2.26822">
        <ele>94</ele>
        <time>2019-09-08T08:30:31Z</time>
      </trkpt>
      <trkpt lat="47.25702" lon="-2.26824">
        <ele>94</ele>
        <time>2019-09-08T08:30:33Z</time>
      </trkpt>
      <trkpt lat="47.25707" lon="-2.26825">
        <ele>94</ele>
        <time>2019-09-08T08:30:35Z</time>
      </trkpt>
      <trkpt lat="47.2571" lon="-2.26827">
        <ele>94</ele>
        <time>2019-09-08T08:30:36Z</time>
      </trkpt>
      <trkpt lat="47.25719" lon="-2.26833">
        <ele>94</ele>
        <time>2019-09-08T08:30:39Z</time>
      </trkpt>
      <trkpt lat="47.25725" lon="-2.2684">
        <ele>94</ele>
        <time>2019-09-08T08:30:41Z</time>
      </trkpt>
      <trkpt lat="47.25731" lon="-2.26847">
        <ele>95</ele>
        <time>2019-09-08T08:30:43Z</time>
      </trkpt>
      <trkpt lat="47.25735" lon="-2.26855">
        <ele>95</ele>
        <time>2019-09-08T08:30:45Z</time>
      </trkpt>
      <trkpt lat="47.25737" lon="-2.26859">
        <ele>95</ele>
        <time>2019-09-08T08:30:46Z</time>
      </trkpt>
      <trkpt lat="47.25742" lon="-2.26873">
        <ele>95</ele>
        <time>2019-09-08T08:30:49Z</time>
      </trkpt>
      <trkpt lat="47.25743" lon="-2.26877">
        <ele>95</ele>
        <time>2019-09-08T08:30:50Z</time>
      </trkpt>
      <trkpt lat="47.25745" lon="-2.26881">
        <ele>95</ele>
        <time>2019-09-08T08:30:51Z</time>
      </trkpt>
      <trkpt lat="47.25746" lon="-2.26885">
        <ele>95</ele>
        <time>2019-09-08T08:30:52Z</time>
      </trkpt>
      <trkpt lat="47.25747" lon="-2.26894">
        <ele>95</ele>
        <time>2019-09-08T08:30:54Z</time>
      </trkpt>
      <trkpt lat="47.2575" lon="-2.26899">
        <ele>95</ele>
        <time>2019-09-08T08:30:56Z</time>
      </trkpt>
      <trkpt lat="47.25755" lon="-2.26901">
        <ele>95</ele>
        <time>2019-09-08T08:30:58Z</time>
      </trkpt>
      <trkpt lat="47.25758" lon="-2.26902">
        <ele>94</ele>
        <time>2019-09-08T08:30:59Z</time>
      </trkpt>
      <trkpt lat="47.25764" lon="-2.26901">
        <ele>94</ele>
        <time>2019-09-08T08:31:01Z</time>
      </trkpt>
      <trkpt lat="47.25771" lon="-2.26899">
        <ele>94</ele>
        <time>2019-09-08T08:31:03Z</time>
      </trkpt>
      <trkpt lat="47.25775" lon="-2.26898">
        <ele>94</ele>
        <time>2019-09-08T08:31:04Z</time>
      </trkpt>
      <trkpt lat="47.25779" lon="-2.26896">
        <ele>94</ele>
        <time>2019-09-08T08:31:05Z</time>
      </trkpt>
      <trkpt lat="47.25791" lon="-2.2689">
        <ele>94</ele>
        <time>2019-09-08T08:31:08Z</time>
      </trkpt>
      <trkpt lat="47.25796" lon="-2.26887">
        <ele>94</ele>
        <time>2019-09-08T08:31:09Z</time>
      </trkpt>
      <trkpt lat="47.25803" lon="-2.26882">
        <ele>94</ele>
        <time>2019-09-08T08:31:11Z</time>
      </trkpt>
      <trkpt lat="47.25807" lon="-2.26879">
        <ele>95</ele>
        <time>2019-09-08T08:31:12Z</time>
      </trkpt>
      <trkpt lat="47.25812" lon="-2.26877">
        <ele>94</ele>
        <time>2019-09-08T08:31:13Z</time>
      </trkpt>
      <trkpt lat="47.25816" lon="-2.26874">
        <ele>94</ele>
        <time>2019-09-08T08:31:14Z</time>
      </trkpt>
      <trkpt lat="47.25825" lon="-2.26871">
        <ele>94</ele>
        <time>2019-09-08T08:31:16Z</time>
      </trkpt>
      <trkpt lat="47.25829" lon="-2.26868">
        <ele>94</ele>
        <time>2019-09-08T08:31:17Z</time>
      </trkpt>
      <trkpt lat="47.25833" lon="-2.26865">
        <ele>94</ele>
        <time>2019-09-08T08:31:18Z</time>
      </trkpt>
      <trkpt lat="47.25837" lon="-2.26861">
        <ele>94</ele>
        <time>2019-09-08T08:31:19Z</time>
      </trkpt>
      <trkpt lat="47.25841" lon="-2.26858">
        <ele>94</ele>
        <time>2019-09-08T08:31:20Z</time>
      </trkpt>
      <trkpt lat="47.25849" lon="-2.26856">
        <ele>95</ele>
        <time>2019-09-08T08:31:22Z</time>
      </trkpt>
      <trkpt lat="47.25853" lon="-2.26853">
        <ele>96</ele>
        <time>2019-09-08T08:31:23Z</time>
      </trkpt>
      <trkpt lat="47.25866" lon="-2.26852">
        <ele>96</ele>
        <time>2019-09-08T08:31:26Z</time>
      </trkpt>
      <trkpt lat="47.2587" lon="-2.26852">
        <ele>96</ele>
        <time>2019-09-08T08:31:27Z</time>
      </trkpt>
      <trkpt lat="47.25878" lon="-2.2685">
        <ele>95</ele>
        <time>2019-09-08T08:31:29Z</time>
      </trkpt>
      <trkpt lat="47.25886" lon="-2.26847">
        <ele>95</ele>
        <time>2019-09-08T08:31:31Z</time>
      </trkpt>
      <trkpt lat="47.25891" lon="-2.26845">
        <ele>95</ele>
        <time>2019-09-08T08:31:32Z</time>
      </trkpt>
      <trkpt lat="47.25895" lon="-2.26844">
        <ele>95</ele>
        <time>2019-09-08T08:31:33Z</time>
      </trkpt>
      <trkpt lat="47.25904" lon="-2.26841">
        <ele>95</ele>
        <time>2019-09-08T08:31:35Z</time>
      </trkpt>
      <trkpt lat="47.25913" lon="-2.26835">
        <ele>95</ele>
        <time>2019-09-08T08:31:37Z</time>
      </trkpt>
      <trkpt lat="47.25917" lon="-2.26831">
        <ele>95</ele>
        <time>2019-09-08T08:31:38Z</time>
      </trkpt>
      <trkpt lat="47.25922" lon="-2.26828">
        <ele>94</ele>
        <time>2019-09-08T08:31:39Z</time>
      </trkpt>
      <trkpt lat="47.25932" lon="-2.26821">
        <ele>93</ele>
        <time>2019-09-08T08:31:41Z</time>
      </trkpt>
      <trkpt lat="47.25938" lon="-2.2682">
        <ele>93</ele>
        <time>2019-09-08T08:31:42Z</time>
      </trkpt>
      <trkpt lat="47.25943" lon="-2.26819">
        <ele>93</ele>
        <time>2019-09-08T08:31:43Z</time>
      </trkpt>
      <trkpt lat="47.25949" lon="-2.26818">
        <ele>93</ele>
        <time>2019-09-08T08:31:44Z</time>
      </trkpt>
      <trkpt lat="47.25954" lon="-2.26818">
        <ele>93</ele>
        <time>2019-09-08T08:31:45Z</time>
      </trkpt>
      <trkpt lat="47.25971" lon="-2.2682">
        <ele>92</ele>
        <time>2019-09-08T08:31:48Z</time>
      </trkpt>
      <trkpt lat="47.25975" lon="-2.2682">
        <ele>92</ele>
        <time>2019-09-08T08:31:49Z</time>
      </trkpt>
      <trkpt lat="47.25982" lon="-2.26822">
        <ele>92</ele>
        <time>2019-09-08T08:31:51Z</time>
      </trkpt>
      <trkpt lat="47.25986" lon="-2.2683">
        <ele>93</ele>
        <time>2019-09-08T08:31:53Z</time>
      </trkpt>
      <trkpt lat="47.25988" lon="-2.26846">
        <ele>92</ele>
        <time>2019-09-08T08:31:56Z</time>
      </trkpt>
      <trkpt lat="47.25988" lon="-2.26863">
        <ele>93</ele>
        <time>2019-09-08T08:31:59Z</time>
      </trkpt>
      <trkpt lat="47.2599" lon="-2.26881">
        <ele>93</ele>
        <time>2019-09-08T08:32:02Z</time>
      </trkpt>
      <trkpt lat="47.25993" lon="-2.26893">
        <ele>94</ele>
        <time>2019-09-08T08:32:04Z</time>
      </trkpt>
      <trkpt lat="47.25996" lon="-2.26899">
        <ele>94</ele>
        <time>2019-09-08T08:32:05Z</time>
      </trkpt>
      <trkpt lat="47.25999" lon="-2.26905">
        <ele>94</ele>
        <time>2019-09-08T08:32:06Z</time>
      </trkpt>
      <trkpt lat="47.26003" lon="-2.26911">
        <ele>94</ele>
        <time>2019-09-08T08:32:07Z</time>
      </trkpt>
      <trkpt lat="47.26007" lon="-2.26916">
        <ele>94</ele>
        <time>2019-09-08T08:32:08Z</time>
      </trkpt>
      <trkpt lat="47.2601" lon="-2.26922">
        <ele>94</ele>
        <time>2019-09-08T08:32:09Z</time>
      </trkpt>
      <trkpt lat="47.26017" lon="-2.26932">
        <ele>94</ele>
        <time>2019-09-08T08:32:11Z</time>
      </trkpt>
      <trkpt lat="47.26023" lon="-2.26944">
        <ele>94</ele>
        <time>2019-09-08T08:32:13Z</time>
      </trkpt>
      <trkpt lat="47.26026" lon="-2.26949">
        <ele>94</ele>
        <time>2019-09-08T08:32:14Z</time>
      </trkpt>
      <trkpt lat="47.26034" lon="-2.26958">
        <ele>94</ele>
        <time>2019-09-08T08:32:16Z</time>
      </trkpt>
      <trkpt lat="47.26038" lon="-2.26962">
        <ele>94</ele>
        <time>2019-09-08T08:32:17Z</time>
      </trkpt>
      <trkpt lat="47.26043" lon="-2.26967">
        <ele>94</ele>
        <time>2019-09-08T08:32:18Z</time>
      </trkpt>
      <trkpt lat="47.26047" lon="-2.26973">
        <ele>94</ele>
        <time>2019-09-08T08:32:19Z</time>
      </trkpt>
      <trkpt lat="47.26058" lon="-2.26992">
        <ele>95</ele>
        <time>2019-09-08T08:32:22Z</time>
      </trkpt>
      <trkpt lat="47.26065" lon="-2.27012">
        <ele>95</ele>
        <time>2019-09-08T08:32:25Z</time>
      </trkpt>
      <trkpt lat="47.26067" lon="-2.2702">
        <ele>95</ele>
        <time>2019-09-08T08:32:26Z</time>
      </trkpt>
      <trkpt lat="47.26069" lon="-2.27027">
        <ele>96</ele>
        <time>2019-09-08T08:32:27Z</time>
      </trkpt>
      <trkpt lat="47.2607" lon="-2.27034">
        <ele>96</ele>
        <time>2019-09-08T08:32:28Z</time>
      </trkpt>
      <trkpt lat="47.26073" lon="-2.27042">
        <ele>96</ele>
        <time>2019-09-08T08:32:29Z</time>
      </trkpt>
      <trkpt lat="47.26074" lon="-2.27051">
        <ele>96</ele>
        <time>2019-09-08T08:32:30Z</time>
      </trkpt>
      <trkpt lat="47.26079" lon="-2.27067">
        <ele>96</ele>
        <time>2019-09-08T08:32:32Z</time>
      </trkpt>
      <trkpt lat="47.2608" lon="-2.27075">
        <ele>96</ele>
        <time>2019-09-08T08:32:33Z</time>
      </trkpt>
      <trkpt lat="47.26081" lon="-2.27083">
        <ele>97</ele>
        <time>2019-09-08T08:32:34Z</time>
      </trkpt>
      <trkpt lat="47.26084" lon="-2.27102">
        <ele>98</ele>
        <time>2019-09-08T08:32:36Z</time>
      </trkpt>
      <trkpt lat="47.26085" lon="-2.27111">
        <ele>97</ele>
        <time>2019-09-08T08:32:37Z</time>
      </trkpt>
      <trkpt lat="47.26086" lon="-2.2712">
        <ele>97</ele>
        <time>2019-09-08T08:32:38Z</time>
      </trkpt>
      <trkpt lat="47.26092" lon="-2.27145">
        <ele>97</ele>
        <time>2019-09-08T08:32:41Z</time>
      </trkpt>
      <trkpt lat="47.26095" lon="-2.27153">
        <ele>98</ele>
        <time>2019-09-08T08:32:42Z</time>
      </trkpt>
      <trkpt lat="47.26097" lon="-2.2716">
        <ele>98</ele>
        <time>2019-09-08T08:32:43Z</time>
      </trkpt>
      <trkpt lat="47.26103" lon="-2.27176">
        <ele>98</ele>
        <time>2019-09-08T08:32:45Z</time>
      </trkpt>
      <trkpt lat="47.26112" lon="-2.272">
        <ele>98</ele>
        <time>2019-09-08T08:32:48Z</time>
      </trkpt>
      <trkpt lat="47.26115" lon="-2.27208">
        <ele>97</ele>
        <time>2019-09-08T08:32:49Z</time>
      </trkpt>
      <trkpt lat="47.26118" lon="-2.27216">
        <ele>97</ele>
        <time>2019-09-08T08:32:50Z</time>
      </trkpt>
      <trkpt lat="47.26122" lon="-2.27224">
        <ele>97</ele>
        <time>2019-09-08T08:32:51Z</time>
      </trkpt>
      <trkpt lat="47.26125" lon="-2.27231">
        <ele>97</ele>
        <time>2019-09-08T08:32:52Z</time>
      </trkpt>
      <trkpt lat="47.26128" lon="-2.27239">
        <ele>97</ele>
        <time>2019-09-08T08:32:53Z</time>
      </trkpt>
      <trkpt lat="47.26132" lon="-2.27254">
        <ele>97</ele>
        <time>2019-09-08T08:32:55Z</time>
      </trkpt>
      <trkpt lat="47.26134" lon="-2.27261">
        <ele>97</ele>
        <time>2019-09-08T08:32:56Z</time>
      </trkpt>
      <trkpt lat="47.26136" lon="-2.27268">
        <ele>97</ele>
        <time>2019-09-08T08:32:57Z</time>
      </trkpt>
      <trkpt lat="47.26138" lon="-2.27276">
        <ele>97</ele>
        <time>2019-09-08T08:32:58Z</time>
      </trkpt>
      <trkpt lat="47.26139" lon="-2.27284">
        <ele>96</ele>
        <time>2019-09-08T08:32:59Z</time>
      </trkpt>
      <trkpt lat="47.2614" lon="-2.27292">
        <ele>96</ele>
        <time>2019-09-08T08:33:00Z</time>
      </trkpt>
      <trkpt lat="47.26142" lon="-2.273">
        <ele>96</ele>
        <time>2019-09-08T08:33:01Z</time>
      </trkpt>
      <trkpt lat="47.26145" lon="-2.27306">
        <ele>96</ele>
        <time>2019-09-08T08:33:02Z</time>
      </trkpt>
      <trkpt lat="47.26157" lon="-2.27318">
        <ele>95</ele>
        <time>2019-09-08T08:33:05Z</time>
      </trkpt>
      <trkpt lat="47.26176" lon="-2.2732">
        <ele>95</ele>
        <time>2019-09-08T08:33:08Z</time>
      </trkpt>
      <trkpt lat="47.26181" lon="-2.27319">
        <ele>94</ele>
        <time>2019-09-08T08:33:10Z</time>
      </trkpt>
      <trkpt lat="47.26187" lon="-2.27318">
        <ele>94</ele>
        <time>2019-09-08T08:33:11Z</time>
      </trkpt>
      <trkpt lat="47.26198" lon="-2.27317">
        <ele>94</ele>
        <time>2019-09-08T08:33:13Z</time>
      </trkpt>
      <trkpt lat="47.26204" lon="-2.27316">
        <ele>94</ele>
        <time>2019-09-08T08:33:14Z</time>
      </trkpt>
      <trkpt lat="47.26211" lon="-2.27316">
        <ele>94</ele>
        <time>2019-09-08T08:33:15Z</time>
      </trkpt>
      <trkpt lat="47.26217" lon="-2.27318">
        <ele>95</ele>
        <time>2019-09-08T08:33:16Z</time>
      </trkpt>
      <trkpt lat="47.2623" lon="-2.2732">
        <ele>95</ele>
        <time>2019-09-08T08:33:18Z</time>
      </trkpt>
      <trkpt lat="47.26235" lon="-2.27321">
        <ele>95</ele>
        <time>2019-09-08T08:33:19Z</time>
      </trkpt>
      <trkpt lat="47.26242" lon="-2.27323">
        <ele>94</ele>
        <time>2019-09-08T08:33:20Z</time>
      </trkpt>
      <trkpt lat="47.26249" lon="-2.27324">
        <ele>94</ele>
        <time>2019-09-08T08:33:21Z</time>
      </trkpt>
      <trkpt lat="47.26255" lon="-2.27324">
        <ele>94</ele>
        <time>2019-09-08T08:33:22Z</time>
      </trkpt>
      <trkpt lat="47.2627" lon="-2.27325">
        <ele>93</ele>
        <time>2019-09-08T08:33:24Z</time>
      </trkpt>
      <trkpt lat="47.26277" lon="-2.27325">
        <ele>93</ele>
        <time>2019-09-08T08:33:25Z</time>
      </trkpt>
      <trkpt lat="47.26297" lon="-2.27328">
        <ele>93</ele>
        <time>2019-09-08T08:33:27Z</time>
      </trkpt>
      <trkpt lat="47.26304" lon="-2.27329">
        <ele>93</ele>
        <time>2019-09-08T08:33:28Z</time>
      </trkpt>
      <trkpt lat="47.26311" lon="-2.2733">
        <ele>93</ele>
        <time>2019-09-08T08:33:29Z</time>
      </trkpt>
      <trkpt lat="47.26318" lon="-2.2733">
        <ele>93</ele>
        <time>2019-09-08T08:33:30Z</time>
      </trkpt>
      <trkpt lat="47.26324" lon="-2.2733">
        <ele>93</ele>
        <time>2019-09-08T08:33:31Z</time>
      </trkpt>
      <trkpt lat="47.26331" lon="-2.27331">
        <ele>93</ele>
        <time>2019-09-08T08:33:32Z</time>
      </trkpt>
      <trkpt lat="47.26337" lon="-2.27331">
        <ele>93</ele>
        <time>2019-09-08T08:33:33Z</time>
      </trkpt>
      <trkpt lat="47.26344" lon="-2.27332">
        <ele>93</ele>
        <time>2019-09-08T08:33:34Z</time>
      </trkpt>
      <trkpt lat="47.26351" lon="-2.27332">
        <ele>93</ele>
        <time>2019-09-08T08:33:35Z</time>
      </trkpt>
      <trkpt lat="47.26357" lon="-2.27332">
        <ele>93</ele>
        <time>2019-09-08T08:33:36Z</time>
      </trkpt>
      <trkpt lat="47.26364" lon="-2.27332">
        <ele>92</ele>
        <time>2019-09-08T08:33:37Z</time>
      </trkpt>
      <trkpt lat="47.2637" lon="-2.27332">
        <ele>92</ele>
        <time>2019-09-08T08:33:38Z</time>
      </trkpt>
      <trkpt lat="47.26377" lon="-2.27332">
        <ele>92</ele>
        <time>2019-09-08T08:33:39Z</time>
      </trkpt>
      <trkpt lat="47.26384" lon="-2.27331">
        <ele>91</ele>
        <time>2019-09-08T08:33:40Z</time>
      </trkpt>
      <trkpt lat="47.26391" lon="-2.27331">
        <ele>92</ele>
        <time>2019-09-08T08:33:41Z</time>
      </trkpt>
      <trkpt lat="47.26397" lon="-2.27331">
        <ele>92</ele>
        <time>2019-09-08T08:33:42Z</time>
      </trkpt>
      <trkpt lat="47.26404" lon="-2.27332">
        <ele>91</ele>
        <time>2019-09-08T08:33:43Z</time>
      </trkpt>
      <trkpt lat="47.2641" lon="-2.27334">
        <ele>92</ele>
        <time>2019-09-08T08:33:44Z</time>
      </trkpt>
      <trkpt lat="47.26416" lon="-2.27336">
        <ele>91</ele>
        <time>2019-09-08T08:33:45Z</time>
      </trkpt>
      <trkpt lat="47.26426" lon="-2.27345">
        <ele>91</ele>
        <time>2019-09-08T08:33:47Z</time>
      </trkpt>
      <trkpt lat="47.26431" lon="-2.27358">
        <ele>90</ele>
        <time>2019-09-08T08:33:49Z</time>
      </trkpt>
      <trkpt lat="47.26434" lon="-2.27366">
        <ele>90</ele>
        <time>2019-09-08T08:33:50Z</time>
      </trkpt>
      <trkpt lat="47.26436" lon="-2.27374">
        <ele>90</ele>
        <time>2019-09-08T08:33:51Z</time>
      </trkpt>
      <trkpt lat="47.26441" lon="-2.27389">
        <ele>90</ele>
        <time>2019-09-08T08:33:54Z</time>
      </trkpt>
      <trkpt lat="47.26446" lon="-2.27406">
        <ele>90</ele>
        <time>2019-09-08T08:33:56Z</time>
      </trkpt>
      <trkpt lat="47.2645" lon="-2.27416">
        <ele>90</ele>
        <time>2019-09-08T08:33:57Z</time>
      </trkpt>
      <trkpt lat="47.26454" lon="-2.27426">
        <ele>90</ele>
        <time>2019-09-08T08:33:58Z</time>
      </trkpt>
      <trkpt lat="47.26457" lon="-2.27436">
        <ele>90</ele>
        <time>2019-09-08T08:33:59Z</time>
      </trkpt>
      <trkpt lat="47.2646" lon="-2.27447">
        <ele>90</ele>
        <time>2019-09-08T08:34:00Z</time>
      </trkpt>
      <trkpt lat="47.2647" lon="-2.27476">
        <ele>90</ele>
        <time>2019-09-08T08:34:02Z</time>
      </trkpt>
      <trkpt lat="47.26473" lon="-2.27486">
        <ele>90</ele>
        <time>2019-09-08T08:34:03Z</time>
      </trkpt>
      <trkpt lat="47.26476" lon="-2.27496">
        <ele>89</ele>
        <time>2019-09-08T08:34:04Z</time>
      </trkpt>
      <trkpt lat="47.26483" lon="-2.27528">
        <ele>88</ele>
        <time>2019-09-08T08:34:07Z</time>
      </trkpt>
      <trkpt lat="47.26484" lon="-2.27538">
        <ele>88</ele>
        <time>2019-09-08T08:34:08Z</time>
      </trkpt>
      <trkpt lat="47.26487" lon="-2.27556">
        <ele>87</ele>
        <time>2019-09-08T08:34:10Z</time>
      </trkpt>
      <trkpt lat="47.26488" lon="-2.27563">
        <ele>87</ele>
        <time>2019-09-08T08:34:11Z</time>
      </trkpt>
      <trkpt lat="47.26495" lon="-2.27577">
        <ele>86</ele>
        <time>2019-09-08T08:34:14Z</time>
      </trkpt>
      <trkpt lat="47.26511" lon="-2.2758">
        <ele>86</ele>
        <time>2019-09-08T08:34:18Z</time>
      </trkpt>
      <trkpt lat="47.26516" lon="-2.27579">
        <ele>86</ele>
        <time>2019-09-08T08:34:19Z</time>
      </trkpt>
      <trkpt lat="47.26527" lon="-2.27581">
        <ele>86</ele>
        <time>2019-09-08T08:34:21Z</time>
      </trkpt>
      <trkpt lat="47.26533" lon="-2.27583">
        <ele>86</ele>
        <time>2019-09-08T08:34:22Z</time>
      </trkpt>
      <trkpt lat="47.26546" lon="-2.27585">
        <ele>86</ele>
        <time>2019-09-08T08:34:24Z</time>
      </trkpt>
      <trkpt lat="47.26553" lon="-2.27587">
        <ele>85</ele>
        <time>2019-09-08T08:34:25Z</time>
      </trkpt>
      <trkpt lat="47.2656" lon="-2.27587">
        <ele>84</ele>
        <time>2019-09-08T08:34:26Z</time>
      </trkpt>
      <trkpt lat="47.26567" lon="-2.27587">
        <ele>85</ele>
        <time>2019-09-08T08:34:27Z</time>
      </trkpt>
      <trkpt lat="47.26575" lon="-2.27588">
        <ele>85</ele>
        <time>2019-09-08T08:34:28Z</time>
      </trkpt>
      <trkpt lat="47.26582" lon="-2.2759">
        <ele>84</ele>
        <time>2019-09-08T08:34:29Z</time>
      </trkpt>
      <trkpt lat="47.26593" lon="-2.27592">
        <ele>85</ele>
        <time>2019-09-08T08:34:31Z</time>
      </trkpt>
      <trkpt lat="47.26604" lon="-2.27599">
        <ele>86</ele>
        <time>2019-09-08T08:34:33Z</time>
      </trkpt>
      <trkpt lat="47.26615" lon="-2.27608">
        <ele>91</ele>
        <time>2019-09-08T08:34:35Z</time>
      </trkpt>
      <trkpt lat="47.2662" lon="-2.27613">
        <ele>91</ele>
        <time>2019-09-08T08:34:36Z</time>
      </trkpt>
      <trkpt lat="47.26626" lon="-2.27616">
        <ele>92</ele>
        <time>2019-09-08T08:34:37Z</time>
      </trkpt>
      <trkpt lat="47.26631" lon="-2.27618">
        <ele>92</ele>
        <time>2019-09-08T08:34:38Z</time>
      </trkpt>
      <trkpt lat="47.2664" lon="-2.27622">
        <ele>95</ele>
        <time>2019-09-08T08:34:40Z</time>
      </trkpt>
      <trkpt lat="47.2666" lon="-2.27631">
        <ele>92</ele>
        <time>2019-09-08T08:34:43Z</time>
      </trkpt>
      <trkpt lat="47.26666" lon="-2.27635">
        <ele>91</ele>
        <time>2019-09-08T08:34:44Z</time>
      </trkpt>
      <trkpt lat="47.26673" lon="-2.27636">
        <ele>91</ele>
        <time>2019-09-08T08:34:45Z</time>
      </trkpt>
      <trkpt lat="47.26678" lon="-2.2764">
        <ele>90</ele>
        <time>2019-09-08T08:34:46Z</time>
      </trkpt>
      <trkpt lat="47.26685" lon="-2.27641">
        <ele>90</ele>
        <time>2019-09-08T08:34:47Z</time>
      </trkpt>
      <trkpt lat="47.2669" lon="-2.27642">
        <ele>89</ele>
        <time>2019-09-08T08:34:48Z</time>
      </trkpt>
      <trkpt lat="47.26695" lon="-2.27644">
        <ele>90</ele>
        <time>2019-09-08T08:34:49Z</time>
      </trkpt>
      <trkpt lat="47.26717" lon="-2.27654">
        <ele>92</ele>
        <time>2019-09-08T08:34:53Z</time>
      </trkpt>
      <trkpt lat="47.26723" lon="-2.27656">
        <ele>92</ele>
        <time>2019-09-08T08:34:54Z</time>
      </trkpt>
      <trkpt lat="47.26728" lon="-2.27657">
        <ele>91</ele>
        <time>2019-09-08T08:34:55Z</time>
      </trkpt>
      <trkpt lat="47.26734" lon="-2.27658">
        <ele>91</ele>
        <time>2019-09-08T08:34:56Z</time>
      </trkpt>
      <trkpt lat="47.2674" lon="-2.2766">
        <ele>91</ele>
        <time>2019-09-08T08:34:57Z</time>
      </trkpt>
      <trkpt lat="47.26745" lon="-2.27661">
        <ele>90</ele>
        <time>2019-09-08T08:34:58Z</time>
      </trkpt>
      <trkpt lat="47.2675" lon="-2.27662">
        <ele>89</ele>
        <time>2019-09-08T08:34:59Z</time>
      </trkpt>
      <trkpt lat="47.26755" lon="-2.27656">
        <ele>89</ele>
        <time>2019-09-08T08:35:01Z</time>
      </trkpt>
      <trkpt lat="47.26757" lon="-2.27644">
        <ele>88</ele>
        <time>2019-09-08T08:35:03Z</time>
      </trkpt>
      <trkpt lat="47.26758" lon="-2.27636">
        <ele>87</ele>
        <time>2019-09-08T08:35:04Z</time>
      </trkpt>
      <trkpt lat="47.26758" lon="-2.27627">
        <ele>87</ele>
        <time>2019-09-08T08:35:05Z</time>
      </trkpt>
      <trkpt lat="47.26755" lon="-2.27601">
        <ele>86</ele>
        <time>2019-09-08T08:35:08Z</time>
      </trkpt>
      <trkpt lat="47.26754" lon="-2.27593">
        <ele>85</ele>
        <time>2019-09-08T08:35:09Z</time>
      </trkpt>
      <trkpt lat="47.26753" lon="-2.27585">
        <ele>85</ele>
        <time>2019-09-08T08:35:10Z</time>
      </trkpt>
      <trkpt lat="47.26751" lon="-2.27577">
        <ele>85</ele>
        <time>2019-09-08T08:35:11Z</time>
      </trkpt>
      <trkpt lat="47.2675" lon="-2.27569">
        <ele>85</ele>
        <time>2019-09-08T08:35:12Z</time>
      </trkpt>
      <trkpt lat="47.2675" lon="-2.27561">
        <ele>85</ele>
        <time>2019-09-08T08:35:13Z</time>
      </trkpt>
      <trkpt lat="47.2675" lon="-2.27553">
        <ele>85</ele>
        <time>2019-09-08T08:35:14Z</time>
      </trkpt>
      <trkpt lat="47.26749" lon="-2.27545">
        <ele>85</ele>
        <time>2019-09-08T08:35:16Z</time>
      </trkpt>
      <trkpt lat="47.26749" lon="-2.27537">
        <ele>85</ele>
        <time>2019-09-08T08:35:17Z</time>
      </trkpt>
      <trkpt lat="47.26749" lon="-2.27529">
        <ele>85</ele>
        <time>2019-09-08T08:35:18Z</time>
      </trkpt>
      <trkpt lat="47.26749" lon="-2.27521">
        <ele>84</ele>
        <time>2019-09-08T08:35:19Z</time>
      </trkpt>
      <trkpt lat="47.26749" lon="-2.27514">
        <ele>85</ele>
        <time>2019-09-08T08:35:20Z</time>
      </trkpt>
      <trkpt lat="47.2675" lon="-2.27507">
        <ele>85</ele>
        <time>2019-09-08T08:35:21Z</time>
      </trkpt>
      <trkpt lat="47.26751" lon="-2.27489">
        <ele>84</ele>
        <time>2019-09-08T08:35:23Z</time>
      </trkpt>
      <trkpt lat="47.26751" lon="-2.27483">
        <ele>84</ele>
        <time>2019-09-08T08:35:24Z</time>
      </trkpt>
      <trkpt lat="47.2675" lon="-2.27464">
        <ele>84</ele>
        <time>2019-09-08T08:35:27Z</time>
      </trkpt>
      <trkpt lat="47.2675" lon="-2.27457">
        <ele>84</ele>
        <time>2019-09-08T08:35:28Z</time>
      </trkpt>
      <trkpt lat="47.2675" lon="-2.27445">
        <ele>85</ele>
        <time>2019-09-08T08:35:30Z</time>
      </trkpt>
      <trkpt lat="47.2675" lon="-2.27438">
        <ele>85</ele>
        <time>2019-09-08T08:35:31Z</time>
      </trkpt>
      <trkpt lat="47.2675" lon="-2.27431">
        <ele>85</ele>
        <time>2019-09-08T08:35:32Z</time>
      </trkpt>
      <trkpt lat="47.26756" lon="-2.27422">
        <ele>85</ele>
        <time>2019-09-08T08:35:34Z</time>
      </trkpt>
      <trkpt lat="47.26768" lon="-2.27419">
        <ele>85</ele>
        <time>2019-09-08T08:35:37Z</time>
      </trkpt>
      <trkpt lat="47.26777" lon="-2.2742">
        <ele>85</ele>
        <time>2019-09-08T08:35:39Z</time>
      </trkpt>
      <trkpt lat="47.26782" lon="-2.27421">
        <ele>86</ele>
        <time>2019-09-08T08:35:40Z</time>
      </trkpt>
      <trkpt lat="47.26787" lon="-2.2742">
        <ele>86</ele>
        <time>2019-09-08T08:35:41Z</time>
      </trkpt>
      <trkpt lat="47.26804" lon="-2.2742">
        <ele>86</ele>
        <time>2019-09-08T08:35:44Z</time>
      </trkpt>
      <trkpt lat="47.26809" lon="-2.27419">
        <ele>86</ele>
        <time>2019-09-08T08:35:45Z</time>
      </trkpt>
      <trkpt lat="47.26814" lon="-2.27419">
        <ele>86</ele>
        <time>2019-09-08T08:35:46Z</time>
      </trkpt>
      <trkpt lat="47.2683" lon="-2.2742">
        <ele>86</ele>
        <time>2019-09-08T08:35:49Z</time>
      </trkpt>
      <trkpt lat="47.26841" lon="-2.27419">
        <ele>87</ele>
        <time>2019-09-08T08:35:51Z</time>
      </trkpt>
      <trkpt lat="47.26859" lon="-2.27412">
        <ele>87</ele>
        <time>2019-09-08T08:35:54Z</time>
      </trkpt>
      <trkpt lat="47.26864" lon="-2.2741">
        <ele>87</ele>
        <time>2019-09-08T08:35:55Z</time>
      </trkpt>
      <trkpt lat="47.26881" lon="-2.27405">
        <ele>88</ele>
        <time>2019-09-08T08:35:58Z</time>
      </trkpt>
      <trkpt lat="47.2689" lon="-2.274">
        <ele>88</ele>
        <time>2019-09-08T08:36:00Z</time>
      </trkpt>
      <trkpt lat="47.26894" lon="-2.27397">
        <ele>88</ele>
        <time>2019-09-08T08:36:01Z</time>
      </trkpt>
      <trkpt lat="47.26901" lon="-2.27394">
        <ele>88</ele>
        <time>2019-09-08T08:36:03Z</time>
      </trkpt>
      <trkpt lat="47.26909" lon="-2.27388">
        <ele>89</ele>
        <time>2019-09-08T08:36:06Z</time>
      </trkpt>
      <trkpt lat="47.26912" lon="-2.2738">
        <ele>89</ele>
        <time>2019-09-08T08:36:08Z</time>
      </trkpt>
      <trkpt lat="47.26915" lon="-2.27372">
        <ele>90</ele>
        <time>2019-09-08T08:36:10Z</time>
      </trkpt>
      <trkpt lat="47.26919" lon="-2.27361">
        <ele>90</ele>
        <time>2019-09-08T08:36:13Z</time>
      </trkpt>
      <trkpt lat="47.26921" lon="-2.27354">
        <ele>90</ele>
        <time>2019-09-08T08:36:15Z</time>
      </trkpt>
      <trkpt lat="47.26925" lon="-2.2734">
        <ele>90</ele>
        <time>2019-09-08T08:36:19Z</time>
      </trkpt>
      <trkpt lat="47.26926" lon="-2.27337">
        <ele>90</ele>
        <time>2019-09-08T08:36:20Z</time>
      </trkpt>
      <trkpt lat="47.26927" lon="-2.27329">
        <ele>90</ele>
        <time>2019-09-08T08:36:22Z</time>
      </trkpt>
      <trkpt lat="47.26928" lon="-2.27323">
        <ele>90</ele>
        <time>2019-09-08T08:36:24Z</time>
      </trkpt>
      <trkpt lat="47.26929" lon="-2.27317">
        <ele>90</ele>
        <time>2019-09-08T08:36:26Z</time>
      </trkpt>
      <trkpt lat="47.2693" lon="-2.27313">
        <ele>90</ele>
        <time>2019-09-08T08:36:27Z</time>
      </trkpt>
      <trkpt lat="47.26931" lon="-2.27303">
        <ele>90</ele>
        <time>2019-09-08T08:36:30Z</time>
      </trkpt>
      <trkpt lat="47.26931" lon="-2.27298">
        <ele>91</ele>
        <time>2019-09-08T08:36:32Z</time>
      </trkpt>
      <trkpt lat="47.26933" lon="-2.27287">
        <ele>90</ele>
        <time>2019-09-08T08:36:35Z</time>
      </trkpt>
      <trkpt lat="47.26938" lon="-2.2728">
        <ele>91</ele>
        <time>2019-09-08T08:36:38Z</time>
      </trkpt>
      <trkpt lat="47.26944" lon="-2.27277">
        <ele>91</ele>
        <time>2019-09-08T08:36:41Z</time>
      </trkpt>
      <trkpt lat="47.26949" lon="-2.27275">
        <ele>91</ele>
        <time>2019-09-08T08:36:44Z</time>
      </trkpt>
      <trkpt lat="47.26953" lon="-2.27269">
        <ele>91</ele>
        <time>2019-09-08T08:36:47Z</time>
      </trkpt>
      <trkpt lat="47.26956" lon="-2.2726">
        <ele>92</ele>
        <time>2019-09-08T08:36:51Z</time>
      </trkpt>
      <trkpt lat="47.26957" lon="-2.27256">
        <ele>92</ele>
        <time>2019-09-08T08:36:52Z</time>
      </trkpt>
      <trkpt lat="47.26958" lon="-2.27248">
        <ele>92</ele>
        <time>2019-09-08T08:36:54Z</time>
      </trkpt>
      <trkpt lat="47.26959" lon="-2.27238">
        <ele>93</ele>
        <time>2019-09-08T08:36:56Z</time>
      </trkpt>
      <trkpt lat="47.26959" lon="-2.27231">
        <ele>93</ele>
        <time>2019-09-08T08:36:58Z</time>
      </trkpt>
      <trkpt lat="47.26965" lon="-2.27225">
        <ele>93</ele>
        <time>2019-09-08T08:37:01Z</time>
      </trkpt>
      <trkpt lat="47.26968" lon="-2.27219">
        <ele>92</ele>
        <time>2019-09-08T08:37:03Z</time>
      </trkpt>
      <trkpt lat="47.2697" lon="-2.27208">
        <ele>92</ele>
        <time>2019-09-08T08:37:06Z</time>
      </trkpt>
      <trkpt lat="47.26974" lon="-2.27201">
        <ele>93</ele>
        <time>2019-09-08T08:37:09Z</time>
      </trkpt>
      <trkpt lat="47.26981" lon="-2.27197">
        <ele>94</ele>
        <time>2019-09-08T08:37:13Z</time>
      </trkpt>
      <trkpt lat="47.26986" lon="-2.27193">
        <ele>95</ele>
        <time>2019-09-08T08:37:17Z</time>
      </trkpt>
      <trkpt lat="47.26989" lon="-2.2719">
        <ele>95</ele>
        <time>2019-09-08T08:37:19Z</time>
      </trkpt>
      <trkpt lat="47.26993" lon="-2.27187">
        <ele>95</ele>
        <time>2019-09-08T08:37:22Z</time>
      </trkpt>
      <trkpt lat="47.26997" lon="-2.27185">
        <ele>94</ele>
        <time>2019-09-08T08:37:25Z</time>
      </trkpt>
      <trkpt lat="47.27002" lon="-2.27187">
        <ele>94</ele>
        <time>2019-09-08T08:37:30Z</time>
      </trkpt>
      <trkpt lat="47.27006" lon="-2.27184">
        <ele>94</ele>
        <time>2019-09-08T08:37:34Z</time>
      </trkpt>
      <trkpt lat="47.27012" lon="-2.27177">
        <ele>95</ele>
        <time>2019-09-08T08:37:38Z</time>
      </trkpt>
      <trkpt lat="47.27019" lon="-2.27171">
        <ele>94</ele>
        <time>2019-09-08T08:37:42Z</time>
      </trkpt>
      <trkpt lat="47.27019" lon="-2.27164">
        <ele>94</ele>
        <time>2019-09-08T08:37:44Z</time>
      </trkpt>
      <trkpt lat="47.27019" lon="-2.2716">
        <ele>93</ele>
        <time>2019-09-08T08:37:45Z</time>
      </trkpt>
      <trkpt lat="47.27019" lon="-2.27152">
        <ele>94</ele>
        <time>2019-09-08T08:37:47Z</time>
      </trkpt>
      <trkpt lat="47.27018" lon="-2.27143">
        <ele>93</ele>
        <time>2019-09-08T08:37:49Z</time>
      </trkpt>
      <trkpt lat="47.27017" lon="-2.27138">
        <ele>93</ele>
        <time>2019-09-08T08:37:50Z</time>
      </trkpt>
      <trkpt lat="47.27016" lon="-2.27132">
        <ele>93</ele>
        <time>2019-09-08T08:37:51Z</time>
      </trkpt>
      <trkpt lat="47.27011" lon="-2.27116">
        <ele>93</ele>
        <time>2019-09-08T08:37:54Z</time>
      </trkpt>
      <trkpt lat="47.27009" lon="-2.27109">
        <ele>93</ele>
        <time>2019-09-08T08:37:55Z</time>
      </trkpt>
      <trkpt lat="47.27008" lon="-2.27102">
        <ele>94</ele>
        <time>2019-09-08T08:37:56Z</time>
      </trkpt>
      <trkpt lat="47.27005" lon="-2.27093">
        <ele>93</ele>
        <time>2019-09-08T08:37:57Z</time>
      </trkpt>
      <trkpt lat="47.27003" lon="-2.27084">
        <ele>91</ele>
        <time>2019-09-08T08:37:58Z</time>
      </trkpt>
      <trkpt lat="47.27" lon="-2.27076">
        <ele>90</ele>
        <time>2019-09-08T08:37:59Z</time>
      </trkpt>
      <trkpt lat="47.26996" lon="-2.27062">
        <ele>89</ele>
        <time>2019-09-08T08:38:01Z</time>
      </trkpt>
      <trkpt lat="47.26992" lon="-2.27049">
        <ele>87</ele>
        <time>2019-09-08T08:38:03Z</time>
      </trkpt>
      <trkpt lat="47.26988" lon="-2.27042">
        <ele>87</ele>
        <time>2019-09-08T08:38:04Z</time>
      </trkpt>
      <trkpt lat="47.26977" lon="-2.27022">
        <ele>85</ele>
        <time>2019-09-08T08:38:07Z</time>
      </trkpt>
      <trkpt lat="47.26973" lon="-2.27016">
        <ele>85</ele>
        <time>2019-09-08T08:38:08Z</time>
      </trkpt>
      <trkpt lat="47.26967" lon="-2.27002">
        <ele>85</ele>
        <time>2019-09-08T08:38:10Z</time>
      </trkpt>
      <trkpt lat="47.26963" lon="-2.26995">
        <ele>85</ele>
        <time>2019-09-08T08:38:12Z</time>
      </trkpt>
      <trkpt lat="47.26961" lon="-2.26987">
        <ele>85</ele>
        <time>2019-09-08T08:38:13Z</time>
      </trkpt>
      <trkpt lat="47.2696" lon="-2.26979">
        <ele>85</ele>
        <time>2019-09-08T08:38:14Z</time>
      </trkpt>
      <trkpt lat="47.2696" lon="-2.26971">
        <ele>85</ele>
        <time>2019-09-08T08:38:15Z</time>
      </trkpt>
      <trkpt lat="47.26961" lon="-2.26963">
        <ele>85</ele>
        <time>2019-09-08T08:38:16Z</time>
      </trkpt>
      <trkpt lat="47.26965" lon="-2.26927">
        <ele>84</ele>
        <time>2019-09-08T08:38:19Z</time>
      </trkpt>
      <trkpt lat="47.26965" lon="-2.26918">
        <ele>84</ele>
        <time>2019-09-08T08:38:20Z</time>
      </trkpt>
      <trkpt lat="47.26963" lon="-2.26909">
        <ele>84</ele>
        <time>2019-09-08T08:38:21Z</time>
      </trkpt>
      <trkpt lat="47.26963" lon="-2.26899">
        <ele>84</ele>
        <time>2019-09-08T08:38:22Z</time>
      </trkpt>
      <trkpt lat="47.26959" lon="-2.26879">
        <ele>83</ele>
        <time>2019-09-08T08:38:24Z</time>
      </trkpt>
      <trkpt lat="47.26959" lon="-2.26868">
        <ele>83</ele>
        <time>2019-09-08T08:38:25Z</time>
      </trkpt>
      <trkpt lat="47.26957" lon="-2.26857">
        <ele>82</ele>
        <time>2019-09-08T08:38:26Z</time>
      </trkpt>
      <trkpt lat="47.26956" lon="-2.26848">
        <ele>81</ele>
        <time>2019-09-08T08:38:27Z</time>
      </trkpt>
      <trkpt lat="47.26954" lon="-2.26837">
        <ele>81</ele>
        <time>2019-09-08T08:38:28Z</time>
      </trkpt>
      <trkpt lat="47.26952" lon="-2.26828">
        <ele>81</ele>
        <time>2019-09-08T08:38:29Z</time>
      </trkpt>
      <trkpt lat="47.26949" lon="-2.26819">
        <ele>81</ele>
        <time>2019-09-08T08:38:30Z</time>
      </trkpt>
      <trkpt lat="47.26946" lon="-2.2681">
        <ele>80</ele>
        <time>2019-09-08T08:38:31Z</time>
      </trkpt>
      <trkpt lat="47.26944" lon="-2.26801">
        <ele>80</ele>
        <time>2019-09-08T08:38:32Z</time>
      </trkpt>
      <trkpt lat="47.26941" lon="-2.26792">
        <ele>80</ele>
        <time>2019-09-08T08:38:33Z</time>
      </trkpt>
      <trkpt lat="47.26939" lon="-2.26784">
        <ele>80</ele>
        <time>2019-09-08T08:38:34Z</time>
      </trkpt>
      <trkpt lat="47.26937" lon="-2.26776">
        <ele>80</ele>
        <time>2019-09-08T08:38:35Z</time>
      </trkpt>
      <trkpt lat="47.26935" lon="-2.26768">
        <ele>80</ele>
        <time>2019-09-08T08:38:36Z</time>
      </trkpt>
      <trkpt lat="47.26934" lon="-2.2676">
        <ele>80</ele>
        <time>2019-09-08T08:38:37Z</time>
      </trkpt>
      <trkpt lat="47.26932" lon="-2.26752">
        <ele>80</ele>
        <time>2019-09-08T08:38:38Z</time>
      </trkpt>
      <trkpt lat="47.2693" lon="-2.26745">
        <ele>80</ele>
        <time>2019-09-08T08:38:39Z</time>
      </trkpt>
      <trkpt lat="47.26927" lon="-2.26738">
        <ele>80</ele>
        <time>2019-09-08T08:38:40Z</time>
      </trkpt>
      <trkpt lat="47.26924" lon="-2.26731">
        <ele>79</ele>
        <time>2019-09-08T08:38:41Z</time>
      </trkpt>
      <trkpt lat="47.26919" lon="-2.26707">
        <ele>80</ele>
        <time>2019-09-08T08:38:44Z</time>
      </trkpt>
      <trkpt lat="47.26918" lon="-2.26699">
        <ele>80</ele>
        <time>2019-09-08T08:38:45Z</time>
      </trkpt>
      <trkpt lat="47.26916" lon="-2.26692">
        <ele>80</ele>
        <time>2019-09-08T08:38:46Z</time>
      </trkpt>
      <trkpt lat="47.26911" lon="-2.26678">
        <ele>79</ele>
        <time>2019-09-08T08:38:48Z</time>
      </trkpt>
      <trkpt lat="47.26909" lon="-2.2667">
        <ele>79</ele>
        <time>2019-09-08T08:38:49Z</time>
      </trkpt>
      <trkpt lat="47.26906" lon="-2.26664">
        <ele>79</ele>
        <time>2019-09-08T08:38:50Z</time>
      </trkpt>
      <trkpt lat="47.26903" lon="-2.26657">
        <ele>80</ele>
        <time>2019-09-08T08:38:51Z</time>
      </trkpt>
      <trkpt lat="47.26901" lon="-2.2665">
        <ele>79</ele>
        <time>2019-09-08T08:38:52Z</time>
      </trkpt>
      <trkpt lat="47.26898" lon="-2.26643">
        <ele>79</ele>
        <time>2019-09-08T08:38:53Z</time>
      </trkpt>
      <trkpt lat="47.26896" lon="-2.26636">
        <ele>79</ele>
        <time>2019-09-08T08:38:54Z</time>
      </trkpt>
      <trkpt lat="47.26894" lon="-2.26628">
        <ele>79</ele>
        <time>2019-09-08T08:38:55Z</time>
      </trkpt>
      <trkpt lat="47.26885" lon="-2.26602">
        <ele>78</ele>
        <time>2019-09-08T08:38:59Z</time>
      </trkpt>
      <trkpt lat="47.26879" lon="-2.26592">
        <ele>78</ele>
        <time>2019-09-08T08:39:01Z</time>
      </trkpt>
      <trkpt lat="47.26877" lon="-2.26587">
        <ele>78</ele>
        <time>2019-09-08T08:39:02Z</time>
      </trkpt>
      <trkpt lat="47.26874" lon="-2.26583">
        <ele>78</ele>
        <time>2019-09-08T08:39:03Z</time>
      </trkpt>
      <trkpt lat="47.2687" lon="-2.26572">
        <ele>77</ele>
        <time>2019-09-08T08:39:05Z</time>
      </trkpt>
      <trkpt lat="47.26869" lon="-2.26564">
        <ele>77</ele>
        <time>2019-09-08T08:39:07Z</time>
      </trkpt>
      <trkpt lat="47.26869" lon="-2.26556">
        <ele>78</ele>
        <time>2019-09-08T08:39:10Z</time>
      </trkpt>
      <trkpt lat="47.26875" lon="-2.26547">
        <ele>78</ele>
        <time>2019-09-08T08:39:13Z</time>
      </trkpt>
      <trkpt lat="47.26882" lon="-2.26541">
        <ele>78</ele>
        <time>2019-09-08T08:39:15Z</time>
      </trkpt>
      <trkpt lat="47.2689" lon="-2.26539">
        <ele>78</ele>
        <time>2019-09-08T08:39:17Z</time>
      </trkpt>
      <trkpt lat="47.26898" lon="-2.26533">
        <ele>77</ele>
        <time>2019-09-08T08:39:19Z</time>
      </trkpt>
      <trkpt lat="47.26902" lon="-2.26531">
        <ele>77</ele>
        <time>2019-09-08T08:39:20Z</time>
      </trkpt>
      <trkpt lat="47.26906" lon="-2.26529">
        <ele>77</ele>
        <time>2019-09-08T08:39:22Z</time>
      </trkpt>
      <trkpt lat="47.26914" lon="-2.26525">
        <ele>76</ele>
        <time>2019-09-08T08:39:24Z</time>
      </trkpt>
      <trkpt lat="47.26917" lon="-2.26524">
        <ele>76</ele>
        <time>2019-09-08T08:39:25Z</time>
      </trkpt>
      <trkpt lat="47.26924" lon="-2.26521">
        <ele>76</ele>
        <time>2019-09-08T08:39:27Z</time>
      </trkpt>
      <trkpt lat="47.26933" lon="-2.26516">
        <ele>76</ele>
        <time>2019-09-08T08:39:29Z</time>
      </trkpt>
      <trkpt lat="47.26939" lon="-2.26514">
        <ele>76</ele>
        <time>2019-09-08T08:39:31Z</time>
      </trkpt>
      <trkpt lat="47.26945" lon="-2.26512">
        <ele>76</ele>
        <time>2019-09-08T08:39:33Z</time>
      </trkpt>
      <trkpt lat="47.26951" lon="-2.26508">
        <ele>76</ele>
        <time>2019-09-08T08:39:35Z</time>
      </trkpt>
      <trkpt lat="47.26954" lon="-2.26506">
        <ele>76</ele>
        <time>2019-09-08T08:39:36Z</time>
      </trkpt>
      <trkpt lat="47.26962" lon="-2.26502">
        <ele>75</ele>
        <time>2019-09-08T08:39:38Z</time>
      </trkpt>
      <trkpt lat="47.26969" lon="-2.26498">
        <ele>76</ele>
        <time>2019-09-08T08:39:40Z</time>
      </trkpt>
      <trkpt lat="47.26972" lon="-2.26496">
        <ele>76</ele>
        <time>2019-09-08T08:39:41Z</time>
      </trkpt>
      <trkpt lat="47.26976" lon="-2.26493">
        <ele>76</ele>
        <time>2019-09-08T08:39:42Z</time>
      </trkpt>
      <trkpt lat="47.26987" lon="-2.26482">
        <ele>76</ele>
        <time>2019-09-08T08:39:45Z</time>
      </trkpt>
      <trkpt lat="47.2699" lon="-2.26478">
        <ele>77</ele>
        <time>2019-09-08T08:39:46Z</time>
      </trkpt>
      <trkpt lat="47.26994" lon="-2.26474">
        <ele>76</ele>
        <time>2019-09-08T08:39:47Z</time>
      </trkpt>
      <trkpt lat="47.27009" lon="-2.26452">
        <ele>77</ele>
        <time>2019-09-08T08:39:51Z</time>
      </trkpt>
      <trkpt lat="47.27024" lon="-2.26431">
        <ele>78</ele>
        <time>2019-09-08T08:39:55Z</time>
      </trkpt>
      <trkpt lat="47.27031" lon="-2.26421">
        <ele>79</ele>
        <time>2019-09-08T08:39:57Z</time>
      </trkpt>
      <trkpt lat="47.27035" lon="-2.26416">
        <ele>78</ele>
        <time>2019-09-08T08:39:58Z</time>
      </trkpt>
      <trkpt lat="47.27038" lon="-2.26411">
        <ele>78</ele>
        <time>2019-09-08T08:39:59Z</time>
      </trkpt>
      <trkpt lat="47.27041" lon="-2.26404">
        <ele>78</ele>
        <time>2019-09-08T08:40:00Z</time>
      </trkpt>
      <trkpt lat="47.27045" lon="-2.26399">
        <ele>78</ele>
        <time>2019-09-08T08:40:01Z</time>
      </trkpt>
      <trkpt lat="47.27048" lon="-2.26395">
        <ele>78</ele>
        <time>2019-09-08T08:40:02Z</time>
      </trkpt>
      <trkpt lat="47.27056" lon="-2.26384">
        <ele>78</ele>
        <time>2019-09-08T08:40:04Z</time>
      </trkpt>
      <trkpt lat="47.2706" lon="-2.26378">
        <ele>78</ele>
        <time>2019-09-08T08:40:05Z</time>
      </trkpt>
      <trkpt lat="47.27064" lon="-2.26373">
        <ele>78</ele>
        <time>2019-09-08T08:40:06Z</time>
      </trkpt>
      <trkpt lat="47.27067" lon="-2.26368">
        <ele>78</ele>
        <time>2019-09-08T08:40:07Z</time>
      </trkpt>
      <trkpt lat="47.27074" lon="-2.26359">
        <ele>78</ele>
        <time>2019-09-08T08:40:09Z</time>
      </trkpt>
      <trkpt lat="47.27077" lon="-2.26353">
        <ele>78</ele>
        <time>2019-09-08T08:40:10Z</time>
      </trkpt>
      <trkpt lat="47.27081" lon="-2.26348">
        <ele>78</ele>
        <time>2019-09-08T08:40:11Z</time>
      </trkpt>
      <trkpt lat="47.27084" lon="-2.26343">
        <ele>77</ele>
        <time>2019-09-08T08:40:12Z</time>
      </trkpt>
      <trkpt lat="47.27087" lon="-2.26338">
        <ele>77</ele>
        <time>2019-09-08T08:40:13Z</time>
      </trkpt>
      <trkpt lat="47.2709" lon="-2.26333">
        <ele>77</ele>
        <time>2019-09-08T08:40:14Z</time>
      </trkpt>
      <trkpt lat="47.27094" lon="-2.26328">
        <ele>77</ele>
        <time>2019-09-08T08:40:15Z</time>
      </trkpt>
      <trkpt lat="47.27098" lon="-2.26323">
        <ele>77</ele>
        <time>2019-09-08T08:40:16Z</time>
      </trkpt>
      <trkpt lat="47.27101" lon="-2.26318">
        <ele>77</ele>
        <time>2019-09-08T08:40:17Z</time>
      </trkpt>
      <trkpt lat="47.27108" lon="-2.26308">
        <ele>77</ele>
        <time>2019-09-08T08:40:19Z</time>
      </trkpt>
      <trkpt lat="47.27111" lon="-2.26303">
        <ele>77</ele>
        <time>2019-09-08T08:40:20Z</time>
      </trkpt>
      <trkpt lat="47.27118" lon="-2.26295">
        <ele>77</ele>
        <time>2019-09-08T08:40:22Z</time>
      </trkpt>
      <trkpt lat="47.27121" lon="-2.26291">
        <ele>77</ele>
        <time>2019-09-08T08:40:23Z</time>
      </trkpt>
      <trkpt lat="47.27128" lon="-2.26281">
        <ele>78</ele>
        <time>2019-09-08T08:40:25Z</time>
      </trkpt>
      <trkpt lat="47.27132" lon="-2.26276">
        <ele>78</ele>
        <time>2019-09-08T08:40:26Z</time>
      </trkpt>
      <trkpt lat="47.27135" lon="-2.2627">
        <ele>77</ele>
        <time>2019-09-08T08:40:27Z</time>
      </trkpt>
      <trkpt lat="47.27139" lon="-2.26266">
        <ele>77</ele>
        <time>2019-09-08T08:40:28Z</time>
      </trkpt>
      <trkpt lat="47.27142" lon="-2.26261">
        <ele>77</ele>
        <time>2019-09-08T08:40:29Z</time>
      </trkpt>
      <trkpt lat="47.27146" lon="-2.26255">
        <ele>77</ele>
        <time>2019-09-08T08:40:30Z</time>
      </trkpt>
      <trkpt lat="47.27154" lon="-2.26246">
        <ele>76</ele>
        <time>2019-09-08T08:40:32Z</time>
      </trkpt>
      <trkpt lat="47.27158" lon="-2.2624">
        <ele>76</ele>
        <time>2019-09-08T08:40:33Z</time>
      </trkpt>
      <trkpt lat="47.27163" lon="-2.26235">
        <ele>76</ele>
        <time>2019-09-08T08:40:34Z</time>
      </trkpt>
      <trkpt lat="47.27167" lon="-2.26229">
        <ele>76</ele>
        <time>2019-09-08T08:40:35Z</time>
      </trkpt>
      <trkpt lat="47.27173" lon="-2.26223">
        <ele>76</ele>
        <time>2019-09-08T08:40:36Z</time>
      </trkpt>
      <trkpt lat="47.27178" lon="-2.26217">
        <ele>76</ele>
        <time>2019-09-08T08:40:37Z</time>
      </trkpt>
      <trkpt lat="47.27183" lon="-2.26211">
        <ele>76</ele>
        <time>2019-09-08T08:40:38Z</time>
      </trkpt>
      <trkpt lat="47.27189" lon="-2.26206">
        <ele>75</ele>
        <time>2019-09-08T08:40:39Z</time>
      </trkpt>
      <trkpt lat="47.27194" lon="-2.26201">
        <ele>75</ele>
        <time>2019-09-08T08:40:40Z</time>
      </trkpt>
      <trkpt lat="47.272" lon="-2.26196">
        <ele>75</ele>
        <time>2019-09-08T08:40:41Z</time>
      </trkpt>
      <trkpt lat="47.27205" lon="-2.26191">
        <ele>75</ele>
        <time>2019-09-08T08:40:42Z</time>
      </trkpt>
      <trkpt lat="47.2721" lon="-2.26187">
        <ele>75</ele>
        <time>2019-09-08T08:40:43Z</time>
      </trkpt>
      <trkpt lat="47.27216" lon="-2.26183">
        <ele>75</ele>
        <time>2019-09-08T08:40:44Z</time>
      </trkpt>
      <trkpt lat="47.27221" lon="-2.26179">
        <ele>75</ele>
        <time>2019-09-08T08:40:45Z</time>
      </trkpt>
      <trkpt lat="47.27232" lon="-2.26173">
        <ele>75</ele>
        <time>2019-09-08T08:40:47Z</time>
      </trkpt>
      <trkpt lat="47.27237" lon="-2.26171">
        <ele>75</ele>
        <time>2019-09-08T08:40:48Z</time>
      </trkpt>
      <trkpt lat="47.27253" lon="-2.26163">
        <ele>75</ele>
        <time>2019-09-08T08:40:51Z</time>
      </trkpt>
      <trkpt lat="47.27269" lon="-2.26155">
        <ele>76</ele>
        <time>2019-09-08T08:40:54Z</time>
      </trkpt>
      <trkpt lat="47.27275" lon="-2.26152">
        <ele>77</ele>
        <time>2019-09-08T08:40:55Z</time>
      </trkpt>
      <trkpt lat="47.2728" lon="-2.26151">
        <ele>77</ele>
        <time>2019-09-08T08:40:56Z</time>
      </trkpt>
      <trkpt lat="47.27284" lon="-2.26148">
        <ele>76</ele>
        <time>2019-09-08T08:40:57Z</time>
      </trkpt>
      <trkpt lat="47.2729" lon="-2.26146">
        <ele>76</ele>
        <time>2019-09-08T08:40:58Z</time>
      </trkpt>
      <trkpt lat="47.27296" lon="-2.26144">
        <ele>76</ele>
        <time>2019-09-08T08:40:59Z</time>
      </trkpt>
      <trkpt lat="47.27301" lon="-2.26142">
        <ele>76</ele>
        <time>2019-09-08T08:41:00Z</time>
      </trkpt>
      <trkpt lat="47.27306" lon="-2.26141">
        <ele>76</ele>
        <time>2019-09-08T08:41:01Z</time>
      </trkpt>
      <trkpt lat="47.27311" lon="-2.2614">
        <ele>75</ele>
        <time>2019-09-08T08:41:02Z</time>
      </trkpt>
      <trkpt lat="47.27325" lon="-2.26134">
        <ele>75</ele>
        <time>2019-09-08T08:41:05Z</time>
      </trkpt>
      <trkpt lat="47.2733" lon="-2.26132">
        <ele>75</ele>
        <time>2019-09-08T08:41:06Z</time>
      </trkpt>
      <trkpt lat="47.27334" lon="-2.26131">
        <ele>75</ele>
        <time>2019-09-08T08:41:07Z</time>
      </trkpt>
      <trkpt lat="47.27339" lon="-2.26129">
        <ele>74</ele>
        <time>2019-09-08T08:41:08Z</time>
      </trkpt>
      <trkpt lat="47.27344" lon="-2.26128">
        <ele>74</ele>
        <time>2019-09-08T08:41:09Z</time>
      </trkpt>
      <trkpt lat="47.2735" lon="-2.26127">
        <ele>74</ele>
        <time>2019-09-08T08:41:10Z</time>
      </trkpt>
      <trkpt lat="47.27355" lon="-2.26129">
        <ele>74</ele>
        <time>2019-09-08T08:41:11Z</time>
      </trkpt>
      <trkpt lat="47.27359" lon="-2.26132">
        <ele>74</ele>
        <time>2019-09-08T08:41:12Z</time>
      </trkpt>
      <trkpt lat="47.27363" lon="-2.26136">
        <ele>74</ele>
        <time>2019-09-08T08:41:13Z</time>
      </trkpt>
      <trkpt lat="47.27367" lon="-2.2614">
        <ele>74</ele>
        <time>2019-09-08T08:41:14Z</time>
      </trkpt>
      <trkpt lat="47.2737" lon="-2.26146">
        <ele>74</ele>
        <time>2019-09-08T08:41:15Z</time>
      </trkpt>
      <trkpt lat="47.27374" lon="-2.26152">
        <ele>74</ele>
        <time>2019-09-08T08:41:16Z</time>
      </trkpt>
      <trkpt lat="47.27378" lon="-2.26158">
        <ele>73</ele>
        <time>2019-09-08T08:41:17Z</time>
      </trkpt>
      <trkpt lat="47.27381" lon="-2.26164">
        <ele>73</ele>
        <time>2019-09-08T08:41:18Z</time>
      </trkpt>
      <trkpt lat="47.27385" lon="-2.26169">
        <ele>73</ele>
        <time>2019-09-08T08:41:19Z</time>
      </trkpt>
      <trkpt lat="47.27389" lon="-2.26175">
        <ele>73</ele>
        <time>2019-09-08T08:41:20Z</time>
      </trkpt>
      <trkpt lat="47.27396" lon="-2.26187">
        <ele>73</ele>
        <time>2019-09-08T08:41:22Z</time>
      </trkpt>
      <trkpt lat="47.274" lon="-2.26194">
        <ele>73</ele>
        <time>2019-09-08T08:41:23Z</time>
      </trkpt>
      <trkpt lat="47.27404" lon="-2.262">
        <ele>73</ele>
        <time>2019-09-08T08:41:24Z</time>
      </trkpt>
      <trkpt lat="47.27407" lon="-2.26205">
        <ele>73</ele>
        <time>2019-09-08T08:41:25Z</time>
      </trkpt>
      <trkpt lat="47.27412" lon="-2.26211">
        <ele>73</ele>
        <time>2019-09-08T08:41:26Z</time>
      </trkpt>
      <trkpt lat="47.27416" lon="-2.26218">
        <ele>73</ele>
        <time>2019-09-08T08:41:27Z</time>
      </trkpt>
      <trkpt lat="47.2742" lon="-2.26224">
        <ele>72</ele>
        <time>2019-09-08T08:41:28Z</time>
      </trkpt>
      <trkpt lat="47.27424" lon="-2.2623">
        <ele>72</ele>
        <time>2019-09-08T08:41:29Z</time>
      </trkpt>
      <trkpt lat="47.27428" lon="-2.26237">
        <ele>72</ele>
        <time>2019-09-08T08:41:30Z</time>
      </trkpt>
      <trkpt lat="47.27433" lon="-2.26243">
        <ele>72</ele>
        <time>2019-09-08T08:41:31Z</time>
      </trkpt>
      <trkpt lat="47.27438" lon="-2.26249">
        <ele>72</ele>
        <time>2019-09-08T08:41:32Z</time>
      </trkpt>
      <trkpt lat="47.27444" lon="-2.26255">
        <ele>72</ele>
        <time>2019-09-08T08:41:33Z</time>
      </trkpt>
      <trkpt lat="47.2745" lon="-2.26259">
        <ele>71</ele>
        <time>2019-09-08T08:41:34Z</time>
      </trkpt>
      <trkpt lat="47.27455" lon="-2.26264">
        <ele>71</ele>
        <time>2019-09-08T08:41:35Z</time>
      </trkpt>
      <trkpt lat="47.27461" lon="-2.26269">
        <ele>71</ele>
        <time>2019-09-08T08:41:36Z</time>
      </trkpt>
      <trkpt lat="47.27468" lon="-2.26273">
        <ele>71</ele>
        <time>2019-09-08T08:41:37Z</time>
      </trkpt>
      <trkpt lat="47.27474" lon="-2.26276">
        <ele>70</ele>
        <time>2019-09-08T08:41:38Z</time>
      </trkpt>
      <trkpt lat="47.2748" lon="-2.2628">
        <ele>70</ele>
        <time>2019-09-08T08:41:39Z</time>
      </trkpt>
      <trkpt lat="47.27487" lon="-2.26283">
        <ele>71</ele>
        <time>2019-09-08T08:41:40Z</time>
      </trkpt>
      <trkpt lat="47.27493" lon="-2.26285">
        <ele>71</ele>
        <time>2019-09-08T08:41:41Z</time>
      </trkpt>
      <trkpt lat="47.275" lon="-2.26287">
        <ele>70</ele>
        <time>2019-09-08T08:41:42Z</time>
      </trkpt>
      <trkpt lat="47.27526" lon="-2.2629">
        <ele>70</ele>
        <time>2019-09-08T08:41:46Z</time>
      </trkpt>
      <trkpt lat="47.27545" lon="-2.26292">
        <ele>70</ele>
        <time>2019-09-08T08:41:49Z</time>
      </trkpt>
      <trkpt lat="47.27561" lon="-2.26293">
        <ele>71</ele>
        <time>2019-09-08T08:41:52Z</time>
      </trkpt>
      <trkpt lat="47.27568" lon="-2.26292">
        <ele>71</ele>
        <time>2019-09-08T08:41:53Z</time>
      </trkpt>
      <trkpt lat="47.2758" lon="-2.26287">
        <ele>71</ele>
        <time>2019-09-08T08:41:55Z</time>
      </trkpt>
      <trkpt lat="47.27587" lon="-2.26287">
        <ele>71</ele>
        <time>2019-09-08T08:41:56Z</time>
      </trkpt>
      <trkpt lat="47.27592" lon="-2.26287">
        <ele>71</ele>
        <time>2019-09-08T08:41:57Z</time>
      </trkpt>
      <trkpt lat="47.27598" lon="-2.26287">
        <ele>71</ele>
        <time>2019-09-08T08:41:58Z</time>
      </trkpt>
      <trkpt lat="47.27608" lon="-2.2629">
        <ele>71</ele>
        <time>2019-09-08T08:42:00Z</time>
      </trkpt>
      <trkpt lat="47.27613" lon="-2.26291">
        <ele>71</ele>
        <time>2019-09-08T08:42:01Z</time>
      </trkpt>
      <trkpt lat="47.27617" lon="-2.26293">
        <ele>71</ele>
        <time>2019-09-08T08:42:02Z</time>
      </trkpt>
      <trkpt lat="47.27622" lon="-2.26297">
        <ele>70</ele>
        <time>2019-09-08T08:42:03Z</time>
      </trkpt>
      <trkpt lat="47.27631" lon="-2.26305">
        <ele>71</ele>
        <time>2019-09-08T08:42:05Z</time>
      </trkpt>
      <trkpt lat="47.27635" lon="-2.26311">
        <ele>71</ele>
        <time>2019-09-08T08:42:06Z</time>
      </trkpt>
      <trkpt lat="47.27638" lon="-2.26318">
        <ele>70</ele>
        <time>2019-09-08T08:42:07Z</time>
      </trkpt>
      <trkpt lat="47.27642" lon="-2.26324">
        <ele>70</ele>
        <time>2019-09-08T08:42:08Z</time>
      </trkpt>
      <trkpt lat="47.27646" lon="-2.2633">
        <ele>70</ele>
        <time>2019-09-08T08:42:09Z</time>
      </trkpt>
      <trkpt lat="47.27649" lon="-2.26336">
        <ele>71</ele>
        <time>2019-09-08T08:42:10Z</time>
      </trkpt>
      <trkpt lat="47.27652" lon="-2.26341">
        <ele>71</ele>
        <time>2019-09-08T08:42:11Z</time>
      </trkpt>
      <trkpt lat="47.27659" lon="-2.26341">
        <ele>72</ele>
        <time>2019-09-08T08:42:14Z</time>
      </trkpt>
      <trkpt lat="47.27659" lon="-2.26326">
        <ele>72</ele>
        <time>2019-09-08T08:42:17Z</time>
      </trkpt>
      <trkpt lat="47.27659" lon="-2.26319">
        <ele>72</ele>
        <time>2019-09-08T08:42:18Z</time>
      </trkpt>
      <trkpt lat="47.27657" lon="-2.2629">
        <ele>72</ele>
        <time>2019-09-08T08:42:22Z</time>
      </trkpt>
      <trkpt lat="47.27656" lon="-2.26283">
        <ele>72</ele>
        <time>2019-09-08T08:42:23Z</time>
      </trkpt>
      <trkpt lat="47.27655" lon="-2.26277">
        <ele>71</ele>
        <time>2019-09-08T08:42:24Z</time>
      </trkpt>
      <trkpt lat="47.27654" lon="-2.26272">
        <ele>71</ele>
        <time>2019-09-08T08:42:25Z</time>
      </trkpt>
      <trkpt lat="47.2765" lon="-2.26258">
        <ele>70</ele>
        <time>2019-09-08T08:42:28Z</time>
      </trkpt>
      <trkpt lat="47.27647" lon="-2.26249">
        <ele>71</ele>
        <time>2019-09-08T08:42:31Z</time>
      </trkpt>
      <trkpt lat="47.27646" lon="-2.26245">
        <ele>71</ele>
        <time>2019-09-08T08:42:32Z</time>
      </trkpt>
      <trkpt lat="47.27639" lon="-2.26229">
        <ele>72</ele>
        <time>2019-09-08T08:42:36Z</time>
      </trkpt>
      <trkpt lat="47.27635" lon="-2.26217">
        <ele>72</ele>
        <time>2019-09-08T08:42:38Z</time>
      </trkpt>
      <trkpt lat="47.27631" lon="-2.262">
        <ele>73</ele>
        <time>2019-09-08T08:42:41Z</time>
      </trkpt>
      <trkpt lat="47.27627" lon="-2.26189">
        <ele>73</ele>
        <time>2019-09-08T08:42:43Z</time>
      </trkpt>
      <trkpt lat="47.27626" lon="-2.26185">
        <ele>73</ele>
        <time>2019-09-08T08:42:44Z</time>
      </trkpt>
      <trkpt lat="47.27625" lon="-2.26182">
        <ele>73</ele>
        <time>2019-09-08T08:42:45Z</time>
      </trkpt>
      <trkpt lat="47.27632" lon="-2.26177">
        <ele>74</ele>
        <time>2019-09-08T08:42:48Z</time>
      </trkpt>
      <trkpt lat="47.27637" lon="-2.26176">
        <ele>74</ele>
        <time>2019-09-08T08:42:50Z</time>
      </trkpt>
      <trkpt lat="47.27643" lon="-2.26172">
        <ele>75</ele>
        <time>2019-09-08T08:42:52Z</time>
      </trkpt>
      <trkpt lat="47.27646" lon="-2.2617">
        <ele>75</ele>
        <time>2019-09-08T08:42:53Z</time>
      </trkpt>
      <trkpt lat="47.27654" lon="-2.26161">
        <ele>75</ele>
        <time>2019-09-08T08:42:55Z</time>
      </trkpt>
      <trkpt lat="47.27657" lon="-2.26158">
        <ele>75</ele>
        <time>2019-09-08T08:42:56Z</time>
      </trkpt>
      <trkpt lat="47.2766" lon="-2.26156">
        <ele>75</ele>
        <time>2019-09-08T08:42:57Z</time>
      </trkpt>
      <trkpt lat="47.27666" lon="-2.26149">
        <ele>75</ele>
        <time>2019-09-08T08:42:59Z</time>
      </trkpt>
      <trkpt lat="47.27675" lon="-2.26137">
        <ele>75</ele>
        <time>2019-09-08T08:43:02Z</time>
      </trkpt>
      <trkpt lat="47.27679" lon="-2.26131">
        <ele>76</ele>
        <time>2019-09-08T08:43:03Z</time>
      </trkpt>
      <trkpt lat="47.27684" lon="-2.26126">
        <ele>76</ele>
        <time>2019-09-08T08:43:04Z</time>
      </trkpt>
      <trkpt lat="47.27694" lon="-2.2612">
        <ele>77</ele>
        <time>2019-09-08T08:43:06Z</time>
      </trkpt>
      <trkpt lat="47.27698" lon="-2.26118">
        <ele>77</ele>
        <time>2019-09-08T08:43:07Z</time>
      </trkpt>
      <trkpt lat="47.27706" lon="-2.2611">
        <ele>77</ele>
        <time>2019-09-08T08:43:09Z</time>
      </trkpt>
      <trkpt lat="47.2771" lon="-2.26104">
        <ele>77</ele>
        <time>2019-09-08T08:43:10Z</time>
      </trkpt>
      <trkpt lat="47.27713" lon="-2.261">
        <ele>77</ele>
        <time>2019-09-08T08:43:12Z</time>
      </trkpt>
      <trkpt lat="47.27718" lon="-2.26096">
        <ele>77</ele>
        <time>2019-09-08T08:43:13Z</time>
      </trkpt>
      <trkpt lat="47.27723" lon="-2.26092">
        <ele>77</ele>
        <time>2019-09-08T08:43:14Z</time>
      </trkpt>
      <trkpt lat="47.27727" lon="-2.26085">
        <ele>78</ele>
        <time>2019-09-08T08:43:16Z</time>
      </trkpt>
      <trkpt lat="47.27732" lon="-2.26075">
        <ele>78</ele>
        <time>2019-09-08T08:43:19Z</time>
      </trkpt>
      <trkpt lat="47.27738" lon="-2.2606">
        <ele>78</ele>
        <time>2019-09-08T08:43:21Z</time>
      </trkpt>
      <trkpt lat="47.27745" lon="-2.26052">
        <ele>77</ele>
        <time>2019-09-08T08:43:23Z</time>
      </trkpt>
      <trkpt lat="47.27748" lon="-2.26047">
        <ele>77</ele>
        <time>2019-09-08T08:43:24Z</time>
      </trkpt>
      <trkpt lat="47.27753" lon="-2.26034">
        <ele>78</ele>
        <time>2019-09-08T08:43:27Z</time>
      </trkpt>
      <trkpt lat="47.27755" lon="-2.26024">
        <ele>78</ele>
        <time>2019-09-08T08:43:29Z</time>
      </trkpt>
      <trkpt lat="47.27757" lon="-2.26014">
        <ele>78</ele>
        <time>2019-09-08T08:43:31Z</time>
      </trkpt>
      <trkpt lat="47.27771" lon="-2.25999">
        <ele>78</ele>
        <time>2019-09-08T08:43:34Z</time>
      </trkpt>
      <trkpt lat="47.27776" lon="-2.25997">
        <ele>79</ele>
        <time>2019-09-08T08:43:35Z</time>
      </trkpt>
      <trkpt lat="47.27779" lon="-2.25996">
        <ele>79</ele>
        <time>2019-09-08T08:43:36Z</time>
      </trkpt>
      <trkpt lat="47.27781" lon="-2.2599">
        <ele>78</ele>
        <time>2019-09-08T08:43:38Z</time>
      </trkpt>
      <trkpt lat="47.27783" lon="-2.2598">
        <ele>78</ele>
        <time>2019-09-08T08:43:41Z</time>
      </trkpt>
      <trkpt lat="47.27783" lon="-2.25975">
        <ele>78</ele>
        <time>2019-09-08T08:43:42Z</time>
      </trkpt>
      <trkpt lat="47.27784" lon="-2.25963">
        <ele>79</ele>
        <time>2019-09-08T08:43:44Z</time>
      </trkpt>
      <trkpt lat="47.27783" lon="-2.25954">
        <ele>77</ele>
        <time>2019-09-08T08:43:45Z</time>
      </trkpt>
      <trkpt lat="47.27782" lon="-2.25946">
        <ele>76</ele>
        <time>2019-09-08T08:43:46Z</time>
      </trkpt>
      <trkpt lat="47.27781" lon="-2.25938">
        <ele>74</ele>
        <time>2019-09-08T08:43:47Z</time>
      </trkpt>
      <trkpt lat="47.27779" lon="-2.25932">
        <ele>73</ele>
        <time>2019-09-08T08:43:48Z</time>
      </trkpt>
      <trkpt lat="47.27775" lon="-2.25927">
        <ele>72</ele>
        <time>2019-09-08T08:43:49Z</time>
      </trkpt>
      <trkpt lat="47.27772" lon="-2.25921">
        <ele>71</ele>
        <time>2019-09-08T08:43:50Z</time>
      </trkpt>
      <trkpt lat="47.27767" lon="-2.2591">
        <ele>70</ele>
        <time>2019-09-08T08:43:52Z</time>
      </trkpt>
      <trkpt lat="47.27762" lon="-2.25896">
        <ele>70</ele>
        <time>2019-09-08T08:43:54Z</time>
      </trkpt>
      <trkpt lat="47.2776" lon="-2.25889">
        <ele>70</ele>
        <time>2019-09-08T08:43:55Z</time>
      </trkpt>
      <trkpt lat="47.27757" lon="-2.25882">
        <ele>69</ele>
        <time>2019-09-08T08:43:56Z</time>
      </trkpt>
      <trkpt lat="47.27754" lon="-2.25876">
        <ele>69</ele>
        <time>2019-09-08T08:43:57Z</time>
      </trkpt>
      <trkpt lat="47.27751" lon="-2.25871">
        <ele>69</ele>
        <time>2019-09-08T08:43:58Z</time>
      </trkpt>
      <trkpt lat="47.27747" lon="-2.25865">
        <ele>69</ele>
        <time>2019-09-08T08:43:59Z</time>
      </trkpt>
      <trkpt lat="47.27742" lon="-2.25863">
        <ele>69</ele>
        <time>2019-09-08T08:44:00Z</time>
      </trkpt>
      <trkpt lat="47.27737" lon="-2.25862">
        <ele>68</ele>
        <time>2019-09-08T08:44:01Z</time>
      </trkpt>
      <trkpt lat="47.27731" lon="-2.25862">
        <ele>68</ele>
        <time>2019-09-08T08:44:02Z</time>
      </trkpt>
      <trkpt lat="47.27726" lon="-2.25861">
        <ele>67</ele>
        <time>2019-09-08T08:44:03Z</time>
      </trkpt>
      <trkpt lat="47.27721" lon="-2.2586">
        <ele>67</ele>
        <time>2019-09-08T08:44:04Z</time>
      </trkpt>
      <trkpt lat="47.27703" lon="-2.25848">
        <ele>66</ele>
        <time>2019-09-08T08:44:08Z</time>
      </trkpt>
      <trkpt lat="47.27699" lon="-2.25844">
        <ele>66</ele>
        <time>2019-09-08T08:44:09Z</time>
      </trkpt>
      <trkpt lat="47.27693" lon="-2.25834">
        <ele>66</ele>
        <time>2019-09-08T08:44:11Z</time>
      </trkpt>
      <trkpt lat="47.27694" lon="-2.25826">
        <ele>67</ele>
        <time>2019-09-08T08:44:13Z</time>
      </trkpt>
      <trkpt lat="47.27699" lon="-2.2582">
        <ele>67</ele>
        <time>2019-09-08T08:44:15Z</time>
      </trkpt>
      <trkpt lat="47.27702" lon="-2.25812">
        <ele>67</ele>
        <time>2019-09-08T08:44:17Z</time>
      </trkpt>
      <trkpt lat="47.27702" lon="-2.25802">
        <ele>68</ele>
        <time>2019-09-08T08:44:19Z</time>
      </trkpt>
      <trkpt lat="47.27699" lon="-2.25797">
        <ele>68</ele>
        <time>2019-09-08T08:44:21Z</time>
      </trkpt>
      <trkpt lat="47.27694" lon="-2.25793">
        <ele>67</ele>
        <time>2019-09-08T08:44:23Z</time>
      </trkpt>
      <trkpt lat="47.27688" lon="-2.25794">
        <ele>65</ele>
        <time>2019-09-08T08:44:25Z</time>
      </trkpt>
      <trkpt lat="47.27685" lon="-2.25802">
        <ele>65</ele>
        <time>2019-09-08T08:44:27Z</time>
      </trkpt>
      <trkpt lat="47.27685" lon="-2.25814">
        <ele>66</ele>
        <time>2019-09-08T08:44:30Z</time>
      </trkpt>
      <trkpt lat="47.27685" lon="-2.25818">
        <ele>66</ele>
        <time>2019-09-08T08:44:31Z</time>
      </trkpt>
      <trkpt lat="47.27686" lon="-2.25823">
        <ele>66</ele>
        <time>2019-09-08T08:44:32Z</time>
      </trkpt>
      <trkpt lat="47.27684" lon="-2.25829">
        <ele>66</ele>
        <time>2019-09-08T08:44:34Z</time>
      </trkpt>
      <trkpt lat="47.27676" lon="-2.25824">
        <ele>66</ele>
        <time>2019-09-08T08:44:39Z</time>
      </trkpt>
      <trkpt lat="47.27676" lon="-2.25816">
        <ele>66</ele>
        <time>2019-09-08T08:44:43Z</time>
      </trkpt>
      <trkpt lat="47.27672" lon="-2.25809">
        <ele>67</ele>
        <time>2019-09-08T08:44:46Z</time>
      </trkpt>
      <trkpt lat="47.27674" lon="-2.25799">
        <ele>68</ele>
        <time>2019-09-08T08:44:50Z</time>
      </trkpt>
      <trkpt lat="47.27673" lon="-2.25791">
        <ele>68</ele>
        <time>2019-09-08T08:44:53Z</time>
      </trkpt>
      <trkpt lat="47.27672" lon="-2.25786">
        <ele>68</ele>
        <time>2019-09-08T08:44:55Z</time>
      </trkpt>
      <trkpt lat="47.2767" lon="-2.2578">
        <ele>69</ele>
        <time>2019-09-08T08:44:57Z</time>
      </trkpt>
      <trkpt lat="47.27668" lon="-2.25773">
        <ele>69</ele>
        <time>2019-09-08T08:44:59Z</time>
      </trkpt>
      <trkpt lat="47.27666" lon="-2.25766">
        <ele>69</ele>
        <time>2019-09-08T08:45:01Z</time>
      </trkpt>
      <trkpt lat="47.27665" lon="-2.25762">
        <ele>69</ele>
        <time>2019-09-08T08:45:02Z</time>
      </trkpt>
      <trkpt lat="47.27663" lon="-2.25753">
        <ele>69</ele>
        <time>2019-09-08T08:45:04Z</time>
      </trkpt>
      <trkpt lat="47.2766" lon="-2.25746">
        <ele>69</ele>
        <time>2019-09-08T08:45:06Z</time>
      </trkpt>
      <trkpt lat="47.27658" lon="-2.25736">
        <ele>70</ele>
        <time>2019-09-08T08:45:08Z</time>
      </trkpt>
      <trkpt lat="47.27656" lon="-2.25725">
        <ele>70</ele>
        <time>2019-09-08T08:45:10Z</time>
      </trkpt>
      <trkpt lat="47.27655" lon="-2.25719">
        <ele>71</ele>
        <time>2019-09-08T08:45:11Z</time>
      </trkpt>
      <trkpt lat="47.27653" lon="-2.25714">
        <ele>71</ele>
        <time>2019-09-08T08:45:12Z</time>
      </trkpt>
      <trkpt lat="47.27652" lon="-2.25708">
        <ele>71</ele>
        <time>2019-09-08T08:45:13Z</time>
      </trkpt>
      <trkpt lat="47.27649" lon="-2.25691">
        <ele>72</ele>
        <time>2019-09-08T08:45:17Z</time>
      </trkpt>
      <trkpt lat="47.27649" lon="-2.25684">
        <ele>72</ele>
        <time>2019-09-08T08:45:19Z</time>
      </trkpt>
      <trkpt lat="47.27649" lon="-2.2568">
        <ele>71</ele>
        <time>2019-09-08T08:45:20Z</time>
      </trkpt>
      <trkpt lat="47.27648" lon="-2.25675">
        <ele>71</ele>
        <time>2019-09-08T08:45:21Z</time>
      </trkpt>
      <trkpt lat="47.27646" lon="-2.25667">
        <ele>71</ele>
        <time>2019-09-08T08:45:23Z</time>
      </trkpt>
      <trkpt lat="47.27644" lon="-2.25659">
        <ele>71</ele>
        <time>2019-09-08T08:45:25Z</time>
      </trkpt>
      <trkpt lat="47.27644" lon="-2.25645">
        <ele>72</ele>
        <time>2019-09-08T08:45:28Z</time>
      </trkpt>
      <trkpt lat="47.27642" lon="-2.25634">
        <ele>72</ele>
        <time>2019-09-08T08:45:30Z</time>
      </trkpt>
      <trkpt lat="47.27641" lon="-2.25629">
        <ele>72</ele>
        <time>2019-09-08T08:45:31Z</time>
      </trkpt>
      <trkpt lat="47.27635" lon="-2.25621">
        <ele>71</ele>
        <time>2019-09-08T08:45:33Z</time>
      </trkpt>
      <trkpt lat="47.27628" lon="-2.25624">
        <ele>70</ele>
        <time>2019-09-08T08:45:35Z</time>
      </trkpt>
      <trkpt lat="47.27623" lon="-2.25628">
        <ele>70</ele>
        <time>2019-09-08T08:45:37Z</time>
      </trkpt>
      <trkpt lat="47.27616" lon="-2.25631">
        <ele>70</ele>
        <time>2019-09-08T08:45:39Z</time>
      </trkpt>
      <trkpt lat="47.27607" lon="-2.25635">
        <ele>70</ele>
        <time>2019-09-08T08:45:42Z</time>
      </trkpt>
      <trkpt lat="47.27604" lon="-2.25637">
        <ele>69</ele>
        <time>2019-09-08T08:45:44Z</time>
      </trkpt>
      <trkpt lat="47.27599" lon="-2.25637">
        <ele>70</ele>
        <time>2019-09-08T08:45:47Z</time>
      </trkpt>
      <trkpt lat="47.27594" lon="-2.25638">
        <ele>70</ele>
        <time>2019-09-08T08:45:50Z</time>
      </trkpt>
      <trkpt lat="47.27594" lon="-2.25638">
        <ele>70</ele>
        <time>2019-09-08T08:45:55Z</time>
      </trkpt>
      <trkpt lat="47.27594" lon="-2.25638">
        <ele>15</ele>
        <time>2019-09-08T08:45:55Z</time>
      </trkpt>
      <trkpt lat="47.27594" lon="-2.25638">
        <ele>15</ele>
        <time>2019-09-08T08:46:00Z</time>
      </trkpt>
      <trkpt lat="47.2759" lon="-2.25621">
        <ele>71</ele>
        <time>2019-09-08T08:46:00Z</time>
      </trkpt>
      <trkpt lat="47.27568" lon="-2.25609">
        <ele>76</ele>
        <time>2019-09-08T08:46:05Z</time>
      </trkpt>
      <trkpt lat="47.27566" lon="-2.25597">
        <ele>74</ele>
        <time>2019-09-08T08:46:08Z</time>
      </trkpt>
      <trkpt lat="47.27559" lon="-2.25573">
        <ele>77</ele>
        <time>2019-09-08T08:46:12Z</time>
      </trkpt>
      <trkpt lat="47.27555" lon="-2.25562">
        <ele>73</ele>
        <time>2019-09-08T08:46:14Z</time>
      </trkpt>
      <trkpt lat="47.27553" lon="-2.25553">
        <ele>77</ele>
        <time>2019-09-08T08:46:16Z</time>
      </trkpt>
      <trkpt lat="47.27552" lon="-2.25543">
        <ele>78</ele>
        <time>2019-09-08T08:46:18Z</time>
      </trkpt>
      <trkpt lat="47.27551" lon="-2.25536">
        <ele>80</ele>
        <time>2019-09-08T08:46:19Z</time>
      </trkpt>
      <trkpt lat="47.27547" lon="-2.25525">
        <ele>80</ele>
        <time>2019-09-08T08:46:21Z</time>
      </trkpt>
      <trkpt lat="47.27545" lon="-2.2552">
        <ele>82</ele>
        <time>2019-09-08T08:46:22Z</time>
      </trkpt>
      <trkpt lat="47.27543" lon="-2.25514">
        <ele>82</ele>
        <time>2019-09-08T08:46:23Z</time>
      </trkpt>
      <trkpt lat="47.27541" lon="-2.25508">
        <ele>84</ele>
        <time>2019-09-08T08:46:24Z</time>
      </trkpt>
      <trkpt lat="47.27538" lon="-2.25503">
        <ele>85</ele>
        <time>2019-09-08T08:46:25Z</time>
      </trkpt>
      <trkpt lat="47.27536" lon="-2.25496">
        <ele>85</ele>
        <time>2019-09-08T08:46:26Z</time>
      </trkpt>
      <trkpt lat="47.27533" lon="-2.2549">
        <ele>85</ele>
        <time>2019-09-08T08:46:27Z</time>
      </trkpt>
      <trkpt lat="47.27531" lon="-2.25484">
        <ele>84</ele>
        <time>2019-09-08T08:46:28Z</time>
      </trkpt>
      <trkpt lat="47.27528" lon="-2.25478">
        <ele>82</ele>
        <time>2019-09-08T08:46:29Z</time>
      </trkpt>
      <trkpt lat="47.27525" lon="-2.25472">
        <ele>83</ele>
        <time>2019-09-08T08:46:30Z</time>
      </trkpt>
      <trkpt lat="47.27522" lon="-2.25467">
        <ele>81</ele>
        <time>2019-09-08T08:46:31Z</time>
      </trkpt>
      <trkpt lat="47.27515" lon="-2.2546">
        <ele>80</ele>
        <time>2019-09-08T08:46:33Z</time>
      </trkpt>
      <trkpt lat="47.27508" lon="-2.25455">
        <ele>78</ele>
        <time>2019-09-08T08:46:35Z</time>
      </trkpt>
      <trkpt lat="47.275" lon="-2.25456">
        <ele>78</ele>
        <time>2019-09-08T08:46:37Z</time>
      </trkpt>
      <trkpt lat="47.27495" lon="-2.25456">
        <ele>78</ele>
        <time>2019-09-08T08:46:38Z</time>
      </trkpt>
      <trkpt lat="47.27491" lon="-2.25457">
        <ele>77</ele>
        <time>2019-09-08T08:46:39Z</time>
      </trkpt>
      <trkpt lat="47.27479" lon="-2.25456">
        <ele>74</ele>
        <time>2019-09-08T08:46:41Z</time>
      </trkpt>
      <trkpt lat="47.27473" lon="-2.25454">
        <ele>73</ele>
        <time>2019-09-08T08:46:42Z</time>
      </trkpt>
      <trkpt lat="47.27468" lon="-2.25452">
        <ele>73</ele>
        <time>2019-09-08T08:46:43Z</time>
      </trkpt>
      <trkpt lat="47.27461" lon="-2.25448">
        <ele>73</ele>
        <time>2019-09-08T08:46:45Z</time>
      </trkpt>
      <trkpt lat="47.27457" lon="-2.25445">
        <ele>73</ele>
        <time>2019-09-08T08:46:46Z</time>
      </trkpt>
      <trkpt lat="47.27454" lon="-2.25443">
        <ele>73</ele>
        <time>2019-09-08T08:46:47Z</time>
      </trkpt>
      <trkpt lat="47.27448" lon="-2.25438">
        <ele>73</ele>
        <time>2019-09-08T08:46:49Z</time>
      </trkpt>
      <trkpt lat="47.27442" lon="-2.25433">
        <ele>73</ele>
        <time>2019-09-08T08:46:51Z</time>
      </trkpt>
      <trkpt lat="47.27435" lon="-2.25427">
        <ele>73</ele>
        <time>2019-09-08T08:46:53Z</time>
      </trkpt>
      <trkpt lat="47.27426" lon="-2.25417">
        <ele>73</ele>
        <time>2019-09-08T08:46:56Z</time>
      </trkpt>
      <trkpt lat="47.27421" lon="-2.2541">
        <ele>74</ele>
        <time>2019-09-08T08:46:58Z</time>
      </trkpt>
      <trkpt lat="47.27418" lon="-2.25406">
        <ele>74</ele>
        <time>2019-09-08T08:46:59Z</time>
      </trkpt>
      <trkpt lat="47.27413" lon="-2.254">
        <ele>75</ele>
        <time>2019-09-08T08:47:01Z</time>
      </trkpt>
      <trkpt lat="47.2741" lon="-2.25397">
        <ele>76</ele>
        <time>2019-09-08T08:47:02Z</time>
      </trkpt>
      <trkpt lat="47.27406" lon="-2.25382">
        <ele>77</ele>
        <time>2019-09-08T08:47:05Z</time>
      </trkpt>
      <trkpt lat="47.27404" lon="-2.25375">
        <ele>77</ele>
        <time>2019-09-08T08:47:07Z</time>
      </trkpt>
      <trkpt lat="47.27403" lon="-2.2537">
        <ele>77</ele>
        <time>2019-09-08T08:47:09Z</time>
      </trkpt>
      <trkpt lat="47.27403" lon="-2.2537">
        <ele>16</ele>
        <time>2019-09-08T08:47:15Z</time>
      </trkpt>
      <trkpt lat="47.27403" lon="-2.2537">
        <ele>16</ele>
        <time>2019-09-08T08:47:29Z</time>
      </trkpt>
      <trkpt lat="47.27415" lon="-2.25371">
        <ele>78</ele>
        <time>2019-09-08T08:47:29Z</time>
      </trkpt>
      <trkpt lat="47.27417" lon="-2.25355">
        <ele>69</ele>
        <time>2019-09-08T08:47:34Z</time>
      </trkpt>
      <trkpt lat="47.27413" lon="-2.25348">
        <ele>69</ele>
        <time>2019-09-08T08:47:36Z</time>
      </trkpt>
      <trkpt lat="47.27411" lon="-2.25342">
        <ele>72</ele>
        <time>2019-09-08T08:47:38Z</time>
      </trkpt>
      <trkpt lat="47.27409" lon="-2.25335">
        <ele>76</ele>
        <time>2019-09-08T08:47:40Z</time>
      </trkpt>
      <trkpt lat="47.27409" lon="-2.25326">
        <ele>76</ele>
        <time>2019-09-08T08:47:43Z</time>
      </trkpt>
      <trkpt lat="47.27409" lon="-2.25326">
        <ele>76</ele>
        <time>2019-09-08T08:47:49Z</time>
      </trkpt>
      <trkpt lat="47.27409" lon="-2.25326">
        <ele>15.1</ele>
        <time>2019-09-08T08:47:49Z</time>
      </trkpt>
      <trkpt lat="47.27409" lon="-2.25326">
        <ele>15.1</ele>
        <time>2019-09-08T08:47:57Z</time>
      </trkpt>
      <trkpt lat="47.27418" lon="-2.2536">
        <ele>94</ele>
        <time>2019-09-08T08:47:57Z</time>
      </trkpt>
      <trkpt lat="47.2743" lon="-2.25398">
        <ele>64</ele>
        <time>2019-09-08T08:48:02Z</time>
      </trkpt>
      <trkpt lat="47.2743" lon="-2.25398">
        <ele>14.5</ele>
        <time>2019-09-08T08:48:08Z</time>
      </trkpt>
      <trkpt lat="47.2743" lon="-2.25398">
        <ele>14.5</ele>
        <time>2019-09-08T08:48:26Z</time>
      </trkpt>
      <trkpt lat="47.27433" lon="-2.25363">
        <ele>75</ele>
        <time>2019-09-08T08:48:26Z</time>
      </trkpt>
      <trkpt lat="47.27439" lon="-2.25325">
        <ele>80</ele>
        <time>2019-09-08T08:48:31Z</time>
      </trkpt>
      <trkpt lat="47.2743" lon="-2.25323">
        <ele>75</ele>
        <time>2019-09-08T08:48:33Z</time>
      </trkpt>
      <trkpt lat="47.27425" lon="-2.25324">
        <ele>71</ele>
        <time>2019-09-08T08:48:39Z</time>
      </trkpt>
      <trkpt lat="47.27422" lon="-2.25317">
        <ele>75</ele>
        <time>2019-09-08T08:48:43Z</time>
      </trkpt>
      <trkpt lat="47.27419" lon="-2.25309">
        <ele>78</ele>
        <time>2019-09-08T08:48:46Z</time>
      </trkpt>
      <trkpt lat="47.27417" lon="-2.25301">
        <ele>82</ele>
        <time>2019-09-08T08:48:48Z</time>
      </trkpt>
      <trkpt lat="47.27415" lon="-2.25295">
        <ele>84</ele>
        <time>2019-09-08T08:48:50Z</time>
      </trkpt>
      <trkpt lat="47.2741" lon="-2.2529">
        <ele>85</ele>
        <time>2019-09-08T08:48:53Z</time>
      </trkpt>
      <trkpt lat="47.27407" lon="-2.25278">
        <ele>86</ele>
        <time>2019-09-08T08:48:56Z</time>
      </trkpt>
      <trkpt lat="47.27404" lon="-2.2526">
        <ele>86</ele>
        <time>2019-09-08T08:48:59Z</time>
      </trkpt>
      <trkpt lat="47.274" lon="-2.25251">
        <ele>84</ele>
        <time>2019-09-08T08:49:01Z</time>
      </trkpt>
      <trkpt lat="47.27398" lon="-2.25246">
        <ele>84</ele>
        <time>2019-09-08T08:49:02Z</time>
      </trkpt>
      <trkpt lat="47.27396" lon="-2.25236">
        <ele>83</ele>
        <time>2019-09-08T08:49:04Z</time>
      </trkpt>
      <trkpt lat="47.27396" lon="-2.25221">
        <ele>82</ele>
        <time>2019-09-08T08:49:07Z</time>
      </trkpt>
      <trkpt lat="47.27396" lon="-2.25217">
        <ele>82</ele>
        <time>2019-09-08T08:49:08Z</time>
      </trkpt>
      <trkpt lat="47.27393" lon="-2.252">
        <ele>84</ele>
        <time>2019-09-08T08:49:11Z</time>
      </trkpt>
      <trkpt lat="47.27392" lon="-2.25194">
        <ele>84</ele>
        <time>2019-09-08T08:49:12Z</time>
      </trkpt>
      <trkpt lat="47.2739" lon="-2.25188">
        <ele>84</ele>
        <time>2019-09-08T08:49:13Z</time>
      </trkpt>
      <trkpt lat="47.27389" lon="-2.25183">
        <ele>83</ele>
        <time>2019-09-08T08:49:14Z</time>
      </trkpt>
      <trkpt lat="47.27388" lon="-2.25178">
        <ele>83</ele>
        <time>2019-09-08T08:49:16Z</time>
      </trkpt>
      <trkpt lat="47.27387" lon="-2.25174">
        <ele>83</ele>
        <time>2019-09-08T08:49:17Z</time>
      </trkpt>
      <trkpt lat="47.27385" lon="-2.25166">
        <ele>83</ele>
        <time>2019-09-08T08:49:18Z</time>
      </trkpt>
      <trkpt lat="47.27384" lon="-2.25161">
        <ele>82</ele>
        <time>2019-09-08T08:49:19Z</time>
      </trkpt>
      <trkpt lat="47.27381" lon="-2.25151">
        <ele>82</ele>
        <time>2019-09-08T08:49:21Z</time>
      </trkpt>
      <trkpt lat="47.27377" lon="-2.25141">
        <ele>81</ele>
        <time>2019-09-08T08:49:23Z</time>
      </trkpt>
      <trkpt lat="47.27374" lon="-2.25135">
        <ele>81</ele>
        <time>2019-09-08T08:49:24Z</time>
      </trkpt>
      <trkpt lat="47.27371" lon="-2.25128">
        <ele>78</ele>
        <time>2019-09-08T08:49:25Z</time>
      </trkpt>
      <trkpt lat="47.27369" lon="-2.25122">
        <ele>77</ele>
        <time>2019-09-08T08:49:26Z</time>
      </trkpt>
      <trkpt lat="47.27366" lon="-2.25117">
        <ele>75</ele>
        <time>2019-09-08T08:49:27Z</time>
      </trkpt>
      <trkpt lat="47.27363" lon="-2.25112">
        <ele>75</ele>
        <time>2019-09-08T08:49:28Z</time>
      </trkpt>
      <trkpt lat="47.2736" lon="-2.25106">
        <ele>73</ele>
        <time>2019-09-08T08:49:29Z</time>
      </trkpt>
      <trkpt lat="47.27352" lon="-2.25086">
        <ele>73</ele>
        <time>2019-09-08T08:49:34Z</time>
      </trkpt>
      <trkpt lat="47.27348" lon="-2.25079">
        <ele>72</ele>
        <time>2019-09-08T08:49:35Z</time>
      </trkpt>
      <trkpt lat="47.27346" lon="-2.25072">
        <ele>70</ele>
        <time>2019-09-08T08:49:39Z</time>
      </trkpt>
      <trkpt lat="47.27346" lon="-2.25072">
        <ele>70</ele>
        <time>2019-09-08T08:49:48Z</time>
      </trkpt>
      <trkpt lat="47.27346" lon="-2.25072">
        <ele>14.1</ele>
        <time>2019-09-08T08:49:48Z</time>
      </trkpt>
      <trkpt lat="47.27346" lon="-2.25072">
        <ele>14.1</ele>
        <time>2019-09-08T08:59:09Z</time>
      </trkpt>
      <trkpt lat="47.27345" lon="-2.25042">
        <ele>68</ele>
        <time>2019-09-08T08:59:09Z</time>
      </trkpt>
      <trkpt lat="47.27351" lon="-2.2502">
        <ele>64</ele>
        <time>2019-09-08T08:59:15Z</time>
      </trkpt>
      <trkpt lat="47.27356" lon="-2.25014">
        <ele>64</ele>
        <time>2019-09-08T08:59:16Z</time>
      </trkpt>
      <trkpt lat="47.27359" lon="-2.25009">
        <ele>64</ele>
        <time>2019-09-08T08:59:17Z</time>
      </trkpt>
      <trkpt lat="47.27361" lon="-2.25006">
        <ele>65</ele>
        <time>2019-09-08T08:59:18Z</time>
      </trkpt>
      <trkpt lat="47.27365" lon="-2.24998">
        <ele>65</ele>
        <time>2019-09-08T08:59:20Z</time>
      </trkpt>
      <trkpt lat="47.2737" lon="-2.24991">
        <ele>63</ele>
        <time>2019-09-08T08:59:23Z</time>
      </trkpt>
      <trkpt lat="47.27372" lon="-2.24988">
        <ele>63</ele>
        <time>2019-09-08T08:59:25Z</time>
      </trkpt>
      <trkpt lat="47.27375" lon="-2.24982">
        <ele>63</ele>
        <time>2019-09-08T08:59:28Z</time>
      </trkpt>
      <trkpt lat="47.27379" lon="-2.24979">
        <ele>64</ele>
        <time>2019-09-08T08:59:30Z</time>
      </trkpt>
      <trkpt lat="47.27381" lon="-2.24976">
        <ele>64</ele>
        <time>2019-09-08T08:59:31Z</time>
      </trkpt>
      <trkpt lat="47.27386" lon="-2.24973">
        <ele>64</ele>
        <time>2019-09-08T08:59:33Z</time>
      </trkpt>
      <trkpt lat="47.27389" lon="-2.24971">
        <ele>64</ele>
        <time>2019-09-08T08:59:34Z</time>
      </trkpt>
      <trkpt lat="47.27395" lon="-2.24969">
        <ele>64</ele>
        <time>2019-09-08T08:59:36Z</time>
      </trkpt>
      <trkpt lat="47.27398" lon="-2.24968">
        <ele>64</ele>
        <time>2019-09-08T08:59:37Z</time>
      </trkpt>
      <trkpt lat="47.27401" lon="-2.24967">
        <ele>65</ele>
        <time>2019-09-08T08:59:38Z</time>
      </trkpt>
      <trkpt lat="47.27407" lon="-2.24964">
        <ele>64</ele>
        <time>2019-09-08T08:59:40Z</time>
      </trkpt>
      <trkpt lat="47.27415" lon="-2.24959">
        <ele>65</ele>
        <time>2019-09-08T08:59:43Z</time>
      </trkpt>
      <trkpt lat="47.27421" lon="-2.24956">
        <ele>66</ele>
        <time>2019-09-08T08:59:45Z</time>
      </trkpt>
      <trkpt lat="47.27424" lon="-2.24955">
        <ele>66</ele>
        <time>2019-09-08T08:59:46Z</time>
      </trkpt>
      <trkpt lat="47.27426" lon="-2.24954">
        <ele>66</ele>
        <time>2019-09-08T08:59:47Z</time>
      </trkpt>
      <trkpt lat="47.27433" lon="-2.24954">
        <ele>66</ele>
        <time>2019-09-08T08:59:49Z</time>
      </trkpt>
      <trkpt lat="47.27442" lon="-2.24959">
        <ele>67</ele>
        <time>2019-09-08T08:59:52Z</time>
      </trkpt>
      <trkpt lat="47.27446" lon="-2.2496">
        <ele>66</ele>
        <time>2019-09-08T08:59:53Z</time>
      </trkpt>
      <trkpt lat="47.27453" lon="-2.24964">
        <ele>67</ele>
        <time>2019-09-08T08:59:55Z</time>
      </trkpt>
      <trkpt lat="47.27457" lon="-2.24966">
        <ele>67</ele>
        <time>2019-09-08T08:59:56Z</time>
      </trkpt>
      <trkpt lat="47.2746" lon="-2.24968">
        <ele>66</ele>
        <time>2019-09-08T08:59:57Z</time>
      </trkpt>
      <trkpt lat="47.2747" lon="-2.24977">
        <ele>66</ele>
        <time>2019-09-08T09:00:00Z</time>
      </trkpt>
      <trkpt lat="47.27473" lon="-2.24979">
        <ele>66</ele>
        <time>2019-09-08T09:00:01Z</time>
      </trkpt>
      <trkpt lat="47.27477" lon="-2.24981">
        <ele>67</ele>
        <time>2019-09-08T09:00:02Z</time>
      </trkpt>
      <trkpt lat="47.2748" lon="-2.24983">
        <ele>67</ele>
        <time>2019-09-08T09:00:03Z</time>
      </trkpt>
      <trkpt lat="47.27489" lon="-2.24989">
        <ele>67</ele>
        <time>2019-09-08T09:00:06Z</time>
      </trkpt>
      <trkpt lat="47.27494" lon="-2.24994">
        <ele>67</ele>
        <time>2019-09-08T09:00:08Z</time>
      </trkpt>
      <trkpt lat="47.27504" lon="-2.25005">
        <ele>67</ele>
        <time>2019-09-08T09:00:12Z</time>
      </trkpt>
      <trkpt lat="47.27512" lon="-2.2501">
        <ele>68</ele>
        <time>2019-09-08T09:00:16Z</time>
      </trkpt>
      <trkpt lat="47.27521" lon="-2.25019">
        <ele>68</ele>
        <time>2019-09-08T09:00:19Z</time>
      </trkpt>
      <trkpt lat="47.27523" lon="-2.25021">
        <ele>67</ele>
        <time>2019-09-08T09:00:20Z</time>
      </trkpt>
      <trkpt lat="47.27532" lon="-2.25032">
        <ele>68</ele>
        <time>2019-09-08T09:00:23Z</time>
      </trkpt>
      <trkpt lat="47.27535" lon="-2.25036">
        <ele>68</ele>
        <time>2019-09-08T09:00:24Z</time>
      </trkpt>
      <trkpt lat="47.27543" lon="-2.25043">
        <ele>68</ele>
        <time>2019-09-08T09:00:26Z</time>
      </trkpt>
      <trkpt lat="47.27548" lon="-2.25049">
        <ele>69</ele>
        <time>2019-09-08T09:00:28Z</time>
      </trkpt>
      <trkpt lat="47.27556" lon="-2.25056">
        <ele>69</ele>
        <time>2019-09-08T09:00:30Z</time>
      </trkpt>
      <trkpt lat="47.2756" lon="-2.25058">
        <ele>69</ele>
        <time>2019-09-08T09:00:31Z</time>
      </trkpt>
      <trkpt lat="47.27564" lon="-2.2506">
        <ele>69</ele>
        <time>2019-09-08T09:00:32Z</time>
      </trkpt>
      <trkpt lat="47.27571" lon="-2.25064">
        <ele>68</ele>
        <time>2019-09-08T09:00:34Z</time>
      </trkpt>
      <trkpt lat="47.27578" lon="-2.25068">
        <ele>68</ele>
        <time>2019-09-08T09:00:36Z</time>
      </trkpt>
      <trkpt lat="47.27581" lon="-2.2507">
        <ele>68</ele>
        <time>2019-09-08T09:00:37Z</time>
      </trkpt>
      <trkpt lat="47.27592" lon="-2.25076">
        <ele>68</ele>
        <time>2019-09-08T09:00:40Z</time>
      </trkpt>
      <trkpt lat="47.27596" lon="-2.25078">
        <ele>68</ele>
        <time>2019-09-08T09:00:41Z</time>
      </trkpt>
      <trkpt lat="47.27599" lon="-2.2508">
        <ele>68</ele>
        <time>2019-09-08T09:00:42Z</time>
      </trkpt>
      <trkpt lat="47.27603" lon="-2.25083">
        <ele>69</ele>
        <time>2019-09-08T09:00:43Z</time>
      </trkpt>
      <trkpt lat="47.27609" lon="-2.25088">
        <ele>68</ele>
        <time>2019-09-08T09:00:45Z</time>
      </trkpt>
      <trkpt lat="47.27613" lon="-2.25091">
        <ele>69</ele>
        <time>2019-09-08T09:00:46Z</time>
      </trkpt>
      <trkpt lat="47.27626" lon="-2.25098">
        <ele>68</ele>
        <time>2019-09-08T09:00:49Z</time>
      </trkpt>
      <trkpt lat="47.2763" lon="-2.251">
        <ele>68</ele>
        <time>2019-09-08T09:00:50Z</time>
      </trkpt>
      <trkpt lat="47.27643" lon="-2.251">
        <ele>68</ele>
        <time>2019-09-08T09:00:53Z</time>
      </trkpt>
      <trkpt lat="47.2765" lon="-2.25099">
        <ele>68</ele>
        <time>2019-09-08T09:00:54Z</time>
      </trkpt>
      <trkpt lat="47.27655" lon="-2.25099">
        <ele>69</ele>
        <time>2019-09-08T09:00:55Z</time>
      </trkpt>
      <trkpt lat="47.2766" lon="-2.25098">
        <ele>69</ele>
        <time>2019-09-08T09:00:56Z</time>
      </trkpt>
      <trkpt lat="47.27669" lon="-2.25095">
        <ele>69</ele>
        <time>2019-09-08T09:00:58Z</time>
      </trkpt>
      <trkpt lat="47.27674" lon="-2.25092">
        <ele>69</ele>
        <time>2019-09-08T09:00:59Z</time>
      </trkpt>
      <trkpt lat="47.27679" lon="-2.25089">
        <ele>70</ele>
        <time>2019-09-08T09:01:00Z</time>
      </trkpt>
      <trkpt lat="47.27685" lon="-2.25087">
        <ele>69</ele>
        <time>2019-09-08T09:01:01Z</time>
      </trkpt>
      <trkpt lat="47.2769" lon="-2.25088">
        <ele>69</ele>
        <time>2019-09-08T09:01:02Z</time>
      </trkpt>
      <trkpt lat="47.27696" lon="-2.25086">
        <ele>69</ele>
        <time>2019-09-08T09:01:03Z</time>
      </trkpt>
      <trkpt lat="47.27704" lon="-2.2508">
        <ele>70</ele>
        <time>2019-09-08T09:01:05Z</time>
      </trkpt>
      <trkpt lat="47.27708" lon="-2.25078">
        <ele>70</ele>
        <time>2019-09-08T09:01:06Z</time>
      </trkpt>
      <trkpt lat="47.27712" lon="-2.25075">
        <ele>71</ele>
        <time>2019-09-08T09:01:07Z</time>
      </trkpt>
      <trkpt lat="47.27718" lon="-2.25068">
        <ele>71</ele>
        <time>2019-09-08T09:01:09Z</time>
      </trkpt>
      <trkpt lat="47.27723" lon="-2.25065">
        <ele>70</ele>
        <time>2019-09-08T09:01:10Z</time>
      </trkpt>
      <trkpt lat="47.27728" lon="-2.25062">
        <ele>70</ele>
        <time>2019-09-08T09:01:11Z</time>
      </trkpt>
      <trkpt lat="47.27732" lon="-2.25059">
        <ele>70</ele>
        <time>2019-09-08T09:01:12Z</time>
      </trkpt>
      <trkpt lat="47.27737" lon="-2.25054">
        <ele>70</ele>
        <time>2019-09-08T09:01:13Z</time>
      </trkpt>
      <trkpt lat="47.2775" lon="-2.25045">
        <ele>71</ele>
        <time>2019-09-08T09:01:16Z</time>
      </trkpt>
      <trkpt lat="47.27755" lon="-2.25043">
        <ele>71</ele>
        <time>2019-09-08T09:01:17Z</time>
      </trkpt>
      <trkpt lat="47.2776" lon="-2.2504">
        <ele>71</ele>
        <time>2019-09-08T09:01:18Z</time>
      </trkpt>
      <trkpt lat="47.27765" lon="-2.25038">
        <ele>71</ele>
        <time>2019-09-08T09:01:19Z</time>
      </trkpt>
      <trkpt lat="47.27774" lon="-2.25033">
        <ele>72</ele>
        <time>2019-09-08T09:01:21Z</time>
      </trkpt>
      <trkpt lat="47.27779" lon="-2.25031">
        <ele>72</ele>
        <time>2019-09-08T09:01:22Z</time>
      </trkpt>
      <trkpt lat="47.27783" lon="-2.25027">
        <ele>71</ele>
        <time>2019-09-08T09:01:23Z</time>
      </trkpt>
      <trkpt lat="47.27788" lon="-2.25025">
        <ele>70</ele>
        <time>2019-09-08T09:01:24Z</time>
      </trkpt>
      <trkpt lat="47.27796" lon="-2.25026">
        <ele>69</ele>
        <time>2019-09-08T09:01:26Z</time>
      </trkpt>
      <trkpt lat="47.278" lon="-2.25026">
        <ele>68</ele>
        <time>2019-09-08T09:01:27Z</time>
      </trkpt>
      <trkpt lat="47.27813" lon="-2.2503">
        <ele>68</ele>
        <time>2019-09-08T09:01:30Z</time>
      </trkpt>
      <trkpt lat="47.27825" lon="-2.25039">
        <ele>67</ele>
        <time>2019-09-08T09:01:33Z</time>
      </trkpt>
      <trkpt lat="47.27829" lon="-2.25042">
        <ele>66</ele>
        <time>2019-09-08T09:01:34Z</time>
      </trkpt>
      <trkpt lat="47.27834" lon="-2.25045">
        <ele>66</ele>
        <time>2019-09-08T09:01:35Z</time>
      </trkpt>
      <trkpt lat="47.27838" lon="-2.25048">
        <ele>65</ele>
        <time>2019-09-08T09:01:36Z</time>
      </trkpt>
      <trkpt lat="47.27843" lon="-2.2505">
        <ele>66</ele>
        <time>2019-09-08T09:01:37Z</time>
      </trkpt>
      <trkpt lat="47.27857" lon="-2.25058">
        <ele>65</ele>
        <time>2019-09-08T09:01:40Z</time>
      </trkpt>
      <trkpt lat="47.27862" lon="-2.2506">
        <ele>66</ele>
        <time>2019-09-08T09:01:41Z</time>
      </trkpt>
      <trkpt lat="47.27872" lon="-2.25065">
        <ele>66</ele>
        <time>2019-09-08T09:01:43Z</time>
      </trkpt>
      <trkpt lat="47.27877" lon="-2.25067">
        <ele>66</ele>
        <time>2019-09-08T09:01:44Z</time>
      </trkpt>
      <trkpt lat="47.27882" lon="-2.2507">
        <ele>66</ele>
        <time>2019-09-08T09:01:45Z</time>
      </trkpt>
      <trkpt lat="47.27897" lon="-2.25081">
        <ele>66</ele>
        <time>2019-09-08T09:01:48Z</time>
      </trkpt>
      <trkpt lat="47.27906" lon="-2.25084">
        <ele>66</ele>
        <time>2019-09-08T09:01:50Z</time>
      </trkpt>
      <trkpt lat="47.27918" lon="-2.25077">
        <ele>67</ele>
        <time>2019-09-08T09:01:53Z</time>
      </trkpt>
      <trkpt lat="47.27924" lon="-2.25076">
        <ele>67</ele>
        <time>2019-09-08T09:01:54Z</time>
      </trkpt>
      <trkpt lat="47.27928" lon="-2.25076">
        <ele>67</ele>
        <time>2019-09-08T09:01:55Z</time>
      </trkpt>
      <trkpt lat="47.27938" lon="-2.25075">
        <ele>68</ele>
        <time>2019-09-08T09:01:57Z</time>
      </trkpt>
      <trkpt lat="47.27947" lon="-2.25075">
        <ele>68</ele>
        <time>2019-09-08T09:01:59Z</time>
      </trkpt>
      <trkpt lat="47.27952" lon="-2.25075">
        <ele>69</ele>
        <time>2019-09-08T09:02:00Z</time>
      </trkpt>
      <trkpt lat="47.27957" lon="-2.25076">
        <ele>69</ele>
        <time>2019-09-08T09:02:01Z</time>
      </trkpt>
      <trkpt lat="47.27962" lon="-2.25077">
        <ele>69</ele>
        <time>2019-09-08T09:02:02Z</time>
      </trkpt>
      <trkpt lat="47.27968" lon="-2.25078">
        <ele>69</ele>
        <time>2019-09-08T09:02:03Z</time>
      </trkpt>
      <trkpt lat="47.27973" lon="-2.25079">
        <ele>69</ele>
        <time>2019-09-08T09:02:04Z</time>
      </trkpt>
      <trkpt lat="47.27982" lon="-2.25077">
        <ele>68</ele>
        <time>2019-09-08T09:02:07Z</time>
      </trkpt>
      <trkpt lat="47.27985" lon="-2.25077">
        <ele>68</ele>
        <time>2019-09-08T09:02:08Z</time>
      </trkpt>
      <trkpt lat="47.27991" lon="-2.2508">
        <ele>68</ele>
        <time>2019-09-08T09:02:10Z</time>
      </trkpt>
      <trkpt lat="47.27999" lon="-2.25085">
        <ele>66</ele>
        <time>2019-09-08T09:02:12Z</time>
      </trkpt>
      <trkpt lat="47.28008" lon="-2.25091">
        <ele>67</ele>
        <time>2019-09-08T09:02:15Z</time>
      </trkpt>
      <trkpt lat="47.28012" lon="-2.25093">
        <ele>67</ele>
        <time>2019-09-08T09:02:16Z</time>
      </trkpt>
      <trkpt lat="47.28015" lon="-2.25095">
        <ele>67</ele>
        <time>2019-09-08T09:02:17Z</time>
      </trkpt>
      <trkpt lat="47.28018" lon="-2.25097">
        <ele>67</ele>
        <time>2019-09-08T09:02:18Z</time>
      </trkpt>
      <trkpt lat="47.28021" lon="-2.25099">
        <ele>67</ele>
        <time>2019-09-08T09:02:19Z</time>
      </trkpt>
      <trkpt lat="47.28029" lon="-2.25106">
        <ele>66</ele>
        <time>2019-09-08T09:02:21Z</time>
      </trkpt>
      <trkpt lat="47.28036" lon="-2.25112">
        <ele>65</ele>
        <time>2019-09-08T09:02:23Z</time>
      </trkpt>
      <trkpt lat="47.28048" lon="-2.2512">
        <ele>64</ele>
        <time>2019-09-08T09:02:26Z</time>
      </trkpt>
      <trkpt lat="47.28055" lon="-2.25127">
        <ele>64</ele>
        <time>2019-09-08T09:02:28Z</time>
      </trkpt>
      <trkpt lat="47.28059" lon="-2.2513">
        <ele>64</ele>
        <time>2019-09-08T09:02:29Z</time>
      </trkpt>
      <trkpt lat="47.28063" lon="-2.25133">
        <ele>64</ele>
        <time>2019-09-08T09:02:30Z</time>
      </trkpt>
      <trkpt lat="47.28067" lon="-2.25137">
        <ele>63</ele>
        <time>2019-09-08T09:02:31Z</time>
      </trkpt>
      <trkpt lat="47.28071" lon="-2.2514">
        <ele>63</ele>
        <time>2019-09-08T09:02:32Z</time>
      </trkpt>
      <trkpt lat="47.28075" lon="-2.25144">
        <ele>63</ele>
        <time>2019-09-08T09:02:34Z</time>
      </trkpt>
      <trkpt lat="47.28078" lon="-2.25147">
        <ele>63</ele>
        <time>2019-09-08T09:02:35Z</time>
      </trkpt>
      <trkpt lat="47.28082" lon="-2.2515">
        <ele>63</ele>
        <time>2019-09-08T09:02:36Z</time>
      </trkpt>
      <trkpt lat="47.28088" lon="-2.25157">
        <ele>62</ele>
        <time>2019-09-08T09:02:37Z</time>
      </trkpt>
      <trkpt lat="47.28094" lon="-2.25167">
        <ele>62</ele>
        <time>2019-09-08T09:02:40Z</time>
      </trkpt>
      <trkpt lat="47.28097" lon="-2.25184">
        <ele>62</ele>
        <time>2019-09-08T09:02:42Z</time>
      </trkpt>
      <trkpt lat="47.28097" lon="-2.25209">
        <ele>63</ele>
        <time>2019-09-08T09:02:46Z</time>
      </trkpt>
      <trkpt lat="47.28095" lon="-2.25221">
        <ele>63</ele>
        <time>2019-09-08T09:02:48Z</time>
      </trkpt>
      <trkpt lat="47.28093" lon="-2.25227">
        <ele>63</ele>
        <time>2019-09-08T09:02:49Z</time>
      </trkpt>
      <trkpt lat="47.2809" lon="-2.25241">
        <ele>63</ele>
        <time>2019-09-08T09:02:51Z</time>
      </trkpt>
      <trkpt lat="47.28086" lon="-2.25252">
        <ele>63</ele>
        <time>2019-09-08T09:02:53Z</time>
      </trkpt>
      <trkpt lat="47.28084" lon="-2.25258">
        <ele>64</ele>
        <time>2019-09-08T09:02:54Z</time>
      </trkpt>
      <trkpt lat="47.28082" lon="-2.25265">
        <ele>63</ele>
        <time>2019-09-08T09:02:55Z</time>
      </trkpt>
      <trkpt lat="47.2808" lon="-2.25273">
        <ele>63</ele>
        <time>2019-09-08T09:02:56Z</time>
      </trkpt>
      <trkpt lat="47.2808" lon="-2.25282">
        <ele>64</ele>
        <time>2019-09-08T09:02:57Z</time>
      </trkpt>
      <trkpt lat="47.2808" lon="-2.25291">
        <ele>64</ele>
        <time>2019-09-08T09:02:58Z</time>
      </trkpt>
      <trkpt lat="47.2808" lon="-2.25299">
        <ele>64</ele>
        <time>2019-09-08T09:02:59Z</time>
      </trkpt>
      <trkpt lat="47.28081" lon="-2.25308">
        <ele>64</ele>
        <time>2019-09-08T09:03:00Z</time>
      </trkpt>
      <trkpt lat="47.28081" lon="-2.25315">
        <ele>64</ele>
        <time>2019-09-08T09:03:01Z</time>
      </trkpt>
      <trkpt lat="47.28081" lon="-2.25323">
        <ele>64</ele>
        <time>2019-09-08T09:03:02Z</time>
      </trkpt>
      <trkpt lat="47.28081" lon="-2.25331">
        <ele>64</ele>
        <time>2019-09-08T09:03:03Z</time>
      </trkpt>
      <trkpt lat="47.28081" lon="-2.25338">
        <ele>65</ele>
        <time>2019-09-08T09:03:04Z</time>
      </trkpt>
      <trkpt lat="47.28081" lon="-2.25346">
        <ele>65</ele>
        <time>2019-09-08T09:03:05Z</time>
      </trkpt>
      <trkpt lat="47.28081" lon="-2.2536">
        <ele>65</ele>
        <time>2019-09-08T09:03:07Z</time>
      </trkpt>
      <trkpt lat="47.28082" lon="-2.25368">
        <ele>65</ele>
        <time>2019-09-08T09:03:08Z</time>
      </trkpt>
      <trkpt lat="47.28082" lon="-2.25376">
        <ele>65</ele>
        <time>2019-09-08T09:03:09Z</time>
      </trkpt>
      <trkpt lat="47.2808" lon="-2.25391">
        <ele>64</ele>
        <time>2019-09-08T09:03:11Z</time>
      </trkpt>
      <trkpt lat="47.28081" lon="-2.25399">
        <ele>64</ele>
        <time>2019-09-08T09:03:12Z</time>
      </trkpt>
      <trkpt lat="47.28081" lon="-2.25406">
        <ele>64</ele>
        <time>2019-09-08T09:03:13Z</time>
      </trkpt>
      <trkpt lat="47.28082" lon="-2.25415">
        <ele>63</ele>
        <time>2019-09-08T09:03:14Z</time>
      </trkpt>
      <trkpt lat="47.28082" lon="-2.25422">
        <ele>63</ele>
        <time>2019-09-08T09:03:15Z</time>
      </trkpt>
      <trkpt lat="47.28083" lon="-2.2543">
        <ele>62</ele>
        <time>2019-09-08T09:03:16Z</time>
      </trkpt>
      <trkpt lat="47.28084" lon="-2.25437">
        <ele>62</ele>
        <time>2019-09-08T09:03:17Z</time>
      </trkpt>
      <trkpt lat="47.28084" lon="-2.25443">
        <ele>62</ele>
        <time>2019-09-08T09:03:18Z</time>
      </trkpt>
      <trkpt lat="47.28088" lon="-2.25457">
        <ele>63</ele>
        <time>2019-09-08T09:03:21Z</time>
      </trkpt>
      <trkpt lat="47.28092" lon="-2.25467">
        <ele>63</ele>
        <time>2019-09-08T09:03:23Z</time>
      </trkpt>
      <trkpt lat="47.281" lon="-2.2547">
        <ele>63</ele>
        <time>2019-09-08T09:03:26Z</time>
      </trkpt>
      <trkpt lat="47.28102" lon="-2.25471">
        <ele>63</ele>
        <time>2019-09-08T09:03:27Z</time>
      </trkpt>
      <trkpt lat="47.28109" lon="-2.25472">
        <ele>64</ele>
        <time>2019-09-08T09:03:29Z</time>
      </trkpt>
      <trkpt lat="47.28119" lon="-2.25466">
        <ele>64</ele>
        <time>2019-09-08T09:03:33Z</time>
      </trkpt>
      <trkpt lat="47.28132" lon="-2.25458">
        <ele>65</ele>
        <time>2019-09-08T09:03:35Z</time>
      </trkpt>
      <trkpt lat="47.2814" lon="-2.25454">
        <ele>65</ele>
        <time>2019-09-08T09:03:37Z</time>
      </trkpt>
      <trkpt lat="47.28148" lon="-2.25448">
        <ele>65</ele>
        <time>2019-09-08T09:03:39Z</time>
      </trkpt>
      <trkpt lat="47.28156" lon="-2.25442">
        <ele>66</ele>
        <time>2019-09-08T09:03:41Z</time>
      </trkpt>
      <trkpt lat="47.28164" lon="-2.2544">
        <ele>67</ele>
        <time>2019-09-08T09:03:43Z</time>
      </trkpt>
      <trkpt lat="47.28171" lon="-2.25435">
        <ele>68</ele>
        <time>2019-09-08T09:03:45Z</time>
      </trkpt>
      <trkpt lat="47.28175" lon="-2.25431">
        <ele>68</ele>
        <time>2019-09-08T09:03:46Z</time>
      </trkpt>
      <trkpt lat="47.28186" lon="-2.25426">
        <ele>68</ele>
        <time>2019-09-08T09:03:49Z</time>
      </trkpt>
      <trkpt lat="47.28195" lon="-2.25416">
        <ele>68</ele>
        <time>2019-09-08T09:03:52Z</time>
      </trkpt>
      <trkpt lat="47.28199" lon="-2.25412">
        <ele>69</ele>
        <time>2019-09-08T09:03:53Z</time>
      </trkpt>
      <trkpt lat="47.28206" lon="-2.25407">
        <ele>69</ele>
        <time>2019-09-08T09:03:55Z</time>
      </trkpt>
      <trkpt lat="47.2822" lon="-2.25398">
        <ele>71</ele>
        <time>2019-09-08T09:03:59Z</time>
      </trkpt>
      <trkpt lat="47.2823" lon="-2.25392">
        <ele>72</ele>
        <time>2019-09-08T09:04:02Z</time>
      </trkpt>
      <trkpt lat="47.28235" lon="-2.25386">
        <ele>72</ele>
        <time>2019-09-08T09:04:04Z</time>
      </trkpt>
      <trkpt lat="47.28239" lon="-2.25383">
        <ele>72</ele>
        <time>2019-09-08T09:04:06Z</time>
      </trkpt>
      <trkpt lat="47.28246" lon="-2.2538">
        <ele>73</ele>
        <time>2019-09-08T09:04:09Z</time>
      </trkpt>
      <trkpt lat="47.28256" lon="-2.25371">
        <ele>73</ele>
        <time>2019-09-08T09:04:13Z</time>
      </trkpt>
      <trkpt lat="47.28263" lon="-2.25368">
        <ele>73</ele>
        <time>2019-09-08T09:04:15Z</time>
      </trkpt>
      <trkpt lat="47.28267" lon="-2.25365">
        <ele>74</ele>
        <time>2019-09-08T09:04:16Z</time>
      </trkpt>
      <trkpt lat="47.2828" lon="-2.25366">
        <ele>75</ele>
        <time>2019-09-08T09:04:19Z</time>
      </trkpt>
      <trkpt lat="47.28285" lon="-2.25367">
        <ele>75</ele>
        <time>2019-09-08T09:04:20Z</time>
      </trkpt>
      <trkpt lat="47.28293" lon="-2.25366">
        <ele>76</ele>
        <time>2019-09-08T09:04:22Z</time>
      </trkpt>
      <trkpt lat="47.28303" lon="-2.25361">
        <ele>77</ele>
        <time>2019-09-08T09:04:25Z</time>
      </trkpt>
      <trkpt lat="47.28311" lon="-2.25356">
        <ele>77</ele>
        <time>2019-09-08T09:04:28Z</time>
      </trkpt>
      <trkpt lat="47.28317" lon="-2.25356">
        <ele>77</ele>
        <time>2019-09-08T09:04:30Z</time>
      </trkpt>
      <trkpt lat="47.28326" lon="-2.2535">
        <ele>78</ele>
        <time>2019-09-08T09:04:33Z</time>
      </trkpt>
      <trkpt lat="47.28332" lon="-2.25342">
        <ele>79</ele>
        <time>2019-09-08T09:04:36Z</time>
      </trkpt>
      <trkpt lat="47.28338" lon="-2.25342">
        <ele>80</ele>
        <time>2019-09-08T09:04:38Z</time>
      </trkpt>
      <trkpt lat="47.28342" lon="-2.25342">
        <ele>80</ele>
        <time>2019-09-08T09:04:39Z</time>
      </trkpt>
      <trkpt lat="47.2835" lon="-2.2534">
        <ele>80</ele>
        <time>2019-09-08T09:04:41Z</time>
      </trkpt>
      <trkpt lat="47.28354" lon="-2.25339">
        <ele>80</ele>
        <time>2019-09-08T09:04:42Z</time>
      </trkpt>
      <trkpt lat="47.28366" lon="-2.25333">
        <ele>82</ele>
        <time>2019-09-08T09:04:45Z</time>
      </trkpt>
      <trkpt lat="47.28374" lon="-2.25329">
        <ele>82</ele>
        <time>2019-09-08T09:04:48Z</time>
      </trkpt>
      <trkpt lat="47.28377" lon="-2.25327">
        <ele>82</ele>
        <time>2019-09-08T09:04:49Z</time>
      </trkpt>
      <trkpt lat="47.28383" lon="-2.25329">
        <ele>82</ele>
        <time>2019-09-08T09:04:50Z</time>
      </trkpt>
      <trkpt lat="47.28384" lon="-2.25337">
        <ele>81</ele>
        <time>2019-09-08T09:04:52Z</time>
      </trkpt>
      <trkpt lat="47.28383" lon="-2.25345">
        <ele>80</ele>
        <time>2019-09-08T09:04:54Z</time>
      </trkpt>
      <trkpt lat="47.28382" lon="-2.25356">
        <ele>79</ele>
        <time>2019-09-08T09:04:56Z</time>
      </trkpt>
      <trkpt lat="47.2838" lon="-2.25369">
        <ele>80</ele>
        <time>2019-09-08T09:04:59Z</time>
      </trkpt>
      <trkpt lat="47.28378" lon="-2.25385">
        <ele>80</ele>
        <time>2019-09-08T09:05:02Z</time>
      </trkpt>
      <trkpt lat="47.28378" lon="-2.25389">
        <ele>80</ele>
        <time>2019-09-08T09:05:03Z</time>
      </trkpt>
      <trkpt lat="47.28377" lon="-2.25394">
        <ele>81</ele>
        <time>2019-09-08T09:05:04Z</time>
      </trkpt>
      <trkpt lat="47.28377" lon="-2.25399">
        <ele>80</ele>
        <time>2019-09-08T09:05:05Z</time>
      </trkpt>
      <trkpt lat="47.28375" lon="-2.25411">
        <ele>81</ele>
        <time>2019-09-08T09:05:07Z</time>
      </trkpt>
      <trkpt lat="47.28373" lon="-2.25424">
        <ele>79</ele>
        <time>2019-09-08T09:05:09Z</time>
      </trkpt>
      <trkpt lat="47.28373" lon="-2.25431">
        <ele>79</ele>
        <time>2019-09-08T09:05:10Z</time>
      </trkpt>
      <trkpt lat="47.28373" lon="-2.25439">
        <ele>80</ele>
        <time>2019-09-08T09:05:11Z</time>
      </trkpt>
      <trkpt lat="47.28373" lon="-2.25446">
        <ele>81</ele>
        <time>2019-09-08T09:05:12Z</time>
      </trkpt>
      <trkpt lat="47.28373" lon="-2.2546">
        <ele>81</ele>
        <time>2019-09-08T09:05:14Z</time>
      </trkpt>
      <trkpt lat="47.28372" lon="-2.25466">
        <ele>81</ele>
        <time>2019-09-08T09:05:15Z</time>
      </trkpt>
      <trkpt lat="47.28371" lon="-2.2548">
        <ele>82</ele>
        <time>2019-09-08T09:05:17Z</time>
      </trkpt>
      <trkpt lat="47.28371" lon="-2.25486">
        <ele>82</ele>
        <time>2019-09-08T09:05:18Z</time>
      </trkpt>
      <trkpt lat="47.2837" lon="-2.25493">
        <ele>83</ele>
        <time>2019-09-08T09:05:19Z</time>
      </trkpt>
      <trkpt lat="47.2837" lon="-2.25501">
        <ele>82</ele>
        <time>2019-09-08T09:05:20Z</time>
      </trkpt>
      <trkpt lat="47.2837" lon="-2.25507">
        <ele>82</ele>
        <time>2019-09-08T09:05:21Z</time>
      </trkpt>
      <trkpt lat="47.28368" lon="-2.2552">
        <ele>82</ele>
        <time>2019-09-08T09:05:23Z</time>
      </trkpt>
      <trkpt lat="47.28365" lon="-2.25533">
        <ele>82</ele>
        <time>2019-09-08T09:05:25Z</time>
      </trkpt>
      <trkpt lat="47.28364" lon="-2.2554">
        <ele>82</ele>
        <time>2019-09-08T09:05:26Z</time>
      </trkpt>
      <trkpt lat="47.28364" lon="-2.25547">
        <ele>82</ele>
        <time>2019-09-08T09:05:28Z</time>
      </trkpt>
      <trkpt lat="47.28364" lon="-2.25553">
        <ele>82</ele>
        <time>2019-09-08T09:05:29Z</time>
      </trkpt>
      <trkpt lat="47.28363" lon="-2.25567">
        <ele>82</ele>
        <time>2019-09-08T09:05:30Z</time>
      </trkpt>
      <trkpt lat="47.28363" lon="-2.25574">
        <ele>81</ele>
        <time>2019-09-08T09:05:31Z</time>
      </trkpt>
      <trkpt lat="47.28363" lon="-2.25581">
        <ele>82</ele>
        <time>2019-09-08T09:05:32Z</time>
      </trkpt>
      <trkpt lat="47.28363" lon="-2.25587">
        <ele>82</ele>
        <time>2019-09-08T09:05:33Z</time>
      </trkpt>
      <trkpt lat="47.28362" lon="-2.25593">
        <ele>82</ele>
        <time>2019-09-08T09:05:34Z</time>
      </trkpt>
      <trkpt lat="47.28362" lon="-2.256">
        <ele>82</ele>
        <time>2019-09-08T09:05:35Z</time>
      </trkpt>
      <trkpt lat="47.28362" lon="-2.25606">
        <ele>82</ele>
        <time>2019-09-08T09:05:36Z</time>
      </trkpt>
      <trkpt lat="47.28362" lon="-2.25612">
        <ele>82</ele>
        <time>2019-09-08T09:05:37Z</time>
      </trkpt>
      <trkpt lat="47.28361" lon="-2.25616">
        <ele>82</ele>
        <time>2019-09-08T09:05:38Z</time>
      </trkpt>
      <trkpt lat="47.28361" lon="-2.25621">
        <ele>82</ele>
        <time>2019-09-08T09:05:40Z</time>
      </trkpt>
      <trkpt lat="47.28367" lon="-2.25639">
        <ele>82</ele>
        <time>2019-09-08T09:05:43Z</time>
      </trkpt>
      <trkpt lat="47.2837" lon="-2.25649">
        <ele>82</ele>
        <time>2019-09-08T09:05:45Z</time>
      </trkpt>
      <trkpt lat="47.28373" lon="-2.25659">
        <ele>82</ele>
        <time>2019-09-08T09:05:47Z</time>
      </trkpt>
      <trkpt lat="47.28376" lon="-2.25678">
        <ele>82</ele>
        <time>2019-09-08T09:05:51Z</time>
      </trkpt>
      <trkpt lat="47.28379" lon="-2.25695">
        <ele>82</ele>
        <time>2019-09-08T09:05:53Z</time>
      </trkpt>
      <trkpt lat="47.28379" lon="-2.257">
        <ele>82</ele>
        <time>2019-09-08T09:05:54Z</time>
      </trkpt>
      <trkpt lat="47.2838" lon="-2.25705">
        <ele>82</ele>
        <time>2019-09-08T09:05:55Z</time>
      </trkpt>
      <trkpt lat="47.28382" lon="-2.25717">
        <ele>82</ele>
        <time>2019-09-08T09:05:58Z</time>
      </trkpt>
      <trkpt lat="47.28381" lon="-2.25726">
        <ele>83</ele>
        <time>2019-09-08T09:06:02Z</time>
      </trkpt>
      <trkpt lat="47.28381" lon="-2.25739">
        <ele>84</ele>
        <time>2019-09-08T09:06:06Z</time>
      </trkpt>
      <trkpt lat="47.2838" lon="-2.25744">
        <ele>83</ele>
        <time>2019-09-08T09:06:07Z</time>
      </trkpt>
      <trkpt lat="47.2838" lon="-2.2575">
        <ele>83</ele>
        <time>2019-09-08T09:06:08Z</time>
      </trkpt>
      <trkpt lat="47.28379" lon="-2.25756">
        <ele>83</ele>
        <time>2019-09-08T09:06:09Z</time>
      </trkpt>
      <trkpt lat="47.28379" lon="-2.25761">
        <ele>83</ele>
        <time>2019-09-08T09:06:10Z</time>
      </trkpt>
      <trkpt lat="47.28379" lon="-2.25766">
        <ele>82</ele>
        <time>2019-09-08T09:06:11Z</time>
      </trkpt>
      <trkpt lat="47.28378" lon="-2.25772">
        <ele>83</ele>
        <time>2019-09-08T09:06:12Z</time>
      </trkpt>
      <trkpt lat="47.28377" lon="-2.25784">
        <ele>82</ele>
        <time>2019-09-08T09:06:15Z</time>
      </trkpt>
      <trkpt lat="47.28377" lon="-2.25792">
        <ele>82</ele>
        <time>2019-09-08T09:06:17Z</time>
      </trkpt>
      <trkpt lat="47.28376" lon="-2.25799">
        <ele>82</ele>
        <time>2019-09-08T09:06:20Z</time>
      </trkpt>
      <trkpt lat="47.28377" lon="-2.25807">
        <ele>82</ele>
        <time>2019-09-08T09:06:24Z</time>
      </trkpt>
      <trkpt lat="47.28393" lon="-2.25811">
        <ele>82</ele>
        <time>2019-09-08T09:06:29Z</time>
      </trkpt>
      <trkpt lat="47.28399" lon="-2.25812">
        <ele>82</ele>
        <time>2019-09-08T09:06:31Z</time>
      </trkpt>
      <trkpt lat="47.28404" lon="-2.25811">
        <ele>82</ele>
        <time>2019-09-08T09:06:33Z</time>
      </trkpt>
      <trkpt lat="47.28409" lon="-2.25811">
        <ele>81</ele>
        <time>2019-09-08T09:06:35Z</time>
      </trkpt>
      <trkpt lat="47.28414" lon="-2.25811">
        <ele>82</ele>
        <time>2019-09-08T09:06:37Z</time>
      </trkpt>
      <trkpt lat="47.28417" lon="-2.25812">
        <ele>82</ele>
        <time>2019-09-08T09:06:38Z</time>
      </trkpt>
      <trkpt lat="47.28426" lon="-2.25812">
        <ele>81</ele>
        <time>2019-09-08T09:06:41Z</time>
      </trkpt>
      <trkpt lat="47.28432" lon="-2.25814">
        <ele>81</ele>
        <time>2019-09-08T09:06:43Z</time>
      </trkpt>
      <trkpt lat="47.28441" lon="-2.25818">
        <ele>80</ele>
        <time>2019-09-08T09:06:46Z</time>
      </trkpt>
      <trkpt lat="47.28444" lon="-2.25818">
        <ele>80</ele>
        <time>2019-09-08T09:06:47Z</time>
      </trkpt>
      <trkpt lat="47.28448" lon="-2.25819">
        <ele>80</ele>
        <time>2019-09-08T09:06:48Z</time>
      </trkpt>
      <trkpt lat="47.28454" lon="-2.25822">
        <ele>80</ele>
        <time>2019-09-08T09:06:50Z</time>
      </trkpt>
      <trkpt lat="47.2846" lon="-2.25822">
        <ele>79</ele>
        <time>2019-09-08T09:06:52Z</time>
      </trkpt>
      <trkpt lat="47.28471" lon="-2.25824">
        <ele>80</ele>
        <time>2019-09-08T09:06:55Z</time>
      </trkpt>
      <trkpt lat="47.28483" lon="-2.25827">
        <ele>80</ele>
        <time>2019-09-08T09:06:58Z</time>
      </trkpt>
      <trkpt lat="47.28488" lon="-2.25827">
        <ele>80</ele>
        <time>2019-09-08T09:06:59Z</time>
      </trkpt>
      <trkpt lat="47.28492" lon="-2.25827">
        <ele>80</ele>
        <time>2019-09-08T09:07:00Z</time>
      </trkpt>
      <trkpt lat="47.28496" lon="-2.25828">
        <ele>79</ele>
        <time>2019-09-08T09:07:01Z</time>
      </trkpt>
      <trkpt lat="47.28505" lon="-2.2583">
        <ele>79</ele>
        <time>2019-09-08T09:07:03Z</time>
      </trkpt>
      <trkpt lat="47.28526" lon="-2.25835">
        <ele>79</ele>
        <time>2019-09-08T09:07:07Z</time>
      </trkpt>
      <trkpt lat="47.28532" lon="-2.25836">
        <ele>78</ele>
        <time>2019-09-08T09:07:08Z</time>
      </trkpt>
      <trkpt lat="47.28543" lon="-2.2584">
        <ele>79</ele>
        <time>2019-09-08T09:07:10Z</time>
      </trkpt>
      <trkpt lat="47.28549" lon="-2.25841">
        <ele>79</ele>
        <time>2019-09-08T09:07:11Z</time>
      </trkpt>
      <trkpt lat="47.28553" lon="-2.25843">
        <ele>79</ele>
        <time>2019-09-08T09:07:12Z</time>
      </trkpt>
      <trkpt lat="47.28562" lon="-2.25831">
        <ele>79</ele>
        <time>2019-09-08T09:07:15Z</time>
      </trkpt>
      <trkpt lat="47.28563" lon="-2.25824">
        <ele>79</ele>
        <time>2019-09-08T09:07:16Z</time>
      </trkpt>
      <trkpt lat="47.28563" lon="-2.25811">
        <ele>79</ele>
        <time>2019-09-08T09:07:18Z</time>
      </trkpt>
      <trkpt lat="47.28563" lon="-2.25804">
        <ele>79</ele>
        <time>2019-09-08T09:07:19Z</time>
      </trkpt>
      <trkpt lat="47.28563" lon="-2.25797">
        <ele>79</ele>
        <time>2019-09-08T09:07:20Z</time>
      </trkpt>
      <trkpt lat="47.28562" lon="-2.25789">
        <ele>79</ele>
        <time>2019-09-08T09:07:21Z</time>
      </trkpt>
      <trkpt lat="47.28562" lon="-2.25783">
        <ele>79</ele>
        <time>2019-09-08T09:07:22Z</time>
      </trkpt>
      <trkpt lat="47.28564" lon="-2.25766">
        <ele>78</ele>
        <time>2019-09-08T09:07:26Z</time>
      </trkpt>
      <trkpt lat="47.28568" lon="-2.25763">
        <ele>78</ele>
        <time>2019-09-08T09:07:30Z</time>
      </trkpt>
      <trkpt lat="47.28577" lon="-2.25763">
        <ele>78</ele>
        <time>2019-09-08T09:07:34Z</time>
      </trkpt>
      <trkpt lat="47.28586" lon="-2.25768">
        <ele>78</ele>
        <time>2019-09-08T09:07:39Z</time>
      </trkpt>
      <trkpt lat="47.28596" lon="-2.25768">
        <ele>79</ele>
        <time>2019-09-08T09:07:41Z</time>
      </trkpt>
      <trkpt lat="47.28606" lon="-2.25768">
        <ele>80</ele>
        <time>2019-09-08T09:07:42Z</time>
      </trkpt>
      <trkpt lat="47.28614" lon="-2.25768">
        <ele>80</ele>
        <time>2019-09-08T09:07:43Z</time>
      </trkpt>
      <trkpt lat="47.28618" lon="-2.25769">
        <ele>80</ele>
        <time>2019-09-08T09:07:44Z</time>
      </trkpt>
      <trkpt lat="47.28623" lon="-2.25775">
        <ele>80</ele>
        <time>2019-09-08T09:07:46Z</time>
      </trkpt>
      <trkpt lat="47.28625" lon="-2.25782">
        <ele>79</ele>
        <time>2019-09-08T09:07:48Z</time>
      </trkpt>
      <trkpt lat="47.28626" lon="-2.25789">
        <ele>78</ele>
        <time>2019-09-08T09:07:50Z</time>
      </trkpt>
      <trkpt lat="47.28626" lon="-2.25793">
        <ele>77</ele>
        <time>2019-09-08T09:07:51Z</time>
      </trkpt>
      <trkpt lat="47.28627" lon="-2.25797">
        <ele>77</ele>
        <time>2019-09-08T09:07:52Z</time>
      </trkpt>
      <trkpt lat="47.28629" lon="-2.25804">
        <ele>77</ele>
        <time>2019-09-08T09:07:54Z</time>
      </trkpt>
      <trkpt lat="47.28633" lon="-2.2581">
        <ele>78</ele>
        <time>2019-09-08T09:07:57Z</time>
      </trkpt>
      <trkpt lat="47.28639" lon="-2.25815">
        <ele>78</ele>
        <time>2019-09-08T09:07:59Z</time>
      </trkpt>
      <trkpt lat="47.28655" lon="-2.25825">
        <ele>77</ele>
        <time>2019-09-08T09:08:02Z</time>
      </trkpt>
      <trkpt lat="47.28662" lon="-2.2583">
        <ele>77</ele>
        <time>2019-09-08T09:08:04Z</time>
      </trkpt>
      <trkpt lat="47.28666" lon="-2.25833">
        <ele>77</ele>
        <time>2019-09-08T09:08:05Z</time>
      </trkpt>
      <trkpt lat="47.28669" lon="-2.25835">
        <ele>78</ele>
        <time>2019-09-08T09:08:06Z</time>
      </trkpt>
      <trkpt lat="47.28676" lon="-2.25839">
        <ele>78</ele>
        <time>2019-09-08T09:08:08Z</time>
      </trkpt>
      <trkpt lat="47.28679" lon="-2.25842">
        <ele>78</ele>
        <time>2019-09-08T09:08:09Z</time>
      </trkpt>
      <trkpt lat="47.28682" lon="-2.25844">
        <ele>78</ele>
        <time>2019-09-08T09:08:10Z</time>
      </trkpt>
      <trkpt lat="47.28693" lon="-2.2585">
        <ele>77</ele>
        <time>2019-09-08T09:08:13Z</time>
      </trkpt>
      <trkpt lat="47.287" lon="-2.25854">
        <ele>77</ele>
        <time>2019-09-08T09:08:15Z</time>
      </trkpt>
      <trkpt lat="47.28708" lon="-2.25859">
        <ele>77</ele>
        <time>2019-09-08T09:08:17Z</time>
      </trkpt>
      <trkpt lat="47.28712" lon="-2.25861">
        <ele>77</ele>
        <time>2019-09-08T09:08:18Z</time>
      </trkpt>
      <trkpt lat="47.28716" lon="-2.25864">
        <ele>77</ele>
        <time>2019-09-08T09:08:19Z</time>
      </trkpt>
      <trkpt lat="47.2872" lon="-2.25867">
        <ele>77</ele>
        <time>2019-09-08T09:08:20Z</time>
      </trkpt>
      <trkpt lat="47.28728" lon="-2.25871">
        <ele>76</ele>
        <time>2019-09-08T09:08:22Z</time>
      </trkpt>
      <trkpt lat="47.28733" lon="-2.25873">
        <ele>76</ele>
        <time>2019-09-08T09:08:23Z</time>
      </trkpt>
      <trkpt lat="47.28738" lon="-2.25876">
        <ele>76</ele>
        <time>2019-09-08T09:08:24Z</time>
      </trkpt>
      <trkpt lat="47.28742" lon="-2.25878">
        <ele>76</ele>
        <time>2019-09-08T09:08:25Z</time>
      </trkpt>
      <trkpt lat="47.28747" lon="-2.25882">
        <ele>76</ele>
        <time>2019-09-08T09:08:26Z</time>
      </trkpt>
      <trkpt lat="47.28751" lon="-2.25885">
        <ele>75</ele>
        <time>2019-09-08T09:08:27Z</time>
      </trkpt>
      <trkpt lat="47.28756" lon="-2.25888">
        <ele>75</ele>
        <time>2019-09-08T09:08:28Z</time>
      </trkpt>
      <trkpt lat="47.28761" lon="-2.25891">
        <ele>75</ele>
        <time>2019-09-08T09:08:29Z</time>
      </trkpt>
      <trkpt lat="47.28765" lon="-2.25893">
        <ele>74</ele>
        <time>2019-09-08T09:08:30Z</time>
      </trkpt>
      <trkpt lat="47.28775" lon="-2.25898">
        <ele>73</ele>
        <time>2019-09-08T09:08:32Z</time>
      </trkpt>
      <trkpt lat="47.2878" lon="-2.259">
        <ele>73</ele>
        <time>2019-09-08T09:08:33Z</time>
      </trkpt>
      <trkpt lat="47.28784" lon="-2.25903">
        <ele>73</ele>
        <time>2019-09-08T09:08:34Z</time>
      </trkpt>
      <trkpt lat="47.28789" lon="-2.25906">
        <ele>72</ele>
        <time>2019-09-08T09:08:35Z</time>
      </trkpt>
      <trkpt lat="47.28794" lon="-2.25909">
        <ele>72</ele>
        <time>2019-09-08T09:08:36Z</time>
      </trkpt>
      <trkpt lat="47.28799" lon="-2.25912">
        <ele>72</ele>
        <time>2019-09-08T09:08:37Z</time>
      </trkpt>
      <trkpt lat="47.28804" lon="-2.25915">
        <ele>71</ele>
        <time>2019-09-08T09:08:38Z</time>
      </trkpt>
      <trkpt lat="47.28808" lon="-2.25918">
        <ele>71</ele>
        <time>2019-09-08T09:08:39Z</time>
      </trkpt>
      <trkpt lat="47.28812" lon="-2.25921">
        <ele>71</ele>
        <time>2019-09-08T09:08:40Z</time>
      </trkpt>
      <trkpt lat="47.28818" lon="-2.25931">
        <ele>72</ele>
        <time>2019-09-08T09:08:42Z</time>
      </trkpt>
      <trkpt lat="47.28823" lon="-2.25941">
        <ele>71</ele>
        <time>2019-09-08T09:08:44Z</time>
      </trkpt>
      <trkpt lat="47.28825" lon="-2.25944">
        <ele>71</ele>
        <time>2019-09-08T09:08:45Z</time>
      </trkpt>
      <trkpt lat="47.28833" lon="-2.25954">
        <ele>71</ele>
        <time>2019-09-08T09:08:49Z</time>
      </trkpt>
      <trkpt lat="47.28837" lon="-2.25958">
        <ele>71</ele>
        <time>2019-09-08T09:08:51Z</time>
      </trkpt>
      <trkpt lat="47.28843" lon="-2.2596">
        <ele>71</ele>
        <time>2019-09-08T09:08:53Z</time>
      </trkpt>
      <trkpt lat="47.28856" lon="-2.25961">
        <ele>72</ele>
        <time>2019-09-08T09:08:56Z</time>
      </trkpt>
      <trkpt lat="47.2886" lon="-2.25962">
        <ele>72</ele>
        <time>2019-09-08T09:08:57Z</time>
      </trkpt>
      <trkpt lat="47.28865" lon="-2.25963">
        <ele>72</ele>
        <time>2019-09-08T09:08:58Z</time>
      </trkpt>
      <trkpt lat="47.2887" lon="-2.25964">
        <ele>72</ele>
        <time>2019-09-08T09:08:59Z</time>
      </trkpt>
      <trkpt lat="47.28876" lon="-2.25964">
        <ele>73</ele>
        <time>2019-09-08T09:09:00Z</time>
      </trkpt>
      <trkpt lat="47.28881" lon="-2.25963">
        <ele>73</ele>
        <time>2019-09-08T09:09:01Z</time>
      </trkpt>
      <trkpt lat="47.28886" lon="-2.25964">
        <ele>73</ele>
        <time>2019-09-08T09:09:02Z</time>
      </trkpt>
      <trkpt lat="47.28891" lon="-2.25964">
        <ele>73</ele>
        <time>2019-09-08T09:09:03Z</time>
      </trkpt>
      <trkpt lat="47.289" lon="-2.25963">
        <ele>74</ele>
        <time>2019-09-08T09:09:05Z</time>
      </trkpt>
      <trkpt lat="47.28911" lon="-2.25962">
        <ele>74</ele>
        <time>2019-09-08T09:09:07Z</time>
      </trkpt>
      <trkpt lat="47.28915" lon="-2.25962">
        <ele>74</ele>
        <time>2019-09-08T09:09:08Z</time>
      </trkpt>
      <trkpt lat="47.28921" lon="-2.25961">
        <ele>74</ele>
        <time>2019-09-08T09:09:09Z</time>
      </trkpt>
      <trkpt lat="47.28926" lon="-2.25961">
        <ele>74</ele>
        <time>2019-09-08T09:09:10Z</time>
      </trkpt>
      <trkpt lat="47.2893" lon="-2.2596">
        <ele>74</ele>
        <time>2019-09-08T09:09:12Z</time>
      </trkpt>
      <trkpt lat="47.28934" lon="-2.2596">
        <ele>75</ele>
        <time>2019-09-08T09:09:13Z</time>
      </trkpt>
      <trkpt lat="47.28949" lon="-2.25962">
        <ele>76</ele>
        <time>2019-09-08T09:09:15Z</time>
      </trkpt>
      <trkpt lat="47.28954" lon="-2.25963">
        <ele>76</ele>
        <time>2019-09-08T09:09:16Z</time>
      </trkpt>
      <trkpt lat="47.28965" lon="-2.2596">
        <ele>76</ele>
        <time>2019-09-08T09:09:18Z</time>
      </trkpt>
      <trkpt lat="47.28971" lon="-2.25957">
        <ele>76</ele>
        <time>2019-09-08T09:09:19Z</time>
      </trkpt>
      <trkpt lat="47.28976" lon="-2.25956">
        <ele>76</ele>
        <time>2019-09-08T09:09:20Z</time>
      </trkpt>
      <trkpt lat="47.28981" lon="-2.25954">
        <ele>76</ele>
        <time>2019-09-08T09:09:21Z</time>
      </trkpt>
      <trkpt lat="47.28986" lon="-2.25953">
        <ele>75</ele>
        <time>2019-09-08T09:09:22Z</time>
      </trkpt>
      <trkpt lat="47.28992" lon="-2.25952">
        <ele>75</ele>
        <time>2019-09-08T09:09:23Z</time>
      </trkpt>
      <trkpt lat="47.28996" lon="-2.25953">
        <ele>74</ele>
        <time>2019-09-08T09:09:24Z</time>
      </trkpt>
      <trkpt lat="47.29001" lon="-2.25953">
        <ele>75</ele>
        <time>2019-09-08T09:09:25Z</time>
      </trkpt>
      <trkpt lat="47.29006" lon="-2.25952">
        <ele>74</ele>
        <time>2019-09-08T09:09:26Z</time>
      </trkpt>
      <trkpt lat="47.29011" lon="-2.25952">
        <ele>74</ele>
        <time>2019-09-08T09:09:27Z</time>
      </trkpt>
      <trkpt lat="47.29016" lon="-2.25951">
        <ele>74</ele>
        <time>2019-09-08T09:09:28Z</time>
      </trkpt>
      <trkpt lat="47.2902" lon="-2.25952">
        <ele>73</ele>
        <time>2019-09-08T09:09:29Z</time>
      </trkpt>
      <trkpt lat="47.29025" lon="-2.25952">
        <ele>73</ele>
        <time>2019-09-08T09:09:30Z</time>
      </trkpt>
      <trkpt lat="47.2903" lon="-2.25952">
        <ele>73</ele>
        <time>2019-09-08T09:09:31Z</time>
      </trkpt>
      <trkpt lat="47.29035" lon="-2.25952">
        <ele>73</ele>
        <time>2019-09-08T09:09:32Z</time>
      </trkpt>
      <trkpt lat="47.29051" lon="-2.25944">
        <ele>73</ele>
        <time>2019-09-08T09:09:36Z</time>
      </trkpt>
      <trkpt lat="47.29058" lon="-2.25954">
        <ele>73</ele>
        <time>2019-09-08T09:09:38Z</time>
      </trkpt>
      <trkpt lat="47.29064" lon="-2.25964">
        <ele>73</ele>
        <time>2019-09-08T09:09:40Z</time>
      </trkpt>
      <trkpt lat="47.29068" lon="-2.25966">
        <ele>73</ele>
        <time>2019-09-08T09:09:41Z</time>
      </trkpt>
      <trkpt lat="47.29072" lon="-2.25968">
        <ele>73</ele>
        <time>2019-09-08T09:09:42Z</time>
      </trkpt>
      <trkpt lat="47.29086" lon="-2.2597">
        <ele>73</ele>
        <time>2019-09-08T09:09:45Z</time>
      </trkpt>
      <trkpt lat="47.29092" lon="-2.25969">
        <ele>74</ele>
        <time>2019-09-08T09:09:46Z</time>
      </trkpt>
      <trkpt lat="47.29097" lon="-2.25968">
        <ele>74</ele>
        <time>2019-09-08T09:09:47Z</time>
      </trkpt>
      <trkpt lat="47.29103" lon="-2.25968">
        <ele>75</ele>
        <time>2019-09-08T09:09:48Z</time>
      </trkpt>
      <trkpt lat="47.29107" lon="-2.25967">
        <ele>74</ele>
        <time>2019-09-08T09:09:49Z</time>
      </trkpt>
      <trkpt lat="47.29113" lon="-2.25966">
        <ele>75</ele>
        <time>2019-09-08T09:09:50Z</time>
      </trkpt>
      <trkpt lat="47.29118" lon="-2.25965">
        <ele>75</ele>
        <time>2019-09-08T09:09:51Z</time>
      </trkpt>
      <trkpt lat="47.29124" lon="-2.25964">
        <ele>75</ele>
        <time>2019-09-08T09:09:52Z</time>
      </trkpt>
      <trkpt lat="47.2913" lon="-2.25962">
        <ele>75</ele>
        <time>2019-09-08T09:09:54Z</time>
      </trkpt>
      <trkpt lat="47.2914" lon="-2.25956">
        <ele>75</ele>
        <time>2019-09-08T09:09:55Z</time>
      </trkpt>
      <trkpt lat="47.29145" lon="-2.25951">
        <ele>74</ele>
        <time>2019-09-08T09:09:56Z</time>
      </trkpt>
      <trkpt lat="47.29156" lon="-2.25932">
        <ele>75</ele>
        <time>2019-09-08T09:09:59Z</time>
      </trkpt>
      <trkpt lat="47.29159" lon="-2.25926">
        <ele>75</ele>
        <time>2019-09-08T09:10:00Z</time>
      </trkpt>
      <trkpt lat="47.29163" lon="-2.2592">
        <ele>75</ele>
        <time>2019-09-08T09:10:01Z</time>
      </trkpt>
      <trkpt lat="47.29166" lon="-2.25913">
        <ele>75</ele>
        <time>2019-09-08T09:10:02Z</time>
      </trkpt>
      <trkpt lat="47.29177" lon="-2.25896">
        <ele>75</ele>
        <time>2019-09-08T09:10:05Z</time>
      </trkpt>
      <trkpt lat="47.29181" lon="-2.25891">
        <ele>75</ele>
        <time>2019-09-08T09:10:06Z</time>
      </trkpt>
      <trkpt lat="47.29185" lon="-2.25886">
        <ele>75</ele>
        <time>2019-09-08T09:10:07Z</time>
      </trkpt>
      <trkpt lat="47.29189" lon="-2.25883">
        <ele>76</ele>
        <time>2019-09-08T09:10:08Z</time>
      </trkpt>
      <trkpt lat="47.29194" lon="-2.25879">
        <ele>76</ele>
        <time>2019-09-08T09:10:09Z</time>
      </trkpt>
      <trkpt lat="47.29198" lon="-2.25877">
        <ele>76</ele>
        <time>2019-09-08T09:10:10Z</time>
      </trkpt>
      <trkpt lat="47.29208" lon="-2.2587">
        <ele>76</ele>
        <time>2019-09-08T09:10:12Z</time>
      </trkpt>
      <trkpt lat="47.29212" lon="-2.25867">
        <ele>76</ele>
        <time>2019-09-08T09:10:13Z</time>
      </trkpt>
      <trkpt lat="47.29217" lon="-2.25864">
        <ele>76</ele>
        <time>2019-09-08T09:10:14Z</time>
      </trkpt>
      <trkpt lat="47.29222" lon="-2.25861">
        <ele>76</ele>
        <time>2019-09-08T09:10:15Z</time>
      </trkpt>
      <trkpt lat="47.29227" lon="-2.25858">
        <ele>76</ele>
        <time>2019-09-08T09:10:16Z</time>
      </trkpt>
      <trkpt lat="47.29231" lon="-2.25855">
        <ele>77</ele>
        <time>2019-09-08T09:10:17Z</time>
      </trkpt>
      <trkpt lat="47.29235" lon="-2.25852">
        <ele>77</ele>
        <time>2019-09-08T09:10:18Z</time>
      </trkpt>
      <trkpt lat="47.2924" lon="-2.25849">
        <ele>77</ele>
        <time>2019-09-08T09:10:19Z</time>
      </trkpt>
      <trkpt lat="47.29245" lon="-2.25846">
        <ele>77</ele>
        <time>2019-09-08T09:10:20Z</time>
      </trkpt>
      <trkpt lat="47.2925" lon="-2.25842">
        <ele>77</ele>
        <time>2019-09-08T09:10:21Z</time>
      </trkpt>
      <trkpt lat="47.2926" lon="-2.25835">
        <ele>76</ele>
        <time>2019-09-08T09:10:23Z</time>
      </trkpt>
      <trkpt lat="47.29265" lon="-2.25832">
        <ele>76</ele>
        <time>2019-09-08T09:10:24Z</time>
      </trkpt>
      <trkpt lat="47.29273" lon="-2.25825">
        <ele>76</ele>
        <time>2019-09-08T09:10:26Z</time>
      </trkpt>
      <trkpt lat="47.29277" lon="-2.25821">
        <ele>77</ele>
        <time>2019-09-08T09:10:27Z</time>
      </trkpt>
      <trkpt lat="47.29286" lon="-2.25813">
        <ele>77</ele>
        <time>2019-09-08T09:10:29Z</time>
      </trkpt>
      <trkpt lat="47.2929" lon="-2.25809">
        <ele>77</ele>
        <time>2019-09-08T09:10:30Z</time>
      </trkpt>
      <trkpt lat="47.29302" lon="-2.25801">
        <ele>77</ele>
        <time>2019-09-08T09:10:33Z</time>
      </trkpt>
      <trkpt lat="47.29305" lon="-2.25797">
        <ele>77</ele>
        <time>2019-09-08T09:10:34Z</time>
      </trkpt>
      <trkpt lat="47.29313" lon="-2.2579">
        <ele>78</ele>
        <time>2019-09-08T09:10:36Z</time>
      </trkpt>
      <trkpt lat="47.29319" lon="-2.25788">
        <ele>78</ele>
        <time>2019-09-08T09:10:38Z</time>
      </trkpt>
      <trkpt lat="47.29323" lon="-2.25791">
        <ele>77</ele>
        <time>2019-09-08T09:10:40Z</time>
      </trkpt>
      <trkpt lat="47.2933" lon="-2.25795">
        <ele>78</ele>
        <time>2019-09-08T09:10:43Z</time>
      </trkpt>
      <trkpt lat="47.29337" lon="-2.258">
        <ele>78</ele>
        <time>2019-09-08T09:10:46Z</time>
      </trkpt>
      <trkpt lat="47.2934" lon="-2.25801">
        <ele>79</ele>
        <time>2019-09-08T09:10:47Z</time>
      </trkpt>
      <trkpt lat="47.29344" lon="-2.25803">
        <ele>79</ele>
        <time>2019-09-08T09:10:49Z</time>
      </trkpt>
      <trkpt lat="47.29349" lon="-2.25803">
        <ele>80</ele>
        <time>2019-09-08T09:10:52Z</time>
      </trkpt>
      <trkpt lat="47.29353" lon="-2.25794">
        <ele>81</ele>
        <time>2019-09-08T09:10:58Z</time>
      </trkpt>
      <trkpt lat="47.29355" lon="-2.25786">
        <ele>81</ele>
        <time>2019-09-08T09:11:01Z</time>
      </trkpt>
      <trkpt lat="47.29358" lon="-2.2578">
        <ele>82</ele>
        <time>2019-09-08T09:11:04Z</time>
      </trkpt>
      <trkpt lat="47.29364" lon="-2.25778">
        <ele>82</ele>
        <time>2019-09-08T09:11:07Z</time>
      </trkpt>
      <trkpt lat="47.29369" lon="-2.25774">
        <ele>82</ele>
        <time>2019-09-08T09:11:09Z</time>
      </trkpt>
      <trkpt lat="47.29372" lon="-2.25771">
        <ele>82</ele>
        <time>2019-09-08T09:11:10Z</time>
      </trkpt>
      <trkpt lat="47.29375" lon="-2.25769">
        <ele>82</ele>
        <time>2019-09-08T09:11:11Z</time>
      </trkpt>
      <trkpt lat="47.29378" lon="-2.25767">
        <ele>82</ele>
        <time>2019-09-08T09:11:12Z</time>
      </trkpt>
      <trkpt lat="47.29383" lon="-2.25766">
        <ele>82</ele>
        <time>2019-09-08T09:11:14Z</time>
      </trkpt>
      <trkpt lat="47.29388" lon="-2.25767">
        <ele>83</ele>
        <time>2019-09-08T09:11:16Z</time>
      </trkpt>
      <trkpt lat="47.29394" lon="-2.25767">
        <ele>83</ele>
        <time>2019-09-08T09:11:18Z</time>
      </trkpt>
      <trkpt lat="47.29399" lon="-2.25766">
        <ele>82</ele>
        <time>2019-09-08T09:11:20Z</time>
      </trkpt>
      <trkpt lat="47.29408" lon="-2.25775">
        <ele>82</ele>
        <time>2019-09-08T09:11:24Z</time>
      </trkpt>
      <trkpt lat="47.29414" lon="-2.25778">
        <ele>82</ele>
        <time>2019-09-08T09:11:26Z</time>
      </trkpt>
      <trkpt lat="47.29416" lon="-2.25785">
        <ele>81</ele>
        <time>2019-09-08T09:11:29Z</time>
      </trkpt>
      <trkpt lat="47.29418" lon="-2.25796">
        <ele>82</ele>
        <time>2019-09-08T09:11:32Z</time>
      </trkpt>
      <trkpt lat="47.2942" lon="-2.25807">
        <ele>81</ele>
        <time>2019-09-08T09:11:34Z</time>
      </trkpt>
      <trkpt lat="47.2942" lon="-2.25818">
        <ele>82</ele>
        <time>2019-09-08T09:11:36Z</time>
      </trkpt>
      <trkpt lat="47.29418" lon="-2.25832">
        <ele>82</ele>
        <time>2019-09-08T09:11:39Z</time>
      </trkpt>
      <trkpt lat="47.29417" lon="-2.25836">
        <ele>82</ele>
        <time>2019-09-08T09:11:40Z</time>
      </trkpt>
      <trkpt lat="47.29423" lon="-2.25855">
        <ele>82</ele>
        <time>2019-09-08T09:11:43Z</time>
      </trkpt>
      <trkpt lat="47.29426" lon="-2.25861">
        <ele>82</ele>
        <time>2019-09-08T09:11:44Z</time>
      </trkpt>
      <trkpt lat="47.29428" lon="-2.25869">
        <ele>82</ele>
        <time>2019-09-08T09:11:45Z</time>
      </trkpt>
      <trkpt lat="47.29429" lon="-2.25877">
        <ele>82</ele>
        <time>2019-09-08T09:11:46Z</time>
      </trkpt>
      <trkpt lat="47.2943" lon="-2.25885">
        <ele>82</ele>
        <time>2019-09-08T09:11:47Z</time>
      </trkpt>
      <trkpt lat="47.29434" lon="-2.25902">
        <ele>83</ele>
        <time>2019-09-08T09:11:50Z</time>
      </trkpt>
      <trkpt lat="47.29435" lon="-2.25913">
        <ele>84</ele>
        <time>2019-09-08T09:11:52Z</time>
      </trkpt>
      <trkpt lat="47.29433" lon="-2.25921">
        <ele>84</ele>
        <time>2019-09-08T09:11:54Z</time>
      </trkpt>
      <trkpt lat="47.29427" lon="-2.2593">
        <ele>84</ele>
        <time>2019-09-08T09:11:56Z</time>
      </trkpt>
      <trkpt lat="47.29422" lon="-2.25936">
        <ele>84</ele>
        <time>2019-09-08T09:11:58Z</time>
      </trkpt>
      <trkpt lat="47.29419" lon="-2.25939">
        <ele>84</ele>
        <time>2019-09-08T09:11:59Z</time>
      </trkpt>
      <trkpt lat="47.2941" lon="-2.25946">
        <ele>84</ele>
        <time>2019-09-08T09:12:02Z</time>
      </trkpt>
      <trkpt lat="47.29404" lon="-2.25946">
        <ele>84</ele>
        <time>2019-09-08T09:12:04Z</time>
      </trkpt>
      <trkpt lat="47.294" lon="-2.25945">
        <ele>84</ele>
        <time>2019-09-08T09:12:05Z</time>
      </trkpt>
      <trkpt lat="47.29395" lon="-2.25946">
        <ele>84</ele>
        <time>2019-09-08T09:12:07Z</time>
      </trkpt>
      <trkpt lat="47.29389" lon="-2.25943">
        <ele>84</ele>
        <time>2019-09-08T09:12:10Z</time>
      </trkpt>
      <trkpt lat="47.29381" lon="-2.25947">
        <ele>85</ele>
        <time>2019-09-08T09:12:13Z</time>
      </trkpt>
      <trkpt lat="47.29375" lon="-2.25953">
        <ele>85</ele>
        <time>2019-09-08T09:12:15Z</time>
      </trkpt>
      <trkpt lat="47.29368" lon="-2.2596">
        <ele>86</ele>
        <time>2019-09-08T09:12:17Z</time>
      </trkpt>
      <trkpt lat="47.29363" lon="-2.25964">
        <ele>85</ele>
        <time>2019-09-08T09:12:18Z</time>
      </trkpt>
      <trkpt lat="47.29353" lon="-2.25967">
        <ele>85</ele>
        <time>2019-09-08T09:12:20Z</time>
      </trkpt>
      <trkpt lat="47.29346" lon="-2.25965">
        <ele>84</ele>
        <time>2019-09-08T09:12:22Z</time>
      </trkpt>
      <trkpt lat="47.29342" lon="-2.25962">
        <ele>84</ele>
        <time>2019-09-08T09:12:23Z</time>
      </trkpt>
      <trkpt lat="47.29336" lon="-2.25952">
        <ele>83</ele>
        <time>2019-09-08T09:12:25Z</time>
      </trkpt>
      <trkpt lat="47.29332" lon="-2.25941">
        <ele>83</ele>
        <time>2019-09-08T09:12:27Z</time>
      </trkpt>
      <trkpt lat="47.2933" lon="-2.25935">
        <ele>83</ele>
        <time>2019-09-08T09:12:28Z</time>
      </trkpt>
      <trkpt lat="47.29328" lon="-2.25928">
        <ele>84</ele>
        <time>2019-09-08T09:12:29Z</time>
      </trkpt>
      <trkpt lat="47.29321" lon="-2.25913">
        <ele>83</ele>
        <time>2019-09-08T09:12:31Z</time>
      </trkpt>
      <trkpt lat="47.29319" lon="-2.25908">
        <ele>83</ele>
        <time>2019-09-08T09:12:32Z</time>
      </trkpt>
      <trkpt lat="47.29314" lon="-2.25896">
        <ele>84</ele>
        <time>2019-09-08T09:12:34Z</time>
      </trkpt>
      <trkpt lat="47.29313" lon="-2.25893">
        <ele>85</ele>
        <time>2019-09-08T09:12:35Z</time>
      </trkpt>
      <trkpt lat="47.29309" lon="-2.25885">
        <ele>85</ele>
        <time>2019-09-08T09:12:37Z</time>
      </trkpt>
      <trkpt lat="47.29305" lon="-2.25876">
        <ele>85</ele>
        <time>2019-09-08T09:12:39Z</time>
      </trkpt>
      <trkpt lat="47.293" lon="-2.25869">
        <ele>85</ele>
        <time>2019-09-08T09:12:41Z</time>
      </trkpt>
      <trkpt lat="47.29299" lon="-2.25861">
        <ele>85</ele>
        <time>2019-09-08T09:12:43Z</time>
      </trkpt>
      <trkpt lat="47.29299" lon="-2.25861">
        <ele>85</ele>
        <time>2019-09-08T09:12:48Z</time>
      </trkpt>
      <trkpt lat="47.29299" lon="-2.25861">
        <ele>22.2</ele>
        <time>2019-09-08T09:12:48Z</time>
      </trkpt>
      <trkpt lat="47.29299" lon="-2.25861">
        <ele>22.2</ele>
        <time>2019-09-08T09:12:56Z</time>
      </trkpt>
      <trkpt lat="47.29323" lon="-2.25898">
        <ele>85</ele>
        <time>2019-09-08T09:12:56Z</time>
      </trkpt>
      <trkpt lat="47.29349" lon="-2.25914">
        <ele>71</ele>
        <time>2019-09-08T09:13:02Z</time>
      </trkpt>
      <trkpt lat="47.29353" lon="-2.25921">
        <ele>77</ele>
        <time>2019-09-08T09:13:04Z</time>
      </trkpt>
      <trkpt lat="47.29352" lon="-2.25928">
        <ele>74</ele>
        <time>2019-09-08T09:13:06Z</time>
      </trkpt>
      <trkpt lat="47.2935" lon="-2.25934">
        <ele>70</ele>
        <time>2019-09-08T09:13:08Z</time>
      </trkpt>
      <trkpt lat="47.29342" lon="-2.25931">
        <ele>74</ele>
        <time>2019-09-08T09:13:11Z</time>
      </trkpt>
      <trkpt lat="47.29337" lon="-2.25939">
        <ele>75</ele>
        <time>2019-09-08T09:13:14Z</time>
      </trkpt>
      <trkpt lat="47.29334" lon="-2.25948">
        <ele>75</ele>
        <time>2019-09-08T09:13:16Z</time>
      </trkpt>
      <trkpt lat="47.29333" lon="-2.2596">
        <ele>78</ele>
        <time>2019-09-08T09:13:19Z</time>
      </trkpt>
      <trkpt lat="47.29337" lon="-2.25966">
        <ele>80</ele>
        <time>2019-09-08T09:13:21Z</time>
      </trkpt>
      <trkpt lat="47.29342" lon="-2.25971">
        <ele>81</ele>
        <time>2019-09-08T09:13:23Z</time>
      </trkpt>
      <trkpt lat="47.29348" lon="-2.25976">
        <ele>83</ele>
        <time>2019-09-08T09:13:25Z</time>
      </trkpt>
      <trkpt lat="47.29356" lon="-2.25977">
        <ele>86</ele>
        <time>2019-09-08T09:13:28Z</time>
      </trkpt>
      <trkpt lat="47.29363" lon="-2.2597">
        <ele>87</ele>
        <time>2019-09-08T09:13:31Z</time>
      </trkpt>
      <trkpt lat="47.29366" lon="-2.25967">
        <ele>88</ele>
        <time>2019-09-08T09:13:32Z</time>
      </trkpt>
      <trkpt lat="47.29368" lon="-2.25964">
        <ele>88</ele>
        <time>2019-09-08T09:13:33Z</time>
      </trkpt>
      <trkpt lat="47.29374" lon="-2.2596">
        <ele>88</ele>
        <time>2019-09-08T09:13:35Z</time>
      </trkpt>
      <trkpt lat="47.29383" lon="-2.25969">
        <ele>87</ele>
        <time>2019-09-08T09:13:39Z</time>
      </trkpt>
      <trkpt lat="47.29388" lon="-2.25985">
        <ele>86</ele>
        <time>2019-09-08T09:13:42Z</time>
      </trkpt>
      <trkpt lat="47.2939" lon="-2.25993">
        <ele>86</ele>
        <time>2019-09-08T09:13:44Z</time>
      </trkpt>
      <trkpt lat="47.2939" lon="-2.25999">
        <ele>86</ele>
        <time>2019-09-08T09:13:45Z</time>
      </trkpt>
      <trkpt lat="47.29391" lon="-2.26011">
        <ele>86</ele>
        <time>2019-09-08T09:13:47Z</time>
      </trkpt>
      <trkpt lat="47.29391" lon="-2.26023">
        <ele>86</ele>
        <time>2019-09-08T09:13:49Z</time>
      </trkpt>
      <trkpt lat="47.29393" lon="-2.26037">
        <ele>86</ele>
        <time>2019-09-08T09:13:51Z</time>
      </trkpt>
      <trkpt lat="47.29397" lon="-2.26049">
        <ele>85</ele>
        <time>2019-09-08T09:13:53Z</time>
      </trkpt>
      <trkpt lat="47.29403" lon="-2.26065">
        <ele>87</ele>
        <time>2019-09-08T09:13:56Z</time>
      </trkpt>
      <trkpt lat="47.29407" lon="-2.26077">
        <ele>86</ele>
        <time>2019-09-08T09:13:58Z</time>
      </trkpt>
      <trkpt lat="47.2941" lon="-2.26085">
        <ele>85</ele>
        <time>2019-09-08T09:13:59Z</time>
      </trkpt>
      <trkpt lat="47.29409" lon="-2.26093">
        <ele>84</ele>
        <time>2019-09-08T09:14:00Z</time>
      </trkpt>
      <trkpt lat="47.29409" lon="-2.26099">
        <ele>85</ele>
        <time>2019-09-08T09:14:01Z</time>
      </trkpt>
      <trkpt lat="47.29409" lon="-2.26106">
        <ele>85</ele>
        <time>2019-09-08T09:14:02Z</time>
      </trkpt>
      <trkpt lat="47.29409" lon="-2.26112">
        <ele>86</ele>
        <time>2019-09-08T09:14:03Z</time>
      </trkpt>
      <trkpt lat="47.29408" lon="-2.26124">
        <ele>87</ele>
        <time>2019-09-08T09:14:05Z</time>
      </trkpt>
      <trkpt lat="47.29405" lon="-2.26133">
        <ele>87</ele>
        <time>2019-09-08T09:14:07Z</time>
      </trkpt>
      <trkpt lat="47.29396" lon="-2.26145">
        <ele>87</ele>
        <time>2019-09-08T09:14:10Z</time>
      </trkpt>
      <trkpt lat="47.2939" lon="-2.2615">
        <ele>85</ele>
        <time>2019-09-08T09:14:12Z</time>
      </trkpt>
      <trkpt lat="47.29382" lon="-2.26152">
        <ele>83</ele>
        <time>2019-09-08T09:14:14Z</time>
      </trkpt>
      <trkpt lat="47.29378" lon="-2.26153">
        <ele>82</ele>
        <time>2019-09-08T09:14:15Z</time>
      </trkpt>
      <trkpt lat="47.29373" lon="-2.26156">
        <ele>83</ele>
        <time>2019-09-08T09:14:17Z</time>
      </trkpt>
      <trkpt lat="47.29367" lon="-2.26158">
        <ele>83</ele>
        <time>2019-09-08T09:14:19Z</time>
      </trkpt>
      <trkpt lat="47.29363" lon="-2.26161">
        <ele>83</ele>
        <time>2019-09-08T09:14:21Z</time>
      </trkpt>
      <trkpt lat="47.29356" lon="-2.26162">
        <ele>84</ele>
        <time>2019-09-08T09:14:24Z</time>
      </trkpt>
      <trkpt lat="47.29349" lon="-2.26161">
        <ele>84</ele>
        <time>2019-09-08T09:14:26Z</time>
      </trkpt>
      <trkpt lat="47.29347" lon="-2.26161">
        <ele>84</ele>
        <time>2019-09-08T09:14:27Z</time>
      </trkpt>
      <trkpt lat="47.29342" lon="-2.26163">
        <ele>85</ele>
        <time>2019-09-08T09:14:29Z</time>
      </trkpt>
      <trkpt lat="47.29336" lon="-2.26165">
        <ele>85</ele>
        <time>2019-09-08T09:14:32Z</time>
      </trkpt>
      <trkpt lat="47.29331" lon="-2.26167">
        <ele>85</ele>
        <time>2019-09-08T09:14:35Z</time>
      </trkpt>
      <trkpt lat="47.29326" lon="-2.26169">
        <ele>85</ele>
        <time>2019-09-08T09:14:38Z</time>
      </trkpt>
      <trkpt lat="47.2932" lon="-2.26172">
        <ele>84</ele>
        <time>2019-09-08T09:14:41Z</time>
      </trkpt>
      <trkpt lat="47.29317" lon="-2.26178">
        <ele>85</ele>
        <time>2019-09-08T09:14:45Z</time>
      </trkpt>
      <trkpt lat="47.29309" lon="-2.26179">
        <ele>84</ele>
        <time>2019-09-08T09:14:47Z</time>
      </trkpt>
      <trkpt lat="47.29304" lon="-2.26182">
        <ele>84</ele>
        <time>2019-09-08T09:14:48Z</time>
      </trkpt>
      <trkpt lat="47.29298" lon="-2.26183">
        <ele>83</ele>
        <time>2019-09-08T09:14:50Z</time>
      </trkpt>
      <trkpt lat="47.29292" lon="-2.26183">
        <ele>82</ele>
        <time>2019-09-08T09:14:51Z</time>
      </trkpt>
      <trkpt lat="47.29282" lon="-2.26182">
        <ele>82</ele>
        <time>2019-09-08T09:14:52Z</time>
      </trkpt>
      <trkpt lat="47.29275" lon="-2.26182">
        <ele>81</ele>
        <time>2019-09-08T09:14:54Z</time>
      </trkpt>
      <trkpt lat="47.29266" lon="-2.26184">
        <ele>81</ele>
        <time>2019-09-08T09:14:57Z</time>
      </trkpt>
      <trkpt lat="47.29259" lon="-2.26197">
        <ele>82</ele>
        <time>2019-09-08T09:15:00Z</time>
      </trkpt>
      <trkpt lat="47.29252" lon="-2.26206">
        <ele>83</ele>
        <time>2019-09-08T09:15:02Z</time>
      </trkpt>
      <trkpt lat="47.29246" lon="-2.26207">
        <ele>82</ele>
        <time>2019-09-08T09:15:03Z</time>
      </trkpt>
      <trkpt lat="47.2924" lon="-2.26208">
        <ele>82</ele>
        <time>2019-09-08T09:15:04Z</time>
      </trkpt>
      <trkpt lat="47.29234" lon="-2.26209">
        <ele>82</ele>
        <time>2019-09-08T09:15:05Z</time>
      </trkpt>
      <trkpt lat="47.29227" lon="-2.2621">
        <ele>82</ele>
        <time>2019-09-08T09:15:06Z</time>
      </trkpt>
      <trkpt lat="47.29221" lon="-2.26211">
        <ele>82</ele>
        <time>2019-09-08T09:15:07Z</time>
      </trkpt>
      <trkpt lat="47.29216" lon="-2.26214">
        <ele>82</ele>
        <time>2019-09-08T09:15:08Z</time>
      </trkpt>
      <trkpt lat="47.29209" lon="-2.26215">
        <ele>82</ele>
        <time>2019-09-08T09:15:09Z</time>
      </trkpt>
      <trkpt lat="47.29203" lon="-2.26216">
        <ele>82</ele>
        <time>2019-09-08T09:15:10Z</time>
      </trkpt>
      <trkpt lat="47.29198" lon="-2.26218">
        <ele>82</ele>
        <time>2019-09-08T09:15:11Z</time>
      </trkpt>
      <trkpt lat="47.29192" lon="-2.2622">
        <ele>82</ele>
        <time>2019-09-08T09:15:12Z</time>
      </trkpt>
      <trkpt lat="47.29187" lon="-2.26222">
        <ele>82</ele>
        <time>2019-09-08T09:15:13Z</time>
      </trkpt>
      <trkpt lat="47.29182" lon="-2.26223">
        <ele>82</ele>
        <time>2019-09-08T09:15:14Z</time>
      </trkpt>
      <trkpt lat="47.29177" lon="-2.26225">
        <ele>82</ele>
        <time>2019-09-08T09:15:15Z</time>
      </trkpt>
      <trkpt lat="47.29168" lon="-2.26228">
        <ele>82</ele>
        <time>2019-09-08T09:15:17Z</time>
      </trkpt>
      <trkpt lat="47.29164" lon="-2.26229">
        <ele>82</ele>
        <time>2019-09-08T09:15:18Z</time>
      </trkpt>
      <trkpt lat="47.29159" lon="-2.26231">
        <ele>81</ele>
        <time>2019-09-08T09:15:19Z</time>
      </trkpt>
      <trkpt lat="47.29155" lon="-2.26234">
        <ele>81</ele>
        <time>2019-09-08T09:15:20Z</time>
      </trkpt>
      <trkpt lat="47.29148" lon="-2.26237">
        <ele>80</ele>
        <time>2019-09-08T09:15:22Z</time>
      </trkpt>
      <trkpt lat="47.29143" lon="-2.26238">
        <ele>79</ele>
        <time>2019-09-08T09:15:24Z</time>
      </trkpt>
      <trkpt lat="47.29136" lon="-2.26245">
        <ele>80</ele>
        <time>2019-09-08T09:15:28Z</time>
      </trkpt>
      <trkpt lat="47.29136" lon="-2.26256">
        <ele>80</ele>
        <time>2019-09-08T09:15:31Z</time>
      </trkpt>
      <trkpt lat="47.29136" lon="-2.2626">
        <ele>79</ele>
        <time>2019-09-08T09:15:32Z</time>
      </trkpt>
      <trkpt lat="47.29138" lon="-2.26277">
        <ele>79</ele>
        <time>2019-09-08T09:15:35Z</time>
      </trkpt>
      <trkpt lat="47.2914" lon="-2.26284">
        <ele>79</ele>
        <time>2019-09-08T09:15:36Z</time>
      </trkpt>
      <trkpt lat="47.29142" lon="-2.26291">
        <ele>79</ele>
        <time>2019-09-08T09:15:37Z</time>
      </trkpt>
      <trkpt lat="47.29143" lon="-2.26299">
        <ele>79</ele>
        <time>2019-09-08T09:15:38Z</time>
      </trkpt>
      <trkpt lat="47.29144" lon="-2.26307">
        <ele>79</ele>
        <time>2019-09-08T09:15:39Z</time>
      </trkpt>
      <trkpt lat="47.29145" lon="-2.26316">
        <ele>79</ele>
        <time>2019-09-08T09:15:40Z</time>
      </trkpt>
      <trkpt lat="47.29146" lon="-2.26325">
        <ele>79</ele>
        <time>2019-09-08T09:15:41Z</time>
      </trkpt>
      <trkpt lat="47.29148" lon="-2.26334">
        <ele>79</ele>
        <time>2019-09-08T09:15:42Z</time>
      </trkpt>
      <trkpt lat="47.2915" lon="-2.26343">
        <ele>78</ele>
        <time>2019-09-08T09:15:44Z</time>
      </trkpt>
      <trkpt lat="47.29156" lon="-2.26382">
        <ele>77</ele>
        <time>2019-09-08T09:15:47Z</time>
      </trkpt>
      <trkpt lat="47.29158" lon="-2.26392">
        <ele>76</ele>
        <time>2019-09-08T09:15:48Z</time>
      </trkpt>
      <trkpt lat="47.29159" lon="-2.26403">
        <ele>76</ele>
        <time>2019-09-08T09:15:49Z</time>
      </trkpt>
      <trkpt lat="47.2916" lon="-2.26414">
        <ele>75</ele>
        <time>2019-09-08T09:15:50Z</time>
      </trkpt>
      <trkpt lat="47.29161" lon="-2.26425">
        <ele>75</ele>
        <time>2019-09-08T09:15:52Z</time>
      </trkpt>
      <trkpt lat="47.29162" lon="-2.26437">
        <ele>75</ele>
        <time>2019-09-08T09:15:53Z</time>
      </trkpt>
      <trkpt lat="47.29162" lon="-2.26448">
        <ele>75</ele>
        <time>2019-09-08T09:15:54Z</time>
      </trkpt>
      <trkpt lat="47.29162" lon="-2.2646">
        <ele>74</ele>
        <time>2019-09-08T09:15:55Z</time>
      </trkpt>
      <trkpt lat="47.29162" lon="-2.26472">
        <ele>73</ele>
        <time>2019-09-08T09:15:56Z</time>
      </trkpt>
      <trkpt lat="47.29161" lon="-2.26484">
        <ele>73</ele>
        <time>2019-09-08T09:15:57Z</time>
      </trkpt>
      <trkpt lat="47.2916" lon="-2.26496">
        <ele>73</ele>
        <time>2019-09-08T09:15:58Z</time>
      </trkpt>
      <trkpt lat="47.29159" lon="-2.26508">
        <ele>73</ele>
        <time>2019-09-08T09:15:59Z</time>
      </trkpt>
      <trkpt lat="47.29157" lon="-2.26531">
        <ele>72</ele>
        <time>2019-09-08T09:16:01Z</time>
      </trkpt>
      <trkpt lat="47.29158" lon="-2.26543">
        <ele>71</ele>
        <time>2019-09-08T09:16:02Z</time>
      </trkpt>
      <trkpt lat="47.29158" lon="-2.26555">
        <ele>70</ele>
        <time>2019-09-08T09:16:03Z</time>
      </trkpt>
      <trkpt lat="47.2916" lon="-2.26566">
        <ele>69</ele>
        <time>2019-09-08T09:16:04Z</time>
      </trkpt>
      <trkpt lat="47.29169" lon="-2.26598">
        <ele>69</ele>
        <time>2019-09-08T09:16:06Z</time>
      </trkpt>
      <trkpt lat="47.29173" lon="-2.26608">
        <ele>68</ele>
        <time>2019-09-08T09:16:07Z</time>
      </trkpt>
      <trkpt lat="47.29177" lon="-2.2662">
        <ele>69</ele>
        <time>2019-09-08T09:16:08Z</time>
      </trkpt>
      <trkpt lat="47.29181" lon="-2.26632">
        <ele>69</ele>
        <time>2019-09-08T09:16:09Z</time>
      </trkpt>
      <trkpt lat="47.29184" lon="-2.26644">
        <ele>69</ele>
        <time>2019-09-08T09:16:10Z</time>
      </trkpt>
      <trkpt lat="47.29188" lon="-2.26655">
        <ele>69</ele>
        <time>2019-09-08T09:16:12Z</time>
      </trkpt>
      <trkpt lat="47.29194" lon="-2.26677">
        <ele>68</ele>
        <time>2019-09-08T09:16:14Z</time>
      </trkpt>
      <trkpt lat="47.29196" lon="-2.26687">
        <ele>69</ele>
        <time>2019-09-08T09:16:15Z</time>
      </trkpt>
      <trkpt lat="47.29199" lon="-2.26698">
        <ele>68</ele>
        <time>2019-09-08T09:16:16Z</time>
      </trkpt>
      <trkpt lat="47.29206" lon="-2.26729">
        <ele>68</ele>
        <time>2019-09-08T09:16:18Z</time>
      </trkpt>
      <trkpt lat="47.29208" lon="-2.26739">
        <ele>68</ele>
        <time>2019-09-08T09:16:19Z</time>
      </trkpt>
      <trkpt lat="47.2921" lon="-2.26749">
        <ele>68</ele>
        <time>2019-09-08T09:16:20Z</time>
      </trkpt>
      <trkpt lat="47.29212" lon="-2.26759">
        <ele>68</ele>
        <time>2019-09-08T09:16:21Z</time>
      </trkpt>
      <trkpt lat="47.29214" lon="-2.26769">
        <ele>68</ele>
        <time>2019-09-08T09:16:22Z</time>
      </trkpt>
      <trkpt lat="47.29216" lon="-2.26778">
        <ele>67</ele>
        <time>2019-09-08T09:16:23Z</time>
      </trkpt>
      <trkpt lat="47.29218" lon="-2.26788">
        <ele>67</ele>
        <time>2019-09-08T09:16:24Z</time>
      </trkpt>
      <trkpt lat="47.29223" lon="-2.26815">
        <ele>68</ele>
        <time>2019-09-08T09:16:27Z</time>
      </trkpt>
      <trkpt lat="47.29227" lon="-2.26842">
        <ele>68</ele>
        <time>2019-09-08T09:16:30Z</time>
      </trkpt>
      <trkpt lat="47.29228" lon="-2.26852">
        <ele>68</ele>
        <time>2019-09-08T09:16:31Z</time>
      </trkpt>
      <trkpt lat="47.2923" lon="-2.26861">
        <ele>68</ele>
        <time>2019-09-08T09:16:32Z</time>
      </trkpt>
      <trkpt lat="47.29231" lon="-2.2687">
        <ele>68</ele>
        <time>2019-09-08T09:16:33Z</time>
      </trkpt>
      <trkpt lat="47.29235" lon="-2.26887">
        <ele>68</ele>
        <time>2019-09-08T09:16:35Z</time>
      </trkpt>
      <trkpt lat="47.29236" lon="-2.26895">
        <ele>68</ele>
        <time>2019-09-08T09:16:36Z</time>
      </trkpt>
      <trkpt lat="47.29237" lon="-2.26903">
        <ele>68</ele>
        <time>2019-09-08T09:16:37Z</time>
      </trkpt>
      <trkpt lat="47.29236" lon="-2.26917">
        <ele>69</ele>
        <time>2019-09-08T09:16:39Z</time>
      </trkpt>
      <trkpt lat="47.29235" lon="-2.26927">
        <ele>68</ele>
        <time>2019-09-08T09:16:41Z</time>
      </trkpt>
      <trkpt lat="47.29232" lon="-2.26935">
        <ele>69</ele>
        <time>2019-09-08T09:16:43Z</time>
      </trkpt>
      <trkpt lat="47.29228" lon="-2.2694">
        <ele>69</ele>
        <time>2019-09-08T09:16:45Z</time>
      </trkpt>
      <trkpt lat="47.29224" lon="-2.26945">
        <ele>69</ele>
        <time>2019-09-08T09:16:47Z</time>
      </trkpt>
      <trkpt lat="47.29224" lon="-2.2696">
        <ele>70</ele>
        <time>2019-09-08T09:16:50Z</time>
      </trkpt>
      <trkpt lat="47.29222" lon="-2.26968">
        <ele>70</ele>
        <time>2019-09-08T09:16:51Z</time>
      </trkpt>
      <trkpt lat="47.29222" lon="-2.26975">
        <ele>70</ele>
        <time>2019-09-08T09:16:52Z</time>
      </trkpt>
      <trkpt lat="47.29221" lon="-2.26983">
        <ele>70</ele>
        <time>2019-09-08T09:16:53Z</time>
      </trkpt>
      <trkpt lat="47.29221" lon="-2.27004">
        <ele>71</ele>
        <time>2019-09-08T09:16:56Z</time>
      </trkpt>
      <trkpt lat="47.29222" lon="-2.27018">
        <ele>71</ele>
        <time>2019-09-08T09:16:58Z</time>
      </trkpt>
      <trkpt lat="47.29223" lon="-2.27031">
        <ele>71</ele>
        <time>2019-09-08T09:17:00Z</time>
      </trkpt>
      <trkpt lat="47.29225" lon="-2.27038">
        <ele>71</ele>
        <time>2019-09-08T09:17:01Z</time>
      </trkpt>
      <trkpt lat="47.29225" lon="-2.27045">
        <ele>70</ele>
        <time>2019-09-08T09:17:02Z</time>
      </trkpt>
      <trkpt lat="47.29226" lon="-2.27063">
        <ele>72</ele>
        <time>2019-09-08T09:17:05Z</time>
      </trkpt>
      <trkpt lat="47.29226" lon="-2.27076">
        <ele>72</ele>
        <time>2019-09-08T09:17:07Z</time>
      </trkpt>
      <trkpt lat="47.29227" lon="-2.27083">
        <ele>73</ele>
        <time>2019-09-08T09:17:08Z</time>
      </trkpt>
      <trkpt lat="47.29229" lon="-2.2709">
        <ele>73</ele>
        <time>2019-09-08T09:17:09Z</time>
      </trkpt>
      <trkpt lat="47.29229" lon="-2.27098">
        <ele>73</ele>
        <time>2019-09-08T09:17:10Z</time>
      </trkpt>
      <trkpt lat="47.29227" lon="-2.27111">
        <ele>73</ele>
        <time>2019-09-08T09:17:12Z</time>
      </trkpt>
      <trkpt lat="47.29216" lon="-2.27143">
        <ele>74</ele>
        <time>2019-09-08T09:17:18Z</time>
      </trkpt>
      <trkpt lat="47.29214" lon="-2.27149">
        <ele>74</ele>
        <time>2019-09-08T09:17:19Z</time>
      </trkpt>
      <trkpt lat="47.29209" lon="-2.27161">
        <ele>74</ele>
        <time>2019-09-08T09:17:21Z</time>
      </trkpt>
      <trkpt lat="47.29198" lon="-2.27172">
        <ele>75</ele>
        <time>2019-09-08T09:17:23Z</time>
      </trkpt>
      <trkpt lat="47.29194" lon="-2.27175">
        <ele>75</ele>
        <time>2019-09-08T09:17:24Z</time>
      </trkpt>
      <trkpt lat="47.29189" lon="-2.2718">
        <ele>73</ele>
        <time>2019-09-08T09:17:25Z</time>
      </trkpt>
      <trkpt lat="47.29182" lon="-2.27186">
        <ele>73</ele>
        <time>2019-09-08T09:17:27Z</time>
      </trkpt>
      <trkpt lat="47.29176" lon="-2.27188">
        <ele>73</ele>
        <time>2019-09-08T09:17:29Z</time>
      </trkpt>
      <trkpt lat="47.29171" lon="-2.27188">
        <ele>73</ele>
        <time>2019-09-08T09:17:31Z</time>
      </trkpt>
      <trkpt lat="47.29169" lon="-2.27189">
        <ele>73</ele>
        <time>2019-09-08T09:17:32Z</time>
      </trkpt>
      <trkpt lat="47.29164" lon="-2.27191">
        <ele>72</ele>
        <time>2019-09-08T09:17:34Z</time>
      </trkpt>
      <trkpt lat="47.2916" lon="-2.27193">
        <ele>71</ele>
        <time>2019-09-08T09:17:37Z</time>
      </trkpt>
      <trkpt lat="47.2915" lon="-2.27192">
        <ele>71</ele>
        <time>2019-09-08T09:17:41Z</time>
      </trkpt>
      <trkpt lat="47.29144" lon="-2.27193">
        <ele>71</ele>
        <time>2019-09-08T09:17:44Z</time>
      </trkpt>
      <trkpt lat="47.29137" lon="-2.27198">
        <ele>71</ele>
        <time>2019-09-08T09:17:46Z</time>
      </trkpt>
      <trkpt lat="47.29134" lon="-2.27206">
        <ele>71</ele>
        <time>2019-09-08T09:17:48Z</time>
      </trkpt>
      <trkpt lat="47.29131" lon="-2.27214">
        <ele>71</ele>
        <time>2019-09-08T09:17:50Z</time>
      </trkpt>
      <trkpt lat="47.29126" lon="-2.27222">
        <ele>71</ele>
        <time>2019-09-08T09:17:52Z</time>
      </trkpt>
      <trkpt lat="47.29124" lon="-2.27226">
        <ele>71</ele>
        <time>2019-09-08T09:17:53Z</time>
      </trkpt>
      <trkpt lat="47.2912" lon="-2.27243">
        <ele>71</ele>
        <time>2019-09-08T09:17:56Z</time>
      </trkpt>
      <trkpt lat="47.29119" lon="-2.27252">
        <ele>70</ele>
        <time>2019-09-08T09:17:58Z</time>
      </trkpt>
      <trkpt lat="47.29117" lon="-2.27262">
        <ele>72</ele>
        <time>2019-09-08T09:18:00Z</time>
      </trkpt>
      <trkpt lat="47.29116" lon="-2.27268">
        <ele>71</ele>
        <time>2019-09-08T09:18:01Z</time>
      </trkpt>
      <trkpt lat="47.29114" lon="-2.27273">
        <ele>72</ele>
        <time>2019-09-08T09:18:02Z</time>
      </trkpt>
      <trkpt lat="47.29113" lon="-2.27283">
        <ele>72</ele>
        <time>2019-09-08T09:18:04Z</time>
      </trkpt>
      <trkpt lat="47.29109" lon="-2.27302">
        <ele>72</ele>
        <time>2019-09-08T09:18:07Z</time>
      </trkpt>
      <trkpt lat="47.29107" lon="-2.27308">
        <ele>71</ele>
        <time>2019-09-08T09:18:08Z</time>
      </trkpt>
      <trkpt lat="47.29106" lon="-2.27315">
        <ele>71</ele>
        <time>2019-09-08T09:18:10Z</time>
      </trkpt>
      <trkpt lat="47.29104" lon="-2.27322">
        <ele>71</ele>
        <time>2019-09-08T09:18:11Z</time>
      </trkpt>
      <trkpt lat="47.29097" lon="-2.27347">
        <ele>73</ele>
        <time>2019-09-08T09:18:14Z</time>
      </trkpt>
      <trkpt lat="47.29099" lon="-2.27368">
        <ele>72</ele>
        <time>2019-09-08T09:18:17Z</time>
      </trkpt>
      <trkpt lat="47.291" lon="-2.27375">
        <ele>72</ele>
        <time>2019-09-08T09:18:18Z</time>
      </trkpt>
      <trkpt lat="47.29102" lon="-2.27382">
        <ele>72</ele>
        <time>2019-09-08T09:18:19Z</time>
      </trkpt>
      <trkpt lat="47.29103" lon="-2.2739">
        <ele>72</ele>
        <time>2019-09-08T09:18:20Z</time>
      </trkpt>
      <trkpt lat="47.29104" lon="-2.27398">
        <ele>72</ele>
        <time>2019-09-08T09:18:21Z</time>
      </trkpt>
      <trkpt lat="47.29103" lon="-2.27424">
        <ele>72</ele>
        <time>2019-09-08T09:18:24Z</time>
      </trkpt>
      <trkpt lat="47.29103" lon="-2.27433">
        <ele>71</ele>
        <time>2019-09-08T09:18:25Z</time>
      </trkpt>
      <trkpt lat="47.29103" lon="-2.27442">
        <ele>71</ele>
        <time>2019-09-08T09:18:26Z</time>
      </trkpt>
      <trkpt lat="47.29102" lon="-2.27449">
        <ele>71</ele>
        <time>2019-09-08T09:18:27Z</time>
      </trkpt>
      <trkpt lat="47.29101" lon="-2.27456">
        <ele>71</ele>
        <time>2019-09-08T09:18:28Z</time>
      </trkpt>
      <trkpt lat="47.29101" lon="-2.2747">
        <ele>70</ele>
        <time>2019-09-08T09:18:30Z</time>
      </trkpt>
      <trkpt lat="47.291" lon="-2.27485">
        <ele>70</ele>
        <time>2019-09-08T09:18:32Z</time>
      </trkpt>
      <trkpt lat="47.291" lon="-2.27493">
        <ele>71</ele>
        <time>2019-09-08T09:18:33Z</time>
      </trkpt>
      <trkpt lat="47.291" lon="-2.275">
        <ele>71</ele>
        <time>2019-09-08T09:18:34Z</time>
      </trkpt>
      <trkpt lat="47.29099" lon="-2.27511">
        <ele>71</ele>
        <time>2019-09-08T09:18:36Z</time>
      </trkpt>
      <trkpt lat="47.29099" lon="-2.27514">
        <ele>71</ele>
        <time>2019-09-08T09:18:37Z</time>
      </trkpt>
      <trkpt lat="47.29096" lon="-2.27523">
        <ele>71</ele>
        <time>2019-09-08T09:18:40Z</time>
      </trkpt>
      <trkpt lat="47.2909" lon="-2.27525">
        <ele>71</ele>
        <time>2019-09-08T09:18:42Z</time>
      </trkpt>
      <trkpt lat="47.29078" lon="-2.27528">
        <ele>71</ele>
        <time>2019-09-08T09:18:45Z</time>
      </trkpt>
      <trkpt lat="47.2907" lon="-2.27528">
        <ele>71</ele>
        <time>2019-09-08T09:18:47Z</time>
      </trkpt>
      <trkpt lat="47.29065" lon="-2.27528">
        <ele>71</ele>
        <time>2019-09-08T09:18:48Z</time>
      </trkpt>
      <trkpt lat="47.29052" lon="-2.27528">
        <ele>71</ele>
        <time>2019-09-08T09:18:51Z</time>
      </trkpt>
      <trkpt lat="47.29048" lon="-2.27528">
        <ele>71</ele>
        <time>2019-09-08T09:18:52Z</time>
      </trkpt>
      <trkpt lat="47.29034" lon="-2.27527">
        <ele>71</ele>
        <time>2019-09-08T09:18:55Z</time>
      </trkpt>
      <trkpt lat="47.2903" lon="-2.27526">
        <ele>71</ele>
        <time>2019-09-08T09:18:56Z</time>
      </trkpt>
      <trkpt lat="47.29025" lon="-2.27526">
        <ele>71</ele>
        <time>2019-09-08T09:18:57Z</time>
      </trkpt>
      <trkpt lat="47.29012" lon="-2.27525">
        <ele>70</ele>
        <time>2019-09-08T09:19:00Z</time>
      </trkpt>
      <trkpt lat="47.29004" lon="-2.27525">
        <ele>70</ele>
        <time>2019-09-08T09:19:02Z</time>
      </trkpt>
      <trkpt lat="47.28999" lon="-2.27526">
        <ele>69</ele>
        <time>2019-09-08T09:19:03Z</time>
      </trkpt>
      <trkpt lat="47.28985" lon="-2.27526">
        <ele>69</ele>
        <time>2019-09-08T09:19:06Z</time>
      </trkpt>
      <trkpt lat="47.28979" lon="-2.27526">
        <ele>69</ele>
        <time>2019-09-08T09:19:07Z</time>
      </trkpt>
      <trkpt lat="47.28974" lon="-2.27527">
        <ele>69</ele>
        <time>2019-09-08T09:19:08Z</time>
      </trkpt>
      <trkpt lat="47.28969" lon="-2.27526">
        <ele>69</ele>
        <time>2019-09-08T09:19:09Z</time>
      </trkpt>
      <trkpt lat="47.28963" lon="-2.27526">
        <ele>69</ele>
        <time>2019-09-08T09:19:10Z</time>
      </trkpt>
      <trkpt lat="47.28958" lon="-2.27526">
        <ele>69</ele>
        <time>2019-09-08T09:19:11Z</time>
      </trkpt>
      <trkpt lat="47.28953" lon="-2.27525">
        <ele>69</ele>
        <time>2019-09-08T09:19:12Z</time>
      </trkpt>
      <trkpt lat="47.28947" lon="-2.27525">
        <ele>69</ele>
        <time>2019-09-08T09:19:13Z</time>
      </trkpt>
      <trkpt lat="47.28942" lon="-2.27526">
        <ele>69</ele>
        <time>2019-09-08T09:19:14Z</time>
      </trkpt>
      <trkpt lat="47.28936" lon="-2.27526">
        <ele>69</ele>
        <time>2019-09-08T09:19:15Z</time>
      </trkpt>
      <trkpt lat="47.28931" lon="-2.27527">
        <ele>68</ele>
        <time>2019-09-08T09:19:16Z</time>
      </trkpt>
      <trkpt lat="47.28917" lon="-2.27528">
        <ele>68</ele>
        <time>2019-09-08T09:19:19Z</time>
      </trkpt>
      <trkpt lat="47.28908" lon="-2.27529">
        <ele>68</ele>
        <time>2019-09-08T09:19:21Z</time>
      </trkpt>
      <trkpt lat="47.28904" lon="-2.2753">
        <ele>68</ele>
        <time>2019-09-08T09:19:22Z</time>
      </trkpt>
      <trkpt lat="47.28896" lon="-2.27531">
        <ele>67</ele>
        <time>2019-09-08T09:19:24Z</time>
      </trkpt>
      <trkpt lat="47.28892" lon="-2.27532">
        <ele>67</ele>
        <time>2019-09-08T09:19:26Z</time>
      </trkpt>
      <trkpt lat="47.28887" lon="-2.27532">
        <ele>67</ele>
        <time>2019-09-08T09:19:27Z</time>
      </trkpt>
      <trkpt lat="47.28883" lon="-2.27532">
        <ele>67</ele>
        <time>2019-09-08T09:19:28Z</time>
      </trkpt>
      <trkpt lat="47.28874" lon="-2.27532">
        <ele>67</ele>
        <time>2019-09-08T09:19:30Z</time>
      </trkpt>
      <trkpt lat="47.28868" lon="-2.27534">
        <ele>67</ele>
        <time>2019-09-08T09:19:31Z</time>
      </trkpt>
      <trkpt lat="47.28858" lon="-2.27536">
        <ele>67</ele>
        <time>2019-09-08T09:19:32Z</time>
      </trkpt>
      <trkpt lat="47.28839" lon="-2.27538">
        <ele>67</ele>
        <time>2019-09-08T09:19:36Z</time>
      </trkpt>
      <trkpt lat="47.28834" lon="-2.27538">
        <ele>67</ele>
        <time>2019-09-08T09:19:37Z</time>
      </trkpt>
      <trkpt lat="47.2883" lon="-2.27538">
        <ele>67</ele>
        <time>2019-09-08T09:19:38Z</time>
      </trkpt>
      <trkpt lat="47.28825" lon="-2.27539">
        <ele>67</ele>
        <time>2019-09-08T09:19:39Z</time>
      </trkpt>
      <trkpt lat="47.2882" lon="-2.2754">
        <ele>67</ele>
        <time>2019-09-08T09:19:40Z</time>
      </trkpt>
      <trkpt lat="47.28815" lon="-2.27544">
        <ele>67</ele>
        <time>2019-09-08T09:19:41Z</time>
      </trkpt>
      <trkpt lat="47.2881" lon="-2.27548">
        <ele>67</ele>
        <time>2019-09-08T09:19:42Z</time>
      </trkpt>
      <trkpt lat="47.28806" lon="-2.27552">
        <ele>67</ele>
        <time>2019-09-08T09:19:43Z</time>
      </trkpt>
      <trkpt lat="47.28801" lon="-2.27556">
        <ele>67</ele>
        <time>2019-09-08T09:19:44Z</time>
      </trkpt>
      <trkpt lat="47.28797" lon="-2.2756">
        <ele>67</ele>
        <time>2019-09-08T09:19:45Z</time>
      </trkpt>
      <trkpt lat="47.28794" lon="-2.27564">
        <ele>66</ele>
        <time>2019-09-08T09:19:46Z</time>
      </trkpt>
      <trkpt lat="47.2879" lon="-2.27569">
        <ele>66</ele>
        <time>2019-09-08T09:19:47Z</time>
      </trkpt>
      <trkpt lat="47.28776" lon="-2.27581">
        <ele>65</ele>
        <time>2019-09-08T09:19:50Z</time>
      </trkpt>
      <trkpt lat="47.28773" lon="-2.27585">
        <ele>66</ele>
        <time>2019-09-08T09:19:51Z</time>
      </trkpt>
      <trkpt lat="47.28762" lon="-2.27597">
        <ele>66</ele>
        <time>2019-09-08T09:19:54Z</time>
      </trkpt>
      <trkpt lat="47.28758" lon="-2.27601">
        <ele>66</ele>
        <time>2019-09-08T09:19:55Z</time>
      </trkpt>
      <trkpt lat="47.28754" lon="-2.27607">
        <ele>66</ele>
        <time>2019-09-08T09:19:56Z</time>
      </trkpt>
      <trkpt lat="47.2875" lon="-2.27612">
        <ele>66</ele>
        <time>2019-09-08T09:19:57Z</time>
      </trkpt>
      <trkpt lat="47.28747" lon="-2.27617">
        <ele>66</ele>
        <time>2019-09-08T09:19:58Z</time>
      </trkpt>
      <trkpt lat="47.2874" lon="-2.27628">
        <ele>67</ele>
        <time>2019-09-08T09:20:00Z</time>
      </trkpt>
      <trkpt lat="47.28733" lon="-2.27639">
        <ele>68</ele>
        <time>2019-09-08T09:20:02Z</time>
      </trkpt>
      <trkpt lat="47.2873" lon="-2.27644">
        <ele>68</ele>
        <time>2019-09-08T09:20:03Z</time>
      </trkpt>
      <trkpt lat="47.28727" lon="-2.27649">
        <ele>68</ele>
        <time>2019-09-08T09:20:04Z</time>
      </trkpt>
      <trkpt lat="47.2872" lon="-2.2766">
        <ele>68</ele>
        <time>2019-09-08T09:20:06Z</time>
      </trkpt>
      <trkpt lat="47.28717" lon="-2.27666">
        <ele>68</ele>
        <time>2019-09-08T09:20:07Z</time>
      </trkpt>
      <trkpt lat="47.28714" lon="-2.27672">
        <ele>68</ele>
        <time>2019-09-08T09:20:08Z</time>
      </trkpt>
      <trkpt lat="47.2871" lon="-2.27678">
        <ele>68</ele>
        <time>2019-09-08T09:20:09Z</time>
      </trkpt>
      <trkpt lat="47.28707" lon="-2.27683">
        <ele>68</ele>
        <time>2019-09-08T09:20:10Z</time>
      </trkpt>
      <trkpt lat="47.28704" lon="-2.27688">
        <ele>69</ele>
        <time>2019-09-08T09:20:11Z</time>
      </trkpt>
      <trkpt lat="47.28701" lon="-2.27693">
        <ele>69</ele>
        <time>2019-09-08T09:20:12Z</time>
      </trkpt>
      <trkpt lat="47.28697" lon="-2.27698">
        <ele>69</ele>
        <time>2019-09-08T09:20:13Z</time>
      </trkpt>
      <trkpt lat="47.28693" lon="-2.27703">
        <ele>69</ele>
        <time>2019-09-08T09:20:14Z</time>
      </trkpt>
      <trkpt lat="47.28689" lon="-2.27708">
        <ele>68</ele>
        <time>2019-09-08T09:20:15Z</time>
      </trkpt>
      <trkpt lat="47.28679" lon="-2.27724">
        <ele>68</ele>
        <time>2019-09-08T09:20:18Z</time>
      </trkpt>
      <trkpt lat="47.28676" lon="-2.27729">
        <ele>68</ele>
        <time>2019-09-08T09:20:19Z</time>
      </trkpt>
      <trkpt lat="47.28673" lon="-2.27735">
        <ele>68</ele>
        <time>2019-09-08T09:20:20Z</time>
      </trkpt>
      <trkpt lat="47.2867" lon="-2.27742">
        <ele>68</ele>
        <time>2019-09-08T09:20:21Z</time>
      </trkpt>
      <trkpt lat="47.28666" lon="-2.27747">
        <ele>68</ele>
        <time>2019-09-08T09:20:22Z</time>
      </trkpt>
      <trkpt lat="47.28663" lon="-2.27754">
        <ele>68</ele>
        <time>2019-09-08T09:20:23Z</time>
      </trkpt>
      <trkpt lat="47.2866" lon="-2.27759">
        <ele>68</ele>
        <time>2019-09-08T09:20:24Z</time>
      </trkpt>
      <trkpt lat="47.28657" lon="-2.27766">
        <ele>68</ele>
        <time>2019-09-08T09:20:25Z</time>
      </trkpt>
      <trkpt lat="47.28653" lon="-2.27778">
        <ele>67</ele>
        <time>2019-09-08T09:20:27Z</time>
      </trkpt>
      <trkpt lat="47.28651" lon="-2.27785">
        <ele>67</ele>
        <time>2019-09-08T09:20:28Z</time>
      </trkpt>
      <trkpt lat="47.28648" lon="-2.27791">
        <ele>67</ele>
        <time>2019-09-08T09:20:29Z</time>
      </trkpt>
      <trkpt lat="47.28647" lon="-2.27797">
        <ele>67</ele>
        <time>2019-09-08T09:20:30Z</time>
      </trkpt>
      <trkpt lat="47.28645" lon="-2.27804">
        <ele>67</ele>
        <time>2019-09-08T09:20:31Z</time>
      </trkpt>
      <trkpt lat="47.28644" lon="-2.27811">
        <ele>67</ele>
        <time>2019-09-08T09:20:32Z</time>
      </trkpt>
      <trkpt lat="47.2864" lon="-2.27829">
        <ele>67</ele>
        <time>2019-09-08T09:20:36Z</time>
      </trkpt>
      <trkpt lat="47.28638" lon="-2.27836">
        <ele>67</ele>
        <time>2019-09-08T09:20:37Z</time>
      </trkpt>
      <trkpt lat="47.28636" lon="-2.27842">
        <ele>68</ele>
        <time>2019-09-08T09:20:38Z</time>
      </trkpt>
      <trkpt lat="47.28635" lon="-2.27849">
        <ele>68</ele>
        <time>2019-09-08T09:20:39Z</time>
      </trkpt>
      <trkpt lat="47.28634" lon="-2.27856">
        <ele>68</ele>
        <time>2019-09-08T09:20:40Z</time>
      </trkpt>
      <trkpt lat="47.28633" lon="-2.27864">
        <ele>69</ele>
        <time>2019-09-08T09:20:41Z</time>
      </trkpt>
      <trkpt lat="47.28632" lon="-2.27872">
        <ele>69</ele>
        <time>2019-09-08T09:20:42Z</time>
      </trkpt>
      <trkpt lat="47.28632" lon="-2.27879">
        <ele>69</ele>
        <time>2019-09-08T09:20:43Z</time>
      </trkpt>
      <trkpt lat="47.28631" lon="-2.27886">
        <ele>69</ele>
        <time>2019-09-08T09:20:44Z</time>
      </trkpt>
      <trkpt lat="47.28631" lon="-2.27893">
        <ele>69</ele>
        <time>2019-09-08T09:20:45Z</time>
      </trkpt>
      <trkpt lat="47.28629" lon="-2.27905">
        <ele>69</ele>
        <time>2019-09-08T09:20:47Z</time>
      </trkpt>
      <trkpt lat="47.28628" lon="-2.27918">
        <ele>69</ele>
        <time>2019-09-08T09:20:48Z</time>
      </trkpt>
      <trkpt lat="47.28625" lon="-2.27931">
        <ele>70</ele>
        <time>2019-09-08T09:20:51Z</time>
      </trkpt>
      <trkpt lat="47.28621" lon="-2.27943">
        <ele>70</ele>
        <time>2019-09-08T09:20:54Z</time>
      </trkpt>
      <trkpt lat="47.28616" lon="-2.2795">
        <ele>70</ele>
        <time>2019-09-08T09:20:56Z</time>
      </trkpt>
      <trkpt lat="47.28612" lon="-2.2796">
        <ele>71</ele>
        <time>2019-09-08T09:20:58Z</time>
      </trkpt>
      <trkpt lat="47.2861" lon="-2.27972">
        <ele>71</ele>
        <time>2019-09-08T09:21:00Z</time>
      </trkpt>
      <trkpt lat="47.28609" lon="-2.27978">
        <ele>70</ele>
        <time>2019-09-08T09:21:01Z</time>
      </trkpt>
      <trkpt lat="47.28606" lon="-2.2799">
        <ele>71</ele>
        <time>2019-09-08T09:21:03Z</time>
      </trkpt>
      <trkpt lat="47.28604" lon="-2.27996">
        <ele>72</ele>
        <time>2019-09-08T09:21:04Z</time>
      </trkpt>
      <trkpt lat="47.28603" lon="-2.28001">
        <ele>72</ele>
        <time>2019-09-08T09:21:05Z</time>
      </trkpt>
      <trkpt lat="47.28601" lon="-2.28007">
        <ele>72</ele>
        <time>2019-09-08T09:21:06Z</time>
      </trkpt>
      <trkpt lat="47.28599" lon="-2.28013">
        <ele>72</ele>
        <time>2019-09-08T09:21:07Z</time>
      </trkpt>
      <trkpt lat="47.28595" lon="-2.28018">
        <ele>72</ele>
        <time>2019-09-08T09:21:08Z</time>
      </trkpt>
      <trkpt lat="47.28592" lon="-2.28022">
        <ele>72</ele>
        <time>2019-09-08T09:21:09Z</time>
      </trkpt>
      <trkpt lat="47.28584" lon="-2.28031">
        <ele>72</ele>
        <time>2019-09-08T09:21:12Z</time>
      </trkpt>
      <trkpt lat="47.28579" lon="-2.28036">
        <ele>73</ele>
        <time>2019-09-08T09:21:14Z</time>
      </trkpt>
      <trkpt lat="47.28575" lon="-2.2804">
        <ele>73</ele>
        <time>2019-09-08T09:21:16Z</time>
      </trkpt>
      <trkpt lat="47.28564" lon="-2.28045">
        <ele>74</ele>
        <time>2019-09-08T09:21:20Z</time>
      </trkpt>
      <trkpt lat="47.28561" lon="-2.28047">
        <ele>74</ele>
        <time>2019-09-08T09:21:22Z</time>
      </trkpt>
      <trkpt lat="47.28556" lon="-2.28048">
        <ele>74</ele>
        <time>2019-09-08T09:21:23Z</time>
      </trkpt>
      <trkpt lat="47.2855" lon="-2.28045">
        <ele>74</ele>
        <time>2019-09-08T09:21:25Z</time>
      </trkpt>
      <trkpt lat="47.28542" lon="-2.28047">
        <ele>74</ele>
        <time>2019-09-08T09:21:28Z</time>
      </trkpt>
      <trkpt lat="47.28538" lon="-2.28047">
        <ele>74</ele>
        <time>2019-09-08T09:21:30Z</time>
      </trkpt>
      <trkpt lat="47.28532" lon="-2.28046">
        <ele>75</ele>
        <time>2019-09-08T09:21:33Z</time>
      </trkpt>
      <trkpt lat="47.28523" lon="-2.28046">
        <ele>76</ele>
        <time>2019-09-08T09:21:37Z</time>
      </trkpt>
      <trkpt lat="47.28517" lon="-2.28045">
        <ele>76</ele>
        <time>2019-09-08T09:21:40Z</time>
      </trkpt>
      <trkpt lat="47.28514" lon="-2.28044">
        <ele>76</ele>
        <time>2019-09-08T09:21:41Z</time>
      </trkpt>
      <trkpt lat="47.2851" lon="-2.2804">
        <ele>76</ele>
        <time>2019-09-08T09:21:44Z</time>
      </trkpt>
      <trkpt lat="47.28503" lon="-2.28037">
        <ele>76</ele>
        <time>2019-09-08T09:21:47Z</time>
      </trkpt>
      <trkpt lat="47.28499" lon="-2.28035">
        <ele>76</ele>
        <time>2019-09-08T09:21:49Z</time>
      </trkpt>
      <trkpt lat="47.28491" lon="-2.2804">
        <ele>77</ele>
        <time>2019-09-08T09:21:53Z</time>
      </trkpt>
      <trkpt lat="47.28486" lon="-2.28042">
        <ele>77</ele>
        <time>2019-09-08T09:21:55Z</time>
      </trkpt>
      <trkpt lat="47.28483" lon="-2.28049">
        <ele>78</ele>
        <time>2019-09-08T09:21:58Z</time>
      </trkpt>
      <trkpt lat="47.28486" lon="-2.28059">
        <ele>79</ele>
        <time>2019-09-08T09:22:02Z</time>
      </trkpt>
      <trkpt lat="47.2849" lon="-2.28066">
        <ele>79</ele>
        <time>2019-09-08T09:22:04Z</time>
      </trkpt>
      <trkpt lat="47.2849" lon="-2.28074">
        <ele>79</ele>
        <time>2019-09-08T09:22:06Z</time>
      </trkpt>
      <trkpt lat="47.28486" lon="-2.2808">
        <ele>80</ele>
        <time>2019-09-08T09:22:08Z</time>
      </trkpt>
      <trkpt lat="47.28481" lon="-2.28083">
        <ele>80</ele>
        <time>2019-09-08T09:22:10Z</time>
      </trkpt>
      <trkpt lat="47.28475" lon="-2.2809">
        <ele>81</ele>
        <time>2019-09-08T09:22:13Z</time>
      </trkpt>
      <trkpt lat="47.2847" lon="-2.28092">
        <ele>80</ele>
        <time>2019-09-08T09:22:16Z</time>
      </trkpt>
      <trkpt lat="47.28465" lon="-2.28089">
        <ele>80</ele>
        <time>2019-09-08T09:22:21Z</time>
      </trkpt>
      <trkpt lat="47.28459" lon="-2.28087">
        <ele>81</ele>
        <time>2019-09-08T09:22:24Z</time>
      </trkpt>
      <trkpt lat="47.28456" lon="-2.28085">
        <ele>81</ele>
        <time>2019-09-08T09:22:26Z</time>
      </trkpt>
      <trkpt lat="47.28449" lon="-2.28086">
        <ele>81</ele>
        <time>2019-09-08T09:22:29Z</time>
      </trkpt>
      <trkpt lat="47.28438" lon="-2.28086">
        <ele>83</ele>
        <time>2019-09-08T09:22:34Z</time>
      </trkpt>
      <trkpt lat="47.28434" lon="-2.28085">
        <ele>83</ele>
        <time>2019-09-08T09:22:36Z</time>
      </trkpt>
      <trkpt lat="47.28425" lon="-2.28082">
        <ele>83</ele>
        <time>2019-09-08T09:22:39Z</time>
      </trkpt>
      <trkpt lat="47.28422" lon="-2.28081">
        <ele>83</ele>
        <time>2019-09-08T09:22:40Z</time>
      </trkpt>
      <trkpt lat="47.28416" lon="-2.28079">
        <ele>83</ele>
        <time>2019-09-08T09:22:42Z</time>
      </trkpt>
      <trkpt lat="47.28409" lon="-2.28079">
        <ele>83</ele>
        <time>2019-09-08T09:22:44Z</time>
      </trkpt>
      <trkpt lat="47.28406" lon="-2.28079">
        <ele>83</ele>
        <time>2019-09-08T09:22:45Z</time>
      </trkpt>
      <trkpt lat="47.28398" lon="-2.28076">
        <ele>83</ele>
        <time>2019-09-08T09:22:48Z</time>
      </trkpt>
      <trkpt lat="47.28392" lon="-2.28075">
        <ele>83</ele>
        <time>2019-09-08T09:22:53Z</time>
      </trkpt>
      <trkpt lat="47.28387" lon="-2.28075">
        <ele>83</ele>
        <time>2019-09-08T09:22:56Z</time>
      </trkpt>
      <trkpt lat="47.28384" lon="-2.28075">
        <ele>83</ele>
        <time>2019-09-08T09:22:58Z</time>
      </trkpt>
      <trkpt lat="47.2838" lon="-2.28075">
        <ele>84</ele>
        <time>2019-09-08T09:23:05Z</time>
      </trkpt>
      <trkpt lat="47.28377" lon="-2.28076">
        <ele>84</ele>
        <time>2019-09-08T09:23:07Z</time>
      </trkpt>
      <trkpt lat="47.28373" lon="-2.2808">
        <ele>84</ele>
        <time>2019-09-08T09:23:10Z</time>
      </trkpt>
      <trkpt lat="47.2837" lon="-2.28092">
        <ele>84</ele>
        <time>2019-09-08T09:23:13Z</time>
      </trkpt>
      <trkpt lat="47.28369" lon="-2.28098">
        <ele>83</ele>
        <time>2019-09-08T09:23:14Z</time>
      </trkpt>
      <trkpt lat="47.28368" lon="-2.28108">
        <ele>83</ele>
        <time>2019-09-08T09:23:16Z</time>
      </trkpt>
      <trkpt lat="47.28367" lon="-2.28117">
        <ele>83</ele>
        <time>2019-09-08T09:23:18Z</time>
      </trkpt>
      <trkpt lat="47.28367" lon="-2.28122">
        <ele>83</ele>
        <time>2019-09-08T09:23:19Z</time>
      </trkpt>
      <trkpt lat="47.28366" lon="-2.28127">
        <ele>82</ele>
        <time>2019-09-08T09:23:20Z</time>
      </trkpt>
      <trkpt lat="47.28365" lon="-2.28138">
        <ele>82</ele>
        <time>2019-09-08T09:23:22Z</time>
      </trkpt>
      <trkpt lat="47.28366" lon="-2.28153">
        <ele>83</ele>
        <time>2019-09-08T09:23:25Z</time>
      </trkpt>
      <trkpt lat="47.28367" lon="-2.28168">
        <ele>83</ele>
        <time>2019-09-08T09:23:28Z</time>
      </trkpt>
      <trkpt lat="47.28365" lon="-2.28179">
        <ele>83</ele>
        <time>2019-09-08T09:23:30Z</time>
      </trkpt>
      <trkpt lat="47.28366" lon="-2.28189">
        <ele>83</ele>
        <time>2019-09-08T09:23:32Z</time>
      </trkpt>
      <trkpt lat="47.28366" lon="-2.28205">
        <ele>82</ele>
        <time>2019-09-08T09:23:35Z</time>
      </trkpt>
      <trkpt lat="47.28366" lon="-2.2821">
        <ele>82</ele>
        <time>2019-09-08T09:23:36Z</time>
      </trkpt>
      <trkpt lat="47.28366" lon="-2.28223">
        <ele>82</ele>
        <time>2019-09-08T09:23:38Z</time>
      </trkpt>
      <trkpt lat="47.28367" lon="-2.2824">
        <ele>83</ele>
        <time>2019-09-08T09:23:41Z</time>
      </trkpt>
      <trkpt lat="47.28367" lon="-2.28253">
        <ele>82</ele>
        <time>2019-09-08T09:23:43Z</time>
      </trkpt>
      <trkpt lat="47.28367" lon="-2.2826">
        <ele>82</ele>
        <time>2019-09-08T09:23:44Z</time>
      </trkpt>
      <trkpt lat="47.28367" lon="-2.28265">
        <ele>82</ele>
        <time>2019-09-08T09:23:45Z</time>
      </trkpt>
      <trkpt lat="47.28367" lon="-2.28274">
        <ele>82</ele>
        <time>2019-09-08T09:23:47Z</time>
      </trkpt>
      <trkpt lat="47.28367" lon="-2.28279">
        <ele>82</ele>
        <time>2019-09-08T09:23:48Z</time>
      </trkpt>
      <trkpt lat="47.28367" lon="-2.28284">
        <ele>82</ele>
        <time>2019-09-08T09:23:49Z</time>
      </trkpt>
      <trkpt lat="47.28366" lon="-2.28296">
        <ele>82</ele>
        <time>2019-09-08T09:23:51Z</time>
      </trkpt>
      <trkpt lat="47.28366" lon="-2.28302">
        <ele>83</ele>
        <time>2019-09-08T09:23:52Z</time>
      </trkpt>
      <trkpt lat="47.28368" lon="-2.28314">
        <ele>82</ele>
        <time>2019-09-08T09:23:54Z</time>
      </trkpt>
      <trkpt lat="47.28368" lon="-2.28322">
        <ele>83</ele>
        <time>2019-09-08T09:23:55Z</time>
      </trkpt>
      <trkpt lat="47.28368" lon="-2.2833">
        <ele>82</ele>
        <time>2019-09-08T09:23:56Z</time>
      </trkpt>
      <trkpt lat="47.28369" lon="-2.28356">
        <ele>82</ele>
        <time>2019-09-08T09:24:00Z</time>
      </trkpt>
      <trkpt lat="47.28369" lon="-2.28372">
        <ele>83</ele>
        <time>2019-09-08T09:24:03Z</time>
      </trkpt>
      <trkpt lat="47.28369" lon="-2.28377">
        <ele>83</ele>
        <time>2019-09-08T09:24:04Z</time>
      </trkpt>
      <trkpt lat="47.2837" lon="-2.28388">
        <ele>83</ele>
        <time>2019-09-08T09:24:06Z</time>
      </trkpt>
      <trkpt lat="47.28372" lon="-2.284">
        <ele>83</ele>
        <time>2019-09-08T09:24:08Z</time>
      </trkpt>
      <trkpt lat="47.28372" lon="-2.28407">
        <ele>83</ele>
        <time>2019-09-08T09:24:10Z</time>
      </trkpt>
      <trkpt lat="47.28373" lon="-2.28421">
        <ele>83</ele>
        <time>2019-09-08T09:24:11Z</time>
      </trkpt>
      <trkpt lat="47.28373" lon="-2.28428">
        <ele>83</ele>
        <time>2019-09-08T09:24:12Z</time>
      </trkpt>
      <trkpt lat="47.28374" lon="-2.28436">
        <ele>83</ele>
        <time>2019-09-08T09:24:13Z</time>
      </trkpt>
      <trkpt lat="47.28374" lon="-2.28444">
        <ele>83</ele>
        <time>2019-09-08T09:24:14Z</time>
      </trkpt>
      <trkpt lat="47.28375" lon="-2.28452">
        <ele>83</ele>
        <time>2019-09-08T09:24:15Z</time>
      </trkpt>
      <trkpt lat="47.28375" lon="-2.2846">
        <ele>83</ele>
        <time>2019-09-08T09:24:16Z</time>
      </trkpt>
      <trkpt lat="47.28375" lon="-2.28467">
        <ele>83</ele>
        <time>2019-09-08T09:24:17Z</time>
      </trkpt>
      <trkpt lat="47.28376" lon="-2.28475">
        <ele>83</ele>
        <time>2019-09-08T09:24:18Z</time>
      </trkpt>
      <trkpt lat="47.28376" lon="-2.28483">
        <ele>83</ele>
        <time>2019-09-08T09:24:19Z</time>
      </trkpt>
      <trkpt lat="47.28376" lon="-2.28499">
        <ele>83</ele>
        <time>2019-09-08T09:24:21Z</time>
      </trkpt>
      <trkpt lat="47.28377" lon="-2.28515">
        <ele>83</ele>
        <time>2019-09-08T09:24:23Z</time>
      </trkpt>
      <trkpt lat="47.28377" lon="-2.2853">
        <ele>83</ele>
        <time>2019-09-08T09:24:25Z</time>
      </trkpt>
      <trkpt lat="47.28378" lon="-2.28538">
        <ele>83</ele>
        <time>2019-09-08T09:24:26Z</time>
      </trkpt>
      <trkpt lat="47.28378" lon="-2.28547">
        <ele>83</ele>
        <time>2019-09-08T09:24:27Z</time>
      </trkpt>
      <trkpt lat="47.28378" lon="-2.28555">
        <ele>83</ele>
        <time>2019-09-08T09:24:28Z</time>
      </trkpt>
      <trkpt lat="47.28378" lon="-2.28564">
        <ele>83</ele>
        <time>2019-09-08T09:24:29Z</time>
      </trkpt>
      <trkpt lat="47.28379" lon="-2.28573">
        <ele>83</ele>
        <time>2019-09-08T09:24:30Z</time>
      </trkpt>
      <trkpt lat="47.28379" lon="-2.28582">
        <ele>83</ele>
        <time>2019-09-08T09:24:31Z</time>
      </trkpt>
      <trkpt lat="47.28379" lon="-2.2859">
        <ele>83</ele>
        <time>2019-09-08T09:24:32Z</time>
      </trkpt>
      <trkpt lat="47.2838" lon="-2.28599">
        <ele>83</ele>
        <time>2019-09-08T09:24:33Z</time>
      </trkpt>
      <trkpt lat="47.2838" lon="-2.28617">
        <ele>83</ele>
        <time>2019-09-08T09:24:35Z</time>
      </trkpt>
      <trkpt lat="47.28381" lon="-2.28627">
        <ele>83</ele>
        <time>2019-09-08T09:24:36Z</time>
      </trkpt>
      <trkpt lat="47.28381" lon="-2.28635">
        <ele>83</ele>
        <time>2019-09-08T09:24:37Z</time>
      </trkpt>
      <trkpt lat="47.28381" lon="-2.28652">
        <ele>83</ele>
        <time>2019-09-08T09:24:39Z</time>
      </trkpt>
      <trkpt lat="47.28382" lon="-2.28662">
        <ele>83</ele>
        <time>2019-09-08T09:24:40Z</time>
      </trkpt>
      <trkpt lat="47.28382" lon="-2.2867">
        <ele>83</ele>
        <time>2019-09-08T09:24:41Z</time>
      </trkpt>
      <trkpt lat="47.28383" lon="-2.28695">
        <ele>83</ele>
        <time>2019-09-08T09:24:44Z</time>
      </trkpt>
      <trkpt lat="47.28384" lon="-2.28703">
        <ele>82</ele>
        <time>2019-09-08T09:24:45Z</time>
      </trkpt>
      <trkpt lat="47.28384" lon="-2.2872">
        <ele>82</ele>
        <time>2019-09-08T09:24:47Z</time>
      </trkpt>
      <trkpt lat="47.28384" lon="-2.28737">
        <ele>82</ele>
        <time>2019-09-08T09:24:49Z</time>
      </trkpt>
      <trkpt lat="47.28385" lon="-2.28745">
        <ele>83</ele>
        <time>2019-09-08T09:24:50Z</time>
      </trkpt>
      <trkpt lat="47.28384" lon="-2.28754">
        <ele>82</ele>
        <time>2019-09-08T09:24:51Z</time>
      </trkpt>
      <trkpt lat="47.28384" lon="-2.28762">
        <ele>82</ele>
        <time>2019-09-08T09:24:52Z</time>
      </trkpt>
      <trkpt lat="47.28384" lon="-2.28771">
        <ele>82</ele>
        <time>2019-09-08T09:24:53Z</time>
      </trkpt>
      <trkpt lat="47.28385" lon="-2.2879">
        <ele>82</ele>
        <time>2019-09-08T09:24:55Z</time>
      </trkpt>
      <trkpt lat="47.28385" lon="-2.28799">
        <ele>82</ele>
        <time>2019-09-08T09:24:56Z</time>
      </trkpt>
      <trkpt lat="47.28386" lon="-2.28808">
        <ele>82</ele>
        <time>2019-09-08T09:24:57Z</time>
      </trkpt>
      <trkpt lat="47.28386" lon="-2.28817">
        <ele>82</ele>
        <time>2019-09-08T09:24:58Z</time>
      </trkpt>
      <trkpt lat="47.28387" lon="-2.28826">
        <ele>82</ele>
        <time>2019-09-08T09:24:59Z</time>
      </trkpt>
      <trkpt lat="47.28388" lon="-2.28835">
        <ele>81</ele>
        <time>2019-09-08T09:25:00Z</time>
      </trkpt>
      <trkpt lat="47.28388" lon="-2.28845">
        <ele>81</ele>
        <time>2019-09-08T09:25:01Z</time>
      </trkpt>
      <trkpt lat="47.28388" lon="-2.28855">
        <ele>81</ele>
        <time>2019-09-08T09:25:02Z</time>
      </trkpt>
      <trkpt lat="47.28388" lon="-2.28865">
        <ele>81</ele>
        <time>2019-09-08T09:25:03Z</time>
      </trkpt>
      <trkpt lat="47.28389" lon="-2.28875">
        <ele>81</ele>
        <time>2019-09-08T09:25:04Z</time>
      </trkpt>
      <trkpt lat="47.28389" lon="-2.28885">
        <ele>80</ele>
        <time>2019-09-08T09:25:05Z</time>
      </trkpt>
      <trkpt lat="47.2839" lon="-2.28896">
        <ele>80</ele>
        <time>2019-09-08T09:25:06Z</time>
      </trkpt>
      <trkpt lat="47.2839" lon="-2.28906">
        <ele>80</ele>
        <time>2019-09-08T09:25:07Z</time>
      </trkpt>
      <trkpt lat="47.28391" lon="-2.28916">
        <ele>80</ele>
        <time>2019-09-08T09:25:08Z</time>
      </trkpt>
      <trkpt lat="47.28391" lon="-2.28925">
        <ele>80</ele>
        <time>2019-09-08T09:25:09Z</time>
      </trkpt>
      <trkpt lat="47.28391" lon="-2.28934">
        <ele>81</ele>
        <time>2019-09-08T09:25:10Z</time>
      </trkpt>
      <trkpt lat="47.28392" lon="-2.28944">
        <ele>81</ele>
        <time>2019-09-08T09:25:11Z</time>
      </trkpt>
      <trkpt lat="47.28393" lon="-2.28952">
        <ele>81</ele>
        <time>2019-09-08T09:25:12Z</time>
      </trkpt>
      <trkpt lat="47.28393" lon="-2.2896">
        <ele>81</ele>
        <time>2019-09-08T09:25:13Z</time>
      </trkpt>
      <trkpt lat="47.28394" lon="-2.28968">
        <ele>81</ele>
        <time>2019-09-08T09:25:14Z</time>
      </trkpt>
      <trkpt lat="47.28394" lon="-2.28982">
        <ele>80</ele>
        <time>2019-09-08T09:25:16Z</time>
      </trkpt>
      <trkpt lat="47.28399" lon="-2.28991">
        <ele>80</ele>
        <time>2019-09-08T09:25:19Z</time>
      </trkpt>
      <trkpt lat="47.28404" lon="-2.28995">
        <ele>80</ele>
        <time>2019-09-08T09:25:21Z</time>
      </trkpt>
      <trkpt lat="47.2841" lon="-2.28998">
        <ele>81</ele>
        <time>2019-09-08T09:25:23Z</time>
      </trkpt>
      <trkpt lat="47.28419" lon="-2.29">
        <ele>81</ele>
        <time>2019-09-08T09:25:25Z</time>
      </trkpt>
      <trkpt lat="47.28423" lon="-2.29002">
        <ele>81</ele>
        <time>2019-09-08T09:25:26Z</time>
      </trkpt>
      <trkpt lat="47.28433" lon="-2.29">
        <ele>82</ele>
        <time>2019-09-08T09:25:28Z</time>
      </trkpt>
      <trkpt lat="47.28438" lon="-2.29">
        <ele>82</ele>
        <time>2019-09-08T09:25:29Z</time>
      </trkpt>
      <trkpt lat="47.28448" lon="-2.29001">
        <ele>82</ele>
        <time>2019-09-08T09:25:31Z</time>
      </trkpt>
      <trkpt lat="47.28454" lon="-2.29002">
        <ele>82</ele>
        <time>2019-09-08T09:25:32Z</time>
      </trkpt>
      <trkpt lat="47.2846" lon="-2.29004">
        <ele>83</ele>
        <time>2019-09-08T09:25:33Z</time>
      </trkpt>
      <trkpt lat="47.28466" lon="-2.29006">
        <ele>83</ele>
        <time>2019-09-08T09:25:34Z</time>
      </trkpt>
      <trkpt lat="47.28473" lon="-2.29007">
        <ele>83</ele>
        <time>2019-09-08T09:25:35Z</time>
      </trkpt>
      <trkpt lat="47.28488" lon="-2.29013">
        <ele>84</ele>
        <time>2019-09-08T09:25:38Z</time>
      </trkpt>
      <trkpt lat="47.28494" lon="-2.29015">
        <ele>84</ele>
        <time>2019-09-08T09:25:39Z</time>
      </trkpt>
      <trkpt lat="47.28499" lon="-2.29018">
        <ele>84</ele>
        <time>2019-09-08T09:25:40Z</time>
      </trkpt>
      <trkpt lat="47.28506" lon="-2.29021">
        <ele>85</ele>
        <time>2019-09-08T09:25:41Z</time>
      </trkpt>
      <trkpt lat="47.28517" lon="-2.29025">
        <ele>85</ele>
        <time>2019-09-08T09:25:43Z</time>
      </trkpt>
      <trkpt lat="47.28522" lon="-2.29028">
        <ele>86</ele>
        <time>2019-09-08T09:25:44Z</time>
      </trkpt>
      <trkpt lat="47.28533" lon="-2.29032">
        <ele>85</ele>
        <time>2019-09-08T09:25:46Z</time>
      </trkpt>
      <trkpt lat="47.2854" lon="-2.29033">
        <ele>85</ele>
        <time>2019-09-08T09:25:47Z</time>
      </trkpt>
      <trkpt lat="47.28547" lon="-2.29034">
        <ele>85</ele>
        <time>2019-09-08T09:25:48Z</time>
      </trkpt>
      <trkpt lat="47.28552" lon="-2.29036">
        <ele>85</ele>
        <time>2019-09-08T09:25:49Z</time>
      </trkpt>
      <trkpt lat="47.28558" lon="-2.29038">
        <ele>85</ele>
        <time>2019-09-08T09:25:50Z</time>
      </trkpt>
      <trkpt lat="47.28564" lon="-2.2904">
        <ele>86</ele>
        <time>2019-09-08T09:25:51Z</time>
      </trkpt>
      <trkpt lat="47.28569" lon="-2.29041">
        <ele>86</ele>
        <time>2019-09-08T09:25:52Z</time>
      </trkpt>
      <trkpt lat="47.28574" lon="-2.2904">
        <ele>86</ele>
        <time>2019-09-08T09:25:53Z</time>
      </trkpt>
      <trkpt lat="47.28579" lon="-2.29041">
        <ele>86</ele>
        <time>2019-09-08T09:25:54Z</time>
      </trkpt>
      <trkpt lat="47.28582" lon="-2.29042">
        <ele>86</ele>
        <time>2019-09-08T09:25:55Z</time>
      </trkpt>
      <trkpt lat="47.28585" lon="-2.29042">
        <ele>86</ele>
        <time>2019-09-08T09:25:56Z</time>
      </trkpt>
      <trkpt lat="47.2859" lon="-2.29045">
        <ele>86</ele>
        <time>2019-09-08T09:25:58Z</time>
      </trkpt>
      <trkpt lat="47.28595" lon="-2.29049">
        <ele>86</ele>
        <time>2019-09-08T09:26:00Z</time>
      </trkpt>
      <trkpt lat="47.28599" lon="-2.29054">
        <ele>85</ele>
        <time>2019-09-08T09:26:02Z</time>
      </trkpt>
      <trkpt lat="47.28601" lon="-2.29057">
        <ele>85</ele>
        <time>2019-09-08T09:26:03Z</time>
      </trkpt>
      <trkpt lat="47.28607" lon="-2.29057">
        <ele>83</ele>
        <time>2019-09-08T09:26:05Z</time>
      </trkpt>
      <trkpt lat="47.28607" lon="-2.29057">
        <ele>23.2</ele>
        <time>2019-09-08T09:26:12Z</time>
      </trkpt>
      <trkpt lat="47.28607" lon="-2.29057">
        <ele>23.2</ele>
        <time>2019-09-08T09:26:39Z</time>
      </trkpt>
      <trkpt lat="47.28599" lon="-2.2908">
        <ele>78</ele>
        <time>2019-09-08T09:26:39Z</time>
      </trkpt>
      <trkpt lat="47.28584" lon="-2.29117">
        <ele>77</ele>
        <time>2019-09-08T09:26:46Z</time>
      </trkpt>
      <trkpt lat="47.28579" lon="-2.29128">
        <ele>73</ele>
        <time>2019-09-08T09:26:48Z</time>
      </trkpt>
      <trkpt lat="47.28574" lon="-2.29136">
        <ele>74</ele>
        <time>2019-09-08T09:26:50Z</time>
      </trkpt>
      <trkpt lat="47.28571" lon="-2.29142">
        <ele>73</ele>
        <time>2019-09-08T09:26:51Z</time>
      </trkpt>
      <trkpt lat="47.28568" lon="-2.2915">
        <ele>75</ele>
        <time>2019-09-08T09:26:53Z</time>
      </trkpt>
      <trkpt lat="47.28566" lon="-2.29154">
        <ele>76</ele>
        <time>2019-09-08T09:26:54Z</time>
      </trkpt>
      <trkpt lat="47.28563" lon="-2.29159">
        <ele>75</ele>
        <time>2019-09-08T09:26:55Z</time>
      </trkpt>
      <trkpt lat="47.28556" lon="-2.2917">
        <ele>81</ele>
        <time>2019-09-08T09:26:58Z</time>
      </trkpt>
      <trkpt lat="47.2855" lon="-2.29177">
        <ele>83</ele>
        <time>2019-09-08T09:27:00Z</time>
      </trkpt>
      <trkpt lat="47.28543" lon="-2.29183">
        <ele>83</ele>
        <time>2019-09-08T09:27:02Z</time>
      </trkpt>
      <trkpt lat="47.28534" lon="-2.29193">
        <ele>85</ele>
        <time>2019-09-08T09:27:05Z</time>
      </trkpt>
      <trkpt lat="47.28531" lon="-2.29197">
        <ele>86</ele>
        <time>2019-09-08T09:27:06Z</time>
      </trkpt>
      <trkpt lat="47.28528" lon="-2.29201">
        <ele>85</ele>
        <time>2019-09-08T09:27:07Z</time>
      </trkpt>
      <trkpt lat="47.28525" lon="-2.29207">
        <ele>87</ele>
        <time>2019-09-08T09:27:08Z</time>
      </trkpt>
      <trkpt lat="47.28521" lon="-2.29226">
        <ele>86</ele>
        <time>2019-09-08T09:27:11Z</time>
      </trkpt>
      <trkpt lat="47.28521" lon="-2.29239">
        <ele>83</ele>
        <time>2019-09-08T09:27:13Z</time>
      </trkpt>
      <trkpt lat="47.28521" lon="-2.29245">
        <ele>81</ele>
        <time>2019-09-08T09:27:14Z</time>
      </trkpt>
      <trkpt lat="47.28521" lon="-2.29252">
        <ele>81</ele>
        <time>2019-09-08T09:27:15Z</time>
      </trkpt>
      <trkpt lat="47.28522" lon="-2.29258">
        <ele>80</ele>
        <time>2019-09-08T09:27:16Z</time>
      </trkpt>
      <trkpt lat="47.28522" lon="-2.29264">
        <ele>79</ele>
        <time>2019-09-08T09:27:17Z</time>
      </trkpt>
      <trkpt lat="47.28522" lon="-2.29269">
        <ele>79</ele>
        <time>2019-09-08T09:27:18Z</time>
      </trkpt>
      <trkpt lat="47.28522" lon="-2.29274">
        <ele>79</ele>
        <time>2019-09-08T09:27:19Z</time>
      </trkpt>
      <trkpt lat="47.28522" lon="-2.29278">
        <ele>78</ele>
        <time>2019-09-08T09:27:20Z</time>
      </trkpt>
      <trkpt lat="47.28523" lon="-2.29286">
        <ele>79</ele>
        <time>2019-09-08T09:27:23Z</time>
      </trkpt>
      <trkpt lat="47.2852" lon="-2.29294">
        <ele>79</ele>
        <time>2019-09-08T09:27:26Z</time>
      </trkpt>
      <trkpt lat="47.28515" lon="-2.29302">
        <ele>79</ele>
        <time>2019-09-08T09:27:29Z</time>
      </trkpt>
      <trkpt lat="47.28508" lon="-2.29305">
        <ele>79</ele>
        <time>2019-09-08T09:27:31Z</time>
      </trkpt>
      <trkpt lat="47.28505" lon="-2.29306">
        <ele>79</ele>
        <time>2019-09-08T09:27:32Z</time>
      </trkpt>
      <trkpt lat="47.28493" lon="-2.29314">
        <ele>78</ele>
        <time>2019-09-08T09:27:35Z</time>
      </trkpt>
      <trkpt lat="47.28485" lon="-2.29318">
        <ele>78</ele>
        <time>2019-09-08T09:27:37Z</time>
      </trkpt>
      <trkpt lat="47.2848" lon="-2.2932">
        <ele>78</ele>
        <time>2019-09-08T09:27:38Z</time>
      </trkpt>
      <trkpt lat="47.28471" lon="-2.29323">
        <ele>78</ele>
        <time>2019-09-08T09:27:40Z</time>
      </trkpt>
      <trkpt lat="47.28467" lon="-2.29325">
        <ele>79</ele>
        <time>2019-09-08T09:27:41Z</time>
      </trkpt>
      <trkpt lat="47.28464" lon="-2.29327">
        <ele>79</ele>
        <time>2019-09-08T09:27:42Z</time>
      </trkpt>
      <trkpt lat="47.28459" lon="-2.29329">
        <ele>79</ele>
        <time>2019-09-08T09:27:43Z</time>
      </trkpt>
      <trkpt lat="47.2845" lon="-2.29331">
        <ele>80</ele>
        <time>2019-09-08T09:27:45Z</time>
      </trkpt>
      <trkpt lat="47.28446" lon="-2.29333">
        <ele>79</ele>
        <time>2019-09-08T09:27:46Z</time>
      </trkpt>
      <trkpt lat="47.28441" lon="-2.29334">
        <ele>79</ele>
        <time>2019-09-08T09:27:47Z</time>
      </trkpt>
      <trkpt lat="47.28437" lon="-2.29336">
        <ele>79</ele>
        <time>2019-09-08T09:27:48Z</time>
      </trkpt>
      <trkpt lat="47.28432" lon="-2.29338">
        <ele>79</ele>
        <time>2019-09-08T09:27:49Z</time>
      </trkpt>
      <trkpt lat="47.28427" lon="-2.2934">
        <ele>79</ele>
        <time>2019-09-08T09:27:50Z</time>
      </trkpt>
      <trkpt lat="47.28423" lon="-2.29343">
        <ele>79</ele>
        <time>2019-09-08T09:27:51Z</time>
      </trkpt>
      <trkpt lat="47.28413" lon="-2.29348">
        <ele>78</ele>
        <time>2019-09-08T09:27:53Z</time>
      </trkpt>
      <trkpt lat="47.28409" lon="-2.2935">
        <ele>78</ele>
        <time>2019-09-08T09:27:54Z</time>
      </trkpt>
      <trkpt lat="47.28404" lon="-2.29353">
        <ele>78</ele>
        <time>2019-09-08T09:27:55Z</time>
      </trkpt>
      <trkpt lat="47.28395" lon="-2.2936">
        <ele>78</ele>
        <time>2019-09-08T09:27:57Z</time>
      </trkpt>
      <trkpt lat="47.28391" lon="-2.29362">
        <ele>78</ele>
        <time>2019-09-08T09:27:58Z</time>
      </trkpt>
      <trkpt lat="47.28387" lon="-2.29365">
        <ele>78</ele>
        <time>2019-09-08T09:27:59Z</time>
      </trkpt>
      <trkpt lat="47.28382" lon="-2.29369">
        <ele>78</ele>
        <time>2019-09-08T09:28:00Z</time>
      </trkpt>
      <trkpt lat="47.28369" lon="-2.29376">
        <ele>78</ele>
        <time>2019-09-08T09:28:03Z</time>
      </trkpt>
      <trkpt lat="47.28364" lon="-2.29379">
        <ele>78</ele>
        <time>2019-09-08T09:28:04Z</time>
      </trkpt>
      <trkpt lat="47.2836" lon="-2.29383">
        <ele>79</ele>
        <time>2019-09-08T09:28:05Z</time>
      </trkpt>
      <trkpt lat="47.2835" lon="-2.29393">
        <ele>79</ele>
        <time>2019-09-08T09:28:07Z</time>
      </trkpt>
      <trkpt lat="47.28341" lon="-2.29403">
        <ele>79</ele>
        <time>2019-09-08T09:28:09Z</time>
      </trkpt>
      <trkpt lat="47.28336" lon="-2.29407">
        <ele>79</ele>
        <time>2019-09-08T09:28:10Z</time>
      </trkpt>
      <trkpt lat="47.28333" lon="-2.29412">
        <ele>79</ele>
        <time>2019-09-08T09:28:11Z</time>
      </trkpt>
      <trkpt lat="47.28328" lon="-2.29417">
        <ele>79</ele>
        <time>2019-09-08T09:28:12Z</time>
      </trkpt>
      <trkpt lat="47.28323" lon="-2.29422">
        <ele>79</ele>
        <time>2019-09-08T09:28:13Z</time>
      </trkpt>
      <trkpt lat="47.28318" lon="-2.29427">
        <ele>79</ele>
        <time>2019-09-08T09:28:14Z</time>
      </trkpt>
      <trkpt lat="47.28313" lon="-2.29432">
        <ele>78</ele>
        <time>2019-09-08T09:28:15Z</time>
      </trkpt>
      <trkpt lat="47.28308" lon="-2.29436">
        <ele>78</ele>
        <time>2019-09-08T09:28:16Z</time>
      </trkpt>
      <trkpt lat="47.28304" lon="-2.2944">
        <ele>78</ele>
        <time>2019-09-08T09:28:17Z</time>
      </trkpt>
      <trkpt lat="47.28299" lon="-2.29445">
        <ele>78</ele>
        <time>2019-09-08T09:28:18Z</time>
      </trkpt>
      <trkpt lat="47.28289" lon="-2.29453">
        <ele>77</ele>
        <time>2019-09-08T09:28:20Z</time>
      </trkpt>
      <trkpt lat="47.28284" lon="-2.29456">
        <ele>77</ele>
        <time>2019-09-08T09:28:21Z</time>
      </trkpt>
      <trkpt lat="47.28279" lon="-2.2946">
        <ele>77</ele>
        <time>2019-09-08T09:28:22Z</time>
      </trkpt>
      <trkpt lat="47.28264" lon="-2.29469">
        <ele>78</ele>
        <time>2019-09-08T09:28:25Z</time>
      </trkpt>
      <trkpt lat="47.28259" lon="-2.29472">
        <ele>78</ele>
        <time>2019-09-08T09:28:26Z</time>
      </trkpt>
      <trkpt lat="47.28254" lon="-2.29475">
        <ele>78</ele>
        <time>2019-09-08T09:28:27Z</time>
      </trkpt>
      <trkpt lat="47.28249" lon="-2.29478">
        <ele>78</ele>
        <time>2019-09-08T09:28:28Z</time>
      </trkpt>
      <trkpt lat="47.28244" lon="-2.29481">
        <ele>78</ele>
        <time>2019-09-08T09:28:29Z</time>
      </trkpt>
      <trkpt lat="47.28233" lon="-2.29486">
        <ele>78</ele>
        <time>2019-09-08T09:28:31Z</time>
      </trkpt>
      <trkpt lat="47.28222" lon="-2.29491">
        <ele>78</ele>
        <time>2019-09-08T09:28:33Z</time>
      </trkpt>
      <trkpt lat="47.28213" lon="-2.29498">
        <ele>77</ele>
        <time>2019-09-08T09:28:35Z</time>
      </trkpt>
      <trkpt lat="47.28208" lon="-2.29502">
        <ele>78</ele>
        <time>2019-09-08T09:28:36Z</time>
      </trkpt>
      <trkpt lat="47.28209" lon="-2.29518">
        <ele>78</ele>
        <time>2019-09-08T09:28:39Z</time>
      </trkpt>
      <trkpt lat="47.28221" lon="-2.29527">
        <ele>78</ele>
        <time>2019-09-08T09:28:42Z</time>
      </trkpt>
      <trkpt lat="47.28226" lon="-2.2953">
        <ele>78</ele>
        <time>2019-09-08T09:28:43Z</time>
      </trkpt>
      <trkpt lat="47.28231" lon="-2.29533">
        <ele>78</ele>
        <time>2019-09-08T09:28:44Z</time>
      </trkpt>
      <trkpt lat="47.28247" lon="-2.29547">
        <ele>78</ele>
        <time>2019-09-08T09:28:47Z</time>
      </trkpt>
      <trkpt lat="47.28253" lon="-2.29551">
        <ele>78</ele>
        <time>2019-09-08T09:28:48Z</time>
      </trkpt>
      <trkpt lat="47.28264" lon="-2.29561">
        <ele>78</ele>
        <time>2019-09-08T09:28:50Z</time>
      </trkpt>
      <trkpt lat="47.2827" lon="-2.29566">
        <ele>78</ele>
        <time>2019-09-08T09:28:51Z</time>
      </trkpt>
      <trkpt lat="47.28275" lon="-2.29572">
        <ele>78</ele>
        <time>2019-09-08T09:28:52Z</time>
      </trkpt>
      <trkpt lat="47.28283" lon="-2.29579">
        <ele>78</ele>
        <time>2019-09-08T09:28:53Z</time>
      </trkpt>
      <trkpt lat="47.2829" lon="-2.29584">
        <ele>79</ele>
        <time>2019-09-08T09:28:54Z</time>
      </trkpt>
      <trkpt lat="47.28297" lon="-2.2959">
        <ele>79</ele>
        <time>2019-09-08T09:28:55Z</time>
      </trkpt>
      <trkpt lat="47.28304" lon="-2.29595">
        <ele>79</ele>
        <time>2019-09-08T09:28:56Z</time>
      </trkpt>
      <trkpt lat="47.28335" lon="-2.29619">
        <ele>79</ele>
        <time>2019-09-08T09:29:01Z</time>
      </trkpt>
      <trkpt lat="47.28342" lon="-2.29624">
        <ele>79</ele>
        <time>2019-09-08T09:29:02Z</time>
      </trkpt>
      <trkpt lat="47.28348" lon="-2.2963">
        <ele>79</ele>
        <time>2019-09-08T09:29:03Z</time>
      </trkpt>
      <trkpt lat="47.28354" lon="-2.29638">
        <ele>78</ele>
        <time>2019-09-08T09:29:04Z</time>
      </trkpt>
      <trkpt lat="47.2836" lon="-2.29644">
        <ele>78</ele>
        <time>2019-09-08T09:29:05Z</time>
      </trkpt>
      <trkpt lat="47.28368" lon="-2.2965">
        <ele>77</ele>
        <time>2019-09-08T09:29:06Z</time>
      </trkpt>
      <trkpt lat="47.28374" lon="-2.29656">
        <ele>76</ele>
        <time>2019-09-08T09:29:07Z</time>
      </trkpt>
      <trkpt lat="47.28386" lon="-2.29679">
        <ele>76</ele>
        <time>2019-09-08T09:29:10Z</time>
      </trkpt>
      <trkpt lat="47.28388" lon="-2.2969">
        <ele>76</ele>
        <time>2019-09-08T09:29:11Z</time>
      </trkpt>
      <trkpt lat="47.28389" lon="-2.29699">
        <ele>74</ele>
        <time>2019-09-08T09:29:12Z</time>
      </trkpt>
      <trkpt lat="47.2839" lon="-2.2971">
        <ele>74</ele>
        <time>2019-09-08T09:29:13Z</time>
      </trkpt>
      <trkpt lat="47.28391" lon="-2.2972">
        <ele>74</ele>
        <time>2019-09-08T09:29:14Z</time>
      </trkpt>
      <trkpt lat="47.28392" lon="-2.2973">
        <ele>73</ele>
        <time>2019-09-08T09:29:15Z</time>
      </trkpt>
      <trkpt lat="47.28394" lon="-2.2975">
        <ele>73</ele>
        <time>2019-09-08T09:29:17Z</time>
      </trkpt>
      <trkpt lat="47.28396" lon="-2.2977">
        <ele>72</ele>
        <time>2019-09-08T09:29:19Z</time>
      </trkpt>
      <trkpt lat="47.28397" lon="-2.2978">
        <ele>72</ele>
        <time>2019-09-08T09:29:20Z</time>
      </trkpt>
      <trkpt lat="47.28397" lon="-2.2979">
        <ele>72</ele>
        <time>2019-09-08T09:29:22Z</time>
      </trkpt>
      <trkpt lat="47.28398" lon="-2.29801">
        <ele>73</ele>
        <time>2019-09-08T09:29:23Z</time>
      </trkpt>
      <trkpt lat="47.284" lon="-2.29846">
        <ele>72</ele>
        <time>2019-09-08T09:29:27Z</time>
      </trkpt>
      <trkpt lat="47.284" lon="-2.29855">
        <ele>72</ele>
        <time>2019-09-08T09:29:28Z</time>
      </trkpt>
      <trkpt lat="47.28401" lon="-2.29881">
        <ele>73</ele>
        <time>2019-09-08T09:29:31Z</time>
      </trkpt>
      <trkpt lat="47.28401" lon="-2.29888">
        <ele>73</ele>
        <time>2019-09-08T09:29:32Z</time>
      </trkpt>
      <trkpt lat="47.28402" lon="-2.29897">
        <ele>73</ele>
        <time>2019-09-08T09:29:33Z</time>
      </trkpt>
      <trkpt lat="47.28402" lon="-2.29906">
        <ele>73</ele>
        <time>2019-09-08T09:29:34Z</time>
      </trkpt>
      <trkpt lat="47.28402" lon="-2.29913">
        <ele>73</ele>
        <time>2019-09-08T09:29:35Z</time>
      </trkpt>
      <trkpt lat="47.28402" lon="-2.29922">
        <ele>73</ele>
        <time>2019-09-08T09:29:36Z</time>
      </trkpt>
      <trkpt lat="47.28402" lon="-2.29931">
        <ele>73</ele>
        <time>2019-09-08T09:29:37Z</time>
      </trkpt>
      <trkpt lat="47.28402" lon="-2.29939">
        <ele>73</ele>
        <time>2019-09-08T09:29:38Z</time>
      </trkpt>
      <trkpt lat="47.28402" lon="-2.29964">
        <ele>72</ele>
        <time>2019-09-08T09:29:41Z</time>
      </trkpt>
      <trkpt lat="47.28402" lon="-2.29972">
        <ele>72</ele>
        <time>2019-09-08T09:29:42Z</time>
      </trkpt>
      <trkpt lat="47.28401" lon="-2.29988">
        <ele>73</ele>
        <time>2019-09-08T09:29:44Z</time>
      </trkpt>
      <trkpt lat="47.28401" lon="-2.30003">
        <ele>72</ele>
        <time>2019-09-08T09:29:46Z</time>
      </trkpt>
      <trkpt lat="47.284" lon="-2.30011">
        <ele>73</ele>
        <time>2019-09-08T09:29:47Z</time>
      </trkpt>
      <trkpt lat="47.28399" lon="-2.30019">
        <ele>73</ele>
        <time>2019-09-08T09:29:48Z</time>
      </trkpt>
      <trkpt lat="47.28398" lon="-2.30034">
        <ele>73</ele>
        <time>2019-09-08T09:29:50Z</time>
      </trkpt>
      <trkpt lat="47.28397" lon="-2.3004">
        <ele>73</ele>
        <time>2019-09-08T09:29:51Z</time>
      </trkpt>
      <trkpt lat="47.28392" lon="-2.30051">
        <ele>73</ele>
        <time>2019-09-08T09:29:53Z</time>
      </trkpt>
      <trkpt lat="47.28389" lon="-2.30057">
        <ele>73</ele>
        <time>2019-09-08T09:29:54Z</time>
      </trkpt>
      <trkpt lat="47.28385" lon="-2.30062">
        <ele>73</ele>
        <time>2019-09-08T09:29:55Z</time>
      </trkpt>
      <trkpt lat="47.28375" lon="-2.30078">
        <ele>74</ele>
        <time>2019-09-08T09:29:58Z</time>
      </trkpt>
      <trkpt lat="47.28372" lon="-2.30083">
        <ele>74</ele>
        <time>2019-09-08T09:29:59Z</time>
      </trkpt>
      <trkpt lat="47.28369" lon="-2.30088">
        <ele>74</ele>
        <time>2019-09-08T09:30:00Z</time>
      </trkpt>
      <trkpt lat="47.28366" lon="-2.30094">
        <ele>74</ele>
        <time>2019-09-08T09:30:01Z</time>
      </trkpt>
      <trkpt lat="47.28362" lon="-2.30099">
        <ele>74</ele>
        <time>2019-09-08T09:30:02Z</time>
      </trkpt>
      <trkpt lat="47.28359" lon="-2.30104">
        <ele>74</ele>
        <time>2019-09-08T09:30:03Z</time>
      </trkpt>
      <trkpt lat="47.28354" lon="-2.30106">
        <ele>74</ele>
        <time>2019-09-08T09:30:04Z</time>
      </trkpt>
      <trkpt lat="47.2835" lon="-2.30108">
        <ele>74</ele>
        <time>2019-09-08T09:30:05Z</time>
      </trkpt>
      <trkpt lat="47.28346" lon="-2.3011">
        <ele>74</ele>
        <time>2019-09-08T09:30:06Z</time>
      </trkpt>
      <trkpt lat="47.28341" lon="-2.30113">
        <ele>75</ele>
        <time>2019-09-08T09:30:08Z</time>
      </trkpt>
      <trkpt lat="47.28332" lon="-2.30117">
        <ele>75</ele>
        <time>2019-09-08T09:30:09Z</time>
      </trkpt>
      <trkpt lat="47.28323" lon="-2.30119">
        <ele>74</ele>
        <time>2019-09-08T09:30:11Z</time>
      </trkpt>
      <trkpt lat="47.28318" lon="-2.3012">
        <ele>74</ele>
        <time>2019-09-08T09:30:12Z</time>
      </trkpt>
      <trkpt lat="47.28314" lon="-2.30121">
        <ele>74</ele>
        <time>2019-09-08T09:30:13Z</time>
      </trkpt>
      <trkpt lat="47.2831" lon="-2.30122">
        <ele>74</ele>
        <time>2019-09-08T09:30:14Z</time>
      </trkpt>
      <trkpt lat="47.283" lon="-2.30123">
        <ele>75</ele>
        <time>2019-09-08T09:30:16Z</time>
      </trkpt>
      <trkpt lat="47.28295" lon="-2.30124">
        <ele>75</ele>
        <time>2019-09-08T09:30:18Z</time>
      </trkpt>
      <trkpt lat="47.2829" lon="-2.30125">
        <ele>75</ele>
        <time>2019-09-08T09:30:19Z</time>
      </trkpt>
      <trkpt lat="47.28285" lon="-2.30126">
        <ele>75</ele>
        <time>2019-09-08T09:30:20Z</time>
      </trkpt>
      <trkpt lat="47.28277" lon="-2.30129">
        <ele>75</ele>
        <time>2019-09-08T09:30:21Z</time>
      </trkpt>
      <trkpt lat="47.28273" lon="-2.30136">
        <ele>76</ele>
        <time>2019-09-08T09:30:24Z</time>
      </trkpt>
      <trkpt lat="47.28275" lon="-2.30148">
        <ele>75</ele>
        <time>2019-09-08T09:30:29Z</time>
      </trkpt>
      <trkpt lat="47.28269" lon="-2.30156">
        <ele>78</ele>
        <time>2019-09-08T09:30:35Z</time>
      </trkpt>
      <trkpt lat="47.28275" lon="-2.30164">
        <ele>78</ele>
        <time>2019-09-08T09:30:39Z</time>
      </trkpt>
      <trkpt lat="47.28278" lon="-2.30172">
        <ele>78</ele>
        <time>2019-09-08T09:30:42Z</time>
      </trkpt>
      <trkpt lat="47.2828" lon="-2.3018">
        <ele>79</ele>
        <time>2019-09-08T09:30:46Z</time>
      </trkpt>
      <trkpt lat="47.28283" lon="-2.30188">
        <ele>79</ele>
        <time>2019-09-08T09:30:49Z</time>
      </trkpt>
      <trkpt lat="47.28285" lon="-2.30195">
        <ele>79</ele>
        <time>2019-09-08T09:30:52Z</time>
      </trkpt>
      <trkpt lat="47.28285" lon="-2.30195">
        <ele>25.3</ele>
        <time>2019-09-08T09:30:59Z</time>
      </trkpt>
      <trkpt lat="47.28285" lon="-2.30195">
        <ele>25.3</ele>
        <time>2019-09-08T09:32:20Z</time>
      </trkpt>
      <trkpt lat="47.28288" lon="-2.30243">
        <ele>79</ele>
        <time>2019-09-08T09:32:20Z</time>
      </trkpt>
      <trkpt lat="47.28284" lon="-2.30268">
        <ele>72</ele>
        <time>2019-09-08T09:32:27Z</time>
      </trkpt>
      <trkpt lat="47.28279" lon="-2.30281">
        <ele>73</ele>
        <time>2019-09-08T09:32:30Z</time>
      </trkpt>
      <trkpt lat="47.28278" lon="-2.30285">
        <ele>73</ele>
        <time>2019-09-08T09:32:31Z</time>
      </trkpt>
      <trkpt lat="47.28276" lon="-2.30294">
        <ele>73</ele>
        <time>2019-09-08T09:32:33Z</time>
      </trkpt>
      <trkpt lat="47.28275" lon="-2.30298">
        <ele>74</ele>
        <time>2019-09-08T09:32:34Z</time>
      </trkpt>
      <trkpt lat="47.28272" lon="-2.30306">
        <ele>74</ele>
        <time>2019-09-08T09:32:36Z</time>
      </trkpt>
      <trkpt lat="47.28271" lon="-2.3031">
        <ele>75</ele>
        <time>2019-09-08T09:32:37Z</time>
      </trkpt>
      <trkpt lat="47.28269" lon="-2.30315">
        <ele>75</ele>
        <time>2019-09-08T09:32:38Z</time>
      </trkpt>
      <trkpt lat="47.28268" lon="-2.30319">
        <ele>75</ele>
        <time>2019-09-08T09:32:39Z</time>
      </trkpt>
      <trkpt lat="47.28266" lon="-2.30323">
        <ele>75</ele>
        <time>2019-09-08T09:32:40Z</time>
      </trkpt>
      <trkpt lat="47.28263" lon="-2.30332">
        <ele>75</ele>
        <time>2019-09-08T09:32:42Z</time>
      </trkpt>
      <trkpt lat="47.2826" lon="-2.30341">
        <ele>77</ele>
        <time>2019-09-08T09:32:44Z</time>
      </trkpt>
      <trkpt lat="47.28258" lon="-2.30355">
        <ele>78</ele>
        <time>2019-09-08T09:32:47Z</time>
      </trkpt>
      <trkpt lat="47.28256" lon="-2.30359">
        <ele>78</ele>
        <time>2019-09-08T09:32:48Z</time>
      </trkpt>
      <trkpt lat="47.28255" lon="-2.30363">
        <ele>78</ele>
        <time>2019-09-08T09:32:49Z</time>
      </trkpt>
      <trkpt lat="47.28256" lon="-2.30371">
        <ele>77</ele>
        <time>2019-09-08T09:32:51Z</time>
      </trkpt>
      <trkpt lat="47.2826" lon="-2.30379">
        <ele>75</ele>
        <time>2019-09-08T09:32:54Z</time>
      </trkpt>
      <trkpt lat="47.28269" lon="-2.30382">
        <ele>75</ele>
        <time>2019-09-08T09:32:57Z</time>
      </trkpt>
      <trkpt lat="47.28275" lon="-2.30384">
        <ele>75</ele>
        <time>2019-09-08T09:32:59Z</time>
      </trkpt>
      <trkpt lat="47.2828" lon="-2.30389">
        <ele>75</ele>
        <time>2019-09-08T09:33:01Z</time>
      </trkpt>
      <trkpt lat="47.28279" lon="-2.30399">
        <ele>76</ele>
        <time>2019-09-08T09:33:03Z</time>
      </trkpt>
      <trkpt lat="47.28276" lon="-2.30409">
        <ele>75</ele>
        <time>2019-09-08T09:33:05Z</time>
      </trkpt>
      <trkpt lat="47.28275" lon="-2.30414">
        <ele>76</ele>
        <time>2019-09-08T09:33:06Z</time>
      </trkpt>
      <trkpt lat="47.28272" lon="-2.30425">
        <ele>74</ele>
        <time>2019-09-08T09:33:08Z</time>
      </trkpt>
      <trkpt lat="47.2827" lon="-2.30431">
        <ele>73</ele>
        <time>2019-09-08T09:33:09Z</time>
      </trkpt>
      <trkpt lat="47.28268" lon="-2.30437">
        <ele>73</ele>
        <time>2019-09-08T09:33:10Z</time>
      </trkpt>
      <trkpt lat="47.28261" lon="-2.30464">
        <ele>72</ele>
        <time>2019-09-08T09:33:15Z</time>
      </trkpt>
      <trkpt lat="47.28255" lon="-2.30479">
        <ele>72</ele>
        <time>2019-09-08T09:33:18Z</time>
      </trkpt>
      <trkpt lat="47.28252" lon="-2.3049">
        <ele>73</ele>
        <time>2019-09-08T09:33:20Z</time>
      </trkpt>
      <trkpt lat="47.28247" lon="-2.30495">
        <ele>72</ele>
        <time>2019-09-08T09:33:22Z</time>
      </trkpt>
      <trkpt lat="47.28241" lon="-2.30494">
        <ele>73</ele>
        <time>2019-09-08T09:33:24Z</time>
      </trkpt>
      <trkpt lat="47.28233" lon="-2.30488">
        <ele>73</ele>
        <time>2019-09-08T09:33:27Z</time>
      </trkpt>
      <trkpt lat="47.28226" lon="-2.30484">
        <ele>73</ele>
        <time>2019-09-08T09:33:29Z</time>
      </trkpt>
      <trkpt lat="47.28214" lon="-2.30479">
        <ele>73</ele>
        <time>2019-09-08T09:33:32Z</time>
      </trkpt>
      <trkpt lat="47.28206" lon="-2.30473">
        <ele>74</ele>
        <time>2019-09-08T09:33:34Z</time>
      </trkpt>
      <trkpt lat="47.28202" lon="-2.3047">
        <ele>75</ele>
        <time>2019-09-08T09:33:35Z</time>
      </trkpt>
      <trkpt lat="47.28191" lon="-2.3046">
        <ele>76</ele>
        <time>2019-09-08T09:33:38Z</time>
      </trkpt>
      <trkpt lat="47.28188" lon="-2.30457">
        <ele>76</ele>
        <time>2019-09-08T09:33:39Z</time>
      </trkpt>
      <trkpt lat="47.28179" lon="-2.30452">
        <ele>76</ele>
        <time>2019-09-08T09:33:41Z</time>
      </trkpt>
      <trkpt lat="47.28168" lon="-2.30441">
        <ele>75</ele>
        <time>2019-09-08T09:33:44Z</time>
      </trkpt>
      <trkpt lat="47.28162" lon="-2.30435">
        <ele>75</ele>
        <time>2019-09-08T09:33:46Z</time>
      </trkpt>
      <trkpt lat="47.28155" lon="-2.3043">
        <ele>75</ele>
        <time>2019-09-08T09:33:48Z</time>
      </trkpt>
      <trkpt lat="47.28149" lon="-2.30426">
        <ele>75</ele>
        <time>2019-09-08T09:33:50Z</time>
      </trkpt>
      <trkpt lat="47.28146" lon="-2.30423">
        <ele>75</ele>
        <time>2019-09-08T09:33:51Z</time>
      </trkpt>
      <trkpt lat="47.28137" lon="-2.30418">
        <ele>75</ele>
        <time>2019-09-08T09:33:54Z</time>
      </trkpt>
      <trkpt lat="47.28134" lon="-2.30416">
        <ele>75</ele>
        <time>2019-09-08T09:33:55Z</time>
      </trkpt>
      <trkpt lat="47.28131" lon="-2.30414">
        <ele>76</ele>
        <time>2019-09-08T09:33:56Z</time>
      </trkpt>
      <trkpt lat="47.28128" lon="-2.30411">
        <ele>76</ele>
        <time>2019-09-08T09:33:57Z</time>
      </trkpt>
      <trkpt lat="47.28122" lon="-2.30412">
        <ele>76</ele>
        <time>2019-09-08T09:33:59Z</time>
      </trkpt>
      <trkpt lat="47.28117" lon="-2.30418">
        <ele>76</ele>
        <time>2019-09-08T09:34:01Z</time>
      </trkpt>
      <trkpt lat="47.28112" lon="-2.30432">
        <ele>76</ele>
        <time>2019-09-08T09:34:04Z</time>
      </trkpt>
      <trkpt lat="47.28108" lon="-2.3044">
        <ele>75</ele>
        <time>2019-09-08T09:34:06Z</time>
      </trkpt>
      <trkpt lat="47.281" lon="-2.3045">
        <ele>73</ele>
        <time>2019-09-08T09:34:09Z</time>
      </trkpt>
      <trkpt lat="47.28094" lon="-2.30454">
        <ele>73</ele>
        <time>2019-09-08T09:34:11Z</time>
      </trkpt>
      <trkpt lat="47.28094" lon="-2.30454">
        <ele>20.3</ele>
        <time>2019-09-08T09:34:17Z</time>
      </trkpt>
      <trkpt lat="47.28094" lon="-2.30454">
        <ele>20.3</ele>
        <time>2019-09-08T09:34:25Z</time>
      </trkpt>
      <trkpt lat="47.28084" lon="-2.30452">
        <ele>73</ele>
        <time>2019-09-08T09:34:25Z</time>
      </trkpt>
      <trkpt lat="47.28074" lon="-2.30437">
        <ele>70</ele>
        <time>2019-09-08T09:34:31Z</time>
      </trkpt>
      <trkpt lat="47.28071" lon="-2.30432">
        <ele>71</ele>
        <time>2019-09-08T09:34:32Z</time>
      </trkpt>
      <trkpt lat="47.28065" lon="-2.30421">
        <ele>72</ele>
        <time>2019-09-08T09:34:34Z</time>
      </trkpt>
      <trkpt lat="47.28063" lon="-2.30416">
        <ele>71</ele>
        <time>2019-09-08T09:34:35Z</time>
      </trkpt>
      <trkpt lat="47.2806" lon="-2.30409">
        <ele>71</ele>
        <time>2019-09-08T09:34:36Z</time>
      </trkpt>
      <trkpt lat="47.28057" lon="-2.30404">
        <ele>72</ele>
        <time>2019-09-08T09:34:37Z</time>
      </trkpt>
      <trkpt lat="47.28053" lon="-2.30399">
        <ele>72</ele>
        <time>2019-09-08T09:34:38Z</time>
      </trkpt>
      <trkpt lat="47.2805" lon="-2.30394">
        <ele>73</ele>
        <time>2019-09-08T09:34:39Z</time>
      </trkpt>
      <trkpt lat="47.28047" lon="-2.30387">
        <ele>73</ele>
        <time>2019-09-08T09:34:40Z</time>
      </trkpt>
      <trkpt lat="47.28043" lon="-2.30381">
        <ele>73</ele>
        <time>2019-09-08T09:34:41Z</time>
      </trkpt>
      <trkpt lat="47.2804" lon="-2.30375">
        <ele>73</ele>
        <time>2019-09-08T09:34:42Z</time>
      </trkpt>
      <trkpt lat="47.28036" lon="-2.3037">
        <ele>73</ele>
        <time>2019-09-08T09:34:43Z</time>
      </trkpt>
      <trkpt lat="47.28032" lon="-2.30364">
        <ele>73</ele>
        <time>2019-09-08T09:34:44Z</time>
      </trkpt>
      <trkpt lat="47.28028" lon="-2.30359">
        <ele>73</ele>
        <time>2019-09-08T09:34:45Z</time>
      </trkpt>
      <trkpt lat="47.28025" lon="-2.30354">
        <ele>73</ele>
        <time>2019-09-08T09:34:46Z</time>
      </trkpt>
      <trkpt lat="47.28019" lon="-2.30342">
        <ele>72</ele>
        <time>2019-09-08T09:34:48Z</time>
      </trkpt>
      <trkpt lat="47.28016" lon="-2.30337">
        <ele>72</ele>
        <time>2019-09-08T09:34:49Z</time>
      </trkpt>
      <trkpt lat="47.28014" lon="-2.30332">
        <ele>73</ele>
        <time>2019-09-08T09:34:50Z</time>
      </trkpt>
      <trkpt lat="47.28011" lon="-2.30326">
        <ele>74</ele>
        <time>2019-09-08T09:34:51Z</time>
      </trkpt>
      <trkpt lat="47.28007" lon="-2.30319">
        <ele>74</ele>
        <time>2019-09-08T09:34:52Z</time>
      </trkpt>
      <trkpt lat="47.28003" lon="-2.30313">
        <ele>74</ele>
        <time>2019-09-08T09:34:53Z</time>
      </trkpt>
      <trkpt lat="47.27999" lon="-2.30307">
        <ele>74</ele>
        <time>2019-09-08T09:34:54Z</time>
      </trkpt>
      <trkpt lat="47.27996" lon="-2.30302">
        <ele>74</ele>
        <time>2019-09-08T09:34:55Z</time>
      </trkpt>
      <trkpt lat="47.27993" lon="-2.30297">
        <ele>75</ele>
        <time>2019-09-08T09:34:56Z</time>
      </trkpt>
      <trkpt lat="47.27989" lon="-2.30291">
        <ele>75</ele>
        <time>2019-09-08T09:34:57Z</time>
      </trkpt>
      <trkpt lat="47.27987" lon="-2.30285">
        <ele>75</ele>
        <time>2019-09-08T09:34:58Z</time>
      </trkpt>
      <trkpt lat="47.27981" lon="-2.30274">
        <ele>75</ele>
        <time>2019-09-08T09:35:00Z</time>
      </trkpt>
      <trkpt lat="47.27978" lon="-2.30269">
        <ele>75</ele>
        <time>2019-09-08T09:35:01Z</time>
      </trkpt>
      <trkpt lat="47.27974" lon="-2.30265">
        <ele>74</ele>
        <time>2019-09-08T09:35:02Z</time>
      </trkpt>
      <trkpt lat="47.27965" lon="-2.30262">
        <ele>74</ele>
        <time>2019-09-08T09:35:04Z</time>
      </trkpt>
      <trkpt lat="47.2796" lon="-2.3026">
        <ele>74</ele>
        <time>2019-09-08T09:35:05Z</time>
      </trkpt>
      <trkpt lat="47.27945" lon="-2.30264">
        <ele>75</ele>
        <time>2019-09-08T09:35:08Z</time>
      </trkpt>
      <trkpt lat="47.2794" lon="-2.30266">
        <ele>75</ele>
        <time>2019-09-08T09:35:09Z</time>
      </trkpt>
      <trkpt lat="47.27935" lon="-2.30269">
        <ele>75</ele>
        <time>2019-09-08T09:35:10Z</time>
      </trkpt>
      <trkpt lat="47.27925" lon="-2.30274">
        <ele>75</ele>
        <time>2019-09-08T09:35:12Z</time>
      </trkpt>
      <trkpt lat="47.2792" lon="-2.30277">
        <ele>75</ele>
        <time>2019-09-08T09:35:13Z</time>
      </trkpt>
      <trkpt lat="47.2791" lon="-2.30284">
        <ele>75</ele>
        <time>2019-09-08T09:35:15Z</time>
      </trkpt>
      <trkpt lat="47.27905" lon="-2.30287">
        <ele>75</ele>
        <time>2019-09-08T09:35:16Z</time>
      </trkpt>
      <trkpt lat="47.279" lon="-2.30291">
        <ele>75</ele>
        <time>2019-09-08T09:35:17Z</time>
      </trkpt>
      <trkpt lat="47.27895" lon="-2.30295">
        <ele>76</ele>
        <time>2019-09-08T09:35:18Z</time>
      </trkpt>
      <trkpt lat="47.27891" lon="-2.30299">
        <ele>76</ele>
        <time>2019-09-08T09:35:19Z</time>
      </trkpt>
      <trkpt lat="47.27887" lon="-2.30303">
        <ele>76</ele>
        <time>2019-09-08T09:35:20Z</time>
      </trkpt>
      <trkpt lat="47.27883" lon="-2.30308">
        <ele>77</ele>
        <time>2019-09-08T09:35:21Z</time>
      </trkpt>
      <trkpt lat="47.27879" lon="-2.30312">
        <ele>77</ele>
        <time>2019-09-08T09:35:22Z</time>
      </trkpt>
      <trkpt lat="47.27874" lon="-2.30317">
        <ele>77</ele>
        <time>2019-09-08T09:35:23Z</time>
      </trkpt>
      <trkpt lat="47.2787" lon="-2.30321">
        <ele>77</ele>
        <time>2019-09-08T09:35:24Z</time>
      </trkpt>
      <trkpt lat="47.27865" lon="-2.30325">
        <ele>76</ele>
        <time>2019-09-08T09:35:25Z</time>
      </trkpt>
      <trkpt lat="47.2786" lon="-2.30329">
        <ele>76</ele>
        <time>2019-09-08T09:35:26Z</time>
      </trkpt>
      <trkpt lat="47.27855" lon="-2.30332">
        <ele>76</ele>
        <time>2019-09-08T09:35:27Z</time>
      </trkpt>
      <trkpt lat="47.2785" lon="-2.30336">
        <ele>76</ele>
        <time>2019-09-08T09:35:28Z</time>
      </trkpt>
      <trkpt lat="47.27845" lon="-2.30339">
        <ele>77</ele>
        <time>2019-09-08T09:35:29Z</time>
      </trkpt>
      <trkpt lat="47.2784" lon="-2.30342">
        <ele>77</ele>
        <time>2019-09-08T09:35:30Z</time>
      </trkpt>
      <trkpt lat="47.27835" lon="-2.30346">
        <ele>77</ele>
        <time>2019-09-08T09:35:31Z</time>
      </trkpt>
      <trkpt lat="47.2783" lon="-2.30349">
        <ele>77</ele>
        <time>2019-09-08T09:35:32Z</time>
      </trkpt>
      <trkpt lat="47.27824" lon="-2.30351">
        <ele>77</ele>
        <time>2019-09-08T09:35:33Z</time>
      </trkpt>
      <trkpt lat="47.27818" lon="-2.30353">
        <ele>77</ele>
        <time>2019-09-08T09:35:34Z</time>
      </trkpt>
      <trkpt lat="47.27811" lon="-2.30355">
        <ele>77</ele>
        <time>2019-09-08T09:35:35Z</time>
      </trkpt>
      <trkpt lat="47.27806" lon="-2.30357">
        <ele>77</ele>
        <time>2019-09-08T09:35:36Z</time>
      </trkpt>
      <trkpt lat="47.27789" lon="-2.30363">
        <ele>77</ele>
        <time>2019-09-08T09:35:39Z</time>
      </trkpt>
      <trkpt lat="47.27783" lon="-2.30366">
        <ele>78</ele>
        <time>2019-09-08T09:35:40Z</time>
      </trkpt>
      <trkpt lat="47.27777" lon="-2.30368">
        <ele>78</ele>
        <time>2019-09-08T09:35:41Z</time>
      </trkpt>
      <trkpt lat="47.2776" lon="-2.30375">
        <ele>78</ele>
        <time>2019-09-08T09:35:44Z</time>
      </trkpt>
      <trkpt lat="47.27754" lon="-2.30376">
        <ele>78</ele>
        <time>2019-09-08T09:35:45Z</time>
      </trkpt>
      <trkpt lat="47.27742" lon="-2.3038">
        <ele>78</ele>
        <time>2019-09-08T09:35:47Z</time>
      </trkpt>
      <trkpt lat="47.27736" lon="-2.30383">
        <ele>78</ele>
        <time>2019-09-08T09:35:48Z</time>
      </trkpt>
      <trkpt lat="47.2773" lon="-2.30385">
        <ele>78</ele>
        <time>2019-09-08T09:35:49Z</time>
      </trkpt>
      <trkpt lat="47.27717" lon="-2.30389">
        <ele>78</ele>
        <time>2019-09-08T09:35:51Z</time>
      </trkpt>
      <trkpt lat="47.27711" lon="-2.3039">
        <ele>78</ele>
        <time>2019-09-08T09:35:52Z</time>
      </trkpt>
      <trkpt lat="47.27704" lon="-2.30391">
        <ele>78</ele>
        <time>2019-09-08T09:35:53Z</time>
      </trkpt>
      <trkpt lat="47.27698" lon="-2.30393">
        <ele>78</ele>
        <time>2019-09-08T09:35:54Z</time>
      </trkpt>
      <trkpt lat="47.27679" lon="-2.30398">
        <ele>78</ele>
        <time>2019-09-08T09:35:57Z</time>
      </trkpt>
      <trkpt lat="47.27671" lon="-2.304">
        <ele>77</ele>
        <time>2019-09-08T09:35:58Z</time>
      </trkpt>
      <trkpt lat="47.27664" lon="-2.30403">
        <ele>77</ele>
        <time>2019-09-08T09:35:59Z</time>
      </trkpt>
      <trkpt lat="47.27657" lon="-2.30405">
        <ele>76</ele>
        <time>2019-09-08T09:36:00Z</time>
      </trkpt>
      <trkpt lat="47.2765" lon="-2.30406">
        <ele>76</ele>
        <time>2019-09-08T09:36:01Z</time>
      </trkpt>
      <trkpt lat="47.27642" lon="-2.30408">
        <ele>76</ele>
        <time>2019-09-08T09:36:02Z</time>
      </trkpt>
      <trkpt lat="47.27634" lon="-2.30412">
        <ele>76</ele>
        <time>2019-09-08T09:36:03Z</time>
      </trkpt>
      <trkpt lat="47.27626" lon="-2.30416">
        <ele>76</ele>
        <time>2019-09-08T09:36:04Z</time>
      </trkpt>
      <trkpt lat="47.27618" lon="-2.3042">
        <ele>75</ele>
        <time>2019-09-08T09:36:05Z</time>
      </trkpt>
      <trkpt lat="47.27604" lon="-2.30433">
        <ele>75</ele>
        <time>2019-09-08T09:36:07Z</time>
      </trkpt>
      <trkpt lat="47.27598" lon="-2.30444">
        <ele>76</ele>
        <time>2019-09-08T09:36:08Z</time>
      </trkpt>
      <trkpt lat="47.27594" lon="-2.30455">
        <ele>75</ele>
        <time>2019-09-08T09:36:09Z</time>
      </trkpt>
      <trkpt lat="47.2759" lon="-2.30467">
        <ele>75</ele>
        <time>2019-09-08T09:36:10Z</time>
      </trkpt>
      <trkpt lat="47.27587" lon="-2.30479">
        <ele>74</ele>
        <time>2019-09-08T09:36:11Z</time>
      </trkpt>
      <trkpt lat="47.27584" lon="-2.3049">
        <ele>73</ele>
        <time>2019-09-08T09:36:12Z</time>
      </trkpt>
      <trkpt lat="47.27581" lon="-2.30501">
        <ele>73</ele>
        <time>2019-09-08T09:36:13Z</time>
      </trkpt>
      <trkpt lat="47.27579" lon="-2.30513">
        <ele>72</ele>
        <time>2019-09-08T09:36:14Z</time>
      </trkpt>
      <trkpt lat="47.27576" lon="-2.30524">
        <ele>71</ele>
        <time>2019-09-08T09:36:15Z</time>
      </trkpt>
      <trkpt lat="47.2757" lon="-2.30556">
        <ele>70</ele>
        <time>2019-09-08T09:36:18Z</time>
      </trkpt>
      <trkpt lat="47.27568" lon="-2.30566">
        <ele>70</ele>
        <time>2019-09-08T09:36:19Z</time>
      </trkpt>
      <trkpt lat="47.27564" lon="-2.30574">
        <ele>70</ele>
        <time>2019-09-08T09:36:20Z</time>
      </trkpt>
      <trkpt lat="47.2756" lon="-2.30582">
        <ele>70</ele>
        <time>2019-09-08T09:36:21Z</time>
      </trkpt>
      <trkpt lat="47.27556" lon="-2.30587">
        <ele>70</ele>
        <time>2019-09-08T09:36:22Z</time>
      </trkpt>
      <trkpt lat="47.27547" lon="-2.30586">
        <ele>70</ele>
        <time>2019-09-08T09:36:24Z</time>
      </trkpt>
      <trkpt lat="47.2754" lon="-2.30574">
        <ele>70</ele>
        <time>2019-09-08T09:36:26Z</time>
      </trkpt>
      <trkpt lat="47.27536" lon="-2.30558">
        <ele>70</ele>
        <time>2019-09-08T09:36:28Z</time>
      </trkpt>
      <trkpt lat="47.27533" lon="-2.3055">
        <ele>70</ele>
        <time>2019-09-08T09:36:29Z</time>
      </trkpt>
      <trkpt lat="47.2753" lon="-2.30543">
        <ele>70</ele>
        <time>2019-09-08T09:36:30Z</time>
      </trkpt>
      <trkpt lat="47.27525" lon="-2.30527">
        <ele>70</ele>
        <time>2019-09-08T09:36:32Z</time>
      </trkpt>
      <trkpt lat="47.27521" lon="-2.3051">
        <ele>71</ele>
        <time>2019-09-08T09:36:34Z</time>
      </trkpt>
      <trkpt lat="47.27519" lon="-2.30495">
        <ele>71</ele>
        <time>2019-09-08T09:36:36Z</time>
      </trkpt>
      <trkpt lat="47.27517" lon="-2.30486">
        <ele>71</ele>
        <time>2019-09-08T09:36:37Z</time>
      </trkpt>
      <trkpt lat="47.27515" lon="-2.30477">
        <ele>72</ele>
        <time>2019-09-08T09:36:38Z</time>
      </trkpt>
      <trkpt lat="47.27512" lon="-2.3046">
        <ele>72</ele>
        <time>2019-09-08T09:36:40Z</time>
      </trkpt>
      <trkpt lat="47.2751" lon="-2.30453">
        <ele>72</ele>
        <time>2019-09-08T09:36:41Z</time>
      </trkpt>
      <trkpt lat="47.27508" lon="-2.30445">
        <ele>72</ele>
        <time>2019-09-08T09:36:42Z</time>
      </trkpt>
      <trkpt lat="47.27501" lon="-2.30438">
        <ele>72</ele>
        <time>2019-09-08T09:36:44Z</time>
      </trkpt>
      <trkpt lat="47.27496" lon="-2.30439">
        <ele>72</ele>
        <time>2019-09-08T09:36:45Z</time>
      </trkpt>
      <trkpt lat="47.27491" lon="-2.30442">
        <ele>73</ele>
        <time>2019-09-08T09:36:46Z</time>
      </trkpt>
      <trkpt lat="47.27487" lon="-2.30443">
        <ele>73</ele>
        <time>2019-09-08T09:36:47Z</time>
      </trkpt>
      <trkpt lat="47.27481" lon="-2.30444">
        <ele>73</ele>
        <time>2019-09-08T09:36:48Z</time>
      </trkpt>
      <trkpt lat="47.27477" lon="-2.30446">
        <ele>73</ele>
        <time>2019-09-08T09:36:49Z</time>
      </trkpt>
      <trkpt lat="47.27471" lon="-2.30446">
        <ele>73</ele>
        <time>2019-09-08T09:36:50Z</time>
      </trkpt>
      <trkpt lat="47.27466" lon="-2.30448">
        <ele>73</ele>
        <time>2019-09-08T09:36:51Z</time>
      </trkpt>
      <trkpt lat="47.27461" lon="-2.30449">
        <ele>73</ele>
        <time>2019-09-08T09:36:52Z</time>
      </trkpt>
      <trkpt lat="47.27456" lon="-2.30451">
        <ele>72</ele>
        <time>2019-09-08T09:36:53Z</time>
      </trkpt>
      <trkpt lat="47.2744" lon="-2.30451">
        <ele>73</ele>
        <time>2019-09-08T09:36:56Z</time>
      </trkpt>
      <trkpt lat="47.27435" lon="-2.30449">
        <ele>72</ele>
        <time>2019-09-08T09:36:57Z</time>
      </trkpt>
      <trkpt lat="47.27422" lon="-2.30454">
        <ele>73</ele>
        <time>2019-09-08T09:37:01Z</time>
      </trkpt>
      <trkpt lat="47.27422" lon="-2.30454">
        <ele>20</ele>
        <time>2019-09-08T09:37:06Z</time>
      </trkpt>
      <trkpt lat="47.27422" lon="-2.30454">
        <ele>20</ele>
        <time>2019-09-08T09:37:19Z</time>
      </trkpt>
      <trkpt lat="47.27396" lon="-2.30475">
        <ele>77</ele>
        <time>2019-09-08T09:37:19Z</time>
      </trkpt>
      <trkpt lat="47.27362" lon="-2.30505">
        <ele>73</ele>
        <time>2019-09-08T09:37:26Z</time>
      </trkpt>
      <trkpt lat="47.27357" lon="-2.30507">
        <ele>72</ele>
        <time>2019-09-08T09:37:27Z</time>
      </trkpt>
      <trkpt lat="47.27341" lon="-2.30515">
        <ele>74</ele>
        <time>2019-09-08T09:37:31Z</time>
      </trkpt>
      <trkpt lat="47.27335" lon="-2.30514">
        <ele>74</ele>
        <time>2019-09-08T09:37:33Z</time>
      </trkpt>
      <trkpt lat="47.27329" lon="-2.30517">
        <ele>76</ele>
        <time>2019-09-08T09:37:35Z</time>
      </trkpt>
      <trkpt lat="47.27322" lon="-2.30519">
        <ele>79</ele>
        <time>2019-09-08T09:37:37Z</time>
      </trkpt>
      <trkpt lat="47.27315" lon="-2.30523">
        <ele>81</ele>
        <time>2019-09-08T09:37:39Z</time>
      </trkpt>
      <trkpt lat="47.27311" lon="-2.30525">
        <ele>81</ele>
        <time>2019-09-08T09:37:40Z</time>
      </trkpt>
      <trkpt lat="47.27307" lon="-2.30527">
        <ele>82</ele>
        <time>2019-09-08T09:37:41Z</time>
      </trkpt>
      <trkpt lat="47.27304" lon="-2.30529">
        <ele>83</ele>
        <time>2019-09-08T09:37:42Z</time>
      </trkpt>
      <trkpt lat="47.27295" lon="-2.30533">
        <ele>83</ele>
        <time>2019-09-08T09:37:44Z</time>
      </trkpt>
      <trkpt lat="47.27286" lon="-2.30539">
        <ele>79</ele>
        <time>2019-09-08T09:37:46Z</time>
      </trkpt>
      <trkpt lat="47.2728" lon="-2.30545">
        <ele>81</ele>
        <time>2019-09-08T09:37:48Z</time>
      </trkpt>
      <trkpt lat="47.27275" lon="-2.3054">
        <ele>83</ele>
        <time>2019-09-08T09:37:50Z</time>
      </trkpt>
      <trkpt lat="47.27269" lon="-2.30541">
        <ele>84</ele>
        <time>2019-09-08T09:37:53Z</time>
      </trkpt>
      <trkpt lat="47.27263" lon="-2.3054">
        <ele>84</ele>
        <time>2019-09-08T09:37:55Z</time>
      </trkpt>
      <trkpt lat="47.27258" lon="-2.3054">
        <ele>85</ele>
        <time>2019-09-08T09:37:57Z</time>
      </trkpt>
      <trkpt lat="47.27254" lon="-2.3054">
        <ele>85</ele>
        <time>2019-09-08T09:37:58Z</time>
      </trkpt>
      <trkpt lat="47.2725" lon="-2.3054">
        <ele>85</ele>
        <time>2019-09-08T09:37:59Z</time>
      </trkpt>
      <trkpt lat="47.27244" lon="-2.3054">
        <ele>85</ele>
        <time>2019-09-08T09:38:01Z</time>
      </trkpt>
      <trkpt lat="47.27235" lon="-2.30542">
        <ele>86</ele>
        <time>2019-09-08T09:38:04Z</time>
      </trkpt>
      <trkpt lat="47.27232" lon="-2.30542">
        <ele>86</ele>
        <time>2019-09-08T09:38:05Z</time>
      </trkpt>
      <trkpt lat="47.27228" lon="-2.30541">
        <ele>87</ele>
        <time>2019-09-08T09:38:07Z</time>
      </trkpt>
      <trkpt lat="47.27225" lon="-2.30541">
        <ele>87</ele>
        <time>2019-09-08T09:38:08Z</time>
      </trkpt>
      <trkpt lat="47.27221" lon="-2.3054">
        <ele>87</ele>
        <time>2019-09-08T09:38:09Z</time>
      </trkpt>
      <trkpt lat="47.27218" lon="-2.30539">
        <ele>87</ele>
        <time>2019-09-08T09:38:10Z</time>
      </trkpt>
      <trkpt lat="47.27214" lon="-2.30538">
        <ele>87</ele>
        <time>2019-09-08T09:38:11Z</time>
      </trkpt>
      <trkpt lat="47.27208" lon="-2.30537">
        <ele>87</ele>
        <time>2019-09-08T09:38:13Z</time>
      </trkpt>
      <trkpt lat="47.27202" lon="-2.30538">
        <ele>87</ele>
        <time>2019-09-08T09:38:15Z</time>
      </trkpt>
      <trkpt lat="47.27199" lon="-2.30537">
        <ele>86</ele>
        <time>2019-09-08T09:38:16Z</time>
      </trkpt>
      <trkpt lat="47.27196" lon="-2.30537">
        <ele>87</ele>
        <time>2019-09-08T09:38:17Z</time>
      </trkpt>
      <trkpt lat="47.27193" lon="-2.30536">
        <ele>86</ele>
        <time>2019-09-08T09:38:18Z</time>
      </trkpt>
      <trkpt lat="47.27184" lon="-2.30533">
        <ele>86</ele>
        <time>2019-09-08T09:38:20Z</time>
      </trkpt>
      <trkpt lat="47.2718" lon="-2.30531">
        <ele>86</ele>
        <time>2019-09-08T09:38:21Z</time>
      </trkpt>
      <trkpt lat="47.2717" lon="-2.30522">
        <ele>86</ele>
        <time>2019-09-08T09:38:24Z</time>
      </trkpt>
      <trkpt lat="47.27163" lon="-2.30515">
        <ele>86</ele>
        <time>2019-09-08T09:38:26Z</time>
      </trkpt>
      <trkpt lat="47.27156" lon="-2.3051">
        <ele>85</ele>
        <time>2019-09-08T09:38:28Z</time>
      </trkpt>
      <trkpt lat="47.27152" lon="-2.30508">
        <ele>85</ele>
        <time>2019-09-08T09:38:29Z</time>
      </trkpt>
      <trkpt lat="47.27141" lon="-2.30503">
        <ele>84</ele>
        <time>2019-09-08T09:38:31Z</time>
      </trkpt>
      <trkpt lat="47.27136" lon="-2.305">
        <ele>82</ele>
        <time>2019-09-08T09:38:32Z</time>
      </trkpt>
      <trkpt lat="47.27131" lon="-2.305">
        <ele>82</ele>
        <time>2019-09-08T09:38:33Z</time>
      </trkpt>
      <trkpt lat="47.27125" lon="-2.30498">
        <ele>82</ele>
        <time>2019-09-08T09:38:34Z</time>
      </trkpt>
      <trkpt lat="47.27116" lon="-2.30494">
        <ele>80</ele>
        <time>2019-09-08T09:38:36Z</time>
      </trkpt>
      <trkpt lat="47.27112" lon="-2.30492">
        <ele>80</ele>
        <time>2019-09-08T09:38:37Z</time>
      </trkpt>
      <trkpt lat="47.271" lon="-2.3049">
        <ele>80</ele>
        <time>2019-09-08T09:38:40Z</time>
      </trkpt>
      <trkpt lat="47.27094" lon="-2.30487">
        <ele>81</ele>
        <time>2019-09-08T09:38:42Z</time>
      </trkpt>
      <trkpt lat="47.27085" lon="-2.30484">
        <ele>80</ele>
        <time>2019-09-08T09:38:44Z</time>
      </trkpt>
      <trkpt lat="47.27079" lon="-2.30481">
        <ele>80</ele>
        <time>2019-09-08T09:38:46Z</time>
      </trkpt>
      <trkpt lat="47.27075" lon="-2.30479">
        <ele>81</ele>
        <time>2019-09-08T09:38:47Z</time>
      </trkpt>
      <trkpt lat="47.2707" lon="-2.30478">
        <ele>80</ele>
        <time>2019-09-08T09:38:48Z</time>
      </trkpt>
      <trkpt lat="47.27063" lon="-2.30478">
        <ele>79</ele>
        <time>2019-09-08T09:38:50Z</time>
      </trkpt>
      <trkpt lat="47.27057" lon="-2.30474">
        <ele>80</ele>
        <time>2019-09-08T09:38:52Z</time>
      </trkpt>
      <trkpt lat="47.2705" lon="-2.30472">
        <ele>80</ele>
        <time>2019-09-08T09:38:55Z</time>
      </trkpt>
      <trkpt lat="47.27043" lon="-2.30477">
        <ele>81</ele>
        <time>2019-09-08T09:38:58Z</time>
      </trkpt>
      <trkpt lat="47.27039" lon="-2.30486">
        <ele>82</ele>
        <time>2019-09-08T09:39:00Z</time>
      </trkpt>
      <trkpt lat="47.27037" lon="-2.30491">
        <ele>82</ele>
        <time>2019-09-08T09:39:01Z</time>
      </trkpt>
      <trkpt lat="47.27035" lon="-2.30496">
        <ele>82</ele>
        <time>2019-09-08T09:39:02Z</time>
      </trkpt>
      <trkpt lat="47.27032" lon="-2.30501">
        <ele>83</ele>
        <time>2019-09-08T09:39:03Z</time>
      </trkpt>
      <trkpt lat="47.2703" lon="-2.30507">
        <ele>83</ele>
        <time>2019-09-08T09:39:04Z</time>
      </trkpt>
      <trkpt lat="47.27024" lon="-2.30525">
        <ele>83</ele>
        <time>2019-09-08T09:39:07Z</time>
      </trkpt>
      <trkpt lat="47.2702" lon="-2.30535">
        <ele>83</ele>
        <time>2019-09-08T09:39:09Z</time>
      </trkpt>
      <trkpt lat="47.27018" lon="-2.3054">
        <ele>83</ele>
        <time>2019-09-08T09:39:10Z</time>
      </trkpt>
      <trkpt lat="47.27016" lon="-2.30545">
        <ele>84</ele>
        <time>2019-09-08T09:39:11Z</time>
      </trkpt>
      <trkpt lat="47.27013" lon="-2.30556">
        <ele>83</ele>
        <time>2019-09-08T09:39:13Z</time>
      </trkpt>
      <trkpt lat="47.27012" lon="-2.3056">
        <ele>84</ele>
        <time>2019-09-08T09:39:14Z</time>
      </trkpt>
      <trkpt lat="47.27005" lon="-2.30573">
        <ele>85</ele>
        <time>2019-09-08T09:39:17Z</time>
      </trkpt>
      <trkpt lat="47.27004" lon="-2.30577">
        <ele>85</ele>
        <time>2019-09-08T09:39:18Z</time>
      </trkpt>
      <trkpt lat="47.27" lon="-2.30583">
        <ele>85</ele>
        <time>2019-09-08T09:39:20Z</time>
      </trkpt>
      <trkpt lat="47.26994" lon="-2.30592">
        <ele>84</ele>
        <time>2019-09-08T09:39:22Z</time>
      </trkpt>
      <trkpt lat="47.26985" lon="-2.30605">
        <ele>83</ele>
        <time>2019-09-08T09:39:25Z</time>
      </trkpt>
      <trkpt lat="47.2698" lon="-2.30609">
        <ele>83</ele>
        <time>2019-09-08T09:39:26Z</time>
      </trkpt>
      <trkpt lat="47.26974" lon="-2.30616">
        <ele>83</ele>
        <time>2019-09-08T09:39:28Z</time>
      </trkpt>
      <trkpt lat="47.26967" lon="-2.3062">
        <ele>83</ele>
        <time>2019-09-08T09:39:30Z</time>
      </trkpt>
      <trkpt lat="47.26963" lon="-2.30622">
        <ele>83</ele>
        <time>2019-09-08T09:39:31Z</time>
      </trkpt>
      <trkpt lat="47.26959" lon="-2.30624">
        <ele>83</ele>
        <time>2019-09-08T09:39:32Z</time>
      </trkpt>
      <trkpt lat="47.26954" lon="-2.30626">
        <ele>82</ele>
        <time>2019-09-08T09:39:34Z</time>
      </trkpt>
      <trkpt lat="47.26943" lon="-2.30631">
        <ele>81</ele>
        <time>2019-09-08T09:39:36Z</time>
      </trkpt>
      <trkpt lat="47.26935" lon="-2.30633">
        <ele>80</ele>
        <time>2019-09-08T09:39:38Z</time>
      </trkpt>
      <trkpt lat="47.26925" lon="-2.30635">
        <ele>81</ele>
        <time>2019-09-08T09:39:41Z</time>
      </trkpt>
      <trkpt lat="47.26922" lon="-2.30635">
        <ele>81</ele>
        <time>2019-09-08T09:39:42Z</time>
      </trkpt>
      <trkpt lat="47.26916" lon="-2.30637">
        <ele>82</ele>
        <time>2019-09-08T09:39:44Z</time>
      </trkpt>
      <trkpt lat="47.26912" lon="-2.30641">
        <ele>82</ele>
        <time>2019-09-08T09:39:46Z</time>
      </trkpt>
      <trkpt lat="47.26909" lon="-2.30643">
        <ele>82</ele>
        <time>2019-09-08T09:39:47Z</time>
      </trkpt>
      <trkpt lat="47.26902" lon="-2.3065">
        <ele>83</ele>
        <time>2019-09-08T09:39:50Z</time>
      </trkpt>
      <trkpt lat="47.26898" lon="-2.30656">
        <ele>83</ele>
        <time>2019-09-08T09:39:52Z</time>
      </trkpt>
      <trkpt lat="47.26896" lon="-2.30659">
        <ele>83</ele>
        <time>2019-09-08T09:39:53Z</time>
      </trkpt>
      <trkpt lat="47.26894" lon="-2.30661">
        <ele>83</ele>
        <time>2019-09-08T09:39:54Z</time>
      </trkpt>
      <trkpt lat="47.26887" lon="-2.30668">
        <ele>83</ele>
        <time>2019-09-08T09:39:57Z</time>
      </trkpt>
      <trkpt lat="47.26884" lon="-2.3067">
        <ele>83</ele>
        <time>2019-09-08T09:39:58Z</time>
      </trkpt>
      <trkpt lat="47.2688" lon="-2.30676">
        <ele>84</ele>
        <time>2019-09-08T09:40:00Z</time>
      </trkpt>
      <trkpt lat="47.26878" lon="-2.3068">
        <ele>84</ele>
        <time>2019-09-08T09:40:01Z</time>
      </trkpt>
      <trkpt lat="47.26872" lon="-2.30693">
        <ele>84</ele>
        <time>2019-09-08T09:40:04Z</time>
      </trkpt>
      <trkpt lat="47.26866" lon="-2.307">
        <ele>84</ele>
        <time>2019-09-08T09:40:06Z</time>
      </trkpt>
      <trkpt lat="47.26862" lon="-2.3071">
        <ele>83</ele>
        <time>2019-09-08T09:40:08Z</time>
      </trkpt>
      <trkpt lat="47.2686" lon="-2.30715">
        <ele>83</ele>
        <time>2019-09-08T09:40:09Z</time>
      </trkpt>
      <trkpt lat="47.26858" lon="-2.30719">
        <ele>83</ele>
        <time>2019-09-08T09:40:10Z</time>
      </trkpt>
      <trkpt lat="47.26853" lon="-2.30733">
        <ele>83</ele>
        <time>2019-09-08T09:40:13Z</time>
      </trkpt>
      <trkpt lat="47.26852" lon="-2.30737">
        <ele>83</ele>
        <time>2019-09-08T09:40:14Z</time>
      </trkpt>
      <trkpt lat="47.26851" lon="-2.30741">
        <ele>83</ele>
        <time>2019-09-08T09:40:15Z</time>
      </trkpt>
      <trkpt lat="47.26849" lon="-2.30745">
        <ele>83</ele>
        <time>2019-09-08T09:40:16Z</time>
      </trkpt>
      <trkpt lat="47.26848" lon="-2.30749">
        <ele>83</ele>
        <time>2019-09-08T09:40:17Z</time>
      </trkpt>
      <trkpt lat="47.26845" lon="-2.30757">
        <ele>82</ele>
        <time>2019-09-08T09:40:19Z</time>
      </trkpt>
      <trkpt lat="47.26843" lon="-2.30761">
        <ele>81</ele>
        <time>2019-09-08T09:40:20Z</time>
      </trkpt>
      <trkpt lat="47.26841" lon="-2.30765">
        <ele>81</ele>
        <time>2019-09-08T09:40:21Z</time>
      </trkpt>
      <trkpt lat="47.26838" lon="-2.30772">
        <ele>81</ele>
        <time>2019-09-08T09:40:23Z</time>
      </trkpt>
      <trkpt lat="47.26837" lon="-2.30775">
        <ele>81</ele>
        <time>2019-09-08T09:40:24Z</time>
      </trkpt>
      <trkpt lat="47.26834" lon="-2.30781">
        <ele>81</ele>
        <time>2019-09-08T09:40:26Z</time>
      </trkpt>
      <trkpt lat="47.2683" lon="-2.30788">
        <ele>81</ele>
        <time>2019-09-08T09:40:29Z</time>
      </trkpt>
      <trkpt lat="47.26825" lon="-2.30794">
        <ele>82</ele>
        <time>2019-09-08T09:40:32Z</time>
      </trkpt>
      <trkpt lat="47.2682" lon="-2.30796">
        <ele>82</ele>
        <time>2019-09-08T09:40:34Z</time>
      </trkpt>
      <trkpt lat="47.26815" lon="-2.308">
        <ele>82</ele>
        <time>2019-09-08T09:40:36Z</time>
      </trkpt>
      <trkpt lat="47.26812" lon="-2.30802">
        <ele>82</ele>
        <time>2019-09-08T09:40:37Z</time>
      </trkpt>
      <trkpt lat="47.26807" lon="-2.30806">
        <ele>81</ele>
        <time>2019-09-08T09:40:39Z</time>
      </trkpt>
      <trkpt lat="47.26803" lon="-2.3081">
        <ele>81</ele>
        <time>2019-09-08T09:40:41Z</time>
      </trkpt>
      <trkpt lat="47.26801" lon="-2.30813">
        <ele>81</ele>
        <time>2019-09-08T09:40:42Z</time>
      </trkpt>
      <trkpt lat="47.26795" lon="-2.30818">
        <ele>81</ele>
        <time>2019-09-08T09:40:44Z</time>
      </trkpt>
      <trkpt lat="47.26792" lon="-2.30821">
        <ele>81</ele>
        <time>2019-09-08T09:40:45Z</time>
      </trkpt>
      <trkpt lat="47.26786" lon="-2.30828">
        <ele>82</ele>
        <time>2019-09-08T09:40:47Z</time>
      </trkpt>
      <trkpt lat="47.26783" lon="-2.30832">
        <ele>82</ele>
        <time>2019-09-08T09:40:48Z</time>
      </trkpt>
      <trkpt lat="47.2678" lon="-2.30835">
        <ele>82</ele>
        <time>2019-09-08T09:40:49Z</time>
      </trkpt>
      <trkpt lat="47.26776" lon="-2.30839">
        <ele>82</ele>
        <time>2019-09-08T09:40:50Z</time>
      </trkpt>
      <trkpt lat="47.26773" lon="-2.30842">
        <ele>82</ele>
        <time>2019-09-08T09:40:51Z</time>
      </trkpt>
      <trkpt lat="47.26769" lon="-2.30846">
        <ele>82</ele>
        <time>2019-09-08T09:40:52Z</time>
      </trkpt>
      <trkpt lat="47.26766" lon="-2.3085">
        <ele>81</ele>
        <time>2019-09-08T09:40:53Z</time>
      </trkpt>
      <trkpt lat="47.26763" lon="-2.30853">
        <ele>82</ele>
        <time>2019-09-08T09:40:54Z</time>
      </trkpt>
      <trkpt lat="47.2676" lon="-2.30856">
        <ele>82</ele>
        <time>2019-09-08T09:40:55Z</time>
      </trkpt>
      <trkpt lat="47.26757" lon="-2.30859">
        <ele>82</ele>
        <time>2019-09-08T09:40:56Z</time>
      </trkpt>
      <trkpt lat="47.26751" lon="-2.30866">
        <ele>83</ele>
        <time>2019-09-08T09:40:58Z</time>
      </trkpt>
      <trkpt lat="47.26746" lon="-2.30869">
        <ele>82</ele>
        <time>2019-09-08T09:40:59Z</time>
      </trkpt>
      <trkpt lat="47.26742" lon="-2.3087">
        <ele>82</ele>
        <time>2019-09-08T09:41:00Z</time>
      </trkpt>
      <trkpt lat="47.26737" lon="-2.30868">
        <ele>83</ele>
        <time>2019-09-08T09:41:01Z</time>
      </trkpt>
      <trkpt lat="47.26729" lon="-2.3086">
        <ele>83</ele>
        <time>2019-09-08T09:41:03Z</time>
      </trkpt>
      <trkpt lat="47.26723" lon="-2.30849">
        <ele>83</ele>
        <time>2019-09-08T09:41:05Z</time>
      </trkpt>
      <trkpt lat="47.26719" lon="-2.30843">
        <ele>83</ele>
        <time>2019-09-08T09:41:06Z</time>
      </trkpt>
      <trkpt lat="47.26715" lon="-2.30833">
        <ele>82</ele>
        <time>2019-09-08T09:41:08Z</time>
      </trkpt>
      <trkpt lat="47.26712" lon="-2.30827">
        <ele>82</ele>
        <time>2019-09-08T09:41:09Z</time>
      </trkpt>
      <trkpt lat="47.2671" lon="-2.30821">
        <ele>82</ele>
        <time>2019-09-08T09:41:10Z</time>
      </trkpt>
      <trkpt lat="47.26707" lon="-2.30814">
        <ele>82</ele>
        <time>2019-09-08T09:41:11Z</time>
      </trkpt>
      <trkpt lat="47.26705" lon="-2.30808">
        <ele>82</ele>
        <time>2019-09-08T09:41:12Z</time>
      </trkpt>
      <trkpt lat="47.26702" lon="-2.308">
        <ele>81</ele>
        <time>2019-09-08T09:41:13Z</time>
      </trkpt>
      <trkpt lat="47.26697" lon="-2.30784">
        <ele>81</ele>
        <time>2019-09-08T09:41:15Z</time>
      </trkpt>
      <trkpt lat="47.26694" lon="-2.30776">
        <ele>81</ele>
        <time>2019-09-08T09:41:16Z</time>
      </trkpt>
      <trkpt lat="47.26691" lon="-2.30768">
        <ele>81</ele>
        <time>2019-09-08T09:41:17Z</time>
      </trkpt>
      <trkpt lat="47.26687" lon="-2.30759">
        <ele>80</ele>
        <time>2019-09-08T09:41:18Z</time>
      </trkpt>
      <trkpt lat="47.26683" lon="-2.3075">
        <ele>80</ele>
        <time>2019-09-08T09:41:19Z</time>
      </trkpt>
      <trkpt lat="47.26679" lon="-2.30742">
        <ele>79</ele>
        <time>2019-09-08T09:41:20Z</time>
      </trkpt>
      <trkpt lat="47.26676" lon="-2.30733">
        <ele>79</ele>
        <time>2019-09-08T09:41:21Z</time>
      </trkpt>
      <trkpt lat="47.26667" lon="-2.3071">
        <ele>78</ele>
        <time>2019-09-08T09:41:24Z</time>
      </trkpt>
      <trkpt lat="47.26665" lon="-2.30704">
        <ele>78</ele>
        <time>2019-09-08T09:41:25Z</time>
      </trkpt>
      <trkpt lat="47.26657" lon="-2.30694">
        <ele>78</ele>
        <time>2019-09-08T09:41:28Z</time>
      </trkpt>
      <trkpt lat="47.26649" lon="-2.30711">
        <ele>80</ele>
        <time>2019-09-08T09:41:33Z</time>
      </trkpt>
      <trkpt lat="47.26646" lon="-2.30716">
        <ele>80</ele>
        <time>2019-09-08T09:41:34Z</time>
      </trkpt>
      <trkpt lat="47.26643" lon="-2.30721">
        <ele>80</ele>
        <time>2019-09-08T09:41:35Z</time>
      </trkpt>
      <trkpt lat="47.26641" lon="-2.30725">
        <ele>80</ele>
        <time>2019-09-08T09:41:36Z</time>
      </trkpt>
      <trkpt lat="47.26635" lon="-2.30729">
        <ele>80</ele>
        <time>2019-09-08T09:41:38Z</time>
      </trkpt>
      <trkpt lat="47.26632" lon="-2.30732">
        <ele>80</ele>
        <time>2019-09-08T09:41:39Z</time>
      </trkpt>
      <trkpt lat="47.26628" lon="-2.30734">
        <ele>81</ele>
        <time>2019-09-08T09:41:41Z</time>
      </trkpt>
      <trkpt lat="47.26624" lon="-2.30739">
        <ele>82</ele>
        <time>2019-09-08T09:41:42Z</time>
      </trkpt>
      <trkpt lat="47.26621" lon="-2.30745">
        <ele>82</ele>
        <time>2019-09-08T09:41:44Z</time>
      </trkpt>
      <trkpt lat="47.26613" lon="-2.30755">
        <ele>83</ele>
        <time>2019-09-08T09:41:46Z</time>
      </trkpt>
      <trkpt lat="47.26609" lon="-2.30759">
        <ele>83</ele>
        <time>2019-09-08T09:41:47Z</time>
      </trkpt>
      <trkpt lat="47.26596" lon="-2.30774">
        <ele>83</ele>
        <time>2019-09-08T09:41:50Z</time>
      </trkpt>
      <trkpt lat="47.26588" lon="-2.3078">
        <ele>83</ele>
        <time>2019-09-08T09:41:52Z</time>
      </trkpt>
      <trkpt lat="47.26585" lon="-2.30783">
        <ele>84</ele>
        <time>2019-09-08T09:41:53Z</time>
      </trkpt>
      <trkpt lat="47.26579" lon="-2.30789">
        <ele>84</ele>
        <time>2019-09-08T09:41:55Z</time>
      </trkpt>
      <trkpt lat="47.26576" lon="-2.30792">
        <ele>84</ele>
        <time>2019-09-08T09:41:56Z</time>
      </trkpt>
      <trkpt lat="47.26572" lon="-2.30797">
        <ele>84</ele>
        <time>2019-09-08T09:41:57Z</time>
      </trkpt>
      <trkpt lat="47.26567" lon="-2.30805">
        <ele>84</ele>
        <time>2019-09-08T09:41:59Z</time>
      </trkpt>
      <trkpt lat="47.2656" lon="-2.30812">
        <ele>85</ele>
        <time>2019-09-08T09:42:01Z</time>
      </trkpt>
      <trkpt lat="47.26555" lon="-2.30819">
        <ele>85</ele>
        <time>2019-09-08T09:42:03Z</time>
      </trkpt>
      <trkpt lat="47.26545" lon="-2.30831">
        <ele>86</ele>
        <time>2019-09-08T09:42:06Z</time>
      </trkpt>
      <trkpt lat="47.26542" lon="-2.30837">
        <ele>86</ele>
        <time>2019-09-08T09:42:07Z</time>
      </trkpt>
      <trkpt lat="47.26539" lon="-2.30843">
        <ele>86</ele>
        <time>2019-09-08T09:42:08Z</time>
      </trkpt>
      <trkpt lat="47.26537" lon="-2.30848">
        <ele>86</ele>
        <time>2019-09-08T09:42:09Z</time>
      </trkpt>
      <trkpt lat="47.2653" lon="-2.30854">
        <ele>86</ele>
        <time>2019-09-08T09:42:11Z</time>
      </trkpt>
      <trkpt lat="47.26526" lon="-2.30857">
        <ele>86</ele>
        <time>2019-09-08T09:42:12Z</time>
      </trkpt>
      <trkpt lat="47.26522" lon="-2.30861">
        <ele>86</ele>
        <time>2019-09-08T09:42:13Z</time>
      </trkpt>
      <trkpt lat="47.26518" lon="-2.30866">
        <ele>86</ele>
        <time>2019-09-08T09:42:14Z</time>
      </trkpt>
      <trkpt lat="47.26516" lon="-2.30869">
        <ele>85</ele>
        <time>2019-09-08T09:42:15Z</time>
      </trkpt>
      <trkpt lat="47.26509" lon="-2.30873">
        <ele>86</ele>
        <time>2019-09-08T09:42:18Z</time>
      </trkpt>
      <trkpt lat="47.26503" lon="-2.30871">
        <ele>85</ele>
        <time>2019-09-08T09:42:22Z</time>
      </trkpt>
      <trkpt lat="47.26497" lon="-2.30868">
        <ele>85</ele>
        <time>2019-09-08T09:42:25Z</time>
      </trkpt>
      <trkpt lat="47.26494" lon="-2.3086">
        <ele>85</ele>
        <time>2019-09-08T09:42:28Z</time>
      </trkpt>
      <trkpt lat="47.26491" lon="-2.30853">
        <ele>85</ele>
        <time>2019-09-08T09:42:30Z</time>
      </trkpt>
      <trkpt lat="47.26486" lon="-2.30845">
        <ele>85</ele>
        <time>2019-09-08T09:42:32Z</time>
      </trkpt>
      <trkpt lat="47.26483" lon="-2.30835">
        <ele>85</ele>
        <time>2019-09-08T09:42:34Z</time>
      </trkpt>
      <trkpt lat="47.26481" lon="-2.30829">
        <ele>85</ele>
        <time>2019-09-08T09:42:35Z</time>
      </trkpt>
      <trkpt lat="47.2648" lon="-2.30824">
        <ele>85</ele>
        <time>2019-09-08T09:42:36Z</time>
      </trkpt>
      <trkpt lat="47.26478" lon="-2.30819">
        <ele>84</ele>
        <time>2019-09-08T09:42:37Z</time>
      </trkpt>
      <trkpt lat="47.26476" lon="-2.30814">
        <ele>84</ele>
        <time>2019-09-08T09:42:38Z</time>
      </trkpt>
      <trkpt lat="47.26474" lon="-2.30808">
        <ele>84</ele>
        <time>2019-09-08T09:42:39Z</time>
      </trkpt>
      <trkpt lat="47.26467" lon="-2.30797">
        <ele>83</ele>
        <time>2019-09-08T09:42:41Z</time>
      </trkpt>
      <trkpt lat="47.26465" lon="-2.30791">
        <ele>82</ele>
        <time>2019-09-08T09:42:42Z</time>
      </trkpt>
      <trkpt lat="47.26462" lon="-2.30786">
        <ele>82</ele>
        <time>2019-09-08T09:42:43Z</time>
      </trkpt>
      <trkpt lat="47.26459" lon="-2.30775">
        <ele>81</ele>
        <time>2019-09-08T09:42:45Z</time>
      </trkpt>
      <trkpt lat="47.26455" lon="-2.30763">
        <ele>81</ele>
        <time>2019-09-08T09:42:47Z</time>
      </trkpt>
      <trkpt lat="47.26451" lon="-2.30753">
        <ele>80</ele>
        <time>2019-09-08T09:42:49Z</time>
      </trkpt>
      <trkpt lat="47.26446" lon="-2.30738">
        <ele>81</ele>
        <time>2019-09-08T09:42:52Z</time>
      </trkpt>
      <trkpt lat="47.26443" lon="-2.30733">
        <ele>81</ele>
        <time>2019-09-08T09:42:53Z</time>
      </trkpt>
      <trkpt lat="47.26434" lon="-2.30713">
        <ele>80</ele>
        <time>2019-09-08T09:42:57Z</time>
      </trkpt>
      <trkpt lat="47.26432" lon="-2.30709">
        <ele>80</ele>
        <time>2019-09-08T09:42:58Z</time>
      </trkpt>
      <trkpt lat="47.26422" lon="-2.30689">
        <ele>80</ele>
        <time>2019-09-08T09:43:02Z</time>
      </trkpt>
      <trkpt lat="47.26411" lon="-2.3068">
        <ele>80</ele>
        <time>2019-09-08T09:43:05Z</time>
      </trkpt>
      <trkpt lat="47.26407" lon="-2.30677">
        <ele>79</ele>
        <time>2019-09-08T09:43:06Z</time>
      </trkpt>
      <trkpt lat="47.26402" lon="-2.30674">
        <ele>79</ele>
        <time>2019-09-08T09:43:07Z</time>
      </trkpt>
      <trkpt lat="47.26397" lon="-2.30671">
        <ele>80</ele>
        <time>2019-09-08T09:43:08Z</time>
      </trkpt>
      <trkpt lat="47.26392" lon="-2.30668">
        <ele>80</ele>
        <time>2019-09-08T09:43:09Z</time>
      </trkpt>
      <trkpt lat="47.26383" lon="-2.30659">
        <ele>80</ele>
        <time>2019-09-08T09:43:11Z</time>
      </trkpt>
      <trkpt lat="47.26376" lon="-2.30651">
        <ele>80</ele>
        <time>2019-09-08T09:43:13Z</time>
      </trkpt>
      <trkpt lat="47.26371" lon="-2.30643">
        <ele>81</ele>
        <time>2019-09-08T09:43:15Z</time>
      </trkpt>
      <trkpt lat="47.2636" lon="-2.30624">
        <ele>80</ele>
        <time>2019-09-08T09:43:19Z</time>
      </trkpt>
      <trkpt lat="47.26356" lon="-2.30613">
        <ele>81</ele>
        <time>2019-09-08T09:43:21Z</time>
      </trkpt>
      <trkpt lat="47.26353" lon="-2.30606">
        <ele>81</ele>
        <time>2019-09-08T09:43:22Z</time>
      </trkpt>
      <trkpt lat="47.26346" lon="-2.30592">
        <ele>80</ele>
        <time>2019-09-08T09:43:25Z</time>
      </trkpt>
      <trkpt lat="47.26343" lon="-2.30583">
        <ele>81</ele>
        <time>2019-09-08T09:43:27Z</time>
      </trkpt>
      <trkpt lat="47.26343" lon="-2.30574">
        <ele>81</ele>
        <time>2019-09-08T09:43:29Z</time>
      </trkpt>
      <trkpt lat="47.26344" lon="-2.30569">
        <ele>82</ele>
        <time>2019-09-08T09:43:30Z</time>
      </trkpt>
      <trkpt lat="47.26343" lon="-2.30559">
        <ele>82</ele>
        <time>2019-09-08T09:43:32Z</time>
      </trkpt>
      <trkpt lat="47.26341" lon="-2.30548">
        <ele>82</ele>
        <time>2019-09-08T09:43:34Z</time>
      </trkpt>
      <trkpt lat="47.26337" lon="-2.3053">
        <ele>82</ele>
        <time>2019-09-08T09:43:37Z</time>
      </trkpt>
      <trkpt lat="47.26336" lon="-2.30524">
        <ele>83</ele>
        <time>2019-09-08T09:43:38Z</time>
      </trkpt>
      <trkpt lat="47.26333" lon="-2.30503">
        <ele>82</ele>
        <time>2019-09-08T09:43:41Z</time>
      </trkpt>
      <trkpt lat="47.26331" lon="-2.30495">
        <ele>82</ele>
        <time>2019-09-08T09:43:42Z</time>
      </trkpt>
      <trkpt lat="47.26329" lon="-2.30486">
        <ele>82</ele>
        <time>2019-09-08T09:43:43Z</time>
      </trkpt>
      <trkpt lat="47.26329" lon="-2.30478">
        <ele>82</ele>
        <time>2019-09-08T09:43:44Z</time>
      </trkpt>
      <trkpt lat="47.26327" lon="-2.3047">
        <ele>82</ele>
        <time>2019-09-08T09:43:45Z</time>
      </trkpt>
      <trkpt lat="47.26325" lon="-2.30462">
        <ele>82</ele>
        <time>2019-09-08T09:43:46Z</time>
      </trkpt>
      <trkpt lat="47.26324" lon="-2.30455">
        <ele>82</ele>
        <time>2019-09-08T09:43:47Z</time>
      </trkpt>
      <trkpt lat="47.2632" lon="-2.30441">
        <ele>81</ele>
        <time>2019-09-08T09:43:49Z</time>
      </trkpt>
      <trkpt lat="47.26319" lon="-2.30434">
        <ele>81</ele>
        <time>2019-09-08T09:43:50Z</time>
      </trkpt>
      <trkpt lat="47.26318" lon="-2.30427">
        <ele>81</ele>
        <time>2019-09-08T09:43:51Z</time>
      </trkpt>
      <trkpt lat="47.26316" lon="-2.3042">
        <ele>81</ele>
        <time>2019-09-08T09:43:52Z</time>
      </trkpt>
      <trkpt lat="47.26315" lon="-2.30413">
        <ele>81</ele>
        <time>2019-09-08T09:43:53Z</time>
      </trkpt>
      <trkpt lat="47.26314" lon="-2.30406">
        <ele>81</ele>
        <time>2019-09-08T09:43:54Z</time>
      </trkpt>
      <trkpt lat="47.26312" lon="-2.30398">
        <ele>81</ele>
        <time>2019-09-08T09:43:55Z</time>
      </trkpt>
      <trkpt lat="47.2631" lon="-2.30391">
        <ele>81</ele>
        <time>2019-09-08T09:43:56Z</time>
      </trkpt>
      <trkpt lat="47.26309" lon="-2.30384">
        <ele>82</ele>
        <time>2019-09-08T09:43:57Z</time>
      </trkpt>
      <trkpt lat="47.26307" lon="-2.30376">
        <ele>81</ele>
        <time>2019-09-08T09:43:58Z</time>
      </trkpt>
      <trkpt lat="47.26306" lon="-2.30367">
        <ele>81</ele>
        <time>2019-09-08T09:43:59Z</time>
      </trkpt>
      <trkpt lat="47.26305" lon="-2.30359">
        <ele>81</ele>
        <time>2019-09-08T09:44:00Z</time>
      </trkpt>
      <trkpt lat="47.26305" lon="-2.30352">
        <ele>81</ele>
        <time>2019-09-08T09:44:01Z</time>
      </trkpt>
      <trkpt lat="47.26304" lon="-2.30344">
        <ele>80</ele>
        <time>2019-09-08T09:44:02Z</time>
      </trkpt>
      <trkpt lat="47.26301" lon="-2.30331">
        <ele>81</ele>
        <time>2019-09-08T09:44:04Z</time>
      </trkpt>
      <trkpt lat="47.26299" lon="-2.30324">
        <ele>81</ele>
        <time>2019-09-08T09:44:05Z</time>
      </trkpt>
      <trkpt lat="47.26297" lon="-2.30318">
        <ele>81</ele>
        <time>2019-09-08T09:44:06Z</time>
      </trkpt>
      <trkpt lat="47.26294" lon="-2.30311">
        <ele>81</ele>
        <time>2019-09-08T09:44:07Z</time>
      </trkpt>
      <trkpt lat="47.26292" lon="-2.30304">
        <ele>81</ele>
        <time>2019-09-08T09:44:08Z</time>
      </trkpt>
      <trkpt lat="47.26289" lon="-2.30297">
        <ele>81</ele>
        <time>2019-09-08T09:44:09Z</time>
      </trkpt>
      <trkpt lat="47.26287" lon="-2.30289">
        <ele>81</ele>
        <time>2019-09-08T09:44:10Z</time>
      </trkpt>
      <trkpt lat="47.26283" lon="-2.30268">
        <ele>80</ele>
        <time>2019-09-08T09:44:13Z</time>
      </trkpt>
      <trkpt lat="47.26282" lon="-2.30261">
        <ele>81</ele>
        <time>2019-09-08T09:44:14Z</time>
      </trkpt>
      <trkpt lat="47.26279" lon="-2.30246">
        <ele>81</ele>
        <time>2019-09-08T09:44:16Z</time>
      </trkpt>
      <trkpt lat="47.26277" lon="-2.30238">
        <ele>82</ele>
        <time>2019-09-08T09:44:17Z</time>
      </trkpt>
      <trkpt lat="47.26276" lon="-2.30231">
        <ele>82</ele>
        <time>2019-09-08T09:44:18Z</time>
      </trkpt>
      <trkpt lat="47.26274" lon="-2.30225">
        <ele>82</ele>
        <time>2019-09-08T09:44:19Z</time>
      </trkpt>
      <trkpt lat="47.26273" lon="-2.30218">
        <ele>82</ele>
        <time>2019-09-08T09:44:20Z</time>
      </trkpt>
      <trkpt lat="47.26272" lon="-2.30212">
        <ele>82</ele>
        <time>2019-09-08T09:44:21Z</time>
      </trkpt>
      <trkpt lat="47.26269" lon="-2.302">
        <ele>82</ele>
        <time>2019-09-08T09:44:23Z</time>
      </trkpt>
      <trkpt lat="47.26269" lon="-2.30194">
        <ele>81</ele>
        <time>2019-09-08T09:44:24Z</time>
      </trkpt>
      <trkpt lat="47.26266" lon="-2.3018">
        <ele>82</ele>
        <time>2019-09-08T09:44:26Z</time>
      </trkpt>
      <trkpt lat="47.26264" lon="-2.30172">
        <ele>82</ele>
        <time>2019-09-08T09:44:27Z</time>
      </trkpt>
      <trkpt lat="47.26261" lon="-2.30166">
        <ele>82</ele>
        <time>2019-09-08T09:44:28Z</time>
      </trkpt>
      <trkpt lat="47.26255" lon="-2.30153">
        <ele>82</ele>
        <time>2019-09-08T09:44:30Z</time>
      </trkpt>
      <trkpt lat="47.26252" lon="-2.30142">
        <ele>82</ele>
        <time>2019-09-08T09:44:32Z</time>
      </trkpt>
      <trkpt lat="47.2625" lon="-2.30134">
        <ele>82</ele>
        <time>2019-09-08T09:44:34Z</time>
      </trkpt>
      <trkpt lat="47.26245" lon="-2.30132">
        <ele>82</ele>
        <time>2019-09-08T09:44:36Z</time>
      </trkpt>
      <trkpt lat="47.2624" lon="-2.30134">
        <ele>83</ele>
        <time>2019-09-08T09:44:38Z</time>
      </trkpt>
      <trkpt lat="47.26237" lon="-2.30135">
        <ele>83</ele>
        <time>2019-09-08T09:44:39Z</time>
      </trkpt>
      <trkpt lat="47.26227" lon="-2.30138">
        <ele>83</ele>
        <time>2019-09-08T09:44:41Z</time>
      </trkpt>
      <trkpt lat="47.26223" lon="-2.3014">
        <ele>83</ele>
        <time>2019-09-08T09:44:42Z</time>
      </trkpt>
      <trkpt lat="47.26219" lon="-2.30141">
        <ele>83</ele>
        <time>2019-09-08T09:44:43Z</time>
      </trkpt>
      <trkpt lat="47.26214" lon="-2.30143">
        <ele>83</ele>
        <time>2019-09-08T09:44:44Z</time>
      </trkpt>
      <trkpt lat="47.26209" lon="-2.30144">
        <ele>83</ele>
        <time>2019-09-08T09:44:45Z</time>
      </trkpt>
      <trkpt lat="47.26204" lon="-2.30146">
        <ele>83</ele>
        <time>2019-09-08T09:44:46Z</time>
      </trkpt>
      <trkpt lat="47.262" lon="-2.30148">
        <ele>83</ele>
        <time>2019-09-08T09:44:47Z</time>
      </trkpt>
      <trkpt lat="47.26195" lon="-2.3015">
        <ele>83</ele>
        <time>2019-09-08T09:44:48Z</time>
      </trkpt>
      <trkpt lat="47.2619" lon="-2.30151">
        <ele>83</ele>
        <time>2019-09-08T09:44:49Z</time>
      </trkpt>
      <trkpt lat="47.26185" lon="-2.30154">
        <ele>83</ele>
        <time>2019-09-08T09:44:50Z</time>
      </trkpt>
      <trkpt lat="47.26179" lon="-2.30156">
        <ele>82</ele>
        <time>2019-09-08T09:44:52Z</time>
      </trkpt>
      <trkpt lat="47.26175" lon="-2.30149">
        <ele>82</ele>
        <time>2019-09-08T09:44:55Z</time>
      </trkpt>
      <trkpt lat="47.26167" lon="-2.30146">
        <ele>82</ele>
        <time>2019-09-08T09:44:58Z</time>
      </trkpt>
      <trkpt lat="47.26155" lon="-2.3015">
        <ele>82</ele>
        <time>2019-09-08T09:45:01Z</time>
      </trkpt>
      <trkpt lat="47.26152" lon="-2.30152">
        <ele>82</ele>
        <time>2019-09-08T09:45:02Z</time>
      </trkpt>
      <trkpt lat="47.26147" lon="-2.30153">
        <ele>82</ele>
        <time>2019-09-08T09:45:03Z</time>
      </trkpt>
      <trkpt lat="47.26142" lon="-2.30155">
        <ele>83</ele>
        <time>2019-09-08T09:45:04Z</time>
      </trkpt>
      <trkpt lat="47.26131" lon="-2.30158">
        <ele>83</ele>
        <time>2019-09-08T09:45:06Z</time>
      </trkpt>
      <trkpt lat="47.26126" lon="-2.3016">
        <ele>82</ele>
        <time>2019-09-08T09:45:07Z</time>
      </trkpt>
      <trkpt lat="47.26121" lon="-2.30161">
        <ele>82</ele>
        <time>2019-09-08T09:45:08Z</time>
      </trkpt>
      <trkpt lat="47.26117" lon="-2.30163">
        <ele>82</ele>
        <time>2019-09-08T09:45:09Z</time>
      </trkpt>
      <trkpt lat="47.26114" lon="-2.30164">
        <ele>82</ele>
        <time>2019-09-08T09:45:10Z</time>
      </trkpt>
      <trkpt lat="47.26111" lon="-2.30165">
        <ele>82</ele>
        <time>2019-09-08T09:45:11Z</time>
      </trkpt>
      <trkpt lat="47.26106" lon="-2.30161">
        <ele>82</ele>
        <time>2019-09-08T09:45:14Z</time>
      </trkpt>
      <trkpt lat="47.26102" lon="-2.30154">
        <ele>82</ele>
        <time>2019-09-08T09:45:17Z</time>
      </trkpt>
      <trkpt lat="47.2609" lon="-2.3015">
        <ele>83</ele>
        <time>2019-09-08T09:45:21Z</time>
      </trkpt>
      <trkpt lat="47.26086" lon="-2.3015">
        <ele>83</ele>
        <time>2019-09-08T09:45:22Z</time>
      </trkpt>
      <trkpt lat="47.2608" lon="-2.30151">
        <ele>83</ele>
        <time>2019-09-08T09:45:23Z</time>
      </trkpt>
      <trkpt lat="47.26075" lon="-2.3015">
        <ele>82</ele>
        <time>2019-09-08T09:45:24Z</time>
      </trkpt>
      <trkpt lat="47.26071" lon="-2.30147">
        <ele>82</ele>
        <time>2019-09-08T09:45:25Z</time>
      </trkpt>
      <trkpt lat="47.26065" lon="-2.3014">
        <ele>83</ele>
        <time>2019-09-08T09:45:27Z</time>
      </trkpt>
      <trkpt lat="47.2606" lon="-2.30135">
        <ele>83</ele>
        <time>2019-09-08T09:45:29Z</time>
      </trkpt>
      <trkpt lat="47.26049" lon="-2.30136">
        <ele>83</ele>
        <time>2019-09-08T09:45:32Z</time>
      </trkpt>
      <trkpt lat="47.26044" lon="-2.30135">
        <ele>84</ele>
        <time>2019-09-08T09:45:33Z</time>
      </trkpt>
      <trkpt lat="47.26039" lon="-2.30134">
        <ele>83</ele>
        <time>2019-09-08T09:45:34Z</time>
      </trkpt>
      <trkpt lat="47.26033" lon="-2.30132">
        <ele>83</ele>
        <time>2019-09-08T09:45:35Z</time>
      </trkpt>
      <trkpt lat="47.26028" lon="-2.30129">
        <ele>83</ele>
        <time>2019-09-08T09:45:36Z</time>
      </trkpt>
      <trkpt lat="47.26013" lon="-2.30131">
        <ele>84</ele>
        <time>2019-09-08T09:45:39Z</time>
      </trkpt>
      <trkpt lat="47.26002" lon="-2.30132">
        <ele>83</ele>
        <time>2019-09-08T09:45:41Z</time>
      </trkpt>
      <trkpt lat="47.25997" lon="-2.30133">
        <ele>83</ele>
        <time>2019-09-08T09:45:42Z</time>
      </trkpt>
      <trkpt lat="47.25992" lon="-2.30133">
        <ele>83</ele>
        <time>2019-09-08T09:45:43Z</time>
      </trkpt>
      <trkpt lat="47.25988" lon="-2.30134">
        <ele>83</ele>
        <time>2019-09-08T09:45:44Z</time>
      </trkpt>
      <trkpt lat="47.25985" lon="-2.30135">
        <ele>83</ele>
        <time>2019-09-08T09:45:45Z</time>
      </trkpt>
      <trkpt lat="47.25973" lon="-2.30143">
        <ele>81</ele>
        <time>2019-09-08T09:45:48Z</time>
      </trkpt>
      <trkpt lat="47.25967" lon="-2.30151">
        <ele>82</ele>
        <time>2019-09-08T09:45:50Z</time>
      </trkpt>
      <trkpt lat="47.25962" lon="-2.30159">
        <ele>80</ele>
        <time>2019-09-08T09:45:52Z</time>
      </trkpt>
      <trkpt lat="47.25956" lon="-2.30162">
        <ele>80</ele>
        <time>2019-09-08T09:45:54Z</time>
      </trkpt>
      <trkpt lat="47.25952" lon="-2.30167">
        <ele>80</ele>
        <time>2019-09-08T09:45:56Z</time>
      </trkpt>
      <trkpt lat="47.25948" lon="-2.30172">
        <ele>80</ele>
        <time>2019-09-08T09:45:58Z</time>
      </trkpt>
      <trkpt lat="47.25942" lon="-2.30174">
        <ele>80</ele>
        <time>2019-09-08T09:46:01Z</time>
      </trkpt>
      <trkpt lat="47.25935" lon="-2.30176">
        <ele>79</ele>
        <time>2019-09-08T09:46:04Z</time>
      </trkpt>
      <trkpt lat="47.2593" lon="-2.30178">
        <ele>79</ele>
        <time>2019-09-08T09:46:06Z</time>
      </trkpt>
      <trkpt lat="47.25925" lon="-2.30179">
        <ele>78</ele>
        <time>2019-09-08T09:46:09Z</time>
      </trkpt>
      <trkpt lat="47.25921" lon="-2.3018">
        <ele>78</ele>
        <time>2019-09-08T09:46:11Z</time>
      </trkpt>
      <trkpt lat="47.25915" lon="-2.30181">
        <ele>78</ele>
        <time>2019-09-08T09:46:14Z</time>
      </trkpt>
      <trkpt lat="47.2591" lon="-2.30186">
        <ele>78</ele>
        <time>2019-09-08T09:46:17Z</time>
      </trkpt>
      <trkpt lat="47.25906" lon="-2.30192">
        <ele>78</ele>
        <time>2019-09-08T09:46:22Z</time>
      </trkpt>
      <trkpt lat="47.25906" lon="-2.30192">
        <ele>19.4</ele>
        <time>2019-09-08T09:46:27Z</time>
      </trkpt>
      <trkpt lat="47.25906" lon="-2.30192">
        <ele>19.4</ele>
        <time>2019-09-08T09:46:32Z</time>
      </trkpt>
      <trkpt lat="47.25903" lon="-2.30193">
        <ele>77</ele>
        <time>2019-09-08T09:46:32Z</time>
      </trkpt>
      <trkpt lat="47.25885" lon="-2.30203">
        <ele>71</ele>
        <time>2019-09-08T09:46:39Z</time>
      </trkpt>
      <trkpt lat="47.25882" lon="-2.30212">
        <ele>76</ele>
        <time>2019-09-08T09:46:42Z</time>
      </trkpt>
      <trkpt lat="47.25882" lon="-2.30219">
        <ele>79</ele>
        <time>2019-09-08T09:46:44Z</time>
      </trkpt>
      <trkpt lat="47.2588" lon="-2.30233">
        <ele>79</ele>
        <time>2019-09-08T09:46:47Z</time>
      </trkpt>
      <trkpt lat="47.2588" lon="-2.3024">
        <ele>78</ele>
        <time>2019-09-08T09:46:49Z</time>
      </trkpt>
      <trkpt lat="47.25882" lon="-2.30252">
        <ele>74</ele>
        <time>2019-09-08T09:46:52Z</time>
      </trkpt>
      <trkpt lat="47.25881" lon="-2.30259">
        <ele>74</ele>
        <time>2019-09-08T09:46:54Z</time>
      </trkpt>
      <trkpt lat="47.25877" lon="-2.30264">
        <ele>76</ele>
        <time>2019-09-08T09:46:56Z</time>
      </trkpt>
      <trkpt lat="47.25875" lon="-2.30266">
        <ele>76</ele>
        <time>2019-09-08T09:46:57Z</time>
      </trkpt>
      <trkpt lat="47.25872" lon="-2.30268">
        <ele>76</ele>
        <time>2019-09-08T09:46:58Z</time>
      </trkpt>
      <trkpt lat="47.25866" lon="-2.3027">
        <ele>75</ele>
        <time>2019-09-08T09:47:00Z</time>
      </trkpt>
      <trkpt lat="47.2586" lon="-2.30268">
        <ele>73</ele>
        <time>2019-09-08T09:47:02Z</time>
      </trkpt>
      <trkpt lat="47.25852" lon="-2.30266">
        <ele>73</ele>
        <time>2019-09-08T09:47:04Z</time>
      </trkpt>
      <trkpt lat="47.25848" lon="-2.30265">
        <ele>71</ele>
        <time>2019-09-08T09:47:05Z</time>
      </trkpt>
      <trkpt lat="47.25844" lon="-2.30263">
        <ele>70</ele>
        <time>2019-09-08T09:47:06Z</time>
      </trkpt>
      <trkpt lat="47.2584" lon="-2.30261">
        <ele>70</ele>
        <time>2019-09-08T09:47:07Z</time>
      </trkpt>
      <trkpt lat="47.25835" lon="-2.30258">
        <ele>70</ele>
        <time>2019-09-08T09:47:08Z</time>
      </trkpt>
      <trkpt lat="47.2583" lon="-2.30257">
        <ele>70</ele>
        <time>2019-09-08T09:47:09Z</time>
      </trkpt>
      <trkpt lat="47.25819" lon="-2.30252">
        <ele>71</ele>
        <time>2019-09-08T09:47:11Z</time>
      </trkpt>
      <trkpt lat="47.25804" lon="-2.30244">
        <ele>71</ele>
        <time>2019-09-08T09:47:14Z</time>
      </trkpt>
      <trkpt lat="47.25787" lon="-2.30235">
        <ele>72</ele>
        <time>2019-09-08T09:47:17Z</time>
      </trkpt>
      <trkpt lat="47.2578" lon="-2.30236">
        <ele>73</ele>
        <time>2019-09-08T09:47:18Z</time>
      </trkpt>
      <trkpt lat="47.25775" lon="-2.30232">
        <ele>73</ele>
        <time>2019-09-08T09:47:19Z</time>
      </trkpt>
      <trkpt lat="47.25768" lon="-2.30227">
        <ele>72</ele>
        <time>2019-09-08T09:47:21Z</time>
      </trkpt>
      <trkpt lat="47.25763" lon="-2.30225">
        <ele>72</ele>
        <time>2019-09-08T09:47:22Z</time>
      </trkpt>
      <trkpt lat="47.25759" lon="-2.30223">
        <ele>72</ele>
        <time>2019-09-08T09:47:23Z</time>
      </trkpt>
      <trkpt lat="47.25754" lon="-2.30221">
        <ele>72</ele>
        <time>2019-09-08T09:47:24Z</time>
      </trkpt>
      <trkpt lat="47.2575" lon="-2.30219">
        <ele>72</ele>
        <time>2019-09-08T09:47:25Z</time>
      </trkpt>
      <trkpt lat="47.25746" lon="-2.30217">
        <ele>72</ele>
        <time>2019-09-08T09:47:26Z</time>
      </trkpt>
      <trkpt lat="47.25742" lon="-2.30215">
        <ele>72</ele>
        <time>2019-09-08T09:47:28Z</time>
      </trkpt>
      <trkpt lat="47.25738" lon="-2.30213">
        <ele>72</ele>
        <time>2019-09-08T09:47:29Z</time>
      </trkpt>
      <trkpt lat="47.25729" lon="-2.30209">
        <ele>71</ele>
        <time>2019-09-08T09:47:30Z</time>
      </trkpt>
      <trkpt lat="47.25723" lon="-2.30208">
        <ele>71</ele>
        <time>2019-09-08T09:47:32Z</time>
      </trkpt>
      <trkpt lat="47.25713" lon="-2.30209">
        <ele>71</ele>
        <time>2019-09-08T09:47:33Z</time>
      </trkpt>
      <trkpt lat="47.25708" lon="-2.30211">
        <ele>71</ele>
        <time>2019-09-08T09:47:34Z</time>
      </trkpt>
      <trkpt lat="47.25703" lon="-2.30214">
        <ele>72</ele>
        <time>2019-09-08T09:47:35Z</time>
      </trkpt>
      <trkpt lat="47.25698" lon="-2.30218">
        <ele>71</ele>
        <time>2019-09-08T09:47:36Z</time>
      </trkpt>
      <trkpt lat="47.25694" lon="-2.30222">
        <ele>72</ele>
        <time>2019-09-08T09:47:37Z</time>
      </trkpt>
      <trkpt lat="47.25687" lon="-2.30233">
        <ele>72</ele>
        <time>2019-09-08T09:47:39Z</time>
      </trkpt>
      <trkpt lat="47.25684" lon="-2.30239">
        <ele>72</ele>
        <time>2019-09-08T09:47:40Z</time>
      </trkpt>
      <trkpt lat="47.25681" lon="-2.30245">
        <ele>72</ele>
        <time>2019-09-08T09:47:41Z</time>
      </trkpt>
      <trkpt lat="47.25679" lon="-2.30252">
        <ele>72</ele>
        <time>2019-09-08T09:47:42Z</time>
      </trkpt>
      <trkpt lat="47.25673" lon="-2.30263">
        <ele>73</ele>
        <time>2019-09-08T09:47:44Z</time>
      </trkpt>
      <trkpt lat="47.25667" lon="-2.30271">
        <ele>73</ele>
        <time>2019-09-08T09:47:46Z</time>
      </trkpt>
      <trkpt lat="47.25663" lon="-2.30275">
        <ele>73</ele>
        <time>2019-09-08T09:47:47Z</time>
      </trkpt>
      <trkpt lat="47.25659" lon="-2.30279">
        <ele>74</ele>
        <time>2019-09-08T09:47:48Z</time>
      </trkpt>
      <trkpt lat="47.25655" lon="-2.3029">
        <ele>74</ele>
        <time>2019-09-08T09:47:50Z</time>
      </trkpt>
      <trkpt lat="47.25654" lon="-2.30306">
        <ele>74</ele>
        <time>2019-09-08T09:47:53Z</time>
      </trkpt>
      <trkpt lat="47.25648" lon="-2.30322">
        <ele>75</ele>
        <time>2019-09-08T09:47:56Z</time>
      </trkpt>
      <trkpt lat="47.25643" lon="-2.30332">
        <ele>75</ele>
        <time>2019-09-08T09:47:58Z</time>
      </trkpt>
      <trkpt lat="47.2564" lon="-2.30337">
        <ele>76</ele>
        <time>2019-09-08T09:47:59Z</time>
      </trkpt>
      <trkpt lat="47.25632" lon="-2.30338">
        <ele>76</ele>
        <time>2019-09-08T09:48:02Z</time>
      </trkpt>
      <trkpt lat="47.2563" lon="-2.30329">
        <ele>75</ele>
        <time>2019-09-08T09:48:04Z</time>
      </trkpt>
      <trkpt lat="47.25629" lon="-2.30316">
        <ele>76</ele>
        <time>2019-09-08T09:48:06Z</time>
      </trkpt>
      <trkpt lat="47.25628" lon="-2.3031">
        <ele>76</ele>
        <time>2019-09-08T09:48:07Z</time>
      </trkpt>
      <trkpt lat="47.25627" lon="-2.30303">
        <ele>76</ele>
        <time>2019-09-08T09:48:08Z</time>
      </trkpt>
      <trkpt lat="47.25626" lon="-2.30297">
        <ele>76</ele>
        <time>2019-09-08T09:48:09Z</time>
      </trkpt>
      <trkpt lat="47.25625" lon="-2.3029">
        <ele>75</ele>
        <time>2019-09-08T09:48:10Z</time>
      </trkpt>
      <trkpt lat="47.25625" lon="-2.30283">
        <ele>75</ele>
        <time>2019-09-08T09:48:11Z</time>
      </trkpt>
      <trkpt lat="47.25624" lon="-2.30276">
        <ele>75</ele>
        <time>2019-09-08T09:48:12Z</time>
      </trkpt>
      <trkpt lat="47.25623" lon="-2.3027">
        <ele>75</ele>
        <time>2019-09-08T09:48:13Z</time>
      </trkpt>
      <trkpt lat="47.25622" lon="-2.30264">
        <ele>76</ele>
        <time>2019-09-08T09:48:14Z</time>
      </trkpt>
      <trkpt lat="47.25621" lon="-2.30258">
        <ele>75</ele>
        <time>2019-09-08T09:48:15Z</time>
      </trkpt>
      <trkpt lat="47.25618" lon="-2.30244">
        <ele>76</ele>
        <time>2019-09-08T09:48:17Z</time>
      </trkpt>
      <trkpt lat="47.25615" lon="-2.30238">
        <ele>76</ele>
        <time>2019-09-08T09:48:18Z</time>
      </trkpt>
      <trkpt lat="47.25613" lon="-2.30232">
        <ele>76</ele>
        <time>2019-09-08T09:48:19Z</time>
      </trkpt>
      <trkpt lat="47.25607" lon="-2.30221">
        <ele>76</ele>
        <time>2019-09-08T09:48:21Z</time>
      </trkpt>
      <trkpt lat="47.25604" lon="-2.30214">
        <ele>76</ele>
        <time>2019-09-08T09:48:22Z</time>
      </trkpt>
      <trkpt lat="47.256" lon="-2.30208">
        <ele>76</ele>
        <time>2019-09-08T09:48:23Z</time>
      </trkpt>
      <trkpt lat="47.25596" lon="-2.30203">
        <ele>76</ele>
        <time>2019-09-08T09:48:24Z</time>
      </trkpt>
      <trkpt lat="47.25592" lon="-2.30198">
        <ele>76</ele>
        <time>2019-09-08T09:48:25Z</time>
      </trkpt>
      <trkpt lat="47.25583" lon="-2.3019">
        <ele>76</ele>
        <time>2019-09-08T09:48:27Z</time>
      </trkpt>
      <trkpt lat="47.25579" lon="-2.30187">
        <ele>76</ele>
        <time>2019-09-08T09:48:28Z</time>
      </trkpt>
      <trkpt lat="47.2557" lon="-2.30182">
        <ele>75</ele>
        <time>2019-09-08T09:48:30Z</time>
      </trkpt>
      <trkpt lat="47.25547" lon="-2.30185">
        <ele>77</ele>
        <time>2019-09-08T09:48:35Z</time>
      </trkpt>
      <trkpt lat="47.25543" lon="-2.30187">
        <ele>78</ele>
        <time>2019-09-08T09:48:36Z</time>
      </trkpt>
      <trkpt lat="47.25535" lon="-2.30192">
        <ele>78</ele>
        <time>2019-09-08T09:48:38Z</time>
      </trkpt>
      <trkpt lat="47.25527" lon="-2.30193">
        <ele>78</ele>
        <time>2019-09-08T09:48:40Z</time>
      </trkpt>
      <trkpt lat="47.25522" lon="-2.30193">
        <ele>78</ele>
        <time>2019-09-08T09:48:41Z</time>
      </trkpt>
      <trkpt lat="47.25518" lon="-2.30193">
        <ele>77</ele>
        <time>2019-09-08T09:48:42Z</time>
      </trkpt>
      <trkpt lat="47.25513" lon="-2.30193">
        <ele>77</ele>
        <time>2019-09-08T09:48:43Z</time>
      </trkpt>
      <trkpt lat="47.2551" lon="-2.30193">
        <ele>77</ele>
        <time>2019-09-08T09:48:44Z</time>
      </trkpt>
      <trkpt lat="47.25505" lon="-2.30194">
        <ele>77</ele>
        <time>2019-09-08T09:48:45Z</time>
      </trkpt>
      <trkpt lat="47.25498" lon="-2.30197">
        <ele>78</ele>
        <time>2019-09-08T09:48:47Z</time>
      </trkpt>
      <trkpt lat="47.25494" lon="-2.302">
        <ele>79</ele>
        <time>2019-09-08T09:48:48Z</time>
      </trkpt>
      <trkpt lat="47.2549" lon="-2.30205">
        <ele>79</ele>
        <time>2019-09-08T09:48:49Z</time>
      </trkpt>
      <trkpt lat="47.25487" lon="-2.3021">
        <ele>79</ele>
        <time>2019-09-08T09:48:50Z</time>
      </trkpt>
      <trkpt lat="47.25482" lon="-2.30215">
        <ele>79</ele>
        <time>2019-09-08T09:48:51Z</time>
      </trkpt>
      <trkpt lat="47.25479" lon="-2.3022">
        <ele>78</ele>
        <time>2019-09-08T09:48:52Z</time>
      </trkpt>
      <trkpt lat="47.25477" lon="-2.30226">
        <ele>79</ele>
        <time>2019-09-08T09:48:53Z</time>
      </trkpt>
      <trkpt lat="47.25474" lon="-2.30232">
        <ele>79</ele>
        <time>2019-09-08T09:48:54Z</time>
      </trkpt>
      <trkpt lat="47.25467" lon="-2.30239">
        <ele>80</ele>
        <time>2019-09-08T09:48:57Z</time>
      </trkpt>
      <trkpt lat="47.25459" lon="-2.30238">
        <ele>79</ele>
        <time>2019-09-08T09:48:59Z</time>
      </trkpt>
      <trkpt lat="47.25454" lon="-2.30238">
        <ele>79</ele>
        <time>2019-09-08T09:49:00Z</time>
      </trkpt>
      <trkpt lat="47.25449" lon="-2.30238">
        <ele>79</ele>
        <time>2019-09-08T09:49:01Z</time>
      </trkpt>
      <trkpt lat="47.25441" lon="-2.30236">
        <ele>79</ele>
        <time>2019-09-08T09:49:03Z</time>
      </trkpt>
      <trkpt lat="47.25436" lon="-2.30235">
        <ele>79</ele>
        <time>2019-09-08T09:49:04Z</time>
      </trkpt>
      <trkpt lat="47.25427" lon="-2.30231">
        <ele>79</ele>
        <time>2019-09-08T09:49:06Z</time>
      </trkpt>
      <trkpt lat="47.2542" lon="-2.30227">
        <ele>80</ele>
        <time>2019-09-08T09:49:08Z</time>
      </trkpt>
      <trkpt lat="47.25414" lon="-2.30225">
        <ele>80</ele>
        <time>2019-09-08T09:49:09Z</time>
      </trkpt>
      <trkpt lat="47.25409" lon="-2.30223">
        <ele>81</ele>
        <time>2019-09-08T09:49:10Z</time>
      </trkpt>
      <trkpt lat="47.25405" lon="-2.30221">
        <ele>81</ele>
        <time>2019-09-08T09:49:11Z</time>
      </trkpt>
      <trkpt lat="47.254" lon="-2.3022">
        <ele>81</ele>
        <time>2019-09-08T09:49:12Z</time>
      </trkpt>
      <trkpt lat="47.25394" lon="-2.30218">
        <ele>81</ele>
        <time>2019-09-08T09:49:13Z</time>
      </trkpt>
      <trkpt lat="47.2539" lon="-2.30216">
        <ele>80</ele>
        <time>2019-09-08T09:49:14Z</time>
      </trkpt>
      <trkpt lat="47.25384" lon="-2.30212">
        <ele>81</ele>
        <time>2019-09-08T09:49:16Z</time>
      </trkpt>
      <trkpt lat="47.25369" lon="-2.30208">
        <ele>81</ele>
        <time>2019-09-08T09:49:19Z</time>
      </trkpt>
      <trkpt lat="47.25363" lon="-2.30208">
        <ele>81</ele>
        <time>2019-09-08T09:49:20Z</time>
      </trkpt>
      <trkpt lat="47.25358" lon="-2.30207">
        <ele>81</ele>
        <time>2019-09-08T09:49:21Z</time>
      </trkpt>
      <trkpt lat="47.25352" lon="-2.30207">
        <ele>81</ele>
        <time>2019-09-08T09:49:22Z</time>
      </trkpt>
      <trkpt lat="47.25347" lon="-2.30207">
        <ele>81</ele>
        <time>2019-09-08T09:49:23Z</time>
      </trkpt>
      <trkpt lat="47.25341" lon="-2.30208">
        <ele>81</ele>
        <time>2019-09-08T09:49:24Z</time>
      </trkpt>
      <trkpt lat="47.25337" lon="-2.30208">
        <ele>80</ele>
        <time>2019-09-08T09:49:25Z</time>
      </trkpt>
      <trkpt lat="47.25331" lon="-2.30208">
        <ele>80</ele>
        <time>2019-09-08T09:49:26Z</time>
      </trkpt>
      <trkpt lat="47.25326" lon="-2.30208">
        <ele>80</ele>
        <time>2019-09-08T09:49:27Z</time>
      </trkpt>
      <trkpt lat="47.25321" lon="-2.30207">
        <ele>80</ele>
        <time>2019-09-08T09:49:28Z</time>
      </trkpt>
      <trkpt lat="47.25317" lon="-2.30205">
        <ele>80</ele>
        <time>2019-09-08T09:49:29Z</time>
      </trkpt>
      <trkpt lat="47.25308" lon="-2.30209">
        <ele>80</ele>
        <time>2019-09-08T09:49:32Z</time>
      </trkpt>
      <trkpt lat="47.25301" lon="-2.30211">
        <ele>81</ele>
        <time>2019-09-08T09:49:35Z</time>
      </trkpt>
      <trkpt lat="47.25291" lon="-2.30204">
        <ele>81</ele>
        <time>2019-09-08T09:49:38Z</time>
      </trkpt>
      <trkpt lat="47.25277" lon="-2.30197">
        <ele>80</ele>
        <time>2019-09-08T09:49:41Z</time>
      </trkpt>
      <trkpt lat="47.25273" lon="-2.30195">
        <ele>80</ele>
        <time>2019-09-08T09:49:42Z</time>
      </trkpt>
      <trkpt lat="47.25268" lon="-2.30193">
        <ele>80</ele>
        <time>2019-09-08T09:49:43Z</time>
      </trkpt>
      <trkpt lat="47.25259" lon="-2.3019">
        <ele>80</ele>
        <time>2019-09-08T09:49:45Z</time>
      </trkpt>
      <trkpt lat="47.25246" lon="-2.30184">
        <ele>80</ele>
        <time>2019-09-08T09:49:48Z</time>
      </trkpt>
      <trkpt lat="47.25237" lon="-2.3018">
        <ele>80</ele>
        <time>2019-09-08T09:49:50Z</time>
      </trkpt>
      <trkpt lat="47.25232" lon="-2.3018">
        <ele>80</ele>
        <time>2019-09-08T09:49:51Z</time>
      </trkpt>
      <trkpt lat="47.25227" lon="-2.30178">
        <ele>81</ele>
        <time>2019-09-08T09:49:52Z</time>
      </trkpt>
      <trkpt lat="47.2522" lon="-2.30171">
        <ele>81</ele>
        <time>2019-09-08T09:49:54Z</time>
      </trkpt>
      <trkpt lat="47.25216" lon="-2.30167">
        <ele>82</ele>
        <time>2019-09-08T09:49:55Z</time>
      </trkpt>
      <trkpt lat="47.25211" lon="-2.30161">
        <ele>82</ele>
        <time>2019-09-08T09:49:56Z</time>
      </trkpt>
      <trkpt lat="47.25207" lon="-2.30156">
        <ele>82</ele>
        <time>2019-09-08T09:49:57Z</time>
      </trkpt>
      <trkpt lat="47.25202" lon="-2.30152">
        <ele>82</ele>
        <time>2019-09-08T09:49:58Z</time>
      </trkpt>
      <trkpt lat="47.25199" lon="-2.30147">
        <ele>83</ele>
        <time>2019-09-08T09:49:59Z</time>
      </trkpt>
      <trkpt lat="47.25196" lon="-2.3014">
        <ele>82</ele>
        <time>2019-09-08T09:50:00Z</time>
      </trkpt>
      <trkpt lat="47.2519" lon="-2.30129">
        <ele>83</ele>
        <time>2019-09-08T09:50:02Z</time>
      </trkpt>
      <trkpt lat="47.25183" lon="-2.30121">
        <ele>83</ele>
        <time>2019-09-08T09:50:04Z</time>
      </trkpt>
      <trkpt lat="47.25173" lon="-2.3012">
        <ele>83</ele>
        <time>2019-09-08T09:50:06Z</time>
      </trkpt>
      <trkpt lat="47.25167" lon="-2.3012">
        <ele>83</ele>
        <time>2019-09-08T09:50:07Z</time>
      </trkpt>
      <trkpt lat="47.25161" lon="-2.30121">
        <ele>84</ele>
        <time>2019-09-08T09:50:08Z</time>
      </trkpt>
      <trkpt lat="47.25156" lon="-2.30122">
        <ele>84</ele>
        <time>2019-09-08T09:50:09Z</time>
      </trkpt>
      <trkpt lat="47.2515" lon="-2.30122">
        <ele>84</ele>
        <time>2019-09-08T09:50:10Z</time>
      </trkpt>
      <trkpt lat="47.25145" lon="-2.30124">
        <ele>84</ele>
        <time>2019-09-08T09:50:11Z</time>
      </trkpt>
      <trkpt lat="47.25131" lon="-2.30127">
        <ele>85</ele>
        <time>2019-09-08T09:50:14Z</time>
      </trkpt>
      <trkpt lat="47.25126" lon="-2.30127">
        <ele>85</ele>
        <time>2019-09-08T09:50:15Z</time>
      </trkpt>
      <trkpt lat="47.25117" lon="-2.30127">
        <ele>86</ele>
        <time>2019-09-08T09:50:17Z</time>
      </trkpt>
      <trkpt lat="47.25106" lon="-2.30129">
        <ele>86</ele>
        <time>2019-09-08T09:50:19Z</time>
      </trkpt>
      <trkpt lat="47.25096" lon="-2.30132">
        <ele>88</ele>
        <time>2019-09-08T09:50:21Z</time>
      </trkpt>
      <trkpt lat="47.25092" lon="-2.30133">
        <ele>88</ele>
        <time>2019-09-08T09:50:22Z</time>
      </trkpt>
      <trkpt lat="47.25087" lon="-2.30134">
        <ele>89</ele>
        <time>2019-09-08T09:50:23Z</time>
      </trkpt>
      <trkpt lat="47.25075" lon="-2.30136">
        <ele>89</ele>
        <time>2019-09-08T09:50:26Z</time>
      </trkpt>
      <trkpt lat="47.25069" lon="-2.30134">
        <ele>89</ele>
        <time>2019-09-08T09:50:29Z</time>
      </trkpt>
      <trkpt lat="47.25068" lon="-2.30122">
        <ele>88</ele>
        <time>2019-09-08T09:50:32Z</time>
      </trkpt>
      <trkpt lat="47.25068" lon="-2.30112">
        <ele>88</ele>
        <time>2019-09-08T09:50:35Z</time>
      </trkpt>
      <trkpt lat="47.25068" lon="-2.30101">
        <ele>88</ele>
        <time>2019-09-08T09:50:38Z</time>
      </trkpt>
      <trkpt lat="47.25068" lon="-2.30097">
        <ele>88</ele>
        <time>2019-09-08T09:50:39Z</time>
      </trkpt>
      <trkpt lat="47.25069" lon="-2.30093">
        <ele>88</ele>
        <time>2019-09-08T09:50:40Z</time>
      </trkpt>
      <trkpt lat="47.25069" lon="-2.30087">
        <ele>88</ele>
        <time>2019-09-08T09:50:42Z</time>
      </trkpt>
      <trkpt lat="47.2507" lon="-2.30078">
        <ele>88</ele>
        <time>2019-09-08T09:50:45Z</time>
      </trkpt>
      <trkpt lat="47.25071" lon="-2.30073">
        <ele>88</ele>
        <time>2019-09-08T09:50:47Z</time>
      </trkpt>
      <trkpt lat="47.25072" lon="-2.30067">
        <ele>89</ele>
        <time>2019-09-08T09:50:49Z</time>
      </trkpt>
      <trkpt lat="47.25071" lon="-2.30061">
        <ele>88</ele>
        <time>2019-09-08T09:50:55Z</time>
      </trkpt>
      <trkpt lat="47.25071" lon="-2.30061">
        <ele>36</ele>
        <time>2019-09-08T09:51:03Z</time>
      </trkpt>
      <trkpt lat="47.25071" lon="-2.30061">
        <ele>36</ele>
        <time>2019-09-08T09:51:42Z</time>
      </trkpt>
      <trkpt lat="47.25041" lon="-2.30056">
        <ele>92</ele>
        <time>2019-09-08T09:51:42Z</time>
      </trkpt>
      <trkpt lat="47.25012" lon="-2.30057">
        <ele>88</ele>
        <time>2019-09-08T09:51:48Z</time>
      </trkpt>
      <trkpt lat="47.25006" lon="-2.30056">
        <ele>90</ele>
        <time>2019-09-08T09:51:49Z</time>
      </trkpt>
      <trkpt lat="47.24989" lon="-2.30056">
        <ele>86</ele>
        <time>2019-09-08T09:51:52Z</time>
      </trkpt>
      <trkpt lat="47.24984" lon="-2.30057">
        <ele>86</ele>
        <time>2019-09-08T09:51:53Z</time>
      </trkpt>
      <trkpt lat="47.24979" lon="-2.30058">
        <ele>87</ele>
        <time>2019-09-08T09:51:54Z</time>
      </trkpt>
      <trkpt lat="47.24973" lon="-2.30057">
        <ele>88</ele>
        <time>2019-09-08T09:51:55Z</time>
      </trkpt>
      <trkpt lat="47.24968" lon="-2.30057">
        <ele>89</ele>
        <time>2019-09-08T09:51:56Z</time>
      </trkpt>
      <trkpt lat="47.24957" lon="-2.30057">
        <ele>89</ele>
        <time>2019-09-08T09:51:58Z</time>
      </trkpt>
      <trkpt lat="47.24951" lon="-2.30057">
        <ele>88</ele>
        <time>2019-09-08T09:51:59Z</time>
      </trkpt>
      <trkpt lat="47.24945" lon="-2.30057">
        <ele>89</ele>
        <time>2019-09-08T09:52:00Z</time>
      </trkpt>
      <trkpt lat="47.24939" lon="-2.30057">
        <ele>89</ele>
        <time>2019-09-08T09:52:01Z</time>
      </trkpt>
      <trkpt lat="47.24934" lon="-2.30057">
        <ele>89</ele>
        <time>2019-09-08T09:52:02Z</time>
      </trkpt>
      <trkpt lat="47.24928" lon="-2.30057">
        <ele>89</ele>
        <time>2019-09-08T09:52:03Z</time>
      </trkpt>
      <trkpt lat="47.24923" lon="-2.30057">
        <ele>90</ele>
        <time>2019-09-08T09:52:04Z</time>
      </trkpt>
      <trkpt lat="47.24918" lon="-2.30057">
        <ele>89</ele>
        <time>2019-09-08T09:52:05Z</time>
      </trkpt>
      <trkpt lat="47.24908" lon="-2.30057">
        <ele>88</ele>
        <time>2019-09-08T09:52:07Z</time>
      </trkpt>
      <trkpt lat="47.24904" lon="-2.30049">
        <ele>89</ele>
        <time>2019-09-08T09:52:09Z</time>
      </trkpt>
      <trkpt lat="47.24903" lon="-2.30035">
        <ele>89</ele>
        <time>2019-09-08T09:52:11Z</time>
      </trkpt>
      <trkpt lat="47.24902" lon="-2.30028">
        <ele>88</ele>
        <time>2019-09-08T09:52:12Z</time>
      </trkpt>
      <trkpt lat="47.24901" lon="-2.3002">
        <ele>88</ele>
        <time>2019-09-08T09:52:13Z</time>
      </trkpt>
      <trkpt lat="47.24899" lon="-2.30013">
        <ele>89</ele>
        <time>2019-09-08T09:52:14Z</time>
      </trkpt>
      <trkpt lat="47.24895" lon="-2.2999">
        <ele>89</ele>
        <time>2019-09-08T09:52:17Z</time>
      </trkpt>
      <trkpt lat="47.24893" lon="-2.29982">
        <ele>89</ele>
        <time>2019-09-08T09:52:18Z</time>
      </trkpt>
      <trkpt lat="47.24887" lon="-2.29959">
        <ele>89</ele>
        <time>2019-09-08T09:52:21Z</time>
      </trkpt>
      <trkpt lat="47.24885" lon="-2.29951">
        <ele>89</ele>
        <time>2019-09-08T09:52:22Z</time>
      </trkpt>
      <trkpt lat="47.24881" lon="-2.29936">
        <ele>89</ele>
        <time>2019-09-08T09:52:24Z</time>
      </trkpt>
      <trkpt lat="47.24878" lon="-2.29913">
        <ele>89</ele>
        <time>2019-09-08T09:52:27Z</time>
      </trkpt>
      <trkpt lat="47.24877" lon="-2.29905">
        <ele>89</ele>
        <time>2019-09-08T09:52:28Z</time>
      </trkpt>
      <trkpt lat="47.24877" lon="-2.29897">
        <ele>89</ele>
        <time>2019-09-08T09:52:29Z</time>
      </trkpt>
      <trkpt lat="47.24876" lon="-2.2989">
        <ele>89</ele>
        <time>2019-09-08T09:52:30Z</time>
      </trkpt>
      <trkpt lat="47.24875" lon="-2.29883">
        <ele>89</ele>
        <time>2019-09-08T09:52:31Z</time>
      </trkpt>
      <trkpt lat="47.24874" lon="-2.29875">
        <ele>89</ele>
        <time>2019-09-08T09:52:32Z</time>
      </trkpt>
      <trkpt lat="47.2487" lon="-2.2986">
        <ele>89</ele>
        <time>2019-09-08T09:52:34Z</time>
      </trkpt>
      <trkpt lat="47.24868" lon="-2.29846">
        <ele>90</ele>
        <time>2019-09-08T09:52:36Z</time>
      </trkpt>
      <trkpt lat="47.24867" lon="-2.2984">
        <ele>90</ele>
        <time>2019-09-08T09:52:37Z</time>
      </trkpt>
      <trkpt lat="47.24864" lon="-2.29832">
        <ele>90</ele>
        <time>2019-09-08T09:52:39Z</time>
      </trkpt>
      <trkpt lat="47.24859" lon="-2.29833">
        <ele>90</ele>
        <time>2019-09-08T09:52:41Z</time>
      </trkpt>
      <trkpt lat="47.24854" lon="-2.29838">
        <ele>91</ele>
        <time>2019-09-08T09:52:43Z</time>
      </trkpt>
      <trkpt lat="47.24845" lon="-2.29842">
        <ele>91</ele>
        <time>2019-09-08T09:52:45Z</time>
      </trkpt>
      <trkpt lat="47.24841" lon="-2.29843">
        <ele>91</ele>
        <time>2019-09-08T09:52:46Z</time>
      </trkpt>
      <trkpt lat="47.24831" lon="-2.29846">
        <ele>90</ele>
        <time>2019-09-08T09:52:48Z</time>
      </trkpt>
      <trkpt lat="47.24821" lon="-2.29849">
        <ele>91</ele>
        <time>2019-09-08T09:52:50Z</time>
      </trkpt>
      <trkpt lat="47.24816" lon="-2.29851">
        <ele>91</ele>
        <time>2019-09-08T09:52:51Z</time>
      </trkpt>
      <trkpt lat="47.24812" lon="-2.29852">
        <ele>91</ele>
        <time>2019-09-08T09:52:52Z</time>
      </trkpt>
      <trkpt lat="47.24807" lon="-2.29854">
        <ele>91</ele>
        <time>2019-09-08T09:52:53Z</time>
      </trkpt>
      <trkpt lat="47.24798" lon="-2.2986">
        <ele>91</ele>
        <time>2019-09-08T09:52:55Z</time>
      </trkpt>
      <trkpt lat="47.2479" lon="-2.29864">
        <ele>92</ele>
        <time>2019-09-08T09:52:57Z</time>
      </trkpt>
      <trkpt lat="47.24782" lon="-2.29869">
        <ele>92</ele>
        <time>2019-09-08T09:52:59Z</time>
      </trkpt>
      <trkpt lat="47.2478" lon="-2.29871">
        <ele>92</ele>
        <time>2019-09-08T09:53:00Z</time>
      </trkpt>
      <trkpt lat="47.24773" lon="-2.29875">
        <ele>92</ele>
        <time>2019-09-08T09:53:03Z</time>
      </trkpt>
      <trkpt lat="47.24771" lon="-2.29878">
        <ele>92</ele>
        <time>2019-09-08T09:53:04Z</time>
      </trkpt>
      <trkpt lat="47.24765" lon="-2.29883">
        <ele>93</ele>
        <time>2019-09-08T09:53:06Z</time>
      </trkpt>
      <trkpt lat="47.24762" lon="-2.29886">
        <ele>93</ele>
        <time>2019-09-08T09:53:07Z</time>
      </trkpt>
      <trkpt lat="47.24759" lon="-2.29889">
        <ele>93</ele>
        <time>2019-09-08T09:53:08Z</time>
      </trkpt>
      <trkpt lat="47.24756" lon="-2.29892">
        <ele>93</ele>
        <time>2019-09-08T09:53:09Z</time>
      </trkpt>
      <trkpt lat="47.24752" lon="-2.299">
        <ele>93</ele>
        <time>2019-09-08T09:53:11Z</time>
      </trkpt>
      <trkpt lat="47.24749" lon="-2.29911">
        <ele>91</ele>
        <time>2019-09-08T09:53:13Z</time>
      </trkpt>
      <trkpt lat="47.24747" lon="-2.29917">
        <ele>91</ele>
        <time>2019-09-08T09:53:14Z</time>
      </trkpt>
      <trkpt lat="47.24747" lon="-2.29929">
        <ele>90</ele>
        <time>2019-09-08T09:53:16Z</time>
      </trkpt>
      <trkpt lat="47.24746" lon="-2.29936">
        <ele>89</ele>
        <time>2019-09-08T09:53:17Z</time>
      </trkpt>
      <trkpt lat="47.24746" lon="-2.29943">
        <ele>89</ele>
        <time>2019-09-08T09:53:18Z</time>
      </trkpt>
      <trkpt lat="47.24745" lon="-2.2995">
        <ele>89</ele>
        <time>2019-09-08T09:53:19Z</time>
      </trkpt>
      <trkpt lat="47.24745" lon="-2.29957">
        <ele>89</ele>
        <time>2019-09-08T09:53:20Z</time>
      </trkpt>
      <trkpt lat="47.24745" lon="-2.29964">
        <ele>89</ele>
        <time>2019-09-08T09:53:21Z</time>
      </trkpt>
      <trkpt lat="47.24743" lon="-2.29977">
        <ele>88</ele>
        <time>2019-09-08T09:53:24Z</time>
      </trkpt>
      <trkpt lat="47.24737" lon="-2.29994">
        <ele>89</ele>
        <time>2019-09-08T09:53:26Z</time>
      </trkpt>
      <trkpt lat="47.24734" lon="-2.29999">
        <ele>89</ele>
        <time>2019-09-08T09:53:27Z</time>
      </trkpt>
      <trkpt lat="47.24729" lon="-2.30009">
        <ele>89</ele>
        <time>2019-09-08T09:53:29Z</time>
      </trkpt>
      <trkpt lat="47.24722" lon="-2.30017">
        <ele>89</ele>
        <time>2019-09-08T09:53:31Z</time>
      </trkpt>
      <trkpt lat="47.24719" lon="-2.30022">
        <ele>89</ele>
        <time>2019-09-08T09:53:32Z</time>
      </trkpt>
      <trkpt lat="47.24709" lon="-2.30033">
        <ele>89</ele>
        <time>2019-09-08T09:53:36Z</time>
      </trkpt>
      <trkpt lat="47.24706" lon="-2.30037">
        <ele>88</ele>
        <time>2019-09-08T09:53:37Z</time>
      </trkpt>
      <trkpt lat="47.24696" lon="-2.30048">
        <ele>88</ele>
        <time>2019-09-08T09:53:39Z</time>
      </trkpt>
      <trkpt lat="47.24686" lon="-2.30055">
        <ele>88</ele>
        <time>2019-09-08T09:53:42Z</time>
      </trkpt>
      <trkpt lat="47.24682" lon="-2.30058">
        <ele>88</ele>
        <time>2019-09-08T09:53:43Z</time>
      </trkpt>
      <trkpt lat="47.24679" lon="-2.30061">
        <ele>88</ele>
        <time>2019-09-08T09:53:44Z</time>
      </trkpt>
      <trkpt lat="47.24671" lon="-2.30067">
        <ele>88</ele>
        <time>2019-09-08T09:53:46Z</time>
      </trkpt>
      <trkpt lat="47.24667" lon="-2.3007">
        <ele>87</ele>
        <time>2019-09-08T09:53:47Z</time>
      </trkpt>
      <trkpt lat="47.24663" lon="-2.30074">
        <ele>87</ele>
        <time>2019-09-08T09:53:48Z</time>
      </trkpt>
      <trkpt lat="47.2466" lon="-2.30076">
        <ele>87</ele>
        <time>2019-09-08T09:53:49Z</time>
      </trkpt>
      <trkpt lat="47.24658" lon="-2.30078">
        <ele>87</ele>
        <time>2019-09-08T09:53:50Z</time>
      </trkpt>
      <trkpt lat="47.24654" lon="-2.30081">
        <ele>87</ele>
        <time>2019-09-08T09:53:52Z</time>
      </trkpt>
      <trkpt lat="47.24651" lon="-2.30084">
        <ele>88</ele>
        <time>2019-09-08T09:53:54Z</time>
      </trkpt>
      <trkpt lat="47.24646" lon="-2.3009">
        <ele>88</ele>
        <time>2019-09-08T09:53:56Z</time>
      </trkpt>
      <trkpt lat="47.24642" lon="-2.30093">
        <ele>87</ele>
        <time>2019-09-08T09:53:57Z</time>
      </trkpt>
      <trkpt lat="47.24638" lon="-2.30096">
        <ele>88</ele>
        <time>2019-09-08T09:53:58Z</time>
      </trkpt>
      <trkpt lat="47.24631" lon="-2.30104">
        <ele>88</ele>
        <time>2019-09-08T09:54:00Z</time>
      </trkpt>
      <trkpt lat="47.24627" lon="-2.30107">
        <ele>88</ele>
        <time>2019-09-08T09:54:01Z</time>
      </trkpt>
      <trkpt lat="47.24623" lon="-2.30111">
        <ele>88</ele>
        <time>2019-09-08T09:54:02Z</time>
      </trkpt>
      <trkpt lat="47.2462" lon="-2.30114">
        <ele>88</ele>
        <time>2019-09-08T09:54:03Z</time>
      </trkpt>
      <trkpt lat="47.24608" lon="-2.30124">
        <ele>88</ele>
        <time>2019-09-08T09:54:06Z</time>
      </trkpt>
      <trkpt lat="47.24599" lon="-2.30133">
        <ele>87</ele>
        <time>2019-09-08T09:54:08Z</time>
      </trkpt>
      <trkpt lat="47.24595" lon="-2.30138">
        <ele>87</ele>
        <time>2019-09-08T09:54:09Z</time>
      </trkpt>
      <trkpt lat="47.24584" lon="-2.30158">
        <ele>86</ele>
        <time>2019-09-08T09:54:12Z</time>
      </trkpt>
      <trkpt lat="47.2458" lon="-2.30164">
        <ele>86</ele>
        <time>2019-09-08T09:54:13Z</time>
      </trkpt>
      <trkpt lat="47.24576" lon="-2.3017">
        <ele>86</ele>
        <time>2019-09-08T09:54:14Z</time>
      </trkpt>
      <trkpt lat="47.24572" lon="-2.30176">
        <ele>86</ele>
        <time>2019-09-08T09:54:15Z</time>
      </trkpt>
      <trkpt lat="47.24568" lon="-2.30182">
        <ele>85</ele>
        <time>2019-09-08T09:54:16Z</time>
      </trkpt>
      <trkpt lat="47.24564" lon="-2.30187">
        <ele>85</ele>
        <time>2019-09-08T09:54:17Z</time>
      </trkpt>
      <trkpt lat="47.2456" lon="-2.30193">
        <ele>85</ele>
        <time>2019-09-08T09:54:18Z</time>
      </trkpt>
      <trkpt lat="47.24547" lon="-2.30208">
        <ele>84</ele>
        <time>2019-09-08T09:54:21Z</time>
      </trkpt>
      <trkpt lat="47.24542" lon="-2.30213">
        <ele>84</ele>
        <time>2019-09-08T09:54:22Z</time>
      </trkpt>
      <trkpt lat="47.24537" lon="-2.30218">
        <ele>84</ele>
        <time>2019-09-08T09:54:23Z</time>
      </trkpt>
      <trkpt lat="47.24533" lon="-2.30223">
        <ele>84</ele>
        <time>2019-09-08T09:54:24Z</time>
      </trkpt>
      <trkpt lat="47.24513" lon="-2.30241">
        <ele>84</ele>
        <time>2019-09-08T09:54:28Z</time>
      </trkpt>
      <trkpt lat="47.24508" lon="-2.30246">
        <ele>85</ele>
        <time>2019-09-08T09:54:29Z</time>
      </trkpt>
      <trkpt lat="47.24491" lon="-2.30261">
        <ele>84</ele>
        <time>2019-09-08T09:54:32Z</time>
      </trkpt>
      <trkpt lat="47.24486" lon="-2.30267">
        <ele>84</ele>
        <time>2019-09-08T09:54:33Z</time>
      </trkpt>
      <trkpt lat="47.24482" lon="-2.30275">
        <ele>84</ele>
        <time>2019-09-08T09:54:34Z</time>
      </trkpt>
      <trkpt lat="47.24478" lon="-2.30283">
        <ele>84</ele>
        <time>2019-09-08T09:54:35Z</time>
      </trkpt>
      <trkpt lat="47.24471" lon="-2.30303">
        <ele>83</ele>
        <time>2019-09-08T09:54:37Z</time>
      </trkpt>
      <trkpt lat="47.2447" lon="-2.30314">
        <ele>83</ele>
        <time>2019-09-08T09:54:38Z</time>
      </trkpt>
      <trkpt lat="47.24467" lon="-2.30348">
        <ele>81</ele>
        <time>2019-09-08T09:54:41Z</time>
      </trkpt>
      <trkpt lat="47.24466" lon="-2.3036">
        <ele>81</ele>
        <time>2019-09-08T09:54:42Z</time>
      </trkpt>
      <trkpt lat="47.24465" lon="-2.30372">
        <ele>81</ele>
        <time>2019-09-08T09:54:43Z</time>
      </trkpt>
      <trkpt lat="47.24463" lon="-2.30422">
        <ele>81</ele>
        <time>2019-09-08T09:54:47Z</time>
      </trkpt>
      <trkpt lat="47.24463" lon="-2.30436">
        <ele>81</ele>
        <time>2019-09-08T09:54:48Z</time>
      </trkpt>
      <trkpt lat="47.24467" lon="-2.30462">
        <ele>81</ele>
        <time>2019-09-08T09:54:50Z</time>
      </trkpt>
      <trkpt lat="47.24479" lon="-2.30495">
        <ele>79</ele>
        <time>2019-09-08T09:54:53Z</time>
      </trkpt>
      <trkpt lat="47.24479" lon="-2.30506">
        <ele>78</ele>
        <time>2019-09-08T09:54:54Z</time>
      </trkpt>
      <trkpt lat="47.24479" lon="-2.30518">
        <ele>77</ele>
        <time>2019-09-08T09:54:55Z</time>
      </trkpt>
      <trkpt lat="47.24475" lon="-2.30539">
        <ele>77</ele>
        <time>2019-09-08T09:54:58Z</time>
      </trkpt>
      <trkpt lat="47.24474" lon="-2.30549">
        <ele>76</ele>
        <time>2019-09-08T09:54:59Z</time>
      </trkpt>
      <trkpt lat="47.24472" lon="-2.30558">
        <ele>76</ele>
        <time>2019-09-08T09:55:00Z</time>
      </trkpt>
      <trkpt lat="47.2447" lon="-2.30567">
        <ele>75</ele>
        <time>2019-09-08T09:55:01Z</time>
      </trkpt>
      <trkpt lat="47.24467" lon="-2.30575">
        <ele>76</ele>
        <time>2019-09-08T09:55:02Z</time>
      </trkpt>
      <trkpt lat="47.24457" lon="-2.30598">
        <ele>76</ele>
        <time>2019-09-08T09:55:04Z</time>
      </trkpt>
      <trkpt lat="47.24445" lon="-2.30611">
        <ele>76</ele>
        <time>2019-09-08T09:55:07Z</time>
      </trkpt>
      <trkpt lat="47.2444" lon="-2.30615">
        <ele>77</ele>
        <time>2019-09-08T09:55:08Z</time>
      </trkpt>
      <trkpt lat="47.24428" lon="-2.30624">
        <ele>78</ele>
        <time>2019-09-08T09:55:12Z</time>
      </trkpt>
      <trkpt lat="47.24421" lon="-2.30632">
        <ele>79</ele>
        <time>2019-09-08T09:55:14Z</time>
      </trkpt>
      <trkpt lat="47.24417" lon="-2.30638">
        <ele>79</ele>
        <time>2019-09-08T09:55:15Z</time>
      </trkpt>
      <trkpt lat="47.2441" lon="-2.30651">
        <ele>81</ele>
        <time>2019-09-08T09:55:17Z</time>
      </trkpt>
      <trkpt lat="47.24408" lon="-2.30666">
        <ele>81</ele>
        <time>2019-09-08T09:55:19Z</time>
      </trkpt>
      <trkpt lat="47.24406" lon="-2.30675">
        <ele>81</ele>
        <time>2019-09-08T09:55:20Z</time>
      </trkpt>
      <trkpt lat="47.24399" lon="-2.30704">
        <ele>82</ele>
        <time>2019-09-08T09:55:23Z</time>
      </trkpt>
      <trkpt lat="47.24397" lon="-2.30721">
        <ele>83</ele>
        <time>2019-09-08T09:55:27Z</time>
      </trkpt>
      <trkpt lat="47.24395" lon="-2.30729">
        <ele>84</ele>
        <time>2019-09-08T09:55:28Z</time>
      </trkpt>
      <trkpt lat="47.24392" lon="-2.30737">
        <ele>84</ele>
        <time>2019-09-08T09:55:30Z</time>
      </trkpt>
      <trkpt lat="47.24383" lon="-2.30747">
        <ele>85</ele>
        <time>2019-09-08T09:55:33Z</time>
      </trkpt>
      <trkpt lat="47.24372" lon="-2.30771">
        <ele>84</ele>
        <time>2019-09-08T09:55:37Z</time>
      </trkpt>
      <trkpt lat="47.24368" lon="-2.30776">
        <ele>84</ele>
        <time>2019-09-08T09:55:38Z</time>
      </trkpt>
      <trkpt lat="47.24363" lon="-2.3078">
        <ele>85</ele>
        <time>2019-09-08T09:55:39Z</time>
      </trkpt>
      <trkpt lat="47.24338" lon="-2.30793">
        <ele>85</ele>
        <time>2019-09-08T09:55:43Z</time>
      </trkpt>
      <trkpt lat="47.24325" lon="-2.308">
        <ele>84</ele>
        <time>2019-09-08T09:55:45Z</time>
      </trkpt>
      <trkpt lat="47.2432" lon="-2.30805">
        <ele>84</ele>
        <time>2019-09-08T09:55:46Z</time>
      </trkpt>
      <trkpt lat="47.24305" lon="-2.30818">
        <ele>84</ele>
        <time>2019-09-08T09:55:49Z</time>
      </trkpt>
      <trkpt lat="47.24301" lon="-2.30823">
        <ele>84</ele>
        <time>2019-09-08T09:55:50Z</time>
      </trkpt>
      <trkpt lat="47.24298" lon="-2.30829">
        <ele>84</ele>
        <time>2019-09-08T09:55:51Z</time>
      </trkpt>
      <trkpt lat="47.24295" lon="-2.30836">
        <ele>84</ele>
        <time>2019-09-08T09:55:52Z</time>
      </trkpt>
      <trkpt lat="47.24291" lon="-2.30842">
        <ele>83</ele>
        <time>2019-09-08T09:55:53Z</time>
      </trkpt>
      <trkpt lat="47.24281" lon="-2.30864">
        <ele>82</ele>
        <time>2019-09-08T09:55:57Z</time>
      </trkpt>
      <trkpt lat="47.24281" lon="-2.30872">
        <ele>82</ele>
        <time>2019-09-08T09:55:58Z</time>
      </trkpt>
      <trkpt lat="47.24288" lon="-2.3092">
        <ele>82</ele>
        <time>2019-09-08T09:56:03Z</time>
      </trkpt>
      <trkpt lat="47.24288" lon="-2.30933">
        <ele>82</ele>
        <time>2019-09-08T09:56:04Z</time>
      </trkpt>
      <trkpt lat="47.24287" lon="-2.30944">
        <ele>81</ele>
        <time>2019-09-08T09:56:05Z</time>
      </trkpt>
      <trkpt lat="47.24286" lon="-2.30957">
        <ele>81</ele>
        <time>2019-09-08T09:56:06Z</time>
      </trkpt>
      <trkpt lat="47.24285" lon="-2.30969">
        <ele>80</ele>
        <time>2019-09-08T09:56:07Z</time>
      </trkpt>
      <trkpt lat="47.24284" lon="-2.30981">
        <ele>79</ele>
        <time>2019-09-08T09:56:08Z</time>
      </trkpt>
      <trkpt lat="47.24283" lon="-2.30992">
        <ele>79</ele>
        <time>2019-09-08T09:56:09Z</time>
      </trkpt>
      <trkpt lat="47.24281" lon="-2.31016">
        <ele>78</ele>
        <time>2019-09-08T09:56:12Z</time>
      </trkpt>
      <trkpt lat="47.24285" lon="-2.31027">
        <ele>78</ele>
        <time>2019-09-08T09:56:15Z</time>
      </trkpt>
      <trkpt lat="47.2429" lon="-2.31031">
        <ele>77</ele>
        <time>2019-09-08T09:56:17Z</time>
      </trkpt>
      <trkpt lat="47.24295" lon="-2.31034">
        <ele>77</ele>
        <time>2019-09-08T09:56:19Z</time>
      </trkpt>
      <trkpt lat="47.24302" lon="-2.31036">
        <ele>77</ele>
        <time>2019-09-08T09:56:21Z</time>
      </trkpt>
      <trkpt lat="47.2431" lon="-2.31036">
        <ele>76</ele>
        <time>2019-09-08T09:56:23Z</time>
      </trkpt>
      <trkpt lat="47.24317" lon="-2.31038">
        <ele>76</ele>
        <time>2019-09-08T09:56:25Z</time>
      </trkpt>
      <trkpt lat="47.2433" lon="-2.31046">
        <ele>76</ele>
        <time>2019-09-08T09:56:28Z</time>
      </trkpt>
      <trkpt lat="47.24335" lon="-2.31051">
        <ele>76</ele>
        <time>2019-09-08T09:56:29Z</time>
      </trkpt>
      <trkpt lat="47.24346" lon="-2.31071">
        <ele>77</ele>
        <time>2019-09-08T09:56:32Z</time>
      </trkpt>
      <trkpt lat="47.24348" lon="-2.31078">
        <ele>77</ele>
        <time>2019-09-08T09:56:33Z</time>
      </trkpt>
      <trkpt lat="47.24351" lon="-2.31086">
        <ele>77</ele>
        <time>2019-09-08T09:56:34Z</time>
      </trkpt>
      <trkpt lat="47.24356" lon="-2.31109">
        <ele>75</ele>
        <time>2019-09-08T09:56:37Z</time>
      </trkpt>
      <trkpt lat="47.24358" lon="-2.31117">
        <ele>74</ele>
        <time>2019-09-08T09:56:38Z</time>
      </trkpt>
      <trkpt lat="47.24361" lon="-2.31123">
        <ele>74</ele>
        <time>2019-09-08T09:56:39Z</time>
      </trkpt>
      <trkpt lat="47.2437" lon="-2.31142">
        <ele>73</ele>
        <time>2019-09-08T09:56:42Z</time>
      </trkpt>
      <trkpt lat="47.24373" lon="-2.31149">
        <ele>73</ele>
        <time>2019-09-08T09:56:43Z</time>
      </trkpt>
      <trkpt lat="47.24378" lon="-2.31154">
        <ele>73</ele>
        <time>2019-09-08T09:56:44Z</time>
      </trkpt>
      <trkpt lat="47.24381" lon="-2.3116">
        <ele>73</ele>
        <time>2019-09-08T09:56:45Z</time>
      </trkpt>
      <trkpt lat="47.24386" lon="-2.31166">
        <ele>73</ele>
        <time>2019-09-08T09:56:46Z</time>
      </trkpt>
      <trkpt lat="47.2439" lon="-2.31171">
        <ele>73</ele>
        <time>2019-09-08T09:56:47Z</time>
      </trkpt>
      <trkpt lat="47.24403" lon="-2.3118">
        <ele>73</ele>
        <time>2019-09-08T09:56:50Z</time>
      </trkpt>
      <trkpt lat="47.24409" lon="-2.31187">
        <ele>72</ele>
        <time>2019-09-08T09:56:53Z</time>
      </trkpt>
      <trkpt lat="47.24414" lon="-2.31199">
        <ele>72</ele>
        <time>2019-09-08T09:56:56Z</time>
      </trkpt>
      <trkpt lat="47.24416" lon="-2.31205">
        <ele>72</ele>
        <time>2019-09-08T09:56:57Z</time>
      </trkpt>
      <trkpt lat="47.24418" lon="-2.31211">
        <ele>72</ele>
        <time>2019-09-08T09:56:58Z</time>
      </trkpt>
      <trkpt lat="47.24424" lon="-2.31221">
        <ele>70</ele>
        <time>2019-09-08T09:57:00Z</time>
      </trkpt>
      <trkpt lat="47.24429" lon="-2.31224">
        <ele>70</ele>
        <time>2019-09-08T09:57:02Z</time>
      </trkpt>
      <trkpt lat="47.24435" lon="-2.31226">
        <ele>70</ele>
        <time>2019-09-08T09:57:05Z</time>
      </trkpt>
      <trkpt lat="47.24438" lon="-2.31227">
        <ele>71</ele>
        <time>2019-09-08T09:57:06Z</time>
      </trkpt>
      <trkpt lat="47.24442" lon="-2.31228">
        <ele>71</ele>
        <time>2019-09-08T09:57:08Z</time>
      </trkpt>
      <trkpt lat="47.24447" lon="-2.31229">
        <ele>72</ele>
        <time>2019-09-08T09:57:10Z</time>
      </trkpt>
      <trkpt lat="47.24453" lon="-2.31242">
        <ele>72</ele>
        <time>2019-09-08T09:57:12Z</time>
      </trkpt>
      <trkpt lat="47.24455" lon="-2.31248">
        <ele>72</ele>
        <time>2019-09-08T09:57:13Z</time>
      </trkpt>
      <trkpt lat="47.24457" lon="-2.31252">
        <ele>72</ele>
        <time>2019-09-08T09:57:14Z</time>
      </trkpt>
      <trkpt lat="47.24461" lon="-2.31263">
        <ele>72</ele>
        <time>2019-09-08T09:57:16Z</time>
      </trkpt>
      <trkpt lat="47.24463" lon="-2.3127">
        <ele>71</ele>
        <time>2019-09-08T09:57:17Z</time>
      </trkpt>
      <trkpt lat="47.24467" lon="-2.31277">
        <ele>71</ele>
        <time>2019-09-08T09:57:18Z</time>
      </trkpt>
      <trkpt lat="47.2447" lon="-2.31283">
        <ele>71</ele>
        <time>2019-09-08T09:57:19Z</time>
      </trkpt>
      <trkpt lat="47.24473" lon="-2.31289">
        <ele>71</ele>
        <time>2019-09-08T09:57:20Z</time>
      </trkpt>
      <trkpt lat="47.24475" lon="-2.31295">
        <ele>72</ele>
        <time>2019-09-08T09:57:22Z</time>
      </trkpt>
      <trkpt lat="47.24478" lon="-2.31301">
        <ele>72</ele>
        <time>2019-09-08T09:57:23Z</time>
      </trkpt>
      <trkpt lat="47.2448" lon="-2.31306">
        <ele>72</ele>
        <time>2019-09-08T09:57:24Z</time>
      </trkpt>
      <trkpt lat="47.24483" lon="-2.31312">
        <ele>71</ele>
        <time>2019-09-08T09:57:26Z</time>
      </trkpt>
      <trkpt lat="47.24487" lon="-2.31318">
        <ele>72</ele>
        <time>2019-09-08T09:57:28Z</time>
      </trkpt>
      <trkpt lat="47.24489" lon="-2.31324">
        <ele>72</ele>
        <time>2019-09-08T09:57:30Z</time>
      </trkpt>
      <trkpt lat="47.24492" lon="-2.31334">
        <ele>72</ele>
        <time>2019-09-08T09:57:33Z</time>
      </trkpt>
      <trkpt lat="47.24497" lon="-2.31347">
        <ele>73</ele>
        <time>2019-09-08T09:57:37Z</time>
      </trkpt>
      <trkpt lat="47.24505" lon="-2.31357">
        <ele>73</ele>
        <time>2019-09-08T09:57:40Z</time>
      </trkpt>
      <trkpt lat="47.24513" lon="-2.31366">
        <ele>74</ele>
        <time>2019-09-08T09:57:42Z</time>
      </trkpt>
      <trkpt lat="47.24516" lon="-2.3137">
        <ele>74</ele>
        <time>2019-09-08T09:57:43Z</time>
      </trkpt>
      <trkpt lat="47.24519" lon="-2.31374">
        <ele>74</ele>
        <time>2019-09-08T09:57:44Z</time>
      </trkpt>
      <trkpt lat="47.24522" lon="-2.31378">
        <ele>74</ele>
        <time>2019-09-08T09:57:45Z</time>
      </trkpt>
      <trkpt lat="47.24524" lon="-2.31381">
        <ele>74</ele>
        <time>2019-09-08T09:57:46Z</time>
      </trkpt>
      <trkpt lat="47.24532" lon="-2.31387">
        <ele>74</ele>
        <time>2019-09-08T09:57:48Z</time>
      </trkpt>
      <trkpt lat="47.24539" lon="-2.31391">
        <ele>74</ele>
        <time>2019-09-08T09:57:50Z</time>
      </trkpt>
      <trkpt lat="47.24551" lon="-2.31394">
        <ele>74</ele>
        <time>2019-09-08T09:57:53Z</time>
      </trkpt>
      <trkpt lat="47.24555" lon="-2.31394">
        <ele>74</ele>
        <time>2019-09-08T09:57:54Z</time>
      </trkpt>
      <trkpt lat="47.2457" lon="-2.314">
        <ele>74</ele>
        <time>2019-09-08T09:57:58Z</time>
      </trkpt>
      <trkpt lat="47.24574" lon="-2.31405">
        <ele>74</ele>
        <time>2019-09-08T09:57:59Z</time>
      </trkpt>
      <trkpt lat="47.24578" lon="-2.31411">
        <ele>74</ele>
        <time>2019-09-08T09:58:00Z</time>
      </trkpt>
      <trkpt lat="47.24579" lon="-2.31418">
        <ele>75</ele>
        <time>2019-09-08T09:58:01Z</time>
      </trkpt>
      <trkpt lat="47.2458" lon="-2.31424">
        <ele>75</ele>
        <time>2019-09-08T09:58:02Z</time>
      </trkpt>
      <trkpt lat="47.24581" lon="-2.31438">
        <ele>75</ele>
        <time>2019-09-08T09:58:04Z</time>
      </trkpt>
      <trkpt lat="47.24584" lon="-2.31451">
        <ele>75</ele>
        <time>2019-09-08T09:58:06Z</time>
      </trkpt>
      <trkpt lat="47.24585" lon="-2.31459">
        <ele>75</ele>
        <time>2019-09-08T09:58:07Z</time>
      </trkpt>
      <trkpt lat="47.24586" lon="-2.31467">
        <ele>75</ele>
        <time>2019-09-08T09:58:08Z</time>
      </trkpt>
      <trkpt lat="47.24587" lon="-2.31476">
        <ele>76</ele>
        <time>2019-09-08T09:58:09Z</time>
      </trkpt>
      <trkpt lat="47.24588" lon="-2.31484">
        <ele>76</ele>
        <time>2019-09-08T09:58:10Z</time>
      </trkpt>
      <trkpt lat="47.24589" lon="-2.31492">
        <ele>76</ele>
        <time>2019-09-08T09:58:11Z</time>
      </trkpt>
      <trkpt lat="47.24591" lon="-2.31501">
        <ele>76</ele>
        <time>2019-09-08T09:58:13Z</time>
      </trkpt>
      <trkpt lat="47.24592" lon="-2.3151">
        <ele>76</ele>
        <time>2019-09-08T09:58:14Z</time>
      </trkpt>
      <trkpt lat="47.24593" lon="-2.31519">
        <ele>76</ele>
        <time>2019-09-08T09:58:15Z</time>
      </trkpt>
      <trkpt lat="47.24597" lon="-2.31546">
        <ele>75</ele>
        <time>2019-09-08T09:58:17Z</time>
      </trkpt>
      <trkpt lat="47.24599" lon="-2.31554">
        <ele>75</ele>
        <time>2019-09-08T09:58:18Z</time>
      </trkpt>
      <trkpt lat="47.24605" lon="-2.31571">
        <ele>75</ele>
        <time>2019-09-08T09:58:20Z</time>
      </trkpt>
      <trkpt lat="47.24608" lon="-2.31579">
        <ele>75</ele>
        <time>2019-09-08T09:58:21Z</time>
      </trkpt>
      <trkpt lat="47.24612" lon="-2.31586">
        <ele>75</ele>
        <time>2019-09-08T09:58:22Z</time>
      </trkpt>
      <trkpt lat="47.24617" lon="-2.31591">
        <ele>75</ele>
        <time>2019-09-08T09:58:23Z</time>
      </trkpt>
      <trkpt lat="47.24621" lon="-2.31597">
        <ele>75</ele>
        <time>2019-09-08T09:58:24Z</time>
      </trkpt>
      <trkpt lat="47.24624" lon="-2.31603">
        <ele>75</ele>
        <time>2019-09-08T09:58:26Z</time>
      </trkpt>
      <trkpt lat="47.2464" lon="-2.31629">
        <ele>74</ele>
        <time>2019-09-08T09:58:29Z</time>
      </trkpt>
      <trkpt lat="47.24644" lon="-2.31636">
        <ele>75</ele>
        <time>2019-09-08T09:58:30Z</time>
      </trkpt>
      <trkpt lat="47.24649" lon="-2.31641">
        <ele>75</ele>
        <time>2019-09-08T09:58:31Z</time>
      </trkpt>
      <trkpt lat="47.24653" lon="-2.31647">
        <ele>75</ele>
        <time>2019-09-08T09:58:32Z</time>
      </trkpt>
      <trkpt lat="47.24657" lon="-2.31653">
        <ele>75</ele>
        <time>2019-09-08T09:58:33Z</time>
      </trkpt>
      <trkpt lat="47.24662" lon="-2.31659">
        <ele>75</ele>
        <time>2019-09-08T09:58:34Z</time>
      </trkpt>
      <trkpt lat="47.24666" lon="-2.31665">
        <ele>75</ele>
        <time>2019-09-08T09:58:35Z</time>
      </trkpt>
      <trkpt lat="47.2467" lon="-2.31673">
        <ele>75</ele>
        <time>2019-09-08T09:58:36Z</time>
      </trkpt>
      <trkpt lat="47.24674" lon="-2.31679">
        <ele>74</ele>
        <time>2019-09-08T09:58:37Z</time>
      </trkpt>
      <trkpt lat="47.24679" lon="-2.31686">
        <ele>74</ele>
        <time>2019-09-08T09:58:38Z</time>
      </trkpt>
      <trkpt lat="47.24683" lon="-2.31692">
        <ele>75</ele>
        <time>2019-09-08T09:58:39Z</time>
      </trkpt>
      <trkpt lat="47.24688" lon="-2.31699">
        <ele>75</ele>
        <time>2019-09-08T09:58:40Z</time>
      </trkpt>
      <trkpt lat="47.24692" lon="-2.31705">
        <ele>75</ele>
        <time>2019-09-08T09:58:41Z</time>
      </trkpt>
      <trkpt lat="47.24696" lon="-2.31712">
        <ele>76</ele>
        <time>2019-09-08T09:58:42Z</time>
      </trkpt>
      <trkpt lat="47.247" lon="-2.31718">
        <ele>76</ele>
        <time>2019-09-08T09:58:43Z</time>
      </trkpt>
      <trkpt lat="47.24704" lon="-2.31724">
        <ele>76</ele>
        <time>2019-09-08T09:58:44Z</time>
      </trkpt>
      <trkpt lat="47.24709" lon="-2.3173">
        <ele>75</ele>
        <time>2019-09-08T09:58:45Z</time>
      </trkpt>
      <trkpt lat="47.24718" lon="-2.31742">
        <ele>75</ele>
        <time>2019-09-08T09:58:47Z</time>
      </trkpt>
      <trkpt lat="47.24722" lon="-2.31749">
        <ele>75</ele>
        <time>2019-09-08T09:58:48Z</time>
      </trkpt>
      <trkpt lat="47.24731" lon="-2.31761">
        <ele>75</ele>
        <time>2019-09-08T09:58:50Z</time>
      </trkpt>
      <trkpt lat="47.24734" lon="-2.31768">
        <ele>75</ele>
        <time>2019-09-08T09:58:51Z</time>
      </trkpt>
      <trkpt lat="47.24739" lon="-2.31775">
        <ele>74</ele>
        <time>2019-09-08T09:58:52Z</time>
      </trkpt>
      <trkpt lat="47.24743" lon="-2.31782">
        <ele>74</ele>
        <time>2019-09-08T09:58:53Z</time>
      </trkpt>
      <trkpt lat="47.24748" lon="-2.31789">
        <ele>75</ele>
        <time>2019-09-08T09:58:54Z</time>
      </trkpt>
      <trkpt lat="47.24753" lon="-2.31796">
        <ele>75</ele>
        <time>2019-09-08T09:58:55Z</time>
      </trkpt>
      <trkpt lat="47.24758" lon="-2.31803">
        <ele>75</ele>
        <time>2019-09-08T09:58:56Z</time>
      </trkpt>
      <trkpt lat="47.24762" lon="-2.31811">
        <ele>74</ele>
        <time>2019-09-08T09:58:57Z</time>
      </trkpt>
      <trkpt lat="47.24767" lon="-2.31819">
        <ele>75</ele>
        <time>2019-09-08T09:58:58Z</time>
      </trkpt>
      <trkpt lat="47.24771" lon="-2.31826">
        <ele>75</ele>
        <time>2019-09-08T09:58:59Z</time>
      </trkpt>
      <trkpt lat="47.24776" lon="-2.31833">
        <ele>75</ele>
        <time>2019-09-08T09:59:00Z</time>
      </trkpt>
      <trkpt lat="47.2478" lon="-2.31841">
        <ele>75</ele>
        <time>2019-09-08T09:59:01Z</time>
      </trkpt>
      <trkpt lat="47.24784" lon="-2.31848">
        <ele>75</ele>
        <time>2019-09-08T09:59:02Z</time>
      </trkpt>
      <trkpt lat="47.24791" lon="-2.31859">
        <ele>74</ele>
        <time>2019-09-08T09:59:04Z</time>
      </trkpt>
      <trkpt lat="47.24794" lon="-2.31867">
        <ele>74</ele>
        <time>2019-09-08T09:59:06Z</time>
      </trkpt>
      <trkpt lat="47.24791" lon="-2.31874">
        <ele>74</ele>
        <time>2019-09-08T09:59:08Z</time>
      </trkpt>
      <trkpt lat="47.24781" lon="-2.31886">
        <ele>75</ele>
        <time>2019-09-08T09:59:11Z</time>
      </trkpt>
      <trkpt lat="47.24777" lon="-2.31891">
        <ele>75</ele>
        <time>2019-09-08T09:59:12Z</time>
      </trkpt>
      <trkpt lat="47.24773" lon="-2.31895">
        <ele>75</ele>
        <time>2019-09-08T09:59:13Z</time>
      </trkpt>
      <trkpt lat="47.24769" lon="-2.31899">
        <ele>75</ele>
        <time>2019-09-08T09:59:14Z</time>
      </trkpt>
      <trkpt lat="47.24765" lon="-2.31903">
        <ele>75</ele>
        <time>2019-09-08T09:59:15Z</time>
      </trkpt>
      <trkpt lat="47.24758" lon="-2.31911">
        <ele>75</ele>
        <time>2019-09-08T09:59:17Z</time>
      </trkpt>
      <trkpt lat="47.24758" lon="-2.31925">
        <ele>74</ele>
        <time>2019-09-08T09:59:19Z</time>
      </trkpt>
      <trkpt lat="47.2476" lon="-2.31933">
        <ele>74</ele>
        <time>2019-09-08T09:59:20Z</time>
      </trkpt>
      <trkpt lat="47.24763" lon="-2.3194">
        <ele>75</ele>
        <time>2019-09-08T09:59:21Z</time>
      </trkpt>
      <trkpt lat="47.24776" lon="-2.3197">
        <ele>75</ele>
        <time>2019-09-08T09:59:25Z</time>
      </trkpt>
      <trkpt lat="47.24779" lon="-2.31976">
        <ele>75</ele>
        <time>2019-09-08T09:59:26Z</time>
      </trkpt>
      <trkpt lat="47.24782" lon="-2.31983">
        <ele>74</ele>
        <time>2019-09-08T09:59:27Z</time>
      </trkpt>
      <trkpt lat="47.24785" lon="-2.31991">
        <ele>74</ele>
        <time>2019-09-08T09:59:28Z</time>
      </trkpt>
      <trkpt lat="47.24789" lon="-2.31999">
        <ele>74</ele>
        <time>2019-09-08T09:59:29Z</time>
      </trkpt>
      <trkpt lat="47.24796" lon="-2.32015">
        <ele>74</ele>
        <time>2019-09-08T09:59:32Z</time>
      </trkpt>
      <trkpt lat="47.24799" lon="-2.32022">
        <ele>74</ele>
        <time>2019-09-08T09:59:33Z</time>
      </trkpt>
      <trkpt lat="47.24803" lon="-2.3203">
        <ele>74</ele>
        <time>2019-09-08T09:59:34Z</time>
      </trkpt>
      <trkpt lat="47.24806" lon="-2.32039">
        <ele>73</ele>
        <time>2019-09-08T09:59:35Z</time>
      </trkpt>
      <trkpt lat="47.2481" lon="-2.32047">
        <ele>73</ele>
        <time>2019-09-08T09:59:36Z</time>
      </trkpt>
      <trkpt lat="47.24814" lon="-2.32056">
        <ele>73</ele>
        <time>2019-09-08T09:59:37Z</time>
      </trkpt>
      <trkpt lat="47.24818" lon="-2.32064">
        <ele>73</ele>
        <time>2019-09-08T09:59:38Z</time>
      </trkpt>
      <trkpt lat="47.24822" lon="-2.32073">
        <ele>72</ele>
        <time>2019-09-08T09:59:39Z</time>
      </trkpt>
      <trkpt lat="47.24826" lon="-2.32082">
        <ele>72</ele>
        <time>2019-09-08T09:59:40Z</time>
      </trkpt>
      <trkpt lat="47.24837" lon="-2.32108">
        <ele>73</ele>
        <time>2019-09-08T09:59:42Z</time>
      </trkpt>
      <trkpt lat="47.2484" lon="-2.32116">
        <ele>73</ele>
        <time>2019-09-08T09:59:43Z</time>
      </trkpt>
      <trkpt lat="47.24851" lon="-2.3214">
        <ele>72</ele>
        <time>2019-09-08T09:59:46Z</time>
      </trkpt>
      <trkpt lat="47.24854" lon="-2.32147">
        <ele>72</ele>
        <time>2019-09-08T09:59:47Z</time>
      </trkpt>
      <trkpt lat="47.24857" lon="-2.32154">
        <ele>72</ele>
        <time>2019-09-08T09:59:48Z</time>
      </trkpt>
      <trkpt lat="47.2486" lon="-2.32162">
        <ele>72</ele>
        <time>2019-09-08T09:59:49Z</time>
      </trkpt>
      <trkpt lat="47.24863" lon="-2.32169">
        <ele>72</ele>
        <time>2019-09-08T09:59:50Z</time>
      </trkpt>
      <trkpt lat="47.24866" lon="-2.32176">
        <ele>72</ele>
        <time>2019-09-08T09:59:51Z</time>
      </trkpt>
      <trkpt lat="47.24869" lon="-2.32183">
        <ele>72</ele>
        <time>2019-09-08T09:59:52Z</time>
      </trkpt>
      <trkpt lat="47.24875" lon="-2.32195">
        <ele>71</ele>
        <time>2019-09-08T09:59:54Z</time>
      </trkpt>
      <trkpt lat="47.24876" lon="-2.32209">
        <ele>72</ele>
        <time>2019-09-08T09:59:57Z</time>
      </trkpt>
      <trkpt lat="47.2487" lon="-2.32217">
        <ele>71</ele>
        <time>2019-09-08T09:59:59Z</time>
      </trkpt>
      <trkpt lat="47.24862" lon="-2.32224">
        <ele>71</ele>
        <time>2019-09-08T10:00:01Z</time>
      </trkpt>
      <trkpt lat="47.24857" lon="-2.32228">
        <ele>71</ele>
        <time>2019-09-08T10:00:02Z</time>
      </trkpt>
      <trkpt lat="47.24852" lon="-2.32234">
        <ele>71</ele>
        <time>2019-09-08T10:00:03Z</time>
      </trkpt>
      <trkpt lat="47.24846" lon="-2.3224">
        <ele>71</ele>
        <time>2019-09-08T10:00:04Z</time>
      </trkpt>
      <trkpt lat="47.2484" lon="-2.32246">
        <ele>71</ele>
        <time>2019-09-08T10:00:05Z</time>
      </trkpt>
      <trkpt lat="47.24827" lon="-2.32258">
        <ele>70</ele>
        <time>2019-09-08T10:00:07Z</time>
      </trkpt>
      <trkpt lat="47.2482" lon="-2.32263">
        <ele>70</ele>
        <time>2019-09-08T10:00:08Z</time>
      </trkpt>
      <trkpt lat="47.24815" lon="-2.32268">
        <ele>70</ele>
        <time>2019-09-08T10:00:09Z</time>
      </trkpt>
      <trkpt lat="47.24806" lon="-2.32278">
        <ele>69</ele>
        <time>2019-09-08T10:00:11Z</time>
      </trkpt>
      <trkpt lat="47.24797" lon="-2.32287">
        <ele>69</ele>
        <time>2019-09-08T10:00:13Z</time>
      </trkpt>
      <trkpt lat="47.24795" lon="-2.32293">
        <ele>69</ele>
        <time>2019-09-08T10:00:14Z</time>
      </trkpt>
      <trkpt lat="47.24794" lon="-2.32309">
        <ele>68</ele>
        <time>2019-09-08T10:00:16Z</time>
      </trkpt>
      <trkpt lat="47.24797" lon="-2.32316">
        <ele>68</ele>
        <time>2019-09-08T10:00:17Z</time>
      </trkpt>
      <trkpt lat="47.24799" lon="-2.32323">
        <ele>68</ele>
        <time>2019-09-08T10:00:18Z</time>
      </trkpt>
      <trkpt lat="47.24802" lon="-2.32329">
        <ele>67</ele>
        <time>2019-09-08T10:00:19Z</time>
      </trkpt>
      <trkpt lat="47.24805" lon="-2.32336">
        <ele>66</ele>
        <time>2019-09-08T10:00:20Z</time>
      </trkpt>
      <trkpt lat="47.24809" lon="-2.32343">
        <ele>66</ele>
        <time>2019-09-08T10:00:21Z</time>
      </trkpt>
      <trkpt lat="47.2482" lon="-2.32364">
        <ele>65</ele>
        <time>2019-09-08T10:00:24Z</time>
      </trkpt>
      <trkpt lat="47.24824" lon="-2.32371">
        <ele>64</ele>
        <time>2019-09-08T10:00:25Z</time>
      </trkpt>
      <trkpt lat="47.24828" lon="-2.32377">
        <ele>64</ele>
        <time>2019-09-08T10:00:26Z</time>
      </trkpt>
      <trkpt lat="47.24831" lon="-2.32384">
        <ele>64</ele>
        <time>2019-09-08T10:00:27Z</time>
      </trkpt>
      <trkpt lat="47.24835" lon="-2.32392">
        <ele>64</ele>
        <time>2019-09-08T10:00:28Z</time>
      </trkpt>
      <trkpt lat="47.24839" lon="-2.32399">
        <ele>64</ele>
        <time>2019-09-08T10:00:29Z</time>
      </trkpt>
      <trkpt lat="47.24853" lon="-2.32432">
        <ele>64</ele>
        <time>2019-09-08T10:00:33Z</time>
      </trkpt>
      <trkpt lat="47.24857" lon="-2.3244">
        <ele>64</ele>
        <time>2019-09-08T10:00:34Z</time>
      </trkpt>
      <trkpt lat="47.24871" lon="-2.32477">
        <ele>63</ele>
        <time>2019-09-08T10:00:38Z</time>
      </trkpt>
      <trkpt lat="47.24875" lon="-2.32486">
        <ele>63</ele>
        <time>2019-09-08T10:00:39Z</time>
      </trkpt>
      <trkpt lat="47.24878" lon="-2.32495">
        <ele>63</ele>
        <time>2019-09-08T10:00:40Z</time>
      </trkpt>
      <trkpt lat="47.24881" lon="-2.32504">
        <ele>63</ele>
        <time>2019-09-08T10:00:41Z</time>
      </trkpt>
      <trkpt lat="47.24885" lon="-2.32513">
        <ele>63</ele>
        <time>2019-09-08T10:00:42Z</time>
      </trkpt>
      <trkpt lat="47.24888" lon="-2.32523">
        <ele>63</ele>
        <time>2019-09-08T10:00:43Z</time>
      </trkpt>
      <trkpt lat="47.24891" lon="-2.32533">
        <ele>63</ele>
        <time>2019-09-08T10:00:44Z</time>
      </trkpt>
      <trkpt lat="47.24895" lon="-2.32543">
        <ele>63</ele>
        <time>2019-09-08T10:00:45Z</time>
      </trkpt>
      <trkpt lat="47.2491" lon="-2.32582">
        <ele>62</ele>
        <time>2019-09-08T10:00:49Z</time>
      </trkpt>
      <trkpt lat="47.24914" lon="-2.32591">
        <ele>62</ele>
        <time>2019-09-08T10:00:50Z</time>
      </trkpt>
      <trkpt lat="47.24917" lon="-2.32601">
        <ele>61</ele>
        <time>2019-09-08T10:00:51Z</time>
      </trkpt>
      <trkpt lat="47.24924" lon="-2.3262">
        <ele>61</ele>
        <time>2019-09-08T10:00:53Z</time>
      </trkpt>
      <trkpt lat="47.24926" lon="-2.32629">
        <ele>61</ele>
        <time>2019-09-08T10:00:54Z</time>
      </trkpt>
      <trkpt lat="47.2493" lon="-2.32638">
        <ele>61</ele>
        <time>2019-09-08T10:00:55Z</time>
      </trkpt>
      <trkpt lat="47.24933" lon="-2.32649">
        <ele>60</ele>
        <time>2019-09-08T10:00:56Z</time>
      </trkpt>
      <trkpt lat="47.24938" lon="-2.32657">
        <ele>60</ele>
        <time>2019-09-08T10:00:57Z</time>
      </trkpt>
      <trkpt lat="47.24942" lon="-2.32667">
        <ele>59</ele>
        <time>2019-09-08T10:00:58Z</time>
      </trkpt>
      <trkpt lat="47.24945" lon="-2.32676">
        <ele>59</ele>
        <time>2019-09-08T10:00:59Z</time>
      </trkpt>
      <trkpt lat="47.24949" lon="-2.32685">
        <ele>59</ele>
        <time>2019-09-08T10:01:00Z</time>
      </trkpt>
      <trkpt lat="47.24952" lon="-2.32694">
        <ele>59</ele>
        <time>2019-09-08T10:01:01Z</time>
      </trkpt>
      <trkpt lat="47.24956" lon="-2.32704">
        <ele>59</ele>
        <time>2019-09-08T10:01:02Z</time>
      </trkpt>
      <trkpt lat="47.24959" lon="-2.32713">
        <ele>59</ele>
        <time>2019-09-08T10:01:03Z</time>
      </trkpt>
      <trkpt lat="47.24967" lon="-2.32732">
        <ele>58</ele>
        <time>2019-09-08T10:01:05Z</time>
      </trkpt>
      <trkpt lat="47.2497" lon="-2.32741">
        <ele>58</ele>
        <time>2019-09-08T10:01:06Z</time>
      </trkpt>
      <trkpt lat="47.24976" lon="-2.32759">
        <ele>58</ele>
        <time>2019-09-08T10:01:08Z</time>
      </trkpt>
      <trkpt lat="47.24979" lon="-2.32768">
        <ele>58</ele>
        <time>2019-09-08T10:01:09Z</time>
      </trkpt>
      <trkpt lat="47.24982" lon="-2.32777">
        <ele>58</ele>
        <time>2019-09-08T10:01:10Z</time>
      </trkpt>
      <trkpt lat="47.24986" lon="-2.32786">
        <ele>58</ele>
        <time>2019-09-08T10:01:11Z</time>
      </trkpt>
      <trkpt lat="47.2499" lon="-2.32795">
        <ele>57</ele>
        <time>2019-09-08T10:01:12Z</time>
      </trkpt>
      <trkpt lat="47.24993" lon="-2.32803">
        <ele>57</ele>
        <time>2019-09-08T10:01:13Z</time>
      </trkpt>
      <trkpt lat="47.24996" lon="-2.32812">
        <ele>57</ele>
        <time>2019-09-08T10:01:14Z</time>
      </trkpt>
      <trkpt lat="47.25009" lon="-2.3285">
        <ele>58</ele>
        <time>2019-09-08T10:01:18Z</time>
      </trkpt>
      <trkpt lat="47.25013" lon="-2.32859">
        <ele>59</ele>
        <time>2019-09-08T10:01:19Z</time>
      </trkpt>
      <trkpt lat="47.25016" lon="-2.32869">
        <ele>59</ele>
        <time>2019-09-08T10:01:20Z</time>
      </trkpt>
      <trkpt lat="47.25019" lon="-2.32878">
        <ele>59</ele>
        <time>2019-09-08T10:01:21Z</time>
      </trkpt>
      <trkpt lat="47.25023" lon="-2.32888">
        <ele>58</ele>
        <time>2019-09-08T10:01:22Z</time>
      </trkpt>
      <trkpt lat="47.25026" lon="-2.32898">
        <ele>59</ele>
        <time>2019-09-08T10:01:23Z</time>
      </trkpt>
      <trkpt lat="47.25029" lon="-2.32907">
        <ele>59</ele>
        <time>2019-09-08T10:01:24Z</time>
      </trkpt>
      <trkpt lat="47.25033" lon="-2.32916">
        <ele>59</ele>
        <time>2019-09-08T10:01:25Z</time>
      </trkpt>
      <trkpt lat="47.25036" lon="-2.32925">
        <ele>58</ele>
        <time>2019-09-08T10:01:26Z</time>
      </trkpt>
      <trkpt lat="47.25044" lon="-2.32943">
        <ele>58</ele>
        <time>2019-09-08T10:01:28Z</time>
      </trkpt>
      <trkpt lat="47.25053" lon="-2.32971">
        <ele>58</ele>
        <time>2019-09-08T10:01:31Z</time>
      </trkpt>
      <trkpt lat="47.25057" lon="-2.3298">
        <ele>58</ele>
        <time>2019-09-08T10:01:32Z</time>
      </trkpt>
      <trkpt lat="47.2506" lon="-2.32988">
        <ele>58</ele>
        <time>2019-09-08T10:01:33Z</time>
      </trkpt>
      <trkpt lat="47.25063" lon="-2.32997">
        <ele>58</ele>
        <time>2019-09-08T10:01:34Z</time>
      </trkpt>
      <trkpt lat="47.25067" lon="-2.33006">
        <ele>58</ele>
        <time>2019-09-08T10:01:35Z</time>
      </trkpt>
      <trkpt lat="47.25072" lon="-2.33014">
        <ele>58</ele>
        <time>2019-09-08T10:01:36Z</time>
      </trkpt>
      <trkpt lat="47.25076" lon="-2.33023">
        <ele>58</ele>
        <time>2019-09-08T10:01:37Z</time>
      </trkpt>
      <trkpt lat="47.25081" lon="-2.33032">
        <ele>58</ele>
        <time>2019-09-08T10:01:38Z</time>
      </trkpt>
      <trkpt lat="47.25085" lon="-2.3304">
        <ele>58</ele>
        <time>2019-09-08T10:01:40Z</time>
      </trkpt>
      <trkpt lat="47.25093" lon="-2.33055">
        <ele>58</ele>
        <time>2019-09-08T10:01:42Z</time>
      </trkpt>
      <trkpt lat="47.25098" lon="-2.33066">
        <ele>58</ele>
        <time>2019-09-08T10:01:43Z</time>
      </trkpt>
      <trkpt lat="47.25101" lon="-2.33072">
        <ele>59</ele>
        <time>2019-09-08T10:01:44Z</time>
      </trkpt>
      <trkpt lat="47.25104" lon="-2.33077">
        <ele>59</ele>
        <time>2019-09-08T10:01:45Z</time>
      </trkpt>
      <trkpt lat="47.25107" lon="-2.33082">
        <ele>58</ele>
        <time>2019-09-08T10:01:46Z</time>
      </trkpt>
      <trkpt lat="47.25109" lon="-2.33087">
        <ele>59</ele>
        <time>2019-09-08T10:01:47Z</time>
      </trkpt>
      <trkpt lat="47.25118" lon="-2.3309">
        <ele>59</ele>
        <time>2019-09-08T10:01:49Z</time>
      </trkpt>
      <trkpt lat="47.25123" lon="-2.33087">
        <ele>59</ele>
        <time>2019-09-08T10:01:50Z</time>
      </trkpt>
      <trkpt lat="47.25128" lon="-2.33085">
        <ele>60</ele>
        <time>2019-09-08T10:01:51Z</time>
      </trkpt>
      <trkpt lat="47.25133" lon="-2.33082">
        <ele>60</ele>
        <time>2019-09-08T10:01:52Z</time>
      </trkpt>
      <trkpt lat="47.25139" lon="-2.33079">
        <ele>60</ele>
        <time>2019-09-08T10:01:53Z</time>
      </trkpt>
      <trkpt lat="47.25151" lon="-2.33072">
        <ele>61</ele>
        <time>2019-09-08T10:01:55Z</time>
      </trkpt>
      <trkpt lat="47.25157" lon="-2.33069">
        <ele>61</ele>
        <time>2019-09-08T10:01:56Z</time>
      </trkpt>
      <trkpt lat="47.25169" lon="-2.3306">
        <ele>62</ele>
        <time>2019-09-08T10:01:59Z</time>
      </trkpt>
      <trkpt lat="47.2518" lon="-2.3305">
        <ele>62</ele>
        <time>2019-09-08T10:02:01Z</time>
      </trkpt>
      <trkpt lat="47.25186" lon="-2.33045">
        <ele>62</ele>
        <time>2019-09-08T10:02:02Z</time>
      </trkpt>
      <trkpt lat="47.25197" lon="-2.33036">
        <ele>62</ele>
        <time>2019-09-08T10:02:04Z</time>
      </trkpt>
      <trkpt lat="47.25201" lon="-2.33032">
        <ele>62</ele>
        <time>2019-09-08T10:02:05Z</time>
      </trkpt>
      <trkpt lat="47.25207" lon="-2.33029">
        <ele>62</ele>
        <time>2019-09-08T10:02:07Z</time>
      </trkpt>
      <trkpt lat="47.2521" lon="-2.33037">
        <ele>61</ele>
        <time>2019-09-08T10:02:09Z</time>
      </trkpt>
      <trkpt lat="47.25218" lon="-2.33054">
        <ele>61</ele>
        <time>2019-09-08T10:02:11Z</time>
      </trkpt>
      <trkpt lat="47.25221" lon="-2.3306">
        <ele>61</ele>
        <time>2019-09-08T10:02:12Z</time>
      </trkpt>
      <trkpt lat="47.25228" lon="-2.33073">
        <ele>61</ele>
        <time>2019-09-08T10:02:14Z</time>
      </trkpt>
      <trkpt lat="47.25235" lon="-2.33087">
        <ele>62</ele>
        <time>2019-09-08T10:02:16Z</time>
      </trkpt>
      <trkpt lat="47.25239" lon="-2.33095">
        <ele>62</ele>
        <time>2019-09-08T10:02:17Z</time>
      </trkpt>
      <trkpt lat="47.25243" lon="-2.33102">
        <ele>61</ele>
        <time>2019-09-08T10:02:18Z</time>
      </trkpt>
      <trkpt lat="47.25247" lon="-2.33109">
        <ele>61</ele>
        <time>2019-09-08T10:02:19Z</time>
      </trkpt>
      <trkpt lat="47.2525" lon="-2.33116">
        <ele>61</ele>
        <time>2019-09-08T10:02:20Z</time>
      </trkpt>
      <trkpt lat="47.25254" lon="-2.33122">
        <ele>61</ele>
        <time>2019-09-08T10:02:21Z</time>
      </trkpt>
      <trkpt lat="47.25258" lon="-2.33129">
        <ele>61</ele>
        <time>2019-09-08T10:02:22Z</time>
      </trkpt>
      <trkpt lat="47.2527" lon="-2.33149">
        <ele>61</ele>
        <time>2019-09-08T10:02:25Z</time>
      </trkpt>
      <trkpt lat="47.25281" lon="-2.33169">
        <ele>62</ele>
        <time>2019-09-08T10:02:28Z</time>
      </trkpt>
      <trkpt lat="47.25292" lon="-2.33189">
        <ele>62</ele>
        <time>2019-09-08T10:02:31Z</time>
      </trkpt>
      <trkpt lat="47.25295" lon="-2.33197">
        <ele>62</ele>
        <time>2019-09-08T10:02:32Z</time>
      </trkpt>
      <trkpt lat="47.25298" lon="-2.33203">
        <ele>62</ele>
        <time>2019-09-08T10:02:33Z</time>
      </trkpt>
      <trkpt lat="47.25302" lon="-2.33208">
        <ele>61</ele>
        <time>2019-09-08T10:02:34Z</time>
      </trkpt>
      <trkpt lat="47.25305" lon="-2.33214">
        <ele>61</ele>
        <time>2019-09-08T10:02:35Z</time>
      </trkpt>
      <trkpt lat="47.25308" lon="-2.3322">
        <ele>61</ele>
        <time>2019-09-08T10:02:36Z</time>
      </trkpt>
      <trkpt lat="47.25313" lon="-2.3323">
        <ele>60</ele>
        <time>2019-09-08T10:02:39Z</time>
      </trkpt>
      <trkpt lat="47.25318" lon="-2.33228">
        <ele>61</ele>
        <time>2019-09-08T10:02:41Z</time>
      </trkpt>
      <trkpt lat="47.25332" lon="-2.33213">
        <ele>62</ele>
        <time>2019-09-08T10:02:45Z</time>
      </trkpt>
      <trkpt lat="47.25336" lon="-2.33208">
        <ele>62</ele>
        <time>2019-09-08T10:02:46Z</time>
      </trkpt>
      <trkpt lat="47.2534" lon="-2.33204">
        <ele>62</ele>
        <time>2019-09-08T10:02:47Z</time>
      </trkpt>
      <trkpt lat="47.25344" lon="-2.33199">
        <ele>62</ele>
        <time>2019-09-08T10:02:48Z</time>
      </trkpt>
      <trkpt lat="47.25348" lon="-2.33194">
        <ele>61</ele>
        <time>2019-09-08T10:02:49Z</time>
      </trkpt>
      <trkpt lat="47.25362" lon="-2.33175">
        <ele>62</ele>
        <time>2019-09-08T10:02:53Z</time>
      </trkpt>
      <trkpt lat="47.25365" lon="-2.33171">
        <ele>62</ele>
        <time>2019-09-08T10:02:54Z</time>
      </trkpt>
      <trkpt lat="47.25368" lon="-2.33167">
        <ele>62</ele>
        <time>2019-09-08T10:02:55Z</time>
      </trkpt>
      <trkpt lat="47.25368" lon="-2.33167">
        <ele>62</ele>
        <time>2019-09-08T10:06:01Z</time>
      </trkpt>
      <trkpt lat="47.25374" lon="-2.33138">
        <ele>62</ele>
        <time>2019-09-08T10:06:02Z</time>
      </trkpt>
      <trkpt lat="47.25375" lon="-2.33135">
        <ele>63</ele>
        <time>2019-09-08T10:06:03Z</time>
      </trkpt>
      <trkpt lat="47.25373" lon="-2.33126">
        <ele>63</ele>
        <time>2019-09-08T10:06:05Z</time>
      </trkpt>
      <trkpt lat="47.25371" lon="-2.33109">
        <ele>60</ele>
        <time>2019-09-08T10:06:08Z</time>
      </trkpt>
      <trkpt lat="47.25368" lon="-2.33098">
        <ele>59</ele>
        <time>2019-09-08T10:06:10Z</time>
      </trkpt>
      <trkpt lat="47.25364" lon="-2.33086">
        <ele>59</ele>
        <time>2019-09-08T10:06:12Z</time>
      </trkpt>
      <trkpt lat="47.25362" lon="-2.33079">
        <ele>59</ele>
        <time>2019-09-08T10:06:13Z</time>
      </trkpt>
      <trkpt lat="47.25359" lon="-2.33073">
        <ele>59</ele>
        <time>2019-09-08T10:06:14Z</time>
      </trkpt>
      <trkpt lat="47.25352" lon="-2.33055">
        <ele>59</ele>
        <time>2019-09-08T10:06:17Z</time>
      </trkpt>
      <trkpt lat="47.2535" lon="-2.33049">
        <ele>58</ele>
        <time>2019-09-08T10:06:18Z</time>
      </trkpt>
      <trkpt lat="47.25338" lon="-2.33017">
        <ele>59</ele>
        <time>2019-09-08T10:06:23Z</time>
      </trkpt>
      <trkpt lat="47.25335" lon="-2.33011">
        <ele>59</ele>
        <time>2019-09-08T10:06:24Z</time>
      </trkpt>
      <trkpt lat="47.25332" lon="-2.33004">
        <ele>58</ele>
        <time>2019-09-08T10:06:25Z</time>
      </trkpt>
      <trkpt lat="47.25327" lon="-2.32992">
        <ele>58</ele>
        <time>2019-09-08T10:06:27Z</time>
      </trkpt>
      <trkpt lat="47.25322" lon="-2.3298">
        <ele>59</ele>
        <time>2019-09-08T10:06:29Z</time>
      </trkpt>
      <trkpt lat="47.2532" lon="-2.32973">
        <ele>59</ele>
        <time>2019-09-08T10:06:30Z</time>
      </trkpt>
      <trkpt lat="47.25318" lon="-2.32967">
        <ele>59</ele>
        <time>2019-09-08T10:06:31Z</time>
      </trkpt>
      <trkpt lat="47.25314" lon="-2.32955">
        <ele>59</ele>
        <time>2019-09-08T10:06:33Z</time>
      </trkpt>
      <trkpt lat="47.25312" lon="-2.32949">
        <ele>58</ele>
        <time>2019-09-08T10:06:34Z</time>
      </trkpt>
      <trkpt lat="47.25309" lon="-2.32929">
        <ele>59</ele>
        <time>2019-09-08T10:06:37Z</time>
      </trkpt>
      <trkpt lat="47.25313" lon="-2.32918">
        <ele>59</ele>
        <time>2019-09-08T10:06:39Z</time>
      </trkpt>
      <trkpt lat="47.25318" lon="-2.32914">
        <ele>59</ele>
        <time>2019-09-08T10:06:40Z</time>
      </trkpt>
      <trkpt lat="47.25322" lon="-2.32911">
        <ele>59</ele>
        <time>2019-09-08T10:06:41Z</time>
      </trkpt>
      <trkpt lat="47.25329" lon="-2.32902">
        <ele>59</ele>
        <time>2019-09-08T10:06:43Z</time>
      </trkpt>
      <trkpt lat="47.25333" lon="-2.32898">
        <ele>59</ele>
        <time>2019-09-08T10:06:44Z</time>
      </trkpt>
      <trkpt lat="47.25337" lon="-2.32894">
        <ele>59</ele>
        <time>2019-09-08T10:06:45Z</time>
      </trkpt>
      <trkpt lat="47.25341" lon="-2.3289">
        <ele>59</ele>
        <time>2019-09-08T10:06:46Z</time>
      </trkpt>
      <trkpt lat="47.25349" lon="-2.32882">
        <ele>59</ele>
        <time>2019-09-08T10:06:48Z</time>
      </trkpt>
      <trkpt lat="47.25354" lon="-2.32878">
        <ele>60</ele>
        <time>2019-09-08T10:06:49Z</time>
      </trkpt>
      <trkpt lat="47.25359" lon="-2.32874">
        <ele>60</ele>
        <time>2019-09-08T10:06:50Z</time>
      </trkpt>
      <trkpt lat="47.25363" lon="-2.3287">
        <ele>60</ele>
        <time>2019-09-08T10:06:51Z</time>
      </trkpt>
      <trkpt lat="47.25367" lon="-2.32866">
        <ele>60</ele>
        <time>2019-09-08T10:06:52Z</time>
      </trkpt>
      <trkpt lat="47.25371" lon="-2.32861">
        <ele>60</ele>
        <time>2019-09-08T10:06:53Z</time>
      </trkpt>
      <trkpt lat="47.25375" lon="-2.32857">
        <ele>60</ele>
        <time>2019-09-08T10:06:54Z</time>
      </trkpt>
      <trkpt lat="47.25379" lon="-2.32852">
        <ele>59</ele>
        <time>2019-09-08T10:06:55Z</time>
      </trkpt>
      <trkpt lat="47.25383" lon="-2.32848">
        <ele>60</ele>
        <time>2019-09-08T10:06:56Z</time>
      </trkpt>
      <trkpt lat="47.25387" lon="-2.32843">
        <ele>60</ele>
        <time>2019-09-08T10:06:57Z</time>
      </trkpt>
      <trkpt lat="47.25391" lon="-2.32838">
        <ele>60</ele>
        <time>2019-09-08T10:06:58Z</time>
      </trkpt>
      <trkpt lat="47.25395" lon="-2.32834">
        <ele>60</ele>
        <time>2019-09-08T10:06:59Z</time>
      </trkpt>
      <trkpt lat="47.25399" lon="-2.32829">
        <ele>60</ele>
        <time>2019-09-08T10:07:00Z</time>
      </trkpt>
      <trkpt lat="47.25402" lon="-2.32825">
        <ele>60</ele>
        <time>2019-09-08T10:07:01Z</time>
      </trkpt>
      <trkpt lat="47.25406" lon="-2.3282">
        <ele>60</ele>
        <time>2019-09-08T10:07:02Z</time>
      </trkpt>
      <trkpt lat="47.25409" lon="-2.32815">
        <ele>61</ele>
        <time>2019-09-08T10:07:03Z</time>
      </trkpt>
      <trkpt lat="47.25412" lon="-2.3281">
        <ele>61</ele>
        <time>2019-09-08T10:07:04Z</time>
      </trkpt>
      <trkpt lat="47.25419" lon="-2.32799">
        <ele>61</ele>
        <time>2019-09-08T10:07:06Z</time>
      </trkpt>
      <trkpt lat="47.25421" lon="-2.32794">
        <ele>62</ele>
        <time>2019-09-08T10:07:07Z</time>
      </trkpt>
      <trkpt lat="47.25425" lon="-2.32782">
        <ele>62</ele>
        <time>2019-09-08T10:07:09Z</time>
      </trkpt>
      <trkpt lat="47.25427" lon="-2.32776">
        <ele>62</ele>
        <time>2019-09-08T10:07:10Z</time>
      </trkpt>
      <trkpt lat="47.25433" lon="-2.32767">
        <ele>61</ele>
        <time>2019-09-08T10:07:12Z</time>
      </trkpt>
      <trkpt lat="47.2544" lon="-2.32759">
        <ele>62</ele>
        <time>2019-09-08T10:07:14Z</time>
      </trkpt>
      <trkpt lat="47.25443" lon="-2.32754">
        <ele>62</ele>
        <time>2019-09-08T10:07:15Z</time>
      </trkpt>
      <trkpt lat="47.25446" lon="-2.32748">
        <ele>62</ele>
        <time>2019-09-08T10:07:16Z</time>
      </trkpt>
      <trkpt lat="47.2545" lon="-2.32744">
        <ele>62</ele>
        <time>2019-09-08T10:07:17Z</time>
      </trkpt>
      <trkpt lat="47.25453" lon="-2.32739">
        <ele>62</ele>
        <time>2019-09-08T10:07:18Z</time>
      </trkpt>
      <trkpt lat="47.25457" lon="-2.32735">
        <ele>62</ele>
        <time>2019-09-08T10:07:19Z</time>
      </trkpt>
      <trkpt lat="47.25468" lon="-2.32722">
        <ele>63</ele>
        <time>2019-09-08T10:07:22Z</time>
      </trkpt>
      <trkpt lat="47.25472" lon="-2.32717">
        <ele>63</ele>
        <time>2019-09-08T10:07:23Z</time>
      </trkpt>
      <trkpt lat="47.25475" lon="-2.32712">
        <ele>63</ele>
        <time>2019-09-08T10:07:24Z</time>
      </trkpt>
      <trkpt lat="47.25479" lon="-2.32707">
        <ele>63</ele>
        <time>2019-09-08T10:07:25Z</time>
      </trkpt>
      <trkpt lat="47.25482" lon="-2.32702">
        <ele>64</ele>
        <time>2019-09-08T10:07:26Z</time>
      </trkpt>
      <trkpt lat="47.25485" lon="-2.32696">
        <ele>64</ele>
        <time>2019-09-08T10:07:27Z</time>
      </trkpt>
      <trkpt lat="47.25486" lon="-2.3269">
        <ele>64</ele>
        <time>2019-09-08T10:07:28Z</time>
      </trkpt>
      <trkpt lat="47.25487" lon="-2.32683">
        <ele>64</ele>
        <time>2019-09-08T10:07:29Z</time>
      </trkpt>
      <trkpt lat="47.25488" lon="-2.32675">
        <ele>63</ele>
        <time>2019-09-08T10:07:30Z</time>
      </trkpt>
      <trkpt lat="47.25488" lon="-2.32668">
        <ele>64</ele>
        <time>2019-09-08T10:07:31Z</time>
      </trkpt>
      <trkpt lat="47.25487" lon="-2.32661">
        <ele>64</ele>
        <time>2019-09-08T10:07:32Z</time>
      </trkpt>
      <trkpt lat="47.25486" lon="-2.32654">
        <ele>64</ele>
        <time>2019-09-08T10:07:33Z</time>
      </trkpt>
      <trkpt lat="47.25484" lon="-2.32647">
        <ele>64</ele>
        <time>2019-09-08T10:07:34Z</time>
      </trkpt>
      <trkpt lat="47.25483" lon="-2.32639">
        <ele>64</ele>
        <time>2019-09-08T10:07:35Z</time>
      </trkpt>
      <trkpt lat="47.25482" lon="-2.32632">
        <ele>63</ele>
        <time>2019-09-08T10:07:36Z</time>
      </trkpt>
      <trkpt lat="47.25482" lon="-2.32624">
        <ele>63</ele>
        <time>2019-09-08T10:07:37Z</time>
      </trkpt>
      <trkpt lat="47.25481" lon="-2.32616">
        <ele>63</ele>
        <time>2019-09-08T10:07:38Z</time>
      </trkpt>
      <trkpt lat="47.2548" lon="-2.32608">
        <ele>63</ele>
        <time>2019-09-08T10:07:39Z</time>
      </trkpt>
      <trkpt lat="47.25479" lon="-2.32601">
        <ele>62</ele>
        <time>2019-09-08T10:07:40Z</time>
      </trkpt>
      <trkpt lat="47.25477" lon="-2.32594">
        <ele>62</ele>
        <time>2019-09-08T10:07:41Z</time>
      </trkpt>
      <trkpt lat="47.25476" lon="-2.32586">
        <ele>62</ele>
        <time>2019-09-08T10:07:42Z</time>
      </trkpt>
      <trkpt lat="47.25476" lon="-2.32579">
        <ele>62</ele>
        <time>2019-09-08T10:07:43Z</time>
      </trkpt>
      <trkpt lat="47.25477" lon="-2.32571">
        <ele>62</ele>
        <time>2019-09-08T10:07:44Z</time>
      </trkpt>
      <trkpt lat="47.2548" lon="-2.32566">
        <ele>62</ele>
        <time>2019-09-08T10:07:45Z</time>
      </trkpt>
      <trkpt lat="47.25483" lon="-2.3256">
        <ele>62</ele>
        <time>2019-09-08T10:07:46Z</time>
      </trkpt>
      <trkpt lat="47.25487" lon="-2.32555">
        <ele>62</ele>
        <time>2019-09-08T10:07:47Z</time>
      </trkpt>
      <trkpt lat="47.25492" lon="-2.3255">
        <ele>62</ele>
        <time>2019-09-08T10:07:48Z</time>
      </trkpt>
      <trkpt lat="47.25497" lon="-2.32546">
        <ele>62</ele>
        <time>2019-09-08T10:07:49Z</time>
      </trkpt>
      <trkpt lat="47.25502" lon="-2.32541">
        <ele>62</ele>
        <time>2019-09-08T10:07:50Z</time>
      </trkpt>
      <trkpt lat="47.25506" lon="-2.32537">
        <ele>62</ele>
        <time>2019-09-08T10:07:51Z</time>
      </trkpt>
      <trkpt lat="47.25512" lon="-2.32533">
        <ele>62</ele>
        <time>2019-09-08T10:07:52Z</time>
      </trkpt>
      <trkpt lat="47.25516" lon="-2.32528">
        <ele>62</ele>
        <time>2019-09-08T10:07:53Z</time>
      </trkpt>
      <trkpt lat="47.25521" lon="-2.32524">
        <ele>62</ele>
        <time>2019-09-08T10:07:54Z</time>
      </trkpt>
      <trkpt lat="47.25527" lon="-2.32519">
        <ele>62</ele>
        <time>2019-09-08T10:07:55Z</time>
      </trkpt>
      <trkpt lat="47.25532" lon="-2.32515">
        <ele>62</ele>
        <time>2019-09-08T10:07:56Z</time>
      </trkpt>
      <trkpt lat="47.25544" lon="-2.32506">
        <ele>62</ele>
        <time>2019-09-08T10:07:58Z</time>
      </trkpt>
      <trkpt lat="47.25568" lon="-2.32483">
        <ele>63</ele>
        <time>2019-09-08T10:08:02Z</time>
      </trkpt>
      <trkpt lat="47.25575" lon="-2.32476">
        <ele>63</ele>
        <time>2019-09-08T10:08:03Z</time>
      </trkpt>
      <trkpt lat="47.25581" lon="-2.32468">
        <ele>63</ele>
        <time>2019-09-08T10:08:04Z</time>
      </trkpt>
      <trkpt lat="47.25588" lon="-2.32461">
        <ele>62</ele>
        <time>2019-09-08T10:08:05Z</time>
      </trkpt>
      <trkpt lat="47.25594" lon="-2.32454">
        <ele>62</ele>
        <time>2019-09-08T10:08:06Z</time>
      </trkpt>
      <trkpt lat="47.256" lon="-2.32446">
        <ele>62</ele>
        <time>2019-09-08T10:08:07Z</time>
      </trkpt>
      <trkpt lat="47.25607" lon="-2.32438">
        <ele>61</ele>
        <time>2019-09-08T10:08:08Z</time>
      </trkpt>
      <trkpt lat="47.25614" lon="-2.32431">
        <ele>61</ele>
        <time>2019-09-08T10:08:09Z</time>
      </trkpt>
      <trkpt lat="47.25621" lon="-2.32424">
        <ele>61</ele>
        <time>2019-09-08T10:08:10Z</time>
      </trkpt>
      <trkpt lat="47.25628" lon="-2.32419">
        <ele>61</ele>
        <time>2019-09-08T10:08:11Z</time>
      </trkpt>
      <trkpt lat="47.25634" lon="-2.32414">
        <ele>60</ele>
        <time>2019-09-08T10:08:12Z</time>
      </trkpt>
      <trkpt lat="47.25638" lon="-2.3241">
        <ele>60</ele>
        <time>2019-09-08T10:08:13Z</time>
      </trkpt>
      <trkpt lat="47.25647" lon="-2.32406">
        <ele>60</ele>
        <time>2019-09-08T10:08:15Z</time>
      </trkpt>
      <trkpt lat="47.2566" lon="-2.32407">
        <ele>60</ele>
        <time>2019-09-08T10:08:18Z</time>
      </trkpt>
      <trkpt lat="47.25665" lon="-2.32409">
        <ele>59</ele>
        <time>2019-09-08T10:08:19Z</time>
      </trkpt>
      <trkpt lat="47.25669" lon="-2.32413">
        <ele>58</ele>
        <time>2019-09-08T10:08:20Z</time>
      </trkpt>
      <trkpt lat="47.25673" lon="-2.32417">
        <ele>58</ele>
        <time>2019-09-08T10:08:21Z</time>
      </trkpt>
      <trkpt lat="47.25679" lon="-2.3242">
        <ele>58</ele>
        <time>2019-09-08T10:08:22Z</time>
      </trkpt>
      <trkpt lat="47.25684" lon="-2.32421">
        <ele>58</ele>
        <time>2019-09-08T10:08:23Z</time>
      </trkpt>
      <trkpt lat="47.2569" lon="-2.32422">
        <ele>58</ele>
        <time>2019-09-08T10:08:24Z</time>
      </trkpt>
      <trkpt lat="47.25696" lon="-2.32422">
        <ele>58</ele>
        <time>2019-09-08T10:08:25Z</time>
      </trkpt>
      <trkpt lat="47.25702" lon="-2.32423">
        <ele>58</ele>
        <time>2019-09-08T10:08:26Z</time>
      </trkpt>
      <trkpt lat="47.25708" lon="-2.32423">
        <ele>59</ele>
        <time>2019-09-08T10:08:27Z</time>
      </trkpt>
      <trkpt lat="47.25724" lon="-2.32424">
        <ele>58</ele>
        <time>2019-09-08T10:08:30Z</time>
      </trkpt>
      <trkpt lat="47.2573" lon="-2.32425">
        <ele>58</ele>
        <time>2019-09-08T10:08:31Z</time>
      </trkpt>
      <trkpt lat="47.25736" lon="-2.32425">
        <ele>58</ele>
        <time>2019-09-08T10:08:32Z</time>
      </trkpt>
      <trkpt lat="47.25741" lon="-2.32425">
        <ele>58</ele>
        <time>2019-09-08T10:08:33Z</time>
      </trkpt>
      <trkpt lat="47.25746" lon="-2.32425">
        <ele>58</ele>
        <time>2019-09-08T10:08:34Z</time>
      </trkpt>
      <trkpt lat="47.25756" lon="-2.32423">
        <ele>58</ele>
        <time>2019-09-08T10:08:36Z</time>
      </trkpt>
      <trkpt lat="47.2576" lon="-2.32421">
        <ele>59</ele>
        <time>2019-09-08T10:08:37Z</time>
      </trkpt>
      <trkpt lat="47.25764" lon="-2.3242">
        <ele>59</ele>
        <time>2019-09-08T10:08:38Z</time>
      </trkpt>
      <trkpt lat="47.25769" lon="-2.32418">
        <ele>59</ele>
        <time>2019-09-08T10:08:39Z</time>
      </trkpt>
      <trkpt lat="47.25774" lon="-2.32417">
        <ele>58</ele>
        <time>2019-09-08T10:08:40Z</time>
      </trkpt>
      <trkpt lat="47.25778" lon="-2.32417">
        <ele>58</ele>
        <time>2019-09-08T10:08:41Z</time>
      </trkpt>
      <trkpt lat="47.25783" lon="-2.32419">
        <ele>58</ele>
        <time>2019-09-08T10:08:42Z</time>
      </trkpt>
      <trkpt lat="47.25787" lon="-2.32424">
        <ele>58</ele>
        <time>2019-09-08T10:08:43Z</time>
      </trkpt>
      <trkpt lat="47.2579" lon="-2.3243">
        <ele>57</ele>
        <time>2019-09-08T10:08:44Z</time>
      </trkpt>
      <trkpt lat="47.25793" lon="-2.32437">
        <ele>57</ele>
        <time>2019-09-08T10:08:45Z</time>
      </trkpt>
      <trkpt lat="47.25797" lon="-2.32443">
        <ele>57</ele>
        <time>2019-09-08T10:08:46Z</time>
      </trkpt>
      <trkpt lat="47.25808" lon="-2.32452">
        <ele>56</ele>
        <time>2019-09-08T10:08:48Z</time>
      </trkpt>
      <trkpt lat="47.25814" lon="-2.32456">
        <ele>56</ele>
        <time>2019-09-08T10:08:50Z</time>
      </trkpt>
      <trkpt lat="47.25826" lon="-2.32464">
        <ele>56</ele>
        <time>2019-09-08T10:08:52Z</time>
      </trkpt>
      <trkpt lat="47.25832" lon="-2.32467">
        <ele>56</ele>
        <time>2019-09-08T10:08:53Z</time>
      </trkpt>
      <trkpt lat="47.25838" lon="-2.3247">
        <ele>56</ele>
        <time>2019-09-08T10:08:54Z</time>
      </trkpt>
      <trkpt lat="47.25844" lon="-2.32472">
        <ele>56</ele>
        <time>2019-09-08T10:08:55Z</time>
      </trkpt>
      <trkpt lat="47.2585" lon="-2.32473">
        <ele>56</ele>
        <time>2019-09-08T10:08:56Z</time>
      </trkpt>
      <trkpt lat="47.25855" lon="-2.32474">
        <ele>56</ele>
        <time>2019-09-08T10:08:57Z</time>
      </trkpt>
      <trkpt lat="47.25861" lon="-2.32473">
        <ele>56</ele>
        <time>2019-09-08T10:08:58Z</time>
      </trkpt>
      <trkpt lat="47.25866" lon="-2.32473">
        <ele>56</ele>
        <time>2019-09-08T10:08:59Z</time>
      </trkpt>
      <trkpt lat="47.25877" lon="-2.32471">
        <ele>56</ele>
        <time>2019-09-08T10:09:01Z</time>
      </trkpt>
      <trkpt lat="47.25883" lon="-2.32471">
        <ele>56</ele>
        <time>2019-09-08T10:09:02Z</time>
      </trkpt>
      <trkpt lat="47.25888" lon="-2.32469">
        <ele>56</ele>
        <time>2019-09-08T10:09:03Z</time>
      </trkpt>
      <trkpt lat="47.25893" lon="-2.32467">
        <ele>56</ele>
        <time>2019-09-08T10:09:04Z</time>
      </trkpt>
      <trkpt lat="47.25898" lon="-2.32462">
        <ele>56</ele>
        <time>2019-09-08T10:09:05Z</time>
      </trkpt>
      <trkpt lat="47.25903" lon="-2.32456">
        <ele>56</ele>
        <time>2019-09-08T10:09:06Z</time>
      </trkpt>
      <trkpt lat="47.25907" lon="-2.32451">
        <ele>55</ele>
        <time>2019-09-08T10:09:07Z</time>
      </trkpt>
      <trkpt lat="47.25912" lon="-2.32446">
        <ele>55</ele>
        <time>2019-09-08T10:09:08Z</time>
      </trkpt>
      <trkpt lat="47.25916" lon="-2.32441">
        <ele>55</ele>
        <time>2019-09-08T10:09:09Z</time>
      </trkpt>
      <trkpt lat="47.25925" lon="-2.32429">
        <ele>56</ele>
        <time>2019-09-08T10:09:11Z</time>
      </trkpt>
      <trkpt lat="47.2593" lon="-2.32424">
        <ele>56</ele>
        <time>2019-09-08T10:09:12Z</time>
      </trkpt>
      <trkpt lat="47.25934" lon="-2.32419">
        <ele>56</ele>
        <time>2019-09-08T10:09:13Z</time>
      </trkpt>
      <trkpt lat="47.25938" lon="-2.32413">
        <ele>56</ele>
        <time>2019-09-08T10:09:14Z</time>
      </trkpt>
      <trkpt lat="47.25943" lon="-2.32407">
        <ele>56</ele>
        <time>2019-09-08T10:09:15Z</time>
      </trkpt>
      <trkpt lat="47.25947" lon="-2.32401">
        <ele>56</ele>
        <time>2019-09-08T10:09:16Z</time>
      </trkpt>
      <trkpt lat="47.25951" lon="-2.32395">
        <ele>56</ele>
        <time>2019-09-08T10:09:17Z</time>
      </trkpt>
      <trkpt lat="47.2596" lon="-2.32384">
        <ele>56</ele>
        <time>2019-09-08T10:09:19Z</time>
      </trkpt>
      <trkpt lat="47.25964" lon="-2.32378">
        <ele>56</ele>
        <time>2019-09-08T10:09:20Z</time>
      </trkpt>
      <trkpt lat="47.25969" lon="-2.32372">
        <ele>56</ele>
        <time>2019-09-08T10:09:21Z</time>
      </trkpt>
      <trkpt lat="47.25973" lon="-2.32366">
        <ele>55</ele>
        <time>2019-09-08T10:09:22Z</time>
      </trkpt>
      <trkpt lat="47.25978" lon="-2.3236">
        <ele>56</ele>
        <time>2019-09-08T10:09:23Z</time>
      </trkpt>
      <trkpt lat="47.25982" lon="-2.32354">
        <ele>56</ele>
        <time>2019-09-08T10:09:24Z</time>
      </trkpt>
      <trkpt lat="47.25986" lon="-2.32348">
        <ele>56</ele>
        <time>2019-09-08T10:09:25Z</time>
      </trkpt>
      <trkpt lat="47.25992" lon="-2.32343">
        <ele>56</ele>
        <time>2019-09-08T10:09:26Z</time>
      </trkpt>
      <trkpt lat="47.25996" lon="-2.32337">
        <ele>55</ele>
        <time>2019-09-08T10:09:27Z</time>
      </trkpt>
      <trkpt lat="47.26001" lon="-2.32331">
        <ele>55</ele>
        <time>2019-09-08T10:09:28Z</time>
      </trkpt>
      <trkpt lat="47.26009" lon="-2.32321">
        <ele>55</ele>
        <time>2019-09-08T10:09:30Z</time>
      </trkpt>
      <trkpt lat="47.26012" lon="-2.32316">
        <ele>55</ele>
        <time>2019-09-08T10:09:31Z</time>
      </trkpt>
      <trkpt lat="47.26017" lon="-2.32311">
        <ele>54</ele>
        <time>2019-09-08T10:09:32Z</time>
      </trkpt>
      <trkpt lat="47.26021" lon="-2.32305">
        <ele>55</ele>
        <time>2019-09-08T10:09:33Z</time>
      </trkpt>
      <trkpt lat="47.26025" lon="-2.323">
        <ele>55</ele>
        <time>2019-09-08T10:09:34Z</time>
      </trkpt>
      <trkpt lat="47.2603" lon="-2.32295">
        <ele>55</ele>
        <time>2019-09-08T10:09:35Z</time>
      </trkpt>
      <trkpt lat="47.26038" lon="-2.32285">
        <ele>55</ele>
        <time>2019-09-08T10:09:37Z</time>
      </trkpt>
      <trkpt lat="47.26045" lon="-2.32275">
        <ele>55</ele>
        <time>2019-09-08T10:09:39Z</time>
      </trkpt>
      <trkpt lat="47.26049" lon="-2.32271">
        <ele>55</ele>
        <time>2019-09-08T10:09:40Z</time>
      </trkpt>
      <trkpt lat="47.26053" lon="-2.32266">
        <ele>56</ele>
        <time>2019-09-08T10:09:41Z</time>
      </trkpt>
      <trkpt lat="47.26058" lon="-2.32261">
        <ele>56</ele>
        <time>2019-09-08T10:09:42Z</time>
      </trkpt>
      <trkpt lat="47.26062" lon="-2.32257">
        <ele>56</ele>
        <time>2019-09-08T10:09:43Z</time>
      </trkpt>
      <trkpt lat="47.26066" lon="-2.32253">
        <ele>56</ele>
        <time>2019-09-08T10:09:44Z</time>
      </trkpt>
      <trkpt lat="47.26078" lon="-2.32242">
        <ele>56</ele>
        <time>2019-09-08T10:09:46Z</time>
      </trkpt>
      <trkpt lat="47.26088" lon="-2.32224">
        <ele>57</ele>
        <time>2019-09-08T10:09:49Z</time>
      </trkpt>
      <trkpt lat="47.26092" lon="-2.32218">
        <ele>57</ele>
        <time>2019-09-08T10:09:50Z</time>
      </trkpt>
      <trkpt lat="47.26096" lon="-2.32213">
        <ele>57</ele>
        <time>2019-09-08T10:09:51Z</time>
      </trkpt>
      <trkpt lat="47.26099" lon="-2.32206">
        <ele>57</ele>
        <time>2019-09-08T10:09:52Z</time>
      </trkpt>
      <trkpt lat="47.26102" lon="-2.32199">
        <ele>57</ele>
        <time>2019-09-08T10:09:53Z</time>
      </trkpt>
      <trkpt lat="47.26105" lon="-2.32192">
        <ele>57</ele>
        <time>2019-09-08T10:09:54Z</time>
      </trkpt>
      <trkpt lat="47.26108" lon="-2.32185">
        <ele>57</ele>
        <time>2019-09-08T10:09:55Z</time>
      </trkpt>
      <trkpt lat="47.26111" lon="-2.32178">
        <ele>57</ele>
        <time>2019-09-08T10:09:56Z</time>
      </trkpt>
      <trkpt lat="47.26117" lon="-2.32165">
        <ele>57</ele>
        <time>2019-09-08T10:09:58Z</time>
      </trkpt>
      <trkpt lat="47.26119" lon="-2.32158">
        <ele>57</ele>
        <time>2019-09-08T10:09:59Z</time>
      </trkpt>
      <trkpt lat="47.26121" lon="-2.32152">
        <ele>57</ele>
        <time>2019-09-08T10:10:00Z</time>
      </trkpt>
      <trkpt lat="47.26124" lon="-2.32145">
        <ele>57</ele>
        <time>2019-09-08T10:10:01Z</time>
      </trkpt>
      <trkpt lat="47.26127" lon="-2.32138">
        <ele>57</ele>
        <time>2019-09-08T10:10:02Z</time>
      </trkpt>
      <trkpt lat="47.2613" lon="-2.32131">
        <ele>58</ele>
        <time>2019-09-08T10:10:03Z</time>
      </trkpt>
      <trkpt lat="47.26132" lon="-2.32124">
        <ele>57</ele>
        <time>2019-09-08T10:10:04Z</time>
      </trkpt>
      <trkpt lat="47.26135" lon="-2.32117">
        <ele>57</ele>
        <time>2019-09-08T10:10:05Z</time>
      </trkpt>
      <trkpt lat="47.26137" lon="-2.3211">
        <ele>58</ele>
        <time>2019-09-08T10:10:06Z</time>
      </trkpt>
      <trkpt lat="47.26139" lon="-2.32103">
        <ele>58</ele>
        <time>2019-09-08T10:10:07Z</time>
      </trkpt>
      <trkpt lat="47.26141" lon="-2.32096">
        <ele>58</ele>
        <time>2019-09-08T10:10:08Z</time>
      </trkpt>
      <trkpt lat="47.26149" lon="-2.32068">
        <ele>58</ele>
        <time>2019-09-08T10:10:13Z</time>
      </trkpt>
      <trkpt lat="47.26151" lon="-2.32061">
        <ele>58</ele>
        <time>2019-09-08T10:10:14Z</time>
      </trkpt>
      <trkpt lat="47.26153" lon="-2.32054">
        <ele>58</ele>
        <time>2019-09-08T10:10:15Z</time>
      </trkpt>
      <trkpt lat="47.26155" lon="-2.32048">
        <ele>58</ele>
        <time>2019-09-08T10:10:16Z</time>
      </trkpt>
      <trkpt lat="47.26157" lon="-2.32042">
        <ele>58</ele>
        <time>2019-09-08T10:10:17Z</time>
      </trkpt>
      <trkpt lat="47.26163" lon="-2.32032">
        <ele>58</ele>
        <time>2019-09-08T10:10:19Z</time>
      </trkpt>
      <trkpt lat="47.26172" lon="-2.32026">
        <ele>58</ele>
        <time>2019-09-08T10:10:22Z</time>
      </trkpt>
      <trkpt lat="47.2618" lon="-2.32026">
        <ele>58</ele>
        <time>2019-09-08T10:10:24Z</time>
      </trkpt>
      <trkpt lat="47.26183" lon="-2.32026">
        <ele>59</ele>
        <time>2019-09-08T10:10:25Z</time>
      </trkpt>
      <trkpt lat="47.26189" lon="-2.32027">
        <ele>58</ele>
        <time>2019-09-08T10:10:28Z</time>
      </trkpt>
      <trkpt lat="47.26194" lon="-2.32026">
        <ele>59</ele>
        <time>2019-09-08T10:10:31Z</time>
      </trkpt>
      <trkpt lat="47.26196" lon="-2.32018">
        <ele>59</ele>
        <time>2019-09-08T10:10:33Z</time>
      </trkpt>
      <trkpt lat="47.26206" lon="-2.32009">
        <ele>60</ele>
        <time>2019-09-08T10:10:38Z</time>
      </trkpt>
      <trkpt lat="47.26209" lon="-2.32006">
        <ele>60</ele>
        <time>2019-09-08T10:10:39Z</time>
      </trkpt>
      <trkpt lat="47.26215" lon="-2.32">
        <ele>61</ele>
        <time>2019-09-08T10:10:42Z</time>
      </trkpt>
      <trkpt lat="47.2622" lon="-2.31993">
        <ele>61</ele>
        <time>2019-09-08T10:10:44Z</time>
      </trkpt>
      <trkpt lat="47.26223" lon="-2.31989">
        <ele>61</ele>
        <time>2019-09-08T10:10:45Z</time>
      </trkpt>
      <trkpt lat="47.26228" lon="-2.31981">
        <ele>61</ele>
        <time>2019-09-08T10:10:47Z</time>
      </trkpt>
      <trkpt lat="47.26234" lon="-2.31973">
        <ele>62</ele>
        <time>2019-09-08T10:10:49Z</time>
      </trkpt>
      <trkpt lat="47.26241" lon="-2.31959">
        <ele>62</ele>
        <time>2019-09-08T10:10:52Z</time>
      </trkpt>
      <trkpt lat="47.26245" lon="-2.31952">
        <ele>63</ele>
        <time>2019-09-08T10:10:54Z</time>
      </trkpt>
      <trkpt lat="47.26251" lon="-2.31945">
        <ele>63</ele>
        <time>2019-09-08T10:10:56Z</time>
      </trkpt>
      <trkpt lat="47.26257" lon="-2.31938">
        <ele>63</ele>
        <time>2019-09-08T10:10:58Z</time>
      </trkpt>
      <trkpt lat="47.26263" lon="-2.3193">
        <ele>63</ele>
        <time>2019-09-08T10:11:00Z</time>
      </trkpt>
      <trkpt lat="47.26266" lon="-2.31926">
        <ele>64</ele>
        <time>2019-09-08T10:11:01Z</time>
      </trkpt>
      <trkpt lat="47.2627" lon="-2.3192">
        <ele>64</ele>
        <time>2019-09-08T10:11:02Z</time>
      </trkpt>
      <trkpt lat="47.26274" lon="-2.31917">
        <ele>64</ele>
        <time>2019-09-08T10:11:03Z</time>
      </trkpt>
      <trkpt lat="47.26281" lon="-2.3191">
        <ele>64</ele>
        <time>2019-09-08T10:11:05Z</time>
      </trkpt>
      <trkpt lat="47.26288" lon="-2.31905">
        <ele>65</ele>
        <time>2019-09-08T10:11:07Z</time>
      </trkpt>
      <trkpt lat="47.26295" lon="-2.31886">
        <ele>64</ele>
        <time>2019-09-08T10:11:10Z</time>
      </trkpt>
      <trkpt lat="47.26298" lon="-2.31879">
        <ele>64</ele>
        <time>2019-09-08T10:11:11Z</time>
      </trkpt>
      <trkpt lat="47.26299" lon="-2.3187">
        <ele>64</ele>
        <time>2019-09-08T10:11:12Z</time>
      </trkpt>
      <trkpt lat="47.263" lon="-2.31862">
        <ele>63</ele>
        <time>2019-09-08T10:11:13Z</time>
      </trkpt>
      <trkpt lat="47.26302" lon="-2.31855">
        <ele>63</ele>
        <time>2019-09-08T10:11:14Z</time>
      </trkpt>
      <trkpt lat="47.26303" lon="-2.31847">
        <ele>62</ele>
        <time>2019-09-08T10:11:15Z</time>
      </trkpt>
      <trkpt lat="47.26304" lon="-2.3184">
        <ele>62</ele>
        <time>2019-09-08T10:11:16Z</time>
      </trkpt>
      <trkpt lat="47.26305" lon="-2.31834">
        <ele>60</ele>
        <time>2019-09-08T10:11:17Z</time>
      </trkpt>
      <trkpt lat="47.26306" lon="-2.31827">
        <ele>60</ele>
        <time>2019-09-08T10:11:18Z</time>
      </trkpt>
      <trkpt lat="47.26306" lon="-2.31821">
        <ele>60</ele>
        <time>2019-09-08T10:11:19Z</time>
      </trkpt>
      <trkpt lat="47.26308" lon="-2.31808">
        <ele>60</ele>
        <time>2019-09-08T10:11:22Z</time>
      </trkpt>
      <trkpt lat="47.26308" lon="-2.31801">
        <ele>61</ele>
        <time>2019-09-08T10:11:26Z</time>
      </trkpt>
      <trkpt lat="47.26307" lon="-2.31797">
        <ele>61</ele>
        <time>2019-09-08T10:11:28Z</time>
      </trkpt>
      <trkpt lat="47.26308" lon="-2.31788">
        <ele>62</ele>
        <time>2019-09-08T10:11:31Z</time>
      </trkpt>
      <trkpt lat="47.26307" lon="-2.31781">
        <ele>62</ele>
        <time>2019-09-08T10:11:34Z</time>
      </trkpt>
      <trkpt lat="47.26306" lon="-2.31775">
        <ele>62</ele>
        <time>2019-09-08T10:11:36Z</time>
      </trkpt>
      <trkpt lat="47.26305" lon="-2.31768">
        <ele>62</ele>
        <time>2019-09-08T10:11:40Z</time>
      </trkpt>
      <trkpt lat="47.26307" lon="-2.31762">
        <ele>61</ele>
        <time>2019-09-08T10:11:43Z</time>
      </trkpt>
      <trkpt lat="47.26307" lon="-2.31762">
        <ele>61</ele>
        <time>2019-09-08T10:11:51Z</time>
      </trkpt>
      <trkpt lat="47.26307" lon="-2.31762">
        <ele>4.1</ele>
        <time>2019-09-08T10:11:51Z</time>
      </trkpt>
      <trkpt lat="47.26307" lon="-2.31762">
        <ele>4.1</ele>
        <time>2019-09-08T10:12:23Z</time>
      </trkpt>
      <trkpt lat="47.263" lon="-2.31739">
        <ele>61</ele>
        <time>2019-09-08T10:12:23Z</time>
      </trkpt>
      <trkpt lat="47.2631" lon="-2.31715">
        <ele>67</ele>
        <time>2019-09-08T10:12:29Z</time>
      </trkpt>
      <trkpt lat="47.26317" lon="-2.31714">
        <ele>61</ele>
        <time>2019-09-08T10:12:30Z</time>
      </trkpt>
      <trkpt lat="47.26325" lon="-2.31708">
        <ele>61</ele>
        <time>2019-09-08T10:12:33Z</time>
      </trkpt>
      <trkpt lat="47.26329" lon="-2.31703">
        <ele>62</ele>
        <time>2019-09-08T10:12:35Z</time>
      </trkpt>
      <trkpt lat="47.26333" lon="-2.31695">
        <ele>62</ele>
        <time>2019-09-08T10:12:37Z</time>
      </trkpt>
      <trkpt lat="47.26339" lon="-2.31689">
        <ele>60</ele>
        <time>2019-09-08T10:12:39Z</time>
      </trkpt>
      <trkpt lat="47.26345" lon="-2.31686">
        <ele>61</ele>
        <time>2019-09-08T10:12:41Z</time>
      </trkpt>
      <trkpt lat="47.26348" lon="-2.31685">
        <ele>62</ele>
        <time>2019-09-08T10:12:42Z</time>
      </trkpt>
      <trkpt lat="47.2635" lon="-2.31683">
        <ele>62</ele>
        <time>2019-09-08T10:12:43Z</time>
      </trkpt>
      <trkpt lat="47.26353" lon="-2.31682">
        <ele>63</ele>
        <time>2019-09-08T10:12:44Z</time>
      </trkpt>
      <trkpt lat="47.26355" lon="-2.3168">
        <ele>63</ele>
        <time>2019-09-08T10:12:45Z</time>
      </trkpt>
      <trkpt lat="47.2636" lon="-2.31678">
        <ele>65</ele>
        <time>2019-09-08T10:12:47Z</time>
      </trkpt>
      <trkpt lat="47.26366" lon="-2.31677">
        <ele>64</ele>
        <time>2019-09-08T10:12:49Z</time>
      </trkpt>
      <trkpt lat="47.2637" lon="-2.31675">
        <ele>68</ele>
        <time>2019-09-08T10:12:51Z</time>
      </trkpt>
      <trkpt lat="47.26376" lon="-2.3167">
        <ele>70</ele>
        <time>2019-09-08T10:12:53Z</time>
      </trkpt>
      <trkpt lat="47.26387" lon="-2.31666">
        <ele>70</ele>
        <time>2019-09-08T10:12:57Z</time>
      </trkpt>
      <trkpt lat="47.2639" lon="-2.31665">
        <ele>70</ele>
        <time>2019-09-08T10:12:58Z</time>
      </trkpt>
      <trkpt lat="47.26393" lon="-2.31663">
        <ele>70</ele>
        <time>2019-09-08T10:12:59Z</time>
      </trkpt>
      <trkpt lat="47.26396" lon="-2.31658">
        <ele>72</ele>
        <time>2019-09-08T10:13:01Z</time>
      </trkpt>
      <trkpt lat="47.26397" lon="-2.3165">
        <ele>72</ele>
        <time>2019-09-08T10:13:03Z</time>
      </trkpt>
      <trkpt lat="47.26397" lon="-2.31646">
        <ele>71</ele>
        <time>2019-09-08T10:13:04Z</time>
      </trkpt>
      <trkpt lat="47.26399" lon="-2.31638">
        <ele>71</ele>
        <time>2019-09-08T10:13:06Z</time>
      </trkpt>
      <trkpt lat="47.264" lon="-2.31633">
        <ele>71</ele>
        <time>2019-09-08T10:13:07Z</time>
      </trkpt>
      <trkpt lat="47.26402" lon="-2.31624">
        <ele>70</ele>
        <time>2019-09-08T10:13:09Z</time>
      </trkpt>
      <trkpt lat="47.26403" lon="-2.31614">
        <ele>70</ele>
        <time>2019-09-08T10:13:12Z</time>
      </trkpt>
      <trkpt lat="47.26403" lon="-2.31605">
        <ele>70</ele>
        <time>2019-09-08T10:13:14Z</time>
      </trkpt>
      <trkpt lat="47.26404" lon="-2.31591">
        <ele>70</ele>
        <time>2019-09-08T10:13:17Z</time>
      </trkpt>
      <trkpt lat="47.26404" lon="-2.31584">
        <ele>70</ele>
        <time>2019-09-08T10:13:19Z</time>
      </trkpt>
      <trkpt lat="47.26404" lon="-2.31576">
        <ele>70</ele>
        <time>2019-09-08T10:13:20Z</time>
      </trkpt>
      <trkpt lat="47.26404" lon="-2.31569">
        <ele>70</ele>
        <time>2019-09-08T10:13:22Z</time>
      </trkpt>
      <trkpt lat="47.26405" lon="-2.31562">
        <ele>70</ele>
        <time>2019-09-08T10:13:24Z</time>
      </trkpt>
      <trkpt lat="47.2641" lon="-2.31559">
        <ele>70</ele>
        <time>2019-09-08T10:13:27Z</time>
      </trkpt>
      <trkpt lat="47.2641" lon="-2.31559">
        <ele>70</ele>
        <time>2019-09-08T10:13:35Z</time>
      </trkpt>
      <trkpt lat="47.2641" lon="-2.31559">
        <ele>9.8</ele>
        <time>2019-09-08T10:13:35Z</time>
      </trkpt>
      <trkpt lat="47.2641" lon="-2.31559">
        <ele>9.8</ele>
        <time>2019-09-08T10:13:53Z</time>
      </trkpt>
      <trkpt lat="47.26432" lon="-2.31556">
        <ele>65</ele>
        <time>2019-09-08T10:13:58Z</time>
      </trkpt>
      <trkpt lat="47.26432" lon="-2.31556">
        <ele>11.1</ele>
        <time>2019-09-08T10:14:06Z</time>
      </trkpt>
      <trkpt lat="47.26432" lon="-2.31556">
        <ele>11.1</ele>
        <time>2019-09-08T10:16:23Z</time>
      </trkpt>
    </trkseg>
  </trk>
</gpx>